<?xml version='1.0' encoding='UTF-8'?><gpx version="1.1" creator="JPX - https://github.com/jenetics/jpx" xmlns="http://www.topografix.com/GPX/1/1"><trk><trkseg><trkpt lat="45.1119317" lon="7.56202"><ele>304.0</ele><time>2026-05-03T08:27:19.115Z</time></trkpt><trkpt lat="45.11195" lon="7.5619333"><ele>304.0</ele><time>2026-05-03T08:29:56.108Z</time></trkpt><trkpt lat="45.1120017" lon="7.5618817"><ele>304.0</ele><time>2026-05-03T08:29:57.108Z</time></trkpt><trkpt lat="45.111955" lon="7.5620167"><ele>304.0</ele><time>2026-05-03T08:30:32.115Z</time></trkpt><trkpt lat="45.1119983" lon="7.5621133"><ele>304.0</ele><time>2026-05-03T08:30:35.114Z</time></trkpt><trkpt lat="45.1120817" lon="7.5620567"><ele>304.0</ele><time>2026-05-03T08:30:39.113Z</time></trkpt><trkpt lat="45.1120783" lon="7.5619233"><ele>304.0</ele><time>2026-05-03T08:30:42.109Z</time></trkpt><trkpt lat="45.112055" lon="7.5618117"><ele>304.0</ele><time>2026-05-03T08:30:44.113Z</time></trkpt><trkpt lat="45.1120433" lon="7.5617083"><ele>304.0</ele><time>2026-05-03T08:30:47.112Z</time></trkpt><trkpt lat="45.111995" lon="7.56164"><ele>304.0</ele><time>2026-05-03T08:30:56.115Z</time></trkpt><trkpt lat="45.111945" lon="7.5614617"><ele>304.0</ele><time>2026-05-03T08:31:01.111Z</time></trkpt><trkpt lat="45.1119833" lon="7.56135"><ele>304.0</ele><time>2026-05-03T08:31:20.112Z</time></trkpt><trkpt lat="45.11204" lon="7.5611467"><ele>304.75</ele><time>2026-05-03T08:31:22.111Z</time></trkpt><trkpt lat="45.1120767" lon="7.5610017"><ele>305.5</ele><time>2026-05-03T08:31:23.111Z</time></trkpt><trkpt lat="45.11211" lon="7.5608283"><ele>306.25</ele><time>2026-05-03T08:31:24.112Z</time></trkpt><trkpt lat="45.1121517" lon="7.5606533"><ele>307.0</ele><time>2026-05-03T08:31:25.116Z</time></trkpt><trkpt lat="45.1122083" lon="7.5604683"><ele>307.0</ele><time>2026-05-03T08:31:26.115Z</time></trkpt><trkpt lat="45.1122717" lon="7.5602833"><ele>307.0</ele><time>2026-05-03T08:31:27.116Z</time></trkpt><trkpt lat="45.112345" lon="7.560085"><ele>307.0</ele><time>2026-05-03T08:31:28.112Z</time></trkpt><trkpt lat="45.1124217" lon="7.559885"><ele>306.66666666666663</ele><time>2026-05-03T08:31:29.115Z</time></trkpt><trkpt lat="45.1125083" lon="7.5596783"><ele>306.3333333333333</ele><time>2026-05-03T08:31:30.115Z</time></trkpt><trkpt lat="45.1125933" lon="7.5594917"><ele>306.0</ele><time>2026-05-03T08:31:31.117Z</time></trkpt><trkpt lat="45.112685" lon="7.5593133"><ele>306.5</ele><time>2026-05-03T08:31:32.115Z</time></trkpt><trkpt lat="45.1127717" lon="7.5591383"><ele>307.0</ele><time>2026-05-03T08:31:33.121Z</time></trkpt><trkpt lat="45.1128567" lon="7.5589783"><ele>307.5</ele><time>2026-05-03T08:31:34.116Z</time></trkpt><trkpt lat="45.11294" lon="7.5588117"><ele>308.0</ele><time>2026-05-03T08:31:35.112Z</time></trkpt><trkpt lat="45.1130167" lon="7.5586583"><ele>308.0</ele><time>2026-05-03T08:31:36.111Z</time></trkpt><trkpt lat="45.113095" lon="7.5585117"><ele>308.0</ele><time>2026-05-03T08:31:37.116Z</time></trkpt><trkpt lat="45.1131767" lon="7.5583633"><ele>308.0</ele><time>2026-05-03T08:31:38.11Z</time></trkpt><trkpt lat="45.11326" lon="7.558205"><ele>308.0</ele><time>2026-05-03T08:31:39.119Z</time></trkpt><trkpt lat="45.1133417" lon="7.5580433"><ele>308.0</ele><time>2026-05-03T08:31:40.111Z</time></trkpt><trkpt lat="45.1134367" lon="7.557885"><ele>308.0</ele><time>2026-05-03T08:31:41.114Z</time></trkpt><trkpt lat="45.11353" lon="7.55772"><ele>308.0</ele><time>2026-05-03T08:31:42.116Z</time></trkpt><trkpt lat="45.1136217" lon="7.557555"><ele>308.0</ele><time>2026-05-03T08:31:43.114Z</time></trkpt><trkpt lat="45.1137117" lon="7.5573817"><ele>308.0</ele><time>2026-05-03T08:31:44.109Z</time></trkpt><trkpt lat="45.1138133" lon="7.5571967"><ele>308.0</ele><time>2026-05-03T08:31:45.114Z</time></trkpt><trkpt lat="45.1139117" lon="7.5570117"><ele>308.0</ele><time>2026-05-03T08:31:46.114Z</time></trkpt><trkpt lat="45.1140133" lon="7.5568233"><ele>307.6666666666667</ele><time>2026-05-03T08:31:47.111Z</time></trkpt><trkpt lat="45.1141117" lon="7.5566183"><ele>307.3333333333333</ele><time>2026-05-03T08:31:48.118Z</time></trkpt><trkpt lat="45.1142217" lon="7.5564133"><ele>307.0</ele><time>2026-05-03T08:31:49.118Z</time></trkpt><trkpt lat="45.1143233" lon="7.5562083"><ele>307.66666666666663</ele><time>2026-05-03T08:31:50.111Z</time></trkpt><trkpt lat="45.1144317" lon="7.5560117"><ele>308.3333333333333</ele><time>2026-05-03T08:31:51.112Z</time></trkpt><trkpt lat="45.1145367" lon="7.55582"><ele>309.0</ele><time>2026-05-03T08:31:52.112Z</time></trkpt><trkpt lat="45.1146333" lon="7.555635"><ele>309.0</ele><time>2026-05-03T08:31:53.111Z</time></trkpt><trkpt lat="45.114725" lon="7.5554533"><ele>309.0</ele><time>2026-05-03T08:31:54.115Z</time></trkpt><trkpt lat="45.1148117" lon="7.5552783"><ele>309.0</ele><time>2026-05-03T08:31:55.112Z</time></trkpt><trkpt lat="45.1149083" lon="7.5551083"><ele>309.3333333333333</ele><time>2026-05-03T08:31:56.112Z</time></trkpt><trkpt lat="45.1150017" lon="7.55493"><ele>309.66666666666663</ele><time>2026-05-03T08:31:57.115Z</time></trkpt><trkpt lat="45.115095" lon="7.5547517"><ele>310.0</ele><time>2026-05-03T08:31:58.111Z</time></trkpt><trkpt lat="45.11519" lon="7.55457"><ele>310.66666666666663</ele><time>2026-05-03T08:31:59.116Z</time></trkpt><trkpt lat="45.1152817" lon="7.554385"><ele>311.3333333333333</ele><time>2026-05-03T08:32:00.111Z</time></trkpt><trkpt lat="45.1153683" lon="7.5541983"><ele>312.0</ele><time>2026-05-03T08:32:01.113Z</time></trkpt><trkpt lat="45.115465" lon="7.5540117"><ele>312.0</ele><time>2026-05-03T08:32:02.114Z</time></trkpt><trkpt lat="45.11555" lon="7.553815"><ele>312.0</ele><time>2026-05-03T08:32:03.114Z</time></trkpt><trkpt lat="45.1156517" lon="7.5536267"><ele>312.0</ele><time>2026-05-03T08:32:04.117Z</time></trkpt><trkpt lat="45.11574" lon="7.5534267"><ele>311.6666666666667</ele><time>2026-05-03T08:32:05.116Z</time></trkpt><trkpt lat="45.11582" lon="7.5532183"><ele>311.33333333333337</ele><time>2026-05-03T08:32:06.113Z</time></trkpt><trkpt lat="45.1158983" lon="7.55301"><ele>311.0</ele><time>2026-05-03T08:32:07.116Z</time></trkpt><trkpt lat="45.1159783" lon="7.5527983"><ele>311.0</ele><time>2026-05-03T08:32:08.112Z</time></trkpt><trkpt lat="45.1160583" lon="7.552585"><ele>311.0</ele><time>2026-05-03T08:32:09.117Z</time></trkpt><trkpt lat="45.116135" lon="7.5523633"><ele>311.0</ele><time>2026-05-03T08:32:10.112Z</time></trkpt><trkpt lat="45.11621" lon="7.552135"><ele>311.33333333333337</ele><time>2026-05-03T08:32:11.114Z</time></trkpt><trkpt lat="45.1162867" lon="7.5519017"><ele>311.6666666666667</ele><time>2026-05-03T08:32:12.11Z</time></trkpt><trkpt lat="45.116365" lon="7.5516667"><ele>312.0</ele><time>2026-05-03T08:32:13.112Z</time></trkpt><trkpt lat="45.116445" lon="7.5514283"><ele>312.0</ele><time>2026-05-03T08:32:14.115Z</time></trkpt><trkpt lat="45.1165333" lon="7.55118"><ele>312.0</ele><time>2026-05-03T08:32:15.12Z</time></trkpt><trkpt lat="45.1166267" lon="7.5509233"><ele>312.0</ele><time>2026-05-03T08:32:16.112Z</time></trkpt><trkpt lat="45.1167083" lon="7.5506667"><ele>312.0</ele><time>2026-05-03T08:32:17.115Z</time></trkpt><trkpt lat="45.1167917" lon="7.550415"><ele>312.0</ele><time>2026-05-03T08:32:18.115Z</time></trkpt><trkpt lat="45.1168667" lon="7.5501667"><ele>312.0</ele><time>2026-05-03T08:32:19.112Z</time></trkpt><trkpt lat="45.1169467" lon="7.549915"><ele>312.3333333333333</ele><time>2026-05-03T08:32:20.114Z</time></trkpt><trkpt lat="45.117025" lon="7.549665"><ele>312.66666666666663</ele><time>2026-05-03T08:32:21.114Z</time></trkpt><trkpt lat="45.1171033" lon="7.5494067"><ele>313.0</ele><time>2026-05-03T08:32:22.114Z</time></trkpt><trkpt lat="45.1171833" lon="7.549145"><ele>313.66666666666663</ele><time>2026-05-03T08:32:23.111Z</time></trkpt><trkpt lat="45.1172583" lon="7.5488833"><ele>314.3333333333333</ele><time>2026-05-03T08:32:24.115Z</time></trkpt><trkpt lat="45.1173233" lon="7.5486183"><ele>315.0</ele><time>2026-05-03T08:32:25.112Z</time></trkpt><trkpt lat="45.11738" lon="7.5483433"><ele>316.3333333333333</ele><time>2026-05-03T08:32:26.113Z</time></trkpt><trkpt lat="45.1174283" lon="7.54806"><ele>317.66666666666663</ele><time>2026-05-03T08:32:27.115Z</time></trkpt><trkpt lat="45.1174733" lon="7.54777"><ele>319.0</ele><time>2026-05-03T08:32:28.114Z</time></trkpt><trkpt lat="45.1175017" lon="7.5474767"><ele>319.3333333333333</ele><time>2026-05-03T08:32:29.111Z</time></trkpt><trkpt lat="45.1175317" lon="7.5471817"><ele>319.6666666666667</ele><time>2026-05-03T08:32:30.117Z</time></trkpt><trkpt lat="45.117555" lon="7.54688"><ele>320.0</ele><time>2026-05-03T08:32:31.113Z</time></trkpt><trkpt lat="45.1175667" lon="7.5465933"><ele>319.0</ele><time>2026-05-03T08:32:32.111Z</time></trkpt><trkpt lat="45.1175817" lon="7.5463217"><ele>318.0</ele><time>2026-05-03T08:32:33.115Z</time></trkpt><trkpt lat="45.1176" lon="7.5460483"><ele>317.0</ele><time>2026-05-03T08:32:34.113Z</time></trkpt><trkpt lat="45.11761" lon="7.5457867"><ele>316.6666666666667</ele><time>2026-05-03T08:32:35.116Z</time></trkpt><trkpt lat="45.1176183" lon="7.5455117"><ele>316.3333333333333</ele><time>2026-05-03T08:32:36.118Z</time></trkpt><trkpt lat="45.11763" lon="7.5452433"><ele>316.0</ele><time>2026-05-03T08:32:37.117Z</time></trkpt><trkpt lat="45.11764" lon="7.54497"><ele>316.0</ele><time>2026-05-03T08:32:38.114Z</time></trkpt><trkpt lat="45.11765" lon="7.54471"><ele>316.0</ele><time>2026-05-03T08:32:39.116Z</time></trkpt><trkpt lat="45.1176517" lon="7.5444733"><ele>316.0</ele><time>2026-05-03T08:32:40.114Z</time></trkpt><trkpt lat="45.1176567" lon="7.54425"><ele>316.75</ele><time>2026-05-03T08:32:41.113Z</time></trkpt><trkpt lat="45.1176617" lon="7.5440333"><ele>317.5</ele><time>2026-05-03T08:32:42.114Z</time></trkpt><trkpt lat="45.1176717" lon="7.5438383"><ele>318.25</ele><time>2026-05-03T08:32:43.117Z</time></trkpt><trkpt lat="45.117685" lon="7.54367"><ele>319.0</ele><time>2026-05-03T08:32:44.113Z</time></trkpt><trkpt lat="45.1177017" lon="7.5435217"><ele>319.2</ele><time>2026-05-03T08:32:45.116Z</time></trkpt><trkpt lat="45.1177267" lon="7.5433833"><ele>319.4</ele><time>2026-05-03T08:32:46.112Z</time></trkpt><trkpt lat="45.1177567" lon="7.5432583"><ele>319.6</ele><time>2026-05-03T08:32:47.113Z</time></trkpt><trkpt lat="45.11779" lon="7.543145"><ele>319.8</ele><time>2026-05-03T08:32:48.114Z</time></trkpt><trkpt lat="45.1178417" lon="7.5430533"><ele>320.0</ele><time>2026-05-03T08:32:49.115Z</time></trkpt><trkpt lat="45.1179183" lon="7.5429867"><ele>320.0</ele><time>2026-05-03T08:32:50.116Z</time></trkpt><trkpt lat="45.1180233" lon="7.5429517"><ele>320.0</ele><time>2026-05-03T08:32:51.116Z</time></trkpt><trkpt lat="45.1181517" lon="7.542905"><ele>320.0</ele><time>2026-05-03T08:32:52.114Z</time></trkpt><trkpt lat="45.118285" lon="7.5428333"><ele>320.0</ele><time>2026-05-03T08:32:53.112Z</time></trkpt><trkpt lat="45.1184367" lon="7.54275"><ele>320.25</ele><time>2026-05-03T08:32:54.111Z</time></trkpt><trkpt lat="45.1185767" lon="7.54266"><ele>320.5</ele><time>2026-05-03T08:32:55.113Z</time></trkpt><trkpt lat="45.11872" lon="7.542575"><ele>320.75</ele><time>2026-05-03T08:32:56.112Z</time></trkpt><trkpt lat="45.1188383" lon="7.542495"><ele>321.0</ele><time>2026-05-03T08:32:57.117Z</time></trkpt><trkpt lat="45.118945" lon="7.54243"><ele>321.0</ele><time>2026-05-03T08:32:58.113Z</time></trkpt><trkpt lat="45.1190617" lon="7.54237"><ele>321.0</ele><time>2026-05-03T08:32:59.113Z</time></trkpt><trkpt lat="45.1191633" lon="7.5423383"><ele>321.0</ele><time>2026-05-03T08:33:00.115Z</time></trkpt><trkpt lat="45.11927" lon="7.5423233"><ele>321.0</ele><time>2026-05-03T08:33:01.115Z</time></trkpt><trkpt lat="45.119365" lon="7.54232"><ele>321.0</ele><time>2026-05-03T08:33:02.113Z</time></trkpt><trkpt lat="45.1194633" lon="7.5423317"><ele>320.6</ele><time>2026-05-03T08:33:03.115Z</time></trkpt><trkpt lat="45.1195733" lon="7.5423483"><ele>320.20000000000005</ele><time>2026-05-03T08:33:04.112Z</time></trkpt><trkpt lat="45.1196717" lon="7.5423683"><ele>319.79999999999995</ele><time>2026-05-03T08:33:05.113Z</time></trkpt><trkpt lat="45.11977" lon="7.5423867"><ele>319.4</ele><time>2026-05-03T08:33:06.108Z</time></trkpt><trkpt lat="45.1198833" lon="7.542395"><ele>319.0</ele><time>2026-05-03T08:33:07.112Z</time></trkpt><trkpt lat="45.1200083" lon="7.5423967"><ele>319.0</ele><time>2026-05-03T08:33:08.11Z</time></trkpt><trkpt lat="45.120155" lon="7.5423867"><ele>319.0</ele><time>2026-05-03T08:33:09.116Z</time></trkpt><trkpt lat="45.12031" lon="7.5423717"><ele>319.0</ele><time>2026-05-03T08:33:10.114Z</time></trkpt><trkpt lat="45.1204683" lon="7.54236"><ele>319.0</ele><time>2026-05-03T08:33:11.112Z</time></trkpt><trkpt lat="45.120635" lon="7.54235"><ele>319.0</ele><time>2026-05-03T08:33:12.114Z</time></trkpt><trkpt lat="45.1208117" lon="7.5423417"><ele>319.0</ele><time>2026-05-03T08:33:13.114Z</time></trkpt><trkpt lat="45.1209917" lon="7.5423317"><ele>318.0</ele><time>2026-05-03T08:33:14.112Z</time></trkpt><trkpt lat="45.1211633" lon="7.542325"><ele>317.0</ele><time>2026-05-03T08:33:15.112Z</time></trkpt><trkpt lat="45.1213367" lon="7.54232"><ele>316.0</ele><time>2026-05-03T08:33:16.114Z</time></trkpt><trkpt lat="45.1215067" lon="7.54231"><ele>315.66666666666663</ele><time>2026-05-03T08:33:17.113Z</time></trkpt><trkpt lat="45.1216667" lon="7.5423"><ele>315.3333333333333</ele><time>2026-05-03T08:33:18.111Z</time></trkpt><trkpt lat="45.1218367" lon="7.5422883"><ele>315.0</ele><time>2026-05-03T08:33:19.115Z</time></trkpt><trkpt lat="45.121985" lon="7.54228"><ele>315.0</ele><time>2026-05-03T08:33:20.114Z</time></trkpt><trkpt lat="45.1221267" lon="7.5422667"><ele>315.0</ele><time>2026-05-03T08:33:21.116Z</time></trkpt><trkpt lat="45.12226" lon="7.54225"><ele>315.0</ele><time>2026-05-03T08:33:22.118Z</time></trkpt><trkpt lat="45.122375" lon="7.5422383"><ele>315.0</ele><time>2026-05-03T08:33:23.116Z</time></trkpt><trkpt lat="45.12247" lon="7.5422333"><ele>314.8333333333333</ele><time>2026-05-03T08:33:24.113Z</time></trkpt><trkpt lat="45.122555" lon="7.5422483"><ele>314.6666666666667</ele><time>2026-05-03T08:33:25.118Z</time></trkpt><trkpt lat="45.1226317" lon="7.5422883"><ele>314.5</ele><time>2026-05-03T08:33:26.113Z</time></trkpt><trkpt lat="45.1226867" lon="7.5423617"><ele>314.33333333333337</ele><time>2026-05-03T08:33:27.115Z</time></trkpt><trkpt lat="45.1227383" lon="7.5424333"><ele>314.1666666666667</ele><time>2026-05-03T08:33:28.113Z</time></trkpt><trkpt lat="45.122845" lon="7.5424483"><ele>314.0</ele><time>2026-05-03T08:33:30.114Z</time></trkpt><trkpt lat="45.1228983" lon="7.5423783"><ele>314.0</ele><time>2026-05-03T08:33:31.113Z</time></trkpt><trkpt lat="45.1229567" lon="7.542305"><ele>314.0</ele><time>2026-05-03T08:33:32.114Z</time></trkpt><trkpt lat="45.12303" lon="7.5422467"><ele>314.0</ele><time>2026-05-03T08:33:33.11Z</time></trkpt><trkpt lat="45.12312" lon="7.5422067"><ele>314.0</ele><time>2026-05-03T08:33:34.114Z</time></trkpt><trkpt lat="45.123275" lon="7.5422183"><ele>314.0</ele><time>2026-05-03T08:33:35.114Z</time></trkpt><trkpt lat="45.123445" lon="7.5422217"><ele>314.6666666666667</ele><time>2026-05-03T08:33:36.113Z</time></trkpt><trkpt lat="45.1236383" lon="7.542195"><ele>315.3333333333333</ele><time>2026-05-03T08:33:37.114Z</time></trkpt><trkpt lat="45.1238517" lon="7.54216"><ele>316.0</ele><time>2026-05-03T08:33:38.116Z</time></trkpt><trkpt lat="45.1240917" lon="7.5421133"><ele>316.0</ele><time>2026-05-03T08:33:39.112Z</time></trkpt><trkpt lat="45.1243133" lon="7.5420667"><ele>316.0</ele><time>2026-05-03T08:33:40.114Z</time></trkpt><trkpt lat="45.124525" lon="7.5420183"><ele>316.0</ele><time>2026-05-03T08:33:41.114Z</time></trkpt><trkpt lat="45.1247283" lon="7.5419633"><ele>317.0</ele><time>2026-05-03T08:33:42.116Z</time></trkpt><trkpt lat="45.12493" lon="7.5418933"><ele>318.0</ele><time>2026-05-03T08:33:43.115Z</time></trkpt><trkpt lat="45.1251217" lon="7.5418067"><ele>319.0</ele><time>2026-05-03T08:33:44.114Z</time></trkpt><trkpt lat="45.1253133" lon="7.5417067"><ele>319.0</ele><time>2026-05-03T08:33:45.114Z</time></trkpt><trkpt lat="45.1254967" lon="7.5416117"><ele>319.0</ele><time>2026-05-03T08:33:46.116Z</time></trkpt><trkpt lat="45.125665" lon="7.541545"><ele>319.0</ele><time>2026-05-03T08:33:47.114Z</time></trkpt><trkpt lat="45.12585" lon="7.54149"><ele>318.66666666666663</ele><time>2026-05-03T08:33:48.115Z</time></trkpt><trkpt lat="45.12603" lon="7.54144"><ele>318.3333333333333</ele><time>2026-05-03T08:33:49.113Z</time></trkpt><trkpt lat="45.1261983" lon="7.541395"><ele>318.0</ele><time>2026-05-03T08:33:50.113Z</time></trkpt><trkpt lat="45.126355" lon="7.54137"><ele>318.0</ele><time>2026-05-03T08:33:51.114Z</time></trkpt><trkpt lat="45.1264983" lon="7.541385"><ele>318.0</ele><time>2026-05-03T08:33:52.116Z</time></trkpt><trkpt lat="45.1266433" lon="7.5414467"><ele>318.0</ele><time>2026-05-03T08:33:53.109Z</time></trkpt><trkpt lat="45.1268083" lon="7.5415067"><ele>318.3333333333333</ele><time>2026-05-03T08:33:54.116Z</time></trkpt><trkpt lat="45.1269817" lon="7.54156"><ele>318.66666666666663</ele><time>2026-05-03T08:33:55.114Z</time></trkpt><trkpt lat="45.1271617" lon="7.5416117"><ele>319.0</ele><time>2026-05-03T08:33:56.112Z</time></trkpt><trkpt lat="45.1273417" lon="7.5416533"><ele>319.66666666666663</ele><time>2026-05-03T08:33:57.12Z</time></trkpt><trkpt lat="45.12752" lon="7.5417"><ele>320.3333333333333</ele><time>2026-05-03T08:33:58.114Z</time></trkpt><trkpt lat="45.1276967" lon="7.5417367"><ele>321.0</ele><time>2026-05-03T08:33:59.113Z</time></trkpt><trkpt lat="45.1278783" lon="7.541755"><ele>321.0</ele><time>2026-05-03T08:34:00.114Z</time></trkpt><trkpt lat="45.1280583" lon="7.5417483"><ele>321.0</ele><time>2026-05-03T08:34:01.115Z</time></trkpt><trkpt lat="45.128235" lon="7.5417117"><ele>321.0</ele><time>2026-05-03T08:34:02.114Z</time></trkpt><trkpt lat="45.12842" lon="7.5416433"><ele>321.0</ele><time>2026-05-03T08:34:03.116Z</time></trkpt><trkpt lat="45.1286083" lon="7.54156"><ele>321.0</ele><time>2026-05-03T08:34:04.11Z</time></trkpt><trkpt lat="45.1288033" lon="7.54147"><ele>321.0</ele><time>2026-05-03T08:34:05.112Z</time></trkpt><trkpt lat="45.1290017" lon="7.5413767"><ele>321.0</ele><time>2026-05-03T08:34:06.11Z</time></trkpt><trkpt lat="45.129205" lon="7.5412867"><ele>321.0</ele><time>2026-05-03T08:34:07.111Z</time></trkpt><trkpt lat="45.1294067" lon="7.5412"><ele>321.0</ele><time>2026-05-03T08:34:08.113Z</time></trkpt><trkpt lat="45.1296117" lon="7.5411083"><ele>321.0</ele><time>2026-05-03T08:34:09.111Z</time></trkpt><trkpt lat="45.129815" lon="7.5410133"><ele>321.0</ele><time>2026-05-03T08:34:10.114Z</time></trkpt><trkpt lat="45.1300133" lon="7.5409267"><ele>321.0</ele><time>2026-05-03T08:34:11.113Z</time></trkpt><trkpt lat="45.1302133" lon="7.5408367"><ele>320.6666666666667</ele><time>2026-05-03T08:34:12.113Z</time></trkpt><trkpt lat="45.1304083" lon="7.5407417"><ele>320.33333333333337</ele><time>2026-05-03T08:34:13.114Z</time></trkpt><trkpt lat="45.1305983" lon="7.5406517"><ele>320.0</ele><time>2026-05-03T08:34:14.114Z</time></trkpt><trkpt lat="45.13079" lon="7.5405633"><ele>320.6666666666667</ele><time>2026-05-03T08:34:15.113Z</time></trkpt><trkpt lat="45.1309817" lon="7.5404717"><ele>321.3333333333333</ele><time>2026-05-03T08:34:16.112Z</time></trkpt><trkpt lat="45.1311667" lon="7.5403783"><ele>322.0</ele><time>2026-05-03T08:34:17.116Z</time></trkpt><trkpt lat="45.13136" lon="7.540285"><ele>322.66666666666663</ele><time>2026-05-03T08:34:18.112Z</time></trkpt><trkpt lat="45.13154" lon="7.5402"><ele>323.3333333333333</ele><time>2026-05-03T08:34:19.113Z</time></trkpt><trkpt lat="45.13173" lon="7.5401167"><ele>324.0</ele><time>2026-05-03T08:34:20.115Z</time></trkpt><trkpt lat="45.13192" lon="7.5400433"><ele>322.6666666666667</ele><time>2026-05-03T08:34:21.116Z</time></trkpt><trkpt lat="45.132115" lon="7.5399883"><ele>321.33333333333337</ele><time>2026-05-03T08:34:22.114Z</time></trkpt><trkpt lat="45.1323167" lon="7.5399483"><ele>320.0</ele><time>2026-05-03T08:34:23.116Z</time></trkpt><trkpt lat="45.132505" lon="7.5399317"><ele>319.33333333333337</ele><time>2026-05-03T08:34:24.111Z</time></trkpt><trkpt lat="45.1326933" lon="7.539915"><ele>318.6666666666667</ele><time>2026-05-03T08:34:25.115Z</time></trkpt><trkpt lat="45.132875" lon="7.539895"><ele>318.0</ele><time>2026-05-03T08:34:26.116Z</time></trkpt><trkpt lat="45.1330433" lon="7.539875"><ele>318.0</ele><time>2026-05-03T08:34:27.117Z</time></trkpt><trkpt lat="45.1331983" lon="7.5398583"><ele>318.0</ele><time>2026-05-03T08:34:28.121Z</time></trkpt><trkpt lat="45.1333433" lon="7.5398433"><ele>318.0</ele><time>2026-05-03T08:34:29.113Z</time></trkpt><trkpt lat="45.13348" lon="7.5398317"><ele>318.0</ele><time>2026-05-03T08:34:30.114Z</time></trkpt><trkpt lat="45.1336183" lon="7.5398183"><ele>317.25</ele><time>2026-05-03T08:34:31.115Z</time></trkpt><trkpt lat="45.1337433" lon="7.5398117"><ele>316.5</ele><time>2026-05-03T08:34:32.113Z</time></trkpt><trkpt lat="45.1338583" lon="7.5398067"><ele>315.75</ele><time>2026-05-03T08:34:33.113Z</time></trkpt><trkpt lat="45.133965" lon="7.5397983"><ele>315.0</ele><time>2026-05-03T08:34:34.111Z</time></trkpt><trkpt lat="45.1340717" lon="7.53979"><ele>314.1666666666667</ele><time>2026-05-03T08:34:35.111Z</time></trkpt><trkpt lat="45.1341583" lon="7.5397783"><ele>313.3333333333333</ele><time>2026-05-03T08:34:36.114Z</time></trkpt><trkpt lat="45.1342333" lon="7.5397667"><ele>312.5</ele><time>2026-05-03T08:34:37.111Z</time></trkpt><trkpt lat="45.134345" lon="7.53974"><ele>311.66666666666663</ele><time>2026-05-03T08:34:39.111Z</time></trkpt><trkpt lat="45.13442" lon="7.5397317"><ele>310.8333333333333</ele><time>2026-05-03T08:34:51.114Z</time></trkpt><trkpt lat="45.1345167" lon="7.5397167"><ele>310.0</ele><time>2026-05-03T08:34:53.113Z</time></trkpt><trkpt lat="45.13463" lon="7.5397083"><ele>310.0</ele><time>2026-05-03T08:34:55.111Z</time></trkpt><trkpt lat="45.1347017" lon="7.5397017"><ele>310.0</ele><time>2026-05-03T08:34:57.113Z</time></trkpt><trkpt lat="45.1348033" lon="7.5397117"><ele>310.0</ele><time>2026-05-03T08:35:38.117Z</time></trkpt><trkpt lat="45.134925" lon="7.5397067"><ele>310.0</ele><time>2026-05-03T08:35:40.113Z</time></trkpt><trkpt lat="45.13501" lon="7.5396967"><ele>310.0</ele><time>2026-05-03T08:35:41.112Z</time></trkpt><trkpt lat="45.1351117" lon="7.5396867"><ele>309.5</ele><time>2026-05-03T08:35:42.112Z</time></trkpt><trkpt lat="45.1352367" lon="7.5396817"><ele>309.0</ele><time>2026-05-03T08:35:43.112Z</time></trkpt><trkpt lat="45.1353583" lon="7.539675"><ele>308.5</ele><time>2026-05-03T08:35:44.116Z</time></trkpt><trkpt lat="45.1354883" lon="7.5396683"><ele>308.0</ele><time>2026-05-03T08:35:45.115Z</time></trkpt><trkpt lat="45.1356133" lon="7.5396617"><ele>308.0</ele><time>2026-05-03T08:35:46.114Z</time></trkpt><trkpt lat="45.1357383" lon="7.539645"><ele>308.0</ele><time>2026-05-03T08:35:47.117Z</time></trkpt><trkpt lat="45.135855" lon="7.5396367"><ele>308.0</ele><time>2026-05-03T08:35:48.117Z</time></trkpt><trkpt lat="45.1359867" lon="7.5396267"><ele>308.0</ele><time>2026-05-03T08:35:49.115Z</time></trkpt><trkpt lat="45.1361183" lon="7.5396167"><ele>308.0</ele><time>2026-05-03T08:35:50.114Z</time></trkpt><trkpt lat="45.1362617" lon="7.5395833"><ele>308.0</ele><time>2026-05-03T08:35:51.115Z</time></trkpt><trkpt lat="45.1364067" lon="7.5395267"><ele>308.0</ele><time>2026-05-03T08:35:52.11Z</time></trkpt><trkpt lat="45.1365517" lon="7.539465"><ele>308.0</ele><time>2026-05-03T08:35:53.111Z</time></trkpt><trkpt lat="45.1366933" lon="7.5393983"><ele>307.4</ele><time>2026-05-03T08:35:54.11Z</time></trkpt><trkpt lat="45.136815" lon="7.5393267"><ele>306.8</ele><time>2026-05-03T08:35:55.115Z</time></trkpt><trkpt lat="45.1369217" lon="7.539265"><ele>306.2</ele><time>2026-05-03T08:35:56.115Z</time></trkpt><trkpt lat="45.13701" lon="7.539215"><ele>305.6</ele><time>2026-05-03T08:35:57.113Z</time></trkpt><trkpt lat="45.1371017" lon="7.5391883"><ele>305.0</ele><time>2026-05-03T08:35:58.112Z</time></trkpt><trkpt lat="45.1371933" lon="7.53919"><ele>305.0</ele><time>2026-05-03T08:35:59.113Z</time></trkpt><trkpt lat="45.137285" lon="7.5392"><ele>305.0</ele><time>2026-05-03T08:36:00.11Z</time></trkpt><trkpt lat="45.137365" lon="7.5391817"><ele>305.0</ele><time>2026-05-03T08:36:01.11Z</time></trkpt><trkpt lat="45.1374533" lon="7.5391267"><ele>305.0</ele><time>2026-05-03T08:36:02.117Z</time></trkpt><trkpt lat="45.1375467" lon="7.5390083"><ele>305.0</ele><time>2026-05-03T08:36:03.117Z</time></trkpt><trkpt lat="45.1376567" lon="7.5389133"><ele>305.25</ele><time>2026-05-03T08:36:04.113Z</time></trkpt><trkpt lat="45.137785" lon="7.538825"><ele>305.5</ele><time>2026-05-03T08:36:05.114Z</time></trkpt><trkpt lat="45.13793" lon="7.538745"><ele>305.75</ele><time>2026-05-03T08:36:06.113Z</time></trkpt><trkpt lat="45.1380617" lon="7.53867"><ele>306.0</ele><time>2026-05-03T08:36:07.118Z</time></trkpt><trkpt lat="45.1382183" lon="7.53859"><ele>306.0</ele><time>2026-05-03T08:36:08.12Z</time></trkpt><trkpt lat="45.1383767" lon="7.5385067"><ele>306.0</ele><time>2026-05-03T08:36:09.121Z</time></trkpt><trkpt lat="45.1385317" lon="7.5384267"><ele>306.0</ele><time>2026-05-03T08:36:10.113Z</time></trkpt><trkpt lat="45.1387117" lon="7.5383383"><ele>306.0</ele><time>2026-05-03T08:36:11.117Z</time></trkpt><trkpt lat="45.1388683" lon="7.53826"><ele>306.0</ele><time>2026-05-03T08:36:12.115Z</time></trkpt><trkpt lat="45.1390267" lon="7.5381817"><ele>306.0</ele><time>2026-05-03T08:36:13.112Z</time></trkpt><trkpt lat="45.13919" lon="7.5381017"><ele>306.0</ele><time>2026-05-03T08:36:14.111Z</time></trkpt><trkpt lat="45.1393417" lon="7.5380133"><ele>306.0</ele><time>2026-05-03T08:36:15.121Z</time></trkpt><trkpt lat="45.1394967" lon="7.5379333"><ele>306.0</ele><time>2026-05-03T08:36:16.116Z</time></trkpt><trkpt lat="45.1396417" lon="7.5378483"><ele>306.6666666666667</ele><time>2026-05-03T08:36:17.112Z</time></trkpt><trkpt lat="45.1397933" lon="7.5377633"><ele>307.33333333333337</ele><time>2026-05-03T08:36:18.112Z</time></trkpt><trkpt lat="45.1399467" lon="7.53767"><ele>308.0</ele><time>2026-05-03T08:36:19.114Z</time></trkpt><trkpt lat="45.1401067" lon="7.537575"><ele>308.6666666666667</ele><time>2026-05-03T08:36:20.112Z</time></trkpt><trkpt lat="45.140265" lon="7.53748"><ele>309.3333333333333</ele><time>2026-05-03T08:36:21.117Z</time></trkpt><trkpt lat="45.1404133" lon="7.537385"><ele>310.0</ele><time>2026-05-03T08:36:22.113Z</time></trkpt><trkpt lat="45.1405533" lon="7.5373"><ele>310.0</ele><time>2026-05-03T08:36:23.118Z</time></trkpt><trkpt lat="45.1406817" lon="7.5372183"><ele>310.0</ele><time>2026-05-03T08:36:24.112Z</time></trkpt><trkpt lat="45.1407967" lon="7.5371417"><ele>310.0</ele><time>2026-05-03T08:36:25.111Z</time></trkpt><trkpt lat="45.1408983" lon="7.5370883"><ele>310.0</ele><time>2026-05-03T08:36:26.11Z</time></trkpt><trkpt lat="45.140995" lon="7.5370467"><ele>310.0</ele><time>2026-05-03T08:36:27.112Z</time></trkpt><trkpt lat="45.1410883" lon="7.5370067"><ele>310.0</ele><time>2026-05-03T08:36:28.11Z</time></trkpt><trkpt lat="45.1411733" lon="7.536945"><ele>310.0</ele><time>2026-05-03T08:36:29.11Z</time></trkpt><trkpt lat="45.141265" lon="7.5368567"><ele>310.0</ele><time>2026-05-03T08:36:30.113Z</time></trkpt><trkpt lat="45.1413567" lon="7.536755"><ele>310.0</ele><time>2026-05-03T08:36:31.115Z</time></trkpt><trkpt lat="45.1414583" lon="7.5366567"><ele>312.66666666666663</ele><time>2026-05-03T08:36:32.114Z</time></trkpt><trkpt lat="45.14158" lon="7.5365683"><ele>315.3333333333333</ele><time>2026-05-03T08:36:33.114Z</time></trkpt><trkpt lat="45.1417467" lon="7.5365333"><ele>318.0</ele><time>2026-05-03T08:36:34.112Z</time></trkpt><trkpt lat="45.14193" lon="7.5364767"><ele>318.0</ele><time>2026-05-03T08:36:35.112Z</time></trkpt><trkpt lat="45.1421017" lon="7.5364183"><ele>318.0</ele><time>2026-05-03T08:36:36.115Z</time></trkpt><trkpt lat="45.1422817" lon="7.5363617"><ele>318.0</ele><time>2026-05-03T08:36:37.114Z</time></trkpt><trkpt lat="45.1424583" lon="7.5363017"><ele>319.0</ele><time>2026-05-03T08:36:38.114Z</time></trkpt><trkpt lat="45.1426317" lon="7.5362433"><ele>320.0</ele><time>2026-05-03T08:36:39.117Z</time></trkpt><trkpt lat="45.14279" lon="7.5361767"><ele>321.0</ele><time>2026-05-03T08:36:40.111Z</time></trkpt><trkpt lat="45.14294" lon="7.5361183"><ele>321.0</ele><time>2026-05-03T08:36:41.113Z</time></trkpt><trkpt lat="45.1430817" lon="7.5360417"><ele>321.0</ele><time>2026-05-03T08:36:42.113Z</time></trkpt><trkpt lat="45.143215" lon="7.5359383"><ele>321.0</ele><time>2026-05-03T08:36:43.114Z</time></trkpt><trkpt lat="45.1433433" lon="7.535835"><ele>321.0</ele><time>2026-05-03T08:36:44.113Z</time></trkpt><trkpt lat="45.143465" lon="7.5357167"><ele>321.0</ele><time>2026-05-03T08:36:45.113Z</time></trkpt><trkpt lat="45.1435917" lon="7.5356033"><ele>321.0</ele><time>2026-05-03T08:36:46.116Z</time></trkpt><trkpt lat="45.14373" lon="7.5354917"><ele>320.0</ele><time>2026-05-03T08:36:47.112Z</time></trkpt><trkpt lat="45.14387" lon="7.5353767"><ele>319.0</ele><time>2026-05-03T08:36:48.11Z</time></trkpt><trkpt lat="45.1440317" lon="7.5352817"><ele>318.0</ele><time>2026-05-03T08:36:49.115Z</time></trkpt><trkpt lat="45.1441883" lon="7.5352017"><ele>316.0</ele><time>2026-05-03T08:36:50.113Z</time></trkpt><trkpt lat="45.144355" lon="7.5351583"><ele>314.0</ele><time>2026-05-03T08:36:51.111Z</time></trkpt><trkpt lat="45.1445333" lon="7.5351483"><ele>312.0</ele><time>2026-05-03T08:36:52.112Z</time></trkpt><trkpt lat="45.1447217" lon="7.5351383"><ele>310.6666666666667</ele><time>2026-05-03T08:36:53.11Z</time></trkpt><trkpt lat="45.1449283" lon="7.5351333"><ele>309.33333333333337</ele><time>2026-05-03T08:36:54.111Z</time></trkpt><trkpt lat="45.1451433" lon="7.5351333"><ele>308.0</ele><time>2026-05-03T08:36:55.107Z</time></trkpt><trkpt lat="45.1453633" lon="7.535135"><ele>308.0</ele><time>2026-05-03T08:36:56.111Z</time></trkpt><trkpt lat="45.1455867" lon="7.53514"><ele>308.0</ele><time>2026-05-03T08:36:57.108Z</time></trkpt><trkpt lat="45.1458167" lon="7.5351517"><ele>306.0</ele><time>2026-05-03T08:36:58.11Z</time></trkpt><trkpt lat="45.1460483" lon="7.53516"><ele>304.0</ele><time>2026-05-03T08:36:59.11Z</time></trkpt><trkpt lat="45.1462733" lon="7.5351683"><ele>304.0</ele><time>2026-05-03T08:37:00.11Z</time></trkpt><trkpt lat="45.146495" lon="7.5351767"><ele>304.0</ele><time>2026-05-03T08:37:01.116Z</time></trkpt><trkpt lat="45.1467117" lon="7.5351783"><ele>304.0</ele><time>2026-05-03T08:37:02.112Z</time></trkpt><trkpt lat="45.1469267" lon="7.5351867"><ele>304.0</ele><time>2026-05-03T08:37:03.112Z</time></trkpt><trkpt lat="45.1471433" lon="7.535195"><ele>304.0</ele><time>2026-05-03T08:37:04.115Z</time></trkpt><trkpt lat="45.1473583" lon="7.5351983"><ele>304.0</ele><time>2026-05-03T08:37:05.111Z</time></trkpt><trkpt lat="45.14757" lon="7.535205"><ele>303.0</ele><time>2026-05-03T08:37:06.113Z</time></trkpt><trkpt lat="45.1477833" lon="7.5352133"><ele>302.0</ele><time>2026-05-03T08:37:07.111Z</time></trkpt><trkpt lat="45.1479917" lon="7.5352183"><ele>301.0</ele><time>2026-05-03T08:37:08.11Z</time></trkpt><trkpt lat="45.1482" lon="7.5352217"><ele>301.0</ele><time>2026-05-03T08:37:09.11Z</time></trkpt><trkpt lat="45.1484133" lon="7.5352333"><ele>301.0</ele><time>2026-05-03T08:37:10.111Z</time></trkpt><trkpt lat="45.148625" lon="7.5352483"><ele>301.0</ele><time>2026-05-03T08:37:11.114Z</time></trkpt><trkpt lat="45.14884" lon="7.5352567"><ele>300.0</ele><time>2026-05-03T08:37:12.113Z</time></trkpt><trkpt lat="45.14905" lon="7.5352667"><ele>299.0</ele><time>2026-05-03T08:37:13.112Z</time></trkpt><trkpt lat="45.14926" lon="7.535275"><ele>298.0</ele><time>2026-05-03T08:37:14.112Z</time></trkpt><trkpt lat="45.1494633" lon="7.5352883"><ele>298.0</ele><time>2026-05-03T08:37:15.115Z</time></trkpt><trkpt lat="45.14966" lon="7.5352983"><ele>298.0</ele><time>2026-05-03T08:37:16.112Z</time></trkpt><trkpt lat="45.1498517" lon="7.535305"><ele>298.0</ele><time>2026-05-03T08:37:17.11Z</time></trkpt><trkpt lat="45.1500417" lon="7.5353067"><ele>297.3333333333333</ele><time>2026-05-03T08:37:18.112Z</time></trkpt><trkpt lat="45.1502183" lon="7.535295"><ele>296.6666666666667</ele><time>2026-05-03T08:37:19.114Z</time></trkpt><trkpt lat="45.1503883" lon="7.5352533"><ele>296.0</ele><time>2026-05-03T08:37:20.113Z</time></trkpt><trkpt lat="45.150545" lon="7.5351983"><ele>296.0</ele><time>2026-05-03T08:37:21.115Z</time></trkpt><trkpt lat="45.1506917" lon="7.53515"><ele>296.0</ele><time>2026-05-03T08:37:22.111Z</time></trkpt><trkpt lat="45.15083" lon="7.5351283"><ele>296.0</ele><time>2026-05-03T08:37:23.108Z</time></trkpt><trkpt lat="45.1509733" lon="7.5351417"><ele>296.0</ele><time>2026-05-03T08:37:24.109Z</time></trkpt><trkpt lat="45.1511267" lon="7.53514"><ele>297.0</ele><time>2026-05-03T08:37:25.111Z</time></trkpt><trkpt lat="45.15129" lon="7.53512"><ele>298.0</ele><time>2026-05-03T08:37:26.111Z</time></trkpt><trkpt lat="45.1514617" lon="7.53511"><ele>299.0</ele><time>2026-05-03T08:37:27.11Z</time></trkpt><trkpt lat="45.1516383" lon="7.5350967"><ele>300.0</ele><time>2026-05-03T08:37:28.116Z</time></trkpt><trkpt lat="45.1518233" lon="7.5350717"><ele>301.0</ele><time>2026-05-03T08:37:29.113Z</time></trkpt><trkpt lat="45.152015" lon="7.5350433"><ele>302.0</ele><time>2026-05-03T08:37:30.11Z</time></trkpt><trkpt lat="45.1522133" lon="7.5350067"><ele>303.33333333333337</ele><time>2026-05-03T08:37:31.114Z</time></trkpt><trkpt lat="45.1524067" lon="7.53497"><ele>304.6666666666667</ele><time>2026-05-03T08:37:32.11Z</time></trkpt><trkpt lat="45.15261" lon="7.53494"><ele>306.0</ele><time>2026-05-03T08:37:33.112Z</time></trkpt><trkpt lat="45.15282" lon="7.5349067"><ele>306.0</ele><time>2026-05-03T08:37:34.111Z</time></trkpt><trkpt lat="45.1530283" lon="7.5348617"><ele>306.0</ele><time>2026-05-03T08:37:35.113Z</time></trkpt><trkpt lat="45.1532417" lon="7.5348233"><ele>306.0</ele><time>2026-05-03T08:37:36.112Z</time></trkpt><trkpt lat="45.153455" lon="7.5347833"><ele>305.6666666666667</ele><time>2026-05-03T08:37:37.11Z</time></trkpt><trkpt lat="45.153665" lon="7.5347433"><ele>305.33333333333337</ele><time>2026-05-03T08:37:38.112Z</time></trkpt><trkpt lat="45.1538683" lon="7.5347"><ele>305.0</ele><time>2026-05-03T08:37:39.116Z</time></trkpt><trkpt lat="45.1540717" lon="7.5346617"><ele>304.6666666666667</ele><time>2026-05-03T08:37:40.116Z</time></trkpt><trkpt lat="45.1542833" lon="7.5346233"><ele>304.3333333333333</ele><time>2026-05-03T08:37:41.11Z</time></trkpt><trkpt lat="45.1544967" lon="7.5345783"><ele>304.0</ele><time>2026-05-03T08:37:42.119Z</time></trkpt><trkpt lat="45.1547" lon="7.5345383"><ele>304.0</ele><time>2026-05-03T08:37:43.116Z</time></trkpt><trkpt lat="45.1549" lon="7.5345017"><ele>304.0</ele><time>2026-05-03T08:37:44.117Z</time></trkpt><trkpt lat="45.155105" lon="7.534475"><ele>304.0</ele><time>2026-05-03T08:37:45.114Z</time></trkpt><trkpt lat="45.1552983" lon="7.5344433"><ele>304.0</ele><time>2026-05-03T08:37:46.111Z</time></trkpt><trkpt lat="45.1554883" lon="7.5344083"><ele>304.0</ele><time>2026-05-03T08:37:47.117Z</time></trkpt><trkpt lat="45.1556817" lon="7.5343733"><ele>304.0</ele><time>2026-05-03T08:37:48.114Z</time></trkpt><trkpt lat="45.1558667" lon="7.534335"><ele>304.3333333333333</ele><time>2026-05-03T08:37:49.113Z</time></trkpt><trkpt lat="45.15606" lon="7.534295"><ele>304.6666666666667</ele><time>2026-05-03T08:37:50.114Z</time></trkpt><trkpt lat="45.156255" lon="7.5342417"><ele>305.0</ele><time>2026-05-03T08:37:51.115Z</time></trkpt><trkpt lat="45.156455" lon="7.5341717"><ele>304.6666666666667</ele><time>2026-05-03T08:37:52.116Z</time></trkpt><trkpt lat="45.156655" lon="7.534085"><ele>304.3333333333333</ele><time>2026-05-03T08:37:53.114Z</time></trkpt><trkpt lat="45.15685" lon="7.5339883"><ele>304.0</ele><time>2026-05-03T08:37:54.11Z</time></trkpt><trkpt lat="45.1570467" lon="7.533875"><ele>304.0</ele><time>2026-05-03T08:37:55.113Z</time></trkpt><trkpt lat="45.15724" lon="7.53376"><ele>304.0</ele><time>2026-05-03T08:37:56.113Z</time></trkpt><trkpt lat="45.1574333" lon="7.5336433"><ele>304.0</ele><time>2026-05-03T08:37:57.112Z</time></trkpt><trkpt lat="45.15764" lon="7.5335067"><ele>303.5</ele><time>2026-05-03T08:37:58.111Z</time></trkpt><trkpt lat="45.1578483" lon="7.5333583"><ele>303.0</ele><time>2026-05-03T08:37:59.113Z</time></trkpt><trkpt lat="45.1580417" lon="7.5332017"><ele>301.0</ele><time>2026-05-03T08:38:00.115Z</time></trkpt><trkpt lat="45.1582383" lon="7.5330367"><ele>299.0</ele><time>2026-05-03T08:38:01.111Z</time></trkpt><trkpt lat="45.1584283" lon="7.53287"><ele>299.0</ele><time>2026-05-03T08:38:02.112Z</time></trkpt><trkpt lat="45.1586183" lon="7.5326983"><ele>299.0</ele><time>2026-05-03T08:38:03.115Z</time></trkpt><trkpt lat="45.1588017" lon="7.532525"><ele>299.0</ele><time>2026-05-03T08:38:04.117Z</time></trkpt><trkpt lat="45.15898" lon="7.5323667"><ele>298.6666666666667</ele><time>2026-05-03T08:38:05.112Z</time></trkpt><trkpt lat="45.1591433" lon="7.5322117"><ele>298.3333333333333</ele><time>2026-05-03T08:38:06.11Z</time></trkpt><trkpt lat="45.1593133" lon="7.53206"><ele>298.0</ele><time>2026-05-03T08:38:07.113Z</time></trkpt><trkpt lat="45.15948" lon="7.5319083"><ele>299.3333333333333</ele><time>2026-05-03T08:38:08.112Z</time></trkpt><trkpt lat="45.1596417" lon="7.5317567"><ele>300.6666666666667</ele><time>2026-05-03T08:38:09.115Z</time></trkpt><trkpt lat="45.159785" lon="7.5316083"><ele>302.0</ele><time>2026-05-03T08:38:10.112Z</time></trkpt><trkpt lat="45.1599467" lon="7.53146"><ele>302.0</ele><time>2026-05-03T08:38:11.109Z</time></trkpt><trkpt lat="45.160115" lon="7.5313133"><ele>302.0</ele><time>2026-05-03T08:38:12.113Z</time></trkpt><trkpt lat="45.160275" lon="7.5311617"><ele>302.0</ele><time>2026-05-03T08:38:13.116Z</time></trkpt><trkpt lat="45.1604333" lon="7.531015"><ele>302.6666666666667</ele><time>2026-05-03T08:38:14.112Z</time></trkpt><trkpt lat="45.1606033" lon="7.5308667"><ele>303.3333333333333</ele><time>2026-05-03T08:38:15.117Z</time></trkpt><trkpt lat="45.16078" lon="7.5307133"><ele>304.0</ele><time>2026-05-03T08:38:16.111Z</time></trkpt><trkpt lat="45.1609417" lon="7.5305617"><ele>304.0</ele><time>2026-05-03T08:38:17.113Z</time></trkpt><trkpt lat="45.1611017" lon="7.53041"><ele>304.0</ele><time>2026-05-03T08:38:18.114Z</time></trkpt><trkpt lat="45.161265" lon="7.5302583"><ele>304.0</ele><time>2026-05-03T08:38:19.112Z</time></trkpt><trkpt lat="45.1614267" lon="7.5301067"><ele>305.0</ele><time>2026-05-03T08:38:20.111Z</time></trkpt><trkpt lat="45.16159" lon="7.5299383"><ele>306.0</ele><time>2026-05-03T08:38:21.11Z</time></trkpt><trkpt lat="45.1617417" lon="7.52976"><ele>307.0</ele><time>2026-05-03T08:38:22.111Z</time></trkpt><trkpt lat="45.161895" lon="7.5295767"><ele>308.66666666666663</ele><time>2026-05-03T08:38:23.113Z</time></trkpt><trkpt lat="45.1620467" lon="7.5294033"><ele>310.3333333333333</ele><time>2026-05-03T08:38:24.112Z</time></trkpt><trkpt lat="45.16219" lon="7.52921"><ele>312.0</ele><time>2026-05-03T08:38:25.11Z</time></trkpt><trkpt lat="45.162325" lon="7.5290167"><ele>311.6666666666667</ele><time>2026-05-03T08:38:26.113Z</time></trkpt><trkpt lat="45.1624633" lon="7.5288333"><ele>311.33333333333337</ele><time>2026-05-03T08:38:27.112Z</time></trkpt><trkpt lat="45.1625967" lon="7.5286433"><ele>311.0</ele><time>2026-05-03T08:38:28.111Z</time></trkpt><trkpt lat="45.1627283" lon="7.528465"><ele>314.0</ele><time>2026-05-03T08:38:29.111Z</time></trkpt><trkpt lat="45.1628817" lon="7.528315"><ele>317.0</ele><time>2026-05-03T08:38:30.111Z</time></trkpt><trkpt lat="45.16304" lon="7.5281917"><ele>320.0</ele><time>2026-05-03T08:38:31.111Z</time></trkpt><trkpt lat="45.1632233" lon="7.528095"><ele>321.0</ele><time>2026-05-03T08:38:32.111Z</time></trkpt><trkpt lat="45.1634067" lon="7.5279933"><ele>322.0</ele><time>2026-05-03T08:38:33.117Z</time></trkpt><trkpt lat="45.163575" lon="7.5278833"><ele>323.0</ele><time>2026-05-03T08:38:34.111Z</time></trkpt><trkpt lat="45.1637483" lon="7.527765"><ele>324.33333333333337</ele><time>2026-05-03T08:38:35.111Z</time></trkpt><trkpt lat="45.1639117" lon="7.5276517"><ele>325.6666666666667</ele><time>2026-05-03T08:38:36.112Z</time></trkpt><trkpt lat="45.1640783" lon="7.5275367"><ele>327.0</ele><time>2026-05-03T08:38:37.114Z</time></trkpt><trkpt lat="45.1642467" lon="7.527415"><ele>328.0</ele><time>2026-05-03T08:38:38.11Z</time></trkpt><trkpt lat="45.1644133" lon="7.5272833"><ele>329.0</ele><time>2026-05-03T08:38:39.111Z</time></trkpt><trkpt lat="45.164585" lon="7.52714"><ele>330.0</ele><time>2026-05-03T08:38:40.11Z</time></trkpt><trkpt lat="45.1647567" lon="7.526985"><ele>333.3333333333333</ele><time>2026-05-03T08:38:41.111Z</time></trkpt><trkpt lat="45.1649183" lon="7.5268183"><ele>336.66666666666663</ele><time>2026-05-03T08:38:42.113Z</time></trkpt><trkpt lat="45.1650983" lon="7.526645"><ele>340.0</ele><time>2026-05-03T08:38:43.115Z</time></trkpt><trkpt lat="45.165265" lon="7.52647"><ele>340.0</ele><time>2026-05-03T08:38:44.114Z</time></trkpt><trkpt lat="45.16544" lon="7.5262983"><ele>340.0</ele><time>2026-05-03T08:38:45.114Z</time></trkpt><trkpt lat="45.1656183" lon="7.5261317"><ele>340.0</ele><time>2026-05-03T08:38:46.112Z</time></trkpt><trkpt lat="45.165805" lon="7.5259617"><ele>341.66666666666663</ele><time>2026-05-03T08:38:47.109Z</time></trkpt><trkpt lat="45.16599" lon="7.5257883"><ele>343.3333333333333</ele><time>2026-05-03T08:38:48.111Z</time></trkpt><trkpt lat="45.1661733" lon="7.5256083"><ele>345.0</ele><time>2026-05-03T08:38:49.112Z</time></trkpt><trkpt lat="45.1663583" lon="7.5254283"><ele>345.6666666666667</ele><time>2026-05-03T08:38:50.112Z</time></trkpt><trkpt lat="45.1665283" lon="7.5252383"><ele>346.33333333333337</ele><time>2026-05-03T08:38:51.117Z</time></trkpt><trkpt lat="45.1667017" lon="7.5250517"><ele>347.0</ele><time>2026-05-03T08:38:52.115Z</time></trkpt><trkpt lat="45.1668483" lon="7.5248733"><ele>347.0</ele><time>2026-05-03T08:38:53.109Z</time></trkpt><trkpt lat="45.167045" lon="7.5246967"><ele>347.0</ele><time>2026-05-03T08:38:54.111Z</time></trkpt><trkpt lat="45.16724" lon="7.524515"><ele>348.0</ele><time>2026-05-03T08:38:55.114Z</time></trkpt><trkpt lat="45.1674467" lon="7.52433"><ele>349.0</ele><time>2026-05-03T08:38:56.113Z</time></trkpt><trkpt lat="45.167635" lon="7.5241483"><ele>349.0</ele><time>2026-05-03T08:38:57.115Z</time></trkpt><trkpt lat="45.16783" lon="7.5239633"><ele>349.0</ele><time>2026-05-03T08:38:58.112Z</time></trkpt><trkpt lat="45.16803" lon="7.52378"><ele>349.5</ele><time>2026-05-03T08:38:59.11Z</time></trkpt><trkpt lat="45.1682267" lon="7.5236017"><ele>350.0</ele><time>2026-05-03T08:39:00.112Z</time></trkpt><trkpt lat="45.16841" lon="7.523425"><ele>350.0</ele><time>2026-05-03T08:39:01.114Z</time></trkpt><trkpt lat="45.1685933" lon="7.5232417"><ele>350.0</ele><time>2026-05-03T08:39:02.113Z</time></trkpt><trkpt lat="45.1687717" lon="7.5230633"><ele>350.0</ele><time>2026-05-03T08:39:03.114Z</time></trkpt><trkpt lat="45.1689517" lon="7.5228767"><ele>352.0</ele><time>2026-05-03T08:39:04.111Z</time></trkpt><trkpt lat="45.1691367" lon="7.5226867"><ele>354.0</ele><time>2026-05-03T08:39:05.11Z</time></trkpt><trkpt lat="45.169325" lon="7.5224933"><ele>354.0</ele><time>2026-05-03T08:39:06.111Z</time></trkpt><trkpt lat="45.1695067" lon="7.5223067"><ele>354.0</ele><time>2026-05-03T08:39:07.11Z</time></trkpt><trkpt lat="45.1696867" lon="7.5221283"><ele>354.0</ele><time>2026-05-03T08:39:08.111Z</time></trkpt><trkpt lat="45.1698717" lon="7.521955"><ele>354.5</ele><time>2026-05-03T08:39:09.116Z</time></trkpt><trkpt lat="45.1700733" lon="7.52181"><ele>355.0</ele><time>2026-05-03T08:39:10.111Z</time></trkpt><trkpt lat="45.1702783" lon="7.5216733"><ele>355.0</ele><time>2026-05-03T08:39:11.111Z</time></trkpt><trkpt lat="45.1704833" lon="7.5215417"><ele>355.0</ele><time>2026-05-03T08:39:12.11Z</time></trkpt><trkpt lat="45.1706817" lon="7.521405"><ele>355.0</ele><time>2026-05-03T08:39:13.111Z</time></trkpt><trkpt lat="45.17088" lon="7.5212767"><ele>356.0</ele><time>2026-05-03T08:39:14.112Z</time></trkpt><trkpt lat="45.1710767" lon="7.5211433"><ele>357.0</ele><time>2026-05-03T08:39:15.113Z</time></trkpt><trkpt lat="45.1712633" lon="7.5210067"><ele>358.0</ele><time>2026-05-03T08:39:16.113Z</time></trkpt><trkpt lat="45.171465" lon="7.5208733"><ele>358.5</ele><time>2026-05-03T08:39:17.115Z</time></trkpt><trkpt lat="45.1716783" lon="7.5207467"><ele>359.0</ele><time>2026-05-03T08:39:18.112Z</time></trkpt><trkpt lat="45.1718883" lon="7.5206133"><ele>359.0</ele><time>2026-05-03T08:39:19.111Z</time></trkpt><trkpt lat="45.1720983" lon="7.5204767"><ele>359.0</ele><time>2026-05-03T08:39:20.114Z</time></trkpt><trkpt lat="45.1722967" lon="7.5203333"><ele>359.0</ele><time>2026-05-03T08:39:21.115Z</time></trkpt><trkpt lat="45.1725083" lon="7.5201933"><ele>359.0</ele><time>2026-05-03T08:39:22.112Z</time></trkpt><trkpt lat="45.1727167" lon="7.5200583"><ele>359.0</ele><time>2026-05-03T08:39:23.112Z</time></trkpt><trkpt lat="45.17292" lon="7.519935"><ele>359.0</ele><time>2026-05-03T08:39:24.118Z</time></trkpt><trkpt lat="45.1731283" lon="7.519815"><ele>359.0</ele><time>2026-05-03T08:39:25.115Z</time></trkpt><trkpt lat="45.1733383" lon="7.5196967"><ele>360.33333333333337</ele><time>2026-05-03T08:39:26.113Z</time></trkpt><trkpt lat="45.1735483" lon="7.5195883"><ele>361.6666666666667</ele><time>2026-05-03T08:39:27.112Z</time></trkpt><trkpt lat="45.1737533" lon="7.519475"><ele>363.0</ele><time>2026-05-03T08:39:28.114Z</time></trkpt><trkpt lat="45.1739533" lon="7.5193633"><ele>363.6666666666667</ele><time>2026-05-03T08:39:29.112Z</time></trkpt><trkpt lat="45.1741633" lon="7.5192483"><ele>364.33333333333337</ele><time>2026-05-03T08:39:30.112Z</time></trkpt><trkpt lat="45.17437" lon="7.5191333"><ele>365.0</ele><time>2026-05-03T08:39:31.115Z</time></trkpt><trkpt lat="45.1745733" lon="7.5190183"><ele>365.0</ele><time>2026-05-03T08:39:32.11Z</time></trkpt><trkpt lat="45.1747683" lon="7.518905"><ele>365.0</ele><time>2026-05-03T08:39:33.115Z</time></trkpt><trkpt lat="45.1749533" lon="7.5187933"><ele>365.0</ele><time>2026-05-03T08:39:34.113Z</time></trkpt><trkpt lat="45.175125" lon="7.5186867"><ele>365.33333333333337</ele><time>2026-05-03T08:39:35.115Z</time></trkpt><trkpt lat="45.1752983" lon="7.518585"><ele>365.6666666666667</ele><time>2026-05-03T08:39:36.113Z</time></trkpt><trkpt lat="45.1754567" lon="7.5184883"><ele>366.0</ele><time>2026-05-03T08:39:37.114Z</time></trkpt><trkpt lat="45.1756117" lon="7.5184017"><ele>366.0</ele><time>2026-05-03T08:39:38.112Z</time></trkpt><trkpt lat="45.175755" lon="7.5183133"><ele>366.0</ele><time>2026-05-03T08:39:39.114Z</time></trkpt><trkpt lat="45.175895" lon="7.5182317"><ele>366.0</ele><time>2026-05-03T08:39:40.113Z</time></trkpt><trkpt lat="45.17603" lon="7.5181633"><ele>366.0</ele><time>2026-05-03T08:39:41.112Z</time></trkpt><trkpt lat="45.17617" lon="7.518075"><ele>366.0</ele><time>2026-05-03T08:39:42.113Z</time></trkpt><trkpt lat="45.176305" lon="7.51799"><ele>366.0</ele><time>2026-05-03T08:39:43.111Z</time></trkpt><trkpt lat="45.1764483" lon="7.5178933"><ele>366.6666666666667</ele><time>2026-05-03T08:39:44.116Z</time></trkpt><trkpt lat="45.17659" lon="7.5177767"><ele>367.33333333333337</ele><time>2026-05-03T08:39:45.111Z</time></trkpt><trkpt lat="45.17675" lon="7.51765"><ele>368.0</ele><time>2026-05-03T08:39:46.111Z</time></trkpt><trkpt lat="45.1769167" lon="7.5175233"><ele>368.0</ele><time>2026-05-03T08:39:47.11Z</time></trkpt><trkpt lat="45.1770733" lon="7.517395"><ele>368.0</ele><time>2026-05-03T08:39:48.111Z</time></trkpt><trkpt lat="45.1772267" lon="7.5172617"><ele>368.0</ele><time>2026-05-03T08:39:49.116Z</time></trkpt><trkpt lat="45.17737" lon="7.5171333"><ele>369.6666666666667</ele><time>2026-05-03T08:39:50.112Z</time></trkpt><trkpt lat="45.17751" lon="7.5170117"><ele>371.3333333333333</ele><time>2026-05-03T08:39:51.117Z</time></trkpt><trkpt lat="45.177645" lon="7.5168917"><ele>373.0</ele><time>2026-05-03T08:39:52.112Z</time></trkpt><trkpt lat="45.1777733" lon="7.51677"><ele>373.0</ele><time>2026-05-03T08:39:53.111Z</time></trkpt><trkpt lat="45.1778967" lon="7.516665"><ele>373.0</ele><time>2026-05-03T08:39:54.114Z</time></trkpt><trkpt lat="45.1780183" lon="7.5165783"><ele>373.0</ele><time>2026-05-03T08:39:55.111Z</time></trkpt><trkpt lat="45.1781367" lon="7.516525"><ele>373.0</ele><time>2026-05-03T08:39:56.115Z</time></trkpt><trkpt lat="45.1782567" lon="7.5165283"><ele>372.5</ele><time>2026-05-03T08:39:57.112Z</time></trkpt><trkpt lat="45.1783617" lon="7.5165683"><ele>372.0</ele><time>2026-05-03T08:39:58.113Z</time></trkpt><trkpt lat="45.1784567" lon="7.51663"><ele>371.5</ele><time>2026-05-03T08:39:59.112Z</time></trkpt><trkpt lat="45.1785417" lon="7.516775"><ele>371.0</ele><time>2026-05-03T08:40:00.118Z</time></trkpt><trkpt lat="45.1786317" lon="7.5169083"><ele>371.0</ele><time>2026-05-03T08:40:01.11Z</time></trkpt><trkpt lat="45.178715" lon="7.5170217"><ele>371.0</ele><time>2026-05-03T08:40:02.114Z</time></trkpt><trkpt lat="45.178805" lon="7.51709"><ele>371.0</ele><time>2026-05-03T08:40:03.113Z</time></trkpt><trkpt lat="45.178915" lon="7.5171083"><ele>371.0</ele><time>2026-05-03T08:40:04.112Z</time></trkpt><trkpt lat="45.1790433" lon="7.5171067"><ele>371.0</ele><time>2026-05-03T08:40:05.115Z</time></trkpt><trkpt lat="45.1791717" lon="7.5170817"><ele>371.0</ele><time>2026-05-03T08:40:06.115Z</time></trkpt><trkpt lat="45.179305" lon="7.517035"><ele>371.0</ele><time>2026-05-03T08:40:07.113Z</time></trkpt><trkpt lat="45.1794433" lon="7.5169767"><ele>371.0</ele><time>2026-05-03T08:40:08.109Z</time></trkpt><trkpt lat="45.179605" lon="7.5169383"><ele>371.0</ele><time>2026-05-03T08:40:09.114Z</time></trkpt><trkpt lat="45.1797383" lon="7.516905"><ele>371.0</ele><time>2026-05-03T08:40:10.112Z</time></trkpt><trkpt lat="45.1798583" lon="7.516845"><ele>371.0</ele><time>2026-05-03T08:40:11.112Z</time></trkpt><trkpt lat="45.1799733" lon="7.5168083"><ele>371.0</ele><time>2026-05-03T08:40:12.116Z</time></trkpt><trkpt lat="45.1800833" lon="7.51676"><ele>371.8</ele><time>2026-05-03T08:40:13.113Z</time></trkpt><trkpt lat="45.1801867" lon="7.516705"><ele>372.6</ele><time>2026-05-03T08:40:14.112Z</time></trkpt><trkpt lat="45.1802867" lon="7.5166417"><ele>373.4</ele><time>2026-05-03T08:40:15.112Z</time></trkpt><trkpt lat="45.1803683" lon="7.516585"><ele>374.2</ele><time>2026-05-03T08:40:16.109Z</time></trkpt><trkpt lat="45.1804483" lon="7.516535"><ele>375.0</ele><time>2026-05-03T08:40:17.109Z</time></trkpt><trkpt lat="45.1805183" lon="7.5164917"><ele>375.0</ele><time>2026-05-03T08:40:18.114Z</time></trkpt><trkpt lat="45.18058" lon="7.51644"><ele>375.0</ele><time>2026-05-03T08:40:19.116Z</time></trkpt><trkpt lat="45.18064" lon="7.5163733"><ele>375.0</ele><time>2026-05-03T08:40:20.113Z</time></trkpt><trkpt lat="45.180695" lon="7.51631"><ele>375.0</ele><time>2026-05-03T08:40:21.113Z</time></trkpt><trkpt lat="45.1807533" lon="7.516265"><ele>375.0</ele><time>2026-05-03T08:40:22.111Z</time></trkpt><trkpt lat="45.180855" lon="7.5162233"><ele>375.0</ele><time>2026-05-03T08:40:24.111Z</time></trkpt><trkpt lat="45.18093" lon="7.5163567"><ele>375.3333333333333</ele><time>2026-05-03T08:40:26.113Z</time></trkpt><trkpt lat="45.1810017" lon="7.5164333"><ele>375.6666666666667</ele><time>2026-05-03T08:40:27.114Z</time></trkpt><trkpt lat="45.181085" lon="7.516495"><ele>376.0</ele><time>2026-05-03T08:40:28.111Z</time></trkpt><trkpt lat="45.1811633" lon="7.5165233"><ele>376.33333333333337</ele><time>2026-05-03T08:40:29.112Z</time></trkpt><trkpt lat="45.18125" lon="7.5165467"><ele>376.6666666666667</ele><time>2026-05-03T08:40:30.111Z</time></trkpt><trkpt lat="45.1813417" lon="7.5165617"><ele>377.0</ele><time>2026-05-03T08:40:31.11Z</time></trkpt><trkpt lat="45.1814533" lon="7.5165483"><ele>377.5</ele><time>2026-05-03T08:40:32.111Z</time></trkpt><trkpt lat="45.181565" lon="7.51653"><ele>378.0</ele><time>2026-05-03T08:40:33.117Z</time></trkpt><trkpt lat="45.1817017" lon="7.516495"><ele>378.5</ele><time>2026-05-03T08:40:34.115Z</time></trkpt><trkpt lat="45.1818333" lon="7.5164583"><ele>379.0</ele><time>2026-05-03T08:40:35.11Z</time></trkpt><trkpt lat="45.1819467" lon="7.516395"><ele>379.0</ele><time>2026-05-03T08:40:36.109Z</time></trkpt><trkpt lat="45.182065" lon="7.5162933"><ele>379.0</ele><time>2026-05-03T08:40:37.113Z</time></trkpt><trkpt lat="45.1821567" lon="7.5161583"><ele>379.0</ele><time>2026-05-03T08:40:38.113Z</time></trkpt><trkpt lat="45.18224" lon="7.5160067"><ele>379.0</ele><time>2026-05-03T08:40:39.111Z</time></trkpt><trkpt lat="45.1823" lon="7.5158683"><ele>379.66666666666663</ele><time>2026-05-03T08:40:40.112Z</time></trkpt><trkpt lat="45.1823533" lon="7.515765"><ele>380.3333333333333</ele><time>2026-05-03T08:40:41.114Z</time></trkpt><trkpt lat="45.1824233" lon="7.5157067"><ele>381.0</ele><time>2026-05-03T08:40:42.111Z</time></trkpt><trkpt lat="45.1824917" lon="7.515695"><ele>381.6666666666667</ele><time>2026-05-03T08:40:43.111Z</time></trkpt><trkpt lat="45.1825683" lon="7.515705"><ele>382.33333333333337</ele><time>2026-05-03T08:40:44.119Z</time></trkpt><trkpt lat="45.1826317" lon="7.5157917"><ele>383.0</ele><time>2026-05-03T08:40:45.111Z</time></trkpt><trkpt lat="45.18271" lon="7.51588"><ele>383.0</ele><time>2026-05-03T08:40:46.114Z</time></trkpt><trkpt lat="45.1827833" lon="7.515955"><ele>383.0</ele><time>2026-05-03T08:40:47.11Z</time></trkpt><trkpt lat="45.1828567" lon="7.5160233"><ele>383.0</ele><time>2026-05-03T08:40:48.114Z</time></trkpt><trkpt lat="45.1829033" lon="7.51609"><ele>383.0</ele><time>2026-05-03T08:40:49.114Z</time></trkpt><trkpt lat="45.1829533" lon="7.5161483"><ele>383.0</ele><time>2026-05-03T08:40:50.11Z</time></trkpt><trkpt lat="45.183005" lon="7.516205"><ele>383.0</ele><time>2026-05-03T08:40:51.11Z</time></trkpt><trkpt lat="45.183105" lon="7.51622"><ele>383.75</ele><time>2026-05-03T08:40:52.11Z</time></trkpt><trkpt lat="45.1831983" lon="7.5162283"><ele>384.5</ele><time>2026-05-03T08:40:53.114Z</time></trkpt><trkpt lat="45.18334" lon="7.5162083"><ele>385.25</ele><time>2026-05-03T08:40:54.112Z</time></trkpt><trkpt lat="45.1834767" lon="7.5161867"><ele>386.0</ele><time>2026-05-03T08:40:55.111Z</time></trkpt><trkpt lat="45.1835933" lon="7.5161567"><ele>386.0</ele><time>2026-05-03T08:40:56.11Z</time></trkpt><trkpt lat="45.1837217" lon="7.5161133"><ele>386.0</ele><time>2026-05-03T08:40:57.12Z</time></trkpt><trkpt lat="45.1838417" lon="7.5160583"><ele>386.0</ele><time>2026-05-03T08:40:58.113Z</time></trkpt><trkpt lat="45.18396" lon="7.5159767"><ele>386.0</ele><time>2026-05-03T08:40:59.112Z</time></trkpt><trkpt lat="45.184075" lon="7.515865"><ele>385.0</ele><time>2026-05-03T08:41:00.112Z</time></trkpt><trkpt lat="45.1841867" lon="7.5157317"><ele>384.0</ele><time>2026-05-03T08:41:01.111Z</time></trkpt><trkpt lat="45.1842983" lon="7.515585"><ele>383.0</ele><time>2026-05-03T08:41:02.115Z</time></trkpt><trkpt lat="45.1844167" lon="7.51544"><ele>385.0</ele><time>2026-05-03T08:41:03.109Z</time></trkpt><trkpt lat="45.18453" lon="7.5152767"><ele>387.0</ele><time>2026-05-03T08:41:04.109Z</time></trkpt><trkpt lat="45.1846333" lon="7.5151133"><ele>389.0</ele><time>2026-05-03T08:41:05.11Z</time></trkpt><trkpt lat="45.184715" lon="7.5149417"><ele>389.0</ele><time>2026-05-03T08:41:06.109Z</time></trkpt><trkpt lat="45.1847917" lon="7.5147683"><ele>389.0</ele><time>2026-05-03T08:41:07.111Z</time></trkpt><trkpt lat="45.18486" lon="7.5146133"><ele>389.0</ele><time>2026-05-03T08:41:08.114Z</time></trkpt><trkpt lat="45.1849217" lon="7.5144783"><ele>389.0</ele><time>2026-05-03T08:41:09.112Z</time></trkpt><trkpt lat="45.1849883" lon="7.5143767"><ele>389.16666666666663</ele><time>2026-05-03T08:41:10.11Z</time></trkpt><trkpt lat="45.1850567" lon="7.514285"><ele>389.3333333333333</ele><time>2026-05-03T08:41:11.111Z</time></trkpt><trkpt lat="45.1851283" lon="7.51422"><ele>389.5</ele><time>2026-05-03T08:41:12.112Z</time></trkpt><trkpt lat="45.1852" lon="7.5141783"><ele>389.66666666666663</ele><time>2026-05-03T08:41:13.112Z</time></trkpt><trkpt lat="45.1852633" lon="7.5141783"><ele>389.8333333333333</ele><time>2026-05-03T08:41:14.111Z</time></trkpt><trkpt lat="45.1853317" lon="7.5142317"><ele>390.0</ele><time>2026-05-03T08:41:15.11Z</time></trkpt><trkpt lat="45.1853683" lon="7.5143617"><ele>390.0</ele><time>2026-05-03T08:41:16.113Z</time></trkpt><trkpt lat="45.1854217" lon="7.5144533"><ele>390.0</ele><time>2026-05-03T08:41:17.109Z</time></trkpt><trkpt lat="45.1854167" lon="7.5147083"><ele>390.0</ele><time>2026-05-03T08:41:18.11Z</time></trkpt><trkpt lat="45.18539" lon="7.514965"><ele>390.0</ele><time>2026-05-03T08:41:19.109Z</time></trkpt><trkpt lat="45.185415" lon="7.5151333"><ele>389.8</ele><time>2026-05-03T08:41:20.114Z</time></trkpt><trkpt lat="45.1854617" lon="7.5152633"><ele>389.6</ele><time>2026-05-03T08:41:21.112Z</time></trkpt><trkpt lat="45.1854933" lon="7.515385"><ele>389.4</ele><time>2026-05-03T08:41:22.113Z</time></trkpt><trkpt lat="45.1855783" lon="7.51541"><ele>389.2</ele><time>2026-05-03T08:41:23.114Z</time></trkpt><trkpt lat="45.1856567" lon="7.51543"><ele>389.0</ele><time>2026-05-03T08:41:24.111Z</time></trkpt><trkpt lat="45.1857467" lon="7.5154117"><ele>389.75</ele><time>2026-05-03T08:41:25.111Z</time></trkpt><trkpt lat="45.1858417" lon="7.5154017"><ele>390.5</ele><time>2026-05-03T08:41:26.112Z</time></trkpt><trkpt lat="45.185975" lon="7.51536"><ele>391.25</ele><time>2026-05-03T08:41:27.115Z</time></trkpt><trkpt lat="45.18611" lon="7.5153417"><ele>392.0</ele><time>2026-05-03T08:41:28.114Z</time></trkpt><trkpt lat="45.1862367" lon="7.51534"><ele>392.0</ele><time>2026-05-03T08:41:29.113Z</time></trkpt><trkpt lat="45.18635" lon="7.5153483"><ele>392.0</ele><time>2026-05-03T08:41:30.114Z</time></trkpt><trkpt lat="45.1864417" lon="7.515445"><ele>392.0</ele><time>2026-05-03T08:41:31.111Z</time></trkpt><trkpt lat="45.18651" lon="7.5155683"><ele>392.0</ele><time>2026-05-03T08:41:32.109Z</time></trkpt><trkpt lat="45.1865933" lon="7.5156667"><ele>392.0</ele><time>2026-05-03T08:41:33.112Z</time></trkpt><trkpt lat="45.1866717" lon="7.5157667"><ele>392.0</ele><time>2026-05-03T08:41:34.114Z</time></trkpt><trkpt lat="45.1867683" lon="7.515835"><ele>392.0</ele><time>2026-05-03T08:41:35.114Z</time></trkpt><trkpt lat="45.1868717" lon="7.51589"><ele>392.0</ele><time>2026-05-03T08:41:36.11Z</time></trkpt><trkpt lat="45.1869733" lon="7.5159167"><ele>392.0</ele><time>2026-05-03T08:41:37.112Z</time></trkpt><trkpt lat="45.1870883" lon="7.5159033"><ele>392.0</ele><time>2026-05-03T08:41:38.112Z</time></trkpt><trkpt lat="45.187195" lon="7.5158667"><ele>392.0</ele><time>2026-05-03T08:41:39.11Z</time></trkpt><trkpt lat="45.1872983" lon="7.515785"><ele>392.0</ele><time>2026-05-03T08:41:40.111Z</time></trkpt><trkpt lat="45.1873983" lon="7.5156617"><ele>392.0</ele><time>2026-05-03T08:41:41.112Z</time></trkpt><trkpt lat="45.187495" lon="7.515535"><ele>392.0</ele><time>2026-05-03T08:41:42.112Z</time></trkpt><trkpt lat="45.1875717" lon="7.5154233"><ele>392.0</ele><time>2026-05-03T08:41:43.112Z</time></trkpt><trkpt lat="45.1876533" lon="7.5153283"><ele>392.0</ele><time>2026-05-03T08:41:44.111Z</time></trkpt><trkpt lat="45.1877517" lon="7.5152583"><ele>392.0</ele><time>2026-05-03T08:41:45.113Z</time></trkpt><trkpt lat="45.18783" lon="7.51518"><ele>392.0</ele><time>2026-05-03T08:41:46.11Z</time></trkpt><trkpt lat="45.1879267" lon="7.5151317"><ele>392.0</ele><time>2026-05-03T08:41:47.114Z</time></trkpt><trkpt lat="45.188025" lon="7.515115"><ele>392.0</ele><time>2026-05-03T08:41:48.111Z</time></trkpt><trkpt lat="45.188135" lon="7.5151217"><ele>392.0</ele><time>2026-05-03T08:41:49.112Z</time></trkpt><trkpt lat="45.1882517" lon="7.5151767"><ele>392.0</ele><time>2026-05-03T08:41:50.114Z</time></trkpt><trkpt lat="45.188415" lon="7.5151717"><ele>392.0</ele><time>2026-05-03T08:41:51.113Z</time></trkpt><trkpt lat="45.18855" lon="7.5151633"><ele>392.5</ele><time>2026-05-03T08:41:52.114Z</time></trkpt><trkpt lat="45.1886817" lon="7.51515"><ele>393.0</ele><time>2026-05-03T08:41:53.11Z</time></trkpt><trkpt lat="45.1888" lon="7.515145"><ele>393.5</ele><time>2026-05-03T08:41:54.11Z</time></trkpt><trkpt lat="45.1889233" lon="7.5151417"><ele>394.0</ele><time>2026-05-03T08:41:55.11Z</time></trkpt><trkpt lat="45.1890467" lon="7.5151433"><ele>394.75</ele><time>2026-05-03T08:41:56.111Z</time></trkpt><trkpt lat="45.18916" lon="7.515155"><ele>395.5</ele><time>2026-05-03T08:41:57.112Z</time></trkpt><trkpt lat="45.1892917" lon="7.51515"><ele>396.25</ele><time>2026-05-03T08:41:58.11Z</time></trkpt><trkpt lat="45.1894317" lon="7.5151367"><ele>397.0</ele><time>2026-05-03T08:41:59.112Z</time></trkpt><trkpt lat="45.18958" lon="7.5151067"><ele>397.0</ele><time>2026-05-03T08:42:00.109Z</time></trkpt><trkpt lat="45.1897233" lon="7.5150667"><ele>397.0</ele><time>2026-05-03T08:42:01.109Z</time></trkpt><trkpt lat="45.1898783" lon="7.5150067"><ele>397.0</ele><time>2026-05-03T08:42:02.116Z</time></trkpt><trkpt lat="45.19004" lon="7.5149367"><ele>396.6666666666667</ele><time>2026-05-03T08:42:03.111Z</time></trkpt><trkpt lat="45.1902" lon="7.5148533"><ele>396.33333333333337</ele><time>2026-05-03T08:42:04.112Z</time></trkpt><trkpt lat="45.19035" lon="7.5147733"><ele>396.0</ele><time>2026-05-03T08:42:05.112Z</time></trkpt><trkpt lat="45.19049" lon="7.5146867"><ele>396.0</ele><time>2026-05-03T08:42:06.112Z</time></trkpt><trkpt lat="45.1906217" lon="7.5145983"><ele>396.0</ele><time>2026-05-03T08:42:07.112Z</time></trkpt><trkpt lat="45.1907367" lon="7.514495"><ele>396.0</ele><time>2026-05-03T08:42:08.111Z</time></trkpt><trkpt lat="45.190835" lon="7.5143533"><ele>396.0</ele><time>2026-05-03T08:42:09.111Z</time></trkpt><trkpt lat="45.1909283" lon="7.5141917"><ele>398.0</ele><time>2026-05-03T08:42:10.111Z</time></trkpt><trkpt lat="45.1910117" lon="7.514"><ele>400.0</ele><time>2026-05-03T08:42:11.111Z</time></trkpt><trkpt lat="45.1910817" lon="7.513785"><ele>402.0</ele><time>2026-05-03T08:42:12.113Z</time></trkpt><trkpt lat="45.1911317" lon="7.5135583"><ele>403.66666666666663</ele><time>2026-05-03T08:42:13.111Z</time></trkpt><trkpt lat="45.19119" lon="7.513335"><ele>405.3333333333333</ele><time>2026-05-03T08:42:14.112Z</time></trkpt><trkpt lat="45.19127" lon="7.51313"><ele>407.0</ele><time>2026-05-03T08:42:15.11Z</time></trkpt><trkpt lat="45.191355" lon="7.5129333"><ele>409.0</ele><time>2026-05-03T08:42:16.11Z</time></trkpt><trkpt lat="45.1914483" lon="7.5127467"><ele>411.0</ele><time>2026-05-03T08:42:17.113Z</time></trkpt><trkpt lat="45.1915417" lon="7.5125583"><ele>413.0</ele><time>2026-05-03T08:42:18.112Z</time></trkpt><trkpt lat="45.1916233" lon="7.5123533"><ele>411.3333333333333</ele><time>2026-05-03T08:42:19.111Z</time></trkpt><trkpt lat="45.191695" lon="7.5121467"><ele>409.66666666666663</ele><time>2026-05-03T08:42:20.114Z</time></trkpt><trkpt lat="45.19174" lon="7.51192"><ele>408.0</ele><time>2026-05-03T08:42:21.112Z</time></trkpt><trkpt lat="45.1917683" lon="7.5116933"><ele>408.0</ele><time>2026-05-03T08:42:22.113Z</time></trkpt><trkpt lat="45.191795" lon="7.511475"><ele>408.0</ele><time>2026-05-03T08:42:23.114Z</time></trkpt><trkpt lat="45.1918183" lon="7.51127"><ele>408.0</ele><time>2026-05-03T08:42:24.113Z</time></trkpt><trkpt lat="45.1918517" lon="7.511075"><ele>408.0</ele><time>2026-05-03T08:42:25.11Z</time></trkpt><trkpt lat="45.1918617" lon="7.5109"><ele>409.0</ele><time>2026-05-03T08:42:26.111Z</time></trkpt><trkpt lat="45.1918933" lon="7.5107233"><ele>410.0</ele><time>2026-05-03T08:42:27.113Z</time></trkpt><trkpt lat="45.1919283" lon="7.5105567"><ele>411.0</ele><time>2026-05-03T08:42:28.113Z</time></trkpt><trkpt lat="45.191975" lon="7.51043"><ele>412.0</ele><time>2026-05-03T08:42:29.111Z</time></trkpt><trkpt lat="45.1920483" lon="7.5103467"><ele>413.0</ele><time>2026-05-03T08:42:30.111Z</time></trkpt><trkpt lat="45.1921117" lon="7.5102683"><ele>413.25</ele><time>2026-05-03T08:42:31.111Z</time></trkpt><trkpt lat="45.192185" lon="7.5102083"><ele>413.5</ele><time>2026-05-03T08:42:32.113Z</time></trkpt><trkpt lat="45.1922933" lon="7.5103433"><ele>413.75</ele><time>2026-05-03T08:42:33.146Z</time></trkpt><trkpt lat="45.1924017" lon="7.5104933"><ele>414.0</ele><time>2026-05-03T08:42:34.11Z</time></trkpt><trkpt lat="45.1925317" lon="7.51073"><ele>412.33333333333337</ele><time>2026-05-03T08:42:35.114Z</time></trkpt><trkpt lat="45.1927" lon="7.51096"><ele>410.6666666666667</ele><time>2026-05-03T08:42:36.114Z</time></trkpt><trkpt lat="45.1928667" lon="7.5111433"><ele>409.0</ele><time>2026-05-03T08:42:37.111Z</time></trkpt><trkpt lat="45.1929167" lon="7.51148"><ele>406.0</ele><time>2026-05-03T08:42:38.109Z</time></trkpt><trkpt lat="45.1929067" lon="7.51191"><ele>403.0</ele><time>2026-05-03T08:42:39.113Z</time></trkpt><trkpt lat="45.192935" lon="7.5122517"><ele>400.6666666666667</ele><time>2026-05-03T08:42:40.11Z</time></trkpt><trkpt lat="45.1929817" lon="7.5125533"><ele>398.33333333333337</ele><time>2026-05-03T08:42:41.109Z</time></trkpt><trkpt lat="45.19301" lon="7.5127417"><ele>396.0</ele><time>2026-05-03T08:42:42.111Z</time></trkpt><trkpt lat="45.1930483" lon="7.513"><ele>395.20000000000005</ele><time>2026-05-03T08:42:43.112Z</time></trkpt><trkpt lat="45.1931" lon="7.5131767"><ele>394.40000000000003</ele><time>2026-05-03T08:42:44.11Z</time></trkpt><trkpt lat="45.193155" lon="7.5133283"><ele>393.6</ele><time>2026-05-03T08:42:45.114Z</time></trkpt><trkpt lat="45.1932017" lon="7.51343"><ele>392.8</ele><time>2026-05-03T08:42:46.112Z</time></trkpt><trkpt lat="45.1932267" lon="7.513555"><ele>392.0</ele><time>2026-05-03T08:42:47.11Z</time></trkpt><trkpt lat="45.1932883" lon="7.5136383"><ele>393.8333333333333</ele><time>2026-05-03T08:42:48.111Z</time></trkpt><trkpt lat="45.1933333" lon="7.5137083"><ele>395.66666666666663</ele><time>2026-05-03T08:42:49.113Z</time></trkpt><trkpt lat="45.1934183" lon="7.5136817"><ele>397.5</ele><time>2026-05-03T08:42:50.112Z</time></trkpt><trkpt lat="45.1934983" lon="7.5136483"><ele>399.33333333333337</ele><time>2026-05-03T08:42:51.114Z</time></trkpt><trkpt lat="45.1935767" lon="7.5136067"><ele>401.1666666666667</ele><time>2026-05-03T08:42:52.111Z</time></trkpt><trkpt lat="45.1936267" lon="7.5134967"><ele>403.0</ele><time>2026-05-03T08:42:53.109Z</time></trkpt><trkpt lat="45.19367" lon="7.5133317"><ele>403.0</ele><time>2026-05-03T08:42:54.114Z</time></trkpt><trkpt lat="45.1936983" lon="7.5131583"><ele>403.0</ele><time>2026-05-03T08:42:55.111Z</time></trkpt><trkpt lat="45.19372" lon="7.5129833"><ele>403.0</ele><time>2026-05-03T08:42:56.112Z</time></trkpt><trkpt lat="45.19375" lon="7.5128217"><ele>403.0</ele><time>2026-05-03T08:42:57.114Z</time></trkpt><trkpt lat="45.1938217" lon="7.5127183"><ele>403.0</ele><time>2026-05-03T08:42:58.114Z</time></trkpt><trkpt lat="45.19391" lon="7.5126483"><ele>403.0</ele><time>2026-05-03T08:42:59.109Z</time></trkpt><trkpt lat="45.1940083" lon="7.5126083"><ele>403.0</ele><time>2026-05-03T08:43:00.113Z</time></trkpt><trkpt lat="45.194115" lon="7.5125967"><ele>403.0</ele><time>2026-05-03T08:43:01.113Z</time></trkpt><trkpt lat="45.1942467" lon="7.512595"><ele>403.0</ele><time>2026-05-03T08:43:02.111Z</time></trkpt><trkpt lat="45.1943733" lon="7.51262"><ele>402.79999999999995</ele><time>2026-05-03T08:43:03.112Z</time></trkpt><trkpt lat="45.1945017" lon="7.512665"><ele>402.6</ele><time>2026-05-03T08:43:04.111Z</time></trkpt><trkpt lat="45.1946" lon="7.51271"><ele>402.4</ele><time>2026-05-03T08:43:05.113Z</time></trkpt><trkpt lat="45.194695" lon="7.5127483"><ele>402.20000000000005</ele><time>2026-05-03T08:43:06.112Z</time></trkpt><trkpt lat="45.1947583" lon="7.5127983"><ele>402.0</ele><time>2026-05-03T08:43:07.11Z</time></trkpt><trkpt lat="45.19482" lon="7.5128583"><ele>402.5</ele><time>2026-05-03T08:43:08.11Z</time></trkpt><trkpt lat="45.1948733" lon="7.5129333"><ele>403.0</ele><time>2026-05-03T08:43:09.112Z</time></trkpt><trkpt lat="45.1948967" lon="7.513025"><ele>403.5</ele><time>2026-05-03T08:43:10.113Z</time></trkpt><trkpt lat="45.1949133" lon="7.5131267"><ele>404.0</ele><time>2026-05-03T08:43:11.111Z</time></trkpt><trkpt lat="45.1949433" lon="7.5132483"><ele>404.5</ele><time>2026-05-03T08:43:12.111Z</time></trkpt><trkpt lat="45.1949683" lon="7.513375"><ele>405.0</ele><time>2026-05-03T08:43:13.117Z</time></trkpt><trkpt lat="45.1949767" lon="7.5135183"><ele>405.0</ele><time>2026-05-03T08:43:14.114Z</time></trkpt><trkpt lat="45.1949933" lon="7.51367"><ele>405.0</ele><time>2026-05-03T08:43:15.11Z</time></trkpt><trkpt lat="45.1950067" lon="7.5138133"><ele>405.0</ele><time>2026-05-03T08:43:16.112Z</time></trkpt><trkpt lat="45.1950217" lon="7.5139467"><ele>405.0</ele><time>2026-05-03T08:43:17.112Z</time></trkpt><trkpt lat="45.19504" lon="7.5140767"><ele>405.0</ele><time>2026-05-03T08:43:18.11Z</time></trkpt><trkpt lat="45.1950433" lon="7.5142067"><ele>404.6</ele><time>2026-05-03T08:43:19.117Z</time></trkpt><trkpt lat="45.1950667" lon="7.5143317"><ele>404.2</ele><time>2026-05-03T08:43:20.112Z</time></trkpt><trkpt lat="45.1950933" lon="7.5144583"><ele>403.79999999999995</ele><time>2026-05-03T08:43:21.116Z</time></trkpt><trkpt lat="45.1951217" lon="7.5145733"><ele>403.4</ele><time>2026-05-03T08:43:22.114Z</time></trkpt><trkpt lat="45.1951483" lon="7.5147017"><ele>403.0</ele><time>2026-05-03T08:43:23.109Z</time></trkpt><trkpt lat="45.195175" lon="7.5148233"><ele>402.33333333333337</ele><time>2026-05-03T08:43:24.114Z</time></trkpt><trkpt lat="45.1952017" lon="7.514945"><ele>401.6666666666667</ele><time>2026-05-03T08:43:25.112Z</time></trkpt><trkpt lat="45.1952283" lon="7.5150683"><ele>401.0</ele><time>2026-05-03T08:43:26.112Z</time></trkpt><trkpt lat="45.195255" lon="7.51518"><ele>400.33333333333337</ele><time>2026-05-03T08:43:27.113Z</time></trkpt><trkpt lat="45.195295" lon="7.5152733"><ele>399.6666666666667</ele><time>2026-05-03T08:43:28.117Z</time></trkpt><trkpt lat="45.1953683" lon="7.5153117"><ele>399.0</ele><time>2026-05-03T08:43:29.113Z</time></trkpt><trkpt lat="45.1954317" lon="7.5153333"><ele>399.0</ele><time>2026-05-03T08:43:30.111Z</time></trkpt><trkpt lat="45.1955083" lon="7.5152783"><ele>399.0</ele><time>2026-05-03T08:43:31.112Z</time></trkpt><trkpt lat="45.19557" lon="7.5152167"><ele>399.0</ele><time>2026-05-03T08:43:32.113Z</time></trkpt><trkpt lat="45.1956167" lon="7.5151183"><ele>399.0</ele><time>2026-05-03T08:43:33.116Z</time></trkpt><trkpt lat="45.1956867" lon="7.514985"><ele>399.0</ele><time>2026-05-03T08:43:34.113Z</time></trkpt><trkpt lat="45.195715" lon="7.5147833"><ele>397.25</ele><time>2026-05-03T08:43:35.113Z</time></trkpt><trkpt lat="45.1957633" lon="7.514595"><ele>395.5</ele><time>2026-05-03T08:43:36.11Z</time></trkpt><trkpt lat="45.1958017" lon="7.514405"><ele>393.75</ele><time>2026-05-03T08:43:37.111Z</time></trkpt><trkpt lat="45.195855" lon="7.5142283"><ele>392.0</ele><time>2026-05-03T08:43:38.115Z</time></trkpt><trkpt lat="45.1959133" lon="7.514055"><ele>392.0</ele><time>2026-05-03T08:43:39.11Z</time></trkpt><trkpt lat="45.1959583" lon="7.51388"><ele>392.0</ele><time>2026-05-03T08:43:40.113Z</time></trkpt><trkpt lat="45.19599" lon="7.5136983"><ele>392.0</ele><time>2026-05-03T08:43:41.113Z</time></trkpt><trkpt lat="45.1960217" lon="7.5135317"><ele>392.0</ele><time>2026-05-03T08:43:42.117Z</time></trkpt><trkpt lat="45.1960567" lon="7.5133883"><ele>392.66666666666663</ele><time>2026-05-03T08:43:43.112Z</time></trkpt><trkpt lat="45.196095" lon="7.5132667"><ele>393.3333333333333</ele><time>2026-05-03T08:43:44.111Z</time></trkpt><trkpt lat="45.1961267" lon="7.5131533"><ele>394.0</ele><time>2026-05-03T08:43:45.114Z</time></trkpt><trkpt lat="45.1961583" lon="7.5130167"><ele>394.66666666666663</ele><time>2026-05-03T08:43:47.116Z</time></trkpt><trkpt lat="45.1961983" lon="7.513105"><ele>395.3333333333333</ele><time>2026-05-03T08:43:50.113Z</time></trkpt><trkpt lat="45.1961833" lon="7.5132017"><ele>396.0</ele><time>2026-05-03T08:43:51.111Z</time></trkpt><trkpt lat="45.1961617" lon="7.5133667"><ele>396.0</ele><time>2026-05-03T08:43:52.114Z</time></trkpt><trkpt lat="45.1961133" lon="7.5136017"><ele>396.0</ele><time>2026-05-03T08:43:53.111Z</time></trkpt><trkpt lat="45.1960767" lon="7.5139033"><ele>396.0</ele><time>2026-05-03T08:43:54.114Z</time></trkpt><trkpt lat="45.196075" lon="7.5142133"><ele>394.66666666666663</ele><time>2026-05-03T08:43:55.11Z</time></trkpt><trkpt lat="45.1960817" lon="7.5144567"><ele>393.3333333333333</ele><time>2026-05-03T08:43:56.113Z</time></trkpt><trkpt lat="45.19607" lon="7.5146933"><ele>392.0</ele><time>2026-05-03T08:43:57.113Z</time></trkpt><trkpt lat="45.1960783" lon="7.5148983"><ele>391.40000000000003</ele><time>2026-05-03T08:43:58.115Z</time></trkpt><trkpt lat="45.1960883" lon="7.5150633"><ele>390.8</ele><time>2026-05-03T08:43:59.114Z</time></trkpt><trkpt lat="45.1961083" lon="7.515195"><ele>390.2</ele><time>2026-05-03T08:44:00.114Z</time></trkpt><trkpt lat="45.1961633" lon="7.5153167"><ele>389.6</ele><time>2026-05-03T08:44:01.114Z</time></trkpt><trkpt lat="45.1962367" lon="7.5154317"><ele>389.0</ele><time>2026-05-03T08:44:02.111Z</time></trkpt><trkpt lat="45.1963383" lon="7.5155083"><ele>386.5</ele><time>2026-05-03T08:44:03.111Z</time></trkpt><trkpt lat="45.1964283" lon="7.5155767"><ele>384.0</ele><time>2026-05-03T08:44:04.111Z</time></trkpt><trkpt lat="45.1965333" lon="7.515615"><ele>381.5</ele><time>2026-05-03T08:44:05.113Z</time></trkpt><trkpt lat="45.1966833" lon="7.515565"><ele>379.0</ele><time>2026-05-03T08:44:06.112Z</time></trkpt><trkpt lat="45.1968767" lon="7.515485"><ele>374.66666666666663</ele><time>2026-05-03T08:44:07.112Z</time></trkpt><trkpt lat="45.1970883" lon="7.5154033"><ele>370.3333333333333</ele><time>2026-05-03T08:44:08.112Z</time></trkpt><trkpt lat="45.19727" lon="7.5153383"><ele>366.0</ele><time>2026-05-03T08:44:09.113Z</time></trkpt><trkpt lat="45.19747" lon="7.515265"><ele>365.6666666666667</ele><time>2026-05-03T08:44:10.114Z</time></trkpt><trkpt lat="45.1976667" lon="7.515195"><ele>365.33333333333337</ele><time>2026-05-03T08:44:11.112Z</time></trkpt><trkpt lat="45.19787" lon="7.5151217"><ele>365.0</ele><time>2026-05-03T08:44:12.112Z</time></trkpt><trkpt lat="45.1980667" lon="7.5150517"><ele>365.0</ele><time>2026-05-03T08:44:13.114Z</time></trkpt><trkpt lat="45.1982633" lon="7.5149783"><ele>365.0</ele><time>2026-05-03T08:44:14.115Z</time></trkpt><trkpt lat="45.19845" lon="7.5148917"><ele>365.0</ele><time>2026-05-03T08:44:15.112Z</time></trkpt><trkpt lat="45.1986317" lon="7.5147933"><ele>365.0</ele><time>2026-05-03T08:44:16.112Z</time></trkpt><trkpt lat="45.1988117" lon="7.514685"><ele>365.0</ele><time>2026-05-03T08:44:17.11Z</time></trkpt><trkpt lat="45.198995" lon="7.514575"><ele>365.0</ele><time>2026-05-03T08:44:18.116Z</time></trkpt><trkpt lat="45.199155" lon="7.5144717"><ele>364.6666666666667</ele><time>2026-05-03T08:44:19.118Z</time></trkpt><trkpt lat="45.1993217" lon="7.5143717"><ele>364.3333333333333</ele><time>2026-05-03T08:44:20.112Z</time></trkpt><trkpt lat="45.1994933" lon="7.5142667"><ele>364.0</ele><time>2026-05-03T08:44:21.111Z</time></trkpt><trkpt lat="45.19966" lon="7.514175"><ele>363.0</ele><time>2026-05-03T08:44:22.112Z</time></trkpt><trkpt lat="45.1998433" lon="7.5141017"><ele>362.0</ele><time>2026-05-03T08:44:23.113Z</time></trkpt><trkpt lat="45.20004" lon="7.51405"><ele>361.0</ele><time>2026-05-03T08:44:24.113Z</time></trkpt><trkpt lat="45.2002317" lon="7.5140017"><ele>361.0</ele><time>2026-05-03T08:44:25.113Z</time></trkpt><trkpt lat="45.2004283" lon="7.5139583"><ele>361.0</ele><time>2026-05-03T08:44:26.114Z</time></trkpt><trkpt lat="45.200625" lon="7.51392"><ele>361.0</ele><time>2026-05-03T08:44:27.112Z</time></trkpt><trkpt lat="45.20084" lon="7.51387"><ele>362.3333333333333</ele><time>2026-05-03T08:44:28.114Z</time></trkpt><trkpt lat="45.2010283" lon="7.513825"><ele>363.6666666666667</ele><time>2026-05-03T08:44:29.11Z</time></trkpt><trkpt lat="45.2012317" lon="7.513785"><ele>365.0</ele><time>2026-05-03T08:44:30.11Z</time></trkpt><trkpt lat="45.201435" lon="7.5137617"><ele>365.6666666666667</ele><time>2026-05-03T08:44:31.11Z</time></trkpt><trkpt lat="45.2016333" lon="7.5137533"><ele>366.3333333333333</ele><time>2026-05-03T08:44:32.11Z</time></trkpt><trkpt lat="45.201805" lon="7.5137833"><ele>367.0</ele><time>2026-05-03T08:44:33.112Z</time></trkpt><trkpt lat="45.2019667" lon="7.5138433"><ele>367.0</ele><time>2026-05-03T08:44:34.111Z</time></trkpt><trkpt lat="45.2021333" lon="7.5139"><ele>367.0</ele><time>2026-05-03T08:44:35.112Z</time></trkpt><trkpt lat="45.2023033" lon="7.5139317"><ele>367.0</ele><time>2026-05-03T08:44:36.115Z</time></trkpt><trkpt lat="45.202465" lon="7.5139283"><ele>366.66666666666663</ele><time>2026-05-03T08:44:37.11Z</time></trkpt><trkpt lat="45.2026267" lon="7.5139117"><ele>366.3333333333333</ele><time>2026-05-03T08:44:38.111Z</time></trkpt><trkpt lat="45.202775" lon="7.5139083"><ele>366.0</ele><time>2026-05-03T08:44:39.113Z</time></trkpt><trkpt lat="45.2029167" lon="7.5139167"><ele>366.0</ele><time>2026-05-03T08:44:40.112Z</time></trkpt><trkpt lat="45.2030533" lon="7.51395"><ele>366.0</ele><time>2026-05-03T08:44:41.111Z</time></trkpt><trkpt lat="45.20318" lon="7.5140417"><ele>366.0</ele><time>2026-05-03T08:44:42.113Z</time></trkpt><trkpt lat="45.203305" lon="7.5141817"><ele>366.0</ele><time>2026-05-03T08:44:43.118Z</time></trkpt><trkpt lat="45.2034283" lon="7.51435"><ele>364.0</ele><time>2026-05-03T08:44:44.116Z</time></trkpt><trkpt lat="45.2035633" lon="7.5145283"><ele>362.0</ele><time>2026-05-03T08:44:45.114Z</time></trkpt><trkpt lat="45.2037133" lon="7.5146983"><ele>360.0</ele><time>2026-05-03T08:44:46.116Z</time></trkpt><trkpt lat="45.2038683" lon="7.5148817"><ele>358.6666666666667</ele><time>2026-05-03T08:44:47.112Z</time></trkpt><trkpt lat="45.20401" lon="7.51508"><ele>357.33333333333337</ele><time>2026-05-03T08:44:48.114Z</time></trkpt><trkpt lat="45.2041533" lon="7.515285"><ele>356.0</ele><time>2026-05-03T08:44:49.116Z</time></trkpt><trkpt lat="45.2043083" lon="7.5154917"><ele>355.33333333333337</ele><time>2026-05-03T08:44:50.119Z</time></trkpt><trkpt lat="45.2044717" lon="7.515695"><ele>354.6666666666667</ele><time>2026-05-03T08:44:51.116Z</time></trkpt><trkpt lat="45.2046383" lon="7.5158883"><ele>354.0</ele><time>2026-05-03T08:44:52.115Z</time></trkpt><trkpt lat="45.2048033" lon="7.5160867"><ele>355.0</ele><time>2026-05-03T08:44:53.115Z</time></trkpt><trkpt lat="45.2049683" lon="7.51629"><ele>356.0</ele><time>2026-05-03T08:44:54.113Z</time></trkpt><trkpt lat="45.2051333" lon="7.5164733"><ele>357.0</ele><time>2026-05-03T08:44:55.116Z</time></trkpt><trkpt lat="45.2053017" lon="7.5166667"><ele>357.0</ele><time>2026-05-03T08:44:56.116Z</time></trkpt><trkpt lat="45.20547" lon="7.5168617"><ele>357.0</ele><time>2026-05-03T08:44:57.115Z</time></trkpt><trkpt lat="45.205625" lon="7.517045"><ele>357.0</ele><time>2026-05-03T08:44:58.112Z</time></trkpt><trkpt lat="45.2057767" lon="7.5172233"><ele>357.3333333333333</ele><time>2026-05-03T08:44:59.117Z</time></trkpt><trkpt lat="45.20592" lon="7.517395"><ele>357.66666666666663</ele><time>2026-05-03T08:45:00.114Z</time></trkpt><trkpt lat="45.206055" lon="7.5175567"><ele>358.0</ele><time>2026-05-03T08:45:01.115Z</time></trkpt><trkpt lat="45.20618" lon="7.517705"><ele>358.0</ele><time>2026-05-03T08:45:02.113Z</time></trkpt><trkpt lat="45.2062933" lon="7.51784"><ele>358.0</ele><time>2026-05-03T08:45:03.113Z</time></trkpt><trkpt lat="45.20639" lon="7.5179683"><ele>358.0</ele><time>2026-05-03T08:45:04.111Z</time></trkpt><trkpt lat="45.2064567" lon="7.5181067"><ele>358.0</ele><time>2026-05-03T08:45:05.112Z</time></trkpt><trkpt lat="45.2065" lon="7.51826"><ele>357.75</ele><time>2026-05-03T08:45:06.115Z</time></trkpt><trkpt lat="45.206515" lon="7.5184383"><ele>357.5</ele><time>2026-05-03T08:45:07.114Z</time></trkpt><trkpt lat="45.2065133" lon="7.5186467"><ele>357.25</ele><time>2026-05-03T08:45:08.112Z</time></trkpt><trkpt lat="45.20652" lon="7.5188633"><ele>357.0</ele><time>2026-05-03T08:45:09.113Z</time></trkpt><trkpt lat="45.20653" lon="7.519075"><ele>357.0</ele><time>2026-05-03T08:45:10.113Z</time></trkpt><trkpt lat="45.2065433" lon="7.519275"><ele>357.0</ele><time>2026-05-03T08:45:11.113Z</time></trkpt><trkpt lat="45.2065733" lon="7.5194783"><ele>357.0</ele><time>2026-05-03T08:45:12.112Z</time></trkpt><trkpt lat="45.2066317" lon="7.519675"><ele>357.0</ele><time>2026-05-03T08:45:13.112Z</time></trkpt><trkpt lat="45.2067083" lon="7.5198767"><ele>357.0</ele><time>2026-05-03T08:45:14.113Z</time></trkpt><trkpt lat="45.2068033" lon="7.5200817"><ele>357.0</ele><time>2026-05-03T08:45:15.115Z</time></trkpt><trkpt lat="45.2068983" lon="7.5203017"><ele>357.0</ele><time>2026-05-03T08:45:16.115Z</time></trkpt><trkpt lat="45.2070083" lon="7.5205333"><ele>357.6666666666667</ele><time>2026-05-03T08:45:17.114Z</time></trkpt><trkpt lat="45.2071233" lon="7.5207617"><ele>358.33333333333337</ele><time>2026-05-03T08:45:18.111Z</time></trkpt><trkpt lat="45.2072417" lon="7.5209933"><ele>359.0</ele><time>2026-05-03T08:45:19.112Z</time></trkpt><trkpt lat="45.2073583" lon="7.5212183"><ele>361.33333333333337</ele><time>2026-05-03T08:45:20.112Z</time></trkpt><trkpt lat="45.2074667" lon="7.5214433"><ele>363.6666666666667</ele><time>2026-05-03T08:45:21.116Z</time></trkpt><trkpt lat="45.20757" lon="7.5216767"><ele>366.0</ele><time>2026-05-03T08:45:22.113Z</time></trkpt><trkpt lat="45.2076667" lon="7.5219"><ele>367.5</ele><time>2026-05-03T08:45:23.112Z</time></trkpt><trkpt lat="45.2077633" lon="7.5220967"><ele>369.0</ele><time>2026-05-03T08:45:24.118Z</time></trkpt><trkpt lat="45.207855" lon="7.5222567"><ele>370.5</ele><time>2026-05-03T08:45:25.116Z</time></trkpt><trkpt lat="45.2079217" lon="7.522415"><ele>372.0</ele><time>2026-05-03T08:45:26.113Z</time></trkpt><trkpt lat="45.2079917" lon="7.5225533"><ele>372.0</ele><time>2026-05-03T08:45:27.113Z</time></trkpt><trkpt lat="45.2080717" lon="7.522675"><ele>372.0</ele><time>2026-05-03T08:45:28.111Z</time></trkpt><trkpt lat="45.208165" lon="7.522765"><ele>372.0</ele><time>2026-05-03T08:45:29.118Z</time></trkpt><trkpt lat="45.2082817" lon="7.5228117"><ele>372.0</ele><time>2026-05-03T08:45:30.115Z</time></trkpt><trkpt lat="45.2083883" lon="7.52282"><ele>372.75</ele><time>2026-05-03T08:45:31.109Z</time></trkpt><trkpt lat="45.2085083" lon="7.522785"><ele>373.5</ele><time>2026-05-03T08:45:32.112Z</time></trkpt><trkpt lat="45.2086383" lon="7.5227067"><ele>374.25</ele><time>2026-05-03T08:45:33.112Z</time></trkpt><trkpt lat="45.2087717" lon="7.5225883"><ele>375.0</ele><time>2026-05-03T08:45:34.109Z</time></trkpt><trkpt lat="45.2088883" lon="7.5224783"><ele>377.75</ele><time>2026-05-03T08:45:35.113Z</time></trkpt><trkpt lat="45.208995" lon="7.522375"><ele>380.5</ele><time>2026-05-03T08:45:36.116Z</time></trkpt><trkpt lat="45.2091167" lon="7.5222933"><ele>383.25</ele><time>2026-05-03T08:45:37.11Z</time></trkpt><trkpt lat="45.20925" lon="7.5222433"><ele>386.0</ele><time>2026-05-03T08:45:38.114Z</time></trkpt><trkpt lat="45.2094133" lon="7.5222"><ele>386.0</ele><time>2026-05-03T08:45:39.115Z</time></trkpt><trkpt lat="45.2095683" lon="7.522175"><ele>386.0</ele><time>2026-05-03T08:45:40.112Z</time></trkpt><trkpt lat="45.2097233" lon="7.52216"><ele>386.0</ele><time>2026-05-03T08:45:41.112Z</time></trkpt><trkpt lat="45.2099067" lon="7.5221417"><ele>391.0</ele><time>2026-05-03T08:45:42.113Z</time></trkpt><trkpt lat="45.2100917" lon="7.52213"><ele>396.0</ele><time>2026-05-03T08:45:43.11Z</time></trkpt><trkpt lat="45.21027" lon="7.5221333"><ele>401.0</ele><time>2026-05-03T08:45:44.112Z</time></trkpt><trkpt lat="45.210455" lon="7.5221367"><ele>401.0</ele><time>2026-05-03T08:45:45.115Z</time></trkpt><trkpt lat="45.2106517" lon="7.52213"><ele>401.0</ele><time>2026-05-03T08:45:46.113Z</time></trkpt><trkpt lat="45.2108417" lon="7.5221117"><ele>401.0</ele><time>2026-05-03T08:45:47.11Z</time></trkpt><trkpt lat="45.2110283" lon="7.5220917"><ele>401.3333333333333</ele><time>2026-05-03T08:45:48.108Z</time></trkpt><trkpt lat="45.21121" lon="7.5220717"><ele>401.66666666666663</ele><time>2026-05-03T08:45:49.112Z</time></trkpt><trkpt lat="45.2113783" lon="7.5220517"><ele>402.0</ele><time>2026-05-03T08:45:50.11Z</time></trkpt><trkpt lat="45.2115567" lon="7.52202"><ele>402.0</ele><time>2026-05-03T08:45:51.111Z</time></trkpt><trkpt lat="45.211715" lon="7.5219567"><ele>402.0</ele><time>2026-05-03T08:45:52.111Z</time></trkpt><trkpt lat="45.2118733" lon="7.5218867"><ele>402.0</ele><time>2026-05-03T08:45:53.113Z</time></trkpt><trkpt lat="45.212035" lon="7.5218133"><ele>402.0</ele><time>2026-05-03T08:45:54.11Z</time></trkpt><trkpt lat="45.2121967" lon="7.52173"><ele>402.0</ele><time>2026-05-03T08:45:55.113Z</time></trkpt><trkpt lat="45.212365" lon="7.5216517"><ele>402.0</ele><time>2026-05-03T08:45:56.112Z</time></trkpt><trkpt lat="45.2125317" lon="7.5215717"><ele>406.33333333333337</ele><time>2026-05-03T08:45:57.115Z</time></trkpt><trkpt lat="45.2126983" lon="7.5214917"><ele>410.6666666666667</ele><time>2026-05-03T08:45:58.111Z</time></trkpt><trkpt lat="45.2128567" lon="7.5214133"><ele>415.0</ele><time>2026-05-03T08:45:59.11Z</time></trkpt><trkpt lat="45.21302" lon="7.5213267"><ele>417.0</ele><time>2026-05-03T08:46:00.112Z</time></trkpt><trkpt lat="45.2131817" lon="7.5212467"><ele>419.0</ele><time>2026-05-03T08:46:01.111Z</time></trkpt><trkpt lat="45.21334" lon="7.521175"><ele>421.0</ele><time>2026-05-03T08:46:02.111Z</time></trkpt><trkpt lat="45.2134933" lon="7.5210867"><ele>417.0</ele><time>2026-05-03T08:46:03.113Z</time></trkpt><trkpt lat="45.21365" lon="7.521"><ele>413.0</ele><time>2026-05-03T08:46:04.112Z</time></trkpt><trkpt lat="45.2137983" lon="7.52094"><ele>409.0</ele><time>2026-05-03T08:46:05.111Z</time></trkpt><trkpt lat="45.213955" lon="7.52089"><ele>410.75</ele><time>2026-05-03T08:46:06.111Z</time></trkpt><trkpt lat="45.2141017" lon="7.5208517"><ele>412.5</ele><time>2026-05-03T08:46:07.11Z</time></trkpt><trkpt lat="45.21423" lon="7.520815"><ele>414.25</ele><time>2026-05-03T08:46:08.11Z</time></trkpt><trkpt lat="45.2143383" lon="7.5208383"><ele>416.0</ele><time>2026-05-03T08:46:09.112Z</time></trkpt><trkpt lat="45.2143317" lon="7.5210133"><ele>416.0</ele><time>2026-05-03T08:46:10.11Z</time></trkpt><trkpt lat="45.214385" lon="7.5211383"><ele>416.0</ele><time>2026-05-03T08:46:11.111Z</time></trkpt><trkpt lat="45.2144367" lon="7.5213167"><ele>416.0</ele><time>2026-05-03T08:46:12.113Z</time></trkpt><trkpt lat="45.214495" lon="7.5214633"><ele>416.0</ele><time>2026-05-03T08:46:13.111Z</time></trkpt><trkpt lat="45.21457" lon="7.521625"><ele>418.0</ele><time>2026-05-03T08:46:14.114Z</time></trkpt><trkpt lat="45.21463" lon="7.52179"><ele>420.0</ele><time>2026-05-03T08:46:15.113Z</time></trkpt><trkpt lat="45.2146817" lon="7.5219533"><ele>422.0</ele><time>2026-05-03T08:46:16.109Z</time></trkpt><trkpt lat="45.214725" lon="7.52213"><ele>424.0</ele><time>2026-05-03T08:46:17.113Z</time></trkpt><trkpt lat="45.2147583" lon="7.5222833"><ele>424.1666666666667</ele><time>2026-05-03T08:46:18.114Z</time></trkpt><trkpt lat="45.2148" lon="7.522435"><ele>424.33333333333337</ele><time>2026-05-03T08:46:19.114Z</time></trkpt><trkpt lat="45.2148417" lon="7.5225567"><ele>424.5</ele><time>2026-05-03T08:46:20.11Z</time></trkpt><trkpt lat="45.21488" lon="7.5226583"><ele>424.66666666666663</ele><time>2026-05-03T08:46:21.114Z</time></trkpt><trkpt lat="45.2149217" lon="7.5227583"><ele>424.8333333333333</ele><time>2026-05-03T08:46:22.114Z</time></trkpt><trkpt lat="45.2149533" lon="7.5228467"><ele>425.0</ele><time>2026-05-03T08:46:23.112Z</time></trkpt><trkpt lat="45.21498" lon="7.5229283"><ele>425.6</ele><time>2026-05-03T08:46:24.111Z</time></trkpt><trkpt lat="45.2150167" lon="7.5230467"><ele>426.2</ele><time>2026-05-03T08:46:26.113Z</time></trkpt><trkpt lat="45.215065" lon="7.5231867"><ele>426.79999999999995</ele><time>2026-05-03T08:46:28.114Z</time></trkpt><trkpt lat="45.2151033" lon="7.523305"><ele>427.4</ele><time>2026-05-03T08:46:30.11Z</time></trkpt><trkpt lat="45.2151767" lon="7.5233917"><ele>428.0</ele><time>2026-05-03T08:46:32.11Z</time></trkpt><trkpt lat="45.21524" lon="7.5233883"><ele>428.0</ele><time>2026-05-03T08:46:34.113Z</time></trkpt><trkpt lat="45.2152883" lon="7.5233183"><ele>427.99999999999994</ele><time>2026-05-03T08:46:35.11Z</time></trkpt><trkpt lat="45.2153683" lon="7.52322"><ele>427.99999999999994</ele><time>2026-05-03T08:46:36.11Z</time></trkpt><trkpt lat="45.2154633" lon="7.5231183"><ele>428.0</ele><time>2026-05-03T08:46:37.112Z</time></trkpt><trkpt lat="45.2155417" lon="7.52302"><ele>428.0</ele><time>2026-05-03T08:46:38.114Z</time></trkpt><trkpt lat="45.2156267" lon="7.5229117"><ele>428.0</ele><time>2026-05-03T08:46:39.109Z</time></trkpt><trkpt lat="45.2157217" lon="7.5228"><ele>427.99999999999994</ele><time>2026-05-03T08:46:40.113Z</time></trkpt><trkpt lat="45.2158133" lon="7.522695"><ele>427.99999999999994</ele><time>2026-05-03T08:46:41.112Z</time></trkpt><trkpt lat="45.2158983" lon="7.5226117"><ele>428.0</ele><time>2026-05-03T08:46:42.115Z</time></trkpt><trkpt lat="45.215975" lon="7.52253"><ele>428.0</ele><time>2026-05-03T08:46:43.114Z</time></trkpt><trkpt lat="45.2160433" lon="7.5224517"><ele>427.99999999999994</ele><time>2026-05-03T08:46:44.113Z</time></trkpt><trkpt lat="45.216115" lon="7.5223733"><ele>428.0</ele><time>2026-05-03T08:46:45.113Z</time></trkpt><trkpt lat="45.2161867" lon="7.5222967"><ele>428.0</ele><time>2026-05-03T08:46:46.115Z</time></trkpt><trkpt lat="45.21624" lon="7.52223"><ele>428.0</ele><time>2026-05-03T08:46:47.112Z</time></trkpt><trkpt lat="45.2162933" lon="7.5221817"><ele>427.99999999999994</ele><time>2026-05-03T08:46:48.112Z</time></trkpt><trkpt lat="45.2163817" lon="7.522145"><ele>428.0</ele><time>2026-05-03T08:46:50.11Z</time></trkpt><trkpt lat="45.216425" lon="7.5222517"><ele>427.99999999999994</ele><time>2026-05-03T08:46:51.112Z</time></trkpt><trkpt lat="45.2164717" lon="7.5223483"><ele>428.0</ele><time>2026-05-03T08:46:52.114Z</time></trkpt><trkpt lat="45.2165133" lon="7.5224433"><ele>428.0</ele><time>2026-05-03T08:46:53.112Z</time></trkpt><trkpt lat="45.216555" lon="7.522525"><ele>428.0</ele><time>2026-05-03T08:46:54.11Z</time></trkpt><trkpt lat="45.2165917" lon="7.52264"><ele>427.99999999999994</ele><time>2026-05-03T08:46:55.114Z</time></trkpt><trkpt lat="45.2166333" lon="7.522755"><ele>428.0</ele><time>2026-05-03T08:46:56.115Z</time></trkpt><trkpt lat="45.2166767" lon="7.5228917"><ele>428.59999999999997</ele><time>2026-05-03T08:46:57.115Z</time></trkpt><trkpt lat="45.21674" lon="7.52299"><ele>429.19999999999993</ele><time>2026-05-03T08:46:58.112Z</time></trkpt><trkpt lat="45.2168067" lon="7.5230883"><ele>429.8</ele><time>2026-05-03T08:46:59.109Z</time></trkpt><trkpt lat="45.2168733" lon="7.5231867"><ele>430.4</ele><time>2026-05-03T08:47:00.111Z</time></trkpt><trkpt lat="45.2169583" lon="7.523285"><ele>431.0</ele><time>2026-05-03T08:47:01.114Z</time></trkpt><trkpt lat="45.2170517" lon="7.5233867"><ele>431.0</ele><time>2026-05-03T08:47:02.112Z</time></trkpt><trkpt lat="45.217155" lon="7.523485"><ele>431.0</ele><time>2026-05-03T08:47:03.118Z</time></trkpt><trkpt lat="45.217265" lon="7.5235867"><ele>431.0</ele><time>2026-05-03T08:47:04.114Z</time></trkpt><trkpt lat="45.21736" lon="7.5236933"><ele>431.0</ele><time>2026-05-03T08:47:05.112Z</time></trkpt><trkpt lat="45.2174567" lon="7.5238067"><ele>431.5</ele><time>2026-05-03T08:47:06.114Z</time></trkpt><trkpt lat="45.21757" lon="7.5239533"><ele>432.0</ele><time>2026-05-03T08:47:07.116Z</time></trkpt><trkpt lat="45.2176817" lon="7.52407"><ele>432.5</ele><time>2026-05-03T08:47:08.114Z</time></trkpt><trkpt lat="45.2177667" lon="7.5241817"><ele>433.0</ele><time>2026-05-03T08:47:09.114Z</time></trkpt><trkpt lat="45.2178383" lon="7.5242917"><ele>433.0</ele><time>2026-05-03T08:47:10.112Z</time></trkpt><trkpt lat="45.2179083" lon="7.5243967"><ele>432.99999999999994</ele><time>2026-05-03T08:47:11.111Z</time></trkpt><trkpt lat="45.2179967" lon="7.5244917"><ele>432.99999999999994</ele><time>2026-05-03T08:47:12.111Z</time></trkpt><trkpt lat="45.2180933" lon="7.52458"><ele>433.0</ele><time>2026-05-03T08:47:13.113Z</time></trkpt><trkpt lat="45.2181917" lon="7.5246717"><ele>433.0</ele><time>2026-05-03T08:47:14.111Z</time></trkpt><trkpt lat="45.21828" lon="7.52476"><ele>433.0</ele><time>2026-05-03T08:47:15.117Z</time></trkpt><trkpt lat="45.2183633" lon="7.5248567"><ele>432.99999999999994</ele><time>2026-05-03T08:47:16.115Z</time></trkpt><trkpt lat="45.2184567" lon="7.524955"><ele>432.99999999999994</ele><time>2026-05-03T08:47:17.113Z</time></trkpt><trkpt lat="45.2185433" lon="7.5250517"><ele>433.0</ele><time>2026-05-03T08:47:18.112Z</time></trkpt><trkpt lat="45.218625" lon="7.525145"><ele>433.0</ele><time>2026-05-03T08:47:19.112Z</time></trkpt><trkpt lat="45.2187083" lon="7.5252367"><ele>433.0</ele><time>2026-05-03T08:47:20.111Z</time></trkpt><trkpt lat="45.2187933" lon="7.5253217"><ele>432.99999999999994</ele><time>2026-05-03T08:47:21.112Z</time></trkpt><trkpt lat="45.218875" lon="7.5254067"><ele>432.99999999999994</ele><time>2026-05-03T08:47:22.115Z</time></trkpt><trkpt lat="45.2189617" lon="7.5254967"><ele>433.0</ele><time>2026-05-03T08:47:23.113Z</time></trkpt><trkpt lat="45.2190467" lon="7.5255867"><ele>433.0</ele><time>2026-05-03T08:47:24.111Z</time></trkpt><trkpt lat="45.2191167" lon="7.5256767"><ele>432.4</ele><time>2026-05-03T08:47:25.114Z</time></trkpt><trkpt lat="45.2192017" lon="7.525755"><ele>431.79999999999995</ele><time>2026-05-03T08:47:26.114Z</time></trkpt><trkpt lat="45.21928" lon="7.52583"><ele>431.2</ele><time>2026-05-03T08:47:27.113Z</time></trkpt><trkpt lat="45.2193583" lon="7.5259117"><ele>430.6</ele><time>2026-05-03T08:47:28.112Z</time></trkpt><trkpt lat="45.2194383" lon="7.5259867"><ele>430.0</ele><time>2026-05-03T08:47:29.109Z</time></trkpt><trkpt lat="45.2195267" lon="7.5260517"><ele>430.0</ele><time>2026-05-03T08:47:30.113Z</time></trkpt><trkpt lat="45.2196133" lon="7.5261033"><ele>430.0</ele><time>2026-05-03T08:47:31.112Z</time></trkpt><trkpt lat="45.219725" lon="7.5261217"><ele>430.0</ele><time>2026-05-03T08:47:32.113Z</time></trkpt><trkpt lat="45.2198533" lon="7.5261183"><ele>430.0</ele><time>2026-05-03T08:47:33.111Z</time></trkpt><trkpt lat="45.2200083" lon="7.5261033"><ele>430.33333333333337</ele><time>2026-05-03T08:47:34.111Z</time></trkpt><trkpt lat="45.2201733" lon="7.5260883"><ele>430.66666666666663</ele><time>2026-05-03T08:47:35.114Z</time></trkpt><trkpt lat="45.2203567" lon="7.526075"><ele>431.0</ele><time>2026-05-03T08:47:36.114Z</time></trkpt><trkpt lat="45.220535" lon="7.526065"><ele>430.0</ele><time>2026-05-03T08:47:37.114Z</time></trkpt><trkpt lat="45.2207267" lon="7.5260567"><ele>429.0</ele><time>2026-05-03T08:47:38.11Z</time></trkpt><trkpt lat="45.2209017" lon="7.52605"><ele>428.0</ele><time>2026-05-03T08:47:39.112Z</time></trkpt><trkpt lat="45.2210767" lon="7.5260383"><ele>428.0</ele><time>2026-05-03T08:47:40.111Z</time></trkpt><trkpt lat="45.22124" lon="7.5260267"><ele>428.0</ele><time>2026-05-03T08:47:41.112Z</time></trkpt><trkpt lat="45.2214" lon="7.5260133"><ele>428.0</ele><time>2026-05-03T08:47:42.114Z</time></trkpt><trkpt lat="45.2215417" lon="7.5260067"><ele>427.0</ele><time>2026-05-03T08:47:43.117Z</time></trkpt><trkpt lat="45.2216817" lon="7.5260083"><ele>426.0</ele><time>2026-05-03T08:47:44.114Z</time></trkpt><trkpt lat="45.2218217" lon="7.5260183"><ele>425.0</ele><time>2026-05-03T08:47:45.118Z</time></trkpt><trkpt lat="45.22197" lon="7.5260567"><ele>424.0</ele><time>2026-05-03T08:47:46.116Z</time></trkpt><trkpt lat="45.2221283" lon="7.52611"><ele>424.0</ele><time>2026-05-03T08:47:47.113Z</time></trkpt><trkpt lat="45.2222917" lon="7.52618"><ele>424.0</ele><time>2026-05-03T08:47:48.112Z</time></trkpt><trkpt lat="45.22245" lon="7.526245"><ele>424.0</ele><time>2026-05-03T08:47:49.113Z</time></trkpt><trkpt lat="45.2226117" lon="7.5263067"><ele>422.6666666666667</ele><time>2026-05-03T08:47:50.113Z</time></trkpt><trkpt lat="45.2227817" lon="7.5263483"><ele>421.33333333333337</ele><time>2026-05-03T08:47:51.112Z</time></trkpt><trkpt lat="45.2229567" lon="7.52639"><ele>420.0</ele><time>2026-05-03T08:47:52.114Z</time></trkpt><trkpt lat="45.2231483" lon="7.5264333"><ele>419.66666666666663</ele><time>2026-05-03T08:47:53.112Z</time></trkpt><trkpt lat="45.2233567" lon="7.526475"><ele>419.3333333333333</ele><time>2026-05-03T08:47:54.112Z</time></trkpt><trkpt lat="45.22357" lon="7.52652"><ele>419.0</ele><time>2026-05-03T08:47:55.115Z</time></trkpt><trkpt lat="45.22377" lon="7.5265583"><ele>419.0</ele><time>2026-05-03T08:47:56.111Z</time></trkpt><trkpt lat="45.2239633" lon="7.5265967"><ele>419.0</ele><time>2026-05-03T08:47:57.113Z</time></trkpt><trkpt lat="45.2241617" lon="7.5266383"><ele>419.0</ele><time>2026-05-03T08:47:58.111Z</time></trkpt><trkpt lat="45.224345" lon="7.52668"><ele>418.3333333333333</ele><time>2026-05-03T08:47:59.111Z</time></trkpt><trkpt lat="45.224525" lon="7.5267133"><ele>417.66666666666663</ele><time>2026-05-03T08:48:00.112Z</time></trkpt><trkpt lat="45.224705" lon="7.526745"><ele>417.0</ele><time>2026-05-03T08:48:01.112Z</time></trkpt><trkpt lat="45.2248717" lon="7.5267767"><ele>417.0</ele><time>2026-05-03T08:48:02.112Z</time></trkpt><trkpt lat="45.2250283" lon="7.5268117"><ele>417.0</ele><time>2026-05-03T08:48:03.111Z</time></trkpt><trkpt lat="45.2251717" lon="7.5268417"><ele>417.0</ele><time>2026-05-03T08:48:04.113Z</time></trkpt><trkpt lat="45.22529" lon="7.5268767"><ele>417.0</ele><time>2026-05-03T08:48:05.111Z</time></trkpt><trkpt lat="45.2253917" lon="7.52692"><ele>417.0</ele><time>2026-05-03T08:48:06.114Z</time></trkpt><trkpt lat="45.2254783" lon="7.526985"><ele>417.0</ele><time>2026-05-03T08:48:07.109Z</time></trkpt><trkpt lat="45.2255683" lon="7.527055"><ele>417.0</ele><time>2026-05-03T08:48:08.112Z</time></trkpt><trkpt lat="45.2256483" lon="7.5272033"><ele>417.0</ele><time>2026-05-03T08:48:09.117Z</time></trkpt><trkpt lat="45.225705" lon="7.5273883"><ele>417.5</ele><time>2026-05-03T08:48:10.112Z</time></trkpt><trkpt lat="45.22575" lon="7.5275483"><ele>418.0</ele><time>2026-05-03T08:48:11.114Z</time></trkpt><trkpt lat="45.2258083" lon="7.52772"><ele>418.5</ele><time>2026-05-03T08:48:12.11Z</time></trkpt><trkpt lat="45.2258633" lon="7.5278883"><ele>419.0</ele><time>2026-05-03T08:48:13.115Z</time></trkpt><trkpt lat="45.2259217" lon="7.5280683"><ele>419.0</ele><time>2026-05-03T08:48:14.113Z</time></trkpt><trkpt lat="45.225975" lon="7.5282333"><ele>419.0</ele><time>2026-05-03T08:48:15.115Z</time></trkpt><trkpt lat="45.2260233" lon="7.528405"><ele>419.0</ele><time>2026-05-03T08:48:16.113Z</time></trkpt><trkpt lat="45.2260917" lon="7.5285617"><ele>419.0</ele><time>2026-05-03T08:48:17.113Z</time></trkpt><trkpt lat="45.2261567" lon="7.5287367"><ele>419.0</ele><time>2026-05-03T08:48:18.114Z</time></trkpt><trkpt lat="45.22622" lon="7.5288717"><ele>419.0</ele><time>2026-05-03T08:48:19.11Z</time></trkpt><trkpt lat="45.22628" lon="7.5289967"><ele>419.0</ele><time>2026-05-03T08:48:20.115Z</time></trkpt><trkpt lat="45.2263317" lon="7.5291083"><ele>419.0</ele><time>2026-05-03T08:48:21.117Z</time></trkpt><trkpt lat="45.2263633" lon="7.5291983"><ele>419.0</ele><time>2026-05-03T08:48:22.111Z</time></trkpt><trkpt lat="45.2264117" lon="7.5293217"><ele>419.0</ele><time>2026-05-03T08:48:24.114Z</time></trkpt><trkpt lat="45.2264417" lon="7.5294467"><ele>419.0</ele><time>2026-05-03T08:48:39.119Z</time></trkpt><trkpt lat="45.2264833" lon="7.5295533"><ele>419.0</ele><time>2026-05-03T08:48:41.117Z</time></trkpt><trkpt lat="45.2265633" lon="7.5296917"><ele>419.0</ele><time>2026-05-03T08:48:43.111Z</time></trkpt><trkpt lat="45.2266717" lon="7.5297433"><ele>419.0</ele><time>2026-05-03T08:48:45.115Z</time></trkpt><trkpt lat="45.226745" lon="7.529725"><ele>418.5</ele><time>2026-05-03T08:48:46.116Z</time></trkpt><trkpt lat="45.22683" lon="7.5296717"><ele>418.0</ele><time>2026-05-03T08:48:47.114Z</time></trkpt><trkpt lat="45.2269567" lon="7.5295667"><ele>417.5</ele><time>2026-05-03T08:48:48.114Z</time></trkpt><trkpt lat="45.2270967" lon="7.5294433"><ele>417.0</ele><time>2026-05-03T08:48:49.116Z</time></trkpt><trkpt lat="45.2273033" lon="7.5292533"><ele>416.66666666666663</ele><time>2026-05-03T08:48:50.113Z</time></trkpt><trkpt lat="45.2274817" lon="7.52909"><ele>416.3333333333333</ele><time>2026-05-03T08:48:51.117Z</time></trkpt><trkpt lat="45.2276567" lon="7.52894"><ele>416.0</ele><time>2026-05-03T08:48:52.112Z</time></trkpt><trkpt lat="45.227835" lon="7.528805"><ele>416.66666666666663</ele><time>2026-05-03T08:48:53.116Z</time></trkpt><trkpt lat="45.2280283" lon="7.5286617"><ele>417.33333333333337</ele><time>2026-05-03T08:48:54.111Z</time></trkpt><trkpt lat="45.22822" lon="7.5285083"><ele>418.0</ele><time>2026-05-03T08:48:55.118Z</time></trkpt><trkpt lat="45.2284067" lon="7.5283583"><ele>419.0</ele><time>2026-05-03T08:48:56.116Z</time></trkpt><trkpt lat="45.2285983" lon="7.5282133"><ele>420.0</ele><time>2026-05-03T08:48:57.111Z</time></trkpt><trkpt lat="45.228805" lon="7.5280583"><ele>419.0</ele><time>2026-05-03T08:48:58.12Z</time></trkpt><trkpt lat="45.2290067" lon="7.5279083"><ele>418.0</ele><time>2026-05-03T08:48:59.114Z</time></trkpt><trkpt lat="45.2292033" lon="7.5277583"><ele>418.0</ele><time>2026-05-03T08:49:00.113Z</time></trkpt><trkpt lat="45.229395" lon="7.527605"><ele>418.0</ele><time>2026-05-03T08:49:01.113Z</time></trkpt><trkpt lat="45.22958" lon="7.5274483"><ele>418.0</ele><time>2026-05-03T08:49:02.114Z</time></trkpt><trkpt lat="45.2297817" lon="7.5272833"><ele>419.6666666666667</ele><time>2026-05-03T08:49:03.115Z</time></trkpt><trkpt lat="45.229965" lon="7.5271317"><ele>421.33333333333337</ele><time>2026-05-03T08:49:04.116Z</time></trkpt><trkpt lat="45.2301483" lon="7.52698"><ele>423.0</ele><time>2026-05-03T08:49:05.114Z</time></trkpt><trkpt lat="45.2303217" lon="7.5268333"><ele>423.0</ele><time>2026-05-03T08:49:06.115Z</time></trkpt><trkpt lat="45.2304983" lon="7.5266833"><ele>423.0</ele><time>2026-05-03T08:49:07.111Z</time></trkpt><trkpt lat="45.23069" lon="7.52652"><ele>423.0</ele><time>2026-05-03T08:49:08.115Z</time></trkpt><trkpt lat="45.2308733" lon="7.52638"><ele>424.33333333333337</ele><time>2026-05-03T08:49:09.114Z</time></trkpt><trkpt lat="45.2310583" lon="7.52624"><ele>425.6666666666667</ele><time>2026-05-03T08:49:10.114Z</time></trkpt><trkpt lat="45.23127" lon="7.5260933"><ele>427.0</ele><time>2026-05-03T08:49:11.112Z</time></trkpt><trkpt lat="45.2314683" lon="7.5259483"><ele>422.0</ele><time>2026-05-03T08:49:12.114Z</time></trkpt><trkpt lat="45.2316683" lon="7.5257967"><ele>417.0</ele><time>2026-05-03T08:49:13.112Z</time></trkpt><trkpt lat="45.2318583" lon="7.525645"><ele>412.0</ele><time>2026-05-03T08:49:14.112Z</time></trkpt><trkpt lat="45.2320567" lon="7.52549"><ele>413.5</ele><time>2026-05-03T08:49:15.117Z</time></trkpt><trkpt lat="45.2322583" lon="7.5253283"><ele>415.0</ele><time>2026-05-03T08:49:16.115Z</time></trkpt><trkpt lat="45.2324617" lon="7.5251633"><ele>415.0</ele><time>2026-05-03T08:49:17.117Z</time></trkpt><trkpt lat="45.2326617" lon="7.5250017"><ele>415.0</ele><time>2026-05-03T08:49:18.12Z</time></trkpt><trkpt lat="45.2328633" lon="7.5248333"><ele>415.0</ele><time>2026-05-03T08:49:19.113Z</time></trkpt><trkpt lat="45.2330683" lon="7.5246583"><ele>415.0</ele><time>2026-05-03T08:49:20.115Z</time></trkpt><trkpt lat="45.2332683" lon="7.5244867"><ele>415.5</ele><time>2026-05-03T08:49:21.121Z</time></trkpt><trkpt lat="45.2334683" lon="7.52432"><ele>416.0</ele><time>2026-05-03T08:49:22.114Z</time></trkpt><trkpt lat="45.2336567" lon="7.5241533"><ele>416.0</ele><time>2026-05-03T08:49:23.116Z</time></trkpt><trkpt lat="45.233845" lon="7.5239867"><ele>416.0</ele><time>2026-05-03T08:49:24.117Z</time></trkpt><trkpt lat="45.23404" lon="7.52382"><ele>416.0</ele><time>2026-05-03T08:49:25.114Z</time></trkpt><trkpt lat="45.2342317" lon="7.5236633"><ele>414.0</ele><time>2026-05-03T08:49:26.114Z</time></trkpt><trkpt lat="45.234425" lon="7.5235067"><ele>412.0</ele><time>2026-05-03T08:49:27.116Z</time></trkpt><trkpt lat="45.23462" lon="7.5233467"><ele>410.0</ele><time>2026-05-03T08:49:28.116Z</time></trkpt><trkpt lat="45.234815" lon="7.5231833"><ele>410.0</ele><time>2026-05-03T08:49:29.113Z</time></trkpt><trkpt lat="45.2350133" lon="7.5230183"><ele>410.0</ele><time>2026-05-03T08:49:30.114Z</time></trkpt><trkpt lat="45.235215" lon="7.52285"><ele>410.5</ele><time>2026-05-03T08:49:31.113Z</time></trkpt><trkpt lat="45.2354233" lon="7.5226733"><ele>411.0</ele><time>2026-05-03T08:49:32.115Z</time></trkpt><trkpt lat="45.2356383" lon="7.522495"><ele>411.0</ele><time>2026-05-03T08:49:33.118Z</time></trkpt><trkpt lat="45.2358617" lon="7.522305"><ele>411.0</ele><time>2026-05-03T08:49:34.115Z</time></trkpt><trkpt lat="45.236085" lon="7.52211"><ele>414.0</ele><time>2026-05-03T08:49:35.114Z</time></trkpt><trkpt lat="45.2362967" lon="7.5219317"><ele>417.0</ele><time>2026-05-03T08:49:36.116Z</time></trkpt><trkpt lat="45.2365" lon="7.5217583"><ele>417.0</ele><time>2026-05-03T08:49:37.116Z</time></trkpt><trkpt lat="45.2367083" lon="7.5215817"><ele>417.0</ele><time>2026-05-03T08:49:38.115Z</time></trkpt><trkpt lat="45.2369117" lon="7.5214067"><ele>416.5</ele><time>2026-05-03T08:49:39.123Z</time></trkpt><trkpt lat="45.2371233" lon="7.52123"><ele>416.0</ele><time>2026-05-03T08:49:40.114Z</time></trkpt><trkpt lat="45.23733" lon="7.5210583"><ele>416.0</ele><time>2026-05-03T08:49:41.112Z</time></trkpt><trkpt lat="45.23754" lon="7.5208833"><ele>416.0</ele><time>2026-05-03T08:49:42.114Z</time></trkpt><trkpt lat="45.2377483" lon="7.5207067"><ele>416.0</ele><time>2026-05-03T08:49:43.117Z</time></trkpt><trkpt lat="45.237955" lon="7.520525"><ele>416.0</ele><time>2026-05-03T08:49:44.112Z</time></trkpt><trkpt lat="45.2381617" lon="7.52034"><ele>416.5</ele><time>2026-05-03T08:49:45.116Z</time></trkpt><trkpt lat="45.2383733" lon="7.5201533"><ele>417.0</ele><time>2026-05-03T08:49:46.113Z</time></trkpt><trkpt lat="45.2385767" lon="7.5199767"><ele>417.0</ele><time>2026-05-03T08:49:47.112Z</time></trkpt><trkpt lat="45.238765" lon="7.5198067"><ele>417.0</ele><time>2026-05-03T08:49:48.117Z</time></trkpt><trkpt lat="45.23897" lon="7.51964"><ele>417.5</ele><time>2026-05-03T08:49:49.114Z</time></trkpt><trkpt lat="45.239165" lon="7.5194733"><ele>418.0</ele><time>2026-05-03T08:49:50.115Z</time></trkpt><trkpt lat="45.2393617" lon="7.5193017"><ele>418.0</ele><time>2026-05-03T08:49:51.114Z</time></trkpt><trkpt lat="45.2395617" lon="7.5191267"><ele>418.0</ele><time>2026-05-03T08:49:52.116Z</time></trkpt><trkpt lat="45.2397567" lon="7.5189583"><ele>417.5</ele><time>2026-05-03T08:49:53.116Z</time></trkpt><trkpt lat="45.2399567" lon="7.5187883"><ele>417.0</ele><time>2026-05-03T08:49:54.116Z</time></trkpt><trkpt lat="45.240155" lon="7.5186167"><ele>417.0</ele><time>2026-05-03T08:49:55.117Z</time></trkpt><trkpt lat="45.240355" lon="7.518445"><ele>417.0</ele><time>2026-05-03T08:49:56.118Z</time></trkpt><trkpt lat="45.240555" lon="7.5182783"><ele>415.0</ele><time>2026-05-03T08:49:57.12Z</time></trkpt><trkpt lat="45.24075" lon="7.5181133"><ele>413.0</ele><time>2026-05-03T08:49:58.115Z</time></trkpt><trkpt lat="45.2409417" lon="7.51795"><ele>413.3333333333333</ele><time>2026-05-03T08:49:59.114Z</time></trkpt><trkpt lat="45.2411283" lon="7.517795"><ele>413.66666666666663</ele><time>2026-05-03T08:50:00.115Z</time></trkpt><trkpt lat="45.241305" lon="7.5176483"><ele>414.0</ele><time>2026-05-03T08:50:01.112Z</time></trkpt><trkpt lat="45.241485" lon="7.5175033"><ele>414.0</ele><time>2026-05-03T08:50:02.117Z</time></trkpt><trkpt lat="45.241655" lon="7.5173633"><ele>414.0</ele><time>2026-05-03T08:50:03.118Z</time></trkpt><trkpt lat="45.2418267" lon="7.51723"><ele>414.0</ele><time>2026-05-03T08:50:04.117Z</time></trkpt><trkpt lat="45.2419867" lon="7.5171083"><ele>414.66666666666663</ele><time>2026-05-03T08:50:05.116Z</time></trkpt><trkpt lat="45.2421483" lon="7.51699"><ele>415.3333333333333</ele><time>2026-05-03T08:50:06.115Z</time></trkpt><trkpt lat="45.24229" lon="7.5168783"><ele>416.0</ele><time>2026-05-03T08:50:07.112Z</time></trkpt><trkpt lat="45.242425" lon="7.5167733"><ele>416.0</ele><time>2026-05-03T08:50:08.119Z</time></trkpt><trkpt lat="45.2425467" lon="7.5166783"><ele>416.0</ele><time>2026-05-03T08:50:09.114Z</time></trkpt><trkpt lat="45.2426617" lon="7.5165883"><ele>416.0</ele><time>2026-05-03T08:50:10.113Z</time></trkpt><trkpt lat="45.2427733" lon="7.5165067"><ele>416.0</ele><time>2026-05-03T08:50:11.114Z</time></trkpt><trkpt lat="45.2428783" lon="7.5164317"><ele>416.0</ele><time>2026-05-03T08:50:12.109Z</time></trkpt><trkpt lat="45.2429867" lon="7.51635"><ele>416.0</ele><time>2026-05-03T08:50:13.115Z</time></trkpt><trkpt lat="45.2430733" lon="7.5162783"><ele>416.0</ele><time>2026-05-03T08:50:14.111Z</time></trkpt><trkpt lat="45.2431783" lon="7.5162"><ele>416.0</ele><time>2026-05-03T08:50:15.117Z</time></trkpt><trkpt lat="45.24327" lon="7.516135"><ele>416.0</ele><time>2026-05-03T08:50:16.121Z</time></trkpt><trkpt lat="45.2433533" lon="7.5160833"><ele>416.0</ele><time>2026-05-03T08:50:17.112Z</time></trkpt><trkpt lat="45.243425" lon="7.5160533"><ele>416.0</ele><time>2026-05-03T08:50:18.115Z</time></trkpt><trkpt lat="45.2434967" lon="7.51605"><ele>416.0</ele><time>2026-05-03T08:50:19.113Z</time></trkpt><trkpt lat="45.2435667" lon="7.5160533"><ele>416.0</ele><time>2026-05-03T08:50:20.115Z</time></trkpt><trkpt lat="45.243645" lon="7.5160433"><ele>416.0</ele><time>2026-05-03T08:50:21.112Z</time></trkpt><trkpt lat="45.2437" lon="7.5159833"><ele>416.0</ele><time>2026-05-03T08:50:22.111Z</time></trkpt><trkpt lat="45.2437367" lon="7.515885"><ele>416.0</ele><time>2026-05-03T08:50:23.114Z</time></trkpt><trkpt lat="45.24378" lon="7.515775"><ele>416.0</ele><time>2026-05-03T08:50:24.115Z</time></trkpt><trkpt lat="45.2438333" lon="7.51568"><ele>416.0</ele><time>2026-05-03T08:50:25.112Z</time></trkpt><trkpt lat="45.2439017" lon="7.51559"><ele>416.0</ele><time>2026-05-03T08:50:26.112Z</time></trkpt><trkpt lat="45.244005" lon="7.515495"><ele>416.0</ele><time>2026-05-03T08:50:27.116Z</time></trkpt><trkpt lat="45.2441167" lon="7.5154033"><ele>416.0</ele><time>2026-05-03T08:50:28.114Z</time></trkpt><trkpt lat="45.2442517" lon="7.5152983"><ele>418.0</ele><time>2026-05-03T08:50:29.119Z</time></trkpt><trkpt lat="45.2443883" lon="7.5151733"><ele>420.0</ele><time>2026-05-03T08:50:30.113Z</time></trkpt><trkpt lat="45.2445333" lon="7.5150433"><ele>422.0</ele><time>2026-05-03T08:50:31.111Z</time></trkpt><trkpt lat="45.2446833" lon="7.5148983"><ele>421.3333333333333</ele><time>2026-05-03T08:50:32.117Z</time></trkpt><trkpt lat="45.244835" lon="7.5147483"><ele>420.66666666666663</ele><time>2026-05-03T08:50:33.111Z</time></trkpt><trkpt lat="45.245" lon="7.5145933"><ele>420.0</ele><time>2026-05-03T08:50:34.113Z</time></trkpt><trkpt lat="45.245175" lon="7.5144283"><ele>423.5</ele><time>2026-05-03T08:50:35.116Z</time></trkpt><trkpt lat="45.2453667" lon="7.514255"><ele>427.0</ele><time>2026-05-03T08:50:36.112Z</time></trkpt><trkpt lat="45.245565" lon="7.5140783"><ele>426.0</ele><time>2026-05-03T08:50:37.111Z</time></trkpt><trkpt lat="45.2457667" lon="7.5138983"><ele>425.0</ele><time>2026-05-03T08:50:38.113Z</time></trkpt><trkpt lat="45.2459717" lon="7.5137183"><ele>425.0</ele><time>2026-05-03T08:50:39.115Z</time></trkpt><trkpt lat="45.2461767" lon="7.5135383"><ele>425.0</ele><time>2026-05-03T08:50:40.117Z</time></trkpt><trkpt lat="45.2463817" lon="7.5133617"><ele>424.0</ele><time>2026-05-03T08:50:41.118Z</time></trkpt><trkpt lat="45.2465833" lon="7.5131833"><ele>423.0</ele><time>2026-05-03T08:50:42.114Z</time></trkpt><trkpt lat="45.246795" lon="7.513005"><ele>425.5</ele><time>2026-05-03T08:50:43.114Z</time></trkpt><trkpt lat="45.247015" lon="7.5128283"><ele>428.0</ele><time>2026-05-03T08:50:44.113Z</time></trkpt><trkpt lat="45.2472267" lon="7.5126533"><ele>426.0</ele><time>2026-05-03T08:50:45.112Z</time></trkpt><trkpt lat="45.2474383" lon="7.51248"><ele>424.0</ele><time>2026-05-03T08:50:46.116Z</time></trkpt><trkpt lat="45.2476467" lon="7.512305"><ele>424.0</ele><time>2026-05-03T08:50:47.116Z</time></trkpt><trkpt lat="45.247855" lon="7.5121267"><ele>424.0</ele><time>2026-05-03T08:50:48.115Z</time></trkpt><trkpt lat="45.2480617" lon="7.51195"><ele>426.5</ele><time>2026-05-03T08:50:49.115Z</time></trkpt><trkpt lat="45.248265" lon="7.5117767"><ele>429.0</ele><time>2026-05-03T08:50:50.112Z</time></trkpt><trkpt lat="45.24846" lon="7.5116183"><ele>429.0</ele><time>2026-05-03T08:50:51.114Z</time></trkpt><trkpt lat="45.2486567" lon="7.51146"><ele>429.0</ele><time>2026-05-03T08:50:52.115Z</time></trkpt><trkpt lat="45.2488417" lon="7.5112983"><ele>429.0</ele><time>2026-05-03T08:50:53.113Z</time></trkpt><trkpt lat="45.2490367" lon="7.511145"><ele>429.0</ele><time>2026-05-03T08:50:54.111Z</time></trkpt><trkpt lat="45.24923" lon="7.5109917"><ele>429.0</ele><time>2026-05-03T08:50:55.115Z</time></trkpt><trkpt lat="45.2494017" lon="7.5108417"><ele>429.0</ele><time>2026-05-03T08:50:56.116Z</time></trkpt><trkpt lat="45.2495583" lon="7.510695"><ele>429.0</ele><time>2026-05-03T08:50:57.118Z</time></trkpt><trkpt lat="45.2497267" lon="7.5105483"><ele>429.0</ele><time>2026-05-03T08:50:58.114Z</time></trkpt><trkpt lat="45.2499117" lon="7.5104033"><ele>429.0</ele><time>2026-05-03T08:50:59.115Z</time></trkpt><trkpt lat="45.2500967" lon="7.510255"><ele>427.66666666666663</ele><time>2026-05-03T08:51:00.116Z</time></trkpt><trkpt lat="45.2502683" lon="7.510105"><ele>426.3333333333333</ele><time>2026-05-03T08:51:01.115Z</time></trkpt><trkpt lat="45.250445" lon="7.50995"><ele>425.0</ele><time>2026-05-03T08:51:02.11Z</time></trkpt><trkpt lat="45.250615" lon="7.5097967"><ele>425.66666666666663</ele><time>2026-05-03T08:51:03.115Z</time></trkpt><trkpt lat="45.2507917" lon="7.5096483"><ele>426.33333333333337</ele><time>2026-05-03T08:51:04.11Z</time></trkpt><trkpt lat="45.2509767" lon="7.5094933"><ele>427.0</ele><time>2026-05-03T08:51:05.116Z</time></trkpt><trkpt lat="45.2511533" lon="7.5093417"><ele>427.0</ele><time>2026-05-03T08:51:06.118Z</time></trkpt><trkpt lat="45.2513283" lon="7.5091933"><ele>427.0</ele><time>2026-05-03T08:51:07.115Z</time></trkpt><trkpt lat="45.2515017" lon="7.509045"><ele>427.0</ele><time>2026-05-03T08:51:08.115Z</time></trkpt><trkpt lat="45.2516683" lon="7.508895"><ele>426.0</ele><time>2026-05-03T08:51:09.118Z</time></trkpt><trkpt lat="45.2518333" lon="7.5087583"><ele>425.0</ele><time>2026-05-03T08:51:10.115Z</time></trkpt><trkpt lat="45.2519967" lon="7.50862"><ele>424.0</ele><time>2026-05-03T08:51:11.118Z</time></trkpt><trkpt lat="45.2521483" lon="7.5084883"><ele>424.6666666666667</ele><time>2026-05-03T08:51:12.115Z</time></trkpt><trkpt lat="45.2523033" lon="7.5083633"><ele>425.33333333333337</ele><time>2026-05-03T08:51:13.12Z</time></trkpt><trkpt lat="45.2524633" lon="7.5082267"><ele>426.0</ele><time>2026-05-03T08:51:14.115Z</time></trkpt><trkpt lat="45.25263" lon="7.5080867"><ele>426.0</ele><time>2026-05-03T08:51:15.118Z</time></trkpt><trkpt lat="45.2528067" lon="7.50794"><ele>426.0</ele><time>2026-05-03T08:51:16.112Z</time></trkpt><trkpt lat="45.2529967" lon="7.5077817"><ele>426.0</ele><time>2026-05-03T08:51:17.116Z</time></trkpt><trkpt lat="45.2531867" lon="7.5076183"><ele>426.66666666666663</ele><time>2026-05-03T08:51:18.118Z</time></trkpt><trkpt lat="45.2533783" lon="7.5074583"><ele>427.3333333333333</ele><time>2026-05-03T08:51:19.116Z</time></trkpt><trkpt lat="45.2535683" lon="7.5072983"><ele>428.0</ele><time>2026-05-03T08:51:20.116Z</time></trkpt><trkpt lat="45.2537533" lon="7.5071417"><ele>428.0</ele><time>2026-05-03T08:51:21.117Z</time></trkpt><trkpt lat="45.25394" lon="7.5069817"><ele>428.0</ele><time>2026-05-03T08:51:22.115Z</time></trkpt><trkpt lat="45.2541283" lon="7.506825"><ele>428.0</ele><time>2026-05-03T08:51:23.115Z</time></trkpt><trkpt lat="45.2543083" lon="7.5066733"><ele>428.0</ele><time>2026-05-03T08:51:24.117Z</time></trkpt><trkpt lat="45.25449" lon="7.5065183"><ele>428.0</ele><time>2026-05-03T08:51:25.114Z</time></trkpt><trkpt lat="45.254665" lon="7.506365"><ele>428.0</ele><time>2026-05-03T08:51:26.115Z</time></trkpt><trkpt lat="45.25485" lon="7.5062117"><ele>430.3333333333333</ele><time>2026-05-03T08:51:27.12Z</time></trkpt><trkpt lat="45.2550283" lon="7.5060633"><ele>432.66666666666663</ele><time>2026-05-03T08:51:28.115Z</time></trkpt><trkpt lat="45.2552" lon="7.50592"><ele>435.0</ele><time>2026-05-03T08:51:29.115Z</time></trkpt><trkpt lat="45.2553617" lon="7.5057833"><ele>435.0</ele><time>2026-05-03T08:51:30.116Z</time></trkpt><trkpt lat="45.2555167" lon="7.5056483"><ele>435.0</ele><time>2026-05-03T08:51:31.115Z</time></trkpt><trkpt lat="45.2556683" lon="7.5055167"><ele>435.0</ele><time>2026-05-03T08:51:32.117Z</time></trkpt><trkpt lat="45.25583" lon="7.5053867"><ele>441.0</ele><time>2026-05-03T08:51:33.119Z</time></trkpt><trkpt lat="45.2559783" lon="7.5052733"><ele>447.0</ele><time>2026-05-03T08:51:34.116Z</time></trkpt><trkpt lat="45.256115" lon="7.5051833"><ele>453.0</ele><time>2026-05-03T08:51:35.112Z</time></trkpt><trkpt lat="45.25625" lon="7.5051017"><ele>453.0</ele><time>2026-05-03T08:51:36.112Z</time></trkpt><trkpt lat="45.25639" lon="7.5050317"><ele>453.0</ele><time>2026-05-03T08:51:37.114Z</time></trkpt><trkpt lat="45.2565417" lon="7.504975"><ele>453.0</ele><time>2026-05-03T08:51:38.113Z</time></trkpt><trkpt lat="45.2567083" lon="7.5049317"><ele>449.0</ele><time>2026-05-03T08:51:39.113Z</time></trkpt><trkpt lat="45.2568833" lon="7.5049067"><ele>445.0</ele><time>2026-05-03T08:51:40.115Z</time></trkpt><trkpt lat="45.2570567" lon="7.5049033"><ele>441.0</ele><time>2026-05-03T08:51:41.113Z</time></trkpt><trkpt lat="45.257215" lon="7.5049167"><ele>439.33333333333337</ele><time>2026-05-03T08:51:42.114Z</time></trkpt><trkpt lat="45.257375" lon="7.5049467"><ele>437.6666666666667</ele><time>2026-05-03T08:51:43.114Z</time></trkpt><trkpt lat="45.257525" lon="7.5049783"><ele>436.0</ele><time>2026-05-03T08:51:44.116Z</time></trkpt><trkpt lat="45.257685" lon="7.504995"><ele>436.0</ele><time>2026-05-03T08:51:45.113Z</time></trkpt><trkpt lat="45.257855" lon="7.5049717"><ele>436.0</ele><time>2026-05-03T08:51:46.116Z</time></trkpt><trkpt lat="45.2580283" lon="7.5049083"><ele>436.0</ele><time>2026-05-03T08:51:47.115Z</time></trkpt><trkpt lat="45.2582017" lon="7.5048333"><ele>434.0</ele><time>2026-05-03T08:51:48.114Z</time></trkpt><trkpt lat="45.2583817" lon="7.50475"><ele>432.0</ele><time>2026-05-03T08:51:49.116Z</time></trkpt><trkpt lat="45.2585633" lon="7.5046633"><ele>430.0</ele><time>2026-05-03T08:51:50.114Z</time></trkpt><trkpt lat="45.258745" lon="7.5045917"><ele>430.6666666666667</ele><time>2026-05-03T08:51:51.113Z</time></trkpt><trkpt lat="45.25894" lon="7.504545"><ele>431.33333333333337</ele><time>2026-05-03T08:51:52.114Z</time></trkpt><trkpt lat="45.25913" lon="7.5045017"><ele>432.0</ele><time>2026-05-03T08:51:53.112Z</time></trkpt><trkpt lat="45.259325" lon="7.50446"><ele>432.0</ele><time>2026-05-03T08:51:54.113Z</time></trkpt><trkpt lat="45.2595167" lon="7.50442"><ele>432.0</ele><time>2026-05-03T08:51:55.115Z</time></trkpt><trkpt lat="45.259705" lon="7.5043683"><ele>432.0</ele><time>2026-05-03T08:51:56.112Z</time></trkpt><trkpt lat="45.2599" lon="7.5042917"><ele>431.33333333333337</ele><time>2026-05-03T08:51:57.112Z</time></trkpt><trkpt lat="45.2600883" lon="7.5041933"><ele>430.6666666666667</ele><time>2026-05-03T08:51:58.113Z</time></trkpt><trkpt lat="45.2602683" lon="7.50408"><ele>430.0</ele><time>2026-05-03T08:51:59.115Z</time></trkpt><trkpt lat="45.2604383" lon="7.50395"><ele>430.0</ele><time>2026-05-03T08:52:00.112Z</time></trkpt><trkpt lat="45.260605" lon="7.5038083"><ele>430.0</ele><time>2026-05-03T08:52:01.112Z</time></trkpt><trkpt lat="45.2607683" lon="7.5036367"><ele>430.0</ele><time>2026-05-03T08:52:02.114Z</time></trkpt><trkpt lat="45.2609233" lon="7.503435"><ele>430.33333333333337</ele><time>2026-05-03T08:52:03.114Z</time></trkpt><trkpt lat="45.261075" lon="7.503225"><ele>430.66666666666663</ele><time>2026-05-03T08:52:04.116Z</time></trkpt><trkpt lat="45.2612283" lon="7.50301"><ele>431.0</ele><time>2026-05-03T08:52:05.115Z</time></trkpt><trkpt lat="45.2613917" lon="7.50278"><ele>432.0</ele><time>2026-05-03T08:52:06.113Z</time></trkpt><trkpt lat="45.26156" lon="7.5025433"><ele>433.0</ele><time>2026-05-03T08:52:07.112Z</time></trkpt><trkpt lat="45.2617417" lon="7.5023017"><ele>436.5</ele><time>2026-05-03T08:52:08.114Z</time></trkpt><trkpt lat="45.26192" lon="7.5020583"><ele>440.0</ele><time>2026-05-03T08:52:09.117Z</time></trkpt><trkpt lat="45.26209" lon="7.5018133"><ele>440.0</ele><time>2026-05-03T08:52:10.113Z</time></trkpt><trkpt lat="45.262265" lon="7.5015667"><ele>440.0</ele><time>2026-05-03T08:52:11.112Z</time></trkpt><trkpt lat="45.2624417" lon="7.50132"><ele>439.5</ele><time>2026-05-03T08:52:12.114Z</time></trkpt><trkpt lat="45.2626167" lon="7.501075"><ele>439.0</ele><time>2026-05-03T08:52:13.114Z</time></trkpt><trkpt lat="45.262795" lon="7.500825"><ele>439.0</ele><time>2026-05-03T08:52:14.116Z</time></trkpt><trkpt lat="45.262975" lon="7.50058"><ele>439.0</ele><time>2026-05-03T08:52:15.112Z</time></trkpt><trkpt lat="45.2631467" lon="7.5003467"><ele>439.5</ele><time>2026-05-03T08:52:16.112Z</time></trkpt><trkpt lat="45.2633067" lon="7.5001183"><ele>440.0</ele><time>2026-05-03T08:52:17.114Z</time></trkpt><trkpt lat="45.26347" lon="7.499895"><ele>440.0</ele><time>2026-05-03T08:52:18.112Z</time></trkpt><trkpt lat="45.2636383" lon="7.4996883"><ele>440.0</ele><time>2026-05-03T08:52:19.115Z</time></trkpt><trkpt lat="45.2638067" lon="7.4994883"><ele>440.0</ele><time>2026-05-03T08:52:20.112Z</time></trkpt><trkpt lat="45.26398" lon="7.4992983"><ele>439.66666666666663</ele><time>2026-05-03T08:52:21.12Z</time></trkpt><trkpt lat="45.2641567" lon="7.499115"><ele>439.33333333333337</ele><time>2026-05-03T08:52:22.112Z</time></trkpt><trkpt lat="45.26434" lon="7.498945"><ele>439.0</ele><time>2026-05-03T08:52:23.115Z</time></trkpt><trkpt lat="45.26453" lon="7.4987783"><ele>438.0</ele><time>2026-05-03T08:52:24.109Z</time></trkpt><trkpt lat="45.2647283" lon="7.4986367"><ele>437.0</ele><time>2026-05-03T08:52:25.11Z</time></trkpt><trkpt lat="45.2649333" lon="7.49849"><ele>437.0</ele><time>2026-05-03T08:52:26.111Z</time></trkpt><trkpt lat="45.26513" lon="7.4983333"><ele>437.0</ele><time>2026-05-03T08:52:27.114Z</time></trkpt><trkpt lat="45.26532" lon="7.4981617"><ele>437.0</ele><time>2026-05-03T08:52:28.114Z</time></trkpt><trkpt lat="45.2655083" lon="7.4979733"><ele>437.0</ele><time>2026-05-03T08:52:29.112Z</time></trkpt><trkpt lat="45.2656833" lon="7.4977783"><ele>437.3333333333333</ele><time>2026-05-03T08:52:30.115Z</time></trkpt><trkpt lat="45.2658467" lon="7.4975717"><ele>437.66666666666663</ele><time>2026-05-03T08:52:31.115Z</time></trkpt><trkpt lat="45.2659967" lon="7.49735"><ele>438.0</ele><time>2026-05-03T08:52:32.113Z</time></trkpt><trkpt lat="45.2661433" lon="7.497115"><ele>446.5</ele><time>2026-05-03T08:52:33.114Z</time></trkpt><trkpt lat="45.2662817" lon="7.49687"><ele>455.0</ele><time>2026-05-03T08:52:34.113Z</time></trkpt><trkpt lat="45.266435" lon="7.4966067"><ele>456.5</ele><time>2026-05-03T08:52:35.114Z</time></trkpt><trkpt lat="45.26658" lon="7.496355"><ele>458.0</ele><time>2026-05-03T08:52:36.113Z</time></trkpt><trkpt lat="45.2667267" lon="7.4961"><ele>458.0</ele><time>2026-05-03T08:52:37.111Z</time></trkpt><trkpt lat="45.26687" lon="7.4958483"><ele>458.0</ele><time>2026-05-03T08:52:38.111Z</time></trkpt><trkpt lat="45.2669967" lon="7.4956067"><ele>458.0</ele><time>2026-05-03T08:52:39.115Z</time></trkpt><trkpt lat="45.2671217" lon="7.4953683"><ele>453.0</ele><time>2026-05-03T08:52:40.11Z</time></trkpt><trkpt lat="45.26723" lon="7.495135"><ele>448.0</ele><time>2026-05-03T08:52:41.113Z</time></trkpt><trkpt lat="45.2673183" lon="7.49491"><ele>443.0</ele><time>2026-05-03T08:52:42.114Z</time></trkpt><trkpt lat="45.2673917" lon="7.4946733"><ele>445.66666666666663</ele><time>2026-05-03T08:52:43.115Z</time></trkpt><trkpt lat="45.2674633" lon="7.4944333"><ele>448.33333333333337</ele><time>2026-05-03T08:52:44.11Z</time></trkpt><trkpt lat="45.2675283" lon="7.4941917"><ele>451.0</ele><time>2026-05-03T08:52:45.114Z</time></trkpt><trkpt lat="45.267575" lon="7.4939383"><ele>451.6666666666667</ele><time>2026-05-03T08:52:46.111Z</time></trkpt><trkpt lat="45.2676067" lon="7.4936833"><ele>452.33333333333337</ele><time>2026-05-03T08:52:47.113Z</time></trkpt><trkpt lat="45.2676333" lon="7.4934367"><ele>453.0</ele><time>2026-05-03T08:52:48.113Z</time></trkpt><trkpt lat="45.2676533" lon="7.4932067"><ele>453.0</ele><time>2026-05-03T08:52:49.112Z</time></trkpt><trkpt lat="45.2676667" lon="7.4929683"><ele>453.0</ele><time>2026-05-03T08:52:50.113Z</time></trkpt><trkpt lat="45.2676767" lon="7.49271"><ele>453.0</ele><time>2026-05-03T08:52:51.118Z</time></trkpt><trkpt lat="45.2676883" lon="7.4924533"><ele>452.66666666666663</ele><time>2026-05-03T08:52:52.113Z</time></trkpt><trkpt lat="45.267705" lon="7.4922083"><ele>452.3333333333333</ele><time>2026-05-03T08:52:53.114Z</time></trkpt><trkpt lat="45.2677217" lon="7.49196"><ele>452.0</ele><time>2026-05-03T08:52:54.114Z</time></trkpt><trkpt lat="45.2677433" lon="7.4917317"><ele>451.66666666666663</ele><time>2026-05-03T08:52:55.118Z</time></trkpt><trkpt lat="45.2677733" lon="7.4915083"><ele>451.33333333333337</ele><time>2026-05-03T08:52:56.117Z</time></trkpt><trkpt lat="45.267815" lon="7.4912767"><ele>451.0</ele><time>2026-05-03T08:52:57.116Z</time></trkpt><trkpt lat="45.267865" lon="7.4910317"><ele>452.6666666666667</ele><time>2026-05-03T08:52:58.116Z</time></trkpt><trkpt lat="45.2679233" lon="7.490775"><ele>454.33333333333337</ele><time>2026-05-03T08:52:59.113Z</time></trkpt><trkpt lat="45.2679767" lon="7.4905217"><ele>456.0</ele><time>2026-05-03T08:53:00.115Z</time></trkpt><trkpt lat="45.26803" lon="7.4902617"><ele>457.66666666666663</ele><time>2026-05-03T08:53:01.114Z</time></trkpt><trkpt lat="45.2680533" lon="7.489995"><ele>459.3333333333333</ele><time>2026-05-03T08:53:02.114Z</time></trkpt><trkpt lat="45.2680567" lon="7.4897317"><ele>461.0</ele><time>2026-05-03T08:53:03.113Z</time></trkpt><trkpt lat="45.2680417" lon="7.4894633"><ele>463.3333333333333</ele><time>2026-05-03T08:53:04.115Z</time></trkpt><trkpt lat="45.2680183" lon="7.489195"><ele>465.66666666666663</ele><time>2026-05-03T08:53:05.115Z</time></trkpt><trkpt lat="45.2680017" lon="7.4889433"><ele>468.0</ele><time>2026-05-03T08:53:06.116Z</time></trkpt><trkpt lat="45.2679783" lon="7.4886917"><ele>470.0</ele><time>2026-05-03T08:53:07.113Z</time></trkpt><trkpt lat="45.267955" lon="7.48843"><ele>472.0</ele><time>2026-05-03T08:53:08.115Z</time></trkpt><trkpt lat="45.2679283" lon="7.4881633"><ele>474.0</ele><time>2026-05-03T08:53:09.114Z</time></trkpt><trkpt lat="45.26791" lon="7.4878883"><ele>477.0</ele><time>2026-05-03T08:53:10.113Z</time></trkpt><trkpt lat="45.2678983" lon="7.4876117"><ele>480.0</ele><time>2026-05-03T08:53:11.111Z</time></trkpt><trkpt lat="45.2678933" lon="7.48736"><ele>483.0</ele><time>2026-05-03T08:53:12.113Z</time></trkpt><trkpt lat="45.26789" lon="7.4871283"><ele>485.75</ele><time>2026-05-03T08:53:13.112Z</time></trkpt><trkpt lat="45.2678867" lon="7.4869133"><ele>488.5</ele><time>2026-05-03T08:53:14.118Z</time></trkpt><trkpt lat="45.2679" lon="7.4867133"><ele>491.25</ele><time>2026-05-03T08:53:15.112Z</time></trkpt><trkpt lat="45.2679267" lon="7.48653"><ele>494.0</ele><time>2026-05-03T08:53:16.112Z</time></trkpt><trkpt lat="45.2679783" lon="7.486355"><ele>494.5</ele><time>2026-05-03T08:53:17.11Z</time></trkpt><trkpt lat="45.2680733" lon="7.48621"><ele>495.0</ele><time>2026-05-03T08:53:18.113Z</time></trkpt><trkpt lat="45.26818" lon="7.4861"><ele>495.5</ele><time>2026-05-03T08:53:19.111Z</time></trkpt><trkpt lat="45.2683183" lon="7.486025"><ele>496.0</ele><time>2026-05-03T08:53:20.115Z</time></trkpt><trkpt lat="45.2684767" lon="7.4859717"><ele>485.5</ele><time>2026-05-03T08:53:21.115Z</time></trkpt><trkpt lat="45.2686267" lon="7.4859367"><ele>475.0</ele><time>2026-05-03T08:53:22.112Z</time></trkpt><trkpt lat="45.268765" lon="7.4859167"><ele>464.5</ele><time>2026-05-03T08:53:23.112Z</time></trkpt><trkpt lat="45.2689117" lon="7.485895"><ele>454.0</ele><time>2026-05-03T08:53:24.115Z</time></trkpt><trkpt lat="45.2690533" lon="7.485875"><ele>452.25</ele><time>2026-05-03T08:53:25.114Z</time></trkpt><trkpt lat="45.269195" lon="7.48585"><ele>450.5</ele><time>2026-05-03T08:53:26.116Z</time></trkpt><trkpt lat="45.2693483" lon="7.4858267"><ele>448.75</ele><time>2026-05-03T08:53:27.114Z</time></trkpt><trkpt lat="45.2694967" lon="7.4857983"><ele>447.0</ele><time>2026-05-03T08:53:28.112Z</time></trkpt><trkpt lat="45.2696533" lon="7.485765"><ele>450.66666666666663</ele><time>2026-05-03T08:53:29.117Z</time></trkpt><trkpt lat="45.26981" lon="7.4857317"><ele>454.3333333333333</ele><time>2026-05-03T08:53:30.112Z</time></trkpt><trkpt lat="45.26996" lon="7.485705"><ele>458.0</ele><time>2026-05-03T08:53:31.111Z</time></trkpt><trkpt lat="45.2701033" lon="7.4856817"><ele>458.0</ele><time>2026-05-03T08:53:32.113Z</time></trkpt><trkpt lat="45.2702433" lon="7.4856567"><ele>458.0</ele><time>2026-05-03T08:53:33.117Z</time></trkpt><trkpt lat="45.270365" lon="7.4856317"><ele>458.0</ele><time>2026-05-03T08:53:34.112Z</time></trkpt><trkpt lat="45.2704767" lon="7.4856083"><ele>458.0</ele><time>2026-05-03T08:53:35.113Z</time></trkpt><trkpt lat="45.2705783" lon="7.48559"><ele>458.3333333333333</ele><time>2026-05-03T08:53:36.112Z</time></trkpt><trkpt lat="45.270665" lon="7.4855733"><ele>458.66666666666663</ele><time>2026-05-03T08:53:37.115Z</time></trkpt><trkpt lat="45.2707417" lon="7.48556"><ele>459.0</ele><time>2026-05-03T08:53:38.113Z</time></trkpt><trkpt lat="45.27082" lon="7.485535"><ele>459.33333333333337</ele><time>2026-05-03T08:53:39.116Z</time></trkpt><trkpt lat="45.2708983" lon="7.48552"><ele>459.6666666666667</ele><time>2026-05-03T08:53:40.113Z</time></trkpt><trkpt lat="45.270995" lon="7.4855033"><ele>460.0</ele><time>2026-05-03T08:53:41.111Z</time></trkpt><trkpt lat="45.2710983" lon="7.485485"><ele>460.0</ele><time>2026-05-03T08:53:42.113Z</time></trkpt><trkpt lat="45.27118" lon="7.4854667"><ele>460.0</ele><time>2026-05-03T08:53:43.113Z</time></trkpt><trkpt lat="45.27125" lon="7.4854533"><ele>460.0</ele><time>2026-05-03T08:53:44.115Z</time></trkpt><trkpt lat="45.271375" lon="7.485425"><ele>460.0</ele><time>2026-05-03T08:53:46.111Z</time></trkpt><trkpt lat="45.2715" lon="7.4854067"><ele>460.0</ele><time>2026-05-03T08:53:48.113Z</time></trkpt><trkpt lat="45.2715667" lon="7.485405"><ele>460.71428571428567</ele><time>2026-05-03T08:53:49.112Z</time></trkpt><trkpt lat="45.2716433" lon="7.4854067"><ele>461.42857142857144</ele><time>2026-05-03T08:53:50.113Z</time></trkpt><trkpt lat="45.2717083" lon="7.4854217"><ele>462.1428571428571</ele><time>2026-05-03T08:53:51.115Z</time></trkpt><trkpt lat="45.2717833" lon="7.4854433"><ele>462.85714285714283</ele><time>2026-05-03T08:53:52.111Z</time></trkpt><trkpt lat="45.2718483" lon="7.4855017"><ele>463.57142857142856</ele><time>2026-05-03T08:53:53.11Z</time></trkpt><trkpt lat="45.2719033" lon="7.485555"><ele>464.2857142857143</ele><time>2026-05-03T08:53:54.111Z</time></trkpt><trkpt lat="45.271985" lon="7.485535"><ele>465.0</ele><time>2026-05-03T08:53:56.111Z</time></trkpt><trkpt lat="45.2720067" lon="7.4854033"><ele>465.0</ele><time>2026-05-03T08:53:58.111Z</time></trkpt><trkpt lat="45.2719483" lon="7.4852617"><ele>465.0</ele><time>2026-05-03T08:54:00.111Z</time></trkpt><trkpt lat="45.2719" lon="7.4851783"><ele>465.0</ele><time>2026-05-03T08:54:01.115Z</time></trkpt><trkpt lat="45.2718567" lon="7.4850667"><ele>465.0</ele><time>2026-05-03T08:54:02.11Z</time></trkpt><trkpt lat="45.2718217" lon="7.4849417"><ele>465.0</ele><time>2026-05-03T08:54:03.112Z</time></trkpt><trkpt lat="45.2717983" lon="7.4848067"><ele>465.0</ele><time>2026-05-03T08:54:04.111Z</time></trkpt><trkpt lat="45.271785" lon="7.484665"><ele>465.0</ele><time>2026-05-03T08:54:05.111Z</time></trkpt><trkpt lat="45.27177" lon="7.4845383"><ele>465.0</ele><time>2026-05-03T08:54:06.112Z</time></trkpt><trkpt lat="45.271755" lon="7.4844117"><ele>465.0</ele><time>2026-05-03T08:54:07.117Z</time></trkpt><trkpt lat="45.2717517" lon="7.4842817"><ele>465.0</ele><time>2026-05-03T08:54:08.114Z</time></trkpt><trkpt lat="45.27174" lon="7.4841383"><ele>465.2</ele><time>2026-05-03T08:54:09.115Z</time></trkpt><trkpt lat="45.271725" lon="7.4839883"><ele>465.4</ele><time>2026-05-03T08:54:10.116Z</time></trkpt><trkpt lat="45.2717117" lon="7.4838267"><ele>465.6</ele><time>2026-05-03T08:54:11.116Z</time></trkpt><trkpt lat="45.271695" lon="7.4836617"><ele>465.8</ele><time>2026-05-03T08:54:12.114Z</time></trkpt><trkpt lat="45.2716783" lon="7.4835083"><ele>466.0</ele><time>2026-05-03T08:54:13.114Z</time></trkpt><trkpt lat="45.27166" lon="7.4833517"><ele>465.4</ele><time>2026-05-03T08:54:14.112Z</time></trkpt><trkpt lat="45.2716383" lon="7.483195"><ele>464.8</ele><time>2026-05-03T08:54:15.113Z</time></trkpt><trkpt lat="45.271615" lon="7.4830417"><ele>464.19999999999993</ele><time>2026-05-03T08:54:16.114Z</time></trkpt><trkpt lat="45.2715933" lon="7.4828983"><ele>463.59999999999997</ele><time>2026-05-03T08:54:17.113Z</time></trkpt><trkpt lat="45.271565" lon="7.48276"><ele>463.0</ele><time>2026-05-03T08:54:18.114Z</time></trkpt><trkpt lat="45.2715433" lon="7.4826433"><ele>462.6666666666667</ele><time>2026-05-03T08:54:19.113Z</time></trkpt><trkpt lat="45.2715233" lon="7.4825383"><ele>462.33333333333337</ele><time>2026-05-03T08:54:20.112Z</time></trkpt><trkpt lat="45.2714867" lon="7.482405"><ele>462.0</ele><time>2026-05-03T08:54:22.114Z</time></trkpt><trkpt lat="45.2714583" lon="7.4823167"><ele>461.66666666666663</ele><time>2026-05-03T08:54:26.109Z</time></trkpt><trkpt lat="45.2714267" lon="7.4822383"><ele>461.3333333333333</ele><time>2026-05-03T08:54:28.109Z</time></trkpt><trkpt lat="45.271395" lon="7.4821533"><ele>461.0</ele><time>2026-05-03T08:54:30.109Z</time></trkpt><trkpt lat="45.271355" lon="7.4820433"><ele>466.6</ele><time>2026-05-03T08:54:32.107Z</time></trkpt><trkpt lat="45.2713333" lon="7.481925"><ele>472.20000000000005</ele><time>2026-05-03T08:54:34.11Z</time></trkpt><trkpt lat="45.27135" lon="7.4817783"><ele>477.79999999999995</ele><time>2026-05-03T08:54:36.109Z</time></trkpt><trkpt lat="45.2713517" lon="7.4816167"><ele>483.4</ele><time>2026-05-03T08:54:38.113Z</time></trkpt><trkpt lat="45.2712917" lon="7.4814667"><ele>489.0</ele><time>2026-05-03T08:54:40.111Z</time></trkpt><trkpt lat="45.2712367" lon="7.481405"><ele>489.0</ele><time>2026-05-03T08:54:41.11Z</time></trkpt><trkpt lat="45.2711983" lon="7.4813267"><ele>489.00000000000006</ele><time>2026-05-03T08:54:42.113Z</time></trkpt><trkpt lat="45.2711533" lon="7.4812367"><ele>489.0</ele><time>2026-05-03T08:54:43.11Z</time></trkpt><trkpt lat="45.271105" lon="7.48115"><ele>489.0</ele><time>2026-05-03T08:54:44.107Z</time></trkpt><trkpt lat="45.2710633" lon="7.481065"><ele>489.00000000000006</ele><time>2026-05-03T08:54:45.111Z</time></trkpt><trkpt lat="45.2710217" lon="7.4809817"><ele>489.0</ele><time>2026-05-03T08:54:46.107Z</time></trkpt><trkpt lat="45.27098" lon="7.4808967"><ele>489.0</ele><time>2026-05-03T08:54:47.106Z</time></trkpt><trkpt lat="45.2700367" lon="7.4775817"><ele>486.0</ele><time>2026-05-03T08:55:06.113Z</time></trkpt><trkpt lat="45.2699567" lon="7.4775417"><ele>483.0</ele><time>2026-05-03T08:55:07.112Z</time></trkpt><trkpt lat="45.26981" lon="7.477415"><ele>480.0</ele><time>2026-05-03T08:55:08.113Z</time></trkpt><trkpt lat="45.2696617" lon="7.4773333"><ele>477.0</ele><time>2026-05-03T08:55:09.112Z</time></trkpt><trkpt lat="45.269515" lon="7.4772667"><ele>475.0</ele><time>2026-05-03T08:55:10.112Z</time></trkpt><trkpt lat="45.2693733" lon="7.4772633"><ele>473.0</ele><time>2026-05-03T08:55:11.112Z</time></trkpt><trkpt lat="45.2692467" lon="7.4772233"><ele>471.0</ele><time>2026-05-03T08:55:12.116Z</time></trkpt><trkpt lat="45.2691167" lon="7.4771733"><ele>469.0</ele><time>2026-05-03T08:55:13.113Z</time></trkpt><trkpt lat="45.26901" lon="7.4771433"><ele>471.0</ele><time>2026-05-03T08:55:14.111Z</time></trkpt><trkpt lat="45.26891" lon="7.4770933"><ele>473.0</ele><time>2026-05-03T08:55:15.112Z</time></trkpt><trkpt lat="45.2688017" lon="7.477035"><ele>475.0</ele><time>2026-05-03T08:55:16.114Z</time></trkpt><trkpt lat="45.268695" lon="7.4769567"><ele>477.0</ele><time>2026-05-03T08:55:17.109Z</time></trkpt><trkpt lat="45.268595" lon="7.476875"><ele>477.0</ele><time>2026-05-03T08:55:18.111Z</time></trkpt><trkpt lat="45.2684883" lon="7.476785"><ele>477.0</ele><time>2026-05-03T08:55:19.111Z</time></trkpt><trkpt lat="45.26835" lon="7.4766233"><ele>477.0</ele><time>2026-05-03T08:55:20.112Z</time></trkpt><trkpt lat="45.2682283" lon="7.4764817"><ele>475.33333333333337</ele><time>2026-05-03T08:55:21.114Z</time></trkpt><trkpt lat="45.2680967" lon="7.4763017"><ele>473.6666666666667</ele><time>2026-05-03T08:55:22.117Z</time></trkpt><trkpt lat="45.2679633" lon="7.4761267"><ele>472.0</ele><time>2026-05-03T08:55:23.112Z</time></trkpt><trkpt lat="45.2678417" lon="7.4759667"><ele>472.0</ele><time>2026-05-03T08:55:24.111Z</time></trkpt><trkpt lat="45.26772" lon="7.4758017"><ele>472.0</ele><time>2026-05-03T08:55:25.111Z</time></trkpt><trkpt lat="45.267605" lon="7.4756367"><ele>472.0</ele><time>2026-05-03T08:55:26.112Z</time></trkpt><trkpt lat="45.2675" lon="7.47549"><ele>472.0</ele><time>2026-05-03T08:55:27.112Z</time></trkpt><trkpt lat="45.2674017" lon="7.4753517"><ele>472.0</ele><time>2026-05-03T08:55:28.111Z</time></trkpt><trkpt lat="45.2673033" lon="7.4752217"><ele>472.0</ele><time>2026-05-03T08:55:29.115Z</time></trkpt><trkpt lat="45.2672117" lon="7.4751017"><ele>472.0</ele><time>2026-05-03T08:55:30.112Z</time></trkpt><trkpt lat="45.2671183" lon="7.4749767"><ele>472.0</ele><time>2026-05-03T08:55:31.111Z</time></trkpt><trkpt lat="45.2670267" lon="7.4748517"><ele>472.0</ele><time>2026-05-03T08:55:32.11Z</time></trkpt><trkpt lat="45.266935" lon="7.4747267"><ele>472.0</ele><time>2026-05-03T08:55:33.112Z</time></trkpt><trkpt lat="45.2668383" lon="7.474585"><ele>472.0</ele><time>2026-05-03T08:55:34.114Z</time></trkpt><trkpt lat="45.26675" lon="7.474465"><ele>473.0</ele><time>2026-05-03T08:55:35.11Z</time></trkpt><trkpt lat="45.2666633" lon="7.4743483"><ele>474.0</ele><time>2026-05-03T08:55:36.114Z</time></trkpt><trkpt lat="45.2665733" lon="7.47423"><ele>475.0</ele><time>2026-05-03T08:55:37.112Z</time></trkpt><trkpt lat="45.2664833" lon="7.4741133"><ele>476.0</ele><time>2026-05-03T08:55:38.11Z</time></trkpt><trkpt lat="45.2663983" lon="7.4740017"><ele>476.0</ele><time>2026-05-03T08:55:39.114Z</time></trkpt><trkpt lat="45.2663133" lon="7.47389"><ele>476.0</ele><time>2026-05-03T08:55:40.112Z</time></trkpt><trkpt lat="45.2662317" lon="7.4737867"><ele>476.0</ele><time>2026-05-03T08:55:41.112Z</time></trkpt><trkpt lat="45.2661483" lon="7.473685"><ele>476.0</ele><time>2026-05-03T08:55:42.114Z</time></trkpt><trkpt lat="45.2660583" lon="7.4735783"><ele>477.0</ele><time>2026-05-03T08:55:43.117Z</time></trkpt><trkpt lat="45.26596" lon="7.4734533"><ele>478.0</ele><time>2026-05-03T08:55:44.114Z</time></trkpt><trkpt lat="45.2658433" lon="7.47331"><ele>479.0</ele><time>2026-05-03T08:55:45.112Z</time></trkpt><trkpt lat="45.2657117" lon="7.4731433"><ele>478.66666666666663</ele><time>2026-05-03T08:55:46.115Z</time></trkpt><trkpt lat="45.2655733" lon="7.47298"><ele>478.33333333333337</ele><time>2026-05-03T08:55:47.109Z</time></trkpt><trkpt lat="45.2654467" lon="7.4728183"><ele>478.0</ele><time>2026-05-03T08:55:48.115Z</time></trkpt><trkpt lat="45.26533" lon="7.472665"><ele>479.0</ele><time>2026-05-03T08:55:49.112Z</time></trkpt><trkpt lat="45.2652233" lon="7.4725183"><ele>480.0</ele><time>2026-05-03T08:55:50.113Z</time></trkpt><trkpt lat="45.26512" lon="7.4723783"><ele>481.0</ele><time>2026-05-03T08:55:51.112Z</time></trkpt><trkpt lat="45.2650167" lon="7.4722367"><ele>482.0</ele><time>2026-05-03T08:55:52.112Z</time></trkpt><trkpt lat="45.2649033" lon="7.4720983"><ele>482.3333333333333</ele><time>2026-05-03T08:55:53.113Z</time></trkpt><trkpt lat="45.2647817" lon="7.4719567"><ele>482.66666666666663</ele><time>2026-05-03T08:55:54.116Z</time></trkpt><trkpt lat="45.2646533" lon="7.4718017"><ele>483.0</ele><time>2026-05-03T08:55:55.111Z</time></trkpt><trkpt lat="45.2645217" lon="7.4716367"><ele>483.0</ele><time>2026-05-03T08:55:56.113Z</time></trkpt><trkpt lat="45.2643917" lon="7.4714717"><ele>483.0</ele><time>2026-05-03T08:55:57.112Z</time></trkpt><trkpt lat="45.264265" lon="7.4713"><ele>483.0</ele><time>2026-05-03T08:55:58.112Z</time></trkpt><trkpt lat="45.264145" lon="7.4711417"><ele>483.0</ele><time>2026-05-03T08:55:59.112Z</time></trkpt><trkpt lat="45.26403" lon="7.47099"><ele>483.0</ele><time>2026-05-03T08:56:00.113Z</time></trkpt><trkpt lat="45.2639183" lon="7.4708483"><ele>483.0</ele><time>2026-05-03T08:56:01.114Z</time></trkpt><trkpt lat="45.2638133" lon="7.4707167"><ele>483.0</ele><time>2026-05-03T08:56:02.114Z</time></trkpt><trkpt lat="45.2637067" lon="7.4705833"><ele>483.33333333333337</ele><time>2026-05-03T08:56:03.112Z</time></trkpt><trkpt lat="45.2635883" lon="7.47044"><ele>483.6666666666667</ele><time>2026-05-03T08:56:04.113Z</time></trkpt><trkpt lat="45.26347" lon="7.4702983"><ele>484.0</ele><time>2026-05-03T08:56:05.113Z</time></trkpt><trkpt lat="45.2633367" lon="7.4701317"><ele>484.0</ele><time>2026-05-03T08:56:06.112Z</time></trkpt><trkpt lat="45.2632133" lon="7.4699667"><ele>484.0</ele><time>2026-05-03T08:56:07.11Z</time></trkpt><trkpt lat="45.2630933" lon="7.4698067"><ele>484.0</ele><time>2026-05-03T08:56:08.11Z</time></trkpt><trkpt lat="45.262975" lon="7.46965"><ele>483.6666666666667</ele><time>2026-05-03T08:56:09.11Z</time></trkpt><trkpt lat="45.2628567" lon="7.4694867"><ele>483.33333333333337</ele><time>2026-05-03T08:56:10.115Z</time></trkpt><trkpt lat="45.26274" lon="7.4693283"><ele>483.0</ele><time>2026-05-03T08:56:11.113Z</time></trkpt><trkpt lat="45.262625" lon="7.4691733"><ele>483.0</ele><time>2026-05-03T08:56:12.116Z</time></trkpt><trkpt lat="45.2625117" lon="7.469025"><ele>483.0</ele><time>2026-05-03T08:56:13.114Z</time></trkpt><trkpt lat="45.262405" lon="7.4688867"><ele>483.0</ele><time>2026-05-03T08:56:14.114Z</time></trkpt><trkpt lat="45.2622983" lon="7.4687467"><ele>483.0</ele><time>2026-05-03T08:56:15.111Z</time></trkpt><trkpt lat="45.2621883" lon="7.4686017"><ele>483.33333333333337</ele><time>2026-05-03T08:56:16.112Z</time></trkpt><trkpt lat="45.262075" lon="7.4684617"><ele>483.6666666666667</ele><time>2026-05-03T08:56:17.11Z</time></trkpt><trkpt lat="45.2619567" lon="7.46832"><ele>484.0</ele><time>2026-05-03T08:56:18.112Z</time></trkpt><trkpt lat="45.2618467" lon="7.4681783"><ele>484.0</ele><time>2026-05-03T08:56:19.115Z</time></trkpt><trkpt lat="45.2617383" lon="7.468035"><ele>484.0</ele><time>2026-05-03T08:56:20.117Z</time></trkpt><trkpt lat="45.2616383" lon="7.4679"><ele>484.0</ele><time>2026-05-03T08:56:21.121Z</time></trkpt><trkpt lat="45.2615367" lon="7.4677717"><ele>484.0</ele><time>2026-05-03T08:56:22.114Z</time></trkpt><trkpt lat="45.2614417" lon="7.467645"><ele>484.5</ele><time>2026-05-03T08:56:23.116Z</time></trkpt><trkpt lat="45.26134" lon="7.4675233"><ele>485.0</ele><time>2026-05-03T08:56:24.112Z</time></trkpt><trkpt lat="45.261235" lon="7.4673917"><ele>485.5</ele><time>2026-05-03T08:56:25.116Z</time></trkpt><trkpt lat="45.2611333" lon="7.4672583"><ele>486.0</ele><time>2026-05-03T08:56:26.12Z</time></trkpt><trkpt lat="45.2610317" lon="7.4671317"><ele>486.25</ele><time>2026-05-03T08:56:27.12Z</time></trkpt><trkpt lat="45.2609283" lon="7.46701"><ele>486.5</ele><time>2026-05-03T08:56:28.119Z</time></trkpt><trkpt lat="45.2608333" lon="7.4668933"><ele>486.75</ele><time>2026-05-03T08:56:29.114Z</time></trkpt><trkpt lat="45.2607433" lon="7.466785"><ele>487.0</ele><time>2026-05-03T08:56:30.114Z</time></trkpt><trkpt lat="45.260665" lon="7.466685"><ele>486.20000000000005</ele><time>2026-05-03T08:56:31.115Z</time></trkpt><trkpt lat="45.2606" lon="7.4665883"><ele>485.40000000000003</ele><time>2026-05-03T08:56:32.111Z</time></trkpt><trkpt lat="45.260535" lon="7.4664933"><ele>484.59999999999997</ele><time>2026-05-03T08:56:33.115Z</time></trkpt><trkpt lat="45.260495" lon="7.4663767"><ele>483.79999999999995</ele><time>2026-05-03T08:56:34.111Z</time></trkpt><trkpt lat="45.260465" lon="7.4662567"><ele>483.0</ele><time>2026-05-03T08:56:35.112Z</time></trkpt><trkpt lat="45.260445" lon="7.4661333"><ele>483.0</ele><time>2026-05-03T08:56:36.114Z</time></trkpt><trkpt lat="45.260435" lon="7.4659917"><ele>482.99999999999994</ele><time>2026-05-03T08:56:37.113Z</time></trkpt><trkpt lat="45.2604517" lon="7.4658633"><ele>482.99999999999994</ele><time>2026-05-03T08:56:38.11Z</time></trkpt><trkpt lat="45.2604717" lon="7.46573"><ele>483.0</ele><time>2026-05-03T08:56:39.113Z</time></trkpt><trkpt lat="45.2605167" lon="7.46559"><ele>483.0</ele><time>2026-05-03T08:56:40.113Z</time></trkpt><trkpt lat="45.2605517" lon="7.4654683"><ele>483.6666666666667</ele><time>2026-05-03T08:56:41.113Z</time></trkpt><trkpt lat="45.2605867" lon="7.4653517"><ele>484.33333333333337</ele><time>2026-05-03T08:56:42.116Z</time></trkpt><trkpt lat="45.260595" lon="7.4652417"><ele>485.0</ele><time>2026-05-03T08:56:43.111Z</time></trkpt><trkpt lat="45.2606067" lon="7.46514"><ele>485.6666666666667</ele><time>2026-05-03T08:56:44.115Z</time></trkpt><trkpt lat="45.2606133" lon="7.4650333"><ele>486.33333333333337</ele><time>2026-05-03T08:56:45.11Z</time></trkpt><trkpt lat="45.26059" lon="7.4649333"><ele>487.0</ele><time>2026-05-03T08:56:46.113Z</time></trkpt><trkpt lat="45.260575" lon="7.4648067"><ele>487.0</ele><time>2026-05-03T08:56:47.111Z</time></trkpt><trkpt lat="45.2605983" lon="7.46465"><ele>487.0</ele><time>2026-05-03T08:56:48.115Z</time></trkpt><trkpt lat="45.2606" lon="7.4644267"><ele>487.0</ele><time>2026-05-03T08:56:49.114Z</time></trkpt><trkpt lat="45.2606083" lon="7.4642017"><ele>487.0</ele><time>2026-05-03T08:56:50.113Z</time></trkpt><trkpt lat="45.26063" lon="7.4639267"><ele>490.6666666666667</ele><time>2026-05-03T08:56:51.115Z</time></trkpt><trkpt lat="45.26064" lon="7.46366"><ele>494.33333333333337</ele><time>2026-05-03T08:56:52.113Z</time></trkpt><trkpt lat="45.26065" lon="7.4633883"><ele>498.0</ele><time>2026-05-03T08:56:53.114Z</time></trkpt><trkpt lat="45.26066" lon="7.4631167"><ele>498.66666666666663</ele><time>2026-05-03T08:56:54.116Z</time></trkpt><trkpt lat="45.260665" lon="7.4628017"><ele>499.3333333333333</ele><time>2026-05-03T08:56:55.111Z</time></trkpt><trkpt lat="45.2606717" lon="7.4625033"><ele>500.0</ele><time>2026-05-03T08:56:56.113Z</time></trkpt><trkpt lat="45.26068" lon="7.462215"><ele>500.3333333333333</ele><time>2026-05-03T08:56:57.114Z</time></trkpt><trkpt lat="45.260695" lon="7.4619517"><ele>500.66666666666663</ele><time>2026-05-03T08:56:58.116Z</time></trkpt><trkpt lat="45.2607133" lon="7.4617033"><ele>501.0</ele><time>2026-05-03T08:56:59.115Z</time></trkpt><trkpt lat="45.260735" lon="7.4614717"><ele>499.0</ele><time>2026-05-03T08:57:00.123Z</time></trkpt><trkpt lat="45.2607583" lon="7.4612667"><ele>497.0</ele><time>2026-05-03T08:57:01.112Z</time></trkpt><trkpt lat="45.2607833" lon="7.4611017"><ele>495.0</ele><time>2026-05-03T08:57:02.114Z</time></trkpt><trkpt lat="45.2607933" lon="7.460945"><ele>493.0</ele><time>2026-05-03T08:57:03.111Z</time></trkpt><trkpt lat="45.2608033" lon="7.460785"><ele>493.0</ele><time>2026-05-03T08:57:04.117Z</time></trkpt><trkpt lat="45.2608217" lon="7.4606367"><ele>492.99999999999994</ele><time>2026-05-03T08:57:05.112Z</time></trkpt><trkpt lat="45.260855" lon="7.460495"><ele>492.99999999999994</ele><time>2026-05-03T08:57:06.113Z</time></trkpt><trkpt lat="45.260905" lon="7.4603483"><ele>493.0</ele><time>2026-05-03T08:57:07.111Z</time></trkpt><trkpt lat="45.2609783" lon="7.4602183"><ele>493.0</ele><time>2026-05-03T08:57:08.112Z</time></trkpt><trkpt lat="45.2610617" lon="7.4601133"><ele>491.4</ele><time>2026-05-03T08:57:09.113Z</time></trkpt><trkpt lat="45.2611367" lon="7.46003"><ele>489.79999999999995</ele><time>2026-05-03T08:57:10.118Z</time></trkpt><trkpt lat="45.2612083" lon="7.4599633"><ele>488.2</ele><time>2026-05-03T08:57:11.114Z</time></trkpt><trkpt lat="45.2612667" lon="7.45989"><ele>486.6</ele><time>2026-05-03T08:57:12.116Z</time></trkpt><trkpt lat="45.2613217" lon="7.4597583"><ele>485.0</ele><time>2026-05-03T08:57:14.113Z</time></trkpt><trkpt lat="45.2612817" lon="7.459575"><ele>485.0</ele><time>2026-05-03T08:57:16.112Z</time></trkpt><trkpt lat="45.2612217" lon="7.459405"><ele>485.0</ele><time>2026-05-03T08:57:17.113Z</time></trkpt><trkpt lat="45.26117" lon="7.4592367"><ele>485.0</ele><time>2026-05-03T08:57:18.114Z</time></trkpt><trkpt lat="45.2611083" lon="7.4590583"><ele>485.0</ele><time>2026-05-03T08:57:19.114Z</time></trkpt><trkpt lat="45.26105" lon="7.4588833"><ele>488.0</ele><time>2026-05-03T08:57:20.115Z</time></trkpt><trkpt lat="45.2609983" lon="7.4587033"><ele>491.0</ele><time>2026-05-03T08:57:21.115Z</time></trkpt><trkpt lat="45.2609767" lon="7.458525"><ele>494.0</ele><time>2026-05-03T08:57:22.112Z</time></trkpt><trkpt lat="45.26098" lon="7.4583567"><ele>497.0</ele><time>2026-05-03T08:57:23.111Z</time></trkpt><trkpt lat="45.2609883" lon="7.4581767"><ele>497.0</ele><time>2026-05-03T08:57:24.112Z</time></trkpt><trkpt lat="45.2609767" lon="7.4580017"><ele>497.00000000000006</ele><time>2026-05-03T08:57:25.114Z</time></trkpt><trkpt lat="45.2609483" lon="7.4578567"><ele>497.00000000000006</ele><time>2026-05-03T08:57:26.114Z</time></trkpt><trkpt lat="45.26091" lon="7.4577167"><ele>497.0</ele><time>2026-05-03T08:57:27.114Z</time></trkpt><trkpt lat="45.2608717" lon="7.457585"><ele>497.0</ele><time>2026-05-03T08:57:28.118Z</time></trkpt><trkpt lat="45.2608383" lon="7.4574717"><ele>499.0</ele><time>2026-05-03T08:57:29.113Z</time></trkpt><trkpt lat="45.2608083" lon="7.4573783"><ele>501.00000000000006</ele><time>2026-05-03T08:57:30.115Z</time></trkpt><trkpt lat="45.2607867" lon="7.4572517"><ele>503.00000000000006</ele><time>2026-05-03T08:57:31.112Z</time></trkpt><trkpt lat="45.26077" lon="7.4571283"><ele>505.0</ele><time>2026-05-03T08:57:32.112Z</time></trkpt><trkpt lat="45.26077" lon="7.456985"><ele>507.0</ele><time>2026-05-03T08:57:33.115Z</time></trkpt><trkpt lat="45.260765" lon="7.4568167"><ele>509.40000000000003</ele><time>2026-05-03T08:57:34.111Z</time></trkpt><trkpt lat="45.260755" lon="7.456655"><ele>511.80000000000007</ele><time>2026-05-03T08:57:35.111Z</time></trkpt><trkpt lat="45.260725" lon="7.4565183"><ele>514.2</ele><time>2026-05-03T08:57:36.11Z</time></trkpt><trkpt lat="45.2606983" lon="7.4564017"><ele>516.6</ele><time>2026-05-03T08:57:37.109Z</time></trkpt><trkpt lat="45.2606617" lon="7.4562833"><ele>519.0</ele><time>2026-05-03T08:57:38.111Z</time></trkpt><trkpt lat="45.2606233" lon="7.456195"><ele>521.4</ele><time>2026-05-03T08:57:39.115Z</time></trkpt><trkpt lat="45.26054" lon="7.45607"><ele>523.8</ele><time>2026-05-03T08:57:41.114Z</time></trkpt><trkpt lat="45.260495" lon="7.456005"><ele>526.2</ele><time>2026-05-03T08:57:42.111Z</time></trkpt><trkpt lat="45.2604267" lon="7.45586"><ele>528.6</ele><time>2026-05-03T08:57:44.115Z</time></trkpt><trkpt lat="45.260425" lon="7.455735"><ele>531.0</ele><time>2026-05-03T08:57:46.115Z</time></trkpt><trkpt lat="45.2604983" lon="7.4557567"><ele>531.0</ele><time>2026-05-03T08:57:48.114Z</time></trkpt><trkpt lat="45.260575" lon="7.455825"><ele>531.0</ele><time>2026-05-03T08:57:50.115Z</time></trkpt><trkpt lat="45.2607083" lon="7.4561217"><ele>531.0</ele><time>2026-05-03T08:57:51.111Z</time></trkpt><trkpt lat="45.260795" lon="7.4563033"><ele>528.0</ele><time>2026-05-03T08:57:52.11Z</time></trkpt><trkpt lat="45.2608683" lon="7.456495"><ele>525.0</ele><time>2026-05-03T08:57:53.116Z</time></trkpt><trkpt lat="45.2609433" lon="7.4566683"><ele>522.0</ele><time>2026-05-03T08:57:54.116Z</time></trkpt><trkpt lat="45.2610083" lon="7.4568317"><ele>519.0</ele><time>2026-05-03T08:57:55.114Z</time></trkpt><trkpt lat="45.2610617" lon="7.4570233"><ele>516.6</ele><time>2026-05-03T08:57:56.115Z</time></trkpt><trkpt lat="45.2611017" lon="7.4572017"><ele>514.2</ele><time>2026-05-03T08:57:57.114Z</time></trkpt><trkpt lat="45.2611467" lon="7.4573333"><ele>511.80000000000007</ele><time>2026-05-03T08:57:58.115Z</time></trkpt><trkpt lat="45.2612033" lon="7.457435"><ele>509.40000000000003</ele><time>2026-05-03T08:57:59.112Z</time></trkpt><trkpt lat="45.2612667" lon="7.4575267"><ele>507.0</ele><time>2026-05-03T08:58:00.113Z</time></trkpt><trkpt lat="45.2613483" lon="7.4576167"><ele>507.0</ele><time>2026-05-03T08:58:01.113Z</time></trkpt><trkpt lat="45.2614383" lon="7.4576767"><ele>507.00000000000006</ele><time>2026-05-03T08:58:02.112Z</time></trkpt><trkpt lat="45.261555" lon="7.4576433"><ele>507.00000000000006</ele><time>2026-05-03T08:58:03.112Z</time></trkpt><trkpt lat="45.2616633" lon="7.4575983"><ele>507.0</ele><time>2026-05-03T08:58:04.115Z</time></trkpt><trkpt lat="45.26177" lon="7.45755"><ele>507.0</ele><time>2026-05-03T08:58:05.113Z</time></trkpt><trkpt lat="45.261875" lon="7.45749"><ele>508.20000000000005</ele><time>2026-05-03T08:58:06.116Z</time></trkpt><trkpt lat="45.2619617" lon="7.4574067"><ele>509.40000000000003</ele><time>2026-05-03T08:58:07.118Z</time></trkpt><trkpt lat="45.262035" lon="7.4573033"><ele>510.59999999999997</ele><time>2026-05-03T08:58:08.115Z</time></trkpt><trkpt lat="45.2620933" lon="7.45718"><ele>511.79999999999995</ele><time>2026-05-03T08:58:09.113Z</time></trkpt><trkpt lat="45.262145" lon="7.4570583"><ele>513.0</ele><time>2026-05-03T08:58:10.114Z</time></trkpt><trkpt lat="45.2622083" lon="7.4569467"><ele>514.0</ele><time>2026-05-03T08:58:11.111Z</time></trkpt><trkpt lat="45.2622883" lon="7.456845"><ele>515.0</ele><time>2026-05-03T08:58:12.116Z</time></trkpt><trkpt lat="45.262375" lon="7.4568"><ele>516.0</ele><time>2026-05-03T08:58:13.114Z</time></trkpt><trkpt lat="45.2624833" lon="7.45676"><ele>517.0</ele><time>2026-05-03T08:58:14.112Z</time></trkpt><trkpt lat="45.2626117" lon="7.4566933"><ele>518.0</ele><time>2026-05-03T08:58:15.112Z</time></trkpt><trkpt lat="45.2627083" lon="7.4565967"><ele>518.0</ele><time>2026-05-03T08:58:16.112Z</time></trkpt><trkpt lat="45.262785" lon="7.4564833"><ele>518.0</ele><time>2026-05-03T08:58:17.111Z</time></trkpt><trkpt lat="45.2628517" lon="7.45635"><ele>518.0</ele><time>2026-05-03T08:58:18.115Z</time></trkpt><trkpt lat="45.2629017" lon="7.4561867"><ele>518.0</ele><time>2026-05-03T08:58:19.114Z</time></trkpt><trkpt lat="45.2629433" lon="7.456015"><ele>519.75</ele><time>2026-05-03T08:58:20.114Z</time></trkpt><trkpt lat="45.2629883" lon="7.4558617"><ele>521.5</ele><time>2026-05-03T08:58:21.118Z</time></trkpt><trkpt lat="45.26304" lon="7.455695"><ele>523.25</ele><time>2026-05-03T08:58:22.114Z</time></trkpt><trkpt lat="45.2630917" lon="7.4555267"><ele>525.0</ele><time>2026-05-03T08:58:23.113Z</time></trkpt><trkpt lat="45.2631467" lon="7.4553567"><ele>525.0</ele><time>2026-05-03T08:58:24.115Z</time></trkpt><trkpt lat="45.2632033" lon="7.4551967"><ele>525.0</ele><time>2026-05-03T08:58:25.113Z</time></trkpt><trkpt lat="45.2632517" lon="7.4550517"><ele>525.0</ele><time>2026-05-03T08:58:26.113Z</time></trkpt><trkpt lat="45.2633117" lon="7.45492"><ele>525.0</ele><time>2026-05-03T08:58:27.112Z</time></trkpt><trkpt lat="45.26337" lon="7.4547967"><ele>525.0</ele><time>2026-05-03T08:58:28.113Z</time></trkpt><trkpt lat="45.2634467" lon="7.454705"><ele>525.0</ele><time>2026-05-03T08:58:29.113Z</time></trkpt><trkpt lat="45.2635417" lon="7.4546233"><ele>525.0</ele><time>2026-05-03T08:58:30.115Z</time></trkpt><trkpt lat="45.2636267" lon="7.4545067"><ele>525.0</ele><time>2026-05-03T08:58:31.111Z</time></trkpt><trkpt lat="45.263725" lon="7.4543967"><ele>526.0</ele><time>2026-05-03T08:58:32.112Z</time></trkpt><trkpt lat="45.2638133" lon="7.454265"><ele>527.0</ele><time>2026-05-03T08:58:33.116Z</time></trkpt><trkpt lat="45.2638883" lon="7.4541283"><ele>528.0</ele><time>2026-05-03T08:58:34.113Z</time></trkpt><trkpt lat="45.2639467" lon="7.4539667"><ele>529.0</ele><time>2026-05-03T08:58:35.11Z</time></trkpt><trkpt lat="45.264" lon="7.453805"><ele>530.25</ele><time>2026-05-03T08:58:36.112Z</time></trkpt><trkpt lat="45.2640367" lon="7.4536317"><ele>531.5</ele><time>2026-05-03T08:58:37.11Z</time></trkpt><trkpt lat="45.2640833" lon="7.45346"><ele>532.75</ele><time>2026-05-03T08:58:38.111Z</time></trkpt><trkpt lat="45.2641317" lon="7.4532983"><ele>534.0</ele><time>2026-05-03T08:58:39.112Z</time></trkpt><trkpt lat="45.2641883" lon="7.4531617"><ele>534.0</ele><time>2026-05-03T08:58:40.112Z</time></trkpt><trkpt lat="45.2642417" lon="7.4530533"><ele>534.0</ele><time>2026-05-03T08:58:41.113Z</time></trkpt><trkpt lat="45.2642833" lon="7.452975"><ele>534.0</ele><time>2026-05-03T08:58:42.112Z</time></trkpt><trkpt lat="45.2643933" lon="7.45292"><ele>534.0</ele><time>2026-05-03T08:58:44.11Z</time></trkpt><trkpt lat="45.264545" lon="7.4529617"><ele>534.0</ele><time>2026-05-03T08:58:46.112Z</time></trkpt><trkpt lat="45.26465" lon="7.45298"><ele>534.0</ele><time>2026-05-03T08:58:47.111Z</time></trkpt><trkpt lat="45.264765" lon="7.4529933"><ele>534.0</ele><time>2026-05-03T08:58:48.11Z</time></trkpt><trkpt lat="45.2648867" lon="7.45299"><ele>534.0</ele><time>2026-05-03T08:58:49.116Z</time></trkpt><trkpt lat="45.2650117" lon="7.4529717"><ele>534.0</ele><time>2026-05-03T08:58:50.113Z</time></trkpt><trkpt lat="45.2651383" lon="7.4529233"><ele>535.5</ele><time>2026-05-03T08:58:51.114Z</time></trkpt><trkpt lat="45.26526" lon="7.4528633"><ele>537.0</ele><time>2026-05-03T08:58:52.113Z</time></trkpt><trkpt lat="45.2653733" lon="7.4527883"><ele>538.5</ele><time>2026-05-03T08:58:53.116Z</time></trkpt><trkpt lat="45.2654767" lon="7.4526833"><ele>540.0</ele><time>2026-05-03T08:58:54.117Z</time></trkpt><trkpt lat="45.2655683" lon="7.45256"><ele>540.75</ele><time>2026-05-03T08:58:55.114Z</time></trkpt><trkpt lat="45.2656483" lon="7.4524283"><ele>541.5</ele><time>2026-05-03T08:58:56.115Z</time></trkpt><trkpt lat="45.26573" lon="7.4522983"><ele>542.25</ele><time>2026-05-03T08:58:57.116Z</time></trkpt><trkpt lat="45.2658233" lon="7.4521833"><ele>543.0</ele><time>2026-05-03T08:58:58.113Z</time></trkpt><trkpt lat="45.2659233" lon="7.45206"><ele>543.0</ele><time>2026-05-03T08:58:59.111Z</time></trkpt><trkpt lat="45.2660133" lon="7.4519267"><ele>543.0</ele><time>2026-05-03T08:59:00.113Z</time></trkpt><trkpt lat="45.26609" lon="7.4517767"><ele>543.0</ele><time>2026-05-03T08:59:01.115Z</time></trkpt><trkpt lat="45.2661583" lon="7.4516033"><ele>543.0</ele><time>2026-05-03T08:59:02.113Z</time></trkpt><trkpt lat="45.2662317" lon="7.4514267"><ele>542.5</ele><time>2026-05-03T08:59:03.117Z</time></trkpt><trkpt lat="45.2663183" lon="7.4512533"><ele>542.0</ele><time>2026-05-03T08:59:04.116Z</time></trkpt><trkpt lat="45.2664067" lon="7.4511"><ele>541.5</ele><time>2026-05-03T08:59:05.114Z</time></trkpt><trkpt lat="45.2664733" lon="7.4509533"><ele>541.0</ele><time>2026-05-03T08:59:06.117Z</time></trkpt><trkpt lat="45.2665333" lon="7.4508217"><ele>541.0</ele><time>2026-05-03T08:59:07.116Z</time></trkpt><trkpt lat="45.2666033" lon="7.4507017"><ele>541.0</ele><time>2026-05-03T08:59:08.115Z</time></trkpt><trkpt lat="45.2666917" lon="7.4505833"><ele>541.0</ele><time>2026-05-03T08:59:09.115Z</time></trkpt><trkpt lat="45.2668083" lon="7.450485"><ele>541.0</ele><time>2026-05-03T08:59:10.114Z</time></trkpt><trkpt lat="45.2669333" lon="7.4503933"><ele>543.75</ele><time>2026-05-03T08:59:11.116Z</time></trkpt><trkpt lat="45.2670583" lon="7.4503067"><ele>546.5</ele><time>2026-05-03T08:59:12.114Z</time></trkpt><trkpt lat="45.2671767" lon="7.45023"><ele>549.25</ele><time>2026-05-03T08:59:13.114Z</time></trkpt><trkpt lat="45.267295" lon="7.4501667"><ele>552.0</ele><time>2026-05-03T08:59:14.112Z</time></trkpt><trkpt lat="45.2674167" lon="7.4501217"><ele>552.0</ele><time>2026-05-03T08:59:15.114Z</time></trkpt><trkpt lat="45.2675283" lon="7.4500867"><ele>552.0</ele><time>2026-05-03T08:59:16.11Z</time></trkpt><trkpt lat="45.2676333" lon="7.4500483"><ele>552.0</ele><time>2026-05-03T08:59:17.109Z</time></trkpt><trkpt lat="45.2677133" lon="7.45"><ele>552.0</ele><time>2026-05-03T08:59:18.109Z</time></trkpt><trkpt lat="45.26778" lon="7.449925"><ele>552.0</ele><time>2026-05-03T08:59:19.113Z</time></trkpt><trkpt lat="45.2678483" lon="7.4498183"><ele>552.0</ele><time>2026-05-03T08:59:20.114Z</time></trkpt><trkpt lat="45.2678983" lon="7.4496817"><ele>552.0</ele><time>2026-05-03T08:59:21.11Z</time></trkpt><trkpt lat="45.26791" lon="7.44951"><ele>552.0</ele><time>2026-05-03T08:59:22.113Z</time></trkpt><trkpt lat="45.2679017" lon="7.4493233"><ele>552.0</ele><time>2026-05-03T08:59:23.11Z</time></trkpt><trkpt lat="45.2678867" lon="7.4491317"><ele>556.5</ele><time>2026-05-03T08:59:24.113Z</time></trkpt><trkpt lat="45.2678667" lon="7.4489417"><ele>561.0</ele><time>2026-05-03T08:59:25.112Z</time></trkpt><trkpt lat="45.26788" lon="7.4487617"><ele>565.5</ele><time>2026-05-03T08:59:26.113Z</time></trkpt><trkpt lat="45.2678917" lon="7.4485867"><ele>570.0</ele><time>2026-05-03T08:59:27.112Z</time></trkpt><trkpt lat="45.267905" lon="7.4484283"><ele>570.75</ele><time>2026-05-03T08:59:28.112Z</time></trkpt><trkpt lat="45.2679067" lon="7.44826"><ele>571.5</ele><time>2026-05-03T08:59:29.112Z</time></trkpt><trkpt lat="45.2678817" lon="7.4480933"><ele>572.25</ele><time>2026-05-03T08:59:30.115Z</time></trkpt><trkpt lat="45.26784" lon="7.4479317"><ele>573.0</ele><time>2026-05-03T08:59:31.116Z</time></trkpt><trkpt lat="45.2678033" lon="7.4477583"><ele>573.0</ele><time>2026-05-03T08:59:32.115Z</time></trkpt><trkpt lat="45.267765" lon="7.44757"><ele>573.0</ele><time>2026-05-03T08:59:33.117Z</time></trkpt><trkpt lat="45.2677233" lon="7.4473733"><ele>573.0</ele><time>2026-05-03T08:59:34.114Z</time></trkpt><trkpt lat="45.2676917" lon="7.44718"><ele>573.0</ele><time>2026-05-03T08:59:35.113Z</time></trkpt><trkpt lat="45.267665" lon="7.4469833"><ele>574.5</ele><time>2026-05-03T08:59:36.116Z</time></trkpt><trkpt lat="45.2676483" lon="7.446785"><ele>576.0</ele><time>2026-05-03T08:59:37.114Z</time></trkpt><trkpt lat="45.267635" lon="7.446585"><ele>577.5</ele><time>2026-05-03T08:59:38.111Z</time></trkpt><trkpt lat="45.267645" lon="7.4464017"><ele>579.0</ele><time>2026-05-03T08:59:39.112Z</time></trkpt><trkpt lat="45.26766" lon="7.4462167"><ele>581.25</ele><time>2026-05-03T08:59:40.114Z</time></trkpt><trkpt lat="45.2676783" lon="7.4460383"><ele>583.5</ele><time>2026-05-03T08:59:41.112Z</time></trkpt><trkpt lat="45.2677033" lon="7.4458683"><ele>585.75</ele><time>2026-05-03T08:59:42.111Z</time></trkpt><trkpt lat="45.267735" lon="7.445715"><ele>588.0</ele><time>2026-05-03T08:59:43.112Z</time></trkpt><trkpt lat="45.2677783" lon="7.4455683"><ele>590.5</ele><time>2026-05-03T08:59:44.113Z</time></trkpt><trkpt lat="45.267835" lon="7.445425"><ele>593.0</ele><time>2026-05-03T08:59:45.112Z</time></trkpt><trkpt lat="45.2678933" lon="7.4452817"><ele>595.5</ele><time>2026-05-03T08:59:46.113Z</time></trkpt><trkpt lat="45.2679383" lon="7.4451367"><ele>598.0</ele><time>2026-05-03T08:59:47.112Z</time></trkpt><trkpt lat="45.26799" lon="7.4449867"><ele>598.0</ele><time>2026-05-03T08:59:48.115Z</time></trkpt><trkpt lat="45.2680333" lon="7.4448417"><ele>598.0</ele><time>2026-05-03T08:59:49.12Z</time></trkpt><trkpt lat="45.2680783" lon="7.4447"><ele>598.0</ele><time>2026-05-03T08:59:50.114Z</time></trkpt><trkpt lat="45.2681317" lon="7.4445667"><ele>598.0</ele><time>2026-05-03T08:59:51.116Z</time></trkpt><trkpt lat="45.26819" lon="7.4444417"><ele>598.0</ele><time>2026-05-03T08:59:52.116Z</time></trkpt><trkpt lat="45.268225" lon="7.4443067"><ele>592.25</ele><time>2026-05-03T08:59:53.113Z</time></trkpt><trkpt lat="45.2682417" lon="7.4441567"><ele>586.5</ele><time>2026-05-03T08:59:54.112Z</time></trkpt><trkpt lat="45.2682483" lon="7.4440017"><ele>580.75</ele><time>2026-05-03T08:59:55.114Z</time></trkpt><trkpt lat="45.2682433" lon="7.443835"><ele>575.0</ele><time>2026-05-03T08:59:56.114Z</time></trkpt><trkpt lat="45.2682217" lon="7.4436667"><ele>575.0</ele><time>2026-05-03T08:59:57.114Z</time></trkpt><trkpt lat="45.2681917" lon="7.4434867"><ele>575.0</ele><time>2026-05-03T08:59:58.113Z</time></trkpt><trkpt lat="45.2681467" lon="7.4432883"><ele>575.0</ele><time>2026-05-03T08:59:59.114Z</time></trkpt><trkpt lat="45.2681" lon="7.443095"><ele>575.0</ele><time>2026-05-03T09:00:00.115Z</time></trkpt><trkpt lat="45.2680483" lon="7.4429133"><ele>581.0</ele><time>2026-05-03T09:00:01.111Z</time></trkpt><trkpt lat="45.26798" lon="7.4427417"><ele>587.0</ele><time>2026-05-03T09:00:02.116Z</time></trkpt><trkpt lat="45.2679167" lon="7.44257"><ele>593.0</ele><time>2026-05-03T09:00:03.118Z</time></trkpt><trkpt lat="45.2678533" lon="7.442395"><ele>599.0</ele><time>2026-05-03T09:00:04.113Z</time></trkpt><trkpt lat="45.267795" lon="7.4422283"><ele>596.25</ele><time>2026-05-03T09:00:05.113Z</time></trkpt><trkpt lat="45.2677417" lon="7.4420583"><ele>593.5</ele><time>2026-05-03T09:00:06.111Z</time></trkpt><trkpt lat="45.26768" lon="7.4419083"><ele>590.75</ele><time>2026-05-03T09:00:07.115Z</time></trkpt><trkpt lat="45.267625" lon="7.4417717"><ele>588.0</ele><time>2026-05-03T09:00:08.113Z</time></trkpt><trkpt lat="45.26757" lon="7.441625"><ele>588.0</ele><time>2026-05-03T09:00:09.119Z</time></trkpt><trkpt lat="45.267525" lon="7.4414833"><ele>588.0</ele><time>2026-05-03T09:00:10.114Z</time></trkpt><trkpt lat="45.2674967" lon="7.441335"><ele>588.0</ele><time>2026-05-03T09:00:11.116Z</time></trkpt><trkpt lat="45.26746" lon="7.44119"><ele>588.0</ele><time>2026-05-03T09:00:12.114Z</time></trkpt><trkpt lat="45.2674267" lon="7.4410433"><ele>588.0</ele><time>2026-05-03T09:00:13.113Z</time></trkpt><trkpt lat="45.2673933" lon="7.4409117"><ele>584.4</ele><time>2026-05-03T09:00:14.113Z</time></trkpt><trkpt lat="45.2673383" lon="7.44084"><ele>580.8</ele><time>2026-05-03T09:00:15.116Z</time></trkpt><trkpt lat="45.2672533" lon="7.44079"><ele>577.2</ele><time>2026-05-03T09:00:16.112Z</time></trkpt><trkpt lat="45.2671683" lon="7.4408033"><ele>573.6</ele><time>2026-05-03T09:00:17.11Z</time></trkpt><trkpt lat="45.2670633" lon="7.44088"><ele>570.0</ele><time>2026-05-03T09:00:18.111Z</time></trkpt><trkpt lat="45.2669233" lon="7.44099"><ele>569.5</ele><time>2026-05-03T09:00:19.113Z</time></trkpt><trkpt lat="45.2667917" lon="7.4410717"><ele>569.0</ele><time>2026-05-03T09:00:20.11Z</time></trkpt><trkpt lat="45.2666633" lon="7.44112"><ele>568.5</ele><time>2026-05-03T09:00:21.115Z</time></trkpt><trkpt lat="45.26653" lon="7.4411383"><ele>568.0</ele><time>2026-05-03T09:00:22.111Z</time></trkpt><trkpt lat="45.2664133" lon="7.4411283"><ele>570.6</ele><time>2026-05-03T09:00:23.112Z</time></trkpt><trkpt lat="45.2663017" lon="7.4411283"><ele>573.1999999999999</ele><time>2026-05-03T09:00:24.115Z</time></trkpt><trkpt lat="45.2661983" lon="7.44113"><ele>575.8</ele><time>2026-05-03T09:00:25.114Z</time></trkpt><trkpt lat="45.266095" lon="7.4411133"><ele>578.4</ele><time>2026-05-03T09:00:26.114Z</time></trkpt><trkpt lat="45.265985" lon="7.441065"><ele>581.0</ele><time>2026-05-03T09:00:27.116Z</time></trkpt><trkpt lat="45.2658833" lon="7.4409983"><ele>581.0</ele><time>2026-05-03T09:00:28.114Z</time></trkpt><trkpt lat="45.265775" lon="7.4409233"><ele>581.0</ele><time>2026-05-03T09:00:29.112Z</time></trkpt><trkpt lat="45.2656583" lon="7.44087"><ele>581.0</ele><time>2026-05-03T09:00:30.115Z</time></trkpt><trkpt lat="45.265535" lon="7.4408133"><ele>581.0</ele><time>2026-05-03T09:00:31.118Z</time></trkpt><trkpt lat="45.2654083" lon="7.4407633"><ele>587.3333333333333</ele><time>2026-05-03T09:00:32.114Z</time></trkpt><trkpt lat="45.2652717" lon="7.4407383"><ele>593.6666666666666</ele><time>2026-05-03T09:00:33.119Z</time></trkpt><trkpt lat="45.2651183" lon="7.4407083"><ele>600.0</ele><time>2026-05-03T09:00:34.114Z</time></trkpt><trkpt lat="45.2649483" lon="7.4406817"><ele>600.3333333333334</ele><time>2026-05-03T09:00:35.118Z</time></trkpt><trkpt lat="45.2647467" lon="7.44067"><ele>600.6666666666667</ele><time>2026-05-03T09:00:36.117Z</time></trkpt><trkpt lat="45.264545" lon="7.44064"><ele>601.0</ele><time>2026-05-03T09:00:37.114Z</time></trkpt><trkpt lat="45.26434" lon="7.44061"><ele>601.0</ele><time>2026-05-03T09:00:38.109Z</time></trkpt><trkpt lat="45.264135" lon="7.4405783"><ele>601.0</ele><time>2026-05-03T09:00:39.111Z</time></trkpt><trkpt lat="45.2639367" lon="7.4405567"><ele>601.0</ele><time>2026-05-03T09:00:40.112Z</time></trkpt><trkpt lat="45.263745" lon="7.4405417"><ele>602.6666666666667</ele><time>2026-05-03T09:00:41.115Z</time></trkpt><trkpt lat="45.2635667" lon="7.4405217"><ele>604.3333333333334</ele><time>2026-05-03T09:00:42.112Z</time></trkpt><trkpt lat="45.2633933" lon="7.440475"><ele>606.0</ele><time>2026-05-03T09:00:43.113Z</time></trkpt><trkpt lat="45.2632283" lon="7.4404133"><ele>602.6666666666666</ele><time>2026-05-03T09:00:44.113Z</time></trkpt><trkpt lat="45.263065" lon="7.4403333"><ele>599.3333333333333</ele><time>2026-05-03T09:00:45.115Z</time></trkpt><trkpt lat="45.2629" lon="7.4402383"><ele>596.0</ele><time>2026-05-03T09:00:46.111Z</time></trkpt><trkpt lat="45.262725" lon="7.4401283"><ele>596.0</ele><time>2026-05-03T09:00:47.111Z</time></trkpt><trkpt lat="45.2625467" lon="7.440005"><ele>596.0</ele><time>2026-05-03T09:00:48.11Z</time></trkpt><trkpt lat="45.2623717" lon="7.4398733"><ele>596.0</ele><time>2026-05-03T09:00:49.113Z</time></trkpt><trkpt lat="45.2622067" lon="7.4397317"><ele>593.0</ele><time>2026-05-03T09:00:50.113Z</time></trkpt><trkpt lat="45.2620517" lon="7.4396"><ele>590.0</ele><time>2026-05-03T09:00:51.114Z</time></trkpt><trkpt lat="45.2619117" lon="7.439485"><ele>587.0</ele><time>2026-05-03T09:00:52.115Z</time></trkpt><trkpt lat="45.261795" lon="7.4393767"><ele>587.0</ele><time>2026-05-03T09:00:53.112Z</time></trkpt><trkpt lat="45.2616883" lon="7.4392817"><ele>587.0</ele><time>2026-05-03T09:00:54.112Z</time></trkpt><trkpt lat="45.2615933" lon="7.439195"><ele>587.0</ele><time>2026-05-03T09:00:55.115Z</time></trkpt><trkpt lat="45.2614983" lon="7.4391267"><ele>587.0</ele><time>2026-05-03T09:00:56.113Z</time></trkpt><trkpt lat="45.261395" lon="7.4390917"><ele>584.8000000000001</ele><time>2026-05-03T09:00:57.116Z</time></trkpt><trkpt lat="45.2612917" lon="7.4390933"><ele>582.6</ele><time>2026-05-03T09:00:58.111Z</time></trkpt><trkpt lat="45.2611883" lon="7.4391133"><ele>580.4000000000001</ele><time>2026-05-03T09:00:59.109Z</time></trkpt><trkpt lat="45.2610917" lon="7.4391617"><ele>578.2</ele><time>2026-05-03T09:01:00.112Z</time></trkpt><trkpt lat="45.260985" lon="7.43924"><ele>576.0</ele><time>2026-05-03T09:01:01.113Z</time></trkpt><trkpt lat="45.260875" lon="7.43932"><ele>576.0</ele><time>2026-05-03T09:01:02.115Z</time></trkpt><trkpt lat="45.2607567" lon="7.4394067"><ele>576.0</ele><time>2026-05-03T09:01:03.114Z</time></trkpt><trkpt lat="45.2606533" lon="7.439475"><ele>576.0</ele><time>2026-05-03T09:01:04.114Z</time></trkpt><trkpt lat="45.260565" lon="7.4395217"><ele>576.0</ele><time>2026-05-03T09:01:05.114Z</time></trkpt><trkpt lat="45.2604733" lon="7.439545"><ele>576.0</ele><time>2026-05-03T09:01:06.113Z</time></trkpt><trkpt lat="45.2603667" lon="7.4395567"><ele>574.6666666666666</ele><time>2026-05-03T09:01:07.115Z</time></trkpt><trkpt lat="45.2602267" lon="7.4395467"><ele>573.3333333333333</ele><time>2026-05-03T09:01:08.114Z</time></trkpt><trkpt lat="45.26007" lon="7.439525"><ele>572.0</ele><time>2026-05-03T09:01:09.112Z</time></trkpt><trkpt lat="45.25991" lon="7.4394933"><ele>579.0</ele><time>2026-05-03T09:01:10.116Z</time></trkpt><trkpt lat="45.2597517" lon="7.439445"><ele>586.0</ele><time>2026-05-03T09:01:11.113Z</time></trkpt><trkpt lat="45.2595917" lon="7.4393733"><ele>593.0</ele><time>2026-05-03T09:01:12.113Z</time></trkpt><trkpt lat="45.2594333" lon="7.4392933"><ele>593.0</ele><time>2026-05-03T09:01:13.114Z</time></trkpt><trkpt lat="45.2592767" lon="7.439195"><ele>593.0</ele><time>2026-05-03T09:01:14.114Z</time></trkpt><trkpt lat="45.2591283" lon="7.4390883"><ele>593.0</ele><time>2026-05-03T09:01:15.115Z</time></trkpt><trkpt lat="45.2589767" lon="7.4389733"><ele>587.3333333333333</ele><time>2026-05-03T09:01:16.114Z</time></trkpt><trkpt lat="45.25882" lon="7.43886"><ele>581.6666666666666</ele><time>2026-05-03T09:01:17.111Z</time></trkpt><trkpt lat="45.25865" lon="7.4387667"><ele>576.0</ele><time>2026-05-03T09:01:18.112Z</time></trkpt><trkpt lat="45.25849" lon="7.4387067"><ele>576.0</ele><time>2026-05-03T09:01:19.112Z</time></trkpt><trkpt lat="45.25834" lon="7.4386617"><ele>576.0</ele><time>2026-05-03T09:01:20.116Z</time></trkpt><trkpt lat="45.2582217" lon="7.4385983"><ele>576.0</ele><time>2026-05-03T09:01:21.113Z</time></trkpt><trkpt lat="45.2581233" lon="7.4385233"><ele>576.0</ele><time>2026-05-03T09:01:22.112Z</time></trkpt><trkpt lat="45.2580467" lon="7.4384267"><ele>581.0</ele><time>2026-05-03T09:01:23.11Z</time></trkpt><trkpt lat="45.2579883" lon="7.4382983"><ele>586.0</ele><time>2026-05-03T09:01:24.112Z</time></trkpt><trkpt lat="45.2579067" lon="7.4382017"><ele>591.0</ele><time>2026-05-03T09:01:25.112Z</time></trkpt><trkpt lat="45.2578017" lon="7.43813"><ele>596.0</ele><time>2026-05-03T09:01:26.114Z</time></trkpt><trkpt lat="45.257685" lon="7.438085"><ele>596.0</ele><time>2026-05-03T09:01:27.12Z</time></trkpt><trkpt lat="45.2575667" lon="7.438055"><ele>596.0</ele><time>2026-05-03T09:01:28.153Z</time></trkpt><trkpt lat="45.2574617" lon="7.43804"><ele>596.0</ele><time>2026-05-03T09:01:29.113Z</time></trkpt><trkpt lat="45.2573617" lon="7.438015"><ele>596.0</ele><time>2026-05-03T09:01:30.11Z</time></trkpt><trkpt lat="45.2572733" lon="7.4379667"><ele>596.0</ele><time>2026-05-03T09:01:31.112Z</time></trkpt><trkpt lat="45.2571933" lon="7.4379183"><ele>596.6</ele><time>2026-05-03T09:01:32.114Z</time></trkpt><trkpt lat="45.257125" lon="7.4378317"><ele>597.2</ele><time>2026-05-03T09:01:33.115Z</time></trkpt><trkpt lat="45.257055" lon="7.437745"><ele>597.8</ele><time>2026-05-03T09:01:34.115Z</time></trkpt><trkpt lat="45.2570017" lon="7.43761"><ele>598.4</ele><time>2026-05-03T09:01:35.113Z</time></trkpt><trkpt lat="45.2569283" lon="7.4375117"><ele>599.0</ele><time>2026-05-03T09:01:36.114Z</time></trkpt><trkpt lat="45.2568483" lon="7.4374117"><ele>599.0</ele><time>2026-05-03T09:01:37.112Z</time></trkpt><trkpt lat="45.25676" lon="7.4373417"><ele>599.0</ele><time>2026-05-03T09:01:38.112Z</time></trkpt><trkpt lat="45.2566967" lon="7.4372567"><ele>599.0</ele><time>2026-05-03T09:01:39.113Z</time></trkpt><trkpt lat="45.2566367" lon="7.437165"><ele>599.0</ele><time>2026-05-03T09:01:40.111Z</time></trkpt><trkpt lat="45.2566017" lon="7.43706"><ele>599.0</ele><time>2026-05-03T09:01:41.114Z</time></trkpt><trkpt lat="45.256575" lon="7.4369367"><ele>599.0</ele><time>2026-05-03T09:01:42.111Z</time></trkpt><trkpt lat="45.256575" lon="7.4368033"><ele>595.25</ele><time>2026-05-03T09:01:43.11Z</time></trkpt><trkpt lat="45.2565967" lon="7.436615"><ele>591.5</ele><time>2026-05-03T09:01:44.111Z</time></trkpt><trkpt lat="45.2566033" lon="7.4364383"><ele>587.75</ele><time>2026-05-03T09:01:45.113Z</time></trkpt><trkpt lat="45.256595" lon="7.436285"><ele>584.0</ele><time>2026-05-03T09:01:46.116Z</time></trkpt><trkpt lat="45.2565583" lon="7.43614"><ele>580.4</ele><time>2026-05-03T09:01:47.112Z</time></trkpt><trkpt lat="45.256515" lon="7.4360217"><ele>576.8</ele><time>2026-05-03T09:01:48.116Z</time></trkpt><trkpt lat="45.25646" lon="7.4359217"><ele>573.2</ele><time>2026-05-03T09:01:49.115Z</time></trkpt><trkpt lat="45.256395" lon="7.4358417"><ele>569.6</ele><time>2026-05-03T09:01:50.115Z</time></trkpt><trkpt lat="45.25628" lon="7.4358667"><ele>566.0</ele><time>2026-05-03T09:01:51.114Z</time></trkpt><trkpt lat="45.2561767" lon="7.43587"><ele>566.0</ele><time>2026-05-03T09:01:52.112Z</time></trkpt><trkpt lat="45.2560433" lon="7.435935"><ele>566.0</ele><time>2026-05-03T09:01:53.112Z</time></trkpt><trkpt lat="45.2559183" lon="7.4360117"><ele>566.0</ele><time>2026-05-03T09:01:54.112Z</time></trkpt><trkpt lat="45.255815" lon="7.4361033"><ele>566.0</ele><time>2026-05-03T09:01:55.111Z</time></trkpt><trkpt lat="45.2557183" lon="7.4362017"><ele>566.25</ele><time>2026-05-03T09:01:56.114Z</time></trkpt><trkpt lat="45.255615" lon="7.4362667"><ele>566.5</ele><time>2026-05-03T09:01:57.114Z</time></trkpt><trkpt lat="45.25549" lon="7.4363067"><ele>566.75</ele><time>2026-05-03T09:01:58.113Z</time></trkpt><trkpt lat="45.2553833" lon="7.43629"><ele>567.0</ele><time>2026-05-03T09:01:59.115Z</time></trkpt><trkpt lat="45.2552817" lon="7.436225"><ele>567.0</ele><time>2026-05-03T09:02:00.113Z</time></trkpt><trkpt lat="45.2551833" lon="7.4361317"><ele>567.0</ele><time>2026-05-03T09:02:01.112Z</time></trkpt><trkpt lat="45.2550933" lon="7.43607"><ele>567.0</ele><time>2026-05-03T09:02:02.11Z</time></trkpt><trkpt lat="45.2549817" lon="7.43604"><ele>567.0</ele><time>2026-05-03T09:02:03.111Z</time></trkpt><trkpt lat="45.2548683" lon="7.4360483"><ele>567.0</ele><time>2026-05-03T09:02:04.114Z</time></trkpt><trkpt lat="45.2547517" lon="7.4360833"><ele>567.0</ele><time>2026-05-03T09:02:05.11Z</time></trkpt><trkpt lat="45.254635" lon="7.4361267"><ele>567.0</ele><time>2026-05-03T09:02:06.115Z</time></trkpt><trkpt lat="45.254515" lon="7.436175"><ele>567.0</ele><time>2026-05-03T09:02:07.112Z</time></trkpt><trkpt lat="45.254395" lon="7.436215"><ele>567.0</ele><time>2026-05-03T09:02:08.115Z</time></trkpt><trkpt lat="45.25427" lon="7.4362383"><ele>567.0</ele><time>2026-05-03T09:02:09.112Z</time></trkpt><trkpt lat="45.2541283" lon="7.4362233"><ele>567.0</ele><time>2026-05-03T09:02:10.114Z</time></trkpt><trkpt lat="45.25398" lon="7.436195"><ele>567.0</ele><time>2026-05-03T09:02:11.112Z</time></trkpt><trkpt lat="45.2538317" lon="7.43618"><ele>567.0</ele><time>2026-05-03T09:02:12.109Z</time></trkpt><trkpt lat="45.2536867" lon="7.4361733"><ele>566.6666666666666</ele><time>2026-05-03T09:02:13.116Z</time></trkpt><trkpt lat="45.253535" lon="7.4361633"><ele>566.3333333333333</ele><time>2026-05-03T09:02:14.113Z</time></trkpt><trkpt lat="45.253385" lon="7.4361367"><ele>566.0</ele><time>2026-05-03T09:02:15.116Z</time></trkpt><trkpt lat="45.25323" lon="7.4361067"><ele>565.3333333333333</ele><time>2026-05-03T09:02:16.116Z</time></trkpt><trkpt lat="45.253075" lon="7.43608"><ele>564.6666666666666</ele><time>2026-05-03T09:02:17.109Z</time></trkpt><trkpt lat="45.2529133" lon="7.4360567"><ele>564.0</ele><time>2026-05-03T09:02:18.112Z</time></trkpt><trkpt lat="45.252755" lon="7.4360283"><ele>564.0</ele><time>2026-05-03T09:02:19.114Z</time></trkpt><trkpt lat="45.2525967" lon="7.4360067"><ele>564.0</ele><time>2026-05-03T09:02:20.115Z</time></trkpt><trkpt lat="45.2524417" lon="7.4359983"><ele>564.0</ele><time>2026-05-03T09:02:21.113Z</time></trkpt><trkpt lat="45.2522967" lon="7.4360133"><ele>565.25</ele><time>2026-05-03T09:02:22.114Z</time></trkpt><trkpt lat="45.25216" lon="7.436035"><ele>566.5</ele><time>2026-05-03T09:02:23.11Z</time></trkpt><trkpt lat="45.25204" lon="7.4360533"><ele>567.75</ele><time>2026-05-03T09:02:24.115Z</time></trkpt><trkpt lat="45.25192" lon="7.4360467"><ele>569.0</ele><time>2026-05-03T09:02:25.115Z</time></trkpt><trkpt lat="45.2518017" lon="7.4359967"><ele>569.0</ele><time>2026-05-03T09:02:26.112Z</time></trkpt><trkpt lat="45.2516867" lon="7.4359217"><ele>569.0</ele><time>2026-05-03T09:02:27.113Z</time></trkpt><trkpt lat="45.2515633" lon="7.4358317"><ele>569.0</ele><time>2026-05-03T09:02:28.118Z</time></trkpt><trkpt lat="45.251435" lon="7.4357333"><ele>569.0</ele><time>2026-05-03T09:02:29.11Z</time></trkpt><trkpt lat="45.25131" lon="7.4356367"><ele>568.25</ele><time>2026-05-03T09:02:30.114Z</time></trkpt><trkpt lat="45.2511833" lon="7.4355467"><ele>567.5</ele><time>2026-05-03T09:02:31.116Z</time></trkpt><trkpt lat="45.2510583" lon="7.435465"><ele>566.75</ele><time>2026-05-03T09:02:32.115Z</time></trkpt><trkpt lat="45.2509283" lon="7.4353883"><ele>566.0</ele><time>2026-05-03T09:02:33.115Z</time></trkpt><trkpt lat="45.2507983" lon="7.4353033"><ele>566.0</ele><time>2026-05-03T09:02:34.117Z</time></trkpt><trkpt lat="45.2506683" lon="7.4352017"><ele>566.0</ele><time>2026-05-03T09:02:35.119Z</time></trkpt><trkpt lat="45.2505417" lon="7.4350983"><ele>566.0</ele><time>2026-05-03T09:02:36.111Z</time></trkpt><trkpt lat="45.2504167" lon="7.4350083"><ele>566.0</ele><time>2026-05-03T09:02:37.117Z</time></trkpt><trkpt lat="45.2502983" lon="7.434925"><ele>565.75</ele><time>2026-05-03T09:02:38.116Z</time></trkpt><trkpt lat="45.2501833" lon="7.4348333"><ele>565.5</ele><time>2026-05-03T09:02:39.114Z</time></trkpt><trkpt lat="45.2500667" lon="7.4347433"><ele>565.25</ele><time>2026-05-03T09:02:40.116Z</time></trkpt><trkpt lat="45.249945" lon="7.4346617"><ele>565.0</ele><time>2026-05-03T09:02:41.109Z</time></trkpt><trkpt lat="45.249825" lon="7.4345833"><ele>564.5</ele><time>2026-05-03T09:02:42.114Z</time></trkpt><trkpt lat="45.2496933" lon="7.4345167"><ele>564.0</ele><time>2026-05-03T09:02:43.113Z</time></trkpt><trkpt lat="45.249555" lon="7.4344533"><ele>563.5</ele><time>2026-05-03T09:02:44.114Z</time></trkpt><trkpt lat="45.249415" lon="7.4344"><ele>563.0</ele><time>2026-05-03T09:02:45.119Z</time></trkpt><trkpt lat="45.2492817" lon="7.4343683"><ele>563.0</ele><time>2026-05-03T09:02:46.114Z</time></trkpt><trkpt lat="45.2491533" lon="7.4343417"><ele>563.0</ele><time>2026-05-03T09:02:47.112Z</time></trkpt><trkpt lat="45.24903" lon="7.4343167"><ele>563.0</ele><time>2026-05-03T09:02:48.113Z</time></trkpt><trkpt lat="45.2489117" lon="7.4343033"><ele>563.0</ele><time>2026-05-03T09:02:49.111Z</time></trkpt><trkpt lat="45.2487983" lon="7.4343083"><ele>564.0</ele><time>2026-05-03T09:02:50.112Z</time></trkpt><trkpt lat="45.24869" lon="7.434335"><ele>565.0</ele><time>2026-05-03T09:02:51.111Z</time></trkpt><trkpt lat="45.2486033" lon="7.43437"><ele>566.0</ele><time>2026-05-03T09:02:52.114Z</time></trkpt><trkpt lat="45.2485317" lon="7.434385"><ele>567.0</ele><time>2026-05-03T09:02:53.111Z</time></trkpt><trkpt lat="45.2484667" lon="7.4343717"><ele>568.0</ele><time>2026-05-03T09:02:54.112Z</time></trkpt><trkpt lat="45.248395" lon="7.4343283"><ele>569.0</ele><time>2026-05-03T09:02:55.113Z</time></trkpt><trkpt lat="45.24834" lon="7.4342483"><ele>569.0</ele><time>2026-05-03T09:02:56.116Z</time></trkpt><trkpt lat="45.248295" lon="7.4341567"><ele>569.0</ele><time>2026-05-03T09:02:57.112Z</time></trkpt><trkpt lat="45.2482383" lon="7.4340717"><ele>569.0</ele><time>2026-05-03T09:02:58.11Z</time></trkpt><trkpt lat="45.2481617" lon="7.4339883"><ele>569.0</ele><time>2026-05-03T09:02:59.116Z</time></trkpt><trkpt lat="45.248055" lon="7.433885"><ele>569.0</ele><time>2026-05-03T09:03:00.115Z</time></trkpt><trkpt lat="45.2479417" lon="7.4337983"><ele>569.75</ele><time>2026-05-03T09:03:01.116Z</time></trkpt><trkpt lat="45.24783" lon="7.4337217"><ele>570.5</ele><time>2026-05-03T09:03:02.113Z</time></trkpt><trkpt lat="45.2477133" lon="7.4336367"><ele>571.25</ele><time>2026-05-03T09:03:03.117Z</time></trkpt><trkpt lat="45.2476067" lon="7.4335467"><ele>572.0</ele><time>2026-05-03T09:03:04.111Z</time></trkpt><trkpt lat="45.2475033" lon="7.4334517"><ele>572.0</ele><time>2026-05-03T09:03:05.112Z</time></trkpt><trkpt lat="45.2474" lon="7.4333467"><ele>572.0</ele><time>2026-05-03T09:03:06.117Z</time></trkpt><trkpt lat="45.247305" lon="7.4332433"><ele>572.0</ele><time>2026-05-03T09:03:07.11Z</time></trkpt><trkpt lat="45.2472133" lon="7.433125"><ele>572.0</ele><time>2026-05-03T09:03:08.111Z</time></trkpt><trkpt lat="45.247125" lon="7.4330067"><ele>572.0</ele><time>2026-05-03T09:03:09.116Z</time></trkpt><trkpt lat="45.2470317" lon="7.432895"><ele>572.0</ele><time>2026-05-03T09:03:10.119Z</time></trkpt><trkpt lat="45.2469283" lon="7.4328017"><ele>572.0</ele><time>2026-05-03T09:03:11.114Z</time></trkpt><trkpt lat="45.2468117" lon="7.4327233"><ele>572.0</ele><time>2026-05-03T09:03:12.109Z</time></trkpt><trkpt lat="45.2466883" lon="7.432635"><ele>572.0</ele><time>2026-05-03T09:03:13.116Z</time></trkpt><trkpt lat="45.246565" lon="7.4325433"><ele>572.0</ele><time>2026-05-03T09:03:14.115Z</time></trkpt><trkpt lat="45.24645" lon="7.4324583"><ele>572.0</ele><time>2026-05-03T09:03:15.113Z</time></trkpt><trkpt lat="45.24634" lon="7.4323667"><ele>572.0</ele><time>2026-05-03T09:03:16.111Z</time></trkpt><trkpt lat="45.2462317" lon="7.43227"><ele>571.25</ele><time>2026-05-03T09:03:17.113Z</time></trkpt><trkpt lat="45.2461333" lon="7.4321583"><ele>570.5</ele><time>2026-05-03T09:03:18.113Z</time></trkpt><trkpt lat="45.246045" lon="7.4320567"><ele>569.75</ele><time>2026-05-03T09:03:19.11Z</time></trkpt><trkpt lat="45.2459583" lon="7.4319617"><ele>569.0</ele><time>2026-05-03T09:03:20.111Z</time></trkpt><trkpt lat="45.2458717" lon="7.4318717"><ele>569.0</ele><time>2026-05-03T09:03:21.115Z</time></trkpt><trkpt lat="45.2457767" lon="7.4318"><ele>569.0</ele><time>2026-05-03T09:03:22.115Z</time></trkpt><trkpt lat="45.2456767" lon="7.4317483"><ele>569.0</ele><time>2026-05-03T09:03:23.111Z</time></trkpt><trkpt lat="45.2455733" lon="7.431755"><ele>569.0</ele><time>2026-05-03T09:03:24.112Z</time></trkpt><trkpt lat="45.2454767" lon="7.4317733"><ele>569.0</ele><time>2026-05-03T09:03:25.111Z</time></trkpt><trkpt lat="45.2454" lon="7.4318583"><ele>570.25</ele><time>2026-05-03T09:03:26.111Z</time></trkpt><trkpt lat="45.2453283" lon="7.4319567"><ele>571.5</ele><time>2026-05-03T09:03:27.114Z</time></trkpt><trkpt lat="45.2452567" lon="7.43208"><ele>572.75</ele><time>2026-05-03T09:03:28.112Z</time></trkpt><trkpt lat="45.2451917" lon="7.4322233"><ele>574.0</ele><time>2026-05-03T09:03:29.11Z</time></trkpt><trkpt lat="45.24512" lon="7.43238"><ele>575.0</ele><time>2026-05-03T09:03:30.114Z</time></trkpt><trkpt lat="45.2450417" lon="7.4325533"><ele>576.0</ele><time>2026-05-03T09:03:31.112Z</time></trkpt><trkpt lat="45.2449767" lon="7.43272"><ele>577.0</ele><time>2026-05-03T09:03:32.115Z</time></trkpt><trkpt lat="45.2449067" lon="7.4328983"><ele>578.0</ele><time>2026-05-03T09:03:33.115Z</time></trkpt><trkpt lat="45.24484" lon="7.433075"><ele>578.1666666666666</ele><time>2026-05-03T09:03:34.114Z</time></trkpt><trkpt lat="45.2447883" lon="7.4332167"><ele>578.3333333333333</ele><time>2026-05-03T09:03:35.114Z</time></trkpt><trkpt lat="45.2447367" lon="7.433345"><ele>578.5</ele><time>2026-05-03T09:03:36.114Z</time></trkpt><trkpt lat="45.24469" lon="7.4334533"><ele>578.6666666666666</ele><time>2026-05-03T09:03:37.112Z</time></trkpt><trkpt lat="45.24465" lon="7.4335333"><ele>578.8333333333334</ele><time>2026-05-03T09:03:38.11Z</time></trkpt><trkpt lat="45.2445983" lon="7.4335867"><ele>579.0</ele><time>2026-05-03T09:03:39.111Z</time></trkpt><trkpt lat="45.2444767" lon="7.4336183"><ele>578.9999999999999</ele><time>2026-05-03T09:03:41.113Z</time></trkpt><trkpt lat="45.2444117" lon="7.4336217"><ele>579.0</ele><time>2026-05-03T09:03:42.114Z</time></trkpt><trkpt lat="45.2443267" lon="7.4335783"><ele>579.0</ele><time>2026-05-03T09:03:43.112Z</time></trkpt><trkpt lat="45.2442583" lon="7.4335717"><ele>579.0</ele><time>2026-05-03T09:03:44.113Z</time></trkpt><trkpt lat="45.244185" lon="7.433565"><ele>579.0</ele><time>2026-05-03T09:03:45.116Z</time></trkpt><trkpt lat="45.2441083" lon="7.43357"><ele>578.9999999999999</ele><time>2026-05-03T09:03:46.115Z</time></trkpt><trkpt lat="45.2440417" lon="7.4336067"><ele>579.0</ele><time>2026-05-03T09:03:47.112Z</time></trkpt><trkpt lat="45.24397" lon="7.43367"><ele>579.25</ele><time>2026-05-03T09:03:48.11Z</time></trkpt><trkpt lat="45.24388" lon="7.4337367"><ele>579.5</ele><time>2026-05-03T09:03:49.115Z</time></trkpt><trkpt lat="45.2437767" lon="7.4338067"><ele>579.75</ele><time>2026-05-03T09:03:50.117Z</time></trkpt><trkpt lat="45.2436617" lon="7.4338683"><ele>580.0</ele><time>2026-05-03T09:03:51.117Z</time></trkpt><trkpt lat="45.24353" lon="7.4339367"><ele>580.0</ele><time>2026-05-03T09:03:52.115Z</time></trkpt><trkpt lat="45.2434083" lon="7.4339933"><ele>580.0</ele><time>2026-05-03T09:03:53.116Z</time></trkpt><trkpt lat="45.24325" lon="7.4340933"><ele>580.0</ele><time>2026-05-03T09:03:54.115Z</time></trkpt><trkpt lat="45.2431183" lon="7.434185"><ele>580.0</ele><time>2026-05-03T09:03:55.114Z</time></trkpt><trkpt lat="45.2429733" lon="7.43429"><ele>585.0</ele><time>2026-05-03T09:03:56.118Z</time></trkpt><trkpt lat="45.2428167" lon="7.4343967"><ele>590.0</ele><time>2026-05-03T09:03:57.112Z</time></trkpt><trkpt lat="45.242655" lon="7.4345017"><ele>595.0</ele><time>2026-05-03T09:03:58.116Z</time></trkpt><trkpt lat="45.242495" lon="7.4345933"><ele>595.0</ele><time>2026-05-03T09:03:59.112Z</time></trkpt><trkpt lat="45.242335" lon="7.43468"><ele>595.0</ele><time>2026-05-03T09:04:00.111Z</time></trkpt><trkpt lat="45.2421767" lon="7.4347483"><ele>595.0</ele><time>2026-05-03T09:04:01.113Z</time></trkpt><trkpt lat="45.2420333" lon="7.434805"><ele>595.0</ele><time>2026-05-03T09:04:02.113Z</time></trkpt><trkpt lat="45.2418917" lon="7.4348917"><ele>595.0</ele><time>2026-05-03T09:04:03.115Z</time></trkpt><trkpt lat="45.2417583" lon="7.4350033"><ele>595.0</ele><time>2026-05-03T09:04:04.114Z</time></trkpt><trkpt lat="45.24164" lon="7.435125"><ele>595.0</ele><time>2026-05-03T09:04:05.112Z</time></trkpt><trkpt lat="45.2415233" lon="7.43528"><ele>595.0</ele><time>2026-05-03T09:04:06.113Z</time></trkpt><trkpt lat="45.2414183" lon="7.43543"><ele>595.0</ele><time>2026-05-03T09:04:07.111Z</time></trkpt><trkpt lat="45.2413333" lon="7.4356"><ele>597.5</ele><time>2026-05-03T09:04:08.113Z</time></trkpt><trkpt lat="45.2412433" lon="7.435765"><ele>600.0</ele><time>2026-05-03T09:04:09.116Z</time></trkpt><trkpt lat="45.2411433" lon="7.4359017"><ele>602.5</ele><time>2026-05-03T09:04:10.108Z</time></trkpt><trkpt lat="45.2410467" lon="7.4360317"><ele>605.0</ele><time>2026-05-03T09:04:11.115Z</time></trkpt><trkpt lat="45.2409533" lon="7.4361817"><ele>606.3333333333333</ele><time>2026-05-03T09:04:12.117Z</time></trkpt><trkpt lat="45.2408383" lon="7.436365"><ele>607.6666666666666</ele><time>2026-05-03T09:04:13.118Z</time></trkpt><trkpt lat="45.2407117" lon="7.4365333"><ele>609.0</ele><time>2026-05-03T09:04:14.118Z</time></trkpt><trkpt lat="45.24058" lon="7.4367233"><ele>609.0</ele><time>2026-05-03T09:04:15.114Z</time></trkpt><trkpt lat="45.2404567" lon="7.4369183"><ele>609.0</ele><time>2026-05-03T09:04:16.116Z</time></trkpt><trkpt lat="45.2403533" lon="7.43711"><ele>609.0</ele><time>2026-05-03T09:04:17.116Z</time></trkpt><trkpt lat="45.24025" lon="7.4372733"><ele>605.0</ele><time>2026-05-03T09:04:18.112Z</time></trkpt><trkpt lat="45.24015" lon="7.437435"><ele>601.0</ele><time>2026-05-03T09:04:19.111Z</time></trkpt><trkpt lat="45.2400633" lon="7.43754"><ele>597.0</ele><time>2026-05-03T09:04:20.112Z</time></trkpt><trkpt lat="45.23996" lon="7.4376467"><ele>593.0</ele><time>2026-05-03T09:04:21.111Z</time></trkpt><trkpt lat="45.2398683" lon="7.43772"><ele>591.0</ele><time>2026-05-03T09:04:22.118Z</time></trkpt><trkpt lat="45.2397767" lon="7.4378083"><ele>589.0</ele><time>2026-05-03T09:04:23.11Z</time></trkpt><trkpt lat="45.23968" lon="7.437785"><ele>587.0</ele><time>2026-05-03T09:04:24.111Z</time></trkpt><trkpt lat="45.2395633" lon="7.4377183"><ele>585.0</ele><time>2026-05-03T09:04:25.113Z</time></trkpt><trkpt lat="45.2394317" lon="7.4375817"><ele>585.0</ele><time>2026-05-03T09:04:26.111Z</time></trkpt><trkpt lat="45.2392967" lon="7.4374833"><ele>585.0</ele><time>2026-05-03T09:04:27.111Z</time></trkpt><trkpt lat="45.2391483" lon="7.4373667"><ele>585.0</ele><time>2026-05-03T09:04:28.111Z</time></trkpt><trkpt lat="45.2389983" lon="7.4372733"><ele>584.3333333333334</ele><time>2026-05-03T09:04:29.111Z</time></trkpt><trkpt lat="45.2388467" lon="7.4371933"><ele>583.6666666666667</ele><time>2026-05-03T09:04:30.114Z</time></trkpt><trkpt lat="45.2386983" lon="7.43714"><ele>583.0</ele><time>2026-05-03T09:04:31.116Z</time></trkpt><trkpt lat="45.2385517" lon="7.437085"><ele>587.3333333333334</ele><time>2026-05-03T09:04:32.114Z</time></trkpt><trkpt lat="45.23843" lon="7.4369733"><ele>591.6666666666666</ele><time>2026-05-03T09:04:33.112Z</time></trkpt><trkpt lat="45.238295" lon="7.4368667"><ele>596.0</ele><time>2026-05-03T09:04:34.113Z</time></trkpt><trkpt lat="45.2381517" lon="7.4367483"><ele>593.6666666666666</ele><time>2026-05-03T09:04:35.113Z</time></trkpt><trkpt lat="45.2380083" lon="7.4366133"><ele>591.3333333333334</ele><time>2026-05-03T09:04:36.114Z</time></trkpt><trkpt lat="45.2378717" lon="7.4364833"><ele>589.0</ele><time>2026-05-03T09:04:37.116Z</time></trkpt><trkpt lat="45.237725" lon="7.436375"><ele>592.5</ele><time>2026-05-03T09:04:38.115Z</time></trkpt><trkpt lat="45.237585" lon="7.4362917"><ele>596.0</ele><time>2026-05-03T09:04:39.118Z</time></trkpt><trkpt lat="45.2374433" lon="7.43623"><ele>599.5</ele><time>2026-05-03T09:04:40.11Z</time></trkpt><trkpt lat="45.237305" lon="7.4361783"><ele>603.0</ele><time>2026-05-03T09:04:41.115Z</time></trkpt><trkpt lat="45.2371683" lon="7.4361283"><ele>603.0</ele><time>2026-05-03T09:04:42.116Z</time></trkpt><trkpt lat="45.2370433" lon="7.4361033"><ele>603.0</ele><time>2026-05-03T09:04:43.118Z</time></trkpt><trkpt lat="45.2369233" lon="7.4360917"><ele>603.0</ele><time>2026-05-03T09:04:44.112Z</time></trkpt><trkpt lat="45.2368017" lon="7.4360633"><ele>603.0</ele><time>2026-05-03T09:04:45.115Z</time></trkpt><trkpt lat="45.2366783" lon="7.436015"><ele>603.0</ele><time>2026-05-03T09:04:46.113Z</time></trkpt><trkpt lat="45.236555" lon="7.4359317"><ele>603.0</ele><time>2026-05-03T09:04:47.113Z</time></trkpt><trkpt lat="45.236445" lon="7.4358"><ele>603.0</ele><time>2026-05-03T09:04:48.112Z</time></trkpt><trkpt lat="45.236345" lon="7.43564"><ele>603.0</ele><time>2026-05-03T09:04:49.12Z</time></trkpt><trkpt lat="45.2362467" lon="7.435505"><ele>602.25</ele><time>2026-05-03T09:04:50.116Z</time></trkpt><trkpt lat="45.236155" lon="7.4353817"><ele>601.5</ele><time>2026-05-03T09:04:51.112Z</time></trkpt><trkpt lat="45.2360667" lon="7.43527"><ele>600.75</ele><time>2026-05-03T09:04:52.113Z</time></trkpt><trkpt lat="45.235975" lon="7.43517"><ele>600.0</ele><time>2026-05-03T09:04:53.114Z</time></trkpt><trkpt lat="45.2359" lon="7.4350517"><ele>600.0</ele><time>2026-05-03T09:04:54.111Z</time></trkpt><trkpt lat="45.2358133" lon="7.434935"><ele>600.0</ele><time>2026-05-03T09:04:55.114Z</time></trkpt><trkpt lat="45.2357367" lon="7.434795"><ele>600.0</ele><time>2026-05-03T09:04:56.111Z</time></trkpt><trkpt lat="45.2356617" lon="7.4346417"><ele>600.0</ele><time>2026-05-03T09:04:57.111Z</time></trkpt><trkpt lat="45.2355867" lon="7.4344933"><ele>598.75</ele><time>2026-05-03T09:04:58.111Z</time></trkpt><trkpt lat="45.23553" lon="7.4343317"><ele>597.5</ele><time>2026-05-03T09:04:59.113Z</time></trkpt><trkpt lat="45.2354917" lon="7.4341483"><ele>596.25</ele><time>2026-05-03T09:05:00.11Z</time></trkpt><trkpt lat="45.2354733" lon="7.4339467"><ele>595.0</ele><time>2026-05-03T09:05:01.111Z</time></trkpt><trkpt lat="45.23548" lon="7.4337317"><ele>594.3333333333334</ele><time>2026-05-03T09:05:02.113Z</time></trkpt><trkpt lat="45.2355" lon="7.4335083"><ele>593.6666666666666</ele><time>2026-05-03T09:05:03.115Z</time></trkpt><trkpt lat="45.2355167" lon="7.4332733"><ele>593.0</ele><time>2026-05-03T09:05:04.114Z</time></trkpt><trkpt lat="45.2355333" lon="7.4330317"><ele>594.3333333333333</ele><time>2026-05-03T09:05:05.125Z</time></trkpt><trkpt lat="45.2355583" lon="7.4327917"><ele>595.6666666666666</ele><time>2026-05-03T09:05:06.117Z</time></trkpt><trkpt lat="45.2355933" lon="7.4325567"><ele>597.0</ele><time>2026-05-03T09:05:07.116Z</time></trkpt><trkpt lat="45.2356333" lon="7.43232"><ele>601.3333333333334</ele><time>2026-05-03T09:05:08.117Z</time></trkpt><trkpt lat="45.2356717" lon="7.4320683"><ele>605.6666666666667</ele><time>2026-05-03T09:05:09.115Z</time></trkpt><trkpt lat="45.2357083" lon="7.43182"><ele>610.0</ele><time>2026-05-03T09:05:10.119Z</time></trkpt><trkpt lat="45.2357417" lon="7.431575"><ele>610.0</ele><time>2026-05-03T09:05:11.118Z</time></trkpt><trkpt lat="45.2357767" lon="7.4313267"><ele>610.0</ele><time>2026-05-03T09:05:12.114Z</time></trkpt><trkpt lat="45.235825" lon="7.43109"><ele>610.0</ele><time>2026-05-03T09:05:13.112Z</time></trkpt><trkpt lat="45.2358817" lon="7.4308683"><ele>608.6666666666667</ele><time>2026-05-03T09:05:14.113Z</time></trkpt><trkpt lat="45.2359483" lon="7.4306583"><ele>607.3333333333334</ele><time>2026-05-03T09:05:15.114Z</time></trkpt><trkpt lat="45.2360067" lon="7.43045"><ele>606.0</ele><time>2026-05-03T09:05:16.113Z</time></trkpt><trkpt lat="45.2360417" lon="7.43023"><ele>604.6666666666666</ele><time>2026-05-03T09:05:17.112Z</time></trkpt><trkpt lat="45.2360767" lon="7.430015"><ele>603.3333333333333</ele><time>2026-05-03T09:05:18.113Z</time></trkpt><trkpt lat="45.236105" lon="7.42979"><ele>602.0</ele><time>2026-05-03T09:05:19.116Z</time></trkpt><trkpt lat="45.2361183" lon="7.4295633"><ele>602.0</ele><time>2026-05-03T09:05:20.12Z</time></trkpt><trkpt lat="45.2361317" lon="7.429345"><ele>602.0</ele><time>2026-05-03T09:05:21.117Z</time></trkpt><trkpt lat="45.2361467" lon="7.4291183"><ele>602.0</ele><time>2026-05-03T09:05:22.117Z</time></trkpt><trkpt lat="45.2361617" lon="7.4289083"><ele>602.3333333333333</ele><time>2026-05-03T09:05:23.116Z</time></trkpt><trkpt lat="45.2361933" lon="7.4287133"><ele>602.6666666666666</ele><time>2026-05-03T09:05:24.111Z</time></trkpt><trkpt lat="45.23624" lon="7.428505"><ele>603.0</ele><time>2026-05-03T09:05:25.113Z</time></trkpt><trkpt lat="45.2363083" lon="7.42828"><ele>603.0</ele><time>2026-05-03T09:05:26.112Z</time></trkpt><trkpt lat="45.2364017" lon="7.4280517"><ele>603.0</ele><time>2026-05-03T09:05:27.115Z</time></trkpt><trkpt lat="45.2365117" lon="7.4278383"><ele>603.0</ele><time>2026-05-03T09:05:28.115Z</time></trkpt><trkpt lat="45.2366267" lon="7.4276183"><ele>605.0</ele><time>2026-05-03T09:05:29.114Z</time></trkpt><trkpt lat="45.236745" lon="7.42741"><ele>607.0</ele><time>2026-05-03T09:05:30.113Z</time></trkpt><trkpt lat="45.23686" lon="7.4272117"><ele>609.0</ele><time>2026-05-03T09:05:31.114Z</time></trkpt><trkpt lat="45.236965" lon="7.427015"><ele>609.0</ele><time>2026-05-03T09:05:32.113Z</time></trkpt><trkpt lat="45.23706" lon="7.4268067"><ele>609.0</ele><time>2026-05-03T09:05:33.112Z</time></trkpt><trkpt lat="45.23715" lon="7.4265733"><ele>609.0</ele><time>2026-05-03T09:05:34.111Z</time></trkpt><trkpt lat="45.2372417" lon="7.42635"><ele>616.3333333333334</ele><time>2026-05-03T09:05:35.114Z</time></trkpt><trkpt lat="45.23733" lon="7.426125"><ele>623.6666666666667</ele><time>2026-05-03T09:05:36.112Z</time></trkpt><trkpt lat="45.2374083" lon="7.4258933"><ele>631.0</ele><time>2026-05-03T09:05:37.113Z</time></trkpt><trkpt lat="45.237465" lon="7.425645"><ele>628.0</ele><time>2026-05-03T09:05:38.114Z</time></trkpt><trkpt lat="45.2375067" lon="7.4253783"><ele>625.0</ele><time>2026-05-03T09:05:39.119Z</time></trkpt><trkpt lat="45.2375567" lon="7.4251017"><ele>622.0</ele><time>2026-05-03T09:05:40.112Z</time></trkpt><trkpt lat="45.2376067" lon="7.4248283"><ele>621.0</ele><time>2026-05-03T09:05:41.116Z</time></trkpt><trkpt lat="45.2376533" lon="7.4245467"><ele>620.0</ele><time>2026-05-03T09:05:42.113Z</time></trkpt><trkpt lat="45.2377" lon="7.4242833"><ele>619.0</ele><time>2026-05-03T09:05:43.112Z</time></trkpt><trkpt lat="45.2377483" lon="7.4240133"><ele>619.3333333333334</ele><time>2026-05-03T09:05:44.114Z</time></trkpt><trkpt lat="45.23779" lon="7.42373"><ele>619.6666666666666</ele><time>2026-05-03T09:05:45.113Z</time></trkpt><trkpt lat="45.2378133" lon="7.4234217"><ele>620.0</ele><time>2026-05-03T09:05:46.112Z</time></trkpt><trkpt lat="45.2378383" lon="7.4231233"><ele>621.0</ele><time>2026-05-03T09:05:47.112Z</time></trkpt><trkpt lat="45.237865" lon="7.4228483"><ele>622.0</ele><time>2026-05-03T09:05:48.111Z</time></trkpt><trkpt lat="45.237875" lon="7.4225917"><ele>623.0</ele><time>2026-05-03T09:05:49.111Z</time></trkpt><trkpt lat="45.237865" lon="7.422345"><ele>624.3333333333333</ele><time>2026-05-03T09:05:50.114Z</time></trkpt><trkpt lat="45.237835" lon="7.4221117"><ele>625.6666666666666</ele><time>2026-05-03T09:05:51.111Z</time></trkpt><trkpt lat="45.2378167" lon="7.4219033"><ele>627.0</ele><time>2026-05-03T09:05:52.113Z</time></trkpt><trkpt lat="45.2378117" lon="7.4217083"><ele>627.0</ele><time>2026-05-03T09:05:53.111Z</time></trkpt><trkpt lat="45.2378267" lon="7.42151"><ele>627.0</ele><time>2026-05-03T09:05:54.113Z</time></trkpt><trkpt lat="45.23786" lon="7.421315"><ele>627.0</ele><time>2026-05-03T09:05:55.116Z</time></trkpt><trkpt lat="45.2378883" lon="7.4211017"><ele>627.0</ele><time>2026-05-03T09:05:56.112Z</time></trkpt><trkpt lat="45.2379067" lon="7.4208767"><ele>627.0</ele><time>2026-05-03T09:05:57.112Z</time></trkpt><trkpt lat="45.2378917" lon="7.420655"><ele>627.0</ele><time>2026-05-03T09:05:58.112Z</time></trkpt><trkpt lat="45.2378517" lon="7.42044"><ele>627.0</ele><time>2026-05-03T09:05:59.112Z</time></trkpt><trkpt lat="45.237785" lon="7.42021"><ele>630.6666666666666</ele><time>2026-05-03T09:06:00.114Z</time></trkpt><trkpt lat="45.237715" lon="7.4199783"><ele>634.3333333333333</ele><time>2026-05-03T09:06:01.111Z</time></trkpt><trkpt lat="45.2376467" lon="7.4197567"><ele>638.0</ele><time>2026-05-03T09:06:02.11Z</time></trkpt><trkpt lat="45.2375633" lon="7.4195083"><ele>636.3333333333333</ele><time>2026-05-03T09:06:03.11Z</time></trkpt><trkpt lat="45.2374767" lon="7.4192617"><ele>634.6666666666666</ele><time>2026-05-03T09:06:04.113Z</time></trkpt><trkpt lat="45.237395" lon="7.4190333"><ele>633.0</ele><time>2026-05-03T09:06:05.111Z</time></trkpt><trkpt lat="45.2373" lon="7.4188067"><ele>633.0</ele><time>2026-05-03T09:06:06.113Z</time></trkpt><trkpt lat="45.2372017" lon="7.4186067"><ele>633.0</ele><time>2026-05-03T09:06:07.112Z</time></trkpt><trkpt lat="45.237105" lon="7.418435"><ele>633.0</ele><time>2026-05-03T09:06:08.111Z</time></trkpt><trkpt lat="45.237035" lon="7.4182633"><ele>633.0</ele><time>2026-05-03T09:06:09.115Z</time></trkpt><trkpt lat="45.23697" lon="7.4181017"><ele>633.0</ele><time>2026-05-03T09:06:10.117Z</time></trkpt><trkpt lat="45.2369267" lon="7.4179183"><ele>633.0</ele><time>2026-05-03T09:06:11.118Z</time></trkpt><trkpt lat="45.2369" lon="7.4177233"><ele>633.0</ele><time>2026-05-03T09:06:12.111Z</time></trkpt><trkpt lat="45.2369" lon="7.41754"><ele>634.75</ele><time>2026-05-03T09:06:13.112Z</time></trkpt><trkpt lat="45.2369217" lon="7.41736"><ele>636.5</ele><time>2026-05-03T09:06:14.112Z</time></trkpt><trkpt lat="45.2369283" lon="7.4171983"><ele>638.25</ele><time>2026-05-03T09:06:15.113Z</time></trkpt><trkpt lat="45.2369083" lon="7.4170433"><ele>640.0</ele><time>2026-05-03T09:06:16.111Z</time></trkpt><trkpt lat="45.2368533" lon="7.416885"><ele>642.5</ele><time>2026-05-03T09:06:17.111Z</time></trkpt><trkpt lat="45.2367867" lon="7.4167267"><ele>645.0</ele><time>2026-05-03T09:06:18.112Z</time></trkpt><trkpt lat="45.236705" lon="7.41656"><ele>647.5</ele><time>2026-05-03T09:06:19.112Z</time></trkpt><trkpt lat="45.2366233" lon="7.4163967"><ele>650.0</ele><time>2026-05-03T09:06:20.113Z</time></trkpt><trkpt lat="45.2365467" lon="7.416245"><ele>650.8</ele><time>2026-05-03T09:06:21.114Z</time></trkpt><trkpt lat="45.2364933" lon="7.4161133"><ele>651.6</ele><time>2026-05-03T09:06:22.113Z</time></trkpt><trkpt lat="45.236465" lon="7.4159783"><ele>652.4000000000001</ele><time>2026-05-03T09:06:23.11Z</time></trkpt><trkpt lat="45.23646" lon="7.4158367"><ele>653.2</ele><time>2026-05-03T09:06:24.11Z</time></trkpt><trkpt lat="45.2364783" lon="7.4156917"><ele>654.0</ele><time>2026-05-03T09:06:25.11Z</time></trkpt><trkpt lat="45.236525" lon="7.4155417"><ele>652.25</ele><time>2026-05-03T09:06:26.114Z</time></trkpt><trkpt lat="45.2366283" lon="7.4153967"><ele>650.5</ele><time>2026-05-03T09:06:27.118Z</time></trkpt><trkpt lat="45.23672" lon="7.41524"><ele>648.75</ele><time>2026-05-03T09:06:28.113Z</time></trkpt><trkpt lat="45.23679" lon="7.415045"><ele>647.0</ele><time>2026-05-03T09:06:29.113Z</time></trkpt><trkpt lat="45.2368333" lon="7.4148283"><ele>644.75</ele><time>2026-05-03T09:06:30.117Z</time></trkpt><trkpt lat="45.2368683" lon="7.4146333"><ele>642.5</ele><time>2026-05-03T09:06:31.113Z</time></trkpt><trkpt lat="45.2369033" lon="7.41444"><ele>640.25</ele><time>2026-05-03T09:06:32.114Z</time></trkpt><trkpt lat="45.236935" lon="7.4142683"><ele>638.0</ele><time>2026-05-03T09:06:33.112Z</time></trkpt><trkpt lat="45.2369717" lon="7.4141067"><ele>638.0</ele><time>2026-05-03T09:06:34.113Z</time></trkpt><trkpt lat="45.23703" lon="7.4139567"><ele>638.0</ele><time>2026-05-03T09:06:35.111Z</time></trkpt><trkpt lat="45.237105" lon="7.4138133"><ele>638.0</ele><time>2026-05-03T09:06:36.113Z</time></trkpt><trkpt lat="45.2371933" lon="7.41367"><ele>638.0</ele><time>2026-05-03T09:06:37.114Z</time></trkpt><trkpt lat="45.2372733" lon="7.4135433"><ele>645.25</ele><time>2026-05-03T09:06:38.116Z</time></trkpt><trkpt lat="45.2373783" lon="7.4134517"><ele>652.5</ele><time>2026-05-03T09:06:39.118Z</time></trkpt><trkpt lat="45.23749" lon="7.4133317"><ele>659.75</ele><time>2026-05-03T09:06:40.114Z</time></trkpt><trkpt lat="45.2375917" lon="7.4132467"><ele>667.0</ele><time>2026-05-03T09:06:41.115Z</time></trkpt><trkpt lat="45.237665" lon="7.4131317"><ele>663.75</ele><time>2026-05-03T09:06:42.113Z</time></trkpt><trkpt lat="45.2376933" lon="7.41297"><ele>660.5</ele><time>2026-05-03T09:06:43.112Z</time></trkpt><trkpt lat="45.2377183" lon="7.412795"><ele>657.25</ele><time>2026-05-03T09:06:44.113Z</time></trkpt><trkpt lat="45.237765" lon="7.4126183"><ele>654.0</ele><time>2026-05-03T09:06:45.113Z</time></trkpt><trkpt lat="45.2378217" lon="7.41244"><ele>654.0</ele><time>2026-05-03T09:06:46.114Z</time></trkpt><trkpt lat="45.23789" lon="7.4122733"><ele>654.0</ele><time>2026-05-03T09:06:47.109Z</time></trkpt><trkpt lat="45.2379783" lon="7.41213"><ele>654.0</ele><time>2026-05-03T09:06:48.115Z</time></trkpt><trkpt lat="45.2380933" lon="7.4120067"><ele>654.0</ele><time>2026-05-03T09:06:49.112Z</time></trkpt><trkpt lat="45.2382317" lon="7.411875"><ele>659.3333333333334</ele><time>2026-05-03T09:06:50.114Z</time></trkpt><trkpt lat="45.23837" lon="7.411745"><ele>664.6666666666667</ele><time>2026-05-03T09:06:51.113Z</time></trkpt><trkpt lat="45.2385217" lon="7.411635"><ele>670.0</ele><time>2026-05-03T09:06:52.115Z</time></trkpt><trkpt lat="45.238665" lon="7.4115233"><ele>670.0</ele><time>2026-05-03T09:06:53.113Z</time></trkpt><trkpt lat="45.2387983" lon="7.411425"><ele>670.0</ele><time>2026-05-03T09:06:54.112Z</time></trkpt><trkpt lat="45.2389383" lon="7.4113333"><ele>670.0</ele><time>2026-05-03T09:06:55.114Z</time></trkpt><trkpt lat="45.2390583" lon="7.4112417"><ele>670.0</ele><time>2026-05-03T09:06:56.114Z</time></trkpt><trkpt lat="45.2391817" lon="7.4111933"><ele>673.5</ele><time>2026-05-03T09:06:57.114Z</time></trkpt><trkpt lat="45.2392683" lon="7.411145"><ele>677.0</ele><time>2026-05-03T09:06:58.111Z</time></trkpt><trkpt lat="45.239345" lon="7.411065"><ele>680.5</ele><time>2026-05-03T09:06:59.112Z</time></trkpt><trkpt lat="45.2393667" lon="7.4109683"><ele>684.0</ele><time>2026-05-03T09:07:00.113Z</time></trkpt><trkpt lat="45.239385" lon="7.4108817"><ele>687.5</ele><time>2026-05-03T09:07:01.114Z</time></trkpt><trkpt lat="45.2393733" lon="7.4107783"><ele>691.0</ele><time>2026-05-03T09:07:02.113Z</time></trkpt><trkpt lat="45.23932" lon="7.4107"><ele>691.0</ele><time>2026-05-03T09:07:03.115Z</time></trkpt><trkpt lat="45.2392233" lon="7.4106433"><ele>691.0</ele><time>2026-05-03T09:07:04.112Z</time></trkpt><trkpt lat="45.239085" lon="7.4106217"><ele>691.0</ele><time>2026-05-03T09:07:05.112Z</time></trkpt><trkpt lat="45.2389167" lon="7.4106167"><ele>691.0</ele><time>2026-05-03T09:07:06.113Z</time></trkpt><trkpt lat="45.238785" lon="7.4105983"><ele>692.4</ele><time>2026-05-03T09:07:07.112Z</time></trkpt><trkpt lat="45.2386717" lon="7.41058"><ele>693.8</ele><time>2026-05-03T09:07:08.114Z</time></trkpt><trkpt lat="45.2385733" lon="7.4105483"><ele>695.1999999999999</ele><time>2026-05-03T09:07:09.113Z</time></trkpt><trkpt lat="45.23849" lon="7.4104817"><ele>696.5999999999999</ele><time>2026-05-03T09:07:10.119Z</time></trkpt><trkpt lat="45.23841" lon="7.4104167"><ele>698.0</ele><time>2026-05-03T09:07:11.115Z</time></trkpt><trkpt lat="45.23834" lon="7.4103567"><ele>698.0</ele><time>2026-05-03T09:07:12.112Z</time></trkpt><trkpt lat="45.23837" lon="7.4101917"><ele>698.0</ele><time>2026-05-03T09:07:13.112Z</time></trkpt><trkpt lat="45.2383433" lon="7.41008"><ele>698.0</ele><time>2026-05-03T09:07:14.113Z</time></trkpt><trkpt lat="45.2383117" lon="7.4099483"><ele>698.0</ele><time>2026-05-03T09:07:15.115Z</time></trkpt><trkpt lat="45.2382783" lon="7.4098167"><ele>698.0</ele><time>2026-05-03T09:07:16.11Z</time></trkpt><trkpt lat="45.2382133" lon="7.4097117"><ele>696.4</ele><time>2026-05-03T09:07:17.112Z</time></trkpt><trkpt lat="45.23816" lon="7.4096367"><ele>694.8</ele><time>2026-05-03T09:07:18.113Z</time></trkpt><trkpt lat="45.2380867" lon="7.4095633"><ele>693.2</ele><time>2026-05-03T09:07:19.114Z</time></trkpt><trkpt lat="45.238" lon="7.4094967"><ele>691.6</ele><time>2026-05-03T09:07:20.114Z</time></trkpt><trkpt lat="45.2379217" lon="7.40941"><ele>690.0</ele><time>2026-05-03T09:07:21.114Z</time></trkpt><trkpt lat="45.23785" lon="7.4093"><ele>690.0</ele><time>2026-05-03T09:07:22.113Z</time></trkpt><trkpt lat="45.2378033" lon="7.4091667"><ele>690.0</ele><time>2026-05-03T09:07:23.113Z</time></trkpt><trkpt lat="45.2377533" lon="7.4090117"><ele>690.0</ele><time>2026-05-03T09:07:24.113Z</time></trkpt><trkpt lat="45.2376883" lon="7.4088567"><ele>690.0</ele><time>2026-05-03T09:07:25.113Z</time></trkpt><trkpt lat="45.2376167" lon="7.4087067"><ele>688.75</ele><time>2026-05-03T09:07:26.112Z</time></trkpt><trkpt lat="45.23753" lon="7.40854"><ele>687.5</ele><time>2026-05-03T09:07:27.114Z</time></trkpt><trkpt lat="45.2374467" lon="7.4083817"><ele>686.25</ele><time>2026-05-03T09:07:28.114Z</time></trkpt><trkpt lat="45.2373717" lon="7.4082317"><ele>685.0</ele><time>2026-05-03T09:07:29.114Z</time></trkpt><trkpt lat="45.2373" lon="7.4081017"><ele>688.5</ele><time>2026-05-03T09:07:30.11Z</time></trkpt><trkpt lat="45.237235" lon="7.4079717"><ele>692.0</ele><time>2026-05-03T09:07:31.116Z</time></trkpt><trkpt lat="45.2371783" lon="7.4078267"><ele>695.5</ele><time>2026-05-03T09:07:32.117Z</time></trkpt><trkpt lat="45.2371283" lon="7.4076717"><ele>699.0</ele><time>2026-05-03T09:07:33.11Z</time></trkpt><trkpt lat="45.2370933" lon="7.4074717"><ele>699.0</ele><time>2026-05-03T09:07:34.113Z</time></trkpt><trkpt lat="45.2370667" lon="7.4072383"><ele>699.0</ele><time>2026-05-03T09:07:35.11Z</time></trkpt><trkpt lat="45.2370383" lon="7.407"><ele>699.0</ele><time>2026-05-03T09:07:36.111Z</time></trkpt><trkpt lat="45.2370183" lon="7.4066983"><ele>702.0</ele><time>2026-05-03T09:07:37.113Z</time></trkpt><trkpt lat="45.2369817" lon="7.406395"><ele>705.0</ele><time>2026-05-03T09:07:38.116Z</time></trkpt><trkpt lat="45.2369433" lon="7.4060433"><ele>709.0</ele><time>2026-05-03T09:07:39.114Z</time></trkpt><trkpt lat="45.2368983" lon="7.4057133"><ele>713.0</ele><time>2026-05-03T09:07:40.113Z</time></trkpt><trkpt lat="45.2368517" lon="7.40539"><ele>715.5</ele><time>2026-05-03T09:07:41.111Z</time></trkpt><trkpt lat="45.2368017" lon="7.4050583"><ele>718.0</ele><time>2026-05-03T09:07:42.112Z</time></trkpt><trkpt lat="45.2367483" lon="7.4047133"><ele>719.0</ele><time>2026-05-03T09:07:43.115Z</time></trkpt><trkpt lat="45.2366917" lon="7.4044017"><ele>720.0</ele><time>2026-05-03T09:07:44.11Z</time></trkpt><trkpt lat="45.2366467" lon="7.4041367"><ele>721.0</ele><time>2026-05-03T09:07:45.11Z</time></trkpt><trkpt lat="45.2366267" lon="7.4038917"><ele>721.0</ele><time>2026-05-03T09:07:46.112Z</time></trkpt><trkpt lat="45.23662" lon="7.4036467"><ele>721.0</ele><time>2026-05-03T09:07:47.111Z</time></trkpt><trkpt lat="45.2366333" lon="7.4034083"><ele>721.0</ele><time>2026-05-03T09:07:48.112Z</time></trkpt><trkpt lat="45.23666" lon="7.403175"><ele>721.6666666666667</ele><time>2026-05-03T09:07:49.113Z</time></trkpt><trkpt lat="45.2366817" lon="7.4029383"><ele>722.3333333333334</ele><time>2026-05-03T09:07:50.113Z</time></trkpt><trkpt lat="45.2367" lon="7.4027133"><ele>723.0</ele><time>2026-05-03T09:07:51.113Z</time></trkpt><trkpt lat="45.236725" lon="7.4025083"><ele>723.0</ele><time>2026-05-03T09:07:52.109Z</time></trkpt><trkpt lat="45.236765" lon="7.4023117"><ele>723.0</ele><time>2026-05-03T09:07:53.111Z</time></trkpt><trkpt lat="45.236815" lon="7.4021183"><ele>723.0</ele><time>2026-05-03T09:07:54.112Z</time></trkpt><trkpt lat="45.2368767" lon="7.4019333"><ele>723.0</ele><time>2026-05-03T09:07:55.112Z</time></trkpt><trkpt lat="45.23693" lon="7.40176"><ele>723.25</ele><time>2026-05-03T09:07:56.115Z</time></trkpt><trkpt lat="45.2369817" lon="7.4015933"><ele>723.5</ele><time>2026-05-03T09:07:57.114Z</time></trkpt><trkpt lat="45.23704" lon="7.401445"><ele>723.75</ele><time>2026-05-03T09:07:58.112Z</time></trkpt><trkpt lat="45.2371233" lon="7.4013167"><ele>724.0</ele><time>2026-05-03T09:07:59.113Z</time></trkpt><trkpt lat="45.237215" lon="7.4011833"><ele>725.25</ele><time>2026-05-03T09:08:00.115Z</time></trkpt><trkpt lat="45.237325" lon="7.4010583"><ele>726.5</ele><time>2026-05-03T09:08:01.116Z</time></trkpt><trkpt lat="45.2374333" lon="7.4009333"><ele>727.75</ele><time>2026-05-03T09:08:02.114Z</time></trkpt><trkpt lat="45.2375617" lon="7.4008317"><ele>729.0</ele><time>2026-05-03T09:08:03.112Z</time></trkpt><trkpt lat="45.2376583" lon="7.40073"><ele>729.0</ele><time>2026-05-03T09:08:04.113Z</time></trkpt><trkpt lat="45.2377417" lon="7.4006383"><ele>729.0</ele><time>2026-05-03T09:08:05.116Z</time></trkpt><trkpt lat="45.23779" lon="7.400545"><ele>729.0</ele><time>2026-05-03T09:08:06.111Z</time></trkpt><trkpt lat="45.2378117" lon="7.4004417"><ele>729.0</ele><time>2026-05-03T09:08:07.113Z</time></trkpt><trkpt lat="45.2377783" lon="7.4003467"><ele>729.0</ele><time>2026-05-03T09:08:08.112Z</time></trkpt><trkpt lat="45.237745" lon="7.4002417"><ele>729.0</ele><time>2026-05-03T09:08:09.113Z</time></trkpt><trkpt lat="45.2376883" lon="7.4001367"><ele>728.8000000000001</ele><time>2026-05-03T09:08:10.113Z</time></trkpt><trkpt lat="45.2376283" lon="7.4000117"><ele>728.6</ele><time>2026-05-03T09:08:11.114Z</time></trkpt><trkpt lat="45.2375867" lon="7.3998983"><ele>728.4</ele><time>2026-05-03T09:08:12.114Z</time></trkpt><trkpt lat="45.2375683" lon="7.3997883"><ele>728.2</ele><time>2026-05-03T09:08:13.11Z</time></trkpt><trkpt lat="45.237565" lon="7.3996833"><ele>728.0</ele><time>2026-05-03T09:08:14.115Z</time></trkpt><trkpt lat="45.2376317" lon="7.3995417"><ele>725.5999999999999</ele><time>2026-05-03T09:08:15.112Z</time></trkpt><trkpt lat="45.2377033" lon="7.3994033"><ele>723.1999999999999</ele><time>2026-05-03T09:08:16.113Z</time></trkpt><trkpt lat="45.237785" lon="7.399285"><ele>720.8</ele><time>2026-05-03T09:08:17.112Z</time></trkpt><trkpt lat="45.23787" lon="7.399215"><ele>718.4</ele><time>2026-05-03T09:08:18.111Z</time></trkpt><trkpt lat="45.2379617" lon="7.3991583"><ele>716.0</ele><time>2026-05-03T09:08:19.113Z</time></trkpt><trkpt lat="45.2380633" lon="7.3991283"><ele>720.1666666666666</ele><time>2026-05-03T09:08:20.111Z</time></trkpt><trkpt lat="45.2381567" lon="7.3991033"><ele>724.3333333333333</ele><time>2026-05-03T09:08:21.113Z</time></trkpt><trkpt lat="45.2382333" lon="7.39906"><ele>728.5</ele><time>2026-05-03T09:08:22.11Z</time></trkpt><trkpt lat="45.2382783" lon="7.398975"><ele>732.6666666666666</ele><time>2026-05-03T09:08:23.111Z</time></trkpt><trkpt lat="45.23831" lon="7.3988783"><ele>736.8333333333334</ele><time>2026-05-03T09:08:24.111Z</time></trkpt><trkpt lat="45.2382917" lon="7.3987367"><ele>741.0</ele><time>2026-05-03T09:08:25.114Z</time></trkpt><trkpt lat="45.2382617" lon="7.3985767"><ele>742.75</ele><time>2026-05-03T09:08:26.113Z</time></trkpt><trkpt lat="45.2381983" lon="7.3984217"><ele>744.5</ele><time>2026-05-03T09:08:27.113Z</time></trkpt><trkpt lat="45.2381217" lon="7.39827"><ele>746.25</ele><time>2026-05-03T09:08:28.111Z</time></trkpt><trkpt lat="45.23803" lon="7.39813"><ele>748.0</ele><time>2026-05-03T09:08:29.115Z</time></trkpt><trkpt lat="45.2379217" lon="7.3980033"><ele>745.5</ele><time>2026-05-03T09:08:30.114Z</time></trkpt><trkpt lat="45.237805" lon="7.3978733"><ele>743.0</ele><time>2026-05-03T09:08:31.116Z</time></trkpt><trkpt lat="45.2376933" lon="7.3977367"><ele>740.5</ele><time>2026-05-03T09:08:32.113Z</time></trkpt><trkpt lat="45.237585" lon="7.39759"><ele>738.0</ele><time>2026-05-03T09:08:33.116Z</time></trkpt><trkpt lat="45.23748" lon="7.3974433"><ele>738.0</ele><time>2026-05-03T09:08:34.115Z</time></trkpt><trkpt lat="45.2373933" lon="7.3972883"><ele>738.0</ele><time>2026-05-03T09:08:35.112Z</time></trkpt><trkpt lat="45.23733" lon="7.39712"><ele>738.0</ele><time>2026-05-03T09:08:36.112Z</time></trkpt><trkpt lat="45.23727" lon="7.396945"><ele>738.0</ele><time>2026-05-03T09:08:37.111Z</time></trkpt><trkpt lat="45.237195" lon="7.3967983"><ele>736.5</ele><time>2026-05-03T09:08:38.11Z</time></trkpt><trkpt lat="45.2371017" lon="7.3966683"><ele>735.0</ele><time>2026-05-03T09:08:39.116Z</time></trkpt><trkpt lat="45.2369867" lon="7.396585"><ele>733.5</ele><time>2026-05-03T09:08:40.114Z</time></trkpt><trkpt lat="45.23685" lon="7.396515"><ele>732.0</ele><time>2026-05-03T09:08:41.112Z</time></trkpt><trkpt lat="45.2367133" lon="7.39646"><ele>732.0</ele><time>2026-05-03T09:08:42.112Z</time></trkpt><trkpt lat="45.2365883" lon="7.3963867"><ele>732.0</ele><time>2026-05-03T09:08:43.116Z</time></trkpt><trkpt lat="45.2364867" lon="7.3962933"><ele>732.0</ele><time>2026-05-03T09:08:44.115Z</time></trkpt><trkpt lat="45.2364" lon="7.396155"><ele>732.0</ele><time>2026-05-03T09:08:45.114Z</time></trkpt><trkpt lat="45.2363233" lon="7.3959867"><ele>723.8</ele><time>2026-05-03T09:08:46.111Z</time></trkpt><trkpt lat="45.2362717" lon="7.3958183"><ele>715.6</ele><time>2026-05-03T09:08:47.113Z</time></trkpt><trkpt lat="45.23624" lon="7.39567"><ele>707.4</ele><time>2026-05-03T09:08:48.112Z</time></trkpt><trkpt lat="45.2362283" lon="7.3955233"><ele>699.1999999999999</ele><time>2026-05-03T09:08:49.114Z</time></trkpt><trkpt lat="45.2362417" lon="7.3953883"><ele>691.0</ele><time>2026-05-03T09:08:50.112Z</time></trkpt><trkpt lat="45.2362817" lon="7.3952533"><ele>689.5</ele><time>2026-05-03T09:08:51.112Z</time></trkpt><trkpt lat="45.2363683" lon="7.3951383"><ele>688.0</ele><time>2026-05-03T09:08:52.111Z</time></trkpt><trkpt lat="45.2364667" lon="7.39503"><ele>686.5</ele><time>2026-05-03T09:08:53.114Z</time></trkpt><trkpt lat="45.2365583" lon="7.3949083"><ele>685.0</ele><time>2026-05-03T09:08:54.113Z</time></trkpt><trkpt lat="45.2366333" lon="7.3947717"><ele>697.5</ele><time>2026-05-03T09:08:55.114Z</time></trkpt><trkpt lat="45.2366783" lon="7.3946117"><ele>710.0</ele><time>2026-05-03T09:08:56.111Z</time></trkpt><trkpt lat="45.2366933" lon="7.394455"><ele>722.5</ele><time>2026-05-03T09:08:57.115Z</time></trkpt><trkpt lat="45.2367183" lon="7.3942717"><ele>735.0</ele><time>2026-05-03T09:08:58.116Z</time></trkpt><trkpt lat="45.236745" lon="7.394075"><ele>735.0</ele><time>2026-05-03T09:08:59.117Z</time></trkpt><trkpt lat="45.2367833" lon="7.3938867"><ele>735.0</ele><time>2026-05-03T09:09:00.112Z</time></trkpt><trkpt lat="45.236835" lon="7.393695"><ele>735.0</ele><time>2026-05-03T09:09:01.112Z</time></trkpt><trkpt lat="45.2369033" lon="7.3935017"><ele>735.0</ele><time>2026-05-03T09:09:02.111Z</time></trkpt><trkpt lat="45.2369767" lon="7.3933067"><ele>731.3333333333334</ele><time>2026-05-03T09:09:03.117Z</time></trkpt><trkpt lat="45.23706" lon="7.3931133"><ele>727.6666666666667</ele><time>2026-05-03T09:09:04.112Z</time></trkpt><trkpt lat="45.2371683" lon="7.3929483"><ele>724.0</ele><time>2026-05-03T09:09:05.114Z</time></trkpt><trkpt lat="45.237275" lon="7.3928033"><ele>728.0</ele><time>2026-05-03T09:09:06.114Z</time></trkpt><trkpt lat="45.2373933" lon="7.39267"><ele>732.0</ele><time>2026-05-03T09:09:07.114Z</time></trkpt><trkpt lat="45.2375217" lon="7.39253"><ele>736.0</ele><time>2026-05-03T09:09:08.111Z</time></trkpt><trkpt lat="45.237655" lon="7.392365"><ele>736.0</ele><time>2026-05-03T09:09:09.112Z</time></trkpt><trkpt lat="45.2377717" lon="7.39221"><ele>736.0</ele><time>2026-05-03T09:09:10.115Z</time></trkpt><trkpt lat="45.23788" lon="7.3920517"><ele>736.0</ele><time>2026-05-03T09:09:11.111Z</time></trkpt><trkpt lat="45.2379733" lon="7.3918867"><ele>738.6666666666667</ele><time>2026-05-03T09:09:12.116Z</time></trkpt><trkpt lat="45.238075" lon="7.391725"><ele>741.3333333333334</ele><time>2026-05-03T09:09:13.115Z</time></trkpt><trkpt lat="45.23819" lon="7.3915667"><ele>744.0</ele><time>2026-05-03T09:09:14.117Z</time></trkpt><trkpt lat="45.2383017" lon="7.3913967"><ele>740.0</ele><time>2026-05-03T09:09:15.115Z</time></trkpt><trkpt lat="45.238425" lon="7.3912233"><ele>736.0</ele><time>2026-05-03T09:09:16.11Z</time></trkpt><trkpt lat="45.2385333" lon="7.3910717"><ele>732.0</ele><time>2026-05-03T09:09:17.112Z</time></trkpt><trkpt lat="45.2386283" lon="7.3909283"><ele>732.0</ele><time>2026-05-03T09:09:18.112Z</time></trkpt><trkpt lat="45.23872" lon="7.3908017"><ele>732.0</ele><time>2026-05-03T09:09:19.113Z</time></trkpt><trkpt lat="45.2387783" lon="7.39071"><ele>732.0</ele><time>2026-05-03T09:09:20.112Z</time></trkpt><trkpt lat="45.238805" lon="7.390615"><ele>732.0</ele><time>2026-05-03T09:09:21.109Z</time></trkpt><trkpt lat="45.2388117" lon="7.3905117"><ele>732.0</ele><time>2026-05-03T09:09:22.111Z</time></trkpt><trkpt lat="45.23881" lon="7.3904117"><ele>732.0</ele><time>2026-05-03T09:09:23.109Z</time></trkpt><trkpt lat="45.2388233" lon="7.3902967"><ele>737.0</ele><time>2026-05-03T09:09:24.111Z</time></trkpt><trkpt lat="45.2387733" lon="7.3902333"><ele>742.0</ele><time>2026-05-03T09:09:25.11Z</time></trkpt><trkpt lat="45.2386783" lon="7.3902333"><ele>747.0</ele><time>2026-05-03T09:09:26.119Z</time></trkpt><trkpt lat="45.2385667" lon="7.3902067"><ele>752.0</ele><time>2026-05-03T09:09:27.113Z</time></trkpt><trkpt lat="45.238375" lon="7.3903383"><ele>752.0</ele><time>2026-05-03T09:09:28.112Z</time></trkpt><trkpt lat="45.2382267" lon="7.3903733"><ele>752.0</ele><time>2026-05-03T09:09:29.108Z</time></trkpt><trkpt lat="45.2380967" lon="7.390405"><ele>752.0</ele><time>2026-05-03T09:09:30.115Z</time></trkpt><trkpt lat="45.2379683" lon="7.3904317"><ele>752.0</ele><time>2026-05-03T09:09:31.114Z</time></trkpt><trkpt lat="45.237855" lon="7.3904217"><ele>746.0</ele><time>2026-05-03T09:09:32.115Z</time></trkpt><trkpt lat="45.237755" lon="7.390405"><ele>740.0</ele><time>2026-05-03T09:09:33.112Z</time></trkpt><trkpt lat="45.2376767" lon="7.39031"><ele>734.0</ele><time>2026-05-03T09:09:34.112Z</time></trkpt><trkpt lat="45.2376117" lon="7.390195"><ele>728.0</ele><time>2026-05-03T09:09:35.11Z</time></trkpt><trkpt lat="45.237565" lon="7.3900383"><ele>722.0</ele><time>2026-05-03T09:09:36.111Z</time></trkpt><trkpt lat="45.2375083" lon="7.3899183"><ele>722.0</ele><time>2026-05-03T09:09:37.113Z</time></trkpt><trkpt lat="45.2374633" lon="7.3898217"><ele>722.0</ele><time>2026-05-03T09:09:38.111Z</time></trkpt><trkpt lat="45.2374383" lon="7.389705"><ele>722.0</ele><time>2026-05-03T09:09:39.115Z</time></trkpt><trkpt lat="45.237435" lon="7.3895917"><ele>722.0</ele><time>2026-05-03T09:09:40.115Z</time></trkpt><trkpt lat="45.2374633" lon="7.38947"><ele>722.0</ele><time>2026-05-03T09:09:41.113Z</time></trkpt><trkpt lat="45.2375767" lon="7.3893517"><ele>718.6666666666666</ele><time>2026-05-03T09:09:42.112Z</time></trkpt><trkpt lat="45.23768" lon="7.3892217"><ele>715.3333333333334</ele><time>2026-05-03T09:09:43.114Z</time></trkpt><trkpt lat="45.23781" lon="7.3890667"><ele>712.0</ele><time>2026-05-03T09:09:44.111Z</time></trkpt><trkpt lat="45.2379417" lon="7.3889017"><ele>709.3333333333334</ele><time>2026-05-03T09:09:45.11Z</time></trkpt><trkpt lat="45.23806" lon="7.3887583"><ele>706.6666666666666</ele><time>2026-05-03T09:09:46.113Z</time></trkpt><trkpt lat="45.2381783" lon="7.388635"><ele>704.0</ele><time>2026-05-03T09:09:47.114Z</time></trkpt><trkpt lat="45.2382917" lon="7.3885"><ele>710.75</ele><time>2026-05-03T09:09:48.113Z</time></trkpt><trkpt lat="45.238405" lon="7.3883617"><ele>717.5</ele><time>2026-05-03T09:09:49.114Z</time></trkpt><trkpt lat="45.2385167" lon="7.3882417"><ele>724.25</ele><time>2026-05-03T09:09:50.114Z</time></trkpt><trkpt lat="45.238635" lon="7.3881283"><ele>731.0</ele><time>2026-05-03T09:09:51.112Z</time></trkpt><trkpt lat="45.23875" lon="7.3880367"><ele>733.0</ele><time>2026-05-03T09:09:52.112Z</time></trkpt><trkpt lat="45.2388483" lon="7.3879517"><ele>735.0</ele><time>2026-05-03T09:09:53.114Z</time></trkpt><trkpt lat="45.2389333" lon="7.387875"><ele>737.0</ele><time>2026-05-03T09:09:54.116Z</time></trkpt><trkpt lat="45.2389917" lon="7.38781"><ele>739.0</ele><time>2026-05-03T09:09:55.112Z</time></trkpt><trkpt lat="45.2390533" lon="7.38774"><ele>741.0</ele><time>2026-05-03T09:09:56.113Z</time></trkpt><trkpt lat="45.2390917" lon="7.3876667"><ele>743.0</ele><time>2026-05-03T09:09:57.112Z</time></trkpt><trkpt lat="45.2391067" lon="7.3875683"><ele>743.0</ele><time>2026-05-03T09:09:59.112Z</time></trkpt><trkpt lat="45.23899" lon="7.3875433"><ele>743.0</ele><time>2026-05-03T09:10:00.115Z</time></trkpt><trkpt lat="45.2389317" lon="7.3874767"><ele>743.0</ele><time>2026-05-03T09:10:01.115Z</time></trkpt><trkpt lat="45.2388667" lon="7.3874067"><ele>743.0</ele><time>2026-05-03T09:10:02.111Z</time></trkpt><trkpt lat="45.238785" lon="7.38735"><ele>743.0</ele><time>2026-05-03T09:10:03.113Z</time></trkpt><trkpt lat="45.2386933" lon="7.3872867"><ele>743.0</ele><time>2026-05-03T09:10:04.115Z</time></trkpt><trkpt lat="45.2385633" lon="7.387295"><ele>743.0</ele><time>2026-05-03T09:10:05.115Z</time></trkpt><trkpt lat="45.2384417" lon="7.3872817"><ele>743.0</ele><time>2026-05-03T09:10:06.111Z</time></trkpt><trkpt lat="45.2383233" lon="7.3872817"><ele>743.0</ele><time>2026-05-03T09:10:07.11Z</time></trkpt><trkpt lat="45.2382" lon="7.3872667"><ele>736.5</ele><time>2026-05-03T09:10:08.115Z</time></trkpt><trkpt lat="45.2379733" lon="7.3872667"><ele>730.0</ele><time>2026-05-03T09:10:09.113Z</time></trkpt><trkpt lat="45.2378683" lon="7.3872117"><ele>723.5</ele><time>2026-05-03T09:10:10.112Z</time></trkpt><trkpt lat="45.2378083" lon="7.3870833"><ele>717.0</ele><time>2026-05-03T09:10:11.114Z</time></trkpt><trkpt lat="45.2378517" lon="7.386875"><ele>717.0</ele><time>2026-05-03T09:10:12.112Z</time></trkpt><trkpt lat="45.2378283" lon="7.3867483"><ele>717.0</ele><time>2026-05-03T09:10:13.11Z</time></trkpt><trkpt lat="45.237865" lon="7.3865717"><ele>717.0</ele><time>2026-05-03T09:10:14.108Z</time></trkpt><trkpt lat="45.2379233" lon="7.3863617"><ele>717.0</ele><time>2026-05-03T09:10:15.116Z</time></trkpt><trkpt lat="45.2379817" lon="7.3861267"><ele>717.3333333333334</ele><time>2026-05-03T09:10:16.111Z</time></trkpt><trkpt lat="45.2380333" lon="7.3859117"><ele>717.6666666666667</ele><time>2026-05-03T09:10:17.112Z</time></trkpt><trkpt lat="45.2380817" lon="7.3857083"><ele>718.0</ele><time>2026-05-03T09:10:18.116Z</time></trkpt><trkpt lat="45.2381283" lon="7.3855167"><ele>719.5</ele><time>2026-05-03T09:10:19.117Z</time></trkpt><trkpt lat="45.238165" lon="7.38533"><ele>721.0</ele><time>2026-05-03T09:10:20.113Z</time></trkpt><trkpt lat="45.2381867" lon="7.38514"><ele>722.5</ele><time>2026-05-03T09:10:21.112Z</time></trkpt><trkpt lat="45.2381633" lon="7.38494"><ele>724.0</ele><time>2026-05-03T09:10:22.113Z</time></trkpt><trkpt lat="45.2381283" lon="7.3847467"><ele>724.75</ele><time>2026-05-03T09:10:23.115Z</time></trkpt><trkpt lat="45.238085" lon="7.3845667"><ele>725.5</ele><time>2026-05-03T09:10:24.112Z</time></trkpt><trkpt lat="45.2380583" lon="7.3843917"><ele>726.25</ele><time>2026-05-03T09:10:25.111Z</time></trkpt><trkpt lat="45.238035" lon="7.3842"><ele>727.0</ele><time>2026-05-03T09:10:26.109Z</time></trkpt><trkpt lat="45.2380167" lon="7.3840317"><ele>727.0</ele><time>2026-05-03T09:10:27.111Z</time></trkpt><trkpt lat="45.23801" lon="7.383875"><ele>727.0</ele><time>2026-05-03T09:10:28.109Z</time></trkpt><trkpt lat="45.237975" lon="7.38374"><ele>727.0</ele><time>2026-05-03T09:10:29.109Z</time></trkpt><trkpt lat="45.2379167" lon="7.3836067"><ele>727.0</ele><time>2026-05-03T09:10:30.109Z</time></trkpt><trkpt lat="45.237865" lon="7.383495"><ele>727.0</ele><time>2026-05-03T09:10:31.11Z</time></trkpt><trkpt lat="45.2378267" lon="7.3833517"><ele>727.25</ele><time>2026-05-03T09:10:32.109Z</time></trkpt><trkpt lat="45.23782" lon="7.3831967"><ele>727.5</ele><time>2026-05-03T09:10:33.111Z</time></trkpt><trkpt lat="45.23782" lon="7.3830183"><ele>727.75</ele><time>2026-05-03T09:10:34.11Z</time></trkpt><trkpt lat="45.23784" lon="7.3828283"><ele>728.0</ele><time>2026-05-03T09:10:35.11Z</time></trkpt><trkpt lat="45.2378583" lon="7.3826567"><ele>726.0</ele><time>2026-05-03T09:10:36.109Z</time></trkpt><trkpt lat="45.237895" lon="7.3824933"><ele>724.0</ele><time>2026-05-03T09:10:37.111Z</time></trkpt><trkpt lat="45.237945" lon="7.3823367"><ele>722.0</ele><time>2026-05-03T09:10:38.111Z</time></trkpt><trkpt lat="45.2380167" lon="7.3821783"><ele>720.0</ele><time>2026-05-03T09:10:39.11Z</time></trkpt><trkpt lat="45.2381033" lon="7.382015"><ele>724.25</ele><time>2026-05-03T09:10:40.112Z</time></trkpt><trkpt lat="45.2381833" lon="7.3818683"><ele>728.5</ele><time>2026-05-03T09:10:41.114Z</time></trkpt><trkpt lat="45.2382867" lon="7.381735"><ele>732.75</ele><time>2026-05-03T09:10:42.114Z</time></trkpt><trkpt lat="45.238395" lon="7.3816067"><ele>737.0</ele><time>2026-05-03T09:10:43.112Z</time></trkpt><trkpt lat="45.2385217" lon="7.38148"><ele>737.6666666666666</ele><time>2026-05-03T09:10:44.111Z</time></trkpt><trkpt lat="45.2386617" lon="7.3813483"><ele>738.3333333333334</ele><time>2026-05-03T09:10:45.118Z</time></trkpt><trkpt lat="45.238805" lon="7.381215"><ele>739.0</ele><time>2026-05-03T09:10:46.116Z</time></trkpt><trkpt lat="45.2389683" lon="7.38108"><ele>739.0</ele><time>2026-05-03T09:10:47.113Z</time></trkpt><trkpt lat="45.2391217" lon="7.3809333"><ele>739.0</ele><time>2026-05-03T09:10:48.116Z</time></trkpt><trkpt lat="45.2392683" lon="7.380795"><ele>739.0</ele><time>2026-05-03T09:10:49.116Z</time></trkpt><trkpt lat="45.2394133" lon="7.38065"><ele>737.3333333333334</ele><time>2026-05-03T09:10:50.114Z</time></trkpt><trkpt lat="45.2395333" lon="7.3805083"><ele>735.6666666666666</ele><time>2026-05-03T09:10:51.111Z</time></trkpt><trkpt lat="45.239655" lon="7.38037"><ele>734.0</ele><time>2026-05-03T09:10:52.114Z</time></trkpt><trkpt lat="45.239765" lon="7.3802367"><ele>739.5</ele><time>2026-05-03T09:10:53.116Z</time></trkpt><trkpt lat="45.23987" lon="7.380095"><ele>745.0</ele><time>2026-05-03T09:10:54.12Z</time></trkpt><trkpt lat="45.2399567" lon="7.37996"><ele>750.5</ele><time>2026-05-03T09:10:55.112Z</time></trkpt><trkpt lat="45.2400367" lon="7.37983"><ele>756.0</ele><time>2026-05-03T09:10:56.113Z</time></trkpt><trkpt lat="45.2401133" lon="7.3797167"><ele>756.0</ele><time>2026-05-03T09:10:57.113Z</time></trkpt><trkpt lat="45.240195" lon="7.3796417"><ele>756.0</ele><time>2026-05-03T09:10:58.113Z</time></trkpt><trkpt lat="45.2402733" lon="7.3796083"><ele>756.0</ele><time>2026-05-03T09:10:59.11Z</time></trkpt><trkpt lat="45.2403467" lon="7.379595"><ele>756.0</ele><time>2026-05-03T09:11:00.112Z</time></trkpt><trkpt lat="45.24042" lon="7.37961"><ele>756.0</ele><time>2026-05-03T09:11:01.112Z</time></trkpt><trkpt lat="45.2405017" lon="7.3796633"><ele>756.0</ele><time>2026-05-03T09:11:02.114Z</time></trkpt><trkpt lat="45.24062" lon="7.3797583"><ele>758.1999999999999</ele><time>2026-05-03T09:11:03.115Z</time></trkpt><trkpt lat="45.240725" lon="7.3798167"><ele>760.4</ele><time>2026-05-03T09:11:04.11Z</time></trkpt><trkpt lat="45.2408217" lon="7.37986"><ele>762.6</ele><time>2026-05-03T09:11:05.113Z</time></trkpt><trkpt lat="45.240915" lon="7.3798933"><ele>764.8</ele><time>2026-05-03T09:11:06.11Z</time></trkpt><trkpt lat="45.2410183" lon="7.3798883"><ele>767.0</ele><time>2026-05-03T09:11:07.114Z</time></trkpt><trkpt lat="45.24112" lon="7.3798667"><ele>767.0</ele><time>2026-05-03T09:11:08.113Z</time></trkpt><trkpt lat="45.2411933" lon="7.3798467"><ele>767.0</ele><time>2026-05-03T09:11:09.114Z</time></trkpt><trkpt lat="45.24126" lon="7.3798067"><ele>767.0</ele><time>2026-05-03T09:11:10.115Z</time></trkpt><trkpt lat="45.2413633" lon="7.3796767"><ele>767.0</ele><time>2026-05-03T09:11:12.109Z</time></trkpt><trkpt lat="45.2414017" lon="7.37952"><ele>767.0</ele><time>2026-05-03T09:11:14.113Z</time></trkpt><trkpt lat="45.241385" lon="7.3793733"><ele>765.8</ele><time>2026-05-03T09:11:16.112Z</time></trkpt><trkpt lat="45.2412883" lon="7.3793033"><ele>764.6</ele><time>2026-05-03T09:11:17.111Z</time></trkpt><trkpt lat="45.241175" lon="7.3792617"><ele>763.4</ele><time>2026-05-03T09:11:18.115Z</time></trkpt><trkpt lat="45.2410817" lon="7.37922"><ele>762.1999999999999</ele><time>2026-05-03T09:11:19.112Z</time></trkpt><trkpt lat="45.241005" lon="7.3791633"><ele>761.0</ele><time>2026-05-03T09:11:20.114Z</time></trkpt><trkpt lat="45.24092" lon="7.3791067"><ele>761.0</ele><time>2026-05-03T09:11:21.115Z</time></trkpt><trkpt lat="45.2408433" lon="7.3790383"><ele>761.0</ele><time>2026-05-03T09:11:22.114Z</time></trkpt><trkpt lat="45.240765" lon="7.3789583"><ele>761.0</ele><time>2026-05-03T09:11:23.116Z</time></trkpt><trkpt lat="45.240695" lon="7.378875"><ele>761.0</ele><time>2026-05-03T09:11:24.116Z</time></trkpt><trkpt lat="45.2406383" lon="7.3787917"><ele>761.0</ele><time>2026-05-03T09:11:25.113Z</time></trkpt><trkpt lat="45.2405917" lon="7.3787133"><ele>761.0</ele><time>2026-05-03T09:11:26.113Z</time></trkpt><trkpt lat="45.2405483" lon="7.378645"><ele>762.8333333333333</ele><time>2026-05-03T09:11:27.115Z</time></trkpt><trkpt lat="45.24051" lon="7.3785583"><ele>764.6666666666666</ele><time>2026-05-03T09:11:28.123Z</time></trkpt><trkpt lat="45.2404583" lon="7.378495"><ele>766.5</ele><time>2026-05-03T09:11:29.112Z</time></trkpt><trkpt lat="45.2403933" lon="7.3784183"><ele>768.3333333333333</ele><time>2026-05-03T09:11:30.118Z</time></trkpt><trkpt lat="45.2403167" lon="7.3783433"><ele>770.1666666666666</ele><time>2026-05-03T09:11:31.114Z</time></trkpt><trkpt lat="45.2402217" lon="7.3782767"><ele>772.0</ele><time>2026-05-03T09:11:32.111Z</time></trkpt><trkpt lat="45.2400833" lon="7.3782933"><ele>772.0</ele><time>2026-05-03T09:11:33.113Z</time></trkpt><trkpt lat="45.239955" lon="7.3783233"><ele>772.0</ele><time>2026-05-03T09:11:34.113Z</time></trkpt><trkpt lat="45.2398467" lon="7.37836"><ele>772.0</ele><time>2026-05-03T09:11:35.112Z</time></trkpt><trkpt lat="45.2397567" lon="7.37837"><ele>772.0</ele><time>2026-05-03T09:11:36.111Z</time></trkpt><trkpt lat="45.2396667" lon="7.3783817"><ele>772.0</ele><time>2026-05-03T09:11:37.11Z</time></trkpt><trkpt lat="45.2395967" lon="7.3783633"><ele>770.8333333333333</ele><time>2026-05-03T09:11:38.112Z</time></trkpt><trkpt lat="45.23953" lon="7.3783483"><ele>769.6666666666666</ele><time>2026-05-03T09:11:39.115Z</time></trkpt><trkpt lat="45.239445" lon="7.3782967"><ele>768.5</ele><time>2026-05-03T09:11:41.11Z</time></trkpt><trkpt lat="45.2395133" lon="7.3783033"><ele>767.3333333333333</ele><time>2026-05-03T09:12:40.115Z</time></trkpt><trkpt lat="45.23959" lon="7.3782717"><ele>766.1666666666666</ele><time>2026-05-03T09:14:05.113Z</time></trkpt><trkpt lat="45.2395967" lon="7.378155"><ele>765.0</ele><time>2026-05-03T09:14:08.111Z</time></trkpt><trkpt lat="45.239565" lon="7.3780367"><ele>767.0</ele><time>2026-05-03T09:14:09.112Z</time></trkpt><trkpt lat="45.2395267" lon="7.3778967"><ele>769.0</ele><time>2026-05-03T09:14:10.113Z</time></trkpt><trkpt lat="45.2394867" lon="7.3777517"><ele>771.0</ele><time>2026-05-03T09:14:11.114Z</time></trkpt><trkpt lat="45.239445" lon="7.377625"><ele>773.0</ele><time>2026-05-03T09:14:12.115Z</time></trkpt><trkpt lat="45.2394083" lon="7.3775067"><ele>775.0</ele><time>2026-05-03T09:14:13.112Z</time></trkpt><trkpt lat="45.2393833" lon="7.3774017"><ele>774.9999999999999</ele><time>2026-05-03T09:14:14.114Z</time></trkpt><trkpt lat="45.2393533" lon="7.377295"><ele>775.0</ele><time>2026-05-03T09:14:15.112Z</time></trkpt><trkpt lat="45.2392917" lon="7.3771967"><ele>775.0</ele><time>2026-05-03T09:14:16.112Z</time></trkpt><trkpt lat="45.2392183" lon="7.3771067"><ele>775.0</ele><time>2026-05-03T09:14:17.113Z</time></trkpt><trkpt lat="45.2391683" lon="7.3770117"><ele>774.9999999999999</ele><time>2026-05-03T09:14:18.112Z</time></trkpt><trkpt lat="45.23913" lon="7.3769367"><ele>775.0</ele><time>2026-05-03T09:14:19.112Z</time></trkpt><trkpt lat="45.2390767" lon="7.3768667"><ele>775.8</ele><time>2026-05-03T09:14:20.111Z</time></trkpt><trkpt lat="45.2389917" lon="7.376745"><ele>776.6</ele><time>2026-05-03T09:14:22.111Z</time></trkpt><trkpt lat="45.2389117" lon="7.3766433"><ele>777.4000000000001</ele><time>2026-05-03T09:14:24.115Z</time></trkpt><trkpt lat="45.2388617" lon="7.376505"><ele>778.2</ele><time>2026-05-03T09:14:26.113Z</time></trkpt><trkpt lat="45.238845" lon="7.3764133"><ele>779.0</ele><time>2026-05-03T09:14:27.111Z</time></trkpt><trkpt lat="45.2388183" lon="7.3763117"><ele>779.0</ele><time>2026-05-03T09:14:28.111Z</time></trkpt><trkpt lat="45.238775" lon="7.3761833"><ele>779.0</ele><time>2026-05-03T09:14:29.112Z</time></trkpt><trkpt lat="45.2387283" lon="7.3760517"><ele>779.0</ele><time>2026-05-03T09:14:30.11Z</time></trkpt><trkpt lat="45.238665" lon="7.3759"><ele>779.0</ele><time>2026-05-03T09:14:31.115Z</time></trkpt><trkpt lat="45.2385967" lon="7.3757483"><ele>779.0</ele><time>2026-05-03T09:14:32.112Z</time></trkpt><trkpt lat="45.2385317" lon="7.37561"><ele>779.0</ele><time>2026-05-03T09:14:33.115Z</time></trkpt><trkpt lat="45.238475" lon="7.3754733"><ele>779.0</ele><time>2026-05-03T09:14:34.114Z</time></trkpt><trkpt lat="45.2384133" lon="7.3753483"><ele>779.0</ele><time>2026-05-03T09:14:35.114Z</time></trkpt><trkpt lat="45.2383583" lon="7.375235"><ele>779.0</ele><time>2026-05-03T09:14:36.113Z</time></trkpt><trkpt lat="45.2383067" lon="7.3751333"><ele>778.2</ele><time>2026-05-03T09:14:37.113Z</time></trkpt><trkpt lat="45.238265" lon="7.3750383"><ele>777.4000000000001</ele><time>2026-05-03T09:14:38.114Z</time></trkpt><trkpt lat="45.23823" lon="7.3749483"><ele>776.6</ele><time>2026-05-03T09:14:39.114Z</time></trkpt><trkpt lat="45.2381817" lon="7.37482"><ele>775.8</ele><time>2026-05-03T09:14:41.114Z</time></trkpt><trkpt lat="45.238115" lon="7.3747083"><ele>775.0</ele><time>2026-05-03T09:14:43.111Z</time></trkpt><trkpt lat="45.2381483" lon="7.374575"><ele>777.0</ele><time>2026-05-03T09:14:45.114Z</time></trkpt><trkpt lat="45.23824" lon="7.3744367"><ele>779.0</ele><time>2026-05-03T09:14:47.114Z</time></trkpt><trkpt lat="45.2383133" lon="7.3743133"><ele>781.0</ele><time>2026-05-03T09:14:48.112Z</time></trkpt><trkpt lat="45.2383783" lon="7.3741817"><ele>783.0</ele><time>2026-05-03T09:14:49.112Z</time></trkpt><trkpt lat="45.2384317" lon="7.3740333"><ele>783.5</ele><time>2026-05-03T09:14:50.112Z</time></trkpt><trkpt lat="45.2384667" lon="7.3738267"><ele>784.0</ele><time>2026-05-03T09:14:51.112Z</time></trkpt><trkpt lat="45.23849" lon="7.3736383"><ele>784.5</ele><time>2026-05-03T09:14:52.11Z</time></trkpt><trkpt lat="45.23852" lon="7.3734533"><ele>785.0</ele><time>2026-05-03T09:14:53.115Z</time></trkpt><trkpt lat="45.2385367" lon="7.3732717"><ele>785.0</ele><time>2026-05-03T09:14:54.125Z</time></trkpt><trkpt lat="45.2385483" lon="7.37311"><ele>785.0</ele><time>2026-05-03T09:14:55.112Z</time></trkpt><trkpt lat="45.2385317" lon="7.3729567"><ele>785.0</ele><time>2026-05-03T09:14:56.112Z</time></trkpt><trkpt lat="45.2385" lon="7.37283"><ele>785.0</ele><time>2026-05-03T09:14:57.113Z</time></trkpt><trkpt lat="45.2384533" lon="7.3727067"><ele>785.0</ele><time>2026-05-03T09:14:58.113Z</time></trkpt><trkpt lat="45.23841" lon="7.3725967"><ele>785.6</ele><time>2026-05-03T09:14:59.115Z</time></trkpt><trkpt lat="45.238345" lon="7.3725117"><ele>786.2</ele><time>2026-05-03T09:15:01.116Z</time></trkpt><trkpt lat="45.23827" lon="7.37237"><ele>786.8</ele><time>2026-05-03T09:15:03.115Z</time></trkpt><trkpt lat="45.238215" lon="7.3722367"><ele>787.4</ele><time>2026-05-03T09:15:04.114Z</time></trkpt><trkpt lat="45.2381483" lon="7.3721"><ele>788.0</ele><time>2026-05-03T09:15:05.113Z</time></trkpt><trkpt lat="45.23809" lon="7.3719633"><ele>788.0</ele><time>2026-05-03T09:15:06.116Z</time></trkpt><trkpt lat="45.238025" lon="7.3718183"><ele>788.0</ele><time>2026-05-03T09:15:07.116Z</time></trkpt><trkpt lat="45.2379583" lon="7.3716933"><ele>788.0</ele><time>2026-05-03T09:15:08.114Z</time></trkpt><trkpt lat="45.2378917" lon="7.371575"><ele>788.0</ele><time>2026-05-03T09:15:09.118Z</time></trkpt><trkpt lat="45.237835" lon="7.3714683"><ele>788.0</ele><time>2026-05-03T09:15:10.114Z</time></trkpt><trkpt lat="45.2377783" lon="7.3713733"><ele>788.8333333333334</ele><time>2026-05-03T09:15:11.111Z</time></trkpt><trkpt lat="45.237715" lon="7.37129"><ele>789.6666666666667</ele><time>2026-05-03T09:15:12.114Z</time></trkpt><trkpt lat="45.23765" lon="7.3712317"><ele>790.5</ele><time>2026-05-03T09:15:13.115Z</time></trkpt><trkpt lat="45.23759" lon="7.3712033"><ele>791.3333333333333</ele><time>2026-05-03T09:15:14.115Z</time></trkpt><trkpt lat="45.2374717" lon="7.3712683"><ele>792.1666666666666</ele><time>2026-05-03T09:15:16.115Z</time></trkpt><trkpt lat="45.2374083" lon="7.3712533"><ele>793.0</ele><time>2026-05-03T09:15:17.115Z</time></trkpt><trkpt lat="45.2373433" lon="7.3712583"><ele>791.5999999999999</ele><time>2026-05-03T09:15:18.114Z</time></trkpt><trkpt lat="45.23726" lon="7.3712333"><ele>790.1999999999999</ele><time>2026-05-03T09:15:19.116Z</time></trkpt><trkpt lat="45.23717" lon="7.3711783"><ele>788.8</ele><time>2026-05-03T09:15:20.112Z</time></trkpt><trkpt lat="45.2370783" lon="7.37111"><ele>787.4</ele><time>2026-05-03T09:15:21.114Z</time></trkpt><trkpt lat="45.2369767" lon="7.37106"><ele>786.0</ele><time>2026-05-03T09:15:22.113Z</time></trkpt><trkpt lat="45.2368367" lon="7.3709967"><ele>786.0</ele><time>2026-05-03T09:15:23.113Z</time></trkpt><trkpt lat="45.23672" lon="7.3709983"><ele>786.0</ele><time>2026-05-03T09:15:24.115Z</time></trkpt><trkpt lat="45.2365783" lon="7.3710233"><ele>786.0</ele><time>2026-05-03T09:15:25.116Z</time></trkpt><trkpt lat="45.2364567" lon="7.3711367"><ele>786.0</ele><time>2026-05-03T09:15:26.115Z</time></trkpt><trkpt lat="45.2363333" lon="7.371225"><ele>787.75</ele><time>2026-05-03T09:15:27.114Z</time></trkpt><trkpt lat="45.2362033" lon="7.371275"><ele>789.5</ele><time>2026-05-03T09:15:28.11Z</time></trkpt><trkpt lat="45.23609" lon="7.371325"><ele>791.25</ele><time>2026-05-03T09:15:29.114Z</time></trkpt><trkpt lat="45.2359817" lon="7.3714067"><ele>793.0</ele><time>2026-05-03T09:15:30.114Z</time></trkpt><trkpt lat="45.2358833" lon="7.3715183"><ele>789.0</ele><time>2026-05-03T09:15:31.113Z</time></trkpt><trkpt lat="45.235785" lon="7.3716133"><ele>785.0</ele><time>2026-05-03T09:15:32.112Z</time></trkpt><trkpt lat="45.2356817" lon="7.3716917"><ele>781.0</ele><time>2026-05-03T09:15:33.114Z</time></trkpt><trkpt lat="45.2355917" lon="7.3717333"><ele>777.0</ele><time>2026-05-03T09:15:34.114Z</time></trkpt><trkpt lat="45.23551" lon="7.3717317"><ele>773.0</ele><time>2026-05-03T09:15:35.114Z</time></trkpt><trkpt lat="45.2354117" lon="7.37175"><ele>772.0</ele><time>2026-05-03T09:15:36.116Z</time></trkpt><trkpt lat="45.235315" lon="7.3717183"><ele>771.0</ele><time>2026-05-03T09:15:37.11Z</time></trkpt><trkpt lat="45.2351967" lon="7.37171"><ele>770.0</ele><time>2026-05-03T09:15:38.11Z</time></trkpt><trkpt lat="45.2350633" lon="7.371715"><ele>769.0</ele><time>2026-05-03T09:15:39.114Z</time></trkpt><trkpt lat="45.2349317" lon="7.3717317"><ele>769.0</ele><time>2026-05-03T09:15:40.11Z</time></trkpt><trkpt lat="45.234825" lon="7.371715"><ele>769.0</ele><time>2026-05-03T09:15:41.113Z</time></trkpt><trkpt lat="45.2347283" lon="7.3717283"><ele>769.0</ele><time>2026-05-03T09:15:42.116Z</time></trkpt><trkpt lat="45.2346283" lon="7.371755"><ele>769.0</ele><time>2026-05-03T09:15:43.112Z</time></trkpt><trkpt lat="45.2345283" lon="7.3717817"><ele>769.0</ele><time>2026-05-03T09:15:44.117Z</time></trkpt><trkpt lat="45.23443" lon="7.3718017"><ele>768.6</ele><time>2026-05-03T09:15:45.113Z</time></trkpt><trkpt lat="45.2343283" lon="7.371795"><ele>768.2</ele><time>2026-05-03T09:15:46.116Z</time></trkpt><trkpt lat="45.2342283" lon="7.371775"><ele>767.8000000000001</ele><time>2026-05-03T09:15:47.113Z</time></trkpt><trkpt lat="45.2341383" lon="7.3717667"><ele>767.4000000000001</ele><time>2026-05-03T09:15:48.11Z</time></trkpt><trkpt lat="45.2340533" lon="7.3717983"><ele>767.0</ele><time>2026-05-03T09:15:49.111Z</time></trkpt><trkpt lat="45.2339733" lon="7.3718317"><ele>765.8333333333333</ele><time>2026-05-03T09:15:50.115Z</time></trkpt><trkpt lat="45.2338983" lon="7.3718833"><ele>764.6666666666666</ele><time>2026-05-03T09:15:51.114Z</time></trkpt><trkpt lat="45.23382" lon="7.371965"><ele>763.5</ele><time>2026-05-03T09:15:52.115Z</time></trkpt><trkpt lat="45.23376" lon="7.3720383"><ele>762.3333333333334</ele><time>2026-05-03T09:15:53.113Z</time></trkpt><trkpt lat="45.2336883" lon="7.372075"><ele>761.1666666666667</ele><time>2026-05-03T09:15:54.115Z</time></trkpt><trkpt lat="45.2335933" lon="7.37207"><ele>760.0</ele><time>2026-05-03T09:15:55.114Z</time></trkpt><trkpt lat="45.2335133" lon="7.372015"><ele>760.0</ele><time>2026-05-03T09:15:56.112Z</time></trkpt><trkpt lat="45.2334333" lon="7.3719533"><ele>760.0</ele><time>2026-05-03T09:15:57.116Z</time></trkpt><trkpt lat="45.2333817" lon="7.371755"><ele>760.0</ele><time>2026-05-03T09:15:58.113Z</time></trkpt><trkpt lat="45.233315" lon="7.3715617"><ele>760.0</ele><time>2026-05-03T09:15:59.113Z</time></trkpt><trkpt lat="45.233245" lon="7.3713583"><ele>761.25</ele><time>2026-05-03T09:16:00.115Z</time></trkpt><trkpt lat="45.233155" lon="7.37117"><ele>762.5</ele><time>2026-05-03T09:16:01.115Z</time></trkpt><trkpt lat="45.2330717" lon="7.3710067"><ele>763.75</ele><time>2026-05-03T09:16:02.115Z</time></trkpt><trkpt lat="45.232995" lon="7.3708533"><ele>765.0</ele><time>2026-05-03T09:16:03.113Z</time></trkpt><trkpt lat="45.2329117" lon="7.3707083"><ele>758.5</ele><time>2026-05-03T09:16:04.113Z</time></trkpt><trkpt lat="45.2328433" lon="7.370565"><ele>752.0</ele><time>2026-05-03T09:16:05.11Z</time></trkpt><trkpt lat="45.2327883" lon="7.3704183"><ele>745.5</ele><time>2026-05-03T09:16:06.109Z</time></trkpt><trkpt lat="45.232745" lon="7.3702483"><ele>739.0</ele><time>2026-05-03T09:16:07.114Z</time></trkpt><trkpt lat="45.232715" lon="7.37008"><ele>738.75</ele><time>2026-05-03T09:16:08.111Z</time></trkpt><trkpt lat="45.2327083" lon="7.3699083"><ele>738.5</ele><time>2026-05-03T09:16:09.113Z</time></trkpt><trkpt lat="45.232755" lon="7.36974"><ele>738.25</ele><time>2026-05-03T09:16:10.11Z</time></trkpt><trkpt lat="45.23276" lon="7.3695683"><ele>738.0</ele><time>2026-05-03T09:16:11.112Z</time></trkpt><trkpt lat="45.2327317" lon="7.3694517"><ele>736.8</ele><time>2026-05-03T09:16:12.115Z</time></trkpt><trkpt lat="45.23268" lon="7.3693333"><ele>735.5999999999999</ele><time>2026-05-03T09:16:13.109Z</time></trkpt><trkpt lat="45.2326267" lon="7.3692233"><ele>734.4000000000001</ele><time>2026-05-03T09:16:14.112Z</time></trkpt><trkpt lat="45.23259" lon="7.3691067"><ele>733.2</ele><time>2026-05-03T09:16:15.112Z</time></trkpt><trkpt lat="45.2325567" lon="7.3689817"><ele>732.0</ele><time>2026-05-03T09:16:16.112Z</time></trkpt><trkpt lat="45.23258" lon="7.3688533"><ele>729.2</ele><time>2026-05-03T09:16:17.111Z</time></trkpt><trkpt lat="45.2325983" lon="7.3687517"><ele>726.4000000000001</ele><time>2026-05-03T09:16:18.115Z</time></trkpt><trkpt lat="45.2326117" lon="7.3686533"><ele>723.5999999999999</ele><time>2026-05-03T09:16:19.112Z</time></trkpt><trkpt lat="45.2327083" lon="7.3686417"><ele>720.8</ele><time>2026-05-03T09:16:20.113Z</time></trkpt><trkpt lat="45.23284" lon="7.368665"><ele>718.0</ele><time>2026-05-03T09:16:22.113Z</time></trkpt><trkpt lat="45.2329767" lon="7.3687933"><ele>727.6666666666667</ele><time>2026-05-03T09:16:23.113Z</time></trkpt><trkpt lat="45.2331767" lon="7.3689933"><ele>737.3333333333334</ele><time>2026-05-03T09:16:24.11Z</time></trkpt><trkpt lat="45.2333333" lon="7.3691133"><ele>747.0</ele><time>2026-05-03T09:16:25.111Z</time></trkpt><trkpt lat="45.2335067" lon="7.3692067"><ele>747.0</ele><time>2026-05-03T09:16:26.112Z</time></trkpt><trkpt lat="45.2336567" lon="7.369275"><ele>747.0</ele><time>2026-05-03T09:16:27.112Z</time></trkpt><trkpt lat="45.2338333" lon="7.3693"><ele>747.0</ele><time>2026-05-03T09:16:28.111Z</time></trkpt><trkpt lat="45.2339917" lon="7.3693117"><ele>746.3333333333334</ele><time>2026-05-03T09:16:29.112Z</time></trkpt><trkpt lat="45.2341883" lon="7.3692933"><ele>745.6666666666667</ele><time>2026-05-03T09:16:30.112Z</time></trkpt><trkpt lat="45.23436" lon="7.36928"><ele>745.0</ele><time>2026-05-03T09:16:31.113Z</time></trkpt><trkpt lat="45.23452" lon="7.369295"><ele>745.0</ele><time>2026-05-03T09:16:32.112Z</time></trkpt><trkpt lat="45.2346717" lon="7.3692767"><ele>745.0</ele><time>2026-05-03T09:16:33.112Z</time></trkpt><trkpt lat="45.2348133" lon="7.3692417"><ele>745.0</ele><time>2026-05-03T09:16:34.111Z</time></trkpt><trkpt lat="45.2349567" lon="7.369215"><ele>745.0</ele><time>2026-05-03T09:16:35.111Z</time></trkpt><trkpt lat="45.2350683" lon="7.369145"><ele>746.2</ele><time>2026-05-03T09:16:36.111Z</time></trkpt><trkpt lat="45.2351583" lon="7.3691067"><ele>747.4</ele><time>2026-05-03T09:16:37.111Z</time></trkpt><trkpt lat="45.235225" lon="7.36907"><ele>748.5999999999999</ele><time>2026-05-03T09:16:38.112Z</time></trkpt><trkpt lat="45.2352883" lon="7.368965"><ele>749.8</ele><time>2026-05-03T09:16:40.112Z</time></trkpt><trkpt lat="45.2352133" lon="7.3689367"><ele>751.0</ele><time>2026-05-03T09:16:42.111Z</time></trkpt><trkpt lat="45.234905" lon="7.368855"><ele>751.25</ele><time>2026-05-03T09:16:43.11Z</time></trkpt><trkpt lat="45.2348267" lon="7.36885"><ele>751.5</ele><time>2026-05-03T09:16:44.113Z</time></trkpt><trkpt lat="45.2347067" lon="7.36883"><ele>751.75</ele><time>2026-05-03T09:16:45.118Z</time></trkpt><trkpt lat="45.2345917" lon="7.3688083"><ele>752.0</ele><time>2026-05-03T09:16:46.113Z</time></trkpt><trkpt lat="45.234425" lon="7.3687583"><ele>750.0</ele><time>2026-05-03T09:16:47.113Z</time></trkpt><trkpt lat="45.2341667" lon="7.3686317"><ele>748.0</ele><time>2026-05-03T09:16:48.11Z</time></trkpt><trkpt lat="45.2339767" lon="7.368555"><ele>744.3333333333334</ele><time>2026-05-03T09:16:49.112Z</time></trkpt><trkpt lat="45.2338133" lon="7.3684817"><ele>740.6666666666666</ele><time>2026-05-03T09:16:50.114Z</time></trkpt><trkpt lat="45.2336233" lon="7.3683883"><ele>737.0</ele><time>2026-05-03T09:16:51.114Z</time></trkpt><trkpt lat="45.2334483" lon="7.3682983"><ele>737.0</ele><time>2026-05-03T09:16:52.114Z</time></trkpt><trkpt lat="45.2332917" lon="7.368205"><ele>737.0</ele><time>2026-05-03T09:16:53.113Z</time></trkpt><trkpt lat="45.233135" lon="7.3680933"><ele>737.0</ele><time>2026-05-03T09:16:54.115Z</time></trkpt><trkpt lat="45.2330117" lon="7.3680017"><ele>731.3333333333333</ele><time>2026-05-03T09:16:55.114Z</time></trkpt><trkpt lat="45.2328317" lon="7.3678383"><ele>725.6666666666666</ele><time>2026-05-03T09:16:56.113Z</time></trkpt><trkpt lat="45.2327" lon="7.3677483"><ele>720.0</ele><time>2026-05-03T09:16:57.11Z</time></trkpt><trkpt lat="45.2325867" lon="7.3676633"><ele>720.0</ele><time>2026-05-03T09:16:58.111Z</time></trkpt><trkpt lat="45.2325" lon="7.3675933"><ele>720.0</ele><time>2026-05-03T09:16:59.115Z</time></trkpt><trkpt lat="45.23243" lon="7.3675217"><ele>720.0</ele><time>2026-05-03T09:17:00.11Z</time></trkpt><trkpt lat="45.2323583" lon="7.3674617"><ele>720.0</ele><time>2026-05-03T09:17:01.113Z</time></trkpt><trkpt lat="45.2322967" lon="7.367385"><ele>720.0</ele><time>2026-05-03T09:17:02.115Z</time></trkpt><trkpt lat="45.2322133" lon="7.367305"><ele>719.0</ele><time>2026-05-03T09:17:04.112Z</time></trkpt><trkpt lat="45.232125" lon="7.367245"><ele>718.0</ele><time>2026-05-03T09:17:06.115Z</time></trkpt><trkpt lat="45.2320983" lon="7.3671333"><ele>717.0</ele><time>2026-05-03T09:17:08.112Z</time></trkpt><trkpt lat="45.23198" lon="7.3671117"><ele>716.0</ele><time>2026-05-03T09:17:10.112Z</time></trkpt><trkpt lat="45.2318683" lon="7.3671033"><ele>715.0</ele><time>2026-05-03T09:17:12.114Z</time></trkpt><trkpt lat="45.231805" lon="7.36711"><ele>715.0</ele><time>2026-05-03T09:17:13.115Z</time></trkpt><trkpt lat="45.2317383" lon="7.36711"><ele>715.0</ele><time>2026-05-03T09:17:14.111Z</time></trkpt><trkpt lat="45.23167" lon="7.3671317"><ele>715.0</ele><time>2026-05-03T09:17:15.115Z</time></trkpt><trkpt lat="45.23161" lon="7.3671683"><ele>715.0</ele><time>2026-05-03T09:17:16.112Z</time></trkpt><trkpt lat="45.2315583" lon="7.3672317"><ele>715.0</ele><time>2026-05-03T09:17:17.112Z</time></trkpt><trkpt lat="45.2315317" lon="7.367315"><ele>715.0</ele><time>2026-05-03T09:17:18.11Z</time></trkpt><trkpt lat="45.2315" lon="7.367405"><ele>715.0</ele><time>2026-05-03T09:17:19.113Z</time></trkpt><trkpt lat="45.2314617" lon="7.3675733"><ele>720.5</ele><time>2026-05-03T09:17:20.115Z</time></trkpt><trkpt lat="45.23141" lon="7.36772"><ele>726.0</ele><time>2026-05-03T09:17:21.114Z</time></trkpt><trkpt lat="45.23136" lon="7.3678317"><ele>731.5</ele><time>2026-05-03T09:17:22.114Z</time></trkpt><trkpt lat="45.231245" lon="7.368015"><ele>737.0</ele><time>2026-05-03T09:17:23.111Z</time></trkpt><trkpt lat="45.231155" lon="7.3681533"><ele>737.0</ele><time>2026-05-03T09:17:24.113Z</time></trkpt><trkpt lat="45.2310683" lon="7.36827"><ele>737.0</ele><time>2026-05-03T09:17:25.113Z</time></trkpt><trkpt lat="45.230985" lon="7.3683733"><ele>737.0</ele><time>2026-05-03T09:17:26.113Z</time></trkpt><trkpt lat="45.230905" lon="7.3684733"><ele>737.0</ele><time>2026-05-03T09:17:27.115Z</time></trkpt><trkpt lat="45.2308483" lon="7.3686167"><ele>737.0</ele><time>2026-05-03T09:17:28.116Z</time></trkpt><trkpt lat="45.230805" lon="7.3687683"><ele>737.0</ele><time>2026-05-03T09:17:29.111Z</time></trkpt><trkpt lat="45.2307517" lon="7.3689617"><ele>737.0</ele><time>2026-05-03T09:17:30.111Z</time></trkpt><trkpt lat="45.2307083" lon="7.36915"><ele>737.0</ele><time>2026-05-03T09:17:31.113Z</time></trkpt><trkpt lat="45.2306717" lon="7.369325"><ele>751.0</ele><time>2026-05-03T09:17:32.112Z</time></trkpt><trkpt lat="45.2306317" lon="7.3694883"><ele>765.0</ele><time>2026-05-03T09:17:33.113Z</time></trkpt><trkpt lat="45.23059" lon="7.3696433"><ele>779.0</ele><time>2026-05-03T09:17:34.148Z</time></trkpt><trkpt lat="45.2305483" lon="7.3698167"><ele>793.0</ele><time>2026-05-03T09:17:35.11Z</time></trkpt><trkpt lat="45.2305133" lon="7.3699917"><ele>793.25</ele><time>2026-05-03T09:17:36.115Z</time></trkpt><trkpt lat="45.2304733" lon="7.3701833"><ele>793.5</ele><time>2026-05-03T09:17:37.115Z</time></trkpt><trkpt lat="45.2304883" lon="7.3702883"><ele>793.75</ele><time>2026-05-03T09:17:38.115Z</time></trkpt><trkpt lat="45.2304767" lon="7.3704767"><ele>794.0</ele><time>2026-05-03T09:17:39.113Z</time></trkpt><trkpt lat="45.230485" lon="7.3706417"><ele>793.0</ele><time>2026-05-03T09:17:40.113Z</time></trkpt><trkpt lat="45.2305033" lon="7.3707967"><ele>792.0</ele><time>2026-05-03T09:17:41.115Z</time></trkpt><trkpt lat="45.230505" lon="7.3709583"><ele>791.0</ele><time>2026-05-03T09:17:42.117Z</time></trkpt><trkpt lat="45.23051" lon="7.3711183"><ele>790.0</ele><time>2026-05-03T09:17:43.114Z</time></trkpt><trkpt lat="45.230485" lon="7.3713083"><ele>788.6</ele><time>2026-05-03T09:17:44.11Z</time></trkpt><trkpt lat="45.2304517" lon="7.3714817"><ele>787.2</ele><time>2026-05-03T09:17:45.113Z</time></trkpt><trkpt lat="45.230455" lon="7.37163"><ele>785.8</ele><time>2026-05-03T09:17:47.112Z</time></trkpt><trkpt lat="45.23048" lon="7.3717267"><ele>784.4</ele><time>2026-05-03T09:17:48.11Z</time></trkpt><trkpt lat="45.2305167" lon="7.371845"><ele>783.0</ele><time>2026-05-03T09:17:49.113Z</time></trkpt><trkpt lat="45.2305517" lon="7.3719567"><ele>783.0</ele><time>2026-05-03T09:17:50.111Z</time></trkpt><trkpt lat="45.2305833" lon="7.37209"><ele>783.0</ele><time>2026-05-03T09:17:51.113Z</time></trkpt><trkpt lat="45.23063" lon="7.3722183"><ele>783.0</ele><time>2026-05-03T09:17:52.113Z</time></trkpt><trkpt lat="45.2306683" lon="7.372345"><ele>783.0</ele><time>2026-05-03T09:17:53.114Z</time></trkpt><trkpt lat="45.230765" lon="7.3724033"><ele>783.0</ele><time>2026-05-03T09:17:54.113Z</time></trkpt><trkpt lat="45.2307967" lon="7.372525"><ele>782.5</ele><time>2026-05-03T09:17:55.115Z</time></trkpt><trkpt lat="45.2308267" lon="7.3726433"><ele>782.0</ele><time>2026-05-03T09:17:56.113Z</time></trkpt><trkpt lat="45.230855" lon="7.3727617"><ele>781.5</ele><time>2026-05-03T09:17:57.113Z</time></trkpt><trkpt lat="45.2308217" lon="7.3728617"><ele>781.0</ele><time>2026-05-03T09:17:58.111Z</time></trkpt><trkpt lat="45.23077" lon="7.3729567"><ele>780.5</ele><time>2026-05-03T09:17:59.113Z</time></trkpt><trkpt lat="45.230695" lon="7.37304"><ele>780.0</ele><time>2026-05-03T09:18:00.113Z</time></trkpt><trkpt lat="45.23061" lon="7.3731067"><ele>780.0</ele><time>2026-05-03T09:18:01.11Z</time></trkpt><trkpt lat="45.2305183" lon="7.373155"><ele>780.0</ele><time>2026-05-03T09:18:02.116Z</time></trkpt><trkpt lat="45.2304467" lon="7.3731583"><ele>780.0</ele><time>2026-05-03T09:18:03.114Z</time></trkpt><trkpt lat="45.2303783" lon="7.3731667"><ele>780.0</ele><time>2026-05-03T09:18:04.109Z</time></trkpt><trkpt lat="45.2303033" lon="7.3732133"><ele>780.0</ele><time>2026-05-03T09:18:05.114Z</time></trkpt><trkpt lat="45.23024" lon="7.3732883"><ele>780.0</ele><time>2026-05-03T09:18:06.119Z</time></trkpt><trkpt lat="45.2301967" lon="7.3734033"><ele>780.0</ele><time>2026-05-03T09:18:07.113Z</time></trkpt><trkpt lat="45.2301667" lon="7.3735683"><ele>780.0</ele><time>2026-05-03T09:18:08.114Z</time></trkpt><trkpt lat="45.2301717" lon="7.3737433"><ele>780.0</ele><time>2026-05-03T09:18:09.113Z</time></trkpt><trkpt lat="45.2302117" lon="7.373915"><ele>780.0</ele><time>2026-05-03T09:18:10.117Z</time></trkpt><trkpt lat="45.2302517" lon="7.3741183"><ele>780.3333333333333</ele><time>2026-05-03T09:18:11.115Z</time></trkpt><trkpt lat="45.2302783" lon="7.3743483"><ele>780.6666666666666</ele><time>2026-05-03T09:18:12.11Z</time></trkpt><trkpt lat="45.230305" lon="7.3745767"><ele>781.0</ele><time>2026-05-03T09:18:13.117Z</time></trkpt><trkpt lat="45.2303267" lon="7.374785"><ele>781.25</ele><time>2026-05-03T09:18:14.113Z</time></trkpt><trkpt lat="45.2303583" lon="7.3749783"><ele>781.5</ele><time>2026-05-03T09:18:15.118Z</time></trkpt><trkpt lat="45.2303967" lon="7.3751567"><ele>781.75</ele><time>2026-05-03T09:18:16.114Z</time></trkpt><trkpt lat="45.2304317" lon="7.375315"><ele>782.0</ele><time>2026-05-03T09:18:17.111Z</time></trkpt><trkpt lat="45.2304567" lon="7.375445"><ele>781.8333333333334</ele><time>2026-05-03T09:18:18.113Z</time></trkpt><trkpt lat="45.2304633" lon="7.3755517"><ele>781.6666666666667</ele><time>2026-05-03T09:18:19.116Z</time></trkpt><trkpt lat="45.2304" lon="7.3756433"><ele>781.5</ele><time>2026-05-03T09:18:21.114Z</time></trkpt><trkpt lat="45.2303267" lon="7.375605"><ele>781.3333333333333</ele><time>2026-05-03T09:18:22.114Z</time></trkpt><trkpt lat="45.2302467" lon="7.3755583"><ele>781.1666666666666</ele><time>2026-05-03T09:18:23.114Z</time></trkpt><trkpt lat="45.2301633" lon="7.3755383"><ele>781.0</ele><time>2026-05-03T09:18:24.115Z</time></trkpt><trkpt lat="45.2300833" lon="7.3755383"><ele>780.9999999999999</ele><time>2026-05-03T09:18:25.11Z</time></trkpt><trkpt lat="45.2300117" lon="7.3755683"><ele>781.0</ele><time>2026-05-03T09:18:26.118Z</time></trkpt><trkpt lat="45.229935" lon="7.3756183"><ele>781.0</ele><time>2026-05-03T09:18:27.113Z</time></trkpt><trkpt lat="45.22987" lon="7.3756967"><ele>781.0</ele><time>2026-05-03T09:18:28.113Z</time></trkpt><trkpt lat="45.2298067" lon="7.3758033"><ele>780.9999999999999</ele><time>2026-05-03T09:18:29.111Z</time></trkpt><trkpt lat="45.2297633" lon="7.3759117"><ele>781.0</ele><time>2026-05-03T09:18:30.113Z</time></trkpt><trkpt lat="45.2297183" lon="7.376005"><ele>783.8</ele><time>2026-05-03T09:18:31.113Z</time></trkpt><trkpt lat="45.229675" lon="7.3760883"><ele>786.5999999999999</ele><time>2026-05-03T09:18:32.117Z</time></trkpt><trkpt lat="45.2296317" lon="7.3761533"><ele>789.4</ele><time>2026-05-03T09:18:33.114Z</time></trkpt><trkpt lat="45.229545" lon="7.37614"><ele>792.2</ele><time>2026-05-03T09:18:35.112Z</time></trkpt><trkpt lat="45.2295317" lon="7.3760217"><ele>795.0</ele><time>2026-05-03T09:18:36.114Z</time></trkpt><trkpt lat="45.2295717" lon="7.3757517"><ele>795.0</ele><time>2026-05-03T09:18:37.116Z</time></trkpt><trkpt lat="45.2295883" lon="7.3755317"><ele>795.0</ele><time>2026-05-03T09:18:38.11Z</time></trkpt><trkpt lat="45.2295817" lon="7.3753133"><ele>795.0</ele><time>2026-05-03T09:18:39.113Z</time></trkpt><trkpt lat="45.2295767" lon="7.3750733"><ele>797.5</ele><time>2026-05-03T09:18:40.116Z</time></trkpt><trkpt lat="45.2295717" lon="7.3748417"><ele>800.0</ele><time>2026-05-03T09:18:41.114Z</time></trkpt><trkpt lat="45.2295667" lon="7.374635"><ele>802.5</ele><time>2026-05-03T09:18:42.112Z</time></trkpt><trkpt lat="45.2295583" lon="7.37445"><ele>805.0</ele><time>2026-05-03T09:18:43.114Z</time></trkpt><trkpt lat="45.2295483" lon="7.3742817"><ele>805.4</ele><time>2026-05-03T09:18:44.113Z</time></trkpt><trkpt lat="45.22954" lon="7.374155"><ele>805.8</ele><time>2026-05-03T09:18:45.115Z</time></trkpt><trkpt lat="45.22951" lon="7.374045"><ele>806.2</ele><time>2026-05-03T09:18:46.114Z</time></trkpt><trkpt lat="45.22945" lon="7.3739183"><ele>806.6</ele><time>2026-05-03T09:18:47.112Z</time></trkpt><trkpt lat="45.2293983" lon="7.3738067"><ele>807.0</ele><time>2026-05-03T09:18:48.111Z</time></trkpt><trkpt lat="45.2293333" lon="7.3736967"><ele>807.0</ele><time>2026-05-03T09:18:49.113Z</time></trkpt><trkpt lat="45.22927" lon="7.3736083"><ele>807.0</ele><time>2026-05-03T09:18:50.113Z</time></trkpt><trkpt lat="45.2292183" lon="7.37352"><ele>807.0</ele><time>2026-05-03T09:18:51.114Z</time></trkpt><trkpt lat="45.22916" lon="7.3734333"><ele>807.0</ele><time>2026-05-03T09:18:52.116Z</time></trkpt><trkpt lat="45.22912" lon="7.373505"><ele>807.0</ele><time>2026-05-03T09:18:53.113Z</time></trkpt><trkpt lat="45.2290733" lon="7.373585"><ele>807.0</ele><time>2026-05-03T09:18:55.117Z</time></trkpt><trkpt lat="45.2290333" lon="7.37367"><ele>807.0</ele><time>2026-05-03T09:18:57.116Z</time></trkpt><trkpt lat="45.2290883" lon="7.3737883"><ele>807.0</ele><time>2026-05-03T09:18:58.114Z</time></trkpt><trkpt lat="45.2291817" lon="7.3738933"><ele>807.0</ele><time>2026-05-03T09:18:59.116Z</time></trkpt><trkpt lat="45.2291983" lon="7.37402"><ele>807.0</ele><time>2026-05-03T09:19:00.114Z</time></trkpt><trkpt lat="45.229225" lon="7.3741333"><ele>807.0</ele><time>2026-05-03T09:19:01.112Z</time></trkpt><trkpt lat="45.22926" lon="7.37424"><ele>806.5</ele><time>2026-05-03T09:19:02.117Z</time></trkpt><trkpt lat="45.2292683" lon="7.374435"><ele>806.0</ele><time>2026-05-03T09:19:04.115Z</time></trkpt><trkpt lat="45.22923" lon="7.3745433"><ele>805.5</ele><time>2026-05-03T09:19:05.114Z</time></trkpt><trkpt lat="45.2291317" lon="7.3746983"><ele>805.0</ele><time>2026-05-03T09:19:06.113Z</time></trkpt><trkpt lat="45.2290517" lon="7.374855"><ele>805.0</ele><time>2026-05-03T09:19:07.116Z</time></trkpt><trkpt lat="45.2289783" lon="7.3749517"><ele>805.0</ele><time>2026-05-03T09:19:08.114Z</time></trkpt><trkpt lat="45.2288933" lon="7.3750233"><ele>805.0</ele><time>2026-05-03T09:19:09.116Z</time></trkpt><trkpt lat="45.2288" lon="7.375065"><ele>805.0</ele><time>2026-05-03T09:19:10.113Z</time></trkpt><trkpt lat="45.2287033" lon="7.3750917"><ele>805.0</ele><time>2026-05-03T09:19:11.114Z</time></trkpt><trkpt lat="45.2286133" lon="7.3751117"><ele>809.4</ele><time>2026-05-03T09:19:12.113Z</time></trkpt><trkpt lat="45.2285183" lon="7.37512"><ele>813.8</ele><time>2026-05-03T09:19:13.113Z</time></trkpt><trkpt lat="45.2284067" lon="7.3751267"><ele>818.2</ele><time>2026-05-03T09:19:14.116Z</time></trkpt><trkpt lat="45.228295" lon="7.3751333"><ele>822.6</ele><time>2026-05-03T09:19:15.115Z</time></trkpt><trkpt lat="45.2281733" lon="7.3751267"><ele>827.0</ele><time>2026-05-03T09:19:16.113Z</time></trkpt><trkpt lat="45.2280683" lon="7.37513"><ele>831.3333333333334</ele><time>2026-05-03T09:19:17.117Z</time></trkpt><trkpt lat="45.2279633" lon="7.3751383"><ele>835.6666666666667</ele><time>2026-05-03T09:19:18.116Z</time></trkpt><trkpt lat="45.227895" lon="7.37523"><ele>840.0</ele><time>2026-05-03T09:19:19.112Z</time></trkpt><trkpt lat="45.2278367" lon="7.3753083"><ele>844.3333333333333</ele><time>2026-05-03T09:19:20.112Z</time></trkpt><trkpt lat="45.2277733" lon="7.37538"><ele>848.6666666666666</ele><time>2026-05-03T09:19:21.113Z</time></trkpt><trkpt lat="45.2277133" lon="7.3754267"><ele>853.0</ele><time>2026-05-03T09:19:22.114Z</time></trkpt><trkpt lat="45.2276367" lon="7.375495"><ele>849.2</ele><time>2026-05-03T09:19:23.117Z</time></trkpt><trkpt lat="45.2275683" lon="7.3755717"><ele>845.4</ele><time>2026-05-03T09:19:24.118Z</time></trkpt><trkpt lat="45.2275033" lon="7.37567"><ele>841.6</ele><time>2026-05-03T09:19:25.114Z</time></trkpt><trkpt lat="45.22744" lon="7.3757917"><ele>837.8000000000001</ele><time>2026-05-03T09:19:26.115Z</time></trkpt><trkpt lat="45.227375" lon="7.3759467"><ele>834.0</ele><time>2026-05-03T09:19:27.116Z</time></trkpt><trkpt lat="45.227315" lon="7.376225"><ele>843.6666666666667</ele><time>2026-05-03T09:19:28.116Z</time></trkpt><trkpt lat="45.227245" lon="7.3764467"><ele>853.3333333333334</ele><time>2026-05-03T09:19:29.116Z</time></trkpt><trkpt lat="45.2271817" lon="7.3766317"><ele>863.0</ele><time>2026-05-03T09:19:30.112Z</time></trkpt><trkpt lat="45.2271267" lon="7.37681"><ele>863.0</ele><time>2026-05-03T09:19:31.113Z</time></trkpt><trkpt lat="45.22708" lon="7.3770117"><ele>863.0</ele><time>2026-05-03T09:19:32.114Z</time></trkpt><trkpt lat="45.2270133" lon="7.377205"><ele>863.0</ele><time>2026-05-03T09:19:33.117Z</time></trkpt><trkpt lat="45.2269517" lon="7.3773533"><ele>863.0</ele><time>2026-05-03T09:19:34.114Z</time></trkpt><trkpt lat="45.2268883" lon="7.3774883"><ele>862.75</ele><time>2026-05-03T09:19:35.113Z</time></trkpt><trkpt lat="45.2268017" lon="7.377575"><ele>862.5</ele><time>2026-05-03T09:19:36.112Z</time></trkpt><trkpt lat="45.2266383" lon="7.377585"><ele>862.25</ele><time>2026-05-03T09:19:37.114Z</time></trkpt><trkpt lat="45.2264883" lon="7.3776417"><ele>862.0</ele><time>2026-05-03T09:19:38.117Z</time></trkpt><trkpt lat="45.2263567" lon="7.3776867"><ele>862.0</ele><time>2026-05-03T09:19:39.112Z</time></trkpt><trkpt lat="45.2262367" lon="7.3777717"><ele>862.0</ele><time>2026-05-03T09:19:40.114Z</time></trkpt><trkpt lat="45.2261217" lon="7.3778767"><ele>862.0</ele><time>2026-05-03T09:19:41.113Z</time></trkpt><trkpt lat="45.22598" lon="7.3779317"><ele>862.0</ele><time>2026-05-03T09:19:42.113Z</time></trkpt><trkpt lat="45.22583" lon="7.3780067"><ele>858.6666666666666</ele><time>2026-05-03T09:19:43.113Z</time></trkpt><trkpt lat="45.2256883" lon="7.37808"><ele>855.3333333333333</ele><time>2026-05-03T09:19:44.113Z</time></trkpt><trkpt lat="45.2255267" lon="7.3781617"><ele>852.0</ele><time>2026-05-03T09:19:45.112Z</time></trkpt><trkpt lat="45.2253567" lon="7.3782267"><ele>852.0</ele><time>2026-05-03T09:19:46.114Z</time></trkpt><trkpt lat="45.2252083" lon="7.3782783"><ele>852.0</ele><time>2026-05-03T09:19:47.111Z</time></trkpt><trkpt lat="45.2250517" lon="7.378335"><ele>852.0</ele><time>2026-05-03T09:19:48.112Z</time></trkpt><trkpt lat="45.2249067" lon="7.3783783"><ele>855.5</ele><time>2026-05-03T09:19:49.113Z</time></trkpt><trkpt lat="45.2247767" lon="7.3784233"><ele>859.0</ele><time>2026-05-03T09:19:50.112Z</time></trkpt><trkpt lat="45.2246483" lon="7.3784617"><ele>862.5</ele><time>2026-05-03T09:19:51.116Z</time></trkpt><trkpt lat="45.224525" lon="7.378485"><ele>866.0</ele><time>2026-05-03T09:19:52.113Z</time></trkpt><trkpt lat="45.224415" lon="7.3785083"><ele>866.0</ele><time>2026-05-03T09:19:53.113Z</time></trkpt><trkpt lat="45.2243167" lon="7.3785133"><ele>865.9999999999999</ele><time>2026-05-03T09:19:54.113Z</time></trkpt><trkpt lat="45.2242183" lon="7.3785267"><ele>865.9999999999999</ele><time>2026-05-03T09:19:55.112Z</time></trkpt><trkpt lat="45.2241333" lon="7.3785583"><ele>866.0</ele><time>2026-05-03T09:19:56.113Z</time></trkpt><trkpt lat="45.2240417" lon="7.3786117"><ele>866.0</ele><time>2026-05-03T09:19:57.115Z</time></trkpt><trkpt lat="45.2239567" lon="7.378655"><ele>870.8333333333334</ele><time>2026-05-03T09:19:58.112Z</time></trkpt><trkpt lat="45.2238783" lon="7.3787167"><ele>875.6666666666667</ele><time>2026-05-03T09:19:59.113Z</time></trkpt><trkpt lat="45.2238067" lon="7.3787933"><ele>880.5</ele><time>2026-05-03T09:20:00.111Z</time></trkpt><trkpt lat="45.2238283" lon="7.3789183"><ele>885.3333333333333</ele><time>2026-05-03T09:20:01.116Z</time></trkpt><trkpt lat="45.2238033" lon="7.3790317"><ele>890.1666666666666</ele><time>2026-05-03T09:20:02.115Z</time></trkpt><trkpt lat="45.223815" lon="7.379155"><ele>895.0</ele><time>2026-05-03T09:20:03.11Z</time></trkpt><trkpt lat="45.2238083" lon="7.3792733"><ele>895.0</ele><time>2026-05-03T09:20:04.113Z</time></trkpt><trkpt lat="45.2238767" lon="7.3793583"><ele>895.0</ele><time>2026-05-03T09:20:05.112Z</time></trkpt><trkpt lat="45.2239517" lon="7.37943"><ele>895.0</ele><time>2026-05-03T09:20:06.112Z</time></trkpt><trkpt lat="45.2240267" lon="7.37948"><ele>895.0</ele><time>2026-05-03T09:20:07.111Z</time></trkpt><trkpt lat="45.22408" lon="7.37955"><ele>895.0</ele><time>2026-05-03T09:20:08.11Z</time></trkpt><trkpt lat="45.2242" lon="7.3796067"><ele>892.75</ele><time>2026-05-03T09:20:09.113Z</time></trkpt><trkpt lat="45.2243267" lon="7.3796933"><ele>890.5</ele><time>2026-05-03T09:20:10.112Z</time></trkpt><trkpt lat="45.224455" lon="7.37977"><ele>888.25</ele><time>2026-05-03T09:20:11.112Z</time></trkpt><trkpt lat="45.2245817" lon="7.3798383"><ele>886.0</ele><time>2026-05-03T09:20:12.114Z</time></trkpt><trkpt lat="45.2247217" lon="7.3798917"><ele>882.4</ele><time>2026-05-03T09:20:13.115Z</time></trkpt><trkpt lat="45.2248433" lon="7.3799417"><ele>878.8</ele><time>2026-05-03T09:20:14.11Z</time></trkpt><trkpt lat="45.2249367" lon="7.3800067"><ele>875.1999999999999</ele><time>2026-05-03T09:20:15.114Z</time></trkpt><trkpt lat="45.2249967" lon="7.3800917"><ele>871.5999999999999</ele><time>2026-05-03T09:20:16.112Z</time></trkpt><trkpt lat="45.2250683" lon="7.380165"><ele>868.0</ele><time>2026-05-03T09:20:17.112Z</time></trkpt><trkpt lat="45.22506" lon="7.3802667"><ele>868.0</ele><time>2026-05-03T09:20:18.111Z</time></trkpt><trkpt lat="45.2250883" lon="7.3803717"><ele>868.0</ele><time>2026-05-03T09:20:19.113Z</time></trkpt><trkpt lat="45.22505" lon="7.3805117"><ele>868.0</ele><time>2026-05-03T09:20:20.114Z</time></trkpt><trkpt lat="45.2250767" lon="7.38062"><ele>868.0</ele><time>2026-05-03T09:20:21.113Z</time></trkpt><trkpt lat="45.225115" lon="7.3807583"><ele>868.0</ele><time>2026-05-03T09:20:22.111Z</time></trkpt><trkpt lat="45.2251567" lon="7.3808933"><ele>870.4</ele><time>2026-05-03T09:20:23.114Z</time></trkpt><trkpt lat="45.225195" lon="7.3810133"><ele>872.8</ele><time>2026-05-03T09:20:24.111Z</time></trkpt><trkpt lat="45.2252183" lon="7.38113"><ele>875.2</ele><time>2026-05-03T09:20:25.113Z</time></trkpt><trkpt lat="45.2252367" lon="7.3812383"><ele>877.6</ele><time>2026-05-03T09:20:26.113Z</time></trkpt><trkpt lat="45.22524" lon="7.3814"><ele>880.0</ele><time>2026-05-03T09:20:28.113Z</time></trkpt><trkpt lat="45.22515" lon="7.3813767"><ele>880.0</ele><time>2026-05-03T09:20:31.112Z</time></trkpt><trkpt lat="45.2250683" lon="7.3812833"><ele>880.0</ele><time>2026-05-03T09:20:33.113Z</time></trkpt><trkpt lat="45.2249933" lon="7.3810983"><ele>880.0</ele><time>2026-05-03T09:20:34.111Z</time></trkpt><trkpt lat="45.224945" lon="7.381"><ele>880.0</ele><time>2026-05-03T09:20:35.111Z</time></trkpt><trkpt lat="45.2248917" lon="7.3808867"><ele>880.0</ele><time>2026-05-03T09:20:36.111Z</time></trkpt><trkpt lat="45.224815" lon="7.3807333"><ele>881.2</ele><time>2026-05-03T09:20:37.112Z</time></trkpt><trkpt lat="45.2247333" lon="7.3805967"><ele>882.4</ele><time>2026-05-03T09:20:38.113Z</time></trkpt><trkpt lat="45.22467" lon="7.3805133"><ele>883.5999999999999</ele><time>2026-05-03T09:20:39.115Z</time></trkpt><trkpt lat="45.2246917" lon="7.3806467"><ele>884.8</ele><time>2026-05-03T09:20:40.113Z</time></trkpt><trkpt lat="45.224735" lon="7.3807567"><ele>886.0</ele><time>2026-05-03T09:20:41.11Z</time></trkpt><trkpt lat="45.2247883" lon="7.380885"><ele>885.4999999999999</ele><time>2026-05-03T09:20:42.113Z</time></trkpt><trkpt lat="45.2248383" lon="7.3810067"><ele>885.0</ele><time>2026-05-03T09:20:43.11Z</time></trkpt><trkpt lat="45.2248767" lon="7.3811233"><ele>884.5</ele><time>2026-05-03T09:20:44.112Z</time></trkpt><trkpt lat="45.2248933" lon="7.381215"><ele>884.0</ele><time>2026-05-03T09:20:45.116Z</time></trkpt><trkpt lat="45.224915" lon="7.3813633"><ele>883.4999999999999</ele><time>2026-05-03T09:20:47.118Z</time></trkpt><trkpt lat="45.22484" lon="7.3813517"><ele>883.0</ele><time>2026-05-03T09:20:49.115Z</time></trkpt><trkpt lat="45.22477" lon="7.381265"><ele>888.5</ele><time>2026-05-03T09:20:51.115Z</time></trkpt><trkpt lat="45.2246733" lon="7.3810983"><ele>894.0</ele><time>2026-05-03T09:20:52.113Z</time></trkpt><trkpt lat="45.224585" lon="7.3809567"><ele>899.5</ele><time>2026-05-03T09:20:53.117Z</time></trkpt><trkpt lat="45.2244967" lon="7.380805"><ele>905.0</ele><time>2026-05-03T09:20:54.111Z</time></trkpt><trkpt lat="45.2244267" lon="7.3807033"><ele>905.0</ele><time>2026-05-03T09:20:55.113Z</time></trkpt><trkpt lat="45.224355" lon="7.3805983"><ele>905.0</ele><time>2026-05-03T09:20:56.115Z</time></trkpt><trkpt lat="45.2242833" lon="7.3804867"><ele>905.0</ele><time>2026-05-03T09:20:57.113Z</time></trkpt><trkpt lat="45.2242217" lon="7.380395"><ele>905.0</ele><time>2026-05-03T09:20:58.113Z</time></trkpt><trkpt lat="45.2241633" lon="7.380315"><ele>905.0</ele><time>2026-05-03T09:20:59.11Z</time></trkpt><trkpt lat="45.2241083" lon="7.3802383"><ele>905.0</ele><time>2026-05-03T09:21:00.113Z</time></trkpt><trkpt lat="45.2240217" lon="7.380145"><ele>905.0</ele><time>2026-05-03T09:21:02.114Z</time></trkpt><trkpt lat="45.2240017" lon="7.3802317"><ele>905.0</ele><time>2026-05-03T09:21:03.112Z</time></trkpt><trkpt lat="45.223965" lon="7.380375"><ele>905.0</ele><time>2026-05-03T09:21:05.113Z</time></trkpt><trkpt lat="45.2239567" lon="7.380525"><ele>905.0</ele><time>2026-05-03T09:21:07.116Z</time></trkpt><trkpt lat="45.223985" lon="7.38065"><ele>905.0</ele><time>2026-05-03T09:21:08.116Z</time></trkpt><trkpt lat="45.2240283" lon="7.380785"><ele>905.0</ele><time>2026-05-03T09:21:09.118Z</time></trkpt><trkpt lat="45.2240917" lon="7.38091"><ele>905.0</ele><time>2026-05-03T09:21:10.111Z</time></trkpt><trkpt lat="45.224135" lon="7.38102"><ele>905.0</ele><time>2026-05-03T09:21:11.115Z</time></trkpt><trkpt lat="45.22417" lon="7.3811333"><ele>905.0</ele><time>2026-05-03T09:21:12.114Z</time></trkpt><trkpt lat="45.2242067" lon="7.381255"><ele>906.8</ele><time>2026-05-03T09:21:13.113Z</time></trkpt><trkpt lat="45.2242267" lon="7.381385"><ele>908.6</ele><time>2026-05-03T09:21:14.112Z</time></trkpt><trkpt lat="45.22423" lon="7.38152"><ele>910.4000000000001</ele><time>2026-05-03T09:21:15.117Z</time></trkpt><trkpt lat="45.2242567" lon="7.3816533"><ele>912.2</ele><time>2026-05-03T09:21:16.116Z</time></trkpt><trkpt lat="45.2242667" lon="7.3818117"><ele>914.0</ele><time>2026-05-03T09:21:17.114Z</time></trkpt><trkpt lat="45.2242333" lon="7.3820417"><ele>914.8000000000001</ele><time>2026-05-03T09:21:18.115Z</time></trkpt><trkpt lat="45.2242317" lon="7.3822033"><ele>915.6000000000001</ele><time>2026-05-03T09:21:19.115Z</time></trkpt><trkpt lat="45.2242283" lon="7.3823483"><ele>916.4</ele><time>2026-05-03T09:21:20.114Z</time></trkpt><trkpt lat="45.2242217" lon="7.3824983"><ele>917.2</ele><time>2026-05-03T09:21:21.117Z</time></trkpt><trkpt lat="45.2242167" lon="7.38263"><ele>918.0</ele><time>2026-05-03T09:21:22.113Z</time></trkpt><trkpt lat="45.2242067" lon="7.3827283"><ele>918.0</ele><time>2026-05-03T09:21:23.112Z</time></trkpt><trkpt lat="45.2242017" lon="7.3828283"><ele>918.0</ele><time>2026-05-03T09:21:24.116Z</time></trkpt><trkpt lat="45.2240517" lon="7.3829667"><ele>918.0</ele><time>2026-05-03T09:21:25.112Z</time></trkpt><trkpt lat="45.224025" lon="7.3830767"><ele>918.0</ele><time>2026-05-03T09:21:26.114Z</time></trkpt><trkpt lat="45.223995" lon="7.3831883"><ele>918.0</ele><time>2026-05-03T09:21:27.113Z</time></trkpt><trkpt lat="45.2239617" lon="7.3832717"><ele>924.3333333333333</ele><time>2026-05-03T09:21:28.11Z</time></trkpt><trkpt lat="45.2236933" lon="7.3833167"><ele>930.6666666666666</ele><time>2026-05-03T09:21:29.111Z</time></trkpt><trkpt lat="45.2235983" lon="7.3834017"><ele>937.0</ele><time>2026-05-03T09:21:30.111Z</time></trkpt><trkpt lat="45.2234417" lon="7.3834183"><ele>937.0</ele><time>2026-05-03T09:21:31.113Z</time></trkpt><trkpt lat="45.2233133" lon="7.383465"><ele>937.0</ele><time>2026-05-03T09:21:32.111Z</time></trkpt><trkpt lat="45.22319" lon="7.3836883"><ele>937.0</ele><time>2026-05-03T09:21:34.111Z</time></trkpt><trkpt lat="45.2231617" lon="7.3837917"><ele>937.0</ele><time>2026-05-03T09:21:35.113Z</time></trkpt><trkpt lat="45.223125" lon="7.3839033"><ele>944.2</ele><time>2026-05-03T09:21:36.116Z</time></trkpt><trkpt lat="45.22308" lon="7.384"><ele>951.4000000000001</ele><time>2026-05-03T09:21:37.113Z</time></trkpt><trkpt lat="45.2230533" lon="7.3841817"><ele>958.5999999999999</ele><time>2026-05-03T09:21:38.112Z</time></trkpt><trkpt lat="45.223045" lon="7.3843483"><ele>965.8</ele><time>2026-05-03T09:21:39.115Z</time></trkpt><trkpt lat="45.2230917" lon="7.3844883"><ele>973.0</ele><time>2026-05-03T09:21:40.111Z</time></trkpt><trkpt lat="45.223145" lon="7.3845633"><ele>971.2</ele><time>2026-05-03T09:21:41.112Z</time></trkpt><trkpt lat="45.22322" lon="7.384635"><ele>969.4</ele><time>2026-05-03T09:21:42.109Z</time></trkpt><trkpt lat="45.223245" lon="7.3848017"><ele>967.6000000000001</ele><time>2026-05-03T09:21:44.111Z</time></trkpt><trkpt lat="45.2233267" lon="7.3848333"><ele>965.8000000000001</ele><time>2026-05-03T09:21:47.113Z</time></trkpt><trkpt lat="45.2234117" lon="7.3848517"><ele>964.0</ele><time>2026-05-03T09:21:48.116Z</time></trkpt><trkpt lat="45.2234767" lon="7.38491"><ele>964.0</ele><time>2026-05-03T09:21:49.113Z</time></trkpt><trkpt lat="45.2236083" lon="7.38494"><ele>964.0</ele><time>2026-05-03T09:21:50.111Z</time></trkpt><trkpt lat="45.2237667" lon="7.3849567"><ele>964.0</ele><time>2026-05-03T09:21:51.113Z</time></trkpt><trkpt lat="45.2239" lon="7.38502"><ele>964.0</ele><time>2026-05-03T09:21:52.113Z</time></trkpt><trkpt lat="45.2239933" lon="7.3850883"><ele>962.0</ele><time>2026-05-03T09:21:53.117Z</time></trkpt><trkpt lat="45.2241867" lon="7.3851517"><ele>960.0</ele><time>2026-05-03T09:21:54.114Z</time></trkpt><trkpt lat="45.224345" lon="7.3852183"><ele>958.0</ele><time>2026-05-03T09:21:55.112Z</time></trkpt><trkpt lat="45.224425" lon="7.3853083"><ele>958.0</ele><time>2026-05-03T09:21:56.112Z</time></trkpt><trkpt lat="45.224475" lon="7.3854333"><ele>958.0</ele><time>2026-05-03T09:21:57.11Z</time></trkpt><trkpt lat="45.224515" lon="7.3855683"><ele>958.0</ele><time>2026-05-03T09:21:58.113Z</time></trkpt><trkpt lat="45.224615" lon="7.3857"><ele>958.0</ele><time>2026-05-03T09:21:59.112Z</time></trkpt><trkpt lat="45.2248417" lon="7.38593"><ele>958.0</ele><time>2026-05-03T09:22:00.111Z</time></trkpt><trkpt lat="45.224875" lon="7.386125"><ele>958.0</ele><time>2026-05-03T09:22:01.11Z</time></trkpt><trkpt lat="45.224925" lon="7.38631"><ele>958.0</ele><time>2026-05-03T09:22:02.116Z</time></trkpt><trkpt lat="45.2249817" lon="7.3865167"><ele>958.0</ele><time>2026-05-03T09:22:03.113Z</time></trkpt><trkpt lat="45.2250317" lon="7.3866933"><ele>958.4</ele><time>2026-05-03T09:22:04.11Z</time></trkpt><trkpt lat="45.22508" lon="7.38686"><ele>958.8</ele><time>2026-05-03T09:22:05.111Z</time></trkpt><trkpt lat="45.2250917" lon="7.3870467"><ele>959.2</ele><time>2026-05-03T09:22:06.111Z</time></trkpt><trkpt lat="45.2251183" lon="7.387145"><ele>959.6</ele><time>2026-05-03T09:22:07.109Z</time></trkpt><trkpt lat="45.2250933" lon="7.3872733"><ele>960.0</ele><time>2026-05-03T09:22:08.11Z</time></trkpt><trkpt lat="45.2250867" lon="7.3874183"><ele>958.5</ele><time>2026-05-03T09:22:09.113Z</time></trkpt><trkpt lat="45.224975" lon="7.387535"><ele>957.0</ele><time>2026-05-03T09:22:10.11Z</time></trkpt><trkpt lat="45.2248533" lon="7.387625"><ele>955.5</ele><time>2026-05-03T09:22:11.112Z</time></trkpt><trkpt lat="45.224745" lon="7.3876767"><ele>954.0</ele><time>2026-05-03T09:22:12.111Z</time></trkpt><trkpt lat="45.2246767" lon="7.38777"><ele>961.6</ele><time>2026-05-03T09:22:13.112Z</time></trkpt><trkpt lat="45.2246283" lon="7.38788"><ele>969.2</ele><time>2026-05-03T09:22:14.113Z</time></trkpt><trkpt lat="45.22459" lon="7.3880067"><ele>976.8000000000001</ele><time>2026-05-03T09:22:15.116Z</time></trkpt><trkpt lat="45.2245533" lon="7.3881167"><ele>984.4000000000001</ele><time>2026-05-03T09:22:16.115Z</time></trkpt><trkpt lat="45.224515" lon="7.3882383"><ele>992.0</ele><time>2026-05-03T09:22:17.111Z</time></trkpt><trkpt lat="45.224485" lon="7.388365"><ele>992.0</ele><time>2026-05-03T09:22:18.114Z</time></trkpt><trkpt lat="45.2244633" lon="7.3884883"><ele>992.0</ele><time>2026-05-03T09:22:19.115Z</time></trkpt><trkpt lat="45.2244583" lon="7.3886033"><ele>992.0</ele><time>2026-05-03T09:22:20.114Z</time></trkpt><trkpt lat="45.2244467" lon="7.3887183"><ele>992.0</ele><time>2026-05-03T09:22:21.113Z</time></trkpt><trkpt lat="45.2244333" lon="7.388905"><ele>992.0</ele><time>2026-05-03T09:22:22.113Z</time></trkpt><trkpt lat="45.2244367" lon="7.389055"><ele>992.75</ele><time>2026-05-03T09:22:23.113Z</time></trkpt><trkpt lat="45.2244483" lon="7.3891917"><ele>993.5</ele><time>2026-05-03T09:22:24.113Z</time></trkpt><trkpt lat="45.2245033" lon="7.3893217"><ele>994.25</ele><time>2026-05-03T09:22:25.113Z</time></trkpt><trkpt lat="45.2245467" lon="7.3895167"><ele>995.0</ele><time>2026-05-03T09:22:26.111Z</time></trkpt><trkpt lat="45.2245783" lon="7.3897167"><ele>997.6666666666667</ele><time>2026-05-03T09:22:27.117Z</time></trkpt><trkpt lat="45.2246483" lon="7.3898983"><ele>1000.3333333333333</ele><time>2026-05-03T09:22:28.112Z</time></trkpt><trkpt lat="45.22467" lon="7.390105"><ele>1003.0</ele><time>2026-05-03T09:22:29.112Z</time></trkpt><trkpt lat="45.2247367" lon="7.3903067"><ele>1004.75</ele><time>2026-05-03T09:22:30.11Z</time></trkpt><trkpt lat="45.224795" lon="7.3905667"><ele>1006.5</ele><time>2026-05-03T09:22:31.115Z</time></trkpt><trkpt lat="45.2248333" lon="7.3907267"><ele>1008.25</ele><time>2026-05-03T09:22:32.114Z</time></trkpt><trkpt lat="45.224875" lon="7.3908583"><ele>1010.0</ele><time>2026-05-03T09:22:33.114Z</time></trkpt><trkpt lat="45.2249083" lon="7.3909883"><ele>1010.0</ele><time>2026-05-03T09:22:34.114Z</time></trkpt><trkpt lat="45.2249717" lon="7.3910833"><ele>1010.0</ele><time>2026-05-03T09:22:35.11Z</time></trkpt><trkpt lat="45.225" lon="7.39117"><ele>1010.0</ele><time>2026-05-03T09:22:36.113Z</time></trkpt><trkpt lat="45.22502" lon="7.3913317"><ele>1010.0</ele><time>2026-05-03T09:22:38.117Z</time></trkpt><trkpt lat="45.2249533" lon="7.39132"><ele>1010.0</ele><time>2026-05-03T09:22:41.112Z</time></trkpt><trkpt lat="45.2248017" lon="7.3910533"><ele>1010.0</ele><time>2026-05-03T09:22:43.116Z</time></trkpt><trkpt lat="45.2247317" lon="7.3908967"><ele>1010.0</ele><time>2026-05-03T09:22:44.109Z</time></trkpt><trkpt lat="45.2246867" lon="7.3907183"><ele>1010.0</ele><time>2026-05-03T09:22:45.114Z</time></trkpt><trkpt lat="45.2246383" lon="7.390585"><ele>1010.0</ele><time>2026-05-03T09:22:46.113Z</time></trkpt><trkpt lat="45.224595" lon="7.3905067"><ele>1010.0</ele><time>2026-05-03T09:22:47.113Z</time></trkpt><trkpt lat="45.224525" lon="7.3904217"><ele>1010.0</ele><time>2026-05-03T09:22:48.112Z</time></trkpt><trkpt lat="45.2244033" lon="7.3903733"><ele>1010.0</ele><time>2026-05-03T09:22:50.119Z</time></trkpt><trkpt lat="45.2243283" lon="7.39045"><ele>1010.0</ele><time>2026-05-03T09:22:52.109Z</time></trkpt><trkpt lat="45.2243283" lon="7.3905517"><ele>1010.0</ele><time>2026-05-03T09:22:53.113Z</time></trkpt><trkpt lat="45.2243483" lon="7.3906517"><ele>1010.0</ele><time>2026-05-03T09:22:54.116Z</time></trkpt><trkpt lat="45.2244133" lon="7.39077"><ele>1010.0</ele><time>2026-05-03T09:22:55.112Z</time></trkpt><trkpt lat="45.2244967" lon="7.3909"><ele>1010.0</ele><time>2026-05-03T09:22:56.114Z</time></trkpt><trkpt lat="45.2246033" lon="7.391005"><ele>1010.0</ele><time>2026-05-03T09:22:57.114Z</time></trkpt><trkpt lat="45.2246733" lon="7.3910933"><ele>1010.0</ele><time>2026-05-03T09:22:58.115Z</time></trkpt><trkpt lat="45.2247217" lon="7.391175"><ele>1010.0</ele><time>2026-05-03T09:22:59.11Z</time></trkpt><trkpt lat="45.2247917" lon="7.3912883"><ele>1010.0</ele><time>2026-05-03T09:23:01.113Z</time></trkpt><trkpt lat="45.2246917" lon="7.3913367"><ele>1010.0</ele><time>2026-05-03T09:23:06.112Z</time></trkpt><trkpt lat="45.2246267" lon="7.39129"><ele>1010.0</ele><time>2026-05-03T09:23:07.115Z</time></trkpt><trkpt lat="45.2245433" lon="7.391145"><ele>1010.0</ele><time>2026-05-03T09:23:08.112Z</time></trkpt><trkpt lat="45.22442" lon="7.3908533"><ele>1010.0</ele><time>2026-05-03T09:23:09.114Z</time></trkpt><trkpt lat="45.2243267" lon="7.3906367"><ele>1010.0</ele><time>2026-05-03T09:23:10.11Z</time></trkpt><trkpt lat="45.2242217" lon="7.3904033"><ele>1010.0</ele><time>2026-05-03T09:23:11.109Z</time></trkpt><trkpt lat="45.2241133" lon="7.3901917"><ele>1007.6666666666667</ele><time>2026-05-03T09:23:12.116Z</time></trkpt><trkpt lat="45.2240267" lon="7.3900633"><ele>1005.3333333333333</ele><time>2026-05-03T09:23:13.111Z</time></trkpt><trkpt lat="45.2239483" lon="7.389925"><ele>1003.0</ele><time>2026-05-03T09:23:14.113Z</time></trkpt><trkpt lat="45.2238183" lon="7.3896617"><ele>1013.3333333333333</ele><time>2026-05-03T09:23:15.117Z</time></trkpt><trkpt lat="45.223735" lon="7.3894567"><ele>1023.6666666666667</ele><time>2026-05-03T09:23:16.115Z</time></trkpt><trkpt lat="45.2236783" lon="7.389225"><ele>1034.0</ele><time>2026-05-03T09:23:17.114Z</time></trkpt><trkpt lat="45.2236517" lon="7.38902"><ele>1034.0</ele><time>2026-05-03T09:23:18.112Z</time></trkpt><trkpt lat="45.223655" lon="7.388925"><ele>1034.0</ele><time>2026-05-03T09:23:19.117Z</time></trkpt><trkpt lat="45.22363" lon="7.3887817"><ele>1034.0</ele><time>2026-05-03T09:23:20.112Z</time></trkpt><trkpt lat="45.2235983" lon="7.3886333"><ele>1034.0</ele><time>2026-05-03T09:23:21.114Z</time></trkpt><trkpt lat="45.2235583" lon="7.3884917"><ele>1034.0</ele><time>2026-05-03T09:23:22.113Z</time></trkpt><trkpt lat="45.2234817" lon="7.3883783"><ele>1033.6000000000001</ele><time>2026-05-03T09:23:23.116Z</time></trkpt><trkpt lat="45.2233983" lon="7.3882617"><ele>1033.2</ele><time>2026-05-03T09:23:24.114Z</time></trkpt><trkpt lat="45.22333" lon="7.3881333"><ele>1032.8000000000002</ele><time>2026-05-03T09:23:25.114Z</time></trkpt><trkpt lat="45.22327" lon="7.3879983"><ele>1032.4</ele><time>2026-05-03T09:23:26.111Z</time></trkpt><trkpt lat="45.2232167" lon="7.3878683"><ele>1032.0</ele><time>2026-05-03T09:23:27.114Z</time></trkpt><trkpt lat="45.2231617" lon="7.3877317"><ele>1032.4</ele><time>2026-05-03T09:23:28.109Z</time></trkpt><trkpt lat="45.2231167" lon="7.3875883"><ele>1032.8000000000002</ele><time>2026-05-03T09:23:29.108Z</time></trkpt><trkpt lat="45.22308" lon="7.3874467"><ele>1033.2</ele><time>2026-05-03T09:23:30.111Z</time></trkpt><trkpt lat="45.22304" lon="7.38732"><ele>1033.6000000000001</ele><time>2026-05-03T09:23:31.112Z</time></trkpt><trkpt lat="45.2230033" lon="7.3871983"><ele>1034.0</ele><time>2026-05-03T09:23:32.112Z</time></trkpt><trkpt lat="45.22299" lon="7.3870833"><ele>1034.0</ele><time>2026-05-03T09:23:33.114Z</time></trkpt><trkpt lat="45.22301" lon="7.3869467"><ele>1034.0</ele><time>2026-05-03T09:23:34.112Z</time></trkpt><trkpt lat="45.2229767" lon="7.3868467"><ele>1034.0</ele><time>2026-05-03T09:23:35.116Z</time></trkpt><trkpt lat="45.2229633" lon="7.38674"><ele>1034.0</ele><time>2026-05-03T09:23:36.114Z</time></trkpt><trkpt lat="45.2229683" lon="7.3866183"><ele>1034.0</ele><time>2026-05-03T09:23:37.112Z</time></trkpt><trkpt lat="45.22293" lon="7.3864617"><ele>1034.0</ele><time>2026-05-03T09:23:39.113Z</time></trkpt><trkpt lat="45.22281" lon="7.3863617"><ele>1034.0</ele><time>2026-05-03T09:23:41.113Z</time></trkpt><trkpt lat="45.2227183" lon="7.3863833"><ele>1034.0</ele><time>2026-05-03T09:23:42.112Z</time></trkpt><trkpt lat="45.2226067" lon="7.3863917"><ele>1034.0</ele><time>2026-05-03T09:23:43.112Z</time></trkpt><trkpt lat="45.2225133" lon="7.3863733"><ele>1034.0</ele><time>2026-05-03T09:23:44.116Z</time></trkpt><trkpt lat="45.2224167" lon="7.3863517"><ele>1034.25</ele><time>2026-05-03T09:23:45.117Z</time></trkpt><trkpt lat="45.22228" lon="7.3863367"><ele>1034.5</ele><time>2026-05-03T09:23:46.115Z</time></trkpt><trkpt lat="45.2221833" lon="7.38629"><ele>1034.75</ele><time>2026-05-03T09:23:47.113Z</time></trkpt><trkpt lat="45.222065" lon="7.3862567"><ele>1035.0</ele><time>2026-05-03T09:23:48.114Z</time></trkpt><trkpt lat="45.2219383" lon="7.38623"><ele>1035.0</ele><time>2026-05-03T09:23:49.112Z</time></trkpt><trkpt lat="45.2218433" lon="7.3861917"><ele>1035.0</ele><time>2026-05-03T09:23:50.123Z</time></trkpt><trkpt lat="45.221735" lon="7.386145"><ele>1035.0</ele><time>2026-05-03T09:23:51.116Z</time></trkpt><trkpt lat="45.2216283" lon="7.3861167"><ele>1035.0</ele><time>2026-05-03T09:23:52.118Z</time></trkpt><trkpt lat="45.2215333" lon="7.38607"><ele>1035.0</ele><time>2026-05-03T09:23:53.112Z</time></trkpt><trkpt lat="45.2214383" lon="7.38602"><ele>1036.6</ele><time>2026-05-03T09:23:54.112Z</time></trkpt><trkpt lat="45.22135" lon="7.385975"><ele>1038.2</ele><time>2026-05-03T09:23:55.115Z</time></trkpt><trkpt lat="45.2212767" lon="7.3858883"><ele>1039.8</ele><time>2026-05-03T09:23:56.114Z</time></trkpt><trkpt lat="45.2212217" lon="7.3857567"><ele>1041.4</ele><time>2026-05-03T09:23:57.113Z</time></trkpt><trkpt lat="45.22118" lon="7.3856217"><ele>1043.0</ele><time>2026-05-03T09:23:58.113Z</time></trkpt><trkpt lat="45.221125" lon="7.38551"><ele>1043.0</ele><time>2026-05-03T09:23:59.11Z</time></trkpt><trkpt lat="45.221085" lon="7.3854117"><ele>1043.0</ele><time>2026-05-03T09:24:00.118Z</time></trkpt><trkpt lat="45.221045" lon="7.3853"><ele>1043.0</ele><time>2026-05-03T09:24:01.118Z</time></trkpt><trkpt lat="45.2209917" lon="7.385185"><ele>1043.0</ele><time>2026-05-03T09:24:02.115Z</time></trkpt><trkpt lat="45.2209317" lon="7.38508"><ele>1043.0</ele><time>2026-05-03T09:24:03.114Z</time></trkpt><trkpt lat="45.2208733" lon="7.3849783"><ele>1043.0</ele><time>2026-05-03T09:24:04.113Z</time></trkpt><trkpt lat="45.2208117" lon="7.3848817"><ele>1043.0</ele><time>2026-05-03T09:24:05.112Z</time></trkpt><trkpt lat="45.2207483" lon="7.384805"><ele>1043.0</ele><time>2026-05-03T09:24:06.116Z</time></trkpt><trkpt lat="45.22067" lon="7.384715"><ele>1043.0</ele><time>2026-05-03T09:24:07.111Z</time></trkpt><trkpt lat="45.220425" lon="7.3847983"><ele>1042.8</ele><time>2026-05-03T09:24:09.123Z</time></trkpt><trkpt lat="45.22029" lon="7.3847483"><ele>1042.6</ele><time>2026-05-03T09:24:10.111Z</time></trkpt><trkpt lat="45.2202067" lon="7.38474"><ele>1042.4</ele><time>2026-05-03T09:24:11.112Z</time></trkpt><trkpt lat="45.2201033" lon="7.3847"><ele>1042.2</ele><time>2026-05-03T09:24:12.109Z</time></trkpt><trkpt lat="45.2200333" lon="7.384665"><ele>1042.0</ele><time>2026-05-03T09:24:13.111Z</time></trkpt><trkpt lat="45.2199583" lon="7.3846"><ele>1042.0</ele><time>2026-05-03T09:24:14.111Z</time></trkpt><trkpt lat="45.2198783" lon="7.3845117"><ele>1042.0</ele><time>2026-05-03T09:24:15.113Z</time></trkpt><trkpt lat="45.2198033" lon="7.3844383"><ele>1042.0</ele><time>2026-05-03T09:24:16.113Z</time></trkpt><trkpt lat="45.2197217" lon="7.384385"><ele>1042.0</ele><time>2026-05-03T09:24:17.112Z</time></trkpt><trkpt lat="45.2196117" lon="7.3842983"><ele>1042.0</ele><time>2026-05-03T09:24:18.113Z</time></trkpt><trkpt lat="45.2194417" lon="7.3841217"><ele>1045.0</ele><time>2026-05-03T09:24:19.114Z</time></trkpt><trkpt lat="45.2193417" lon="7.3840817"><ele>1048.0</ele><time>2026-05-03T09:24:20.112Z</time></trkpt><trkpt lat="45.21925" lon="7.384035"><ele>1051.0</ele><time>2026-05-03T09:24:21.117Z</time></trkpt><trkpt lat="45.2191433" lon="7.3839267"><ele>1054.0</ele><time>2026-05-03T09:24:22.111Z</time></trkpt><trkpt lat="45.2190617" lon="7.3837983"><ele>1055.6666666666665</ele><time>2026-05-03T09:24:23.11Z</time></trkpt><trkpt lat="45.219005" lon="7.3837067"><ele>1057.3333333333333</ele><time>2026-05-03T09:24:24.111Z</time></trkpt><trkpt lat="45.21895" lon="7.3836033"><ele>1059.0</ele><time>2026-05-03T09:24:25.113Z</time></trkpt><trkpt lat="45.218945" lon="7.3834717"><ele>1060.6666666666667</ele><time>2026-05-03T09:24:26.114Z</time></trkpt><trkpt lat="45.21892" lon="7.3833467"><ele>1062.3333333333335</ele><time>2026-05-03T09:24:27.115Z</time></trkpt><trkpt lat="45.218925" lon="7.3832317"><ele>1064.0</ele><time>2026-05-03T09:24:28.113Z</time></trkpt><trkpt lat="45.2189967" lon="7.3831467"><ele>1064.0</ele><time>2026-05-03T09:24:29.114Z</time></trkpt><trkpt lat="45.21911" lon="7.3830233"><ele>1064.0</ele><time>2026-05-03T09:24:30.115Z</time></trkpt><trkpt lat="45.2192233" lon="7.382865"><ele>1064.0</ele><time>2026-05-03T09:24:31.113Z</time></trkpt><trkpt lat="45.2194683" lon="7.3827083"><ele>1065.4</ele><time>2026-05-03T09:24:32.114Z</time></trkpt><trkpt lat="45.219565" lon="7.3825867"><ele>1066.8000000000002</ele><time>2026-05-03T09:24:33.115Z</time></trkpt><trkpt lat="45.219645" lon="7.3824767"><ele>1068.1999999999998</ele><time>2026-05-03T09:24:34.113Z</time></trkpt><trkpt lat="45.2197033" lon="7.3823767"><ele>1069.6</ele><time>2026-05-03T09:24:35.112Z</time></trkpt><trkpt lat="45.2197617" lon="7.3822733"><ele>1071.0</ele><time>2026-05-03T09:24:36.112Z</time></trkpt><trkpt lat="45.21973" lon="7.38213"><ele>1071.0</ele><time>2026-05-03T09:24:38.112Z</time></trkpt><trkpt lat="45.219645" lon="7.3820517"><ele>1071.0</ele><time>2026-05-03T09:24:39.113Z</time></trkpt><trkpt lat="45.21954" lon="7.3819567"><ele>1071.0</ele><time>2026-05-03T09:24:40.114Z</time></trkpt><trkpt lat="45.21943" lon="7.3818617"><ele>1071.0</ele><time>2026-05-03T09:24:41.113Z</time></trkpt><trkpt lat="45.219295" lon="7.381775"><ele>1071.0</ele><time>2026-05-03T09:24:42.115Z</time></trkpt><trkpt lat="45.2192283" lon="7.381665"><ele>1071.0</ele><time>2026-05-03T09:24:43.114Z</time></trkpt><trkpt lat="45.21917" lon="7.3815533"><ele>1071.0</ele><time>2026-05-03T09:24:44.113Z</time></trkpt><trkpt lat="45.2191083" lon="7.3814483"><ele>1071.0</ele><time>2026-05-03T09:24:45.117Z</time></trkpt><trkpt lat="45.2190617" lon="7.381265"><ele>1071.0</ele><time>2026-05-03T09:24:46.112Z</time></trkpt><trkpt lat="45.2191017" lon="7.3810217"><ele>1070.75</ele><time>2026-05-03T09:24:47.113Z</time></trkpt><trkpt lat="45.2191183" lon="7.3808167"><ele>1070.5</ele><time>2026-05-03T09:24:48.115Z</time></trkpt><trkpt lat="45.21912" lon="7.38064"><ele>1070.25</ele><time>2026-05-03T09:24:49.114Z</time></trkpt><trkpt lat="45.2191017" lon="7.380475"><ele>1070.0</ele><time>2026-05-03T09:24:50.114Z</time></trkpt><trkpt lat="45.2190533" lon="7.3803383"><ele>1068.5</ele><time>2026-05-03T09:24:51.114Z</time></trkpt><trkpt lat="45.2190183" lon="7.3801883"><ele>1067.0</ele><time>2026-05-03T09:24:52.114Z</time></trkpt><trkpt lat="45.218985" lon="7.3800517"><ele>1065.5</ele><time>2026-05-03T09:24:53.117Z</time></trkpt><trkpt lat="45.21887" lon="7.3799633"><ele>1064.0</ele><time>2026-05-03T09:24:54.114Z</time></trkpt><trkpt lat="45.2187333" lon="7.3798883"><ele>1066.0</ele><time>2026-05-03T09:24:55.114Z</time></trkpt><trkpt lat="45.2186067" lon="7.3798033"><ele>1068.0</ele><time>2026-05-03T09:24:56.113Z</time></trkpt><trkpt lat="45.2184883" lon="7.379725"><ele>1070.0</ele><time>2026-05-03T09:24:57.115Z</time></trkpt><trkpt lat="45.2183717" lon="7.3796617"><ele>1072.0</ele><time>2026-05-03T09:24:58.115Z</time></trkpt><trkpt lat="45.2182483" lon="7.3796017"><ele>1075.75</ele><time>2026-05-03T09:24:59.112Z</time></trkpt><trkpt lat="45.21813" lon="7.3795567"><ele>1079.5</ele><time>2026-05-03T09:25:00.115Z</time></trkpt><trkpt lat="45.21801" lon="7.3795133"><ele>1083.25</ele><time>2026-05-03T09:25:01.116Z</time></trkpt><trkpt lat="45.2178833" lon="7.3795117"><ele>1087.0</ele><time>2026-05-03T09:25:02.115Z</time></trkpt><trkpt lat="45.2177483" lon="7.37953"><ele>1087.0</ele><time>2026-05-03T09:25:03.121Z</time></trkpt><trkpt lat="45.2176333" lon="7.3795433"><ele>1087.0</ele><time>2026-05-03T09:25:04.112Z</time></trkpt><trkpt lat="45.2175133" lon="7.3794817"><ele>1087.0</ele><time>2026-05-03T09:25:05.115Z</time></trkpt><trkpt lat="45.2173317" lon="7.3793983"><ele>1087.0</ele><time>2026-05-03T09:25:06.116Z</time></trkpt><trkpt lat="45.2171667" lon="7.3793"><ele>1088.6</ele><time>2026-05-03T09:25:07.116Z</time></trkpt><trkpt lat="45.2170783" lon="7.3792167"><ele>1090.2</ele><time>2026-05-03T09:25:08.113Z</time></trkpt><trkpt lat="45.2169933" lon="7.379115"><ele>1091.8</ele><time>2026-05-03T09:25:09.113Z</time></trkpt><trkpt lat="45.2169333" lon="7.3789917"><ele>1093.4</ele><time>2026-05-03T09:25:10.114Z</time></trkpt><trkpt lat="45.2168733" lon="7.3788683"><ele>1095.0</ele><time>2026-05-03T09:25:11.113Z</time></trkpt><trkpt lat="45.2168233" lon="7.3787233"><ele>1095.8</ele><time>2026-05-03T09:25:12.117Z</time></trkpt><trkpt lat="45.2167567" lon="7.3785983"><ele>1096.6</ele><time>2026-05-03T09:25:13.116Z</time></trkpt><trkpt lat="45.2167017" lon="7.378505"><ele>1097.4</ele><time>2026-05-03T09:25:14.116Z</time></trkpt><trkpt lat="45.21662" lon="7.3783767"><ele>1098.2</ele><time>2026-05-03T09:25:15.116Z</time></trkpt><trkpt lat="45.2165333" lon="7.378245"><ele>1099.0</ele><time>2026-05-03T09:25:16.119Z</time></trkpt><trkpt lat="45.2164417" lon="7.3781333"><ele>1101.5</ele><time>2026-05-03T09:25:17.115Z</time></trkpt><trkpt lat="45.216365" lon="7.37803"><ele>1104.0</ele><time>2026-05-03T09:25:18.112Z</time></trkpt><trkpt lat="45.216285" lon="7.3779033"><ele>1106.5</ele><time>2026-05-03T09:25:19.114Z</time></trkpt><trkpt lat="45.2162133" lon="7.377765"><ele>1109.0</ele><time>2026-05-03T09:25:20.115Z</time></trkpt><trkpt lat="45.2161467" lon="7.37757"><ele>1110.0</ele><time>2026-05-03T09:25:21.114Z</time></trkpt><trkpt lat="45.2160933" lon="7.37737"><ele>1111.0</ele><time>2026-05-03T09:25:22.111Z</time></trkpt><trkpt lat="45.2160567" lon="7.377175"><ele>1112.0</ele><time>2026-05-03T09:25:23.113Z</time></trkpt><trkpt lat="45.21604" lon="7.3769917"><ele>1113.0</ele><time>2026-05-03T09:25:24.114Z</time></trkpt><trkpt lat="45.21604" lon="7.37681"><ele>1114.75</ele><time>2026-05-03T09:25:25.112Z</time></trkpt><trkpt lat="45.2160333" lon="7.3766283"><ele>1116.5</ele><time>2026-05-03T09:25:26.114Z</time></trkpt><trkpt lat="45.216025" lon="7.3764583"><ele>1118.25</ele><time>2026-05-03T09:25:27.114Z</time></trkpt><trkpt lat="45.2160283" lon="7.3762917"><ele>1120.0</ele><time>2026-05-03T09:25:28.116Z</time></trkpt><trkpt lat="45.2160383" lon="7.3761467"><ele>1121.0</ele><time>2026-05-03T09:25:29.11Z</time></trkpt><trkpt lat="45.2160633" lon="7.3760217"><ele>1122.0</ele><time>2026-05-03T09:25:30.112Z</time></trkpt><trkpt lat="45.2160583" lon="7.3759283"><ele>1123.0</ele><time>2026-05-03T09:25:31.113Z</time></trkpt><trkpt lat="45.216035" lon="7.375845"><ele>1124.0</ele><time>2026-05-03T09:25:32.113Z</time></trkpt><trkpt lat="45.215945" lon="7.3757883"><ele>1125.0</ele><time>2026-05-03T09:25:34.113Z</time></trkpt><trkpt lat="45.2159017" lon="7.3758917"><ele>1126.0</ele><time>2026-05-03T09:25:36.111Z</time></trkpt><trkpt lat="45.2158983" lon="7.3760717"><ele>1126.0</ele><time>2026-05-03T09:25:37.11Z</time></trkpt><trkpt lat="45.215885" lon="7.376255"><ele>1126.0</ele><time>2026-05-03T09:25:38.112Z</time></trkpt><trkpt lat="45.2158733" lon="7.3764433"><ele>1126.0</ele><time>2026-05-03T09:25:39.114Z</time></trkpt><trkpt lat="45.2158683" lon="7.3766117"><ele>1126.0</ele><time>2026-05-03T09:25:40.117Z</time></trkpt><trkpt lat="45.2158683" lon="7.3767683"><ele>1125.0</ele><time>2026-05-03T09:25:41.11Z</time></trkpt><trkpt lat="45.2158617" lon="7.37689"><ele>1124.0</ele><time>2026-05-03T09:25:42.113Z</time></trkpt><trkpt lat="45.21584" lon="7.3770083"><ele>1123.0</ele><time>2026-05-03T09:25:43.116Z</time></trkpt><trkpt lat="45.215805" lon="7.3771183"><ele>1122.0</ele><time>2026-05-03T09:25:44.111Z</time></trkpt><trkpt lat="45.2157667" lon="7.3772167"><ele>1121.0</ele><time>2026-05-03T09:25:45.113Z</time></trkpt><trkpt lat="45.2157233" lon="7.3772983"><ele>1120.0</ele><time>2026-05-03T09:25:46.113Z</time></trkpt><trkpt lat="45.21567" lon="7.3773667"><ele>1121.4</ele><time>2026-05-03T09:25:47.113Z</time></trkpt><trkpt lat="45.2155767" lon="7.377425"><ele>1122.8</ele><time>2026-05-03T09:25:48.112Z</time></trkpt><trkpt lat="45.2154967" lon="7.377405"><ele>1124.2</ele><time>2026-05-03T09:25:49.113Z</time></trkpt><trkpt lat="45.2154333" lon="7.377315"><ele>1125.6</ele><time>2026-05-03T09:25:50.108Z</time></trkpt><trkpt lat="45.2153533" lon="7.3771783"><ele>1127.0</ele><time>2026-05-03T09:25:51.111Z</time></trkpt><trkpt lat="45.2152633" lon="7.377025"><ele>1127.0</ele><time>2026-05-03T09:25:52.112Z</time></trkpt><trkpt lat="45.2151483" lon="7.376905"><ele>1127.0</ele><time>2026-05-03T09:25:53.116Z</time></trkpt><trkpt lat="45.2150333" lon="7.3767883"><ele>1127.0</ele><time>2026-05-03T09:25:54.115Z</time></trkpt><trkpt lat="45.2149117" lon="7.3767283"><ele>1127.0</ele><time>2026-05-03T09:25:55.113Z</time></trkpt><trkpt lat="45.2148067" lon="7.3766683"><ele>1123.75</ele><time>2026-05-03T09:25:56.114Z</time></trkpt><trkpt lat="45.2146867" lon="7.3766267"><ele>1120.5</ele><time>2026-05-03T09:25:57.116Z</time></trkpt><trkpt lat="45.2145817" lon="7.376555"><ele>1117.25</ele><time>2026-05-03T09:25:58.114Z</time></trkpt><trkpt lat="45.21447" lon="7.3764733"><ele>1114.0</ele><time>2026-05-03T09:25:59.112Z</time></trkpt><trkpt lat="45.2143567" lon="7.376375"><ele>1116.5</ele><time>2026-05-03T09:26:00.115Z</time></trkpt><trkpt lat="45.2142417" lon="7.3762733"><ele>1119.0</ele><time>2026-05-03T09:26:01.113Z</time></trkpt><trkpt lat="45.2141317" lon="7.3761533"><ele>1121.5</ele><time>2026-05-03T09:26:02.113Z</time></trkpt><trkpt lat="45.2140183" lon="7.3760383"><ele>1124.0</ele><time>2026-05-03T09:26:03.113Z</time></trkpt><trkpt lat="45.2139083" lon="7.37591"><ele>1124.0</ele><time>2026-05-03T09:26:04.114Z</time></trkpt><trkpt lat="45.2138033" lon="7.375795"><ele>1124.0</ele><time>2026-05-03T09:26:05.115Z</time></trkpt><trkpt lat="45.2137083" lon="7.3756883"><ele>1124.0</ele><time>2026-05-03T09:26:06.112Z</time></trkpt><trkpt lat="45.2136" lon="7.37561"><ele>1124.0</ele><time>2026-05-03T09:26:07.112Z</time></trkpt><trkpt lat="45.2134783" lon="7.3755533"><ele>1127.5</ele><time>2026-05-03T09:26:08.111Z</time></trkpt><trkpt lat="45.2133567" lon="7.37549"><ele>1131.0</ele><time>2026-05-03T09:26:09.12Z</time></trkpt><trkpt lat="45.213215" lon="7.37549"><ele>1134.5</ele><time>2026-05-03T09:26:10.115Z</time></trkpt><trkpt lat="45.2130767" lon="7.3754983"><ele>1138.0</ele><time>2026-05-03T09:26:11.11Z</time></trkpt><trkpt lat="45.212955" lon="7.375465"><ele>1138.0</ele><time>2026-05-03T09:26:12.113Z</time></trkpt><trkpt lat="45.2128333" lon="7.3754133"><ele>1138.0</ele><time>2026-05-03T09:26:13.113Z</time></trkpt><trkpt lat="45.2127133" lon="7.37536"><ele>1138.0</ele><time>2026-05-03T09:26:14.114Z</time></trkpt><trkpt lat="45.2125883" lon="7.3753033"><ele>1138.0</ele><time>2026-05-03T09:26:15.119Z</time></trkpt><trkpt lat="45.21248" lon="7.37522"><ele>1138.0</ele><time>2026-05-03T09:26:16.115Z</time></trkpt><trkpt lat="45.2124367" lon="7.3750183"><ele>1138.0</ele><time>2026-05-03T09:26:17.111Z</time></trkpt><trkpt lat="45.2123433" lon="7.3749383"><ele>1138.0</ele><time>2026-05-03T09:26:18.111Z</time></trkpt><trkpt lat="45.212235" lon="7.3748733"><ele>1138.0</ele><time>2026-05-03T09:26:19.116Z</time></trkpt><trkpt lat="45.21214" lon="7.3747883"><ele>1134.5</ele><time>2026-05-03T09:26:20.115Z</time></trkpt><trkpt lat="45.21201" lon="7.3747617"><ele>1131.0</ele><time>2026-05-03T09:26:21.117Z</time></trkpt><trkpt lat="45.21188" lon="7.37473"><ele>1127.5</ele><time>2026-05-03T09:26:22.117Z</time></trkpt><trkpt lat="45.2117267" lon="7.37474"><ele>1124.0</ele><time>2026-05-03T09:26:23.115Z</time></trkpt><trkpt lat="45.2116067" lon="7.374725"><ele>1124.0</ele><time>2026-05-03T09:26:24.114Z</time></trkpt><trkpt lat="45.211495" lon="7.3747367"><ele>1124.0</ele><time>2026-05-03T09:26:25.115Z</time></trkpt><trkpt lat="45.2113967" lon="7.374725"><ele>1124.0</ele><time>2026-05-03T09:26:26.116Z</time></trkpt><trkpt lat="45.2113083" lon="7.3747033"><ele>1124.0</ele><time>2026-05-03T09:26:27.112Z</time></trkpt><trkpt lat="45.2112317" lon="7.3746617"><ele>1124.0</ele><time>2026-05-03T09:26:28.114Z</time></trkpt><trkpt lat="45.21118" lon="7.37461"><ele>1124.0</ele><time>2026-05-03T09:26:29.112Z</time></trkpt><trkpt lat="45.21105" lon="7.37461"><ele>1128.0</ele><time>2026-05-03T09:26:31.113Z</time></trkpt><trkpt lat="45.210935" lon="7.37461"><ele>1132.0</ele><time>2026-05-03T09:26:33.114Z</time></trkpt><trkpt lat="45.210815" lon="7.3745567"><ele>1136.0</ele><time>2026-05-03T09:26:35.113Z</time></trkpt><trkpt lat="45.2107317" lon="7.3745367"><ele>1140.0</ele><time>2026-05-03T09:26:36.113Z</time></trkpt><trkpt lat="45.21065" lon="7.374505"><ele>1144.0</ele><time>2026-05-03T09:26:37.113Z</time></trkpt><trkpt lat="45.210535" lon="7.3744217"><ele>1144.0</ele><time>2026-05-03T09:26:38.109Z</time></trkpt><trkpt lat="45.2103917" lon="7.37429"><ele>1144.0</ele><time>2026-05-03T09:26:39.115Z</time></trkpt><trkpt lat="45.2103117" lon="7.3741533"><ele>1144.0</ele><time>2026-05-03T09:26:40.112Z</time></trkpt><trkpt lat="45.21023" lon="7.374075"><ele>1144.0</ele><time>2026-05-03T09:26:41.112Z</time></trkpt><trkpt lat="45.2101433" lon="7.3739883"><ele>1144.0</ele><time>2026-05-03T09:26:42.112Z</time></trkpt><trkpt lat="45.2100683" lon="7.3739"><ele>1144.0</ele><time>2026-05-03T09:26:43.112Z</time></trkpt><trkpt lat="45.2100183" lon="7.373825"><ele>1144.0</ele><time>2026-05-03T09:26:44.112Z</time></trkpt><trkpt lat="45.2099617" lon="7.373745"><ele>1144.0</ele><time>2026-05-03T09:26:45.115Z</time></trkpt><trkpt lat="45.20991" lon="7.3736683"><ele>1144.0</ele><time>2026-05-03T09:26:46.113Z</time></trkpt><trkpt lat="45.2098417" lon="7.3735933"><ele>1144.0</ele><time>2026-05-03T09:26:47.11Z</time></trkpt><trkpt lat="45.209775" lon="7.3735267"><ele>1147.2</ele><time>2026-05-03T09:26:48.113Z</time></trkpt><trkpt lat="45.2097083" lon="7.37366"><ele>1150.4</ele><time>2026-05-03T09:26:50.115Z</time></trkpt><trkpt lat="45.2097117" lon="7.3737883"><ele>1153.6</ele><time>2026-05-03T09:26:51.115Z</time></trkpt><trkpt lat="45.2097033" lon="7.3738933"><ele>1156.8</ele><time>2026-05-03T09:26:52.114Z</time></trkpt><trkpt lat="45.2096183" lon="7.3740617"><ele>1160.0</ele><time>2026-05-03T09:26:54.111Z</time></trkpt><trkpt lat="45.2095417" lon="7.3741483"><ele>1160.0</ele><time>2026-05-03T09:26:55.116Z</time></trkpt><trkpt lat="45.2094617" lon="7.3742183"><ele>1160.0</ele><time>2026-05-03T09:26:56.112Z</time></trkpt><trkpt lat="45.209385" lon="7.3743017"><ele>1160.0</ele><time>2026-05-03T09:26:57.112Z</time></trkpt><trkpt lat="45.20932" lon="7.37439"><ele>1160.0</ele><time>2026-05-03T09:26:58.11Z</time></trkpt><trkpt lat="45.2092433" lon="7.3744567"><ele>1160.0</ele><time>2026-05-03T09:26:59.112Z</time></trkpt><trkpt lat="45.20917" lon="7.3745383"><ele>1160.0</ele><time>2026-05-03T09:27:00.111Z</time></trkpt><trkpt lat="45.2090583" lon="7.3746133"><ele>1160.0</ele><time>2026-05-03T09:27:02.112Z</time></trkpt><trkpt lat="45.208995" lon="7.3746683"><ele>1160.0</ele><time>2026-05-03T09:27:03.112Z</time></trkpt><trkpt lat="45.20893" lon="7.3746917"><ele>1160.0</ele><time>2026-05-03T09:27:04.111Z</time></trkpt><trkpt lat="45.2088533" lon="7.3747333"><ele>1160.0</ele><time>2026-05-03T09:27:05.113Z</time></trkpt><trkpt lat="45.2087967" lon="7.3748133"><ele>1160.0</ele><time>2026-05-03T09:27:06.114Z</time></trkpt><trkpt lat="45.2087433" lon="7.3748767"><ele>1160.0</ele><time>2026-05-03T09:27:07.111Z</time></trkpt><trkpt lat="45.2086633" lon="7.3749433"><ele>1160.0</ele><time>2026-05-03T09:27:08.113Z</time></trkpt><trkpt lat="45.20849" lon="7.3749867"><ele>1160.0</ele><time>2026-05-03T09:27:09.112Z</time></trkpt><trkpt lat="45.20841" lon="7.37504"><ele>1160.0</ele><time>2026-05-03T09:27:10.113Z</time></trkpt><trkpt lat="45.2083467" lon="7.375105"><ele>1160.0</ele><time>2026-05-03T09:27:11.112Z</time></trkpt><trkpt lat="45.208285" lon="7.3752183"><ele>1160.0</ele><time>2026-05-03T09:27:12.111Z</time></trkpt><trkpt lat="45.2082633" lon="7.3753517"><ele>1160.0</ele><time>2026-05-03T09:27:13.115Z</time></trkpt><trkpt lat="45.2082183" lon="7.3754983"><ele>1160.0</ele><time>2026-05-03T09:27:14.114Z</time></trkpt><trkpt lat="45.20818" lon="7.3756167"><ele>1160.0</ele><time>2026-05-03T09:27:15.124Z</time></trkpt><trkpt lat="45.2081633" lon="7.3757767"><ele>1160.0</ele><time>2026-05-03T09:27:16.113Z</time></trkpt><trkpt lat="45.208255" lon="7.3762267"><ele>1155.6666666666667</ele><time>2026-05-03T09:27:17.117Z</time></trkpt><trkpt lat="45.2082967" lon="7.3766117"><ele>1151.3333333333333</ele><time>2026-05-03T09:27:18.112Z</time></trkpt><trkpt lat="45.208305" lon="7.3768167"><ele>1147.0</ele><time>2026-05-03T09:27:19.11Z</time></trkpt><trkpt lat="45.20832" lon="7.3770033"><ele>1144.5</ele><time>2026-05-03T09:27:20.115Z</time></trkpt><trkpt lat="45.2083717" lon="7.3775333"><ele>1142.0</ele><time>2026-05-03T09:27:21.114Z</time></trkpt><trkpt lat="45.2083667" lon="7.37776"><ele>1142.0</ele><time>2026-05-03T09:27:22.112Z</time></trkpt><trkpt lat="45.20835" lon="7.3780067"><ele>1142.0</ele><time>2026-05-03T09:27:23.112Z</time></trkpt><trkpt lat="45.2082833" lon="7.3782483"><ele>1142.0</ele><time>2026-05-03T09:27:24.112Z</time></trkpt><trkpt lat="45.2082" lon="7.3784383"><ele>1142.5</ele><time>2026-05-03T09:27:25.114Z</time></trkpt><trkpt lat="45.20812" lon="7.37857"><ele>1143.0</ele><time>2026-05-03T09:27:26.113Z</time></trkpt><trkpt lat="45.2080483" lon="7.3787167"><ele>1143.5</ele><time>2026-05-03T09:27:27.111Z</time></trkpt><trkpt lat="45.2079783" lon="7.3788567"><ele>1144.0</ele><time>2026-05-03T09:27:28.11Z</time></trkpt><trkpt lat="45.2079" lon="7.3789767"><ele>1144.0</ele><time>2026-05-03T09:27:29.112Z</time></trkpt><trkpt lat="45.2078083" lon="7.3790633"><ele>1144.0</ele><time>2026-05-03T09:27:30.111Z</time></trkpt><trkpt lat="45.20768" lon="7.379125"><ele>1144.0</ele><time>2026-05-03T09:27:31.113Z</time></trkpt><trkpt lat="45.207485" lon="7.379145"><ele>1144.0</ele><time>2026-05-03T09:27:32.115Z</time></trkpt><trkpt lat="45.20738" lon="7.3792017"><ele>1143.4</ele><time>2026-05-03T09:27:33.112Z</time></trkpt><trkpt lat="45.20727" lon="7.3792683"><ele>1142.8000000000002</ele><time>2026-05-03T09:27:34.113Z</time></trkpt><trkpt lat="45.2071617" lon="7.37933"><ele>1142.1999999999998</ele><time>2026-05-03T09:27:35.111Z</time></trkpt><trkpt lat="45.20708" lon="7.3793967"><ele>1141.6</ele><time>2026-05-03T09:27:36.111Z</time></trkpt><trkpt lat="45.2070167" lon="7.3794167"><ele>1141.0</ele><time>2026-05-03T09:27:37.111Z</time></trkpt><trkpt lat="45.206945" lon="7.3794583"><ele>1141.0</ele><time>2026-05-03T09:27:38.113Z</time></trkpt><trkpt lat="45.20684" lon="7.3794383"><ele>1141.0</ele><time>2026-05-03T09:27:40.113Z</time></trkpt><trkpt lat="45.2067417" lon="7.3793617"><ele>1141.0</ele><time>2026-05-03T09:27:42.118Z</time></trkpt><trkpt lat="45.2066983" lon="7.379285"><ele>1141.0</ele><time>2026-05-03T09:27:43.115Z</time></trkpt><trkpt lat="45.20666" lon="7.37915"><ele>1141.0</ele><time>2026-05-03T09:27:44.11Z</time></trkpt><trkpt lat="45.2066533" lon="7.3789983"><ele>1141.0</ele><time>2026-05-03T09:27:45.116Z</time></trkpt><trkpt lat="45.2067367" lon="7.3788317"><ele>1141.0</ele><time>2026-05-03T09:27:46.112Z</time></trkpt><trkpt lat="45.2068217" lon="7.3786433"><ele>1141.0</ele><time>2026-05-03T09:27:47.112Z</time></trkpt><trkpt lat="45.2068533" lon="7.3784767"><ele>1141.0</ele><time>2026-05-03T09:27:48.112Z</time></trkpt><trkpt lat="45.206875" lon="7.378345"><ele>1141.0</ele><time>2026-05-03T09:27:49.112Z</time></trkpt><trkpt lat="45.2068633" lon="7.3782033"><ele>1141.0</ele><time>2026-05-03T09:27:50.114Z</time></trkpt><trkpt lat="45.2068167" lon="7.3780867"><ele>1141.0</ele><time>2026-05-03T09:27:51.113Z</time></trkpt><trkpt lat="45.2067267" lon="7.3779733"><ele>1141.0</ele><time>2026-05-03T09:27:52.115Z</time></trkpt><trkpt lat="45.20653" lon="7.3779"><ele>1143.0</ele><time>2026-05-03T09:27:53.116Z</time></trkpt><trkpt lat="45.2063833" lon="7.3777983"><ele>1145.0</ele><time>2026-05-03T09:27:54.116Z</time></trkpt><trkpt lat="45.20625" lon="7.3777067"><ele>1147.0</ele><time>2026-05-03T09:27:55.114Z</time></trkpt><trkpt lat="45.20612" lon="7.3776267"><ele>1147.0</ele><time>2026-05-03T09:27:56.113Z</time></trkpt><trkpt lat="45.2060067" lon="7.377555"><ele>1147.0</ele><time>2026-05-03T09:27:57.116Z</time></trkpt><trkpt lat="45.2058883" lon="7.3774883"><ele>1147.0</ele><time>2026-05-03T09:27:58.111Z</time></trkpt><trkpt lat="45.2057717" lon="7.3774417"><ele>1147.0</ele><time>2026-05-03T09:27:59.114Z</time></trkpt><trkpt lat="45.205645" lon="7.37741"><ele>1146.0</ele><time>2026-05-03T09:28:00.112Z</time></trkpt><trkpt lat="45.2055167" lon="7.37743"><ele>1145.0</ele><time>2026-05-03T09:28:01.113Z</time></trkpt><trkpt lat="45.20539" lon="7.37746"><ele>1144.0</ele><time>2026-05-03T09:28:02.115Z</time></trkpt><trkpt lat="45.2052683" lon="7.377485"><ele>1143.0</ele><time>2026-05-03T09:28:03.114Z</time></trkpt><trkpt lat="45.2051467" lon="7.3775"><ele>1143.0</ele><time>2026-05-03T09:28:04.111Z</time></trkpt><trkpt lat="45.205045" lon="7.377505"><ele>1143.0</ele><time>2026-05-03T09:28:05.112Z</time></trkpt><trkpt lat="45.20493" lon="7.3774883"><ele>1143.0</ele><time>2026-05-03T09:28:06.113Z</time></trkpt><trkpt lat="45.2048133" lon="7.37745"><ele>1143.0</ele><time>2026-05-03T09:28:07.112Z</time></trkpt><trkpt lat="45.2046767" lon="7.3773767"><ele>1144.25</ele><time>2026-05-03T09:28:08.112Z</time></trkpt><trkpt lat="45.20454" lon="7.3772867"><ele>1145.5</ele><time>2026-05-03T09:28:09.116Z</time></trkpt><trkpt lat="45.2044183" lon="7.3771983"><ele>1146.75</ele><time>2026-05-03T09:28:10.112Z</time></trkpt><trkpt lat="45.2043117" lon="7.3771233"><ele>1148.0</ele><time>2026-05-03T09:28:11.113Z</time></trkpt><trkpt lat="45.2042267" lon="7.3770317"><ele>1148.0</ele><time>2026-05-03T09:28:12.114Z</time></trkpt><trkpt lat="45.2041617" lon="7.376925"><ele>1148.0</ele><time>2026-05-03T09:28:13.112Z</time></trkpt><trkpt lat="45.2041017" lon="7.3767983"><ele>1148.0</ele><time>2026-05-03T09:28:14.112Z</time></trkpt><trkpt lat="45.2040317" lon="7.37665"><ele>1148.0</ele><time>2026-05-03T09:28:15.113Z</time></trkpt><trkpt lat="45.2039617" lon="7.37651"><ele>1150.25</ele><time>2026-05-03T09:28:16.111Z</time></trkpt><trkpt lat="45.2038733" lon="7.376385"><ele>1152.5</ele><time>2026-05-03T09:28:17.112Z</time></trkpt><trkpt lat="45.203775" lon="7.3762983"><ele>1154.75</ele><time>2026-05-03T09:28:18.114Z</time></trkpt><trkpt lat="45.2036633" lon="7.376265"><ele>1157.0</ele><time>2026-05-03T09:28:19.109Z</time></trkpt><trkpt lat="45.2035467" lon="7.3762683"><ele>1157.0</ele><time>2026-05-03T09:28:20.111Z</time></trkpt><trkpt lat="45.203435" lon="7.3762933"><ele>1157.0</ele><time>2026-05-03T09:28:21.115Z</time></trkpt><trkpt lat="45.20333" lon="7.3763033"><ele>1157.0</ele><time>2026-05-03T09:28:22.115Z</time></trkpt><trkpt lat="45.2032417" lon="7.3762883"><ele>1157.0</ele><time>2026-05-03T09:28:23.113Z</time></trkpt><trkpt lat="45.2031517" lon="7.3762383"><ele>1157.0</ele><time>2026-05-03T09:28:24.111Z</time></trkpt><trkpt lat="45.2030667" lon="7.3761683"><ele>1152.75</ele><time>2026-05-03T09:28:25.115Z</time></trkpt><trkpt lat="45.20297" lon="7.37608"><ele>1148.5</ele><time>2026-05-03T09:28:26.114Z</time></trkpt><trkpt lat="45.2028717" lon="7.37599"><ele>1144.25</ele><time>2026-05-03T09:28:27.115Z</time></trkpt><trkpt lat="45.2027767" lon="7.3759067"><ele>1140.0</ele><time>2026-05-03T09:28:28.117Z</time></trkpt><trkpt lat="45.2026767" lon="7.3758217"><ele>1140.0</ele><time>2026-05-03T09:28:29.114Z</time></trkpt><trkpt lat="45.202585" lon="7.3757233"><ele>1140.0</ele><time>2026-05-03T09:28:30.114Z</time></trkpt><trkpt lat="45.2025" lon="7.375595"><ele>1140.0</ele><time>2026-05-03T09:28:31.116Z</time></trkpt><trkpt lat="45.2024233" lon="7.3754617"><ele>1140.0</ele><time>2026-05-03T09:28:32.117Z</time></trkpt><trkpt lat="45.202355" lon="7.37536"><ele>1138.5</ele><time>2026-05-03T09:28:33.113Z</time></trkpt><trkpt lat="45.20228" lon="7.3752733"><ele>1137.0</ele><time>2026-05-03T09:28:34.114Z</time></trkpt><trkpt lat="45.2021867" lon="7.3752467"><ele>1135.5</ele><time>2026-05-03T09:28:35.114Z</time></trkpt><trkpt lat="45.2021017" lon="7.37523"><ele>1134.0</ele><time>2026-05-03T09:28:36.113Z</time></trkpt><trkpt lat="45.20202" lon="7.3752517"><ele>1132.5</ele><time>2026-05-03T09:28:37.117Z</time></trkpt><trkpt lat="45.2019483" lon="7.3752917"><ele>1131.0</ele><time>2026-05-03T09:28:38.118Z</time></trkpt><trkpt lat="45.201815" lon="7.375325"><ele>1131.0</ele><time>2026-05-03T09:28:40.117Z</time></trkpt><trkpt lat="45.2017517" lon="7.3753167"><ele>1131.0</ele><time>2026-05-03T09:28:41.117Z</time></trkpt><trkpt lat="45.2016833" lon="7.37532"><ele>1131.0</ele><time>2026-05-03T09:28:42.114Z</time></trkpt><trkpt lat="45.2016417" lon="7.3751617"><ele>1131.0</ele><time>2026-05-03T09:28:44.115Z</time></trkpt><trkpt lat="45.201665" lon="7.374925"><ele>1131.0</ele><time>2026-05-03T09:28:46.116Z</time></trkpt><trkpt lat="45.201735" lon="7.374775"><ele>1129.6</ele><time>2026-05-03T09:28:47.115Z</time></trkpt><trkpt lat="45.2017883" lon="7.374675"><ele>1128.1999999999998</ele><time>2026-05-03T09:28:48.114Z</time></trkpt><trkpt lat="45.2018317" lon="7.3745683"><ele>1126.8000000000002</ele><time>2026-05-03T09:28:49.112Z</time></trkpt><trkpt lat="45.2019017" lon="7.3744733"><ele>1125.4</ele><time>2026-05-03T09:28:50.113Z</time></trkpt><trkpt lat="45.2019717" lon="7.37437"><ele>1124.0</ele><time>2026-05-03T09:28:51.114Z</time></trkpt><trkpt lat="45.2020433" lon="7.37427"><ele>1124.0</ele><time>2026-05-03T09:28:52.112Z</time></trkpt><trkpt lat="45.2021217" lon="7.3741717"><ele>1124.0</ele><time>2026-05-03T09:28:53.114Z</time></trkpt><trkpt lat="45.2022117" lon="7.37409"><ele>1124.0</ele><time>2026-05-03T09:28:54.116Z</time></trkpt><trkpt lat="45.2023133" lon="7.3740233"><ele>1124.0</ele><time>2026-05-03T09:28:55.112Z</time></trkpt><trkpt lat="45.2023883" lon="7.37394"><ele>1124.0</ele><time>2026-05-03T09:28:56.113Z</time></trkpt><trkpt lat="45.202455" lon="7.3738417"><ele>1128.4</ele><time>2026-05-03T09:28:57.114Z</time></trkpt><trkpt lat="45.2025167" lon="7.3737267"><ele>1132.8000000000002</ele><time>2026-05-03T09:28:58.114Z</time></trkpt><trkpt lat="45.2025833" lon="7.373615"><ele>1137.1999999999998</ele><time>2026-05-03T09:28:59.114Z</time></trkpt><trkpt lat="45.2026317" lon="7.373475"><ele>1141.6</ele><time>2026-05-03T09:29:00.115Z</time></trkpt><trkpt lat="45.2026617" lon="7.3733467"><ele>1146.0</ele><time>2026-05-03T09:29:01.114Z</time></trkpt><trkpt lat="45.2027283" lon="7.37323"><ele>1146.0</ele><time>2026-05-03T09:29:02.115Z</time></trkpt><trkpt lat="45.2027533" lon="7.3730833"><ele>1146.0</ele><time>2026-05-03T09:29:03.115Z</time></trkpt><trkpt lat="45.202775" lon="7.3729383"><ele>1146.0</ele><time>2026-05-03T09:29:04.115Z</time></trkpt><trkpt lat="45.2027867" lon="7.3728"><ele>1146.0</ele><time>2026-05-03T09:29:05.112Z</time></trkpt><trkpt lat="45.2027767" lon="7.3726833"><ele>1146.0</ele><time>2026-05-03T09:29:06.114Z</time></trkpt><trkpt lat="45.2027383" lon="7.3725733"><ele>1146.0</ele><time>2026-05-03T09:29:07.117Z</time></trkpt><trkpt lat="45.202695" lon="7.3724633"><ele>1146.0</ele><time>2026-05-03T09:29:08.114Z</time></trkpt><trkpt lat="45.202595" lon="7.3722967"><ele>1146.0</ele><time>2026-05-03T09:29:09.12Z</time></trkpt><trkpt lat="45.202535" lon="7.372125"><ele>1146.0</ele><time>2026-05-03T09:29:10.114Z</time></trkpt><trkpt lat="45.202495" lon="7.3719667"><ele>1148.3999999999999</ele><time>2026-05-03T09:29:11.115Z</time></trkpt><trkpt lat="45.2024717" lon="7.3718267"><ele>1150.8</ele><time>2026-05-03T09:29:12.117Z</time></trkpt><trkpt lat="45.2024467" lon="7.3717017"><ele>1153.1999999999998</ele><time>2026-05-03T09:29:13.116Z</time></trkpt><trkpt lat="45.20239" lon="7.37157"><ele>1155.6</ele><time>2026-05-03T09:29:14.118Z</time></trkpt><trkpt lat="45.2023117" lon="7.371445"><ele>1158.0</ele><time>2026-05-03T09:29:15.113Z</time></trkpt><trkpt lat="45.2022517" lon="7.3713217"><ele>1149.8</ele><time>2026-05-03T09:29:16.118Z</time></trkpt><trkpt lat="45.2022033" lon="7.3712017"><ele>1141.6</ele><time>2026-05-03T09:29:17.11Z</time></trkpt><trkpt lat="45.2021517" lon="7.3710683"><ele>1133.4</ele><time>2026-05-03T09:29:18.114Z</time></trkpt><trkpt lat="45.2021317" lon="7.3709417"><ele>1125.2</ele><time>2026-05-03T09:29:19.115Z</time></trkpt><trkpt lat="45.202095" lon="7.37082"><ele>1117.0</ele><time>2026-05-03T09:29:20.111Z</time></trkpt><trkpt lat="45.202085" lon="7.3707233"><ele>1117.0</ele><time>2026-05-03T09:29:21.113Z</time></trkpt><trkpt lat="45.202065" lon="7.3706167"><ele>1117.0</ele><time>2026-05-03T09:29:22.11Z</time></trkpt><trkpt lat="45.20209" lon="7.3705233"><ele>1117.0</ele><time>2026-05-03T09:29:23.11Z</time></trkpt><trkpt lat="45.2021017" lon="7.3704217"><ele>1117.0</ele><time>2026-05-03T09:29:24.111Z</time></trkpt><trkpt lat="45.2022383" lon="7.3702733"><ele>1117.0</ele><time>2026-05-03T09:29:26.117Z</time></trkpt><trkpt lat="45.20226" lon="7.3701583"><ele>1117.0</ele><time>2026-05-03T09:29:27.117Z</time></trkpt><trkpt lat="45.2022883" lon="7.3700483"><ele>1117.0</ele><time>2026-05-03T09:29:28.114Z</time></trkpt><trkpt lat="45.202295" lon="7.3699467"><ele>1117.0</ele><time>2026-05-03T09:29:29.117Z</time></trkpt><trkpt lat="45.202305" lon="7.3698533"><ele>1117.0</ele><time>2026-05-03T09:29:30.117Z</time></trkpt><trkpt lat="45.202265" lon="7.3696933"><ele>1117.0</ele><time>2026-05-03T09:29:32.116Z</time></trkpt><trkpt lat="45.2022317" lon="7.369595"><ele>1117.0</ele><time>2026-05-03T09:29:34.113Z</time></trkpt><trkpt lat="45.2022217" lon="7.3694967"><ele>1119.8</ele><time>2026-05-03T09:29:36.113Z</time></trkpt><trkpt lat="45.2022083" lon="7.369385"><ele>1122.6</ele><time>2026-05-03T09:29:37.115Z</time></trkpt><trkpt lat="45.2021317" lon="7.3692367"><ele>1125.3999999999999</ele><time>2026-05-03T09:29:39.115Z</time></trkpt><trkpt lat="45.202085" lon="7.3691533"><ele>1128.2</ele><time>2026-05-03T09:29:40.114Z</time></trkpt><trkpt lat="45.2020217" lon="7.3690183"><ele>1131.0</ele><time>2026-05-03T09:29:41.112Z</time></trkpt><trkpt lat="45.201945" lon="7.368805"><ele>1134.5</ele><time>2026-05-03T09:29:42.113Z</time></trkpt><trkpt lat="45.2019233" lon="7.3686883"><ele>1138.0</ele><time>2026-05-03T09:29:43.116Z</time></trkpt><trkpt lat="45.2018633" lon="7.368505"><ele>1141.5</ele><time>2026-05-03T09:29:44.111Z</time></trkpt><trkpt lat="45.2018233" lon="7.3683717"><ele>1145.0</ele><time>2026-05-03T09:29:45.115Z</time></trkpt><trkpt lat="45.20175" lon="7.3682333"><ele>1145.0</ele><time>2026-05-03T09:29:46.112Z</time></trkpt><trkpt lat="45.2016733" lon="7.368105"><ele>1145.0</ele><time>2026-05-03T09:29:47.114Z</time></trkpt><trkpt lat="45.2015433" lon="7.367945"><ele>1145.0</ele><time>2026-05-03T09:29:48.113Z</time></trkpt><trkpt lat="45.2014233" lon="7.3678"><ele>1145.0</ele><time>2026-05-03T09:29:49.116Z</time></trkpt><trkpt lat="45.2012283" lon="7.367635"><ele>1148.0</ele><time>2026-05-03T09:29:50.112Z</time></trkpt><trkpt lat="45.2009483" lon="7.3674017"><ele>1151.0</ele><time>2026-05-03T09:29:51.112Z</time></trkpt><trkpt lat="45.2007983" lon="7.367365"><ele>1155.2</ele><time>2026-05-03T09:29:52.112Z</time></trkpt><trkpt lat="45.2006583" lon="7.3673217"><ele>1159.3999999999999</ele><time>2026-05-03T09:29:53.113Z</time></trkpt><trkpt lat="45.2005783" lon="7.3673183"><ele>1163.6</ele><time>2026-05-03T09:29:54.113Z</time></trkpt><trkpt lat="45.2004783" lon="7.3673117"><ele>1167.8</ele><time>2026-05-03T09:29:55.113Z</time></trkpt><trkpt lat="45.20038" lon="7.3673183"><ele>1172.0</ele><time>2026-05-03T09:29:56.115Z</time></trkpt><trkpt lat="45.2002767" lon="7.367335"><ele>1172.0</ele><time>2026-05-03T09:29:57.116Z</time></trkpt><trkpt lat="45.2001867" lon="7.3673683"><ele>1172.0</ele><time>2026-05-03T09:29:58.113Z</time></trkpt><trkpt lat="45.200085" lon="7.3673767"><ele>1172.0</ele><time>2026-05-03T09:29:59.112Z</time></trkpt><trkpt lat="45.2000217" lon="7.3674767"><ele>1172.0</ele><time>2026-05-03T09:30:00.113Z</time></trkpt><trkpt lat="45.1999733" lon="7.3676183"><ele>1172.0</ele><time>2026-05-03T09:30:01.111Z</time></trkpt><trkpt lat="45.1999267" lon="7.367765"><ele>1172.0</ele><time>2026-05-03T09:30:02.113Z</time></trkpt><trkpt lat="45.1998933" lon="7.3679233"><ele>1172.0</ele><time>2026-05-03T09:30:03.114Z</time></trkpt><trkpt lat="45.1998817" lon="7.368065"><ele>1172.0</ele><time>2026-05-03T09:30:04.113Z</time></trkpt><trkpt lat="45.199815" lon="7.3682483"><ele>1172.0</ele><time>2026-05-03T09:30:05.115Z</time></trkpt><trkpt lat="45.1997533" lon="7.36842"><ele>1178.25</ele><time>2026-05-03T09:30:06.118Z</time></trkpt><trkpt lat="45.1997017" lon="7.3685767"><ele>1184.5</ele><time>2026-05-03T09:30:07.113Z</time></trkpt><trkpt lat="45.1996583" lon="7.3687267"><ele>1190.75</ele><time>2026-05-03T09:30:08.113Z</time></trkpt><trkpt lat="45.1996317" lon="7.36894"><ele>1197.0</ele><time>2026-05-03T09:30:09.115Z</time></trkpt><trkpt lat="45.1996067" lon="7.3691233"><ele>1197.0</ele><time>2026-05-03T09:30:10.117Z</time></trkpt><trkpt lat="45.199575" lon="7.3692717"><ele>1197.0</ele><time>2026-05-03T09:30:11.112Z</time></trkpt><trkpt lat="45.1995367" lon="7.369415"><ele>1197.0</ele><time>2026-05-03T09:30:12.115Z</time></trkpt><trkpt lat="45.1994917" lon="7.3695633"><ele>1197.0</ele><time>2026-05-03T09:30:13.113Z</time></trkpt><trkpt lat="45.1994383" lon="7.3697167"><ele>1195.0</ele><time>2026-05-03T09:30:14.113Z</time></trkpt><trkpt lat="45.199385" lon="7.3698583"><ele>1193.0</ele><time>2026-05-03T09:30:15.114Z</time></trkpt><trkpt lat="45.1993433" lon="7.3700083"><ele>1191.0</ele><time>2026-05-03T09:30:16.114Z</time></trkpt><trkpt lat="45.1993067" lon="7.3701617"><ele>1189.0</ele><time>2026-05-03T09:30:17.115Z</time></trkpt><trkpt lat="45.1992733" lon="7.370295"><ele>1187.0</ele><time>2026-05-03T09:30:18.115Z</time></trkpt><trkpt lat="45.1992083" lon="7.3704133"><ele>1187.0</ele><time>2026-05-03T09:30:20.118Z</time></trkpt><trkpt lat="45.1991483" lon="7.3705233"><ele>1187.0</ele><time>2026-05-03T09:30:21.123Z</time></trkpt><trkpt lat="45.1990483" lon="7.3706217"><ele>1187.0</ele><time>2026-05-03T09:30:22.117Z</time></trkpt><trkpt lat="45.1989483" lon="7.3707067"><ele>1187.0</ele><time>2026-05-03T09:30:23.113Z</time></trkpt><trkpt lat="45.1988833" lon="7.37085"><ele>1187.0</ele><time>2026-05-03T09:30:24.115Z</time></trkpt><trkpt lat="45.19882" lon="7.3709717"><ele>1187.0</ele><time>2026-05-03T09:30:25.114Z</time></trkpt><trkpt lat="45.19876" lon="7.3711017"><ele>1187.0</ele><time>2026-05-03T09:30:26.116Z</time></trkpt><trkpt lat="45.1986867" lon="7.3712067"><ele>1187.0</ele><time>2026-05-03T09:30:27.116Z</time></trkpt><trkpt lat="45.1986083" lon="7.3713167"><ele>1187.0</ele><time>2026-05-03T09:30:28.113Z</time></trkpt><trkpt lat="45.1985383" lon="7.3714"><ele>1186.75</ele><time>2026-05-03T09:30:29.111Z</time></trkpt><trkpt lat="45.198465" lon="7.371505"><ele>1186.5</ele><time>2026-05-03T09:30:30.118Z</time></trkpt><trkpt lat="45.1983833" lon="7.37158"><ele>1186.25</ele><time>2026-05-03T09:30:31.114Z</time></trkpt><trkpt lat="45.1982017" lon="7.3715567"><ele>1186.0</ele><time>2026-05-03T09:30:32.115Z</time></trkpt><trkpt lat="45.1980233" lon="7.3713433"><ele>1183.5</ele><time>2026-05-03T09:30:33.116Z</time></trkpt><trkpt lat="45.1978983" lon="7.37141"><ele>1181.0</ele><time>2026-05-03T09:30:34.114Z</time></trkpt><trkpt lat="45.1977333" lon="7.3714417"><ele>1178.5</ele><time>2026-05-03T09:30:35.115Z</time></trkpt><trkpt lat="45.197615" lon="7.3715"><ele>1176.0</ele><time>2026-05-03T09:30:36.113Z</time></trkpt><trkpt lat="45.1974383" lon="7.3716383"><ele>1176.0</ele><time>2026-05-03T09:30:37.115Z</time></trkpt><trkpt lat="45.19736" lon="7.37165"><ele>1176.0</ele><time>2026-05-03T09:30:38.117Z</time></trkpt><trkpt lat="45.19724" lon="7.3716133"><ele>1176.0</ele><time>2026-05-03T09:30:39.116Z</time></trkpt><trkpt lat="45.197135" lon="7.3715267"><ele>1176.0</ele><time>2026-05-03T09:30:40.112Z</time></trkpt><trkpt lat="45.1970433" lon="7.3713833"><ele>1173.5</ele><time>2026-05-03T09:30:41.117Z</time></trkpt><trkpt lat="45.1969733" lon="7.3712733"><ele>1171.0</ele><time>2026-05-03T09:30:42.112Z</time></trkpt><trkpt lat="45.1968967" lon="7.3711833"><ele>1168.5</ele><time>2026-05-03T09:30:43.115Z</time></trkpt><trkpt lat="45.1968967" lon="7.3709783"><ele>1166.0</ele><time>2026-05-03T09:30:44.111Z</time></trkpt><trkpt lat="45.1969083" lon="7.3707483"><ele>1166.0</ele><time>2026-05-03T09:30:45.114Z</time></trkpt><trkpt lat="45.196885" lon="7.37056"><ele>1166.0</ele><time>2026-05-03T09:30:46.116Z</time></trkpt><trkpt lat="45.1968483" lon="7.3703867"><ele>1166.0</ele><time>2026-05-03T09:30:47.113Z</time></trkpt><trkpt lat="45.1968217" lon="7.3702383"><ele>1166.0</ele><time>2026-05-03T09:30:48.114Z</time></trkpt><trkpt lat="45.1967833" lon="7.3701267"><ele>1166.5</ele><time>2026-05-03T09:30:49.114Z</time></trkpt><trkpt lat="45.19671" lon="7.3700617"><ele>1167.0</ele><time>2026-05-03T09:30:50.112Z</time></trkpt><trkpt lat="45.196635" lon="7.3699983"><ele>1167.5</ele><time>2026-05-03T09:30:51.114Z</time></trkpt><trkpt lat="45.1965617" lon="7.36998"><ele>1168.0</ele><time>2026-05-03T09:30:52.113Z</time></trkpt><trkpt lat="45.196475" lon="7.369975"><ele>1168.5</ele><time>2026-05-03T09:30:53.114Z</time></trkpt><trkpt lat="45.1963867" lon="7.3699367"><ele>1169.0</ele><time>2026-05-03T09:30:54.114Z</time></trkpt><trkpt lat="45.1962917" lon="7.36986"><ele>1169.0</ele><time>2026-05-03T09:30:55.116Z</time></trkpt><trkpt lat="45.19617" lon="7.3697817"><ele>1169.0</ele><time>2026-05-03T09:30:56.115Z</time></trkpt><trkpt lat="45.1960533" lon="7.369705"><ele>1169.0</ele><time>2026-05-03T09:30:57.117Z</time></trkpt><trkpt lat="45.1959317" lon="7.3695833"><ele>1169.0</ele><time>2026-05-03T09:30:58.113Z</time></trkpt><trkpt lat="45.1958067" lon="7.3694733"><ele>1172.0</ele><time>2026-05-03T09:30:59.116Z</time></trkpt><trkpt lat="45.1956783" lon="7.3693833"><ele>1175.0</ele><time>2026-05-03T09:31:00.114Z</time></trkpt><trkpt lat="45.1955433" lon="7.369285"><ele>1178.0</ele><time>2026-05-03T09:31:01.117Z</time></trkpt><trkpt lat="45.1954117" lon="7.3691883"><ele>1181.0</ele><time>2026-05-03T09:31:02.12Z</time></trkpt><trkpt lat="45.19527" lon="7.3691083"><ele>1181.0</ele><time>2026-05-03T09:31:03.12Z</time></trkpt><trkpt lat="45.1951283" lon="7.369045"><ele>1181.0</ele><time>2026-05-03T09:31:04.116Z</time></trkpt><trkpt lat="45.1949833" lon="7.36901"><ele>1181.0</ele><time>2026-05-03T09:31:05.115Z</time></trkpt><trkpt lat="45.1948467" lon="7.3689867"><ele>1181.0</ele><time>2026-05-03T09:31:06.116Z</time></trkpt><trkpt lat="45.19471" lon="7.368965"><ele>1181.5</ele><time>2026-05-03T09:31:07.113Z</time></trkpt><trkpt lat="45.1945783" lon="7.368955"><ele>1182.0</ele><time>2026-05-03T09:31:08.117Z</time></trkpt><trkpt lat="45.19444" lon="7.3689433"><ele>1182.5</ele><time>2026-05-03T09:31:09.118Z</time></trkpt><trkpt lat="45.19431" lon="7.36894"><ele>1183.0</ele><time>2026-05-03T09:31:10.113Z</time></trkpt><trkpt lat="45.1941883" lon="7.3689633"><ele>1183.0</ele><time>2026-05-03T09:31:11.111Z</time></trkpt><trkpt lat="45.1940867" lon="7.3690117"><ele>1183.0</ele><time>2026-05-03T09:31:12.112Z</time></trkpt><trkpt lat="45.1940133" lon="7.3690767"><ele>1183.0</ele><time>2026-05-03T09:31:13.113Z</time></trkpt><trkpt lat="45.19395" lon="7.3691867"><ele>1183.0</ele><time>2026-05-03T09:31:14.113Z</time></trkpt><trkpt lat="45.1938983" lon="7.3693233"><ele>1183.0</ele><time>2026-05-03T09:31:15.114Z</time></trkpt><trkpt lat="45.1938567" lon="7.369485"><ele>1182.6</ele><time>2026-05-03T09:31:16.114Z</time></trkpt><trkpt lat="45.1938183" lon="7.36966"><ele>1182.1999999999998</ele><time>2026-05-03T09:31:17.111Z</time></trkpt><trkpt lat="45.1937867" lon="7.3698233"><ele>1181.8</ele><time>2026-05-03T09:31:18.115Z</time></trkpt><trkpt lat="45.19375" lon="7.3699533"><ele>1181.3999999999999</ele><time>2026-05-03T09:31:19.112Z</time></trkpt><trkpt lat="45.1937017" lon="7.370055"><ele>1181.0</ele><time>2026-05-03T09:31:20.111Z</time></trkpt><trkpt lat="45.1936417" lon="7.3701467"><ele>1181.0</ele><time>2026-05-03T09:31:21.11Z</time></trkpt><trkpt lat="45.1935683" lon="7.3702117"><ele>1181.0</ele><time>2026-05-03T09:31:22.118Z</time></trkpt><trkpt lat="45.193465" lon="7.37028"><ele>1181.0</ele><time>2026-05-03T09:31:23.114Z</time></trkpt><trkpt lat="45.1933467" lon="7.3702833"><ele>1181.0</ele><time>2026-05-03T09:31:24.113Z</time></trkpt><trkpt lat="45.19321" lon="7.3702317"><ele>1176.3333333333335</ele><time>2026-05-03T09:31:25.113Z</time></trkpt><trkpt lat="45.1930583" lon="7.3701283"><ele>1171.6666666666667</ele><time>2026-05-03T09:31:26.113Z</time></trkpt><trkpt lat="45.192925" lon="7.3700317"><ele>1167.0</ele><time>2026-05-03T09:31:27.116Z</time></trkpt><trkpt lat="45.192795" lon="7.369935"><ele>1167.0</ele><time>2026-05-03T09:31:28.114Z</time></trkpt><trkpt lat="45.1926783" lon="7.3698233"><ele>1167.0</ele><time>2026-05-03T09:31:29.117Z</time></trkpt><trkpt lat="45.1925667" lon="7.36973"><ele>1167.0</ele><time>2026-05-03T09:31:30.112Z</time></trkpt><trkpt lat="45.1924683" lon="7.3696183"><ele>1167.0</ele><time>2026-05-03T09:31:31.114Z</time></trkpt><trkpt lat="45.19238" lon="7.3694817"><ele>1165.0</ele><time>2026-05-03T09:31:32.115Z</time></trkpt><trkpt lat="45.1923" lon="7.3693167"><ele>1163.0</ele><time>2026-05-03T09:31:33.114Z</time></trkpt><trkpt lat="45.1922333" lon="7.369145"><ele>1161.0</ele><time>2026-05-03T09:31:34.112Z</time></trkpt><trkpt lat="45.1921767" lon="7.3689417"><ele>1159.0</ele><time>2026-05-03T09:31:35.114Z</time></trkpt><trkpt lat="45.192105" lon="7.3687183"><ele>1159.0</ele><time>2026-05-03T09:31:36.112Z</time></trkpt><trkpt lat="45.19203" lon="7.3684817"><ele>1159.0</ele><time>2026-05-03T09:31:37.113Z</time></trkpt><trkpt lat="45.19196" lon="7.3682567"><ele>1159.0</ele><time>2026-05-03T09:31:38.12Z</time></trkpt><trkpt lat="45.19189" lon="7.3680567"><ele>1163.25</ele><time>2026-05-03T09:31:39.114Z</time></trkpt><trkpt lat="45.1918217" lon="7.36787"><ele>1167.5</ele><time>2026-05-03T09:31:40.112Z</time></trkpt><trkpt lat="45.1917517" lon="7.3676783"><ele>1171.75</ele><time>2026-05-03T09:31:41.114Z</time></trkpt><trkpt lat="45.1916733" lon="7.3675017"><ele>1176.0</ele><time>2026-05-03T09:31:42.111Z</time></trkpt><trkpt lat="45.1916" lon="7.36736"><ele>1176.0</ele><time>2026-05-03T09:31:43.113Z</time></trkpt><trkpt lat="45.191515" lon="7.367225"><ele>1176.0</ele><time>2026-05-03T09:31:44.112Z</time></trkpt><trkpt lat="45.1914217" lon="7.367105"><ele>1176.0</ele><time>2026-05-03T09:31:45.118Z</time></trkpt><trkpt lat="45.1913233" lon="7.3669817"><ele>1176.0</ele><time>2026-05-03T09:31:46.114Z</time></trkpt><trkpt lat="45.191225" lon="7.3668633"><ele>1173.0</ele><time>2026-05-03T09:31:47.114Z</time></trkpt><trkpt lat="45.1911383" lon="7.3667567"><ele>1170.0</ele><time>2026-05-03T09:31:48.114Z</time></trkpt><trkpt lat="45.191065" lon="7.366635"><ele>1167.0</ele><time>2026-05-03T09:31:49.113Z</time></trkpt><trkpt lat="45.1910133" lon="7.3664967"><ele>1164.0</ele><time>2026-05-03T09:31:50.111Z</time></trkpt><trkpt lat="45.19098" lon="7.3663367"><ele>1164.0</ele><time>2026-05-03T09:31:51.11Z</time></trkpt><trkpt lat="45.19097" lon="7.366155"><ele>1164.0</ele><time>2026-05-03T09:31:52.113Z</time></trkpt><trkpt lat="45.190975" lon="7.36596"><ele>1164.0</ele><time>2026-05-03T09:31:53.111Z</time></trkpt><trkpt lat="45.1909883" lon="7.36576"><ele>1164.0</ele><time>2026-05-03T09:31:54.112Z</time></trkpt><trkpt lat="45.1910033" lon="7.3655517"><ele>1165.0</ele><time>2026-05-03T09:31:55.119Z</time></trkpt><trkpt lat="45.1910117" lon="7.3653433"><ele>1166.0</ele><time>2026-05-03T09:31:56.116Z</time></trkpt><trkpt lat="45.1910217" lon="7.36513"><ele>1167.0</ele><time>2026-05-03T09:31:57.118Z</time></trkpt><trkpt lat="45.19102" lon="7.3649167"><ele>1168.0</ele><time>2026-05-03T09:31:58.113Z</time></trkpt><trkpt lat="45.1910033" lon="7.3647117"><ele>1171.25</ele><time>2026-05-03T09:31:59.111Z</time></trkpt><trkpt lat="45.190985" lon="7.3645117"><ele>1174.5</ele><time>2026-05-03T09:32:00.115Z</time></trkpt><trkpt lat="45.1909533" lon="7.36432"><ele>1177.75</ele><time>2026-05-03T09:32:01.116Z</time></trkpt><trkpt lat="45.1909233" lon="7.3641333"><ele>1181.0</ele><time>2026-05-03T09:32:02.112Z</time></trkpt><trkpt lat="45.1908917" lon="7.363955"><ele>1184.5</ele><time>2026-05-03T09:32:03.113Z</time></trkpt><trkpt lat="45.1908633" lon="7.3638"><ele>1188.0</ele><time>2026-05-03T09:32:04.112Z</time></trkpt><trkpt lat="45.190815" lon="7.36365"><ele>1191.5</ele><time>2026-05-03T09:32:05.11Z</time></trkpt><trkpt lat="45.190755" lon="7.3634967"><ele>1195.0</ele><time>2026-05-03T09:32:06.113Z</time></trkpt><trkpt lat="45.1906317" lon="7.3634333"><ele>1197.25</ele><time>2026-05-03T09:32:07.112Z</time></trkpt><trkpt lat="45.1905083" lon="7.3634467"><ele>1199.5</ele><time>2026-05-03T09:32:08.114Z</time></trkpt><trkpt lat="45.1903733" lon="7.3634033"><ele>1201.75</ele><time>2026-05-03T09:32:09.111Z</time></trkpt><trkpt lat="45.1902583" lon="7.3633683"><ele>1204.0</ele><time>2026-05-03T09:32:10.112Z</time></trkpt><trkpt lat="45.1901683" lon="7.3633767"><ele>1204.0</ele><time>2026-05-03T09:32:11.113Z</time></trkpt><trkpt lat="45.1900867" lon="7.363405"><ele>1204.0</ele><time>2026-05-03T09:32:12.114Z</time></trkpt><trkpt lat="45.1900117" lon="7.3634683"><ele>1204.0</ele><time>2026-05-03T09:32:13.113Z</time></trkpt><trkpt lat="45.1899117" lon="7.3634833"><ele>1204.0</ele><time>2026-05-03T09:32:14.116Z</time></trkpt><trkpt lat="45.18984" lon="7.36357"><ele>1204.0</ele><time>2026-05-03T09:32:15.118Z</time></trkpt><trkpt lat="45.1897683" lon="7.363765"><ele>1209.6666666666665</ele><time>2026-05-03T09:32:16.114Z</time></trkpt><trkpt lat="45.18968" lon="7.36404"><ele>1215.3333333333333</ele><time>2026-05-03T09:32:17.114Z</time></trkpt><trkpt lat="45.1895983" lon="7.3642517"><ele>1221.0</ele><time>2026-05-03T09:32:18.116Z</time></trkpt><trkpt lat="45.18952" lon="7.3644483"><ele>1221.0</ele><time>2026-05-03T09:32:19.128Z</time></trkpt><trkpt lat="45.1894433" lon="7.3646217"><ele>1221.0</ele><time>2026-05-03T09:32:20.113Z</time></trkpt><trkpt lat="45.1893767" lon="7.3647967"><ele>1221.0</ele><time>2026-05-03T09:32:21.112Z</time></trkpt><trkpt lat="45.1893083" lon="7.3649533"><ele>1221.0</ele><time>2026-05-03T09:32:22.112Z</time></trkpt><trkpt lat="45.1892267" lon="7.3650983"><ele>1218.75</ele><time>2026-05-03T09:32:23.114Z</time></trkpt><trkpt lat="45.1891517" lon="7.365255"><ele>1216.5</ele><time>2026-05-03T09:32:24.112Z</time></trkpt><trkpt lat="45.1890667" lon="7.3653767"><ele>1214.25</ele><time>2026-05-03T09:32:25.116Z</time></trkpt><trkpt lat="45.1889867" lon="7.3654683"><ele>1212.0</ele><time>2026-05-03T09:32:26.112Z</time></trkpt><trkpt lat="45.1889017" lon="7.3655717"><ele>1206.6</ele><time>2026-05-03T09:32:27.114Z</time></trkpt><trkpt lat="45.18882" lon="7.3656433"><ele>1201.2</ele><time>2026-05-03T09:32:28.111Z</time></trkpt><trkpt lat="45.1887367" lon="7.3657083"><ele>1195.8</ele><time>2026-05-03T09:32:29.114Z</time></trkpt><trkpt lat="45.188655" lon="7.3658017"><ele>1190.4</ele><time>2026-05-03T09:32:30.112Z</time></trkpt><trkpt lat="45.1885617" lon="7.3657817"><ele>1185.0</ele><time>2026-05-03T09:32:31.113Z</time></trkpt><trkpt lat="45.188455" lon="7.36577"><ele>1185.0</ele><time>2026-05-03T09:32:32.112Z</time></trkpt><trkpt lat="45.1882967" lon="7.365635"><ele>1185.0</ele><time>2026-05-03T09:32:33.112Z</time></trkpt><trkpt lat="45.1881033" lon="7.3654967"><ele>1185.0</ele><time>2026-05-03T09:32:34.111Z</time></trkpt><trkpt lat="45.1879367" lon="7.3655117"><ele>1192.6666666666667</ele><time>2026-05-03T09:32:35.11Z</time></trkpt><trkpt lat="45.1877883" lon="7.3654083"><ele>1200.3333333333335</ele><time>2026-05-03T09:32:36.108Z</time></trkpt><trkpt lat="45.1876383" lon="7.3653833"><ele>1208.0</ele><time>2026-05-03T09:32:37.113Z</time></trkpt><trkpt lat="45.1874967" lon="7.365365"><ele>1208.0</ele><time>2026-05-03T09:32:38.117Z</time></trkpt><trkpt lat="45.1873617" lon="7.3653483"><ele>1208.0</ele><time>2026-05-03T09:32:39.115Z</time></trkpt><trkpt lat="45.18719" lon="7.3653533"><ele>1208.0</ele><time>2026-05-03T09:32:40.113Z</time></trkpt><trkpt lat="45.1870817" lon="7.3653817"><ele>1208.0</ele><time>2026-05-03T09:32:41.111Z</time></trkpt><trkpt lat="45.1869767" lon="7.3654183"><ele>1206.75</ele><time>2026-05-03T09:32:42.113Z</time></trkpt><trkpt lat="45.1868783" lon="7.36547"><ele>1205.5</ele><time>2026-05-03T09:32:43.109Z</time></trkpt><trkpt lat="45.186785" lon="7.3655283"><ele>1204.25</ele><time>2026-05-03T09:32:44.112Z</time></trkpt><trkpt lat="45.1866817" lon="7.3655833"><ele>1203.0</ele><time>2026-05-03T09:32:45.114Z</time></trkpt><trkpt lat="45.1865633" lon="7.365695"><ele>1205.5</ele><time>2026-05-03T09:32:46.112Z</time></trkpt><trkpt lat="45.1864217" lon="7.3657867"><ele>1208.0</ele><time>2026-05-03T09:32:47.114Z</time></trkpt><trkpt lat="45.1862967" lon="7.365835"><ele>1210.5</ele><time>2026-05-03T09:32:48.112Z</time></trkpt><trkpt lat="45.186175" lon="7.3658883"><ele>1213.0</ele><time>2026-05-03T09:32:49.111Z</time></trkpt><trkpt lat="45.1860667" lon="7.3659333"><ele>1213.0</ele><time>2026-05-03T09:32:50.11Z</time></trkpt><trkpt lat="45.1859433" lon="7.365965"><ele>1213.0</ele><time>2026-05-03T09:32:51.115Z</time></trkpt><trkpt lat="45.1858283" lon="7.36598"><ele>1213.0</ele><time>2026-05-03T09:32:52.111Z</time></trkpt><trkpt lat="45.1857283" lon="7.3660067"><ele>1213.0</ele><time>2026-05-03T09:32:53.111Z</time></trkpt><trkpt lat="45.185565" lon="7.3659383"><ele>1215.0</ele><time>2026-05-03T09:32:54.11Z</time></trkpt><trkpt lat="45.1854067" lon="7.365895"><ele>1217.0</ele><time>2026-05-03T09:32:55.114Z</time></trkpt><trkpt lat="45.185275" lon="7.36588"><ele>1219.0</ele><time>2026-05-03T09:32:56.112Z</time></trkpt><trkpt lat="45.1851433" lon="7.365855"><ele>1221.0</ele><time>2026-05-03T09:32:57.108Z</time></trkpt><trkpt lat="45.185005" lon="7.3658667"><ele>1221.0</ele><time>2026-05-03T09:32:58.111Z</time></trkpt><trkpt lat="45.184885" lon="7.36588"><ele>1221.0</ele><time>2026-05-03T09:32:59.112Z</time></trkpt><trkpt lat="45.1847983" lon="7.3659417"><ele>1221.0</ele><time>2026-05-03T09:33:00.111Z</time></trkpt><trkpt lat="45.1846967" lon="7.3660067"><ele>1221.0</ele><time>2026-05-03T09:33:01.113Z</time></trkpt><trkpt lat="45.1845983" lon="7.3660617"><ele>1221.0</ele><time>2026-05-03T09:33:02.116Z</time></trkpt><trkpt lat="45.1844933" lon="7.3661133"><ele>1228.0</ele><time>2026-05-03T09:33:03.114Z</time></trkpt><trkpt lat="45.18439" lon="7.3661717"><ele>1235.0</ele><time>2026-05-03T09:33:04.112Z</time></trkpt><trkpt lat="45.184295" lon="7.3662433"><ele>1242.0</ele><time>2026-05-03T09:33:05.111Z</time></trkpt><trkpt lat="45.1842017" lon="7.3663167"><ele>1249.0</ele><time>2026-05-03T09:33:06.115Z</time></trkpt><trkpt lat="45.1841233" lon="7.3664483"><ele>1256.0</ele><time>2026-05-03T09:33:07.112Z</time></trkpt><trkpt lat="45.18405" lon="7.3665717"><ele>1269.0</ele><time>2026-05-03T09:33:08.111Z</time></trkpt><trkpt lat="45.18396" lon="7.36667"><ele>1282.0</ele><time>2026-05-03T09:33:09.11Z</time></trkpt><trkpt lat="45.1838717" lon="7.366775"><ele>1295.0</ele><time>2026-05-03T09:33:10.112Z</time></trkpt><trkpt lat="45.18378" lon="7.36687"><ele>1308.0</ele><time>2026-05-03T09:33:11.111Z</time></trkpt><trkpt lat="45.183675" lon="7.3669533"><ele>1308.0</ele><time>2026-05-03T09:33:12.112Z</time></trkpt><trkpt lat="45.1836433" lon="7.3670833"><ele>1308.0</ele><time>2026-05-03T09:33:13.116Z</time></trkpt><trkpt lat="45.1845033" lon="7.3678017"><ele>1238.0</ele><time>2026-05-03T09:33:14.115Z</time></trkpt><trkpt lat="45.1848517" lon="7.3684233"><ele>1238.0</ele><time>2026-05-03T09:33:15.115Z</time></trkpt><trkpt lat="45.1849017" lon="7.3685867"><ele>1238.0</ele><time>2026-05-03T09:33:16.111Z</time></trkpt><trkpt lat="45.1849367" lon="7.36879"><ele>1238.0</ele><time>2026-05-03T09:33:17.112Z</time></trkpt><trkpt lat="45.184975" lon="7.3689867"><ele>1238.0</ele><time>2026-05-03T09:33:18.118Z</time></trkpt><trkpt lat="45.1850283" lon="7.369185"><ele>1241.3333333333335</ele><time>2026-05-03T09:33:19.111Z</time></trkpt><trkpt lat="45.1850783" lon="7.369395"><ele>1244.6666666666667</ele><time>2026-05-03T09:33:20.115Z</time></trkpt><trkpt lat="45.18513" lon="7.3695733"><ele>1248.0</ele><time>2026-05-03T09:33:21.116Z</time></trkpt><trkpt lat="45.1851783" lon="7.3698067"><ele>1254.6666666666667</ele><time>2026-05-03T09:33:22.115Z</time></trkpt><trkpt lat="45.1852467" lon="7.3699933"><ele>1261.3333333333335</ele><time>2026-05-03T09:33:23.117Z</time></trkpt><trkpt lat="45.1852967" lon="7.370205"><ele>1268.0</ele><time>2026-05-03T09:33:24.113Z</time></trkpt><trkpt lat="45.1855033" lon="7.370775"><ele>1268.6666666666667</ele><time>2026-05-03T09:33:27.113Z</time></trkpt><trkpt lat="45.185545" lon="7.37095"><ele>1269.3333333333333</ele><time>2026-05-03T09:33:28.115Z</time></trkpt><trkpt lat="45.1857017" lon="7.3711117"><ele>1270.0</ele><time>2026-05-03T09:33:29.112Z</time></trkpt><trkpt lat="45.1858433" lon="7.3713833"><ele>1262.25</ele><time>2026-05-03T09:33:30.116Z</time></trkpt><trkpt lat="45.18596" lon="7.3715867"><ele>1254.5</ele><time>2026-05-03T09:33:31.11Z</time></trkpt><trkpt lat="45.18602" lon="7.3717267"><ele>1246.75</ele><time>2026-05-03T09:33:32.111Z</time></trkpt><trkpt lat="45.1860633" lon="7.3718183"><ele>1239.0</ele><time>2026-05-03T09:33:33.11Z</time></trkpt><trkpt lat="45.186085" lon="7.3719583"><ele>1239.0</ele><time>2026-05-03T09:33:34.112Z</time></trkpt><trkpt lat="45.186095" lon="7.37212"><ele>1239.0</ele><time>2026-05-03T09:33:35.114Z</time></trkpt><trkpt lat="45.186095" lon="7.3722617"><ele>1239.0</ele><time>2026-05-03T09:33:36.111Z</time></trkpt><trkpt lat="45.186105" lon="7.3724033"><ele>1239.0</ele><time>2026-05-03T09:33:37.116Z</time></trkpt><trkpt lat="45.186115" lon="7.37253"><ele>1239.0</ele><time>2026-05-03T09:33:38.114Z</time></trkpt><trkpt lat="45.1861333" lon="7.37266"><ele>1244.0</ele><time>2026-05-03T09:33:39.117Z</time></trkpt><trkpt lat="45.1855917" lon="7.3718983"><ele>1244.0</ele><time>2026-05-03T09:33:40.115Z</time></trkpt><trkpt lat="45.1855517" lon="7.3719767"><ele>1244.0</ele><time>2026-05-03T09:33:41.112Z</time></trkpt><trkpt lat="45.1854633" lon="7.3720817"><ele>1244.0</ele><time>2026-05-03T09:33:42.119Z</time></trkpt><trkpt lat="45.1853717" lon="7.3721533"><ele>1244.0</ele><time>2026-05-03T09:33:43.114Z</time></trkpt><trkpt lat="45.1852683" lon="7.37221"><ele>1244.0</ele><time>2026-05-03T09:33:44.115Z</time></trkpt><trkpt lat="45.1851717" lon="7.372265"><ele>1236.0</ele><time>2026-05-03T09:33:45.114Z</time></trkpt><trkpt lat="45.1847283" lon="7.3718367"><ele>1236.0</ele><time>2026-05-03T09:33:46.113Z</time></trkpt><trkpt lat="45.184155" lon="7.371495"><ele>1233.0</ele><time>2026-05-03T09:33:47.114Z</time></trkpt><trkpt lat="45.184005" lon="7.3714017"><ele>1230.0</ele><time>2026-05-03T09:33:48.111Z</time></trkpt><trkpt lat="45.1838667" lon="7.3712933"><ele>1227.0</ele><time>2026-05-03T09:33:49.113Z</time></trkpt><trkpt lat="45.183725" lon="7.3712033"><ele>1234.3333333333333</ele><time>2026-05-03T09:33:50.113Z</time></trkpt><trkpt lat="45.1835717" lon="7.3711217"><ele>1241.6666666666665</ele><time>2026-05-03T09:33:51.116Z</time></trkpt><trkpt lat="45.1834433" lon="7.37103"><ele>1249.0</ele><time>2026-05-03T09:33:52.118Z</time></trkpt><trkpt lat="45.1832833" lon="7.3708917"><ele>1249.5</ele><time>2026-05-03T09:33:53.116Z</time></trkpt><trkpt lat="45.18314" lon="7.3708117"><ele>1250.0</ele><time>2026-05-03T09:33:54.112Z</time></trkpt><trkpt lat="45.1829967" lon="7.3707733"><ele>1250.5</ele><time>2026-05-03T09:33:55.117Z</time></trkpt><trkpt lat="45.18286" lon="7.37074"><ele>1251.0</ele><time>2026-05-03T09:33:56.113Z</time></trkpt><trkpt lat="45.182675" lon="7.3708233"><ele>1251.0</ele><time>2026-05-03T09:33:57.115Z</time></trkpt><trkpt lat="45.1825033" lon="7.3709017"><ele>1251.0</ele><time>2026-05-03T09:33:58.113Z</time></trkpt><trkpt lat="45.1823667" lon="7.3709583"><ele>1251.0</ele><time>2026-05-03T09:33:59.115Z</time></trkpt><trkpt lat="45.1822183" lon="7.370975"><ele>1251.5</ele><time>2026-05-03T09:34:00.111Z</time></trkpt><trkpt lat="45.18209" lon="7.3709867"><ele>1252.0</ele><time>2026-05-03T09:34:01.111Z</time></trkpt><trkpt lat="45.181965" lon="7.3710117"><ele>1252.5</ele><time>2026-05-03T09:34:02.111Z</time></trkpt><trkpt lat="45.1819617" lon="7.3712633"><ele>1253.0</ele><time>2026-05-03T09:34:03.112Z</time></trkpt><trkpt lat="45.1819083" lon="7.3713667"><ele>1253.0</ele><time>2026-05-03T09:34:04.111Z</time></trkpt><trkpt lat="45.1819" lon="7.371535"><ele>1253.0</ele><time>2026-05-03T09:34:05.111Z</time></trkpt><trkpt lat="45.1818517" lon="7.3716417"><ele>1253.0</ele><time>2026-05-03T09:34:06.115Z</time></trkpt><trkpt lat="45.1819267" lon="7.371805"><ele>1253.0</ele><time>2026-05-03T09:34:07.115Z</time></trkpt><trkpt lat="45.18206" lon="7.3719983"><ele>1249.6666666666667</ele><time>2026-05-03T09:34:08.115Z</time></trkpt><trkpt lat="45.1821983" lon="7.3722"><ele>1246.3333333333333</ele><time>2026-05-03T09:34:09.113Z</time></trkpt><trkpt lat="45.1823033" lon="7.3724167"><ele>1243.0</ele><time>2026-05-03T09:34:10.113Z</time></trkpt><trkpt lat="45.1823783" lon="7.37263"><ele>1243.0</ele><time>2026-05-03T09:34:11.114Z</time></trkpt><trkpt lat="45.1824933" lon="7.3728883"><ele>1243.0</ele><time>2026-05-03T09:34:12.112Z</time></trkpt><trkpt lat="45.1825833" lon="7.3731217"><ele>1243.0</ele><time>2026-05-03T09:34:13.114Z</time></trkpt><trkpt lat="45.182665" lon="7.3733567"><ele>1246.3333333333333</ele><time>2026-05-03T09:34:14.114Z</time></trkpt><trkpt lat="45.1827217" lon="7.3735867"><ele>1249.6666666666667</ele><time>2026-05-03T09:34:15.118Z</time></trkpt><trkpt lat="45.182725" lon="7.373865"><ele>1253.0</ele><time>2026-05-03T09:34:16.117Z</time></trkpt><trkpt lat="45.182745" lon="7.3740983"><ele>1253.25</ele><time>2026-05-03T09:34:17.113Z</time></trkpt><trkpt lat="45.1827717" lon="7.3743283"><ele>1253.5</ele><time>2026-05-03T09:34:18.113Z</time></trkpt><trkpt lat="45.1828033" lon="7.37452"><ele>1253.75</ele><time>2026-05-03T09:34:19.114Z</time></trkpt><trkpt lat="45.1828217" lon="7.374695"><ele>1254.0</ele><time>2026-05-03T09:34:20.111Z</time></trkpt><trkpt lat="45.1828067" lon="7.3748483"><ele>1254.0</ele><time>2026-05-03T09:34:21.113Z</time></trkpt><trkpt lat="45.1827533" lon="7.37496"><ele>1254.0</ele><time>2026-05-03T09:34:22.111Z</time></trkpt><trkpt lat="45.1826633" lon="7.3750633"><ele>1254.0</ele><time>2026-05-03T09:34:23.11Z</time></trkpt><trkpt lat="45.1826033" lon="7.3751867"><ele>1254.0</ele><time>2026-05-03T09:34:24.113Z</time></trkpt><trkpt lat="45.182475" lon="7.37526"><ele>1261.25</ele><time>2026-05-03T09:34:25.117Z</time></trkpt><trkpt lat="45.1823467" lon="7.3753133"><ele>1268.5</ele><time>2026-05-03T09:34:26.115Z</time></trkpt><trkpt lat="45.1822067" lon="7.3753533"><ele>1275.75</ele><time>2026-05-03T09:34:27.114Z</time></trkpt><trkpt lat="45.1820967" lon="7.3754317"><ele>1283.0</ele><time>2026-05-03T09:34:28.113Z</time></trkpt><trkpt lat="45.18192" lon="7.375465"><ele>1280.25</ele><time>2026-05-03T09:34:29.118Z</time></trkpt><trkpt lat="45.1818117" lon="7.3755417"><ele>1277.5</ele><time>2026-05-03T09:34:30.112Z</time></trkpt><trkpt lat="45.1817333" lon="7.375655"><ele>1274.75</ele><time>2026-05-03T09:34:31.114Z</time></trkpt><trkpt lat="45.181645" lon="7.375815"><ele>1272.0</ele><time>2026-05-03T09:34:32.113Z</time></trkpt><trkpt lat="45.18157" lon="7.375955"><ele>1279.3333333333333</ele><time>2026-05-03T09:34:33.115Z</time></trkpt><trkpt lat="45.1814917" lon="7.3761017"><ele>1286.6666666666665</ele><time>2026-05-03T09:34:34.113Z</time></trkpt><trkpt lat="45.1814383" lon="7.3763517"><ele>1294.0</ele><time>2026-05-03T09:34:35.113Z</time></trkpt><trkpt lat="45.1814283" lon="7.3765933"><ele>1294.0</ele><time>2026-05-03T09:34:36.113Z</time></trkpt><trkpt lat="45.1814333" lon="7.3768183"><ele>1294.0</ele><time>2026-05-03T09:34:37.112Z</time></trkpt><trkpt lat="45.181465" lon="7.3770383"><ele>1294.0</ele><time>2026-05-03T09:34:38.11Z</time></trkpt><trkpt lat="45.1814833" lon="7.37726"><ele>1295.5</ele><time>2026-05-03T09:34:39.115Z</time></trkpt><trkpt lat="45.181495" lon="7.3774817"><ele>1297.0</ele><time>2026-05-03T09:34:40.109Z</time></trkpt><trkpt lat="45.181505" lon="7.3776867"><ele>1298.5</ele><time>2026-05-03T09:34:41.112Z</time></trkpt><trkpt lat="45.181495" lon="7.3778733"><ele>1300.0</ele><time>2026-05-03T09:34:42.116Z</time></trkpt><trkpt lat="45.1814767" lon="7.3780717"><ele>1300.6666666666665</ele><time>2026-05-03T09:34:43.115Z</time></trkpt><trkpt lat="45.1814417" lon="7.3782783"><ele>1301.3333333333333</ele><time>2026-05-03T09:34:44.114Z</time></trkpt><trkpt lat="45.181385" lon="7.37851"><ele>1302.0</ele><time>2026-05-03T09:34:45.126Z</time></trkpt><trkpt lat="45.1813517" lon="7.37877"><ele>1301.3333333333333</ele><time>2026-05-03T09:34:46.116Z</time></trkpt><trkpt lat="45.18131" lon="7.3789967"><ele>1300.6666666666665</ele><time>2026-05-03T09:34:47.113Z</time></trkpt><trkpt lat="45.1812617" lon="7.3792133"><ele>1300.0</ele><time>2026-05-03T09:34:48.113Z</time></trkpt><trkpt lat="45.181225" lon="7.3794333"><ele>1300.0</ele><time>2026-05-03T09:34:49.114Z</time></trkpt><trkpt lat="45.18117" lon="7.379675"><ele>1300.0</ele><time>2026-05-03T09:34:50.112Z</time></trkpt><trkpt lat="45.1811283" lon="7.3798567"><ele>1300.0</ele><time>2026-05-03T09:34:51.115Z</time></trkpt><trkpt lat="45.1810817" lon="7.3800067"><ele>1300.0</ele><time>2026-05-03T09:34:52.116Z</time></trkpt><trkpt lat="45.1810033" lon="7.3800383"><ele>1301.2</ele><time>2026-05-03T09:34:53.111Z</time></trkpt><trkpt lat="45.1809367" lon="7.3801483"><ele>1302.4</ele><time>2026-05-03T09:34:54.111Z</time></trkpt><trkpt lat="45.18085" lon="7.3802033"><ele>1303.6</ele><time>2026-05-03T09:34:55.113Z</time></trkpt><trkpt lat="45.18077" lon="7.380295"><ele>1304.8</ele><time>2026-05-03T09:34:56.114Z</time></trkpt><trkpt lat="45.1807" lon="7.3804083"><ele>1306.0</ele><time>2026-05-03T09:34:57.113Z</time></trkpt><trkpt lat="45.1806167" lon="7.380455"><ele>1306.0</ele><time>2026-05-03T09:34:58.114Z</time></trkpt><trkpt lat="45.1805217" lon="7.3804867"><ele>1306.0</ele><time>2026-05-03T09:34:59.112Z</time></trkpt><trkpt lat="45.1804483" lon="7.3805283"><ele>1306.0</ele><time>2026-05-03T09:35:00.115Z</time></trkpt><trkpt lat="45.180355" lon="7.380565"><ele>1306.0</ele><time>2026-05-03T09:35:01.113Z</time></trkpt><trkpt lat="45.18025" lon="7.3806417"><ele>1306.0</ele><time>2026-05-03T09:35:02.11Z</time></trkpt><trkpt lat="45.1801667" lon="7.380705"><ele>1305.25</ele><time>2026-05-03T09:35:03.111Z</time></trkpt><trkpt lat="45.180085" lon="7.3807633"><ele>1304.5</ele><time>2026-05-03T09:35:04.117Z</time></trkpt><trkpt lat="45.17999" lon="7.38084"><ele>1303.75</ele><time>2026-05-03T09:35:05.115Z</time></trkpt><trkpt lat="45.1798883" lon="7.3809117"><ele>1303.0</ele><time>2026-05-03T09:35:06.117Z</time></trkpt><trkpt lat="45.1796083" lon="7.3810533"><ele>1303.0</ele><time>2026-05-03T09:35:07.114Z</time></trkpt><trkpt lat="45.1792917" lon="7.381115"><ele>1303.0</ele><time>2026-05-03T09:35:08.114Z</time></trkpt><trkpt lat="45.17908" lon="7.3812433"><ele>1305.0</ele><time>2026-05-03T09:35:09.114Z</time></trkpt><trkpt lat="45.178945" lon="7.381355"><ele>1307.0</ele><time>2026-05-03T09:35:10.113Z</time></trkpt><trkpt lat="45.1788133" lon="7.38146"><ele>1309.0</ele><time>2026-05-03T09:35:11.117Z</time></trkpt><trkpt lat="45.1786483" lon="7.3815833"><ele>1309.0</ele><time>2026-05-03T09:35:12.116Z</time></trkpt><trkpt lat="45.17856" lon="7.3816433"><ele>1309.0</ele><time>2026-05-03T09:35:13.111Z</time></trkpt><trkpt lat="45.1784783" lon="7.3817217"><ele>1309.0</ele><time>2026-05-03T09:35:14.116Z</time></trkpt><trkpt lat="45.1784033" lon="7.3818117"><ele>1309.0</ele><time>2026-05-03T09:35:15.117Z</time></trkpt><trkpt lat="45.1783333" lon="7.3819017"><ele>1309.0</ele><time>2026-05-03T09:35:16.116Z</time></trkpt><trkpt lat="45.1782733" lon="7.3819883"><ele>1309.0</ele><time>2026-05-03T09:35:17.114Z</time></trkpt><trkpt lat="45.1782133" lon="7.38207"><ele>1309.0</ele><time>2026-05-03T09:35:18.117Z</time></trkpt><trkpt lat="45.17816" lon="7.3821533"><ele>1309.0</ele><time>2026-05-03T09:35:19.114Z</time></trkpt><trkpt lat="45.1781033" lon="7.3822317"><ele>1309.0</ele><time>2026-05-03T09:35:20.113Z</time></trkpt><trkpt lat="45.1780533" lon="7.3822983"><ele>1309.0</ele><time>2026-05-03T09:35:21.115Z</time></trkpt><trkpt lat="45.1779583" lon="7.382415"><ele>1309.0</ele><time>2026-05-03T09:35:23.114Z</time></trkpt><trkpt lat="45.1778967" lon="7.3824733"><ele>1308.5</ele><time>2026-05-03T09:35:25.116Z</time></trkpt><trkpt lat="45.1778183" lon="7.382515"><ele>1308.0</ele><time>2026-05-03T09:35:27.114Z</time></trkpt><trkpt lat="45.1777533" lon="7.3824283"><ele>1307.5</ele><time>2026-05-03T09:37:33.116Z</time></trkpt><trkpt lat="45.1776767" lon="7.3823917"><ele>1307.0</ele><time>2026-05-03T09:38:14.113Z</time></trkpt><trkpt lat="45.1776033" lon="7.38235"><ele>1306.5</ele><time>2026-05-03T09:38:44.112Z</time></trkpt><trkpt lat="45.1775167" lon="7.3823333"><ele>1306.0</ele><time>2026-05-03T09:38:47.111Z</time></trkpt><trkpt lat="45.1774533" lon="7.3823267"><ele>1306.0</ele><time>2026-05-03T09:38:50.113Z</time></trkpt><trkpt lat="45.1773667" lon="7.3823083"><ele>1306.0</ele><time>2026-05-03T09:38:58.116Z</time></trkpt><trkpt lat="45.1774267" lon="7.3821433"><ele>1306.0</ele><time>2026-05-03T09:39:02.11Z</time></trkpt><trkpt lat="45.1775883" lon="7.3820667"><ele>1306.0</ele><time>2026-05-03T09:39:04.112Z</time></trkpt><trkpt lat="45.1776567" lon="7.38189"><ele>1307.3333333333333</ele><time>2026-05-03T09:39:07.107Z</time></trkpt><trkpt lat="45.177685" lon="7.381785"><ele>1308.6666666666665</ele><time>2026-05-03T09:39:08.113Z</time></trkpt><trkpt lat="45.17769" lon="7.3816917"><ele>1310.0</ele><time>2026-05-03T09:39:09.112Z</time></trkpt><trkpt lat="45.1777317" lon="7.381765"><ele>1311.3333333333333</ele><time>2026-05-03T09:39:17.112Z</time></trkpt><trkpt lat="45.1777967" lon="7.3818033"><ele>1312.6666666666667</ele><time>2026-05-03T09:39:18.109Z</time></trkpt><trkpt lat="45.1776833" lon="7.3816717"><ele>1314.0</ele><time>2026-05-03T09:39:20.11Z</time></trkpt><trkpt lat="45.1776783" lon="7.381785"><ele>1314.0</ele><time>2026-05-03T09:39:27.122Z</time></trkpt><trkpt lat="45.177635" lon="7.3818967"><ele>1314.0</ele><time>2026-05-03T09:39:29.108Z</time></trkpt><trkpt lat="45.177645" lon="7.3819967"><ele>1314.0</ele><time>2026-05-03T09:39:32.116Z</time></trkpt><trkpt lat="45.1776683" lon="7.382085"><ele>1314.0</ele><time>2026-05-03T09:39:41.108Z</time></trkpt><trkpt lat="45.1776417" lon="7.3822133"><ele>1314.0</ele><time>2026-05-03T09:39:47.113Z</time></trkpt><trkpt lat="45.1776483" lon="7.3820783"><ele>1314.0</ele><time>2026-05-03T09:39:52.114Z</time></trkpt><trkpt lat="45.1776417" lon="7.382215"><ele>1312.6666666666667</ele><time>2026-05-03T09:39:56.113Z</time></trkpt><trkpt lat="45.1776317" lon="7.3823217"><ele>1311.3333333333333</ele><time>2026-05-03T09:39:58.112Z</time></trkpt><trkpt lat="45.1776983" lon="7.3824117"><ele>1310.0</ele><time>2026-05-03T10:16:13.114Z</time></trkpt><trkpt lat="45.1777569" lon="7.3824645"><ele>1308.6666666666665</ele><time>2026-05-03T10:16:23.114Z</time></trkpt><trkpt lat="45.1778007" lon="7.3825388"><ele>1307.3333333333333</ele><time>2026-05-03T10:16:31.116Z</time></trkpt><trkpt lat="45.1777387" lon="7.3826432"><ele>1306.0</ele><time>2026-05-03T10:20:11.115Z</time></trkpt><trkpt lat="45.1776333" lon="7.3828019"><ele>1306.0</ele><time>2026-05-03T10:20:13.116Z</time></trkpt><trkpt lat="45.1775645" lon="7.382895"><ele>1306.0</ele><time>2026-05-03T10:20:14.118Z</time></trkpt><trkpt lat="45.1774872" lon="7.3829978"><ele>1306.0</ele><time>2026-05-03T10:20:15.121Z</time></trkpt><trkpt lat="45.1774101" lon="7.3831121"><ele>1306.0</ele><time>2026-05-03T10:20:16.117Z</time></trkpt><trkpt lat="45.1773291" lon="7.3832435"><ele>1306.0</ele><time>2026-05-03T10:20:17.112Z</time></trkpt><trkpt lat="45.1772459" lon="7.3833965"><ele>1302.75</ele><time>2026-05-03T10:20:18.121Z</time></trkpt><trkpt lat="45.1771644" lon="7.3835497"><ele>1299.5</ele><time>2026-05-03T10:20:19.117Z</time></trkpt><trkpt lat="45.177086" lon="7.3836999"><ele>1296.25</ele><time>2026-05-03T10:20:20.117Z</time></trkpt><trkpt lat="45.1770114" lon="7.3838457"><ele>1293.0</ele><time>2026-05-03T10:20:21.114Z</time></trkpt><trkpt lat="45.1769392" lon="7.3839987"><ele>1293.0</ele><time>2026-05-03T10:20:22.113Z</time></trkpt><trkpt lat="45.1768662" lon="7.3841485"><ele>1293.0</ele><time>2026-05-03T10:20:23.113Z</time></trkpt><trkpt lat="45.1767924" lon="7.3842841"><ele>1293.0</ele><time>2026-05-03T10:20:24.117Z</time></trkpt><trkpt lat="45.1767172" lon="7.3844166"><ele>1293.0</ele><time>2026-05-03T10:20:25.117Z</time></trkpt><trkpt lat="45.1766378" lon="7.3845412"><ele>1293.0</ele><time>2026-05-03T10:20:26.112Z</time></trkpt><trkpt lat="45.1765532" lon="7.3846648"><ele>1293.0</ele><time>2026-05-03T10:20:27.12Z</time></trkpt><trkpt lat="45.1764645" lon="7.3847839"><ele>1293.0</ele><time>2026-05-03T10:20:28.115Z</time></trkpt><trkpt lat="45.1763745" lon="7.3849062"><ele>1293.0</ele><time>2026-05-03T10:20:29.114Z</time></trkpt><trkpt lat="45.1762872" lon="7.3850316"><ele>1288.25</ele><time>2026-05-03T10:20:30.116Z</time></trkpt><trkpt lat="45.1762097" lon="7.3851501"><ele>1283.5</ele><time>2026-05-03T10:20:31.116Z</time></trkpt><trkpt lat="45.1761299" lon="7.3852704"><ele>1278.75</ele><time>2026-05-03T10:20:32.114Z</time></trkpt><trkpt lat="45.1760453" lon="7.385394"><ele>1274.0</ele><time>2026-05-03T10:20:33.114Z</time></trkpt><trkpt lat="45.1759555" lon="7.3855041"><ele>1277.6</ele><time>2026-05-03T10:20:34.113Z</time></trkpt><trkpt lat="45.1758716" lon="7.3856093"><ele>1281.2</ele><time>2026-05-03T10:20:35.112Z</time></trkpt><trkpt lat="45.1757932" lon="7.3857205"><ele>1284.8</ele><time>2026-05-03T10:20:36.118Z</time></trkpt><trkpt lat="45.1757173" lon="7.3858308"><ele>1288.3999999999999</ele><time>2026-05-03T10:20:37.117Z</time></trkpt><trkpt lat="45.1756316" lon="7.3859449"><ele>1292.0</ele><time>2026-05-03T10:20:38.114Z</time></trkpt><trkpt lat="45.1755408" lon="7.3860644"><ele>1288.0</ele><time>2026-05-03T10:20:39.117Z</time></trkpt><trkpt lat="45.1754453" lon="7.3861868"><ele>1284.0</ele><time>2026-05-03T10:20:40.113Z</time></trkpt><trkpt lat="45.1753536" lon="7.3863091"><ele>1280.0</ele><time>2026-05-03T10:20:41.116Z</time></trkpt><trkpt lat="45.1752602" lon="7.3864259"><ele>1276.0</ele><time>2026-05-03T10:20:42.119Z</time></trkpt><trkpt lat="45.1751666" lon="7.3865378"><ele>1276.0</ele><time>2026-05-03T10:20:43.112Z</time></trkpt><trkpt lat="45.1750723" lon="7.3866403"><ele>1276.0</ele><time>2026-05-03T10:20:44.119Z</time></trkpt><trkpt lat="45.1749761" lon="7.3867399"><ele>1276.0</ele><time>2026-05-03T10:20:45.118Z</time></trkpt><trkpt lat="45.1748768" lon="7.3868416"><ele>1276.0</ele><time>2026-05-03T10:20:46.12Z</time></trkpt><trkpt lat="45.1747786" lon="7.3869384"><ele>1272.75</ele><time>2026-05-03T10:20:47.112Z</time></trkpt><trkpt lat="45.1746865" lon="7.3870403"><ele>1269.5</ele><time>2026-05-03T10:20:48.111Z</time></trkpt><trkpt lat="45.1745972" lon="7.3871384"><ele>1266.25</ele><time>2026-05-03T10:20:49.115Z</time></trkpt><trkpt lat="45.1745052" lon="7.3872276"><ele>1263.0</ele><time>2026-05-03T10:20:50.113Z</time></trkpt><trkpt lat="45.17441" lon="7.3873267"><ele>1263.0</ele><time>2026-05-03T10:20:51.115Z</time></trkpt><trkpt lat="45.1743167" lon="7.3874367"><ele>1263.0</ele><time>2026-05-03T10:20:52.113Z</time></trkpt><trkpt lat="45.1742283" lon="7.3875433"><ele>1263.0</ele><time>2026-05-03T10:20:53.114Z</time></trkpt><trkpt lat="45.1741567" lon="7.3876517"><ele>1263.0</ele><time>2026-05-03T10:20:54.113Z</time></trkpt><trkpt lat="45.17409" lon="7.3877333"><ele>1263.0</ele><time>2026-05-03T10:20:55.114Z</time></trkpt><trkpt lat="45.1740317" lon="7.3878033"><ele>1263.0</ele><time>2026-05-03T10:20:56.111Z</time></trkpt><trkpt lat="45.173975" lon="7.3878433"><ele>1263.0</ele><time>2026-05-03T10:20:57.116Z</time></trkpt><trkpt lat="45.17389" lon="7.3878783"><ele>1263.0</ele><time>2026-05-03T10:20:59.115Z</time></trkpt><trkpt lat="45.17392" lon="7.3877983"><ele>1263.0</ele><time>2026-05-03T10:21:00.11Z</time></trkpt><trkpt lat="45.174005" lon="7.3876317"><ele>1263.0</ele><time>2026-05-03T10:21:02.114Z</time></trkpt><trkpt lat="45.174055" lon="7.3875417"><ele>1263.0</ele><time>2026-05-03T10:21:03.114Z</time></trkpt><trkpt lat="45.1741517" lon="7.3874167"><ele>1263.0</ele><time>2026-05-03T10:21:04.115Z</time></trkpt><trkpt lat="45.1742617" lon="7.3872483"><ele>1263.0</ele><time>2026-05-03T10:21:05.119Z</time></trkpt><trkpt lat="45.17435" lon="7.387065"><ele>1263.0</ele><time>2026-05-03T10:21:06.115Z</time></trkpt><trkpt lat="45.17445" lon="7.3868533"><ele>1257.3333333333333</ele><time>2026-05-03T10:21:07.118Z</time></trkpt><trkpt lat="45.1745383" lon="7.3866433"><ele>1251.6666666666665</ele><time>2026-05-03T10:21:08.115Z</time></trkpt><trkpt lat="45.1746233" lon="7.3864183"><ele>1246.0</ele><time>2026-05-03T10:21:09.115Z</time></trkpt><trkpt lat="45.174705" lon="7.3862"><ele>1249.3333333333333</ele><time>2026-05-03T10:21:10.113Z</time></trkpt><trkpt lat="45.17479" lon="7.386"><ele>1252.6666666666667</ele><time>2026-05-03T10:21:11.113Z</time></trkpt><trkpt lat="45.1748667" lon="7.3857867"><ele>1256.0</ele><time>2026-05-03T10:21:12.12Z</time></trkpt><trkpt lat="45.174935" lon="7.3855867"><ele>1250.3333333333335</ele><time>2026-05-03T10:21:13.111Z</time></trkpt><trkpt lat="45.175" lon="7.385385"><ele>1244.6666666666667</ele><time>2026-05-03T10:21:14.115Z</time></trkpt><trkpt lat="45.17506" lon="7.38518"><ele>1239.0</ele><time>2026-05-03T10:21:15.117Z</time></trkpt><trkpt lat="45.1751233" lon="7.3849717"><ele>1239.0</ele><time>2026-05-03T10:21:16.113Z</time></trkpt><trkpt lat="45.1751833" lon="7.3847717"><ele>1239.0</ele><time>2026-05-03T10:21:17.113Z</time></trkpt><trkpt lat="45.175235" lon="7.38457"><ele>1239.0</ele><time>2026-05-03T10:21:18.115Z</time></trkpt><trkpt lat="45.1752817" lon="7.3843833"><ele>1239.0</ele><time>2026-05-03T10:21:19.116Z</time></trkpt><trkpt lat="45.1753267" lon="7.384205"><ele>1234.5</ele><time>2026-05-03T10:21:20.114Z</time></trkpt><trkpt lat="45.1753667" lon="7.384025"><ele>1230.0</ele><time>2026-05-03T10:21:21.116Z</time></trkpt><trkpt lat="45.1753867" lon="7.383835"><ele>1225.5</ele><time>2026-05-03T10:21:22.116Z</time></trkpt><trkpt lat="45.17539" lon="7.38365"><ele>1221.0</ele><time>2026-05-03T10:21:23.109Z</time></trkpt><trkpt lat="45.1753783" lon="7.3834533"><ele>1217.75</ele><time>2026-05-03T10:21:24.113Z</time></trkpt><trkpt lat="45.175355" lon="7.38326"><ele>1214.5</ele><time>2026-05-03T10:21:25.115Z</time></trkpt><trkpt lat="45.17532" lon="7.38304"><ele>1211.25</ele><time>2026-05-03T10:21:26.113Z</time></trkpt><trkpt lat="45.17529" lon="7.3828317"><ele>1208.0</ele><time>2026-05-03T10:21:27.117Z</time></trkpt><trkpt lat="45.1752667" lon="7.382615"><ele>1208.0</ele><time>2026-05-03T10:21:28.115Z</time></trkpt><trkpt lat="45.1752467" lon="7.3824033"><ele>1208.0</ele><time>2026-05-03T10:21:29.117Z</time></trkpt><trkpt lat="45.1752467" lon="7.3821917"><ele>1208.0</ele><time>2026-05-03T10:21:30.115Z</time></trkpt><trkpt lat="45.17524" lon="7.38197"><ele>1207.3333333333335</ele><time>2026-05-03T10:21:31.114Z</time></trkpt><trkpt lat="45.1752317" lon="7.3817433"><ele>1206.6666666666667</ele><time>2026-05-03T10:21:32.117Z</time></trkpt><trkpt lat="45.1752267" lon="7.3815183"><ele>1206.0</ele><time>2026-05-03T10:21:33.116Z</time></trkpt><trkpt lat="45.1752033" lon="7.38129"><ele>1203.3333333333333</ele><time>2026-05-03T10:21:34.113Z</time></trkpt><trkpt lat="45.17519" lon="7.381065"><ele>1200.6666666666665</ele><time>2026-05-03T10:21:35.116Z</time></trkpt><trkpt lat="45.1751717" lon="7.3808383"><ele>1198.0</ele><time>2026-05-03T10:21:36.114Z</time></trkpt><trkpt lat="45.1751467" lon="7.3806183"><ele>1197.6666666666665</ele><time>2026-05-03T10:21:37.116Z</time></trkpt><trkpt lat="45.1751167" lon="7.3804017"><ele>1197.3333333333333</ele><time>2026-05-03T10:21:38.113Z</time></trkpt><trkpt lat="45.1750867" lon="7.380185"><ele>1197.0</ele><time>2026-05-03T10:21:39.119Z</time></trkpt><trkpt lat="45.17506" lon="7.3799683"><ele>1197.0</ele><time>2026-05-03T10:21:40.111Z</time></trkpt><trkpt lat="45.17503" lon="7.3797567"><ele>1197.0</ele><time>2026-05-03T10:21:41.109Z</time></trkpt><trkpt lat="45.1750017" lon="7.3795467"><ele>1197.0</ele><time>2026-05-03T10:21:42.115Z</time></trkpt><trkpt lat="45.17499" lon="7.379355"><ele>1197.0</ele><time>2026-05-03T10:21:43.115Z</time></trkpt><trkpt lat="45.17498" lon="7.3791667"><ele>1197.25</ele><time>2026-05-03T10:21:44.114Z</time></trkpt><trkpt lat="45.1749483" lon="7.378955"><ele>1197.5</ele><time>2026-05-03T10:21:45.116Z</time></trkpt><trkpt lat="45.1749167" lon="7.378765"><ele>1197.75</ele><time>2026-05-03T10:21:46.116Z</time></trkpt><trkpt lat="45.17488" lon="7.37857"><ele>1198.0</ele><time>2026-05-03T10:21:47.112Z</time></trkpt><trkpt lat="45.1748283" lon="7.3783983"><ele>1199.5</ele><time>2026-05-03T10:21:48.11Z</time></trkpt><trkpt lat="45.1747483" lon="7.3782433"><ele>1201.0</ele><time>2026-05-03T10:21:49.11Z</time></trkpt><trkpt lat="45.1746717" lon="7.378095"><ele>1202.5</ele><time>2026-05-03T10:21:50.112Z</time></trkpt><trkpt lat="45.17456" lon="7.377985"><ele>1204.0</ele><time>2026-05-03T10:21:51.113Z</time></trkpt><trkpt lat="45.1744433" lon="7.3779167"><ele>1204.0</ele><time>2026-05-03T10:21:52.115Z</time></trkpt><trkpt lat="45.174305" lon="7.377895"><ele>1204.0</ele><time>2026-05-03T10:21:53.115Z</time></trkpt><trkpt lat="45.1741567" lon="7.3779133"><ele>1204.0</ele><time>2026-05-03T10:21:54.115Z</time></trkpt><trkpt lat="45.1740067" lon="7.37794"><ele>1204.0</ele><time>2026-05-03T10:21:55.118Z</time></trkpt><trkpt lat="45.1738583" lon="7.3779767"><ele>1198.5</ele><time>2026-05-03T10:21:56.113Z</time></trkpt><trkpt lat="45.1737183" lon="7.378005"><ele>1193.0</ele><time>2026-05-03T10:21:57.113Z</time></trkpt><trkpt lat="45.1735983" lon="7.3780033"><ele>1187.5</ele><time>2026-05-03T10:21:58.112Z</time></trkpt><trkpt lat="45.1734917" lon="7.3779717"><ele>1182.0</ele><time>2026-05-03T10:21:59.113Z</time></trkpt><trkpt lat="45.1733933" lon="7.3779133"><ele>1182.0</ele><time>2026-05-03T10:22:00.111Z</time></trkpt><trkpt lat="45.1733083" lon="7.377805"><ele>1182.0</ele><time>2026-05-03T10:22:01.116Z</time></trkpt><trkpt lat="45.1732317" lon="7.3776717"><ele>1182.0</ele><time>2026-05-03T10:22:02.113Z</time></trkpt><trkpt lat="45.17316" lon="7.37753"><ele>1182.0</ele><time>2026-05-03T10:22:03.111Z</time></trkpt><trkpt lat="45.1730767" lon="7.377415"><ele>1178.25</ele><time>2026-05-03T10:22:04.113Z</time></trkpt><trkpt lat="45.1729817" lon="7.37735"><ele>1174.5</ele><time>2026-05-03T10:22:05.114Z</time></trkpt><trkpt lat="45.1728817" lon="7.3773017"><ele>1170.75</ele><time>2026-05-03T10:22:06.113Z</time></trkpt><trkpt lat="45.17276" lon="7.3772583"><ele>1167.0</ele><time>2026-05-03T10:22:07.113Z</time></trkpt><trkpt lat="45.1726367" lon="7.3772267"><ele>1163.25</ele><time>2026-05-03T10:22:08.12Z</time></trkpt><trkpt lat="45.1725233" lon="7.3771833"><ele>1159.5</ele><time>2026-05-03T10:22:09.116Z</time></trkpt><trkpt lat="45.1724217" lon="7.37711"><ele>1155.75</ele><time>2026-05-03T10:22:10.112Z</time></trkpt><trkpt lat="45.1723133" lon="7.37705"><ele>1152.0</ele><time>2026-05-03T10:22:11.112Z</time></trkpt><trkpt lat="45.17222" lon="7.3769833"><ele>1152.0</ele><time>2026-05-03T10:22:12.118Z</time></trkpt><trkpt lat="45.17213" lon="7.37691"><ele>1152.0</ele><time>2026-05-03T10:22:13.114Z</time></trkpt><trkpt lat="45.1720567" lon="7.3768067"><ele>1152.0</ele><time>2026-05-03T10:22:14.111Z</time></trkpt><trkpt lat="45.1719983" lon="7.3766733"><ele>1152.0</ele><time>2026-05-03T10:22:15.119Z</time></trkpt><trkpt lat="45.1719417" lon="7.3765267"><ele>1152.0</ele><time>2026-05-03T10:22:16.115Z</time></trkpt><trkpt lat="45.1718833" lon="7.3763733"><ele>1153.75</ele><time>2026-05-03T10:22:17.109Z</time></trkpt><trkpt lat="45.171825" lon="7.3762133"><ele>1155.5</ele><time>2026-05-03T10:22:18.113Z</time></trkpt><trkpt lat="45.17176" lon="7.376055"><ele>1157.25</ele><time>2026-05-03T10:22:19.108Z</time></trkpt><trkpt lat="45.1717067" lon="7.375915"><ele>1159.0</ele><time>2026-05-03T10:22:20.111Z</time></trkpt><trkpt lat="45.1716517" lon="7.3757917"><ele>1159.0</ele><time>2026-05-03T10:22:21.113Z</time></trkpt><trkpt lat="45.171585" lon="7.3756917"><ele>1159.0</ele><time>2026-05-03T10:22:22.112Z</time></trkpt><trkpt lat="45.1715183" lon="7.3756133"><ele>1159.0</ele><time>2026-05-03T10:22:23.112Z</time></trkpt><trkpt lat="45.1714467" lon="7.3755683"><ele>1159.0</ele><time>2026-05-03T10:22:24.11Z</time></trkpt><trkpt lat="45.1713733" lon="7.3755417"><ele>1159.0</ele><time>2026-05-03T10:22:25.112Z</time></trkpt><trkpt lat="45.17128" lon="7.375525"><ele>1159.0</ele><time>2026-05-03T10:22:26.111Z</time></trkpt><trkpt lat="45.1711433" lon="7.3755233"><ele>1152.0</ele><time>2026-05-03T10:22:27.112Z</time></trkpt><trkpt lat="45.170965" lon="7.3755433"><ele>1145.0</ele><time>2026-05-03T10:22:28.111Z</time></trkpt><trkpt lat="45.170795" lon="7.375555"><ele>1138.0</ele><time>2026-05-03T10:22:29.112Z</time></trkpt><trkpt lat="45.17063" lon="7.3755717"><ele>1141.6666666666665</ele><time>2026-05-03T10:22:30.117Z</time></trkpt><trkpt lat="45.1704717" lon="7.375555"><ele>1145.3333333333333</ele><time>2026-05-03T10:22:31.117Z</time></trkpt><trkpt lat="45.1703083" lon="7.37553"><ele>1149.0</ele><time>2026-05-03T10:22:32.117Z</time></trkpt><trkpt lat="45.1701467" lon="7.375495"><ele>1149.0</ele><time>2026-05-03T10:22:33.11Z</time></trkpt><trkpt lat="45.1699933" lon="7.3754633"><ele>1149.0</ele><time>2026-05-03T10:22:34.114Z</time></trkpt><trkpt lat="45.1698617" lon="7.3754233"><ele>1149.0</ele><time>2026-05-03T10:22:35.113Z</time></trkpt><trkpt lat="45.169745" lon="7.375385"><ele>1149.0</ele><time>2026-05-03T10:22:36.11Z</time></trkpt><trkpt lat="45.1696467" lon="7.37533"><ele>1143.25</ele><time>2026-05-03T10:22:37.11Z</time></trkpt><trkpt lat="45.1695583" lon="7.3752417"><ele>1137.5</ele><time>2026-05-03T10:22:38.117Z</time></trkpt><trkpt lat="45.1694683" lon="7.3751333"><ele>1131.75</ele><time>2026-05-03T10:22:39.114Z</time></trkpt><trkpt lat="45.1693983" lon="7.3750033"><ele>1126.0</ele><time>2026-05-03T10:22:40.11Z</time></trkpt><trkpt lat="45.1693133" lon="7.37489"><ele>1126.0</ele><time>2026-05-03T10:22:41.114Z</time></trkpt><trkpt lat="45.169215" lon="7.37479"><ele>1126.0</ele><time>2026-05-03T10:22:42.114Z</time></trkpt><trkpt lat="45.1691033" lon="7.3747233"><ele>1126.0</ele><time>2026-05-03T10:22:43.113Z</time></trkpt><trkpt lat="45.1689833" lon="7.3746617"><ele>1126.0</ele><time>2026-05-03T10:22:44.113Z</time></trkpt><trkpt lat="45.1688533" lon="7.3746183"><ele>1122.75</ele><time>2026-05-03T10:22:45.114Z</time></trkpt><trkpt lat="45.168725" lon="7.3745733"><ele>1119.5</ele><time>2026-05-03T10:22:46.112Z</time></trkpt><trkpt lat="45.168605" lon="7.374525"><ele>1116.25</ele><time>2026-05-03T10:22:47.112Z</time></trkpt><trkpt lat="45.1684933" lon="7.3744867"><ele>1113.0</ele><time>2026-05-03T10:22:48.117Z</time></trkpt><trkpt lat="45.1683983" lon="7.37443"><ele>1113.0</ele><time>2026-05-03T10:22:49.111Z</time></trkpt><trkpt lat="45.1683117" lon="7.3743683"><ele>1113.0</ele><time>2026-05-03T10:22:50.111Z</time></trkpt><trkpt lat="45.1682333" lon="7.3742883"><ele>1113.0</ele><time>2026-05-03T10:22:51.115Z</time></trkpt><trkpt lat="45.1681983" lon="7.3741733"><ele>1113.0</ele><time>2026-05-03T10:22:52.115Z</time></trkpt><trkpt lat="45.1681833" lon="7.3740367"><ele>1113.0</ele><time>2026-05-03T10:22:53.115Z</time></trkpt><trkpt lat="45.1681817" lon="7.3738817"><ele>1106.0</ele><time>2026-05-03T10:22:54.113Z</time></trkpt><trkpt lat="45.1681767" lon="7.373715"><ele>1099.0</ele><time>2026-05-03T10:22:55.116Z</time></trkpt><trkpt lat="45.1681683" lon="7.37355"><ele>1092.0</ele><time>2026-05-03T10:22:56.112Z</time></trkpt><trkpt lat="45.1681483" lon="7.3733933"><ele>1085.0</ele><time>2026-05-03T10:22:57.116Z</time></trkpt><trkpt lat="45.1681117" lon="7.3732467"><ele>1085.0</ele><time>2026-05-03T10:22:58.111Z</time></trkpt><trkpt lat="45.168055" lon="7.3731167"><ele>1085.0</ele><time>2026-05-03T10:22:59.111Z</time></trkpt><trkpt lat="45.1679933" lon="7.3730033"><ele>1085.0</ele><time>2026-05-03T10:23:00.111Z</time></trkpt><trkpt lat="45.1679267" lon="7.37291"><ele>1085.0</ele><time>2026-05-03T10:23:01.112Z</time></trkpt><trkpt lat="45.16787" lon="7.3728333"><ele>1085.0</ele><time>2026-05-03T10:23:02.112Z</time></trkpt><trkpt lat="45.1678333" lon="7.3727517"><ele>1085.0</ele><time>2026-05-03T10:23:03.112Z</time></trkpt><trkpt lat="45.1678167" lon="7.372665"><ele>1085.8333333333335</ele><time>2026-05-03T10:23:04.108Z</time></trkpt><trkpt lat="45.167845" lon="7.3725267"><ele>1086.6666666666667</ele><time>2026-05-03T10:23:06.109Z</time></trkpt><trkpt lat="45.1678967" lon="7.37246"><ele>1087.5</ele><time>2026-05-03T10:23:07.109Z</time></trkpt><trkpt lat="45.16796" lon="7.3723967"><ele>1088.3333333333333</ele><time>2026-05-03T10:23:08.111Z</time></trkpt><trkpt lat="45.1680217" lon="7.3722983"><ele>1089.1666666666665</ele><time>2026-05-03T10:23:09.112Z</time></trkpt><trkpt lat="45.16807" lon="7.3721683"><ele>1090.0</ele><time>2026-05-03T10:23:10.108Z</time></trkpt><trkpt lat="45.1681233" lon="7.3720517"><ele>1091.1666666666665</ele><time>2026-05-03T10:23:11.109Z</time></trkpt><trkpt lat="45.16818" lon="7.3719467"><ele>1092.3333333333333</ele><time>2026-05-03T10:23:12.111Z</time></trkpt><trkpt lat="45.16822" lon="7.3718483"><ele>1093.5</ele><time>2026-05-03T10:23:13.11Z</time></trkpt><trkpt lat="45.16827" lon="7.3717683"><ele>1094.6666666666667</ele><time>2026-05-03T10:23:14.108Z</time></trkpt><trkpt lat="45.168325" lon="7.3716967"><ele>1095.8333333333335</ele><time>2026-05-03T10:23:15.118Z</time></trkpt><trkpt lat="45.168415" lon="7.3716733"><ele>1097.0</ele><time>2026-05-03T10:23:16.114Z</time></trkpt><trkpt lat="45.1685567" lon="7.371745"><ele>1097.0</ele><time>2026-05-03T10:23:17.115Z</time></trkpt><trkpt lat="45.1686883" lon="7.3717367"><ele>1097.0</ele><time>2026-05-03T10:23:18.113Z</time></trkpt><trkpt lat="45.1687917" lon="7.3716917"><ele>1097.0</ele><time>2026-05-03T10:23:19.11Z</time></trkpt><trkpt lat="45.1688833" lon="7.3716383"><ele>1097.0</ele><time>2026-05-03T10:23:20.114Z</time></trkpt><trkpt lat="45.16897" lon="7.3715567"><ele>1097.0</ele><time>2026-05-03T10:23:21.114Z</time></trkpt><trkpt lat="45.16904" lon="7.371435"><ele>1094.0</ele><time>2026-05-03T10:23:22.111Z</time></trkpt><trkpt lat="45.1690983" lon="7.3712817"><ele>1091.0</ele><time>2026-05-03T10:23:23.114Z</time></trkpt><trkpt lat="45.1691433" lon="7.3710817"><ele>1088.0</ele><time>2026-05-03T10:23:24.111Z</time></trkpt><trkpt lat="45.1692167" lon="7.3709267"><ele>1085.0</ele><time>2026-05-03T10:23:25.11Z</time></trkpt><trkpt lat="45.1693067" lon="7.37076"><ele>1085.0</ele><time>2026-05-03T10:23:26.113Z</time></trkpt><trkpt lat="45.1694117" lon="7.37059"><ele>1085.0</ele><time>2026-05-03T10:23:27.113Z</time></trkpt><trkpt lat="45.1695233" lon="7.3704167"><ele>1085.0</ele><time>2026-05-03T10:23:28.111Z</time></trkpt><trkpt lat="45.1696333" lon="7.3702317"><ele>1089.0</ele><time>2026-05-03T10:23:29.11Z</time></trkpt><trkpt lat="45.1697533" lon="7.3700367"><ele>1093.0</ele><time>2026-05-03T10:23:30.113Z</time></trkpt><trkpt lat="45.1698633" lon="7.3698483"><ele>1097.0</ele><time>2026-05-03T10:23:31.115Z</time></trkpt><trkpt lat="45.1699667" lon="7.3696717"><ele>1089.0</ele><time>2026-05-03T10:23:32.112Z</time></trkpt><trkpt lat="45.1700767" lon="7.369535"><ele>1081.0</ele><time>2026-05-03T10:23:33.117Z</time></trkpt><trkpt lat="45.1701783" lon="7.3694033"><ele>1073.0</ele><time>2026-05-03T10:23:34.114Z</time></trkpt><trkpt lat="45.1702717" lon="7.3693"><ele>1065.0</ele><time>2026-05-03T10:23:35.116Z</time></trkpt><trkpt lat="45.1703483" lon="7.3691917"><ele>1065.0</ele><time>2026-05-03T10:23:36.116Z</time></trkpt><trkpt lat="45.1704117" lon="7.3691"><ele>1065.0</ele><time>2026-05-03T10:23:37.111Z</time></trkpt><trkpt lat="45.1704633" lon="7.368995"><ele>1065.0</ele><time>2026-05-03T10:23:38.113Z</time></trkpt><trkpt lat="45.1704967" lon="7.3688983"><ele>1065.0</ele><time>2026-05-03T10:23:39.111Z</time></trkpt><trkpt lat="45.1705" lon="7.3687733"><ele>1065.0</ele><time>2026-05-03T10:23:40.111Z</time></trkpt><trkpt lat="45.17046" lon="7.368665"><ele>1065.0</ele><time>2026-05-03T10:23:41.113Z</time></trkpt><trkpt lat="45.170395" lon="7.36852"><ele>1060.8</ele><time>2026-05-03T10:23:42.113Z</time></trkpt><trkpt lat="45.1703583" lon="7.3683867"><ele>1056.6</ele><time>2026-05-03T10:23:43.114Z</time></trkpt><trkpt lat="45.1703667" lon="7.3682667"><ele>1052.4</ele><time>2026-05-03T10:23:44.114Z</time></trkpt><trkpt lat="45.1704017" lon="7.36814"><ele>1048.2</ele><time>2026-05-03T10:23:45.111Z</time></trkpt><trkpt lat="45.1704583" lon="7.3680167"><ele>1044.0</ele><time>2026-05-03T10:23:46.113Z</time></trkpt><trkpt lat="45.1705333" lon="7.3678883"><ele>1041.8</ele><time>2026-05-03T10:23:47.112Z</time></trkpt><trkpt lat="45.1706183" lon="7.3677583"><ele>1039.6000000000001</ele><time>2026-05-03T10:23:48.109Z</time></trkpt><trkpt lat="45.1707017" lon="7.3676317"><ele>1037.4</ele><time>2026-05-03T10:23:49.114Z</time></trkpt><trkpt lat="45.170775" lon="7.3675283"><ele>1035.2</ele><time>2026-05-03T10:23:50.114Z</time></trkpt><trkpt lat="45.1708167" lon="7.3674317"><ele>1033.0</ele><time>2026-05-03T10:23:51.112Z</time></trkpt><trkpt lat="45.1708217" lon="7.36728"><ele>1035.2</ele><time>2026-05-03T10:23:53.112Z</time></trkpt><trkpt lat="45.1707717" lon="7.3672033"><ele>1037.4</ele><time>2026-05-03T10:23:54.115Z</time></trkpt><trkpt lat="45.17071" lon="7.367125"><ele>1039.6000000000001</ele><time>2026-05-03T10:23:55.112Z</time></trkpt><trkpt lat="45.1706283" lon="7.3670283"><ele>1041.8</ele><time>2026-05-03T10:23:56.112Z</time></trkpt><trkpt lat="45.17051" lon="7.3669167"><ele>1044.0</ele><time>2026-05-03T10:23:57.115Z</time></trkpt><trkpt lat="45.1704" lon="7.3667983"><ele>1044.0</ele><time>2026-05-03T10:23:58.115Z</time></trkpt><trkpt lat="45.1703" lon="7.3666817"><ele>1044.0</ele><time>2026-05-03T10:23:59.111Z</time></trkpt><trkpt lat="45.1701967" lon="7.3665767"><ele>1044.0</ele><time>2026-05-03T10:24:00.112Z</time></trkpt><trkpt lat="45.1700917" lon="7.3664917"><ele>1044.0</ele><time>2026-05-03T10:24:01.116Z</time></trkpt><trkpt lat="45.16999" lon="7.366425"><ele>1042.4</ele><time>2026-05-03T10:24:02.116Z</time></trkpt><trkpt lat="45.169905" lon="7.3663567"><ele>1040.8000000000002</ele><time>2026-05-03T10:24:03.112Z</time></trkpt><trkpt lat="45.1698317" lon="7.3662617"><ele>1039.1999999999998</ele><time>2026-05-03T10:24:04.112Z</time></trkpt><trkpt lat="45.1697833" lon="7.3661367"><ele>1037.6</ele><time>2026-05-03T10:24:05.115Z</time></trkpt><trkpt lat="45.1697317" lon="7.36601"><ele>1036.0</ele><time>2026-05-03T10:24:06.112Z</time></trkpt><trkpt lat="45.1696817" lon="7.3659067"><ele>1036.0</ele><time>2026-05-03T10:24:07.113Z</time></trkpt><trkpt lat="45.1695517" lon="7.3657567"><ele>1036.0</ele><time>2026-05-03T10:24:09.112Z</time></trkpt><trkpt lat="45.16946" lon="7.3657367"><ele>1036.0</ele><time>2026-05-03T10:24:10.114Z</time></trkpt><trkpt lat="45.16936" lon="7.3657483"><ele>1036.0</ele><time>2026-05-03T10:24:11.112Z</time></trkpt><trkpt lat="45.1692633" lon="7.3657783"><ele>1036.0</ele><time>2026-05-03T10:24:12.112Z</time></trkpt><trkpt lat="45.169175" lon="7.3657667"><ele>1036.0</ele><time>2026-05-03T10:24:13.114Z</time></trkpt><trkpt lat="45.1690833" lon="7.3657267"><ele>1036.0</ele><time>2026-05-03T10:24:14.109Z</time></trkpt><trkpt lat="45.1689983" lon="7.3656517"><ele>1036.0</ele><time>2026-05-03T10:24:15.113Z</time></trkpt><trkpt lat="45.168925" lon="7.3655583"><ele>1036.0</ele><time>2026-05-03T10:24:16.115Z</time></trkpt><trkpt lat="45.1688617" lon="7.36546"><ele>1036.3999999999999</ele><time>2026-05-03T10:24:17.113Z</time></trkpt><trkpt lat="45.1688017" lon="7.36539"><ele>1036.8</ele><time>2026-05-03T10:24:18.116Z</time></trkpt><trkpt lat="45.1687433" lon="7.365345"><ele>1037.1999999999998</ele><time>2026-05-03T10:24:19.116Z</time></trkpt><trkpt lat="45.1686467" lon="7.3654"><ele>1037.6</ele><time>2026-05-03T10:24:21.113Z</time></trkpt><trkpt lat="45.1686683" lon="7.3655817"><ele>1038.0</ele><time>2026-05-03T10:24:22.112Z</time></trkpt><trkpt lat="45.1686617" lon="7.3657267"><ele>1038.0</ele><time>2026-05-03T10:24:23.113Z</time></trkpt><trkpt lat="45.168675" lon="7.3658733"><ele>1038.0</ele><time>2026-05-03T10:24:24.118Z</time></trkpt><trkpt lat="45.1687183" lon="7.3660617"><ele>1038.0</ele><time>2026-05-03T10:24:25.111Z</time></trkpt><trkpt lat="45.16879" lon="7.3662583"><ele>1038.0</ele><time>2026-05-03T10:24:26.112Z</time></trkpt><trkpt lat="45.1688617" lon="7.3664417"><ele>1034.0</ele><time>2026-05-03T10:24:27.151Z</time></trkpt><trkpt lat="45.168935" lon="7.366615"><ele>1030.0</ele><time>2026-05-03T10:24:28.114Z</time></trkpt><trkpt lat="45.169015" lon="7.36678"><ele>1026.0</ele><time>2026-05-03T10:24:29.112Z</time></trkpt><trkpt lat="45.1690917" lon="7.3669217"><ele>1022.0</ele><time>2026-05-03T10:24:30.113Z</time></trkpt><trkpt lat="45.1691617" lon="7.36704"><ele>1022.0000000000001</ele><time>2026-05-03T10:24:31.119Z</time></trkpt><trkpt lat="45.1692083" lon="7.36715"><ele>1022.0</ele><time>2026-05-03T10:24:32.11Z</time></trkpt><trkpt lat="45.1692383" lon="7.367255"><ele>1022.0</ele><time>2026-05-03T10:24:33.112Z</time></trkpt><trkpt lat="45.169245" lon="7.3673617"><ele>1022.0</ele><time>2026-05-03T10:24:34.11Z</time></trkpt><trkpt lat="45.1692333" lon="7.36746"><ele>1022.0000000000001</ele><time>2026-05-03T10:24:35.112Z</time></trkpt><trkpt lat="45.1692167" lon="7.36757"><ele>1022.0</ele><time>2026-05-03T10:24:36.113Z</time></trkpt><trkpt lat="45.1692167" lon="7.36767"><ele>1020.5000000000001</ele><time>2026-05-03T10:24:37.113Z</time></trkpt><trkpt lat="45.1692233" lon="7.367765"><ele>1019.0</ele><time>2026-05-03T10:24:38.114Z</time></trkpt><trkpt lat="45.169235" lon="7.367855"><ele>1017.5</ele><time>2026-05-03T10:24:39.11Z</time></trkpt><trkpt lat="45.16929" lon="7.3679717"><ele>1016.0</ele><time>2026-05-03T10:24:41.115Z</time></trkpt><trkpt lat="45.1693617" lon="7.3680683"><ele>1014.5000000000001</ele><time>2026-05-03T10:24:43.113Z</time></trkpt><trkpt lat="45.1693583" lon="7.36819"><ele>1013.0</ele><time>2026-05-03T10:24:45.114Z</time></trkpt><trkpt lat="45.169295" lon="7.3681817"><ele>1012.8</ele><time>2026-05-03T10:24:46.115Z</time></trkpt><trkpt lat="45.169195" lon="7.3681867"><ele>1012.5999999999999</ele><time>2026-05-03T10:24:48.109Z</time></trkpt><trkpt lat="45.1691017" lon="7.3682683"><ele>1012.4000000000001</ele><time>2026-05-03T10:24:50.116Z</time></trkpt><trkpt lat="45.1690617" lon="7.3684383"><ele>1012.2</ele><time>2026-05-03T10:24:52.11Z</time></trkpt><trkpt lat="45.1690533" lon="7.3685367"><ele>1012.0</ele><time>2026-05-03T10:24:53.113Z</time></trkpt><trkpt lat="45.1689983" lon="7.3686583"><ele>1006.5</ele><time>2026-05-03T10:24:55.113Z</time></trkpt><trkpt lat="45.168895" lon="7.36865"><ele>1001.0</ele><time>2026-05-03T10:24:57.115Z</time></trkpt><trkpt lat="45.1687833" lon="7.3685583"><ele>995.5</ele><time>2026-05-03T10:24:59.112Z</time></trkpt><trkpt lat="45.1686983" lon="7.3684317"><ele>990.0</ele><time>2026-05-03T10:25:00.11Z</time></trkpt><trkpt lat="45.1686083" lon="7.3683217"><ele>990.0</ele><time>2026-05-03T10:25:01.117Z</time></trkpt><trkpt lat="45.16852" lon="7.3682083"><ele>990.0</ele><time>2026-05-03T10:25:02.114Z</time></trkpt><trkpt lat="45.1684283" lon="7.3680933"><ele>990.0</ele><time>2026-05-03T10:25:03.115Z</time></trkpt><trkpt lat="45.16834" lon="7.3680067"><ele>990.0</ele><time>2026-05-03T10:25:04.117Z</time></trkpt><trkpt lat="45.16825" lon="7.3679233"><ele>997.25</ele><time>2026-05-03T10:25:05.113Z</time></trkpt><trkpt lat="45.1681467" lon="7.367875"><ele>1004.5</ele><time>2026-05-03T10:25:06.112Z</time></trkpt><trkpt lat="45.1680317" lon="7.36786"><ele>1011.75</ele><time>2026-05-03T10:25:07.114Z</time></trkpt><trkpt lat="45.167905" lon="7.3678783"><ele>1019.0</ele><time>2026-05-03T10:25:08.117Z</time></trkpt><trkpt lat="45.1677733" lon="7.3679167"><ele>1019.0</ele><time>2026-05-03T10:25:09.112Z</time></trkpt><trkpt lat="45.167645" lon="7.36799"><ele>1019.0</ele><time>2026-05-03T10:25:10.112Z</time></trkpt><trkpt lat="45.167515" lon="7.36808"><ele>1019.0</ele><time>2026-05-03T10:25:11.114Z</time></trkpt><trkpt lat="45.1673783" lon="7.3681883"><ele>1019.0</ele><time>2026-05-03T10:25:12.117Z</time></trkpt><trkpt lat="45.1672483" lon="7.3682767"><ele>1011.0</ele><time>2026-05-03T10:25:13.116Z</time></trkpt><trkpt lat="45.1671117" lon="7.3683567"><ele>1003.0</ele><time>2026-05-03T10:25:14.113Z</time></trkpt><trkpt lat="45.1669817" lon="7.3684183"><ele>995.0</ele><time>2026-05-03T10:25:15.115Z</time></trkpt><trkpt lat="45.166865" lon="7.36848"><ele>987.0</ele><time>2026-05-03T10:25:16.117Z</time></trkpt><trkpt lat="45.1667533" lon="7.368555"><ele>987.0</ele><time>2026-05-03T10:25:17.12Z</time></trkpt><trkpt lat="45.166645" lon="7.3686083"><ele>987.0</ele><time>2026-05-03T10:25:18.117Z</time></trkpt><trkpt lat="45.16654" lon="7.3686283"><ele>987.0</ele><time>2026-05-03T10:25:19.116Z</time></trkpt><trkpt lat="45.1664267" lon="7.3686383"><ele>987.0</ele><time>2026-05-03T10:25:20.12Z</time></trkpt><trkpt lat="45.1663133" lon="7.3686583"><ele>987.0</ele><time>2026-05-03T10:25:21.11Z</time></trkpt><trkpt lat="45.1661933" lon="7.36871"><ele>990.75</ele><time>2026-05-03T10:25:22.118Z</time></trkpt><trkpt lat="45.1660767" lon="7.3687567"><ele>994.5</ele><time>2026-05-03T10:25:23.11Z</time></trkpt><trkpt lat="45.1659633" lon="7.368815"><ele>998.25</ele><time>2026-05-03T10:25:24.116Z</time></trkpt><trkpt lat="45.1658483" lon="7.3688817"><ele>1002.0</ele><time>2026-05-03T10:25:25.117Z</time></trkpt><trkpt lat="45.1657317" lon="7.36892"><ele>993.25</ele><time>2026-05-03T10:25:26.116Z</time></trkpt><trkpt lat="45.1656017" lon="7.3689533"><ele>984.5</ele><time>2026-05-03T10:25:27.12Z</time></trkpt><trkpt lat="45.1654683" lon="7.3690033"><ele>975.75</ele><time>2026-05-03T10:25:28.116Z</time></trkpt><trkpt lat="45.1653383" lon="7.3690733"><ele>967.0</ele><time>2026-05-03T10:25:29.115Z</time></trkpt><trkpt lat="45.1652117" lon="7.3691333"><ele>967.0</ele><time>2026-05-03T10:25:30.115Z</time></trkpt><trkpt lat="45.165085" lon="7.36918"><ele>967.0</ele><time>2026-05-03T10:25:31.119Z</time></trkpt><trkpt lat="45.1649633" lon="7.3692117"><ele>967.0</ele><time>2026-05-03T10:25:32.115Z</time></trkpt><trkpt lat="45.1648483" lon="7.36927"><ele>967.0</ele><time>2026-05-03T10:25:33.113Z</time></trkpt><trkpt lat="45.164735" lon="7.369325"><ele>971.75</ele><time>2026-05-03T10:25:34.115Z</time></trkpt><trkpt lat="45.1646167" lon="7.3693583"><ele>976.5</ele><time>2026-05-03T10:25:35.114Z</time></trkpt><trkpt lat="45.1645017" lon="7.369385"><ele>981.25</ele><time>2026-05-03T10:25:36.116Z</time></trkpt><trkpt lat="45.16439" lon="7.3694267"><ele>986.0</ele><time>2026-05-03T10:25:37.112Z</time></trkpt><trkpt lat="45.16428" lon="7.36947"><ele>986.0</ele><time>2026-05-03T10:25:38.118Z</time></trkpt><trkpt lat="45.1641783" lon="7.3694967"><ele>985.9999999999999</ele><time>2026-05-03T10:25:39.118Z</time></trkpt><trkpt lat="45.1640883" lon="7.36953"><ele>985.9999999999999</ele><time>2026-05-03T10:25:40.114Z</time></trkpt><trkpt lat="45.1640067" lon="7.3695833"><ele>986.0</ele><time>2026-05-03T10:25:41.114Z</time></trkpt><trkpt lat="45.1639433" lon="7.3696467"><ele>986.0</ele><time>2026-05-03T10:25:42.113Z</time></trkpt><trkpt lat="45.1638667" lon="7.3697433"><ele>977.4</ele><time>2026-05-03T10:25:43.112Z</time></trkpt><trkpt lat="45.1637967" lon="7.369805"><ele>968.8</ele><time>2026-05-03T10:25:44.113Z</time></trkpt><trkpt lat="45.1637117" lon="7.3698617"><ele>960.1999999999999</ele><time>2026-05-03T10:25:45.114Z</time></trkpt><trkpt lat="45.16361" lon="7.3699083"><ele>951.5999999999999</ele><time>2026-05-03T10:25:46.111Z</time></trkpt><trkpt lat="45.163505" lon="7.3699483"><ele>943.0</ele><time>2026-05-03T10:25:47.113Z</time></trkpt><trkpt lat="45.163405" lon="7.3699733"><ele>942.9999999999999</ele><time>2026-05-03T10:25:48.115Z</time></trkpt><trkpt lat="45.16331" lon="7.36998"><ele>943.0</ele><time>2026-05-03T10:25:49.116Z</time></trkpt><trkpt lat="45.1632267" lon="7.3699533"><ele>943.0</ele><time>2026-05-03T10:25:50.115Z</time></trkpt><trkpt lat="45.1631533" lon="7.369905"><ele>943.0</ele><time>2026-05-03T10:25:51.117Z</time></trkpt><trkpt lat="45.16309" lon="7.369845"><ele>942.9999999999999</ele><time>2026-05-03T10:25:52.114Z</time></trkpt><trkpt lat="45.1630283" lon="7.3697867"><ele>943.0</ele><time>2026-05-03T10:25:53.114Z</time></trkpt><trkpt lat="45.16296" lon="7.3697517"><ele>941.9999999999999</ele><time>2026-05-03T10:25:54.113Z</time></trkpt><trkpt lat="45.1628867" lon="7.3697833"><ele>941.0</ele><time>2026-05-03T10:25:55.114Z</time></trkpt><trkpt lat="45.16282" lon="7.3698383"><ele>940.0</ele><time>2026-05-03T10:25:56.112Z</time></trkpt><trkpt lat="45.1627517" lon="7.369915"><ele>939.0</ele><time>2026-05-03T10:25:57.111Z</time></trkpt><trkpt lat="45.1626867" lon="7.3699867"><ele>937.9999999999999</ele><time>2026-05-03T10:25:58.115Z</time></trkpt><trkpt lat="45.1626183" lon="7.37004"><ele>937.0</ele><time>2026-05-03T10:25:59.118Z</time></trkpt><trkpt lat="45.16254" lon="7.3700767"><ele>937.0</ele><time>2026-05-03T10:26:00.113Z</time></trkpt><trkpt lat="45.1624533" lon="7.3700883"><ele>937.0</ele><time>2026-05-03T10:26:01.116Z</time></trkpt><trkpt lat="45.1623483" lon="7.3700833"><ele>937.0</ele><time>2026-05-03T10:26:02.117Z</time></trkpt><trkpt lat="45.162235" lon="7.3700367"><ele>937.0</ele><time>2026-05-03T10:26:03.114Z</time></trkpt><trkpt lat="45.1621333" lon="7.3699967"><ele>937.0</ele><time>2026-05-03T10:26:04.115Z</time></trkpt><trkpt lat="45.1620283" lon="7.369955"><ele>934.6</ele><time>2026-05-03T10:26:05.114Z</time></trkpt><trkpt lat="45.1619267" lon="7.3698983"><ele>932.2</ele><time>2026-05-03T10:26:06.121Z</time></trkpt><trkpt lat="45.16182" lon="7.3698667"><ele>929.8</ele><time>2026-05-03T10:26:07.118Z</time></trkpt><trkpt lat="45.1617167" lon="7.36984"><ele>927.4</ele><time>2026-05-03T10:26:08.115Z</time></trkpt><trkpt lat="45.1616233" lon="7.3698033"><ele>925.0</ele><time>2026-05-03T10:26:09.114Z</time></trkpt><trkpt lat="45.1615367" lon="7.36974"><ele>927.9999999999999</ele><time>2026-05-03T10:26:10.114Z</time></trkpt><trkpt lat="45.1614667" lon="7.3696567"><ele>931.0</ele><time>2026-05-03T10:26:11.114Z</time></trkpt><trkpt lat="45.1613983" lon="7.3695667"><ele>934.0</ele><time>2026-05-03T10:26:12.119Z</time></trkpt><trkpt lat="45.161325" lon="7.3694967"><ele>937.0</ele><time>2026-05-03T10:26:13.112Z</time></trkpt><trkpt lat="45.1612517" lon="7.3694433"><ele>939.9999999999999</ele><time>2026-05-03T10:26:14.114Z</time></trkpt><trkpt lat="45.1611733" lon="7.3694767"><ele>943.0</ele><time>2026-05-03T10:26:15.113Z</time></trkpt><trkpt lat="45.1611083" lon="7.369525"><ele>942.9999999999999</ele><time>2026-05-03T10:26:16.117Z</time></trkpt><trkpt lat="45.1610483" lon="7.3695967"><ele>943.0</ele><time>2026-05-03T10:26:17.113Z</time></trkpt><trkpt lat="45.1609883" lon="7.369675"><ele>943.0</ele><time>2026-05-03T10:26:18.115Z</time></trkpt><trkpt lat="45.1609183" lon="7.369755"><ele>943.0</ele><time>2026-05-03T10:26:19.113Z</time></trkpt><trkpt lat="45.1608517" lon="7.3697933"><ele>942.9999999999999</ele><time>2026-05-03T10:26:20.114Z</time></trkpt><trkpt lat="45.160775" lon="7.3698283"><ele>943.0</ele><time>2026-05-03T10:26:21.115Z</time></trkpt><trkpt lat="45.160695" lon="7.36981"><ele>936.9999999999999</ele><time>2026-05-03T10:26:22.113Z</time></trkpt><trkpt lat="45.1606133" lon="7.3697867"><ele>931.0</ele><time>2026-05-03T10:26:23.114Z</time></trkpt><trkpt lat="45.1605283" lon="7.3697633"><ele>925.0</ele><time>2026-05-03T10:26:24.115Z</time></trkpt><trkpt lat="45.1604367" lon="7.3697667"><ele>919.0</ele><time>2026-05-03T10:26:25.117Z</time></trkpt><trkpt lat="45.1603467" lon="7.3698033"><ele>912.9999999999999</ele><time>2026-05-03T10:26:26.113Z</time></trkpt><trkpt lat="45.1602733" lon="7.36982"><ele>907.0</ele><time>2026-05-03T10:26:27.114Z</time></trkpt><trkpt lat="45.1602083" lon="7.3698083"><ele>907.0</ele><time>2026-05-03T10:26:28.113Z</time></trkpt><trkpt lat="45.1601483" lon="7.3697767"><ele>907.0</ele><time>2026-05-03T10:26:29.112Z</time></trkpt><trkpt lat="45.16006" lon="7.3696533"><ele>907.0</ele><time>2026-05-03T10:26:31.113Z</time></trkpt><trkpt lat="45.1600033" lon="7.3695767"><ele>907.0</ele><time>2026-05-03T10:26:32.113Z</time></trkpt><trkpt lat="45.1599217" lon="7.36952"><ele>907.0</ele><time>2026-05-03T10:26:33.115Z</time></trkpt><trkpt lat="45.1598217" lon="7.36948"><ele>913.2</ele><time>2026-05-03T10:26:34.114Z</time></trkpt><trkpt lat="45.15973" lon="7.369475"><ele>919.4000000000001</ele><time>2026-05-03T10:26:35.11Z</time></trkpt><trkpt lat="45.1596417" lon="7.3695133"><ele>925.5999999999999</ele><time>2026-05-03T10:26:36.112Z</time></trkpt><trkpt lat="45.1595633" lon="7.3695833"><ele>931.8</ele><time>2026-05-03T10:26:37.113Z</time></trkpt><trkpt lat="45.159485" lon="7.36968"><ele>938.0</ele><time>2026-05-03T10:26:38.115Z</time></trkpt><trkpt lat="45.1594333" lon="7.36977"><ele>938.0</ele><time>2026-05-03T10:26:39.118Z</time></trkpt><trkpt lat="45.1593967" lon="7.36987"><ele>938.0</ele><time>2026-05-03T10:26:40.115Z</time></trkpt><trkpt lat="45.15939" lon="7.3699883"><ele>938.0</ele><time>2026-05-03T10:26:41.114Z</time></trkpt><trkpt lat="45.1594133" lon="7.370125"><ele>938.0</ele><time>2026-05-03T10:26:42.116Z</time></trkpt><trkpt lat="45.1594417" lon="7.3703133"><ele>938.0</ele><time>2026-05-03T10:26:43.122Z</time></trkpt><trkpt lat="45.1594617" lon="7.3705283"><ele>937.25</ele><time>2026-05-03T10:26:44.113Z</time></trkpt><trkpt lat="45.1594817" lon="7.37074"><ele>936.5</ele><time>2026-05-03T10:26:45.117Z</time></trkpt><trkpt lat="45.1594917" lon="7.3709517"><ele>935.75</ele><time>2026-05-03T10:26:46.114Z</time></trkpt><trkpt lat="45.1594967" lon="7.37115"><ele>935.0</ele><time>2026-05-03T10:26:47.111Z</time></trkpt><trkpt lat="45.1594883" lon="7.3713133"><ele>931.0</ele><time>2026-05-03T10:26:48.113Z</time></trkpt><trkpt lat="45.159465" lon="7.3714617"><ele>927.0</ele><time>2026-05-03T10:26:49.114Z</time></trkpt><trkpt lat="45.159425" lon="7.3715983"><ele>923.0</ele><time>2026-05-03T10:26:50.114Z</time></trkpt><trkpt lat="45.1593567" lon="7.3717417"><ele>919.0</ele><time>2026-05-03T10:26:51.117Z</time></trkpt><trkpt lat="45.1592867" lon="7.3718867"><ele>919.0</ele><time>2026-05-03T10:26:52.115Z</time></trkpt><trkpt lat="45.1592283" lon="7.3720333"><ele>919.0</ele><time>2026-05-03T10:26:53.109Z</time></trkpt><trkpt lat="45.1591867" lon="7.3721967"><ele>919.0</ele><time>2026-05-03T10:26:54.113Z</time></trkpt><trkpt lat="45.15916" lon="7.3723733"><ele>919.0</ele><time>2026-05-03T10:26:55.111Z</time></trkpt><trkpt lat="45.1591567" lon="7.37255"><ele>915.0</ele><time>2026-05-03T10:26:56.114Z</time></trkpt><trkpt lat="45.1591667" lon="7.372735"><ele>911.0</ele><time>2026-05-03T10:26:57.116Z</time></trkpt><trkpt lat="45.1591917" lon="7.3729183"><ele>907.0</ele><time>2026-05-03T10:26:58.115Z</time></trkpt><trkpt lat="45.1592217" lon="7.3731033"><ele>903.0</ele><time>2026-05-03T10:26:59.112Z</time></trkpt><trkpt lat="45.159255" lon="7.3732833"><ele>901.8</ele><time>2026-05-03T10:27:00.109Z</time></trkpt><trkpt lat="45.15929" lon="7.3734467"><ele>900.5999999999999</ele><time>2026-05-03T10:27:01.114Z</time></trkpt><trkpt lat="45.15931" lon="7.3735867"><ele>899.4000000000001</ele><time>2026-05-03T10:27:02.11Z</time></trkpt><trkpt lat="45.159315" lon="7.3737117"><ele>898.2</ele><time>2026-05-03T10:27:03.111Z</time></trkpt><trkpt lat="45.1592683" lon="7.3738167"><ele>897.0</ele><time>2026-05-03T10:27:04.142Z</time></trkpt><trkpt lat="45.1591933" lon="7.3739033"><ele>898.8</ele><time>2026-05-03T10:27:05.112Z</time></trkpt><trkpt lat="45.1591017" lon="7.3739817"><ele>900.6</ele><time>2026-05-03T10:27:06.111Z</time></trkpt><trkpt lat="45.159015" lon="7.3740633"><ele>902.3999999999999</ele><time>2026-05-03T10:27:07.113Z</time></trkpt><trkpt lat="45.158945" lon="7.37415"><ele>904.1999999999999</ele><time>2026-05-03T10:27:08.112Z</time></trkpt><trkpt lat="45.158885" lon="7.3742667"><ele>906.0</ele><time>2026-05-03T10:27:09.115Z</time></trkpt><trkpt lat="45.1588617" lon="7.3744083"><ele>906.0</ele><time>2026-05-03T10:27:10.114Z</time></trkpt><trkpt lat="45.1588867" lon="7.37456"><ele>905.9999999999999</ele><time>2026-05-03T10:27:11.119Z</time></trkpt><trkpt lat="45.15892" lon="7.3747167"><ele>905.9999999999999</ele><time>2026-05-03T10:27:12.116Z</time></trkpt><trkpt lat="45.1589333" lon="7.3748467"><ele>906.0</ele><time>2026-05-03T10:27:13.114Z</time></trkpt><trkpt lat="45.15894" lon="7.3749983"><ele>906.0</ele><time>2026-05-03T10:27:14.114Z</time></trkpt><trkpt lat="45.1589517" lon="7.3751417"><ele>902.5</ele><time>2026-05-03T10:27:15.114Z</time></trkpt><trkpt lat="45.1589283" lon="7.37529"><ele>899.0</ele><time>2026-05-03T10:27:16.112Z</time></trkpt><trkpt lat="45.1588583" lon="7.375425"><ele>895.5</ele><time>2026-05-03T10:27:17.112Z</time></trkpt><trkpt lat="45.1587833" lon="7.3755667"><ele>892.0</ele><time>2026-05-03T10:27:18.113Z</time></trkpt><trkpt lat="45.1587183" lon="7.37571"><ele>888.5</ele><time>2026-05-03T10:27:19.112Z</time></trkpt><trkpt lat="45.158655" lon="7.3758517"><ele>885.0</ele><time>2026-05-03T10:27:20.11Z</time></trkpt><trkpt lat="45.15857" lon="7.3759733"><ele>881.5</ele><time>2026-05-03T10:27:21.114Z</time></trkpt><trkpt lat="45.15846" lon="7.3760667"><ele>878.0</ele><time>2026-05-03T10:27:22.111Z</time></trkpt><trkpt lat="45.158345" lon="7.37613"><ele>878.0</ele><time>2026-05-03T10:27:23.115Z</time></trkpt><trkpt lat="45.158225" lon="7.3762117"><ele>878.0</ele><time>2026-05-03T10:27:24.114Z</time></trkpt><trkpt lat="45.1581167" lon="7.376305"><ele>878.0</ele><time>2026-05-03T10:27:25.113Z</time></trkpt><trkpt lat="45.1580233" lon="7.37643"><ele>878.0</ele><time>2026-05-03T10:27:26.115Z</time></trkpt><trkpt lat="45.1579417" lon="7.3765667"><ele>874.75</ele><time>2026-05-03T10:27:27.121Z</time></trkpt><trkpt lat="45.1578567" lon="7.3767117"><ele>871.5</ele><time>2026-05-03T10:27:28.112Z</time></trkpt><trkpt lat="45.1577633" lon="7.3768267"><ele>868.25</ele><time>2026-05-03T10:27:29.11Z</time></trkpt><trkpt lat="45.157655" lon="7.3769133"><ele>865.0</ele><time>2026-05-03T10:27:30.113Z</time></trkpt><trkpt lat="45.1575333" lon="7.3769783"><ele>865.0</ele><time>2026-05-03T10:27:31.112Z</time></trkpt><trkpt lat="45.15741" lon="7.3770117"><ele>865.0</ele><time>2026-05-03T10:27:32.111Z</time></trkpt><trkpt lat="45.1572917" lon="7.37702"><ele>865.0</ele><time>2026-05-03T10:27:33.114Z</time></trkpt><trkpt lat="45.1571867" lon="7.3770183"><ele>865.0</ele><time>2026-05-03T10:27:34.113Z</time></trkpt><trkpt lat="45.1570833" lon="7.3770383"><ele>863.0</ele><time>2026-05-03T10:27:35.11Z</time></trkpt><trkpt lat="45.1569867" lon="7.37711"><ele>861.0</ele><time>2026-05-03T10:27:36.109Z</time></trkpt><trkpt lat="45.156905" lon="7.3772267"><ele>859.0</ele><time>2026-05-03T10:27:37.11Z</time></trkpt><trkpt lat="45.1568017" lon="7.3773383"><ele>857.0</ele><time>2026-05-03T10:27:38.118Z</time></trkpt><trkpt lat="45.1566867" lon="7.3774383"><ele>857.0</ele><time>2026-05-03T10:27:39.117Z</time></trkpt><trkpt lat="45.1565683" lon="7.377515"><ele>857.0</ele><time>2026-05-03T10:27:40.115Z</time></trkpt><trkpt lat="45.1564533" lon="7.3775917"><ele>857.0</ele><time>2026-05-03T10:27:41.116Z</time></trkpt><trkpt lat="45.1563483" lon="7.3777"><ele>857.0</ele><time>2026-05-03T10:27:42.114Z</time></trkpt><trkpt lat="45.156255" lon="7.37784"><ele>858.0</ele><time>2026-05-03T10:27:43.114Z</time></trkpt><trkpt lat="45.1561733" lon="7.3779917"><ele>859.0</ele><time>2026-05-03T10:27:44.114Z</time></trkpt><trkpt lat="45.1560933" lon="7.37813"><ele>860.0</ele><time>2026-05-03T10:27:45.113Z</time></trkpt><trkpt lat="45.1560033" lon="7.378255"><ele>861.0</ele><time>2026-05-03T10:27:46.111Z</time></trkpt><trkpt lat="45.1559067" lon="7.3783317"><ele>857.0</ele><time>2026-05-03T10:27:47.112Z</time></trkpt><trkpt lat="45.1558017" lon="7.3783817"><ele>852.9999999999999</ele><time>2026-05-03T10:27:48.111Z</time></trkpt><trkpt lat="45.1556883" lon="7.378395"><ele>849.0</ele><time>2026-05-03T10:27:49.112Z</time></trkpt><trkpt lat="45.1555717" lon="7.3783883"><ele>845.0</ele><time>2026-05-03T10:27:50.111Z</time></trkpt><trkpt lat="45.1554717" lon="7.3783517"><ele>841.0</ele><time>2026-05-03T10:27:51.116Z</time></trkpt><trkpt lat="45.1553983" lon="7.378275"><ele>840.4</ele><time>2026-05-03T10:27:52.115Z</time></trkpt><trkpt lat="45.15534" lon="7.3781617"><ele>839.8</ele><time>2026-05-03T10:27:53.118Z</time></trkpt><trkpt lat="45.1552817" lon="7.3780517"><ele>839.1999999999999</ele><time>2026-05-03T10:27:54.112Z</time></trkpt><trkpt lat="45.1552083" lon="7.377925"><ele>838.5999999999999</ele><time>2026-05-03T10:27:55.113Z</time></trkpt><trkpt lat="45.1551217" lon="7.3777983"><ele>838.0</ele><time>2026-05-03T10:27:56.11Z</time></trkpt><trkpt lat="45.1550233" lon="7.3776783"><ele>838.0</ele><time>2026-05-03T10:27:57.114Z</time></trkpt><trkpt lat="45.1549167" lon="7.3775683"><ele>838.0</ele><time>2026-05-03T10:27:58.116Z</time></trkpt><trkpt lat="45.154805" lon="7.3774717"><ele>838.0</ele><time>2026-05-03T10:27:59.111Z</time></trkpt><trkpt lat="45.1546783" lon="7.3773983"><ele>838.0</ele><time>2026-05-03T10:28:00.113Z</time></trkpt><trkpt lat="45.1545483" lon="7.3773367"><ele>835.75</ele><time>2026-05-03T10:28:01.109Z</time></trkpt><trkpt lat="45.15441" lon="7.3772883"><ele>833.5</ele><time>2026-05-03T10:28:02.111Z</time></trkpt><trkpt lat="45.154285" lon="7.3772417"><ele>831.25</ele><time>2026-05-03T10:28:03.116Z</time></trkpt><trkpt lat="45.1541733" lon="7.3772017"><ele>829.0</ele><time>2026-05-03T10:28:04.111Z</time></trkpt><trkpt lat="45.1540833" lon="7.37718"><ele>827.6666666666666</ele><time>2026-05-03T10:28:05.117Z</time></trkpt><trkpt lat="45.1539967" lon="7.3771817"><ele>826.3333333333333</ele><time>2026-05-03T10:28:06.111Z</time></trkpt><trkpt lat="45.1539267" lon="7.3771883"><ele>825.0</ele><time>2026-05-03T10:28:07.114Z</time></trkpt><trkpt lat="45.1538517" lon="7.3772783"><ele>823.6666666666667</ele><time>2026-05-03T10:28:09.118Z</time></trkpt><trkpt lat="45.15388" lon="7.37736"><ele>822.3333333333334</ele><time>2026-05-03T10:28:10.111Z</time></trkpt><trkpt lat="45.15395" lon="7.3774483"><ele>821.0</ele><time>2026-05-03T10:28:11.111Z</time></trkpt><trkpt lat="45.1540467" lon="7.3775333"><ele>821.0</ele><time>2026-05-03T10:28:12.111Z</time></trkpt><trkpt lat="45.1541783" lon="7.377645"><ele>821.0</ele><time>2026-05-03T10:28:13.114Z</time></trkpt><trkpt lat="45.1542783" lon="7.3777583"><ele>821.0</ele><time>2026-05-03T10:28:14.115Z</time></trkpt><trkpt lat="45.1543617" lon="7.37786"><ele>821.0</ele><time>2026-05-03T10:28:15.113Z</time></trkpt><trkpt lat="45.15444" lon="7.377935"><ele>821.0000000000001</ele><time>2026-05-03T10:28:16.113Z</time></trkpt><trkpt lat="45.1545117" lon="7.3779917"><ele>821.0</ele><time>2026-05-03T10:28:17.11Z</time></trkpt><trkpt lat="45.1545567" lon="7.3780667"><ele>821.0</ele><time>2026-05-03T10:28:18.111Z</time></trkpt><trkpt lat="45.15456" lon="7.3781567"><ele>821.0</ele><time>2026-05-03T10:28:20.116Z</time></trkpt><trkpt lat="45.15445" lon="7.3780883"><ele>821.0000000000001</ele><time>2026-05-03T10:28:22.113Z</time></trkpt><trkpt lat="45.15439" lon="7.37802"><ele>821.0</ele><time>2026-05-03T10:28:23.111Z</time></trkpt><trkpt lat="45.154325" lon="7.3779683"><ele>821.0000000000001</ele><time>2026-05-03T10:28:24.113Z</time></trkpt><trkpt lat="45.1542617" lon="7.3779283"><ele>821.0</ele><time>2026-05-03T10:28:25.116Z</time></trkpt><trkpt lat="45.154195" lon="7.3779217"><ele>821.0</ele><time>2026-05-03T10:28:26.112Z</time></trkpt><trkpt lat="45.1541217" lon="7.3779917"><ele>821.0</ele><time>2026-05-03T10:28:27.115Z</time></trkpt><trkpt lat="45.154045" lon="7.378035"><ele>821.0000000000001</ele><time>2026-05-03T10:28:28.113Z</time></trkpt><trkpt lat="45.15396" lon="7.3780717"><ele>821.0</ele><time>2026-05-03T10:28:29.112Z</time></trkpt><trkpt lat="45.153865" lon="7.37808"><ele>815.0</ele><time>2026-05-03T10:28:30.113Z</time></trkpt><trkpt lat="45.1537483" lon="7.378075"><ele>809.0</ele><time>2026-05-03T10:28:31.113Z</time></trkpt><trkpt lat="45.1536333" lon="7.3780733"><ele>803.0</ele><time>2026-05-03T10:28:32.113Z</time></trkpt><trkpt lat="45.1535217" lon="7.3780617"><ele>797.0</ele><time>2026-05-03T10:28:33.111Z</time></trkpt><trkpt lat="45.153415" lon="7.3780417"><ele>796.2</ele><time>2026-05-03T10:28:34.111Z</time></trkpt><trkpt lat="45.1533167" lon="7.3779983"><ele>795.4000000000001</ele><time>2026-05-03T10:28:35.112Z</time></trkpt><trkpt lat="45.1532267" lon="7.3779317"><ele>794.5999999999999</ele><time>2026-05-03T10:28:36.111Z</time></trkpt><trkpt lat="45.153145" lon="7.3778517"><ele>793.8</ele><time>2026-05-03T10:28:37.112Z</time></trkpt><trkpt lat="45.1530683" lon="7.3777617"><ele>793.0</ele><time>2026-05-03T10:28:38.112Z</time></trkpt><trkpt lat="45.153" lon="7.377655"><ele>793.0</ele><time>2026-05-03T10:28:39.112Z</time></trkpt><trkpt lat="45.1529367" lon="7.3775267"><ele>793.0</ele><time>2026-05-03T10:28:40.11Z</time></trkpt><trkpt lat="45.1528867" lon="7.3773917"><ele>793.0</ele><time>2026-05-03T10:28:41.117Z</time></trkpt><trkpt lat="45.1528467" lon="7.37725"><ele>793.0</ele><time>2026-05-03T10:28:42.112Z</time></trkpt><trkpt lat="45.15282" lon="7.3771083"><ele>793.0</ele><time>2026-05-03T10:28:43.112Z</time></trkpt><trkpt lat="45.1528033" lon="7.3769683"><ele>795.4</ele><time>2026-05-03T10:28:44.115Z</time></trkpt><trkpt lat="45.15279" lon="7.3768267"><ele>797.8</ele><time>2026-05-03T10:28:45.118Z</time></trkpt><trkpt lat="45.15276" lon="7.3766817"><ele>800.2</ele><time>2026-05-03T10:28:46.113Z</time></trkpt><trkpt lat="45.1527167" lon="7.376535"><ele>802.6</ele><time>2026-05-03T10:28:47.111Z</time></trkpt><trkpt lat="45.15269" lon="7.37639"><ele>805.0</ele><time>2026-05-03T10:28:48.11Z</time></trkpt><trkpt lat="45.1526717" lon="7.3762533"><ele>805.4999999999999</ele><time>2026-05-03T10:28:49.11Z</time></trkpt><trkpt lat="45.1526483" lon="7.3761367"><ele>806.0</ele><time>2026-05-03T10:28:50.11Z</time></trkpt><trkpt lat="45.1526183" lon="7.3760383"><ele>806.5</ele><time>2026-05-03T10:28:51.111Z</time></trkpt><trkpt lat="45.1525417" lon="7.3759133"><ele>807.0</ele><time>2026-05-03T10:28:53.113Z</time></trkpt><trkpt lat="45.1524783" lon="7.3758917"><ele>807.4999999999999</ele><time>2026-05-03T10:28:54.109Z</time></trkpt><trkpt lat="45.152425" lon="7.37602"><ele>808.0</ele><time>2026-05-03T10:28:55.114Z</time></trkpt><trkpt lat="45.1523817" lon="7.3761317"><ele>813.5999999999999</ele><time>2026-05-03T10:28:56.116Z</time></trkpt><trkpt lat="45.152345" lon="7.3762317"><ele>819.1999999999999</ele><time>2026-05-03T10:28:57.112Z</time></trkpt><trkpt lat="45.1523017" lon="7.3763483"><ele>824.8</ele><time>2026-05-03T10:28:58.114Z</time></trkpt><trkpt lat="45.1522233" lon="7.3765033"><ele>830.4</ele><time>2026-05-03T10:28:59.112Z</time></trkpt><trkpt lat="45.1521417" lon="7.3766617"><ele>836.0</ele><time>2026-05-03T10:29:00.114Z</time></trkpt><trkpt lat="45.1520567" lon="7.3768167"><ele>836.0</ele><time>2026-05-03T10:29:01.118Z</time></trkpt><trkpt lat="45.1519667" lon="7.37697"><ele>836.0</ele><time>2026-05-03T10:29:02.115Z</time></trkpt><trkpt lat="45.1518817" lon="7.377115"><ele>836.0</ele><time>2026-05-03T10:29:03.121Z</time></trkpt><trkpt lat="45.151795" lon="7.3772783"><ele>836.0</ele><time>2026-05-03T10:29:04.115Z</time></trkpt><trkpt lat="45.1517067" lon="7.3774583"><ele>835.0</ele><time>2026-05-03T10:29:05.114Z</time></trkpt><trkpt lat="45.1516517" lon="7.37765"><ele>834.0</ele><time>2026-05-03T10:29:06.111Z</time></trkpt><trkpt lat="45.151595" lon="7.3778367"><ele>833.0</ele><time>2026-05-03T10:29:07.114Z</time></trkpt><trkpt lat="45.1515333" lon="7.37802"><ele>832.0</ele><time>2026-05-03T10:29:08.114Z</time></trkpt><trkpt lat="45.1514717" lon="7.37821"><ele>832.0</ele><time>2026-05-03T10:29:09.111Z</time></trkpt><trkpt lat="45.151405" lon="7.3783717"><ele>832.0</ele><time>2026-05-03T10:29:10.111Z</time></trkpt><trkpt lat="45.1513333" lon="7.37852"><ele>832.0</ele><time>2026-05-03T10:29:11.109Z</time></trkpt><trkpt lat="45.1512683" lon="7.3786717"><ele>832.0</ele><time>2026-05-03T10:29:12.118Z</time></trkpt><trkpt lat="45.1512217" lon="7.37882"><ele>828.8333333333333</ele><time>2026-05-03T10:29:13.119Z</time></trkpt><trkpt lat="45.151185" lon="7.3789517"><ele>825.6666666666666</ele><time>2026-05-03T10:29:14.115Z</time></trkpt><trkpt lat="45.1511533" lon="7.37907"><ele>822.5</ele><time>2026-05-03T10:29:15.116Z</time></trkpt><trkpt lat="45.1511117" lon="7.3791633"><ele>819.3333333333333</ele><time>2026-05-03T10:29:16.112Z</time></trkpt><trkpt lat="45.151045" lon="7.37923"><ele>816.1666666666666</ele><time>2026-05-03T10:29:17.115Z</time></trkpt><trkpt lat="45.150975" lon="7.3793"><ele>813.0</ele><time>2026-05-03T10:29:18.11Z</time></trkpt><trkpt lat="45.15091" lon="7.379375"><ele>813.0</ele><time>2026-05-03T10:29:19.112Z</time></trkpt><trkpt lat="45.1508783" lon="7.3795083"><ele>813.0</ele><time>2026-05-03T10:29:20.114Z</time></trkpt><trkpt lat="45.1508717" lon="7.3796583"><ele>813.0</ele><time>2026-05-03T10:29:21.109Z</time></trkpt><trkpt lat="45.150895" lon="7.379815"><ele>813.0</ele><time>2026-05-03T10:29:22.11Z</time></trkpt><trkpt lat="45.1509233" lon="7.3799783"><ele>813.0</ele><time>2026-05-03T10:29:23.114Z</time></trkpt><trkpt lat="45.1509617" lon="7.38015"><ele>814.0</ele><time>2026-05-03T10:29:24.11Z</time></trkpt><trkpt lat="45.151005" lon="7.3803117"><ele>815.0</ele><time>2026-05-03T10:29:25.109Z</time></trkpt><trkpt lat="45.1510583" lon="7.380465"><ele>816.0</ele><time>2026-05-03T10:29:26.114Z</time></trkpt><trkpt lat="45.1511" lon="7.3806267"><ele>817.0</ele><time>2026-05-03T10:29:27.115Z</time></trkpt><trkpt lat="45.1511167" lon="7.3807917"><ele>817.0</ele><time>2026-05-03T10:29:28.114Z</time></trkpt><trkpt lat="45.1511183" lon="7.3809583"><ele>817.0</ele><time>2026-05-03T10:29:29.113Z</time></trkpt><trkpt lat="45.1511383" lon="7.3811217"><ele>817.0</ele><time>2026-05-03T10:29:30.112Z</time></trkpt><trkpt lat="45.151165" lon="7.38128"><ele>817.0</ele><time>2026-05-03T10:29:31.116Z</time></trkpt><trkpt lat="45.1511917" lon="7.38142"><ele>816.8333333333333</ele><time>2026-05-03T10:29:32.114Z</time></trkpt><trkpt lat="45.1511967" lon="7.3815533"><ele>816.6666666666666</ele><time>2026-05-03T10:29:33.113Z</time></trkpt><trkpt lat="45.1511717" lon="7.3816717"><ele>816.5</ele><time>2026-05-03T10:29:34.114Z</time></trkpt><trkpt lat="45.15114" lon="7.381775"><ele>816.3333333333333</ele><time>2026-05-03T10:29:35.11Z</time></trkpt><trkpt lat="45.1511017" lon="7.3818667"><ele>816.1666666666666</ele><time>2026-05-03T10:29:36.11Z</time></trkpt><trkpt lat="45.1510467" lon="7.3819367"><ele>816.0</ele><time>2026-05-03T10:29:37.111Z</time></trkpt><trkpt lat="45.1509817" lon="7.381985"><ele>816.0</ele><time>2026-05-03T10:29:38.117Z</time></trkpt><trkpt lat="45.15089" lon="7.3820083"><ele>816.0</ele><time>2026-05-03T10:29:39.112Z</time></trkpt><trkpt lat="45.1508033" lon="7.3820167"><ele>816.0</ele><time>2026-05-03T10:29:40.114Z</time></trkpt><trkpt lat="45.1507183" lon="7.382045"><ele>816.0</ele><time>2026-05-03T10:29:41.11Z</time></trkpt><trkpt lat="45.15063" lon="7.3820817"><ele>816.0</ele><time>2026-05-03T10:29:42.11Z</time></trkpt><trkpt lat="45.15056" lon="7.3821733"><ele>818.0</ele><time>2026-05-03T10:29:43.112Z</time></trkpt><trkpt lat="45.1505033" lon="7.382285"><ele>820.0</ele><time>2026-05-03T10:29:44.117Z</time></trkpt><trkpt lat="45.150485" lon="7.382435"><ele>822.0</ele><time>2026-05-03T10:29:45.11Z</time></trkpt><trkpt lat="45.1504783" lon="7.3826"><ele>824.0</ele><time>2026-05-03T10:29:46.108Z</time></trkpt><trkpt lat="45.15046" lon="7.3827533"><ele>826.0</ele><time>2026-05-03T10:29:47.111Z</time></trkpt><trkpt lat="45.1504267" lon="7.382895"><ele>826.0</ele><time>2026-05-03T10:29:48.113Z</time></trkpt><trkpt lat="45.1503667" lon="7.3830017"><ele>826.0</ele><time>2026-05-03T10:29:49.114Z</time></trkpt><trkpt lat="45.1502833" lon="7.3830733"><ele>826.0</ele><time>2026-05-03T10:29:50.113Z</time></trkpt><trkpt lat="45.15019" lon="7.3831233"><ele>826.0</ele><time>2026-05-03T10:29:51.113Z</time></trkpt><trkpt lat="45.1500767" lon="7.3831667"><ele>826.0</ele><time>2026-05-03T10:29:52.115Z</time></trkpt><trkpt lat="45.1499667" lon="7.383215"><ele>821.8</ele><time>2026-05-03T10:29:53.11Z</time></trkpt><trkpt lat="45.1498667" lon="7.383215"><ele>817.5999999999999</ele><time>2026-05-03T10:29:54.113Z</time></trkpt><trkpt lat="45.14977" lon="7.3832417"><ele>813.4</ele><time>2026-05-03T10:29:55.112Z</time></trkpt><trkpt lat="45.1496733" lon="7.3832317"><ele>809.2</ele><time>2026-05-03T10:29:56.113Z</time></trkpt><trkpt lat="45.1495783" lon="7.3831917"><ele>805.0</ele><time>2026-05-03T10:29:57.112Z</time></trkpt><trkpt lat="45.1494817" lon="7.3831417"><ele>805.0</ele><time>2026-05-03T10:29:58.113Z</time></trkpt><trkpt lat="45.1493817" lon="7.38311"><ele>805.0</ele><time>2026-05-03T10:29:59.11Z</time></trkpt><trkpt lat="45.1492767" lon="7.3831117"><ele>805.0</ele><time>2026-05-03T10:30:00.111Z</time></trkpt><trkpt lat="45.1491767" lon="7.38313"><ele>805.0</ele><time>2026-05-03T10:30:01.112Z</time></trkpt><trkpt lat="45.1490817" lon="7.3831267"><ele>805.0</ele><time>2026-05-03T10:30:02.113Z</time></trkpt><trkpt lat="45.148995" lon="7.3830983"><ele>804.4999999999999</ele><time>2026-05-03T10:30:03.114Z</time></trkpt><trkpt lat="45.148915" lon="7.3830617"><ele>804.0</ele><time>2026-05-03T10:30:04.112Z</time></trkpt><trkpt lat="45.1488567" lon="7.382995"><ele>803.5</ele><time>2026-05-03T10:30:05.112Z</time></trkpt><trkpt lat="45.1487983" lon="7.38292"><ele>803.0</ele><time>2026-05-03T10:30:06.113Z</time></trkpt><trkpt lat="45.1487383" lon="7.3828583"><ele>802.4999999999999</ele><time>2026-05-03T10:30:07.114Z</time></trkpt><trkpt lat="45.1486717" lon="7.3828083"><ele>802.0</ele><time>2026-05-03T10:30:08.113Z</time></trkpt><trkpt lat="45.1485883" lon="7.382825"><ele>801.0</ele><time>2026-05-03T10:30:09.117Z</time></trkpt><trkpt lat="45.1484933" lon="7.3828483"><ele>800.0</ele><time>2026-05-03T10:30:10.113Z</time></trkpt><trkpt lat="45.1483967" lon="7.3828817"><ele>799.0</ele><time>2026-05-03T10:30:11.114Z</time></trkpt><trkpt lat="45.1483067" lon="7.3829367"><ele>798.0</ele><time>2026-05-03T10:30:12.113Z</time></trkpt><trkpt lat="45.1482233" lon="7.38301"><ele>797.0</ele><time>2026-05-03T10:30:13.113Z</time></trkpt><trkpt lat="45.1481483" lon="7.38312"><ele>797.0</ele><time>2026-05-03T10:30:14.114Z</time></trkpt><trkpt lat="45.1480883" lon="7.3832283"><ele>797.0</ele><time>2026-05-03T10:30:15.113Z</time></trkpt><trkpt lat="45.1480167" lon="7.3833417"><ele>797.0</ele><time>2026-05-03T10:30:16.111Z</time></trkpt><trkpt lat="45.1479217" lon="7.3834317"><ele>797.0</ele><time>2026-05-03T10:30:17.114Z</time></trkpt><trkpt lat="45.147815" lon="7.3835017"><ele>797.0</ele><time>2026-05-03T10:30:18.112Z</time></trkpt><trkpt lat="45.14771" lon="7.383565"><ele>797.0000000000001</ele><time>2026-05-03T10:30:19.112Z</time></trkpt><trkpt lat="45.1476133" lon="7.383615"><ele>797.0</ele><time>2026-05-03T10:30:20.118Z</time></trkpt><trkpt lat="45.147525" lon="7.383635"><ele>797.0</ele><time>2026-05-03T10:30:21.111Z</time></trkpt><trkpt lat="45.147445" lon="7.38363"><ele>797.0</ele><time>2026-05-03T10:30:22.114Z</time></trkpt><trkpt lat="45.147365" lon="7.3836083"><ele>797.0000000000001</ele><time>2026-05-03T10:30:23.115Z</time></trkpt><trkpt lat="45.1472867" lon="7.3835667"><ele>797.0</ele><time>2026-05-03T10:30:24.111Z</time></trkpt><trkpt lat="45.1472583" lon="7.3834233"><ele>792.5000000000001</ele><time>2026-05-03T10:30:25.117Z</time></trkpt><trkpt lat="45.147245" lon="7.3833017"><ele>788.0</ele><time>2026-05-03T10:30:26.111Z</time></trkpt><trkpt lat="45.14725" lon="7.383185"><ele>783.5</ele><time>2026-05-03T10:30:27.111Z</time></trkpt><trkpt lat="45.1472767" lon="7.3830717"><ele>779.0</ele><time>2026-05-03T10:30:28.113Z</time></trkpt><trkpt lat="45.1473017" lon="7.382965"><ele>774.5000000000001</ele><time>2026-05-03T10:30:29.11Z</time></trkpt><trkpt lat="45.1473433" lon="7.3828667"><ele>770.0</ele><time>2026-05-03T10:30:30.111Z</time></trkpt><trkpt lat="45.14737" lon="7.3827483"><ele>767.6</ele><time>2026-05-03T10:30:31.121Z</time></trkpt><trkpt lat="45.1473533" lon="7.3826167"><ele>765.2</ele><time>2026-05-03T10:30:32.11Z</time></trkpt><trkpt lat="45.14735" lon="7.382495"><ele>762.8</ele><time>2026-05-03T10:30:33.111Z</time></trkpt><trkpt lat="45.1473683" lon="7.382365"><ele>760.4</ele><time>2026-05-03T10:30:34.112Z</time></trkpt><trkpt lat="45.14741" lon="7.3822467"><ele>758.0</ele><time>2026-05-03T10:30:35.116Z</time></trkpt><trkpt lat="45.1474567" lon="7.3821283"><ele>765.0</ele><time>2026-05-03T10:30:36.112Z</time></trkpt><trkpt lat="45.1474933" lon="7.3820067"><ele>772.0</ele><time>2026-05-03T10:30:37.115Z</time></trkpt><trkpt lat="45.1475067" lon="7.3818733"><ele>779.0</ele><time>2026-05-03T10:30:38.112Z</time></trkpt><trkpt lat="45.1475017" lon="7.3817417"><ele>786.0</ele><time>2026-05-03T10:30:39.112Z</time></trkpt><trkpt lat="45.1474817" lon="7.3816183"><ele>793.0</ele><time>2026-05-03T10:30:40.111Z</time></trkpt><trkpt lat="45.1474483" lon="7.3815083"><ele>789.5</ele><time>2026-05-03T10:30:41.117Z</time></trkpt><trkpt lat="45.14737" lon="7.38143"><ele>786.0</ele><time>2026-05-03T10:30:42.114Z</time></trkpt><trkpt lat="45.14726" lon="7.381365"><ele>782.5</ele><time>2026-05-03T10:30:43.113Z</time></trkpt><trkpt lat="45.1471433" lon="7.3812867"><ele>779.0</ele><time>2026-05-03T10:30:44.112Z</time></trkpt><trkpt lat="45.147045" lon="7.381185"><ele>779.0</ele><time>2026-05-03T10:30:45.112Z</time></trkpt><trkpt lat="45.1469467" lon="7.3810867"><ele>779.0</ele><time>2026-05-03T10:30:46.112Z</time></trkpt><trkpt lat="45.14685" lon="7.3810033"><ele>779.0</ele><time>2026-05-03T10:30:47.114Z</time></trkpt><trkpt lat="45.146755" lon="7.3809133"><ele>779.0</ele><time>2026-05-03T10:30:48.112Z</time></trkpt><trkpt lat="45.1466733" lon="7.380795"><ele>779.0</ele><time>2026-05-03T10:30:49.113Z</time></trkpt><trkpt lat="45.1465967" lon="7.3806617"><ele>779.0</ele><time>2026-05-03T10:30:50.111Z</time></trkpt><trkpt lat="45.1465233" lon="7.3805217"><ele>779.0</ele><time>2026-05-03T10:30:51.113Z</time></trkpt><trkpt lat="45.1464583" lon="7.38038"><ele>779.0</ele><time>2026-05-03T10:30:52.116Z</time></trkpt><trkpt lat="45.1464067" lon="7.3802533"><ele>778.8333333333334</ele><time>2026-05-03T10:30:53.113Z</time></trkpt><trkpt lat="45.14636" lon="7.3801567"><ele>778.6666666666667</ele><time>2026-05-03T10:30:54.114Z</time></trkpt><trkpt lat="45.1463067" lon="7.38007"><ele>778.5</ele><time>2026-05-03T10:30:55.113Z</time></trkpt><trkpt lat="45.1462433" lon="7.38005"><ele>778.3333333333333</ele><time>2026-05-03T10:30:56.115Z</time></trkpt><trkpt lat="45.14618" lon="7.38007"><ele>778.1666666666666</ele><time>2026-05-03T10:30:57.114Z</time></trkpt><trkpt lat="45.1461133" lon="7.3801183"><ele>778.0</ele><time>2026-05-03T10:30:58.117Z</time></trkpt><trkpt lat="45.1460317" lon="7.3802333"><ele>778.0</ele><time>2026-05-03T10:30:59.111Z</time></trkpt><trkpt lat="45.1459467" lon="7.3803583"><ele>778.0</ele><time>2026-05-03T10:31:00.112Z</time></trkpt><trkpt lat="45.1458633" lon="7.380475"><ele>778.0</ele><time>2026-05-03T10:31:01.111Z</time></trkpt><trkpt lat="45.1457767" lon="7.3805683"><ele>778.0</ele><time>2026-05-03T10:31:02.111Z</time></trkpt><trkpt lat="45.1456883" lon="7.38063"><ele>778.0</ele><time>2026-05-03T10:31:03.112Z</time></trkpt><trkpt lat="45.1455917" lon="7.3806483"><ele>772.8</ele><time>2026-05-03T10:31:04.111Z</time></trkpt><trkpt lat="45.1454883" lon="7.3806267"><ele>767.5999999999999</ele><time>2026-05-03T10:31:05.114Z</time></trkpt><trkpt lat="45.1453883" lon="7.3805717"><ele>762.4000000000001</ele><time>2026-05-03T10:31:06.111Z</time></trkpt><trkpt lat="45.145305" lon="7.3804867"><ele>757.2</ele><time>2026-05-03T10:31:07.114Z</time></trkpt><trkpt lat="45.14525" lon="7.38038"><ele>752.0</ele><time>2026-05-03T10:31:08.114Z</time></trkpt><trkpt lat="45.1452133" lon="7.3802683"><ele>752.0</ele><time>2026-05-03T10:31:09.111Z</time></trkpt><trkpt lat="45.14519" lon="7.38015"><ele>752.0</ele><time>2026-05-03T10:31:10.114Z</time></trkpt><trkpt lat="45.1451833" lon="7.38002"><ele>752.0</ele><time>2026-05-03T10:31:11.111Z</time></trkpt><trkpt lat="45.1451583" lon="7.3799067"><ele>752.0</ele><time>2026-05-03T10:31:12.113Z</time></trkpt><trkpt lat="45.1451233" lon="7.3798033"><ele>752.0</ele><time>2026-05-03T10:31:13.112Z</time></trkpt><trkpt lat="45.1450833" lon="7.3797217"><ele>752.0</ele><time>2026-05-03T10:31:14.115Z</time></trkpt><trkpt lat="45.1450233" lon="7.3796417"><ele>751.2</ele><time>2026-05-03T10:31:15.112Z</time></trkpt><trkpt lat="45.144975" lon="7.3795533"><ele>750.4000000000001</ele><time>2026-05-03T10:31:16.11Z</time></trkpt><trkpt lat="45.1449367" lon="7.3794583"><ele>749.5999999999999</ele><time>2026-05-03T10:31:17.112Z</time></trkpt><trkpt lat="45.1449" lon="7.3793483"><ele>748.8</ele><time>2026-05-03T10:31:18.118Z</time></trkpt><trkpt lat="45.1448467" lon="7.3792283"><ele>748.0</ele><time>2026-05-03T10:31:19.113Z</time></trkpt><trkpt lat="45.1447783" lon="7.37911"><ele>748.0</ele><time>2026-05-03T10:31:20.11Z</time></trkpt><trkpt lat="45.1447017" lon="7.3790117"><ele>748.0</ele><time>2026-05-03T10:31:21.113Z</time></trkpt><trkpt lat="45.14462" lon="7.378955"><ele>748.0</ele><time>2026-05-03T10:31:22.111Z</time></trkpt><trkpt lat="45.1445467" lon="7.37891"><ele>748.0</ele><time>2026-05-03T10:31:23.11Z</time></trkpt><trkpt lat="45.1444767" lon="7.3789267"><ele>748.0</ele><time>2026-05-03T10:31:24.115Z</time></trkpt><trkpt lat="45.1444017" lon="7.3789517"><ele>748.0</ele><time>2026-05-03T10:31:25.113Z</time></trkpt><trkpt lat="45.144335" lon="7.3789983"><ele>748.0</ele><time>2026-05-03T10:31:26.115Z</time></trkpt><trkpt lat="45.1442533" lon="7.3790733"><ele>748.0</ele><time>2026-05-03T10:31:27.114Z</time></trkpt><trkpt lat="45.1441717" lon="7.3791583"><ele>748.0</ele><time>2026-05-03T10:31:28.11Z</time></trkpt><trkpt lat="45.1441033" lon="7.3792533"><ele>748.0</ele><time>2026-05-03T10:31:29.115Z</time></trkpt><trkpt lat="45.1440333" lon="7.3793283"><ele>748.0</ele><time>2026-05-03T10:31:30.115Z</time></trkpt><trkpt lat="45.143955" lon="7.3793967"><ele>744.25</ele><time>2026-05-03T10:31:31.11Z</time></trkpt><trkpt lat="45.1438517" lon="7.3794283"><ele>740.5</ele><time>2026-05-03T10:31:32.115Z</time></trkpt><trkpt lat="45.14374" lon="7.3794417"><ele>736.75</ele><time>2026-05-03T10:31:33.118Z</time></trkpt><trkpt lat="45.1436217" lon="7.3794283"><ele>733.0</ele><time>2026-05-03T10:31:34.115Z</time></trkpt><trkpt lat="45.1435" lon="7.3793867"><ele>733.0</ele><time>2026-05-03T10:31:35.113Z</time></trkpt><trkpt lat="45.1433783" lon="7.3793333"><ele>733.0</ele><time>2026-05-03T10:31:36.116Z</time></trkpt><trkpt lat="45.1432617" lon="7.3792667"><ele>733.0</ele><time>2026-05-03T10:31:37.111Z</time></trkpt><trkpt lat="45.14315" lon="7.3791883"><ele>733.0</ele><time>2026-05-03T10:31:38.113Z</time></trkpt><trkpt lat="45.1430533" lon="7.3790933"><ele>733.8</ele><time>2026-05-03T10:31:39.113Z</time></trkpt><trkpt lat="45.1429617" lon="7.3789917"><ele>734.5999999999999</ele><time>2026-05-03T10:31:40.111Z</time></trkpt><trkpt lat="45.1428667" lon="7.3789017"><ele>735.4000000000001</ele><time>2026-05-03T10:31:41.112Z</time></trkpt><trkpt lat="45.1427733" lon="7.3788283"><ele>736.2</ele><time>2026-05-03T10:31:42.11Z</time></trkpt><trkpt lat="45.1426833" lon="7.3787733"><ele>737.0</ele><time>2026-05-03T10:31:43.117Z</time></trkpt><trkpt lat="45.1425933" lon="7.3787383"><ele>737.0</ele><time>2026-05-03T10:31:44.112Z</time></trkpt><trkpt lat="45.14249" lon="7.37873"><ele>737.0</ele><time>2026-05-03T10:31:45.116Z</time></trkpt><trkpt lat="45.1423717" lon="7.3787683"><ele>737.0</ele><time>2026-05-03T10:31:46.113Z</time></trkpt><trkpt lat="45.14224" lon="7.37881"><ele>737.0</ele><time>2026-05-03T10:31:47.113Z</time></trkpt><trkpt lat="45.142105" lon="7.37885"><ele>732.25</ele><time>2026-05-03T10:31:48.11Z</time></trkpt><trkpt lat="45.1419583" lon="7.3788833"><ele>727.5</ele><time>2026-05-03T10:31:49.112Z</time></trkpt><trkpt lat="45.1418083" lon="7.3789017"><ele>722.75</ele><time>2026-05-03T10:31:50.112Z</time></trkpt><trkpt lat="45.1416683" lon="7.3789033"><ele>718.0</ele><time>2026-05-03T10:31:51.112Z</time></trkpt><trkpt lat="45.1415283" lon="7.378905"><ele>715.5</ele><time>2026-05-03T10:31:52.116Z</time></trkpt><trkpt lat="45.1413867" lon="7.3789117"><ele>713.0</ele><time>2026-05-03T10:31:53.112Z</time></trkpt><trkpt lat="45.14124" lon="7.37892"><ele>710.5</ele><time>2026-05-03T10:31:54.114Z</time></trkpt><trkpt lat="45.1410983" lon="7.3789183"><ele>708.0</ele><time>2026-05-03T10:31:55.111Z</time></trkpt><trkpt lat="45.1409633" lon="7.3788917"><ele>708.5</ele><time>2026-05-03T10:31:56.111Z</time></trkpt><trkpt lat="45.1408283" lon="7.3788483"><ele>709.0</ele><time>2026-05-03T10:31:57.114Z</time></trkpt><trkpt lat="45.14069" lon="7.3788083"><ele>709.5</ele><time>2026-05-03T10:31:58.113Z</time></trkpt><trkpt lat="45.1405517" lon="7.3787783"><ele>710.0</ele><time>2026-05-03T10:31:59.114Z</time></trkpt><trkpt lat="45.1404133" lon="7.3787517"><ele>710.0</ele><time>2026-05-03T10:32:00.111Z</time></trkpt><trkpt lat="45.14027" lon="7.3787283"><ele>710.0</ele><time>2026-05-03T10:32:01.11Z</time></trkpt><trkpt lat="45.140125" lon="7.378695"><ele>710.0</ele><time>2026-05-03T10:32:02.113Z</time></trkpt><trkpt lat="45.1399817" lon="7.37865"><ele>710.0</ele><time>2026-05-03T10:32:03.112Z</time></trkpt><trkpt lat="45.1398467" lon="7.3786067"><ele>707.4</ele><time>2026-05-03T10:32:04.116Z</time></trkpt><trkpt lat="45.1397367" lon="7.3785633"><ele>704.8</ele><time>2026-05-03T10:32:05.112Z</time></trkpt><trkpt lat="45.1396417" lon="7.3785133"><ele>702.2</ele><time>2026-05-03T10:32:06.114Z</time></trkpt><trkpt lat="45.139555" lon="7.3784517"><ele>699.6</ele><time>2026-05-03T10:32:07.112Z</time></trkpt><trkpt lat="45.1394817" lon="7.3783767"><ele>697.0</ele><time>2026-05-03T10:32:08.111Z</time></trkpt><trkpt lat="45.1394233" lon="7.3782967"><ele>697.0</ele><time>2026-05-03T10:32:09.112Z</time></trkpt><trkpt lat="45.1393667" lon="7.3782317"><ele>697.0</ele><time>2026-05-03T10:32:10.112Z</time></trkpt><trkpt lat="45.13927" lon="7.3782017"><ele>697.0</ele><time>2026-05-03T10:32:12.117Z</time></trkpt><trkpt lat="45.139245" lon="7.37829"><ele>697.0</ele><time>2026-05-03T10:32:13.111Z</time></trkpt><trkpt lat="45.13926" lon="7.3784067"><ele>697.0</ele><time>2026-05-03T10:32:14.109Z</time></trkpt><trkpt lat="45.139285" lon="7.378515"><ele>697.0</ele><time>2026-05-03T10:32:15.115Z</time></trkpt><trkpt lat="45.1393467" lon="7.3786183"><ele>697.0</ele><time>2026-05-03T10:32:16.111Z</time></trkpt><trkpt lat="45.1394133" lon="7.37874"><ele>697.0</ele><time>2026-05-03T10:32:17.112Z</time></trkpt><trkpt lat="45.1394833" lon="7.3788583"><ele>697.0</ele><time>2026-05-03T10:32:18.113Z</time></trkpt><trkpt lat="45.1395533" lon="7.3789767"><ele>697.0</ele><time>2026-05-03T10:32:19.112Z</time></trkpt><trkpt lat="45.1396067" lon="7.379095"><ele>697.0</ele><time>2026-05-03T10:32:20.112Z</time></trkpt><trkpt lat="45.1396367" lon="7.3792483"><ele>695.0</ele><time>2026-05-03T10:32:21.122Z</time></trkpt><trkpt lat="45.1396583" lon="7.3794217"><ele>693.0</ele><time>2026-05-03T10:32:22.108Z</time></trkpt><trkpt lat="45.1396817" lon="7.379595"><ele>691.0</ele><time>2026-05-03T10:32:23.112Z</time></trkpt><trkpt lat="45.1397033" lon="7.3797567"><ele>689.0</ele><time>2026-05-03T10:32:24.113Z</time></trkpt><trkpt lat="45.139735" lon="7.379895"><ele>688.6</ele><time>2026-05-03T10:32:25.12Z</time></trkpt><trkpt lat="45.13977" lon="7.3800267"><ele>688.2</ele><time>2026-05-03T10:32:26.112Z</time></trkpt><trkpt lat="45.13983" lon="7.3801317"><ele>687.8000000000001</ele><time>2026-05-03T10:32:27.117Z</time></trkpt><trkpt lat="45.1398933" lon="7.3802183"><ele>687.4000000000001</ele><time>2026-05-03T10:32:28.112Z</time></trkpt><trkpt lat="45.139965" lon="7.38028"><ele>687.0</ele><time>2026-05-03T10:32:29.121Z</time></trkpt><trkpt lat="45.1400533" lon="7.380325"><ele>687.0</ele><time>2026-05-03T10:32:30.112Z</time></trkpt><trkpt lat="45.1401517" lon="7.3803817"><ele>687.0</ele><time>2026-05-03T10:32:31.116Z</time></trkpt><trkpt lat="45.14024" lon="7.3804767"><ele>687.0</ele><time>2026-05-03T10:32:32.111Z</time></trkpt><trkpt lat="45.1403217" lon="7.38059"><ele>687.0</ele><time>2026-05-03T10:32:33.117Z</time></trkpt><trkpt lat="45.1404033" lon="7.3807117"><ele>684.25</ele><time>2026-05-03T10:32:34.121Z</time></trkpt><trkpt lat="45.140495" lon="7.38083"><ele>681.5</ele><time>2026-05-03T10:32:35.111Z</time></trkpt><trkpt lat="45.1405683" lon="7.380955"><ele>678.75</ele><time>2026-05-03T10:32:36.116Z</time></trkpt><trkpt lat="45.14064" lon="7.3810733"><ele>676.0</ele><time>2026-05-03T10:32:37.115Z</time></trkpt><trkpt lat="45.14071" lon="7.3811933"><ele>675.5</ele><time>2026-05-03T10:32:38.121Z</time></trkpt><trkpt lat="45.1407783" lon="7.3813"><ele>675.0</ele><time>2026-05-03T10:32:39.121Z</time></trkpt><trkpt lat="45.1408517" lon="7.3813883"><ele>674.5</ele><time>2026-05-03T10:32:40.115Z</time></trkpt><trkpt lat="45.140915" lon="7.3814617"><ele>674.0</ele><time>2026-05-03T10:32:41.11Z</time></trkpt><trkpt lat="45.1409683" lon="7.3815333"><ele>673.5</ele><time>2026-05-03T10:32:42.114Z</time></trkpt><trkpt lat="45.1410033" lon="7.381615"><ele>673.0</ele><time>2026-05-03T10:32:43.114Z</time></trkpt><trkpt lat="45.1409733" lon="7.3817033"><ele>673.0</ele><time>2026-05-03T10:32:44.109Z</time></trkpt><trkpt lat="45.14092" lon="7.381775"><ele>673.0</ele><time>2026-05-03T10:32:45.115Z</time></trkpt><trkpt lat="45.1408683" lon="7.3818333"><ele>673.0</ele><time>2026-05-03T10:32:46.115Z</time></trkpt><trkpt lat="45.140785" lon="7.3818333"><ele>673.0</ele><time>2026-05-03T10:32:47.11Z</time></trkpt><trkpt lat="45.1406983" lon="7.381825"><ele>673.0</ele><time>2026-05-03T10:32:48.115Z</time></trkpt><trkpt lat="45.14061" lon="7.3817983"><ele>673.0</ele><time>2026-05-03T10:32:49.113Z</time></trkpt><trkpt lat="45.1405167" lon="7.3817683"><ele>671.8</ele><time>2026-05-03T10:32:50.118Z</time></trkpt><trkpt lat="45.1404317" lon="7.3817317"><ele>670.5999999999999</ele><time>2026-05-03T10:32:51.11Z</time></trkpt><trkpt lat="45.140345" lon="7.3816617"><ele>669.4000000000001</ele><time>2026-05-03T10:32:52.114Z</time></trkpt><trkpt lat="45.1402617" lon="7.3815617"><ele>668.2</ele><time>2026-05-03T10:32:53.11Z</time></trkpt><trkpt lat="45.14017" lon="7.3814683"><ele>667.0</ele><time>2026-05-03T10:32:54.113Z</time></trkpt><trkpt lat="45.140075" lon="7.381375"><ele>667.25</ele><time>2026-05-03T10:32:55.12Z</time></trkpt><trkpt lat="45.139975" lon="7.38129"><ele>667.5</ele><time>2026-05-03T10:32:56.116Z</time></trkpt><trkpt lat="45.1398617" lon="7.3812233"><ele>667.75</ele><time>2026-05-03T10:32:57.113Z</time></trkpt><trkpt lat="45.13975" lon="7.3811617"><ele>668.0</ele><time>2026-05-03T10:32:58.113Z</time></trkpt><trkpt lat="45.1396233" lon="7.38112"><ele>668.0</ele><time>2026-05-03T10:32:59.112Z</time></trkpt><trkpt lat="45.1394983" lon="7.3810917"><ele>668.0</ele><time>2026-05-03T10:33:00.111Z</time></trkpt><trkpt lat="45.13937" lon="7.3810817"><ele>668.0</ele><time>2026-05-03T10:33:01.114Z</time></trkpt><trkpt lat="45.1392333" lon="7.38108"><ele>668.0</ele><time>2026-05-03T10:33:02.111Z</time></trkpt><trkpt lat="45.1391" lon="7.38108"><ele>666.75</ele><time>2026-05-03T10:33:03.114Z</time></trkpt><trkpt lat="45.1389617" lon="7.3810817"><ele>665.5</ele><time>2026-05-03T10:33:04.113Z</time></trkpt><trkpt lat="45.1388317" lon="7.3810833"><ele>664.25</ele><time>2026-05-03T10:33:05.113Z</time></trkpt><trkpt lat="45.13871" lon="7.3810733"><ele>663.0</ele><time>2026-05-03T10:33:06.114Z</time></trkpt><trkpt lat="45.1385933" lon="7.3810433"><ele>663.0</ele><time>2026-05-03T10:33:07.115Z</time></trkpt><trkpt lat="45.1384867" lon="7.3809867"><ele>663.0</ele><time>2026-05-03T10:33:08.113Z</time></trkpt><trkpt lat="45.138385" lon="7.3809217"><ele>663.0</ele><time>2026-05-03T10:33:09.114Z</time></trkpt><trkpt lat="45.1382967" lon="7.3808567"><ele>663.0</ele><time>2026-05-03T10:33:10.112Z</time></trkpt><trkpt lat="45.1382217" lon="7.3808117"><ele>663.0</ele><time>2026-05-03T10:33:11.115Z</time></trkpt><trkpt lat="45.1381533" lon="7.3807817"><ele>661.5</ele><time>2026-05-03T10:33:12.112Z</time></trkpt><trkpt lat="45.1380833" lon="7.380775"><ele>660.0</ele><time>2026-05-03T10:33:13.112Z</time></trkpt><trkpt lat="45.138015" lon="7.3808017"><ele>658.5</ele><time>2026-05-03T10:33:14.113Z</time></trkpt><trkpt lat="45.1380083" lon="7.3809217"><ele>657.0</ele><time>2026-05-03T10:33:15.113Z</time></trkpt><trkpt lat="45.138" lon="7.3810183"><ele>655.5</ele><time>2026-05-03T10:33:16.115Z</time></trkpt><trkpt lat="45.13804" lon="7.38113"><ele>654.0</ele><time>2026-05-03T10:33:17.11Z</time></trkpt><trkpt lat="45.1380883" lon="7.3812317"><ele>654.0</ele><time>2026-05-03T10:33:18.114Z</time></trkpt><trkpt lat="45.1381583" lon="7.3813283"><ele>654.0</ele><time>2026-05-03T10:33:19.111Z</time></trkpt><trkpt lat="45.1382533" lon="7.3814367"><ele>654.0</ele><time>2026-05-03T10:33:20.114Z</time></trkpt><trkpt lat="45.1383517" lon="7.3815533"><ele>654.0</ele><time>2026-05-03T10:33:21.115Z</time></trkpt><trkpt lat="45.138445" lon="7.3816817"><ele>653.25</ele><time>2026-05-03T10:33:22.114Z</time></trkpt><trkpt lat="45.1385417" lon="7.3818233"><ele>652.5</ele><time>2026-05-03T10:33:23.111Z</time></trkpt><trkpt lat="45.138635" lon="7.381965"><ele>651.75</ele><time>2026-05-03T10:33:24.114Z</time></trkpt><trkpt lat="45.138715" lon="7.382095"><ele>651.0</ele><time>2026-05-03T10:33:25.117Z</time></trkpt><trkpt lat="45.1387833" lon="7.382205"><ele>649.1666666666666</ele><time>2026-05-03T10:33:26.114Z</time></trkpt><trkpt lat="45.1388333" lon="7.382295"><ele>647.3333333333334</ele><time>2026-05-03T10:33:27.111Z</time></trkpt><trkpt lat="45.138875" lon="7.38237"><ele>645.5</ele><time>2026-05-03T10:33:28.112Z</time></trkpt><trkpt lat="45.13892" lon="7.3825017"><ele>643.6666666666667</ele><time>2026-05-03T10:33:30.117Z</time></trkpt><trkpt lat="45.1388783" lon="7.3826067"><ele>641.8333333333334</ele><time>2026-05-03T10:33:32.114Z</time></trkpt><trkpt lat="45.1388167" lon="7.3826433"><ele>640.0</ele><time>2026-05-03T10:33:33.118Z</time></trkpt><trkpt lat="45.1387383" lon="7.38266"><ele>640.0</ele><time>2026-05-03T10:33:34.109Z</time></trkpt><trkpt lat="45.138655" lon="7.382665"><ele>640.0</ele><time>2026-05-03T10:33:35.117Z</time></trkpt><trkpt lat="45.1385833" lon="7.3826583"><ele>640.0</ele><time>2026-05-03T10:33:36.112Z</time></trkpt><trkpt lat="45.1385067" lon="7.3826567"><ele>640.0</ele><time>2026-05-03T10:33:37.112Z</time></trkpt><trkpt lat="45.1384433" lon="7.3826667"><ele>640.0</ele><time>2026-05-03T10:33:38.111Z</time></trkpt><trkpt lat="45.1383667" lon="7.38269"><ele>640.0</ele><time>2026-05-03T10:33:40.118Z</time></trkpt><trkpt lat="45.13831" lon="7.3827583"><ele>640.0</ele><time>2026-05-03T10:34:13.114Z</time></trkpt><trkpt lat="45.1382233" lon="7.3827783"><ele>639.4</ele><time>2026-05-03T10:34:15.114Z</time></trkpt><trkpt lat="45.1381033" lon="7.38283"><ele>638.8</ele><time>2026-05-03T10:34:17.111Z</time></trkpt><trkpt lat="45.1380283" lon="7.3828617"><ele>638.2</ele><time>2026-05-03T10:34:18.114Z</time></trkpt><trkpt lat="45.1379467" lon="7.3828867"><ele>637.6</ele><time>2026-05-03T10:34:19.111Z</time></trkpt><trkpt lat="45.1378617" lon="7.38292"><ele>637.0</ele><time>2026-05-03T10:34:20.112Z</time></trkpt><trkpt lat="45.1377817" lon="7.38295"><ele>637.0</ele><time>2026-05-03T10:34:21.115Z</time></trkpt><trkpt lat="45.137695" lon="7.38299"><ele>637.0</ele><time>2026-05-03T10:34:22.113Z</time></trkpt><trkpt lat="45.1376183" lon="7.38303"><ele>637.0</ele><time>2026-05-03T10:34:23.117Z</time></trkpt><trkpt lat="45.13754" lon="7.383065"><ele>637.0</ele><time>2026-05-03T10:34:24.113Z</time></trkpt><trkpt lat="45.137425" lon="7.3831267"><ele>637.0</ele><time>2026-05-03T10:34:26.113Z</time></trkpt><trkpt lat="45.13737" lon="7.3831783"><ele>637.0</ele><time>2026-05-03T10:34:27.116Z</time></trkpt><trkpt lat="45.1373233" lon="7.3832383"><ele>635.0</ele><time>2026-05-03T10:34:28.115Z</time></trkpt><trkpt lat="45.1372783" lon="7.3834233"><ele>633.0</ele><time>2026-05-03T10:34:30.112Z</time></trkpt><trkpt lat="45.1372617" lon="7.3835367"><ele>631.0</ele><time>2026-05-03T10:34:31.112Z</time></trkpt><trkpt lat="45.137245" lon="7.383655"><ele>629.0</ele><time>2026-05-03T10:34:32.111Z</time></trkpt><trkpt lat="45.1372233" lon="7.3837733"><ele>627.0</ele><time>2026-05-03T10:34:33.123Z</time></trkpt><trkpt lat="45.1372067" lon="7.3838883"><ele>625.0</ele><time>2026-05-03T10:34:34.117Z</time></trkpt><trkpt lat="45.137175" lon="7.3840017"><ele>623.0</ele><time>2026-05-03T10:34:35.116Z</time></trkpt><trkpt lat="45.137115" lon="7.3841"><ele>621.0</ele><time>2026-05-03T10:34:36.116Z</time></trkpt><trkpt lat="45.1370617" lon="7.3841917"><ele>619.0</ele><time>2026-05-03T10:34:37.112Z</time></trkpt><trkpt lat="45.1369967" lon="7.3842883"><ele>617.0</ele><time>2026-05-03T10:34:38.118Z</time></trkpt><trkpt lat="45.13688" lon="7.384345"><ele>617.0</ele><time>2026-05-03T10:34:39.11Z</time></trkpt><trkpt lat="45.1368017" lon="7.3844217"><ele>617.0</ele><time>2026-05-03T10:34:40.115Z</time></trkpt><trkpt lat="45.1367067" lon="7.3844983"><ele>617.0</ele><time>2026-05-03T10:34:41.116Z</time></trkpt><trkpt lat="45.13661" lon="7.38456"><ele>617.0</ele><time>2026-05-03T10:34:42.115Z</time></trkpt><trkpt lat="45.1365033" lon="7.3846067"><ele>617.0</ele><time>2026-05-03T10:34:43.116Z</time></trkpt><trkpt lat="45.1363967" lon="7.3846217"><ele>616.0</ele><time>2026-05-03T10:34:44.117Z</time></trkpt><trkpt lat="45.1362883" lon="7.38463"><ele>615.0</ele><time>2026-05-03T10:34:45.112Z</time></trkpt><trkpt lat="45.1361883" lon="7.3846167"><ele>614.0</ele><time>2026-05-03T10:34:46.116Z</time></trkpt><trkpt lat="45.1360933" lon="7.3846083"><ele>613.0</ele><time>2026-05-03T10:34:47.11Z</time></trkpt><trkpt lat="45.135995" lon="7.38463"><ele>612.0</ele><time>2026-05-03T10:34:48.114Z</time></trkpt><trkpt lat="45.135895" lon="7.38469"><ele>610.5</ele><time>2026-05-03T10:34:49.113Z</time></trkpt><trkpt lat="45.1358117" lon="7.3847767"><ele>609.0</ele><time>2026-05-03T10:34:50.113Z</time></trkpt><trkpt lat="45.1357233" lon="7.3848867"><ele>607.5</ele><time>2026-05-03T10:34:51.116Z</time></trkpt><trkpt lat="45.1356233" lon="7.3849967"><ele>606.0</ele><time>2026-05-03T10:34:52.113Z</time></trkpt><trkpt lat="45.13553" lon="7.3851233"><ele>606.0</ele><time>2026-05-03T10:34:53.115Z</time></trkpt><trkpt lat="45.1354333" lon="7.3852617"><ele>606.0</ele><time>2026-05-03T10:34:54.112Z</time></trkpt><trkpt lat="45.1353433" lon="7.385395"><ele>606.0</ele><time>2026-05-03T10:34:55.114Z</time></trkpt><trkpt lat="45.13525" lon="7.385515"><ele>606.0</ele><time>2026-05-03T10:34:56.12Z</time></trkpt><trkpt lat="45.1351667" lon="7.3856217"><ele>606.2</ele><time>2026-05-03T10:34:57.114Z</time></trkpt><trkpt lat="45.1351067" lon="7.38573"><ele>606.4000000000001</ele><time>2026-05-03T10:34:58.111Z</time></trkpt><trkpt lat="45.1350733" lon="7.38586"><ele>606.6</ele><time>2026-05-03T10:34:59.119Z</time></trkpt><trkpt lat="45.1350683" lon="7.386"><ele>606.8000000000001</ele><time>2026-05-03T10:35:00.111Z</time></trkpt><trkpt lat="45.1350717" lon="7.3861583"><ele>607.0</ele><time>2026-05-03T10:35:01.116Z</time></trkpt><trkpt lat="45.135075" lon="7.3863217"><ele>608.0</ele><time>2026-05-03T10:35:02.117Z</time></trkpt><trkpt lat="45.1350867" lon="7.38648"><ele>609.0</ele><time>2026-05-03T10:35:03.119Z</time></trkpt><trkpt lat="45.135095" lon="7.386635"><ele>610.0</ele><time>2026-05-03T10:35:04.116Z</time></trkpt><trkpt lat="45.1351033" lon="7.3867817"><ele>611.0</ele><time>2026-05-03T10:35:05.116Z</time></trkpt><trkpt lat="45.1351167" lon="7.386915"><ele>612.0</ele><time>2026-05-03T10:35:06.112Z</time></trkpt><trkpt lat="45.135145" lon="7.38704"><ele>612.8000000000001</ele><time>2026-05-03T10:35:07.113Z</time></trkpt><trkpt lat="45.1351533" lon="7.3871783"><ele>613.6</ele><time>2026-05-03T10:35:08.112Z</time></trkpt><trkpt lat="45.1351683" lon="7.3873233"><ele>614.4000000000001</ele><time>2026-05-03T10:35:09.115Z</time></trkpt><trkpt lat="45.13519" lon="7.387485"><ele>615.2</ele><time>2026-05-03T10:35:10.123Z</time></trkpt><trkpt lat="45.1352167" lon="7.3876583"><ele>616.0</ele><time>2026-05-03T10:35:11.119Z</time></trkpt><trkpt lat="45.1352367" lon="7.387825"><ele>616.0</ele><time>2026-05-03T10:35:12.125Z</time></trkpt><trkpt lat="45.1352617" lon="7.3879933"><ele>616.0</ele><time>2026-05-03T10:35:13.115Z</time></trkpt><trkpt lat="45.1352617" lon="7.3881717"><ele>616.0</ele><time>2026-05-03T10:35:14.113Z</time></trkpt><trkpt lat="45.1352583" lon="7.3883517"><ele>616.0</ele><time>2026-05-03T10:35:15.113Z</time></trkpt><trkpt lat="45.1352567" lon="7.388525"><ele>615.25</ele><time>2026-05-03T10:35:16.122Z</time></trkpt><trkpt lat="45.1352483" lon="7.3886983"><ele>614.5</ele><time>2026-05-03T10:35:17.111Z</time></trkpt><trkpt lat="45.1352333" lon="7.388875"><ele>613.75</ele><time>2026-05-03T10:35:18.112Z</time></trkpt><trkpt lat="45.135205" lon="7.3890517"><ele>613.0</ele><time>2026-05-03T10:35:19.116Z</time></trkpt><trkpt lat="45.135165" lon="7.3892283"><ele>613.5</ele><time>2026-05-03T10:35:20.113Z</time></trkpt><trkpt lat="45.1351017" lon="7.3894067"><ele>614.0</ele><time>2026-05-03T10:35:21.113Z</time></trkpt><trkpt lat="45.135025" lon="7.3895783"><ele>614.5</ele><time>2026-05-03T10:35:22.119Z</time></trkpt><trkpt lat="45.13493" lon="7.389735"><ele>615.0</ele><time>2026-05-03T10:35:23.119Z</time></trkpt><trkpt lat="45.1348167" lon="7.3898733"><ele>615.0</ele><time>2026-05-03T10:35:24.114Z</time></trkpt><trkpt lat="45.1347" lon="7.3899883"><ele>615.0</ele><time>2026-05-03T10:35:25.115Z</time></trkpt><trkpt lat="45.1345883" lon="7.39011"><ele>615.0</ele><time>2026-05-03T10:35:26.113Z</time></trkpt><trkpt lat="45.1344867" lon="7.3902467"><ele>615.0</ele><time>2026-05-03T10:35:27.112Z</time></trkpt><trkpt lat="45.1343967" lon="7.390415"><ele>611.25</ele><time>2026-05-03T10:35:28.111Z</time></trkpt><trkpt lat="45.1343217" lon="7.390595"><ele>607.5</ele><time>2026-05-03T10:35:29.115Z</time></trkpt><trkpt lat="45.1342533" lon="7.3907733"><ele>603.75</ele><time>2026-05-03T10:35:30.115Z</time></trkpt><trkpt lat="45.1341967" lon="7.3909567"><ele>600.0</ele><time>2026-05-03T10:35:31.112Z</time></trkpt><trkpt lat="45.1341583" lon="7.3911583"><ele>600.0</ele><time>2026-05-03T10:35:32.115Z</time></trkpt><trkpt lat="45.1341217" lon="7.39134"><ele>600.0</ele><time>2026-05-03T10:35:33.114Z</time></trkpt><trkpt lat="45.1340833" lon="7.3915233"><ele>600.0</ele><time>2026-05-03T10:35:34.114Z</time></trkpt><trkpt lat="45.1340233" lon="7.3916867"><ele>600.0</ele><time>2026-05-03T10:35:35.112Z</time></trkpt><trkpt lat="45.1339517" lon="7.391825"><ele>602.4</ele><time>2026-05-03T10:35:36.112Z</time></trkpt><trkpt lat="45.1338733" lon="7.3919383"><ele>604.8</ele><time>2026-05-03T10:35:37.112Z</time></trkpt><trkpt lat="45.13381" lon="7.3920533"><ele>607.2</ele><time>2026-05-03T10:35:38.11Z</time></trkpt><trkpt lat="45.1337717" lon="7.392175"><ele>609.6</ele><time>2026-05-03T10:35:39.111Z</time></trkpt><trkpt lat="45.133745" lon="7.3922883"><ele>612.0</ele><time>2026-05-03T10:35:40.115Z</time></trkpt><trkpt lat="45.1337217" lon="7.39239"><ele>612.0</ele><time>2026-05-03T10:35:41.118Z</time></trkpt><trkpt lat="45.1337017" lon="7.3924783"><ele>612.0</ele><time>2026-05-03T10:35:42.111Z</time></trkpt><trkpt lat="45.1336817" lon="7.3926"><ele>612.0</ele><time>2026-05-03T10:35:44.117Z</time></trkpt><trkpt lat="45.1336633" lon="7.3927233"><ele>612.0</ele><time>2026-05-03T10:35:47.11Z</time></trkpt><trkpt lat="45.1336333" lon="7.39281"><ele>612.0</ele><time>2026-05-03T10:35:50.11Z</time></trkpt><trkpt lat="45.1335833" lon="7.3929233"><ele>612.0</ele><time>2026-05-03T10:36:20.114Z</time></trkpt><trkpt lat="45.133545" lon="7.3930017"><ele>611.0</ele><time>2026-05-03T10:36:21.112Z</time></trkpt><trkpt lat="45.1334917" lon="7.3930833"><ele>610.0</ele><time>2026-05-03T10:36:22.108Z</time></trkpt><trkpt lat="45.1334217" lon="7.393165"><ele>609.0</ele><time>2026-05-03T10:36:23.11Z</time></trkpt><trkpt lat="45.1333183" lon="7.3932433"><ele>608.0</ele><time>2026-05-03T10:36:24.112Z</time></trkpt><trkpt lat="45.1332067" lon="7.3933083"><ele>607.0</ele><time>2026-05-03T10:36:25.112Z</time></trkpt><trkpt lat="45.1330833" lon="7.3933633"><ele>607.0</ele><time>2026-05-03T10:36:26.113Z</time></trkpt><trkpt lat="45.1329583" lon="7.3934117"><ele>607.0</ele><time>2026-05-03T10:36:27.115Z</time></trkpt><trkpt lat="45.132825" lon="7.3934533"><ele>607.0</ele><time>2026-05-03T10:36:28.113Z</time></trkpt><trkpt lat="45.1326933" lon="7.3934967"><ele>607.0</ele><time>2026-05-03T10:36:29.112Z</time></trkpt><trkpt lat="45.1325583" lon="7.3935467"><ele>607.0</ele><time>2026-05-03T10:36:30.112Z</time></trkpt><trkpt lat="45.1324233" lon="7.3936033"><ele>607.0</ele><time>2026-05-03T10:36:31.111Z</time></trkpt><trkpt lat="45.1322867" lon="7.393665"><ele>607.0</ele><time>2026-05-03T10:36:32.113Z</time></trkpt><trkpt lat="45.132145" lon="7.39372"><ele>607.0</ele><time>2026-05-03T10:36:33.112Z</time></trkpt><trkpt lat="45.132" lon="7.3937783"><ele>597.6666666666667</ele><time>2026-05-03T10:36:34.111Z</time></trkpt><trkpt lat="45.1318483" lon="7.3938467"><ele>588.3333333333334</ele><time>2026-05-03T10:36:35.111Z</time></trkpt><trkpt lat="45.131695" lon="7.393915"><ele>579.0</ele><time>2026-05-03T10:36:36.111Z</time></trkpt><trkpt lat="45.13154" lon="7.3939867"><ele>579.0</ele><time>2026-05-03T10:36:37.112Z</time></trkpt><trkpt lat="45.1313833" lon="7.3940567"><ele>579.0</ele><time>2026-05-03T10:36:38.113Z</time></trkpt><trkpt lat="45.1312283" lon="7.394125"><ele>579.0</ele><time>2026-05-03T10:36:39.116Z</time></trkpt><trkpt lat="45.131075" lon="7.394205"><ele>579.0</ele><time>2026-05-03T10:36:40.114Z</time></trkpt><trkpt lat="45.130925" lon="7.3943117"><ele>579.0</ele><time>2026-05-03T10:36:41.111Z</time></trkpt><trkpt lat="45.1307967" lon="7.3944067"><ele>579.0</ele><time>2026-05-03T10:36:42.112Z</time></trkpt><trkpt lat="45.13068" lon="7.3945283"><ele>578.25</ele><time>2026-05-03T10:36:43.11Z</time></trkpt><trkpt lat="45.130565" lon="7.3946483"><ele>577.5</ele><time>2026-05-03T10:36:44.113Z</time></trkpt><trkpt lat="45.13044" lon="7.3947317"><ele>576.75</ele><time>2026-05-03T10:36:45.113Z</time></trkpt><trkpt lat="45.1303017" lon="7.3947833"><ele>576.0</ele><time>2026-05-03T10:36:46.111Z</time></trkpt><trkpt lat="45.130165" lon="7.394815"><ele>571.75</ele><time>2026-05-03T10:36:47.111Z</time></trkpt><trkpt lat="45.1300317" lon="7.3948583"><ele>567.5</ele><time>2026-05-03T10:36:48.113Z</time></trkpt><trkpt lat="45.1299017" lon="7.3949117"><ele>563.25</ele><time>2026-05-03T10:36:49.113Z</time></trkpt><trkpt lat="45.129775" lon="7.3950017"><ele>559.0</ele><time>2026-05-03T10:36:50.112Z</time></trkpt><trkpt lat="45.1296517" lon="7.3951067"><ele>557.0</ele><time>2026-05-03T10:36:51.113Z</time></trkpt><trkpt lat="45.1295333" lon="7.3952183"><ele>555.0</ele><time>2026-05-03T10:36:52.11Z</time></trkpt><trkpt lat="45.1294183" lon="7.3953567"><ele>553.0</ele><time>2026-05-03T10:36:53.115Z</time></trkpt><trkpt lat="45.1293117" lon="7.3954933"><ele>551.0</ele><time>2026-05-03T10:36:54.116Z</time></trkpt><trkpt lat="45.12921" lon="7.39564"><ele>549.0</ele><time>2026-05-03T10:36:55.112Z</time></trkpt><trkpt lat="45.1291233" lon="7.39578"><ele>547.0</ele><time>2026-05-03T10:36:56.11Z</time></trkpt><trkpt lat="45.1290433" lon="7.3959083"><ele>545.0</ele><time>2026-05-03T10:36:57.114Z</time></trkpt><trkpt lat="45.1289717" lon="7.3960117"><ele>543.0</ele><time>2026-05-03T10:36:58.114Z</time></trkpt><trkpt lat="45.1289167" lon="7.39609"><ele>541.0</ele><time>2026-05-03T10:36:59.114Z</time></trkpt><trkpt lat="45.1288267" lon="7.3961617"><ele>538.0</ele><time>2026-05-03T10:37:01.11Z</time></trkpt><trkpt lat="45.1287083" lon="7.3960417"><ele>535.0</ele><time>2026-05-03T10:37:03.111Z</time></trkpt><trkpt lat="45.1286267" lon="7.3958733"><ele>532.0</ele><time>2026-05-03T10:37:04.114Z</time></trkpt><trkpt lat="45.1285167" lon="7.395645"><ele>532.6666666666667</ele><time>2026-05-03T10:37:05.115Z</time></trkpt><trkpt lat="45.1283883" lon="7.3954083"><ele>533.3333333333334</ele><time>2026-05-03T10:37:06.111Z</time></trkpt><trkpt lat="45.1282617" lon="7.39516"><ele>534.0</ele><time>2026-05-03T10:37:07.112Z</time></trkpt><trkpt lat="45.12815" lon="7.394935"><ele>530.3333333333334</ele><time>2026-05-03T10:37:08.114Z</time></trkpt><trkpt lat="45.12803" lon="7.3947133"><ele>526.6666666666667</ele><time>2026-05-03T10:37:09.114Z</time></trkpt><trkpt lat="45.1279083" lon="7.3944933"><ele>523.0</ele><time>2026-05-03T10:37:10.114Z</time></trkpt><trkpt lat="45.1277983" lon="7.3942983"><ele>523.0</ele><time>2026-05-03T10:37:11.113Z</time></trkpt><trkpt lat="45.12769" lon="7.39413"><ele>523.0</ele><time>2026-05-03T10:37:12.11Z</time></trkpt><trkpt lat="45.1275883" lon="7.3939917"><ele>523.0</ele><time>2026-05-03T10:37:13.113Z</time></trkpt><trkpt lat="45.1274633" lon="7.3938867"><ele>523.0</ele><time>2026-05-03T10:37:14.118Z</time></trkpt><trkpt lat="45.1273117" lon="7.3937983"><ele>520.6666666666667</ele><time>2026-05-03T10:37:15.111Z</time></trkpt><trkpt lat="45.1271383" lon="7.3937183"><ele>518.3333333333334</ele><time>2026-05-03T10:37:16.112Z</time></trkpt><trkpt lat="45.1269517" lon="7.39364"><ele>516.0</ele><time>2026-05-03T10:37:17.113Z</time></trkpt><trkpt lat="45.126775" lon="7.3935583"><ele>516.0</ele><time>2026-05-03T10:37:18.112Z</time></trkpt><trkpt lat="45.1266017" lon="7.3934783"><ele>516.0</ele><time>2026-05-03T10:37:19.115Z</time></trkpt><trkpt lat="45.126435" lon="7.3933917"><ele>516.0</ele><time>2026-05-03T10:37:20.114Z</time></trkpt><trkpt lat="45.1262667" lon="7.3933083"><ele>512.3333333333334</ele><time>2026-05-03T10:37:21.112Z</time></trkpt><trkpt lat="45.1261083" lon="7.3932283"><ele>508.6666666666667</ele><time>2026-05-03T10:37:22.111Z</time></trkpt><trkpt lat="45.12596" lon="7.393155"><ele>505.0</ele><time>2026-05-03T10:37:23.115Z</time></trkpt><trkpt lat="45.1258267" lon="7.39309"><ele>503.4</ele><time>2026-05-03T10:37:24.111Z</time></trkpt><trkpt lat="45.125715" lon="7.3930483"><ele>501.8</ele><time>2026-05-03T10:37:25.114Z</time></trkpt><trkpt lat="45.1256217" lon="7.3930333"><ele>500.20000000000005</ele><time>2026-05-03T10:37:26.111Z</time></trkpt><trkpt lat="45.1255267" lon="7.39308"><ele>498.6</ele><time>2026-05-03T10:37:27.112Z</time></trkpt><trkpt lat="45.1254517" lon="7.3931767"><ele>497.0</ele><time>2026-05-03T10:37:28.112Z</time></trkpt><trkpt lat="45.1253867" lon="7.3933183"><ele>497.0</ele><time>2026-05-03T10:37:29.11Z</time></trkpt><trkpt lat="45.1253367" lon="7.39348"><ele>497.0</ele><time>2026-05-03T10:37:30.111Z</time></trkpt><trkpt lat="45.12529" lon="7.393635"><ele>497.0</ele><time>2026-05-03T10:37:31.115Z</time></trkpt><trkpt lat="45.125245" lon="7.3937833"><ele>497.0</ele><time>2026-05-03T10:37:32.112Z</time></trkpt><trkpt lat="45.1251967" lon="7.393905"><ele>497.0</ele><time>2026-05-03T10:37:33.119Z</time></trkpt><trkpt lat="45.1251433" lon="7.3939817"><ele>497.00000000000006</ele><time>2026-05-03T10:37:34.114Z</time></trkpt><trkpt lat="45.1250683" lon="7.39396"><ele>497.00000000000006</ele><time>2026-05-03T10:37:35.117Z</time></trkpt><trkpt lat="45.1249917" lon="7.3939017"><ele>497.0</ele><time>2026-05-03T10:37:36.11Z</time></trkpt><trkpt lat="45.1249333" lon="7.3937917"><ele>497.0</ele><time>2026-05-03T10:37:37.112Z</time></trkpt><trkpt lat="45.12488" lon="7.3936383"><ele>493.5</ele><time>2026-05-03T10:37:38.113Z</time></trkpt><trkpt lat="45.1248283" lon="7.3934683"><ele>490.0</ele><time>2026-05-03T10:37:39.112Z</time></trkpt><trkpt lat="45.1247883" lon="7.393305"><ele>486.5</ele><time>2026-05-03T10:37:40.113Z</time></trkpt><trkpt lat="45.1247417" lon="7.3931683"><ele>483.0</ele><time>2026-05-03T10:37:41.11Z</time></trkpt><trkpt lat="45.1246967" lon="7.3930567"><ele>483.0</ele><time>2026-05-03T10:37:42.11Z</time></trkpt><trkpt lat="45.1246283" lon="7.3929917"><ele>482.99999999999994</ele><time>2026-05-03T10:37:43.114Z</time></trkpt><trkpt lat="45.1245433" lon="7.3929833"><ele>482.99999999999994</ele><time>2026-05-03T10:37:44.112Z</time></trkpt><trkpt lat="45.1244667" lon="7.39301"><ele>483.0</ele><time>2026-05-03T10:37:45.112Z</time></trkpt><trkpt lat="45.1243817" lon="7.39307"><ele>483.0</ele><time>2026-05-03T10:37:46.112Z</time></trkpt><trkpt lat="45.124285" lon="7.3931767"><ele>483.0</ele><time>2026-05-03T10:37:47.11Z</time></trkpt><trkpt lat="45.1241917" lon="7.3932683"><ele>482.99999999999994</ele><time>2026-05-03T10:37:48.114Z</time></trkpt><trkpt lat="45.1241183" lon="7.3933117"><ele>482.99999999999994</ele><time>2026-05-03T10:37:49.114Z</time></trkpt><trkpt lat="45.1240467" lon="7.3933667"><ele>483.0</ele><time>2026-05-03T10:37:50.11Z</time></trkpt><trkpt lat="45.123935" lon="7.393325"><ele>483.0</ele><time>2026-05-03T10:37:52.114Z</time></trkpt><trkpt lat="45.1238833" lon="7.393225"><ele>480.25</ele><time>2026-05-03T10:37:53.111Z</time></trkpt><trkpt lat="45.1238383" lon="7.39311"><ele>477.5</ele><time>2026-05-03T10:37:54.113Z</time></trkpt><trkpt lat="45.1238033" lon="7.39292"><ele>474.75</ele><time>2026-05-03T10:37:55.113Z</time></trkpt><trkpt lat="45.1237567" lon="7.3927233"><ele>472.0</ele><time>2026-05-03T10:37:56.115Z</time></trkpt><trkpt lat="45.1237133" lon="7.392525"><ele>472.0</ele><time>2026-05-03T10:37:57.114Z</time></trkpt><trkpt lat="45.12367" lon="7.3923317"><ele>472.0</ele><time>2026-05-03T10:37:58.112Z</time></trkpt><trkpt lat="45.1236267" lon="7.3921583"><ele>472.0</ele><time>2026-05-03T10:37:59.11Z</time></trkpt><trkpt lat="45.123565" lon="7.3919967"><ele>472.0</ele><time>2026-05-03T10:38:00.112Z</time></trkpt><trkpt lat="45.1234883" lon="7.39185"><ele>472.6666666666667</ele><time>2026-05-03T10:38:01.112Z</time></trkpt><trkpt lat="45.1233783" lon="7.391705"><ele>473.33333333333337</ele><time>2026-05-03T10:38:02.113Z</time></trkpt><trkpt lat="45.123255" lon="7.3915583"><ele>474.0</ele><time>2026-05-03T10:38:03.112Z</time></trkpt><trkpt lat="45.1231333" lon="7.3914183"><ele>470.25</ele><time>2026-05-03T10:38:04.113Z</time></trkpt><trkpt lat="45.1230217" lon="7.3912783"><ele>466.5</ele><time>2026-05-03T10:38:05.116Z</time></trkpt><trkpt lat="45.1229183" lon="7.3911517"><ele>462.75</ele><time>2026-05-03T10:38:06.114Z</time></trkpt><trkpt lat="45.1228333" lon="7.3910417"><ele>459.0</ele><time>2026-05-03T10:38:07.111Z</time></trkpt><trkpt lat="45.12277" lon="7.3909583"><ele>459.0</ele><time>2026-05-03T10:38:08.112Z</time></trkpt><trkpt lat="45.1227017" lon="7.3909"><ele>459.0</ele><time>2026-05-03T10:38:09.116Z</time></trkpt><trkpt lat="45.1226367" lon="7.3909133"><ele>459.0</ele><time>2026-05-03T10:38:10.111Z</time></trkpt><trkpt lat="45.1225733" lon="7.390935"><ele>459.0</ele><time>2026-05-03T10:38:11.116Z</time></trkpt><trkpt lat="45.122535" lon="7.3910917"><ele>459.0</ele><time>2026-05-03T10:38:12.115Z</time></trkpt><trkpt lat="45.1225167" lon="7.3912583"><ele>459.0</ele><time>2026-05-03T10:38:13.114Z</time></trkpt><trkpt lat="45.1225" lon="7.3914417"><ele>458.5</ele><time>2026-05-03T10:38:14.111Z</time></trkpt><trkpt lat="45.122485" lon="7.3916333"><ele>458.0</ele><time>2026-05-03T10:38:15.113Z</time></trkpt><trkpt lat="45.122465" lon="7.3918183"><ele>457.5</ele><time>2026-05-03T10:38:16.115Z</time></trkpt><trkpt lat="45.12244" lon="7.3920033"><ele>457.0</ele><time>2026-05-03T10:38:17.112Z</time></trkpt><trkpt lat="45.1224133" lon="7.3921817"><ele>452.75</ele><time>2026-05-03T10:38:18.112Z</time></trkpt><trkpt lat="45.1223717" lon="7.3923567"><ele>448.5</ele><time>2026-05-03T10:38:19.112Z</time></trkpt><trkpt lat="45.1223183" lon="7.3925183"><ele>444.25</ele><time>2026-05-03T10:38:20.11Z</time></trkpt><trkpt lat="45.1222617" lon="7.3926817"><ele>440.0</ele><time>2026-05-03T10:38:21.112Z</time></trkpt><trkpt lat="45.1221983" lon="7.3928517"><ele>439.75</ele><time>2026-05-03T10:38:22.112Z</time></trkpt><trkpt lat="45.12214" lon="7.39303"><ele>439.5</ele><time>2026-05-03T10:38:23.114Z</time></trkpt><trkpt lat="45.12208" lon="7.3932033"><ele>439.25</ele><time>2026-05-03T10:38:24.112Z</time></trkpt><trkpt lat="45.12202" lon="7.3933767"><ele>439.0</ele><time>2026-05-03T10:38:25.111Z</time></trkpt><trkpt lat="45.1219617" lon="7.3935433"><ele>439.0</ele><time>2026-05-03T10:38:26.11Z</time></trkpt><trkpt lat="45.1219017" lon="7.3937017"><ele>439.0</ele><time>2026-05-03T10:38:27.116Z</time></trkpt><trkpt lat="45.1218483" lon="7.3938433"><ele>439.0</ele><time>2026-05-03T10:38:28.11Z</time></trkpt><trkpt lat="45.1217933" lon="7.39396"><ele>439.0</ele><time>2026-05-03T10:38:29.111Z</time></trkpt><trkpt lat="45.1217317" lon="7.39404"><ele>439.0</ele><time>2026-05-03T10:38:30.111Z</time></trkpt><trkpt lat="45.1216717" lon="7.3940933"><ele>438.79999999999995</ele><time>2026-05-03T10:38:31.112Z</time></trkpt><trkpt lat="45.1215917" lon="7.3940867"><ele>438.59999999999997</ele><time>2026-05-03T10:38:32.111Z</time></trkpt><trkpt lat="45.1215217" lon="7.394035"><ele>438.4</ele><time>2026-05-03T10:38:33.112Z</time></trkpt><trkpt lat="45.1214633" lon="7.3939267"><ele>438.2</ele><time>2026-05-03T10:38:34.112Z</time></trkpt><trkpt lat="45.121405" lon="7.3937767"><ele>438.0</ele><time>2026-05-03T10:38:35.116Z</time></trkpt><trkpt lat="45.1213433" lon="7.3935817"><ele>433.33333333333337</ele><time>2026-05-03T10:38:36.11Z</time></trkpt><trkpt lat="45.1212767" lon="7.3933367"><ele>428.6666666666667</ele><time>2026-05-03T10:38:37.11Z</time></trkpt><trkpt lat="45.1212133" lon="7.393085"><ele>424.0</ele><time>2026-05-03T10:38:38.112Z</time></trkpt><trkpt lat="45.1211633" lon="7.392825"><ele>424.0</ele><time>2026-05-03T10:38:39.112Z</time></trkpt><trkpt lat="45.1211217" lon="7.3925767"><ele>424.0</ele><time>2026-05-03T10:38:40.113Z</time></trkpt><trkpt lat="45.1210883" lon="7.3923333"><ele>424.0</ele><time>2026-05-03T10:38:41.113Z</time></trkpt><trkpt lat="45.1210633" lon="7.3921117"><ele>423.33333333333337</ele><time>2026-05-03T10:38:42.112Z</time></trkpt><trkpt lat="45.121045" lon="7.3918967"><ele>422.66666666666663</ele><time>2026-05-03T10:38:43.116Z</time></trkpt><trkpt lat="45.1210433" lon="7.391675"><ele>422.0</ele><time>2026-05-03T10:38:44.113Z</time></trkpt><trkpt lat="45.1210583" lon="7.3914383"><ele>420.0</ele><time>2026-05-03T10:38:45.116Z</time></trkpt><trkpt lat="45.1210783" lon="7.3911917"><ele>418.0</ele><time>2026-05-03T10:38:46.113Z</time></trkpt><trkpt lat="45.1210967" lon="7.3909367"><ele>416.0</ele><time>2026-05-03T10:38:47.11Z</time></trkpt><trkpt lat="45.1211083" lon="7.39067"><ele>413.66666666666663</ele><time>2026-05-03T10:38:48.111Z</time></trkpt><trkpt lat="45.1211217" lon="7.3904083"><ele>411.33333333333337</ele><time>2026-05-03T10:38:49.114Z</time></trkpt><trkpt lat="45.12113" lon="7.3901517"><ele>409.0</ele><time>2026-05-03T10:38:50.112Z</time></trkpt><trkpt lat="45.1211233" lon="7.3898967"><ele>407.6666666666667</ele><time>2026-05-03T10:38:51.112Z</time></trkpt><trkpt lat="45.1211117" lon="7.3896633"><ele>406.33333333333337</ele><time>2026-05-03T10:38:52.117Z</time></trkpt><trkpt lat="45.121085" lon="7.3894233"><ele>405.0</ele><time>2026-05-03T10:38:53.113Z</time></trkpt><trkpt lat="45.1210583" lon="7.3892017"><ele>405.0</ele><time>2026-05-03T10:38:54.112Z</time></trkpt><trkpt lat="45.1210283" lon="7.3890017"><ele>405.0</ele><time>2026-05-03T10:38:55.114Z</time></trkpt><trkpt lat="45.12098" lon="7.3888117"><ele>405.0</ele><time>2026-05-03T10:38:56.111Z</time></trkpt><trkpt lat="45.120905" lon="7.3886317"><ele>405.0</ele><time>2026-05-03T10:38:57.111Z</time></trkpt><trkpt lat="45.1208033" lon="7.3884633"><ele>401.5</ele><time>2026-05-03T10:38:58.118Z</time></trkpt><trkpt lat="45.1206967" lon="7.3883133"><ele>398.0</ele><time>2026-05-03T10:38:59.116Z</time></trkpt><trkpt lat="45.1206033" lon="7.388165"><ele>394.5</ele><time>2026-05-03T10:39:00.11Z</time></trkpt><trkpt lat="45.1205333" lon="7.38801"><ele>391.0</ele><time>2026-05-03T10:39:01.112Z</time></trkpt><trkpt lat="45.1204867" lon="7.387855"><ele>391.00000000000006</ele><time>2026-05-03T10:39:02.111Z</time></trkpt><trkpt lat="45.1204683" lon="7.3877083"><ele>391.0</ele><time>2026-05-03T10:39:03.115Z</time></trkpt><trkpt lat="45.1204483" lon="7.3875833"><ele>391.0</ele><time>2026-05-03T10:39:04.111Z</time></trkpt><trkpt lat="45.120425" lon="7.3874667"><ele>391.0</ele><time>2026-05-03T10:39:05.116Z</time></trkpt><trkpt lat="45.12039" lon="7.3873667"><ele>391.00000000000006</ele><time>2026-05-03T10:39:06.115Z</time></trkpt><trkpt lat="45.1203467" lon="7.3872983"><ele>391.0</ele><time>2026-05-03T10:39:07.11Z</time></trkpt><trkpt lat="45.1202433" lon="7.3872467"><ele>391.0</ele><time>2026-05-03T10:39:09.116Z</time></trkpt><trkpt lat="45.120175" lon="7.3875467"><ele>391.0</ele><time>2026-05-03T10:39:10.11Z</time></trkpt><trkpt lat="45.1201733" lon="7.387735"><ele>391.0</ele><time>2026-05-03T10:39:11.112Z</time></trkpt><trkpt lat="45.1201967" lon="7.3879133"><ele>389.25</ele><time>2026-05-03T10:39:12.114Z</time></trkpt><trkpt lat="45.120235" lon="7.3880967"><ele>387.5</ele><time>2026-05-03T10:39:13.114Z</time></trkpt><trkpt lat="45.120265" lon="7.3882917"><ele>385.75</ele><time>2026-05-03T10:39:14.111Z</time></trkpt><trkpt lat="45.12029" lon="7.3884833"><ele>384.0</ele><time>2026-05-03T10:39:15.113Z</time></trkpt><trkpt lat="45.1202933" lon="7.3886683"><ele>383.75</ele><time>2026-05-03T10:39:16.113Z</time></trkpt><trkpt lat="45.120275" lon="7.3888683"><ele>383.5</ele><time>2026-05-03T10:39:17.11Z</time></trkpt><trkpt lat="45.1202167" lon="7.3890517"><ele>383.25</ele><time>2026-05-03T10:39:18.113Z</time></trkpt><trkpt lat="45.1201467" lon="7.3892317"><ele>383.0</ele><time>2026-05-03T10:39:19.114Z</time></trkpt><trkpt lat="45.1200583" lon="7.38941"><ele>383.0</ele><time>2026-05-03T10:39:20.112Z</time></trkpt><trkpt lat="45.1199633" lon="7.3895883"><ele>383.0</ele><time>2026-05-03T10:39:21.114Z</time></trkpt><trkpt lat="45.1198667" lon="7.3897483"><ele>383.0</ele><time>2026-05-03T10:39:22.113Z</time></trkpt><trkpt lat="45.1197667" lon="7.3898983"><ele>380.25</ele><time>2026-05-03T10:39:23.115Z</time></trkpt><trkpt lat="45.1196567" lon="7.390025"><ele>377.5</ele><time>2026-05-03T10:39:24.114Z</time></trkpt><trkpt lat="45.1195317" lon="7.39012"><ele>374.75</ele><time>2026-05-03T10:39:25.11Z</time></trkpt><trkpt lat="45.1194033" lon="7.3901833"><ele>372.0</ele><time>2026-05-03T10:39:26.113Z</time></trkpt><trkpt lat="45.1192783" lon="7.390205"><ele>372.0</ele><time>2026-05-03T10:39:27.112Z</time></trkpt><trkpt lat="45.1191483" lon="7.3902033"><ele>372.0</ele><time>2026-05-03T10:39:28.113Z</time></trkpt><trkpt lat="45.119015" lon="7.390165"><ele>372.0</ele><time>2026-05-03T10:39:29.109Z</time></trkpt><trkpt lat="45.11887" lon="7.39009"><ele>372.0</ele><time>2026-05-03T10:39:30.11Z</time></trkpt><trkpt lat="45.11873" lon="7.3899867"><ele>370.0</ele><time>2026-05-03T10:39:31.112Z</time></trkpt><trkpt lat="45.1185917" lon="7.3898733"><ele>368.0</ele><time>2026-05-03T10:39:32.11Z</time></trkpt><trkpt lat="45.1184533" lon="7.3897583"><ele>366.0</ele><time>2026-05-03T10:39:33.113Z</time></trkpt><trkpt lat="45.1183233" lon="7.38965"><ele>365.75</ele><time>2026-05-03T10:39:34.121Z</time></trkpt><trkpt lat="45.1181983" lon="7.38955"><ele>365.5</ele><time>2026-05-03T10:39:35.11Z</time></trkpt><trkpt lat="45.1180833" lon="7.38945"><ele>365.25</ele><time>2026-05-03T10:39:36.114Z</time></trkpt><trkpt lat="45.117975" lon="7.3893583"><ele>365.0</ele><time>2026-05-03T10:39:37.114Z</time></trkpt><trkpt lat="45.11788" lon="7.38928"><ele>365.0</ele><time>2026-05-03T10:39:38.113Z</time></trkpt><trkpt lat="45.1178033" lon="7.3892167"><ele>365.0</ele><time>2026-05-03T10:39:39.114Z</time></trkpt><trkpt lat="45.1177317" lon="7.3891633"><ele>365.0</ele><time>2026-05-03T10:39:40.112Z</time></trkpt><trkpt lat="45.1176767" lon="7.3891183"><ele>365.0</ele><time>2026-05-03T10:39:41.112Z</time></trkpt><trkpt lat="45.1176" lon="7.38905"><ele>365.0</ele><time>2026-05-03T10:39:43.112Z</time></trkpt><trkpt lat="45.1175333" lon="7.3889833"><ele>365.0</ele><time>2026-05-03T10:40:10.114Z</time></trkpt><trkpt lat="45.1174683" lon="7.3889317"><ele>364.8</ele><time>2026-05-03T10:40:11.112Z</time></trkpt><trkpt lat="45.1173933" lon="7.3888767"><ele>364.6</ele><time>2026-05-03T10:40:12.112Z</time></trkpt><trkpt lat="45.1173033" lon="7.38881"><ele>364.4</ele><time>2026-05-03T10:40:13.113Z</time></trkpt><trkpt lat="45.1171967" lon="7.38873"><ele>364.2</ele><time>2026-05-03T10:40:14.114Z</time></trkpt><trkpt lat="45.1170783" lon="7.3886433"><ele>364.0</ele><time>2026-05-03T10:40:15.112Z</time></trkpt><trkpt lat="45.1169433" lon="7.38856"><ele>363.3333333333333</ele><time>2026-05-03T10:40:16.111Z</time></trkpt><trkpt lat="45.116795" lon="7.388485"><ele>362.6666666666667</ele><time>2026-05-03T10:40:17.115Z</time></trkpt><trkpt lat="45.11663" lon="7.3884267"><ele>362.0</ele><time>2026-05-03T10:40:18.114Z</time></trkpt><trkpt lat="45.1164583" lon="7.388395"><ele>362.0</ele><time>2026-05-03T10:40:19.114Z</time></trkpt><trkpt lat="45.1162833" lon="7.3883817"><ele>362.0</ele><time>2026-05-03T10:40:20.11Z</time></trkpt><trkpt lat="45.1160983" lon="7.38839"><ele>362.0</ele><time>2026-05-03T10:40:21.114Z</time></trkpt><trkpt lat="45.1159183" lon="7.3884233"><ele>362.0</ele><time>2026-05-03T10:40:22.112Z</time></trkpt><trkpt lat="45.1157417" lon="7.3884783"><ele>362.0</ele><time>2026-05-03T10:40:23.113Z</time></trkpt><trkpt lat="45.1155767" lon="7.3885567"><ele>362.0</ele><time>2026-05-03T10:40:24.11Z</time></trkpt><trkpt lat="45.1154267" lon="7.3886533"><ele>361.5</ele><time>2026-05-03T10:40:25.109Z</time></trkpt><trkpt lat="45.1152933" lon="7.38876"><ele>361.0</ele><time>2026-05-03T10:40:26.111Z</time></trkpt><trkpt lat="45.1151683" lon="7.38887"><ele>360.5</ele><time>2026-05-03T10:40:27.113Z</time></trkpt><trkpt lat="45.1150583" lon="7.3889517"><ele>360.0</ele><time>2026-05-03T10:40:28.111Z</time></trkpt><trkpt lat="45.1149633" lon="7.3890217"><ele>359.4</ele><time>2026-05-03T10:40:29.109Z</time></trkpt><trkpt lat="45.1148817" lon="7.389115"><ele>358.8</ele><time>2026-05-03T10:40:30.114Z</time></trkpt><trkpt lat="45.1148183" lon="7.389225"><ele>358.20000000000005</ele><time>2026-05-03T10:40:31.116Z</time></trkpt><trkpt lat="45.1147533" lon="7.38933"><ele>357.6</ele><time>2026-05-03T10:40:32.111Z</time></trkpt><trkpt lat="45.1146883" lon="7.3894283"><ele>357.0</ele><time>2026-05-03T10:40:33.114Z</time></trkpt><trkpt lat="45.1146367" lon="7.389545"><ele>357.5</ele><time>2026-05-03T10:40:34.113Z</time></trkpt><trkpt lat="45.114595" lon="7.3896983"><ele>358.0</ele><time>2026-05-03T10:40:35.114Z</time></trkpt><trkpt lat="45.11454" lon="7.389855"><ele>358.5</ele><time>2026-05-03T10:40:36.115Z</time></trkpt><trkpt lat="45.114465" lon="7.3900367"><ele>359.0</ele><time>2026-05-03T10:40:37.113Z</time></trkpt><trkpt lat="45.1143783" lon="7.3902383"><ele>359.0</ele><time>2026-05-03T10:40:38.111Z</time></trkpt><trkpt lat="45.1142833" lon="7.3904467"><ele>359.0</ele><time>2026-05-03T10:40:39.116Z</time></trkpt><trkpt lat="45.1141883" lon="7.3906567"><ele>359.0</ele><time>2026-05-03T10:40:40.116Z</time></trkpt><trkpt lat="45.114095" lon="7.3908567"><ele>358.6666666666667</ele><time>2026-05-03T10:40:41.113Z</time></trkpt><trkpt lat="45.1140067" lon="7.3910467"><ele>358.3333333333333</ele><time>2026-05-03T10:40:42.114Z</time></trkpt><trkpt lat="45.1139167" lon="7.39123"><ele>358.0</ele><time>2026-05-03T10:40:43.112Z</time></trkpt><trkpt lat="45.1138317" lon="7.3914117"><ele>358.66666666666663</ele><time>2026-05-03T10:40:44.115Z</time></trkpt><trkpt lat="45.1137467" lon="7.39159"><ele>359.3333333333333</ele><time>2026-05-03T10:40:45.113Z</time></trkpt><trkpt lat="45.1136617" lon="7.3917733"><ele>360.0</ele><time>2026-05-03T10:40:46.111Z</time></trkpt><trkpt lat="45.113575" lon="7.3919617"><ele>360.0</ele><time>2026-05-03T10:40:47.113Z</time></trkpt><trkpt lat="45.1134817" lon="7.392155"><ele>360.0</ele><time>2026-05-03T10:40:48.113Z</time></trkpt><trkpt lat="45.1133867" lon="7.39235"><ele>360.0</ele><time>2026-05-03T10:40:49.112Z</time></trkpt><trkpt lat="45.1132917" lon="7.3925517"><ele>359.0</ele><time>2026-05-03T10:40:50.113Z</time></trkpt><trkpt lat="45.1131917" lon="7.392765"><ele>358.0</ele><time>2026-05-03T10:40:51.117Z</time></trkpt><trkpt lat="45.11309" lon="7.3929833"><ele>357.0</ele><time>2026-05-03T10:40:52.112Z</time></trkpt><trkpt lat="45.112995" lon="7.3931967"><ele>357.0</ele><time>2026-05-03T10:40:53.11Z</time></trkpt><trkpt lat="45.1128983" lon="7.3934067"><ele>357.0</ele><time>2026-05-03T10:40:54.11Z</time></trkpt><trkpt lat="45.1128017" lon="7.3936083"><ele>357.0</ele><time>2026-05-03T10:40:55.112Z</time></trkpt><trkpt lat="45.1127083" lon="7.3938017"><ele>357.3333333333333</ele><time>2026-05-03T10:40:56.118Z</time></trkpt><trkpt lat="45.112615" lon="7.3939933"><ele>357.66666666666663</ele><time>2026-05-03T10:40:57.117Z</time></trkpt><trkpt lat="45.112525" lon="7.394185"><ele>358.0</ele><time>2026-05-03T10:40:58.117Z</time></trkpt><trkpt lat="45.1124417" lon="7.3943683"><ele>357.3333333333333</ele><time>2026-05-03T10:40:59.113Z</time></trkpt><trkpt lat="45.11236" lon="7.3945517"><ele>356.6666666666667</ele><time>2026-05-03T10:41:00.109Z</time></trkpt><trkpt lat="45.1122733" lon="7.3947383"><ele>356.0</ele><time>2026-05-03T10:41:01.117Z</time></trkpt><trkpt lat="45.11218" lon="7.3949267"><ele>355.0</ele><time>2026-05-03T10:41:02.114Z</time></trkpt><trkpt lat="45.1120833" lon="7.395125"><ele>354.0</ele><time>2026-05-03T10:41:03.113Z</time></trkpt><trkpt lat="45.1119867" lon="7.3953333"><ele>353.0</ele><time>2026-05-03T10:41:04.111Z</time></trkpt><trkpt lat="45.1118933" lon="7.3955333"><ele>353.0</ele><time>2026-05-03T10:41:05.114Z</time></trkpt><trkpt lat="45.111795" lon="7.3957383"><ele>353.0</ele><time>2026-05-03T10:41:06.112Z</time></trkpt><trkpt lat="45.111695" lon="7.3959483"><ele>353.0</ele><time>2026-05-03T10:41:07.114Z</time></trkpt><trkpt lat="45.111595" lon="7.396155"><ele>353.0</ele><time>2026-05-03T10:41:08.113Z</time></trkpt><trkpt lat="45.1115017" lon="7.3963533"><ele>353.0</ele><time>2026-05-03T10:41:09.112Z</time></trkpt><trkpt lat="45.1114133" lon="7.3965367"><ele>353.0</ele><time>2026-05-03T10:41:10.111Z</time></trkpt><trkpt lat="45.1113283" lon="7.3967"><ele>353.0</ele><time>2026-05-03T10:41:11.112Z</time></trkpt><trkpt lat="45.1112483" lon="7.3968533"><ele>353.0</ele><time>2026-05-03T10:41:12.115Z</time></trkpt><trkpt lat="45.11117" lon="7.397"><ele>353.0</ele><time>2026-05-03T10:41:13.112Z</time></trkpt><trkpt lat="45.1111" lon="7.397135"><ele>353.0</ele><time>2026-05-03T10:41:14.116Z</time></trkpt><trkpt lat="45.1110217" lon="7.3972633"><ele>353.0</ele><time>2026-05-03T10:41:15.111Z</time></trkpt><trkpt lat="45.1109383" lon="7.3973917"><ele>353.0</ele><time>2026-05-03T10:41:16.111Z</time></trkpt><trkpt lat="45.1108517" lon="7.397535"><ele>353.0</ele><time>2026-05-03T10:41:17.115Z</time></trkpt><trkpt lat="45.1107617" lon="7.3976767"><ele>353.0</ele><time>2026-05-03T10:41:18.112Z</time></trkpt><trkpt lat="45.1106683" lon="7.3978217"><ele>353.0</ele><time>2026-05-03T10:41:19.114Z</time></trkpt><trkpt lat="45.1105717" lon="7.3979667"><ele>353.0</ele><time>2026-05-03T10:41:20.115Z</time></trkpt><trkpt lat="45.110465" lon="7.3981233"><ele>353.0</ele><time>2026-05-03T10:41:21.113Z</time></trkpt><trkpt lat="45.11034" lon="7.39829"><ele>353.0</ele><time>2026-05-03T10:41:22.113Z</time></trkpt><trkpt lat="45.1102" lon="7.39847"><ele>353.0</ele><time>2026-05-03T10:41:23.113Z</time></trkpt><trkpt lat="45.11005" lon="7.3986517"><ele>353.0</ele><time>2026-05-03T10:41:24.11Z</time></trkpt><trkpt lat="45.1098933" lon="7.3988233"><ele>353.0</ele><time>2026-05-03T10:41:25.113Z</time></trkpt><trkpt lat="45.1097383" lon="7.3989833"><ele>353.0</ele><time>2026-05-03T10:41:26.109Z</time></trkpt><trkpt lat="45.1095867" lon="7.39912"><ele>353.0</ele><time>2026-05-03T10:41:27.112Z</time></trkpt><trkpt lat="45.10944" lon="7.3992567"><ele>353.0</ele><time>2026-05-03T10:41:28.111Z</time></trkpt><trkpt lat="45.1092967" lon="7.3993717"><ele>353.0</ele><time>2026-05-03T10:41:29.11Z</time></trkpt><trkpt lat="45.1091583" lon="7.3994717"><ele>353.0</ele><time>2026-05-03T10:41:30.112Z</time></trkpt><trkpt lat="45.109025" lon="7.3995683"><ele>352.5</ele><time>2026-05-03T10:41:31.112Z</time></trkpt><trkpt lat="45.1088967" lon="7.3996617"><ele>352.0</ele><time>2026-05-03T10:41:32.114Z</time></trkpt><trkpt lat="45.108765" lon="7.3997517"><ele>351.5</ele><time>2026-05-03T10:41:33.116Z</time></trkpt><trkpt lat="45.1086267" lon="7.3998367"><ele>351.0</ele><time>2026-05-03T10:41:34.114Z</time></trkpt><trkpt lat="45.10849" lon="7.3999167"><ele>351.0</ele><time>2026-05-03T10:41:35.117Z</time></trkpt><trkpt lat="45.108355" lon="7.39999"><ele>351.0</ele><time>2026-05-03T10:41:36.113Z</time></trkpt><trkpt lat="45.108225" lon="7.4000583"><ele>351.0</ele><time>2026-05-03T10:41:37.115Z</time></trkpt><trkpt lat="45.1081" lon="7.40012"><ele>351.0</ele><time>2026-05-03T10:41:38.111Z</time></trkpt><trkpt lat="45.1079783" lon="7.4001717"><ele>351.25</ele><time>2026-05-03T10:41:39.113Z</time></trkpt><trkpt lat="45.1078467" lon="7.4002133"><ele>351.5</ele><time>2026-05-03T10:41:40.112Z</time></trkpt><trkpt lat="45.1077133" lon="7.4002267"><ele>351.75</ele><time>2026-05-03T10:41:41.111Z</time></trkpt><trkpt lat="45.10759" lon="7.4002183"><ele>352.0</ele><time>2026-05-03T10:41:42.113Z</time></trkpt><trkpt lat="45.1074783" lon="7.40021"><ele>351.6</ele><time>2026-05-03T10:41:43.111Z</time></trkpt><trkpt lat="45.107375" lon="7.40021"><ele>351.20000000000005</ele><time>2026-05-03T10:41:44.111Z</time></trkpt><trkpt lat="45.1072683" lon="7.4002017"><ele>350.8</ele><time>2026-05-03T10:41:45.111Z</time></trkpt><trkpt lat="45.1071733" lon="7.400175"><ele>350.4</ele><time>2026-05-03T10:41:46.11Z</time></trkpt><trkpt lat="45.1070883" lon="7.40017"><ele>350.0</ele><time>2026-05-03T10:41:47.114Z</time></trkpt><trkpt lat="45.10701" lon="7.4001883"><ele>350.0</ele><time>2026-05-03T10:41:48.11Z</time></trkpt><trkpt lat="45.1069533" lon="7.400275"><ele>350.0</ele><time>2026-05-03T10:41:49.118Z</time></trkpt><trkpt lat="45.1069" lon="7.4004083"><ele>350.0</ele><time>2026-05-03T10:41:50.11Z</time></trkpt><trkpt lat="45.10684" lon="7.40053"><ele>350.0</ele><time>2026-05-03T10:41:51.114Z</time></trkpt><trkpt lat="45.1067617" lon="7.400635"><ele>350.0</ele><time>2026-05-03T10:41:52.114Z</time></trkpt><trkpt lat="45.106655" lon="7.4007117"><ele>350.6666666666667</ele><time>2026-05-03T10:41:53.11Z</time></trkpt><trkpt lat="45.1065267" lon="7.4007717"><ele>351.3333333333333</ele><time>2026-05-03T10:41:54.111Z</time></trkpt><trkpt lat="45.1063767" lon="7.40084"><ele>352.0</ele><time>2026-05-03T10:41:55.112Z</time></trkpt><trkpt lat="45.1062133" lon="7.400905"><ele>352.0</ele><time>2026-05-03T10:41:56.111Z</time></trkpt><trkpt lat="45.1060233" lon="7.4009917"><ele>352.0</ele><time>2026-05-03T10:41:57.119Z</time></trkpt><trkpt lat="45.1058117" lon="7.4010867"><ele>352.0</ele><time>2026-05-03T10:41:58.115Z</time></trkpt><trkpt lat="45.10559" lon="7.4011767"><ele>351.5</ele><time>2026-05-03T10:41:59.117Z</time></trkpt><trkpt lat="45.1053667" lon="7.4012667"><ele>351.0</ele><time>2026-05-03T10:42:00.113Z</time></trkpt><trkpt lat="45.1051517" lon="7.40136"><ele>349.3333333333333</ele><time>2026-05-03T10:42:01.114Z</time></trkpt><trkpt lat="45.1049433" lon="7.4014467"><ele>347.66666666666663</ele><time>2026-05-03T10:42:02.11Z</time></trkpt><trkpt lat="45.10474" lon="7.4015333"><ele>346.0</ele><time>2026-05-03T10:42:03.115Z</time></trkpt><trkpt lat="45.1045417" lon="7.4016167"><ele>345.66666666666663</ele><time>2026-05-03T10:42:04.117Z</time></trkpt><trkpt lat="45.1043517" lon="7.4017"><ele>345.3333333333333</ele><time>2026-05-03T10:42:05.112Z</time></trkpt><trkpt lat="45.1041683" lon="7.40178"><ele>345.0</ele><time>2026-05-03T10:42:06.116Z</time></trkpt><trkpt lat="45.1039817" lon="7.401855"><ele>345.6666666666667</ele><time>2026-05-03T10:42:07.112Z</time></trkpt><trkpt lat="45.103795" lon="7.40193"><ele>346.33333333333337</ele><time>2026-05-03T10:42:08.113Z</time></trkpt><trkpt lat="45.1036083" lon="7.4020083"><ele>347.0</ele><time>2026-05-03T10:42:09.116Z</time></trkpt><trkpt lat="45.1034317" lon="7.4020817"><ele>347.0</ele><time>2026-05-03T10:42:10.113Z</time></trkpt><trkpt lat="45.1032517" lon="7.4021567"><ele>347.0</ele><time>2026-05-03T10:42:11.109Z</time></trkpt><trkpt lat="45.10307" lon="7.4022367"><ele>347.0</ele><time>2026-05-03T10:42:12.114Z</time></trkpt><trkpt lat="45.10289" lon="7.4023133"><ele>346.6666666666667</ele><time>2026-05-03T10:42:13.111Z</time></trkpt><trkpt lat="45.1027" lon="7.402395"><ele>346.3333333333333</ele><time>2026-05-03T10:42:14.113Z</time></trkpt><trkpt lat="45.102505" lon="7.402475"><ele>346.0</ele><time>2026-05-03T10:42:15.113Z</time></trkpt><trkpt lat="45.10231" lon="7.402555"><ele>346.0</ele><time>2026-05-03T10:42:16.114Z</time></trkpt><trkpt lat="45.10212" lon="7.40263"><ele>346.0</ele><time>2026-05-03T10:42:17.114Z</time></trkpt><trkpt lat="45.1019417" lon="7.4027"><ele>346.0</ele><time>2026-05-03T10:42:18.113Z</time></trkpt><trkpt lat="45.1017683" lon="7.4027683"><ele>346.0</ele><time>2026-05-03T10:42:19.111Z</time></trkpt><trkpt lat="45.1015983" lon="7.4028383"><ele>346.0</ele><time>2026-05-03T10:42:20.114Z</time></trkpt><trkpt lat="45.1014317" lon="7.402905"><ele>346.0</ele><time>2026-05-03T10:42:21.113Z</time></trkpt><trkpt lat="45.101265" lon="7.402975"><ele>345.66666666666663</ele><time>2026-05-03T10:42:22.111Z</time></trkpt><trkpt lat="45.101095" lon="7.4030483"><ele>345.3333333333333</ele><time>2026-05-03T10:42:23.113Z</time></trkpt><trkpt lat="45.1009183" lon="7.4031183"><ele>345.0</ele><time>2026-05-03T10:42:24.114Z</time></trkpt><trkpt lat="45.1007383" lon="7.4031917"><ele>345.0</ele><time>2026-05-03T10:42:25.118Z</time></trkpt><trkpt lat="45.1005583" lon="7.403265"><ele>345.0</ele><time>2026-05-03T10:42:26.115Z</time></trkpt><trkpt lat="45.100375" lon="7.4033333"><ele>345.0</ele><time>2026-05-03T10:42:27.114Z</time></trkpt><trkpt lat="45.100195" lon="7.403405"><ele>345.0</ele><time>2026-05-03T10:42:28.111Z</time></trkpt><trkpt lat="45.1000167" lon="7.4034733"><ele>345.0</ele><time>2026-05-03T10:42:29.112Z</time></trkpt><trkpt lat="45.0998383" lon="7.4035417"><ele>345.0</ele><time>2026-05-03T10:42:30.114Z</time></trkpt><trkpt lat="45.0996567" lon="7.4035917"><ele>345.0</ele><time>2026-05-03T10:42:31.119Z</time></trkpt><trkpt lat="45.099475" lon="7.4036183"><ele>345.0</ele><time>2026-05-03T10:42:32.114Z</time></trkpt><trkpt lat="45.0992933" lon="7.4036367"><ele>345.0</ele><time>2026-05-03T10:42:33.118Z</time></trkpt><trkpt lat="45.0991167" lon="7.4036567"><ele>344.6666666666667</ele><time>2026-05-03T10:42:34.115Z</time></trkpt><trkpt lat="45.0989467" lon="7.4036767"><ele>344.33333333333337</ele><time>2026-05-03T10:42:35.114Z</time></trkpt><trkpt lat="45.0987817" lon="7.4036917"><ele>344.0</ele><time>2026-05-03T10:42:36.117Z</time></trkpt><trkpt lat="45.0986233" lon="7.4037167"><ele>344.0</ele><time>2026-05-03T10:42:37.115Z</time></trkpt><trkpt lat="45.0984767" lon="7.4037417"><ele>344.0</ele><time>2026-05-03T10:42:38.11Z</time></trkpt><trkpt lat="45.0983417" lon="7.4037667"><ele>344.0</ele><time>2026-05-03T10:42:39.112Z</time></trkpt><trkpt lat="45.098215" lon="7.4038067"><ele>344.0</ele><time>2026-05-03T10:42:40.115Z</time></trkpt><trkpt lat="45.09809" lon="7.40385"><ele>343.75</ele><time>2026-05-03T10:42:41.11Z</time></trkpt><trkpt lat="45.09796" lon="7.4039"><ele>343.5</ele><time>2026-05-03T10:42:42.113Z</time></trkpt><trkpt lat="45.09782" lon="7.4039533"><ele>343.25</ele><time>2026-05-03T10:42:43.112Z</time></trkpt><trkpt lat="45.09767" lon="7.4040083"><ele>343.0</ele><time>2026-05-03T10:42:44.111Z</time></trkpt><trkpt lat="45.0975167" lon="7.4040767"><ele>343.3333333333333</ele><time>2026-05-03T10:42:45.117Z</time></trkpt><trkpt lat="45.09736" lon="7.4041467"><ele>343.6666666666667</ele><time>2026-05-03T10:42:46.112Z</time></trkpt><trkpt lat="45.0971983" lon="7.4042167"><ele>344.0</ele><time>2026-05-03T10:42:47.111Z</time></trkpt><trkpt lat="45.0970383" lon="7.40428"><ele>344.0</ele><time>2026-05-03T10:42:48.112Z</time></trkpt><trkpt lat="45.096875" lon="7.4043483"><ele>344.0</ele><time>2026-05-03T10:42:49.112Z</time></trkpt><trkpt lat="45.0967167" lon="7.4044167"><ele>344.0</ele><time>2026-05-03T10:42:50.11Z</time></trkpt><trkpt lat="45.0965633" lon="7.4044567"><ele>343.5</ele><time>2026-05-03T10:42:51.112Z</time></trkpt><trkpt lat="45.096415" lon="7.4044783"><ele>343.0</ele><time>2026-05-03T10:42:52.113Z</time></trkpt><trkpt lat="45.0962833" lon="7.4044667"><ele>342.5</ele><time>2026-05-03T10:42:53.112Z</time></trkpt><trkpt lat="45.09617" lon="7.404455"><ele>342.0</ele><time>2026-05-03T10:42:54.113Z</time></trkpt><trkpt lat="45.0960817" lon="7.4044183"><ele>341.99999999999994</ele><time>2026-05-03T10:42:55.115Z</time></trkpt><trkpt lat="45.0960033" lon="7.4043667"><ele>342.0</ele><time>2026-05-03T10:42:56.108Z</time></trkpt><trkpt lat="45.0959483" lon="7.4043"><ele>342.0</ele><time>2026-05-03T10:42:57.112Z</time></trkpt><trkpt lat="45.09589" lon="7.4042533"><ele>342.0</ele><time>2026-05-03T10:42:58.112Z</time></trkpt><trkpt lat="45.0958267" lon="7.4042283"><ele>342.0</ele><time>2026-05-03T10:42:59.109Z</time></trkpt><trkpt lat="45.0957583" lon="7.4042367"><ele>341.99999999999994</ele><time>2026-05-03T10:43:00.113Z</time></trkpt><trkpt lat="45.0956933" lon="7.4042683"><ele>342.0</ele><time>2026-05-03T10:43:01.112Z</time></trkpt><trkpt lat="45.0956317" lon="7.4043233"><ele>342.0</ele><time>2026-05-03T10:43:02.11Z</time></trkpt><trkpt lat="45.095585" lon="7.404425"><ele>342.0</ele><time>2026-05-03T10:43:03.117Z</time></trkpt><trkpt lat="45.0955767" lon="7.4045933"><ele>342.0</ele><time>2026-05-03T10:43:04.11Z</time></trkpt><trkpt lat="45.09554" lon="7.4047483"><ele>342.0</ele><time>2026-05-03T10:43:05.113Z</time></trkpt><trkpt lat="45.0954917" lon="7.4049333"><ele>342.0</ele><time>2026-05-03T10:43:06.11Z</time></trkpt><trkpt lat="45.0954433" lon="7.40515"><ele>342.0</ele><time>2026-05-03T10:43:07.115Z</time></trkpt><trkpt lat="45.095395" lon="7.405395"><ele>342.0</ele><time>2026-05-03T10:43:08.115Z</time></trkpt><trkpt lat="45.0953433" lon="7.4056433"><ele>342.0</ele><time>2026-05-03T10:43:09.115Z</time></trkpt><trkpt lat="45.0952967" lon="7.4058833"><ele>342.0</ele><time>2026-05-03T10:43:10.114Z</time></trkpt><trkpt lat="45.095255" lon="7.406105"><ele>342.0</ele><time>2026-05-03T10:43:11.114Z</time></trkpt><trkpt lat="45.0952167" lon="7.40631"><ele>342.0</ele><time>2026-05-03T10:43:12.111Z</time></trkpt><trkpt lat="45.0951817" lon="7.4065017"><ele>342.0</ele><time>2026-05-03T10:43:13.114Z</time></trkpt><trkpt lat="45.095145" lon="7.4066833"><ele>342.0</ele><time>2026-05-03T10:43:14.112Z</time></trkpt><trkpt lat="45.09511" lon="7.406855"><ele>342.0</ele><time>2026-05-03T10:43:15.119Z</time></trkpt><trkpt lat="45.0950783" lon="7.40703"><ele>342.5</ele><time>2026-05-03T10:43:16.109Z</time></trkpt><trkpt lat="45.095045" lon="7.40722"><ele>343.0</ele><time>2026-05-03T10:43:17.112Z</time></trkpt><trkpt lat="45.09501" lon="7.4074267"><ele>343.5</ele><time>2026-05-03T10:43:18.11Z</time></trkpt><trkpt lat="45.0949717" lon="7.40764"><ele>344.0</ele><time>2026-05-03T10:43:19.112Z</time></trkpt><trkpt lat="45.0949333" lon="7.4078467"><ele>343.5</ele><time>2026-05-03T10:43:20.119Z</time></trkpt><trkpt lat="45.094895" lon="7.4080433"><ele>343.0</ele><time>2026-05-03T10:43:21.117Z</time></trkpt><trkpt lat="45.0948567" lon="7.4082233"><ele>342.5</ele><time>2026-05-03T10:43:22.114Z</time></trkpt><trkpt lat="45.0948217" lon="7.4083967"><ele>342.0</ele><time>2026-05-03T10:43:23.113Z</time></trkpt><trkpt lat="45.094795" lon="7.408575"><ele>342.0</ele><time>2026-05-03T10:43:24.112Z</time></trkpt><trkpt lat="45.0947617" lon="7.4087517"><ele>342.0</ele><time>2026-05-03T10:43:25.115Z</time></trkpt><trkpt lat="45.0947367" lon="7.40892"><ele>342.0</ele><time>2026-05-03T10:43:26.115Z</time></trkpt><trkpt lat="45.094735" lon="7.4090933"><ele>342.0</ele><time>2026-05-03T10:43:27.117Z</time></trkpt><trkpt lat="45.0947317" lon="7.409285"><ele>342.0</ele><time>2026-05-03T10:43:28.112Z</time></trkpt><trkpt lat="45.0947367" lon="7.4095067"><ele>342.0</ele><time>2026-05-03T10:43:29.115Z</time></trkpt><trkpt lat="45.0947433" lon="7.4097517"><ele>342.0</ele><time>2026-05-03T10:43:30.113Z</time></trkpt><trkpt lat="45.0947517" lon="7.410015"><ele>341.6666666666667</ele><time>2026-05-03T10:43:31.111Z</time></trkpt><trkpt lat="45.0947633" lon="7.4102967"><ele>341.33333333333337</ele><time>2026-05-03T10:43:32.112Z</time></trkpt><trkpt lat="45.0947733" lon="7.4105767"><ele>341.0</ele><time>2026-05-03T10:43:33.114Z</time></trkpt><trkpt lat="45.0947883" lon="7.4108467"><ele>341.0</ele><time>2026-05-03T10:43:34.111Z</time></trkpt><trkpt lat="45.0948067" lon="7.4111083"><ele>341.0</ele><time>2026-05-03T10:43:35.113Z</time></trkpt><trkpt lat="45.094835" lon="7.4113683"><ele>341.0</ele><time>2026-05-03T10:43:36.115Z</time></trkpt><trkpt lat="45.0948767" lon="7.4116183"><ele>340.6666666666667</ele><time>2026-05-03T10:43:37.114Z</time></trkpt><trkpt lat="45.0949183" lon="7.4118667"><ele>340.3333333333333</ele><time>2026-05-03T10:43:38.116Z</time></trkpt><trkpt lat="45.094955" lon="7.41211"><ele>340.0</ele><time>2026-05-03T10:43:39.113Z</time></trkpt><trkpt lat="45.0949917" lon="7.412355"><ele>340.66666666666663</ele><time>2026-05-03T10:43:40.117Z</time></trkpt><trkpt lat="45.09503" lon="7.4126067"><ele>341.3333333333333</ele><time>2026-05-03T10:43:41.114Z</time></trkpt><trkpt lat="45.095065" lon="7.412865"><ele>342.0</ele><time>2026-05-03T10:43:42.11Z</time></trkpt><trkpt lat="45.0950867" lon="7.4131283"><ele>342.0</ele><time>2026-05-03T10:43:43.114Z</time></trkpt><trkpt lat="45.0951117" lon="7.4133867"><ele>342.0</ele><time>2026-05-03T10:43:44.112Z</time></trkpt><trkpt lat="45.09512" lon="7.4136433"><ele>342.0</ele><time>2026-05-03T10:43:45.111Z</time></trkpt><trkpt lat="45.095115" lon="7.4139067"><ele>341.3333333333333</ele><time>2026-05-03T10:43:46.112Z</time></trkpt><trkpt lat="45.0951033" lon="7.4141633"><ele>340.66666666666663</ele><time>2026-05-03T10:43:47.109Z</time></trkpt><trkpt lat="45.0950883" lon="7.414425"><ele>340.0</ele><time>2026-05-03T10:43:48.113Z</time></trkpt><trkpt lat="45.095075" lon="7.4146867"><ele>339.3333333333333</ele><time>2026-05-03T10:43:49.115Z</time></trkpt><trkpt lat="45.0950633" lon="7.4149567"><ele>338.6666666666667</ele><time>2026-05-03T10:43:50.115Z</time></trkpt><trkpt lat="45.095055" lon="7.41523"><ele>338.0</ele><time>2026-05-03T10:43:51.113Z</time></trkpt><trkpt lat="45.0950467" lon="7.4154983"><ele>338.0</ele><time>2026-05-03T10:43:52.111Z</time></trkpt><trkpt lat="45.0950383" lon="7.415765"><ele>338.0</ele><time>2026-05-03T10:43:53.11Z</time></trkpt><trkpt lat="45.0950233" lon="7.41603"><ele>338.0</ele><time>2026-05-03T10:43:54.109Z</time></trkpt><trkpt lat="45.0950083" lon="7.41629"><ele>338.0</ele><time>2026-05-03T10:43:55.112Z</time></trkpt><trkpt lat="45.0949917" lon="7.4165417"><ele>338.0</ele><time>2026-05-03T10:43:56.11Z</time></trkpt><trkpt lat="45.0949733" lon="7.41679"><ele>338.0</ele><time>2026-05-03T10:43:57.114Z</time></trkpt><trkpt lat="45.09495" lon="7.41702"><ele>338.0</ele><time>2026-05-03T10:43:58.111Z</time></trkpt><trkpt lat="45.09492" lon="7.4172367"><ele>338.0</ele><time>2026-05-03T10:43:59.11Z</time></trkpt><trkpt lat="45.0948883" lon="7.4174283"><ele>338.0</ele><time>2026-05-03T10:44:00.109Z</time></trkpt><trkpt lat="45.094855" lon="7.417605"><ele>338.0</ele><time>2026-05-03T10:44:01.113Z</time></trkpt><trkpt lat="45.094815" lon="7.4177617"><ele>338.0</ele><time>2026-05-03T10:44:02.11Z</time></trkpt><trkpt lat="45.0947483" lon="7.417865"><ele>338.0</ele><time>2026-05-03T10:44:03.112Z</time></trkpt><trkpt lat="45.09467" lon="7.4179417"><ele>338.0</ele><time>2026-05-03T10:44:04.114Z</time></trkpt><trkpt lat="45.0945933" lon="7.4180167"><ele>338.0</ele><time>2026-05-03T10:44:05.113Z</time></trkpt><trkpt lat="45.0945383" lon="7.41811"><ele>338.0</ele><time>2026-05-03T10:44:06.114Z</time></trkpt><trkpt lat="45.09451" lon="7.4182267"><ele>337.4</ele><time>2026-05-03T10:44:07.112Z</time></trkpt><trkpt lat="45.094515" lon="7.41835"><ele>336.79999999999995</ele><time>2026-05-03T10:44:08.113Z</time></trkpt><trkpt lat="45.0945483" lon="7.4184667"><ele>336.2</ele><time>2026-05-03T10:44:09.113Z</time></trkpt><trkpt lat="45.094605" lon="7.41856"><ele>335.6</ele><time>2026-05-03T10:44:10.113Z</time></trkpt><trkpt lat="45.0946833" lon="7.4186517"><ele>335.0</ele><time>2026-05-03T10:44:11.108Z</time></trkpt><trkpt lat="45.094755" lon="7.4187617"><ele>335.5</ele><time>2026-05-03T10:44:12.109Z</time></trkpt><trkpt lat="45.0948033" lon="7.4189083"><ele>336.0</ele><time>2026-05-03T10:44:13.113Z</time></trkpt><trkpt lat="45.0948283" lon="7.4190783"><ele>336.5</ele><time>2026-05-03T10:44:14.112Z</time></trkpt><trkpt lat="45.094835" lon="7.4192867"><ele>337.0</ele><time>2026-05-03T10:44:15.12Z</time></trkpt><trkpt lat="45.09483" lon="7.419525"><ele>337.3333333333333</ele><time>2026-05-03T10:44:16.114Z</time></trkpt><trkpt lat="45.09482" lon="7.419775"><ele>337.6666666666667</ele><time>2026-05-03T10:44:17.109Z</time></trkpt><trkpt lat="45.0948083" lon="7.420035"><ele>338.0</ele><time>2026-05-03T10:44:18.111Z</time></trkpt><trkpt lat="45.0947933" lon="7.4203017"><ele>337.6666666666667</ele><time>2026-05-03T10:44:19.113Z</time></trkpt><trkpt lat="45.0947733" lon="7.4205733"><ele>337.3333333333333</ele><time>2026-05-03T10:44:20.111Z</time></trkpt><trkpt lat="45.0947583" lon="7.4208533"><ele>337.0</ele><time>2026-05-03T10:44:21.116Z</time></trkpt><trkpt lat="45.0947517" lon="7.421145"><ele>337.3333333333333</ele><time>2026-05-03T10:44:22.111Z</time></trkpt><trkpt lat="45.0947433" lon="7.4214333"><ele>337.6666666666667</ele><time>2026-05-03T10:44:23.112Z</time></trkpt><trkpt lat="45.0947367" lon="7.4217233"><ele>338.0</ele><time>2026-05-03T10:44:24.115Z</time></trkpt><trkpt lat="45.09472" lon="7.42202"><ele>338.33333333333337</ele><time>2026-05-03T10:44:25.115Z</time></trkpt><trkpt lat="45.0947033" lon="7.4223167"><ele>338.6666666666667</ele><time>2026-05-03T10:44:26.113Z</time></trkpt><trkpt lat="45.0946917" lon="7.422615"><ele>339.0</ele><time>2026-05-03T10:44:27.111Z</time></trkpt><trkpt lat="45.094675" lon="7.422915"><ele>339.0</ele><time>2026-05-03T10:44:28.114Z</time></trkpt><trkpt lat="45.0946633" lon="7.4232167"><ele>339.0</ele><time>2026-05-03T10:44:29.113Z</time></trkpt><trkpt lat="45.0946483" lon="7.4235183"><ele>339.0</ele><time>2026-05-03T10:44:30.115Z</time></trkpt><trkpt lat="45.0946367" lon="7.4238183"><ele>338.6666666666667</ele><time>2026-05-03T10:44:31.115Z</time></trkpt><trkpt lat="45.0946233" lon="7.42411"><ele>338.33333333333337</ele><time>2026-05-03T10:44:32.114Z</time></trkpt><trkpt lat="45.094605" lon="7.4243867"><ele>338.0</ele><time>2026-05-03T10:44:33.115Z</time></trkpt><trkpt lat="45.0945917" lon="7.4246483"><ele>337.6666666666667</ele><time>2026-05-03T10:44:34.117Z</time></trkpt><trkpt lat="45.0945833" lon="7.4248983"><ele>337.3333333333333</ele><time>2026-05-03T10:44:35.112Z</time></trkpt><trkpt lat="45.0945733" lon="7.4251383"><ele>337.0</ele><time>2026-05-03T10:44:36.116Z</time></trkpt><trkpt lat="45.094565" lon="7.425375"><ele>337.0</ele><time>2026-05-03T10:44:37.114Z</time></trkpt><trkpt lat="45.0945583" lon="7.4256117"><ele>337.0</ele><time>2026-05-03T10:44:38.117Z</time></trkpt><trkpt lat="45.0945483" lon="7.42585"><ele>337.0</ele><time>2026-05-03T10:44:39.117Z</time></trkpt><trkpt lat="45.0945383" lon="7.4260883"><ele>337.3333333333333</ele><time>2026-05-03T10:44:40.119Z</time></trkpt><trkpt lat="45.0945283" lon="7.4263283"><ele>337.6666666666667</ele><time>2026-05-03T10:44:41.119Z</time></trkpt><trkpt lat="45.094515" lon="7.426575"><ele>338.0</ele><time>2026-05-03T10:44:42.115Z</time></trkpt><trkpt lat="45.094505" lon="7.4268217"><ele>338.0</ele><time>2026-05-03T10:44:43.111Z</time></trkpt><trkpt lat="45.0944933" lon="7.4270717"><ele>338.0</ele><time>2026-05-03T10:44:44.116Z</time></trkpt><trkpt lat="45.0944817" lon="7.4273267"><ele>338.0</ele><time>2026-05-03T10:44:45.116Z</time></trkpt><trkpt lat="45.0944683" lon="7.4275867"><ele>337.33333333333337</ele><time>2026-05-03T10:44:46.113Z</time></trkpt><trkpt lat="45.0944567" lon="7.42785"><ele>336.6666666666667</ele><time>2026-05-03T10:44:47.113Z</time></trkpt><trkpt lat="45.094445" lon="7.4281183"><ele>336.0</ele><time>2026-05-03T10:44:48.118Z</time></trkpt><trkpt lat="45.0944367" lon="7.4283833"><ele>335.3333333333333</ele><time>2026-05-03T10:44:49.112Z</time></trkpt><trkpt lat="45.09443" lon="7.428635"><ele>334.66666666666663</ele><time>2026-05-03T10:44:50.113Z</time></trkpt><trkpt lat="45.09442" lon="7.4288817"><ele>334.0</ele><time>2026-05-03T10:44:51.118Z</time></trkpt><trkpt lat="45.09441" lon="7.4291267"><ele>334.0</ele><time>2026-05-03T10:44:52.113Z</time></trkpt><trkpt lat="45.0943983" lon="7.4293733"><ele>334.0</ele><time>2026-05-03T10:44:53.111Z</time></trkpt><trkpt lat="45.0943867" lon="7.4296233"><ele>334.0</ele><time>2026-05-03T10:44:54.114Z</time></trkpt><trkpt lat="45.0943733" lon="7.4298783"><ele>334.0</ele><time>2026-05-03T10:44:55.12Z</time></trkpt><trkpt lat="45.0943583" lon="7.4301417"><ele>334.0</ele><time>2026-05-03T10:44:56.117Z</time></trkpt><trkpt lat="45.0943417" lon="7.4304183"><ele>334.0</ele><time>2026-05-03T10:44:57.12Z</time></trkpt><trkpt lat="45.094325" lon="7.430715"><ele>334.0</ele><time>2026-05-03T10:44:58.118Z</time></trkpt><trkpt lat="45.09431" lon="7.4310283"><ele>334.0</ele><time>2026-05-03T10:44:59.117Z</time></trkpt><trkpt lat="45.0942983" lon="7.4313517"><ele>334.0</ele><time>2026-05-03T10:45:00.113Z</time></trkpt><trkpt lat="45.0942883" lon="7.431675"><ele>334.0</ele><time>2026-05-03T10:45:01.114Z</time></trkpt><trkpt lat="45.0942783" lon="7.43199"><ele>334.0</ele><time>2026-05-03T10:45:02.115Z</time></trkpt><trkpt lat="45.0942717" lon="7.43229"><ele>334.0</ele><time>2026-05-03T10:45:03.117Z</time></trkpt><trkpt lat="45.0942633" lon="7.4325817"><ele>334.0</ele><time>2026-05-03T10:45:04.115Z</time></trkpt><trkpt lat="45.0942633" lon="7.4328533"><ele>334.0</ele><time>2026-05-03T10:45:05.116Z</time></trkpt><trkpt lat="45.0942667" lon="7.4331233"><ele>334.0</ele><time>2026-05-03T10:45:06.114Z</time></trkpt><trkpt lat="45.094275" lon="7.4333817"><ele>334.0</ele><time>2026-05-03T10:45:07.116Z</time></trkpt><trkpt lat="45.094285" lon="7.4336283"><ele>334.0</ele><time>2026-05-03T10:45:08.116Z</time></trkpt><trkpt lat="45.0943" lon="7.4338617"><ele>334.0</ele><time>2026-05-03T10:45:09.119Z</time></trkpt><trkpt lat="45.094325" lon="7.4340833"><ele>334.0</ele><time>2026-05-03T10:45:10.114Z</time></trkpt><trkpt lat="45.0943483" lon="7.4342967"><ele>334.0</ele><time>2026-05-03T10:45:11.112Z</time></trkpt><trkpt lat="45.0943683" lon="7.4344867"><ele>334.0</ele><time>2026-05-03T10:45:12.115Z</time></trkpt><trkpt lat="45.0943833" lon="7.4346467"><ele>334.0</ele><time>2026-05-03T10:45:13.118Z</time></trkpt><trkpt lat="45.0943817" lon="7.43479"><ele>334.0</ele><time>2026-05-03T10:45:14.114Z</time></trkpt><trkpt lat="45.09436" lon="7.4349367"><ele>333.79999999999995</ele><time>2026-05-03T10:45:15.115Z</time></trkpt><trkpt lat="45.0943417" lon="7.4350817"><ele>333.59999999999997</ele><time>2026-05-03T10:45:16.114Z</time></trkpt><trkpt lat="45.09434" lon="7.4352283"><ele>333.4</ele><time>2026-05-03T10:45:17.115Z</time></trkpt><trkpt lat="45.0943617" lon="7.4353833"><ele>333.2</ele><time>2026-05-03T10:45:18.113Z</time></trkpt><trkpt lat="45.0944067" lon="7.4355383"><ele>333.0</ele><time>2026-05-03T10:45:19.113Z</time></trkpt><trkpt lat="45.09447" lon="7.4356983"><ele>333.0</ele><time>2026-05-03T10:45:20.111Z</time></trkpt><trkpt lat="45.0945283" lon="7.4358883"><ele>333.0</ele><time>2026-05-03T10:45:21.116Z</time></trkpt><trkpt lat="45.0945817" lon="7.436115"><ele>333.0</ele><time>2026-05-03T10:45:22.113Z</time></trkpt><trkpt lat="45.0946317" lon="7.4363833"><ele>333.5</ele><time>2026-05-03T10:45:23.117Z</time></trkpt><trkpt lat="45.09469" lon="7.436685"><ele>334.0</ele><time>2026-05-03T10:45:24.111Z</time></trkpt><trkpt lat="45.09475" lon="7.4370167"><ele>333.5</ele><time>2026-05-03T10:45:25.113Z</time></trkpt><trkpt lat="45.0948117" lon="7.4373733"><ele>333.0</ele><time>2026-05-03T10:45:26.114Z</time></trkpt><trkpt lat="45.09488" lon="7.4377433"><ele>332.5</ele><time>2026-05-03T10:45:27.113Z</time></trkpt><trkpt lat="45.0949467" lon="7.4381083"><ele>332.0</ele><time>2026-05-03T10:45:28.111Z</time></trkpt><trkpt lat="45.09501" lon="7.43847"><ele>332.0</ele><time>2026-05-03T10:45:29.116Z</time></trkpt><trkpt lat="45.0950717" lon="7.438835"><ele>332.0</ele><time>2026-05-03T10:45:30.113Z</time></trkpt><trkpt lat="45.095135" lon="7.4391967"><ele>332.0</ele><time>2026-05-03T10:45:31.114Z</time></trkpt><trkpt lat="45.0952" lon="7.43956"><ele>332.0</ele><time>2026-05-03T10:45:32.113Z</time></trkpt><trkpt lat="45.0952617" lon="7.43991"><ele>331.5</ele><time>2026-05-03T10:45:33.117Z</time></trkpt><trkpt lat="45.09532" lon="7.4402467"><ele>331.0</ele><time>2026-05-03T10:45:34.12Z</time></trkpt><trkpt lat="45.0953733" lon="7.44058"><ele>330.5</ele><time>2026-05-03T10:45:35.119Z</time></trkpt><trkpt lat="45.0954267" lon="7.4409117"><ele>330.0</ele><time>2026-05-03T10:45:36.11Z</time></trkpt><trkpt lat="45.0954817" lon="7.44124"><ele>330.0</ele><time>2026-05-03T10:45:37.116Z</time></trkpt><trkpt lat="45.0955367" lon="7.441565"><ele>330.0</ele><time>2026-05-03T10:45:38.114Z</time></trkpt><trkpt lat="45.09559" lon="7.44189"><ele>330.0</ele><time>2026-05-03T10:45:39.114Z</time></trkpt><trkpt lat="45.0956417" lon="7.4422167"><ele>330.0</ele><time>2026-05-03T10:45:40.114Z</time></trkpt><trkpt lat="45.09569" lon="7.442545"><ele>330.0</ele><time>2026-05-03T10:45:41.11Z</time></trkpt><trkpt lat="45.0957367" lon="7.4428717"><ele>330.0</ele><time>2026-05-03T10:45:42.111Z</time></trkpt><trkpt lat="45.0957783" lon="7.4432"><ele>330.0</ele><time>2026-05-03T10:45:43.111Z</time></trkpt><trkpt lat="45.0958117" lon="7.4435367"><ele>330.0</ele><time>2026-05-03T10:45:44.113Z</time></trkpt><trkpt lat="45.095835" lon="7.4438767"><ele>329.5</ele><time>2026-05-03T10:45:45.112Z</time></trkpt><trkpt lat="45.0958583" lon="7.4442217"><ele>329.0</ele><time>2026-05-03T10:45:46.115Z</time></trkpt><trkpt lat="45.0958683" lon="7.4445733"><ele>329.0</ele><time>2026-05-03T10:45:47.111Z</time></trkpt><trkpt lat="45.0958767" lon="7.44493"><ele>329.0</ele><time>2026-05-03T10:45:48.112Z</time></trkpt><trkpt lat="45.0958817" lon="7.4452933"><ele>329.5</ele><time>2026-05-03T10:45:49.113Z</time></trkpt><trkpt lat="45.0958833" lon="7.4456633"><ele>330.0</ele><time>2026-05-03T10:45:50.115Z</time></trkpt><trkpt lat="45.095875" lon="7.446035"><ele>330.5</ele><time>2026-05-03T10:45:51.114Z</time></trkpt><trkpt lat="45.0958733" lon="7.4464083"><ele>331.0</ele><time>2026-05-03T10:45:52.112Z</time></trkpt><trkpt lat="45.0958683" lon="7.44678"><ele>331.0</ele><time>2026-05-03T10:45:53.111Z</time></trkpt><trkpt lat="45.095865" lon="7.44715"><ele>331.0</ele><time>2026-05-03T10:45:54.113Z</time></trkpt><trkpt lat="45.0958617" lon="7.4475233"><ele>331.0</ele><time>2026-05-03T10:45:55.112Z</time></trkpt><trkpt lat="45.0958633" lon="7.4478933"><ele>331.0</ele><time>2026-05-03T10:45:56.114Z</time></trkpt><trkpt lat="45.0958617" lon="7.4482617"><ele>331.5</ele><time>2026-05-03T10:45:57.114Z</time></trkpt><trkpt lat="45.0958567" lon="7.44863"><ele>332.0</ele><time>2026-05-03T10:45:58.115Z</time></trkpt><trkpt lat="45.0958567" lon="7.4489967"><ele>332.0</ele><time>2026-05-03T10:45:59.115Z</time></trkpt><trkpt lat="45.0958633" lon="7.4493583"><ele>332.0</ele><time>2026-05-03T10:46:00.111Z</time></trkpt><trkpt lat="45.0958733" lon="7.44972"><ele>332.0</ele><time>2026-05-03T10:46:01.115Z</time></trkpt><trkpt lat="45.09589" lon="7.4500783"><ele>332.0</ele><time>2026-05-03T10:46:02.113Z</time></trkpt><trkpt lat="45.09591" lon="7.4504383"><ele>333.0</ele><time>2026-05-03T10:46:03.116Z</time></trkpt><trkpt lat="45.09593" lon="7.4507917"><ele>334.0</ele><time>2026-05-03T10:46:04.116Z</time></trkpt><trkpt lat="45.0959517" lon="7.4511367"><ele>334.0</ele><time>2026-05-03T10:46:05.114Z</time></trkpt><trkpt lat="45.0959733" lon="7.451475"><ele>334.0</ele><time>2026-05-03T10:46:06.115Z</time></trkpt><trkpt lat="45.0959983" lon="7.4518117"><ele>334.0</ele><time>2026-05-03T10:46:07.114Z</time></trkpt><trkpt lat="45.0960183" lon="7.452145"><ele>334.0</ele><time>2026-05-03T10:46:08.111Z</time></trkpt><trkpt lat="45.0960383" lon="7.4524783"><ele>334.0</ele><time>2026-05-03T10:46:09.111Z</time></trkpt><trkpt lat="45.0960633" lon="7.452815"><ele>334.0</ele><time>2026-05-03T10:46:10.114Z</time></trkpt><trkpt lat="45.096095" lon="7.4531467"><ele>333.0</ele><time>2026-05-03T10:46:11.111Z</time></trkpt><trkpt lat="45.0961267" lon="7.453475"><ele>332.0</ele><time>2026-05-03T10:46:12.111Z</time></trkpt><trkpt lat="45.0961633" lon="7.4538017"><ele>332.0</ele><time>2026-05-03T10:46:13.113Z</time></trkpt><trkpt lat="45.096215" lon="7.4541283"><ele>332.0</ele><time>2026-05-03T10:46:14.113Z</time></trkpt><trkpt lat="45.0962783" lon="7.4544633"><ele>332.0</ele><time>2026-05-03T10:46:15.114Z</time></trkpt><trkpt lat="45.096345" lon="7.4548167"><ele>332.0</ele><time>2026-05-03T10:46:16.115Z</time></trkpt><trkpt lat="45.0964117" lon="7.45518"><ele>331.5</ele><time>2026-05-03T10:46:17.111Z</time></trkpt><trkpt lat="45.0964867" lon="7.455545"><ele>331.0</ele><time>2026-05-03T10:46:18.113Z</time></trkpt><trkpt lat="45.0965583" lon="7.455905"><ele>331.0</ele><time>2026-05-03T10:46:19.117Z</time></trkpt><trkpt lat="45.0966267" lon="7.4562433"><ele>331.0</ele><time>2026-05-03T10:46:20.116Z</time></trkpt><trkpt lat="45.0966933" lon="7.45657"><ele>331.0</ele><time>2026-05-03T10:46:21.116Z</time></trkpt><trkpt lat="45.0967517" lon="7.4568883"><ele>331.0</ele><time>2026-05-03T10:46:22.114Z</time></trkpt><trkpt lat="45.096805" lon="7.4571917"><ele>331.0</ele><time>2026-05-03T10:46:23.114Z</time></trkpt><trkpt lat="45.09685" lon="7.4574833"><ele>331.0</ele><time>2026-05-03T10:46:24.117Z</time></trkpt><trkpt lat="45.0968833" lon="7.4577683"><ele>331.0</ele><time>2026-05-03T10:46:25.11Z</time></trkpt><trkpt lat="45.096905" lon="7.4580567"><ele>331.66666666666663</ele><time>2026-05-03T10:46:26.112Z</time></trkpt><trkpt lat="45.0969167" lon="7.4583433"><ele>332.3333333333333</ele><time>2026-05-03T10:46:27.114Z</time></trkpt><trkpt lat="45.096915" lon="7.45863"><ele>333.0</ele><time>2026-05-03T10:46:28.11Z</time></trkpt><trkpt lat="45.096905" lon="7.4589133"><ele>333.6666666666667</ele><time>2026-05-03T10:46:29.111Z</time></trkpt><trkpt lat="45.0968883" lon="7.4591917"><ele>334.33333333333337</ele><time>2026-05-03T10:46:30.111Z</time></trkpt><trkpt lat="45.0968633" lon="7.459475"><ele>335.0</ele><time>2026-05-03T10:46:31.114Z</time></trkpt><trkpt lat="45.09683" lon="7.4597533"><ele>336.33333333333337</ele><time>2026-05-03T10:46:32.113Z</time></trkpt><trkpt lat="45.0967933" lon="7.4600317"><ele>337.6666666666667</ele><time>2026-05-03T10:46:33.115Z</time></trkpt><trkpt lat="45.096765" lon="7.46029"><ele>339.0</ele><time>2026-05-03T10:46:34.119Z</time></trkpt><trkpt lat="45.0967367" lon="7.46053"><ele>340.0</ele><time>2026-05-03T10:46:35.111Z</time></trkpt><trkpt lat="45.0967067" lon="7.460755"><ele>341.0</ele><time>2026-05-03T10:46:36.115Z</time></trkpt><trkpt lat="45.0966767" lon="7.4609633"><ele>342.0</ele><time>2026-05-03T10:46:37.112Z</time></trkpt><trkpt lat="45.0966483" lon="7.4611633"><ele>341.0</ele><time>2026-05-03T10:46:38.113Z</time></trkpt><trkpt lat="45.0966183" lon="7.4613667"><ele>340.0</ele><time>2026-05-03T10:46:39.111Z</time></trkpt><trkpt lat="45.0965917" lon="7.4615883"><ele>339.0</ele><time>2026-05-03T10:46:40.111Z</time></trkpt><trkpt lat="45.096565" lon="7.4618317"><ele>339.0</ele><time>2026-05-03T10:46:41.117Z</time></trkpt><trkpt lat="45.0965317" lon="7.4620717"><ele>339.0</ele><time>2026-05-03T10:46:42.113Z</time></trkpt><trkpt lat="45.0964933" lon="7.4622933"><ele>339.0</ele><time>2026-05-03T10:46:43.118Z</time></trkpt><trkpt lat="45.0964617" lon="7.4625017"><ele>339.75</ele><time>2026-05-03T10:46:44.114Z</time></trkpt><trkpt lat="45.0964283" lon="7.4626867"><ele>340.5</ele><time>2026-05-03T10:46:45.118Z</time></trkpt><trkpt lat="45.09641" lon="7.4628433"><ele>341.25</ele><time>2026-05-03T10:46:46.111Z</time></trkpt><trkpt lat="45.0964033" lon="7.462995"><ele>342.0</ele><time>2026-05-03T10:46:47.114Z</time></trkpt><trkpt lat="45.0964" lon="7.4631733"><ele>342.0</ele><time>2026-05-03T10:46:48.117Z</time></trkpt><trkpt lat="45.0963917" lon="7.4633867"><ele>342.0</ele><time>2026-05-03T10:46:49.112Z</time></trkpt><trkpt lat="45.0963867" lon="7.46363"><ele>342.0</ele><time>2026-05-03T10:46:50.116Z</time></trkpt><trkpt lat="45.0964017" lon="7.4638967"><ele>341.3333333333333</ele><time>2026-05-03T10:46:51.112Z</time></trkpt><trkpt lat="45.0964333" lon="7.4641717"><ele>340.66666666666663</ele><time>2026-05-03T10:46:52.12Z</time></trkpt><trkpt lat="45.09648" lon="7.4644517"><ele>340.0</ele><time>2026-05-03T10:46:53.111Z</time></trkpt><trkpt lat="45.0965467" lon="7.46473"><ele>340.3333333333333</ele><time>2026-05-03T10:46:54.109Z</time></trkpt><trkpt lat="45.0966267" lon="7.4650117"><ele>340.6666666666667</ele><time>2026-05-03T10:46:55.111Z</time></trkpt><trkpt lat="45.0967183" lon="7.4652883"><ele>341.0</ele><time>2026-05-03T10:46:56.111Z</time></trkpt><trkpt lat="45.0968333" lon="7.4655583"><ele>341.0</ele><time>2026-05-03T10:46:57.111Z</time></trkpt><trkpt lat="45.09696" lon="7.4658317"><ele>341.0</ele><time>2026-05-03T10:46:58.11Z</time></trkpt><trkpt lat="45.0971017" lon="7.466105"><ele>339.0</ele><time>2026-05-03T10:46:59.113Z</time></trkpt><trkpt lat="45.0972433" lon="7.4663817"><ele>337.0</ele><time>2026-05-03T10:47:00.109Z</time></trkpt><trkpt lat="45.0973883" lon="7.46666"><ele>338.5</ele><time>2026-05-03T10:47:01.114Z</time></trkpt><trkpt lat="45.0975283" lon="7.4669417"><ele>340.0</ele><time>2026-05-03T10:47:02.115Z</time></trkpt><trkpt lat="45.0976667" lon="7.4672233"><ele>340.5</ele><time>2026-05-03T10:47:03.116Z</time></trkpt><trkpt lat="45.09781" lon="7.4675017"><ele>341.0</ele><time>2026-05-03T10:47:04.114Z</time></trkpt><trkpt lat="45.0979567" lon="7.4677767"><ele>340.5</ele><time>2026-05-03T10:47:05.112Z</time></trkpt><trkpt lat="45.098105" lon="7.4680517"><ele>340.0</ele><time>2026-05-03T10:47:06.113Z</time></trkpt><trkpt lat="45.0982583" lon="7.46832"><ele>340.0</ele><time>2026-05-03T10:47:07.114Z</time></trkpt><trkpt lat="45.0984133" lon="7.4685817"><ele>340.0</ele><time>2026-05-03T10:47:08.112Z</time></trkpt><trkpt lat="45.0985733" lon="7.4688383"><ele>339.5</ele><time>2026-05-03T10:47:09.115Z</time></trkpt><trkpt lat="45.0987233" lon="7.4690883"><ele>339.0</ele><time>2026-05-03T10:47:10.116Z</time></trkpt><trkpt lat="45.09887" lon="7.46933"><ele>339.0</ele><time>2026-05-03T10:47:11.111Z</time></trkpt><trkpt lat="45.099015" lon="7.4695533"><ele>339.0</ele><time>2026-05-03T10:47:12.112Z</time></trkpt><trkpt lat="45.0991567" lon="7.4697633"><ele>339.0</ele><time>2026-05-03T10:47:13.112Z</time></trkpt><trkpt lat="45.0992883" lon="7.46997"><ele>338.6666666666667</ele><time>2026-05-03T10:47:14.113Z</time></trkpt><trkpt lat="45.0994233" lon="7.4701667"><ele>338.33333333333337</ele><time>2026-05-03T10:47:15.111Z</time></trkpt><trkpt lat="45.0995567" lon="7.4703583"><ele>338.0</ele><time>2026-05-03T10:47:16.112Z</time></trkpt><trkpt lat="45.0996817" lon="7.4705517"><ele>337.6666666666667</ele><time>2026-05-03T10:47:17.114Z</time></trkpt><trkpt lat="45.0998017" lon="7.47074"><ele>337.3333333333333</ele><time>2026-05-03T10:47:18.114Z</time></trkpt><trkpt lat="45.099915" lon="7.4709183"><ele>337.0</ele><time>2026-05-03T10:47:19.114Z</time></trkpt><trkpt lat="45.1000283" lon="7.47109"><ele>336.66666666666663</ele><time>2026-05-03T10:47:20.11Z</time></trkpt><trkpt lat="45.1001317" lon="7.471255"><ele>336.3333333333333</ele><time>2026-05-03T10:47:21.111Z</time></trkpt><trkpt lat="45.1002383" lon="7.4714183"><ele>336.0</ele><time>2026-05-03T10:47:22.111Z</time></trkpt><trkpt lat="45.1003433" lon="7.4715833"><ele>336.0</ele><time>2026-05-03T10:47:23.112Z</time></trkpt><trkpt lat="45.1004467" lon="7.471755"><ele>336.0</ele><time>2026-05-03T10:47:24.117Z</time></trkpt><trkpt lat="45.100555" lon="7.4719267"><ele>336.0</ele><time>2026-05-03T10:47:25.116Z</time></trkpt><trkpt lat="45.1006633" lon="7.4721"><ele>337.3333333333333</ele><time>2026-05-03T10:47:26.115Z</time></trkpt><trkpt lat="45.1007733" lon="7.4722783"><ele>338.66666666666663</ele><time>2026-05-03T10:47:27.112Z</time></trkpt><trkpt lat="45.1008883" lon="7.47246"><ele>340.0</ele><time>2026-05-03T10:47:28.117Z</time></trkpt><trkpt lat="45.101005" lon="7.472645"><ele>340.0</ele><time>2026-05-03T10:47:29.111Z</time></trkpt><trkpt lat="45.101125" lon="7.4728267"><ele>340.0</ele><time>2026-05-03T10:47:30.114Z</time></trkpt><trkpt lat="45.10125" lon="7.4730017"><ele>340.0</ele><time>2026-05-03T10:47:31.112Z</time></trkpt><trkpt lat="45.101385" lon="7.473165"><ele>339.3333333333333</ele><time>2026-05-03T10:47:32.109Z</time></trkpt><trkpt lat="45.1015283" lon="7.4733083"><ele>338.6666666666667</ele><time>2026-05-03T10:47:33.116Z</time></trkpt><trkpt lat="45.1016783" lon="7.47343"><ele>338.0</ele><time>2026-05-03T10:47:34.116Z</time></trkpt><trkpt lat="45.10184" lon="7.4735367"><ele>338.33333333333337</ele><time>2026-05-03T10:47:35.11Z</time></trkpt><trkpt lat="45.1019983" lon="7.4736283"><ele>338.6666666666667</ele><time>2026-05-03T10:47:36.113Z</time></trkpt><trkpt lat="45.1021517" lon="7.4737067"><ele>339.0</ele><time>2026-05-03T10:47:37.112Z</time></trkpt><trkpt lat="45.1023033" lon="7.473775"><ele>340.25</ele><time>2026-05-03T10:47:38.111Z</time></trkpt><trkpt lat="45.102455" lon="7.4738383"><ele>341.5</ele><time>2026-05-03T10:47:39.113Z</time></trkpt><trkpt lat="45.1025933" lon="7.4738967"><ele>342.75</ele><time>2026-05-03T10:47:40.114Z</time></trkpt><trkpt lat="45.102715" lon="7.4739633"><ele>344.0</ele><time>2026-05-03T10:47:41.111Z</time></trkpt><trkpt lat="45.1028283" lon="7.47404"><ele>344.0</ele><time>2026-05-03T10:47:42.116Z</time></trkpt><trkpt lat="45.102935" lon="7.4741267"><ele>344.0</ele><time>2026-05-03T10:47:43.114Z</time></trkpt><trkpt lat="45.103035" lon="7.474225"><ele>344.0</ele><time>2026-05-03T10:47:44.111Z</time></trkpt><trkpt lat="45.1031267" lon="7.474335"><ele>344.0</ele><time>2026-05-03T10:47:45.115Z</time></trkpt><trkpt lat="45.1032133" lon="7.4744667"><ele>343.6666666666667</ele><time>2026-05-03T10:47:46.115Z</time></trkpt><trkpt lat="45.1033067" lon="7.47462"><ele>343.3333333333333</ele><time>2026-05-03T10:47:47.115Z</time></trkpt><trkpt lat="45.10339" lon="7.4747983"><ele>343.0</ele><time>2026-05-03T10:47:48.115Z</time></trkpt><trkpt lat="45.1034717" lon="7.475005"><ele>343.0</ele><time>2026-05-03T10:47:49.122Z</time></trkpt><trkpt lat="45.1035517" lon="7.4752317"><ele>343.0</ele><time>2026-05-03T10:47:50.115Z</time></trkpt><trkpt lat="45.1036317" lon="7.4754617"><ele>343.0</ele><time>2026-05-03T10:47:51.118Z</time></trkpt><trkpt lat="45.1037133" lon="7.47569"><ele>342.3333333333333</ele><time>2026-05-03T10:47:52.116Z</time></trkpt><trkpt lat="45.1037883" lon="7.47591"><ele>341.6666666666667</ele><time>2026-05-03T10:47:53.116Z</time></trkpt><trkpt lat="45.1038783" lon="7.4761267"><ele>341.0</ele><time>2026-05-03T10:47:54.113Z</time></trkpt><trkpt lat="45.1039667" lon="7.4763433"><ele>340.0</ele><time>2026-05-03T10:47:55.114Z</time></trkpt><trkpt lat="45.1040517" lon="7.47656"><ele>339.0</ele><time>2026-05-03T10:47:56.118Z</time></trkpt><trkpt lat="45.1041333" lon="7.47677"><ele>338.0</ele><time>2026-05-03T10:47:57.113Z</time></trkpt><trkpt lat="45.10422" lon="7.476975"><ele>338.6666666666667</ele><time>2026-05-03T10:47:58.113Z</time></trkpt><trkpt lat="45.104295" lon="7.4771717"><ele>339.3333333333333</ele><time>2026-05-03T10:47:59.111Z</time></trkpt><trkpt lat="45.10437" lon="7.4773667"><ele>340.0</ele><time>2026-05-03T10:48:00.111Z</time></trkpt><trkpt lat="45.104445" lon="7.4775633"><ele>340.0</ele><time>2026-05-03T10:48:01.114Z</time></trkpt><trkpt lat="45.10451" lon="7.4777667"><ele>340.0</ele><time>2026-05-03T10:48:02.109Z</time></trkpt><trkpt lat="45.104565" lon="7.4779717"><ele>340.0</ele><time>2026-05-03T10:48:03.113Z</time></trkpt><trkpt lat="45.1046117" lon="7.4781783"><ele>339.3333333333333</ele><time>2026-05-03T10:48:04.118Z</time></trkpt><trkpt lat="45.1046533" lon="7.4783883"><ele>338.6666666666667</ele><time>2026-05-03T10:48:05.113Z</time></trkpt><trkpt lat="45.1046867" lon="7.478605"><ele>338.0</ele><time>2026-05-03T10:48:06.112Z</time></trkpt><trkpt lat="45.104715" lon="7.4788267"><ele>337.33333333333337</ele><time>2026-05-03T10:48:07.117Z</time></trkpt><trkpt lat="45.1047383" lon="7.4790517"><ele>336.6666666666667</ele><time>2026-05-03T10:48:08.113Z</time></trkpt><trkpt lat="45.1047567" lon="7.47929"><ele>336.0</ele><time>2026-05-03T10:48:09.114Z</time></trkpt><trkpt lat="45.1047667" lon="7.4795333"><ele>336.0</ele><time>2026-05-03T10:48:10.115Z</time></trkpt><trkpt lat="45.104775" lon="7.4797783"><ele>336.0</ele><time>2026-05-03T10:48:11.116Z</time></trkpt><trkpt lat="45.1047817" lon="7.48002"><ele>336.0</ele><time>2026-05-03T10:48:12.114Z</time></trkpt><trkpt lat="45.104785" lon="7.4802567"><ele>335.6666666666667</ele><time>2026-05-03T10:48:13.117Z</time></trkpt><trkpt lat="45.1047933" lon="7.4804867"><ele>335.33333333333337</ele><time>2026-05-03T10:48:14.115Z</time></trkpt><trkpt lat="45.1047983" lon="7.4807017"><ele>335.0</ele><time>2026-05-03T10:48:15.113Z</time></trkpt><trkpt lat="45.1048067" lon="7.4809017"><ele>335.0</ele><time>2026-05-03T10:48:16.114Z</time></trkpt><trkpt lat="45.104815" lon="7.4811033"><ele>335.0</ele><time>2026-05-03T10:48:17.119Z</time></trkpt><trkpt lat="45.1048217" lon="7.4813333"><ele>335.0</ele><time>2026-05-03T10:48:18.111Z</time></trkpt><trkpt lat="45.1048317" lon="7.481585"><ele>335.0</ele><time>2026-05-03T10:48:19.116Z</time></trkpt><trkpt lat="45.1048333" lon="7.4818517"><ele>335.0</ele><time>2026-05-03T10:48:20.113Z</time></trkpt><trkpt lat="45.1048367" lon="7.4821117"><ele>335.0</ele><time>2026-05-03T10:48:21.117Z</time></trkpt><trkpt lat="45.1048383" lon="7.4823533"><ele>335.0</ele><time>2026-05-03T10:48:22.115Z</time></trkpt><trkpt lat="45.1048417" lon="7.4825883"><ele>335.0</ele><time>2026-05-03T10:48:23.112Z</time></trkpt><trkpt lat="45.104845" lon="7.4828233"><ele>335.0</ele><time>2026-05-03T10:48:24.113Z</time></trkpt><trkpt lat="45.10485" lon="7.4830633"><ele>335.33333333333337</ele><time>2026-05-03T10:48:25.114Z</time></trkpt><trkpt lat="45.1048567" lon="7.4833067"><ele>335.6666666666667</ele><time>2026-05-03T10:48:26.114Z</time></trkpt><trkpt lat="45.10486" lon="7.4835617"><ele>336.0</ele><time>2026-05-03T10:48:27.12Z</time></trkpt><trkpt lat="45.104865" lon="7.483825"><ele>336.0</ele><time>2026-05-03T10:48:28.115Z</time></trkpt><trkpt lat="45.104875" lon="7.484095"><ele>336.0</ele><time>2026-05-03T10:48:29.113Z</time></trkpt><trkpt lat="45.1048883" lon="7.4843667"><ele>336.0</ele><time>2026-05-03T10:48:30.116Z</time></trkpt><trkpt lat="45.1049167" lon="7.48464"><ele>338.6666666666667</ele><time>2026-05-03T10:48:31.115Z</time></trkpt><trkpt lat="45.10496" lon="7.484915"><ele>341.33333333333337</ele><time>2026-05-03T10:48:32.121Z</time></trkpt><trkpt lat="45.1050133" lon="7.4851967"><ele>344.0</ele><time>2026-05-03T10:48:33.119Z</time></trkpt><trkpt lat="45.105075" lon="7.4854817"><ele>344.0</ele><time>2026-05-03T10:48:34.113Z</time></trkpt><trkpt lat="45.1051417" lon="7.4857667"><ele>344.0</ele><time>2026-05-03T10:48:35.116Z</time></trkpt><trkpt lat="45.10521" lon="7.486055"><ele>344.0</ele><time>2026-05-03T10:48:36.114Z</time></trkpt><trkpt lat="45.1052767" lon="7.4863417"><ele>342.6666666666667</ele><time>2026-05-03T10:48:37.116Z</time></trkpt><trkpt lat="45.10535" lon="7.4866283"><ele>341.3333333333333</ele><time>2026-05-03T10:48:38.117Z</time></trkpt><trkpt lat="45.105425" lon="7.48692"><ele>340.0</ele><time>2026-05-03T10:48:39.115Z</time></trkpt><trkpt lat="45.1055033" lon="7.4872133"><ele>339.0</ele><time>2026-05-03T10:48:40.114Z</time></trkpt><trkpt lat="45.1055783" lon="7.4875133"><ele>338.0</ele><time>2026-05-03T10:48:41.115Z</time></trkpt><trkpt lat="45.1056567" lon="7.4878283"><ele>338.0</ele><time>2026-05-03T10:48:42.114Z</time></trkpt><trkpt lat="45.105735" lon="7.488155"><ele>338.0</ele><time>2026-05-03T10:48:43.116Z</time></trkpt><trkpt lat="45.1058117" lon="7.4884917"><ele>343.0</ele><time>2026-05-03T10:48:44.12Z</time></trkpt><trkpt lat="45.1058817" lon="7.4888267"><ele>348.0</ele><time>2026-05-03T10:48:45.114Z</time></trkpt><trkpt lat="45.1059433" lon="7.4891483"><ele>348.0</ele><time>2026-05-03T10:48:46.115Z</time></trkpt><trkpt lat="45.106" lon="7.4894633"><ele>348.0</ele><time>2026-05-03T10:48:47.118Z</time></trkpt><trkpt lat="45.106055" lon="7.4897783"><ele>348.5</ele><time>2026-05-03T10:48:48.121Z</time></trkpt><trkpt lat="45.106105" lon="7.4900917"><ele>349.0</ele><time>2026-05-03T10:48:49.109Z</time></trkpt><trkpt lat="45.1061567" lon="7.4904083"><ele>349.5</ele><time>2026-05-03T10:48:50.117Z</time></trkpt><trkpt lat="45.106205" lon="7.4907233"><ele>350.0</ele><time>2026-05-03T10:48:51.114Z</time></trkpt><trkpt lat="45.1062533" lon="7.4910333"><ele>350.6666666666667</ele><time>2026-05-03T10:48:52.114Z</time></trkpt><trkpt lat="45.1063033" lon="7.491335"><ele>351.3333333333333</ele><time>2026-05-03T10:48:53.115Z</time></trkpt><trkpt lat="45.1063517" lon="7.4916233"><ele>352.0</ele><time>2026-05-03T10:48:54.11Z</time></trkpt><trkpt lat="45.1064033" lon="7.4919"><ele>352.66666666666663</ele><time>2026-05-03T10:48:55.112Z</time></trkpt><trkpt lat="45.1064667" lon="7.4921683"><ele>353.3333333333333</ele><time>2026-05-03T10:48:56.111Z</time></trkpt><trkpt lat="45.1065367" lon="7.492435"><ele>354.0</ele><time>2026-05-03T10:48:57.119Z</time></trkpt><trkpt lat="45.10661" lon="7.4926883"><ele>355.6666666666667</ele><time>2026-05-03T10:48:58.115Z</time></trkpt><trkpt lat="45.1066817" lon="7.4929317"><ele>357.33333333333337</ele><time>2026-05-03T10:48:59.114Z</time></trkpt><trkpt lat="45.1067567" lon="7.493165"><ele>359.0</ele><time>2026-05-03T10:49:00.114Z</time></trkpt><trkpt lat="45.10683" lon="7.49339"><ele>359.0</ele><time>2026-05-03T10:49:01.12Z</time></trkpt><trkpt lat="45.10691" lon="7.4935967"><ele>359.0</ele><time>2026-05-03T10:49:02.114Z</time></trkpt><trkpt lat="45.1069767" lon="7.4937883"><ele>359.0</ele><time>2026-05-03T10:49:03.114Z</time></trkpt><trkpt lat="45.107025" lon="7.4939633"><ele>358.5</ele><time>2026-05-03T10:49:04.114Z</time></trkpt><trkpt lat="45.1070617" lon="7.494125"><ele>358.0</ele><time>2026-05-03T10:49:05.118Z</time></trkpt><trkpt lat="45.1071017" lon="7.4942667"><ele>357.5</ele><time>2026-05-03T10:49:06.116Z</time></trkpt><trkpt lat="45.107155" lon="7.4943983"><ele>357.0</ele><time>2026-05-03T10:49:07.114Z</time></trkpt><trkpt lat="45.10722" lon="7.4945333"><ele>357.3333333333333</ele><time>2026-05-03T10:49:08.115Z</time></trkpt><trkpt lat="45.1072917" lon="7.4946967"><ele>357.66666666666663</ele><time>2026-05-03T10:49:09.112Z</time></trkpt><trkpt lat="45.1073583" lon="7.494895"><ele>358.0</ele><time>2026-05-03T10:49:10.114Z</time></trkpt><trkpt lat="45.1074317" lon="7.49511"><ele>358.0</ele><time>2026-05-03T10:49:11.123Z</time></trkpt><trkpt lat="45.107505" lon="7.49533"><ele>358.0</ele><time>2026-05-03T10:49:12.119Z</time></trkpt><trkpt lat="45.107575" lon="7.49556"><ele>358.0</ele><time>2026-05-03T10:49:13.113Z</time></trkpt><trkpt lat="45.1076333" lon="7.4957983"><ele>358.0</ele><time>2026-05-03T10:49:14.113Z</time></trkpt><trkpt lat="45.107675" lon="7.49604"><ele>358.0</ele><time>2026-05-03T10:49:15.112Z</time></trkpt><trkpt lat="45.1076983" lon="7.49629"><ele>358.0</ele><time>2026-05-03T10:49:16.118Z</time></trkpt><trkpt lat="45.1077033" lon="7.496545"><ele>357.66666666666663</ele><time>2026-05-03T10:49:17.114Z</time></trkpt><trkpt lat="45.107685" lon="7.496805"><ele>357.3333333333333</ele><time>2026-05-03T10:49:18.116Z</time></trkpt><trkpt lat="45.10765" lon="7.4970817"><ele>357.0</ele><time>2026-05-03T10:49:19.113Z</time></trkpt><trkpt lat="45.1075983" lon="7.4973633"><ele>356.3333333333333</ele><time>2026-05-03T10:49:20.113Z</time></trkpt><trkpt lat="45.10754" lon="7.4976517"><ele>355.66666666666663</ele><time>2026-05-03T10:49:21.113Z</time></trkpt><trkpt lat="45.1074833" lon="7.49795"><ele>355.0</ele><time>2026-05-03T10:49:22.115Z</time></trkpt><trkpt lat="45.107425" lon="7.4982517"><ele>356.0</ele><time>2026-05-03T10:49:23.118Z</time></trkpt><trkpt lat="45.107365" lon="7.49855"><ele>357.0</ele><time>2026-05-03T10:49:24.116Z</time></trkpt><trkpt lat="45.1073067" lon="7.4988433"><ele>358.0</ele><time>2026-05-03T10:49:25.116Z</time></trkpt><trkpt lat="45.1072567" lon="7.4991267"><ele>358.0</ele><time>2026-05-03T10:49:26.115Z</time></trkpt><trkpt lat="45.1072083" lon="7.4994033"><ele>358.0</ele><time>2026-05-03T10:49:27.115Z</time></trkpt><trkpt lat="45.10716" lon="7.49967"><ele>358.0</ele><time>2026-05-03T10:49:28.112Z</time></trkpt><trkpt lat="45.1071133" lon="7.499925"><ele>356.3333333333333</ele><time>2026-05-03T10:49:29.116Z</time></trkpt><trkpt lat="45.1070633" lon="7.5001683"><ele>354.6666666666667</ele><time>2026-05-03T10:49:30.116Z</time></trkpt><trkpt lat="45.1070117" lon="7.5003933"><ele>353.0</ele><time>2026-05-03T10:49:31.113Z</time></trkpt><trkpt lat="45.10696" lon="7.500595"><ele>352.75</ele><time>2026-05-03T10:49:32.116Z</time></trkpt><trkpt lat="45.106905" lon="7.5007767"><ele>352.5</ele><time>2026-05-03T10:49:33.118Z</time></trkpt><trkpt lat="45.1068467" lon="7.500935"><ele>352.25</ele><time>2026-05-03T10:49:34.114Z</time></trkpt><trkpt lat="45.1067833" lon="7.501065"><ele>352.0</ele><time>2026-05-03T10:49:35.113Z</time></trkpt><trkpt lat="45.1067133" lon="7.5011633"><ele>352.0</ele><time>2026-05-03T10:49:36.114Z</time></trkpt><trkpt lat="45.1066233" lon="7.5012283"><ele>352.0</ele><time>2026-05-03T10:49:37.112Z</time></trkpt><trkpt lat="45.106525" lon="7.5012733"><ele>352.0</ele><time>2026-05-03T10:49:38.11Z</time></trkpt><trkpt lat="45.1064317" lon="7.5013417"><ele>352.0</ele><time>2026-05-03T10:49:39.111Z</time></trkpt><trkpt lat="45.1063417" lon="7.5014467"><ele>352.0</ele><time>2026-05-03T10:49:40.118Z</time></trkpt><trkpt lat="45.10625" lon="7.5016033"><ele>351.5</ele><time>2026-05-03T10:49:41.112Z</time></trkpt><trkpt lat="45.1061583" lon="7.501755"><ele>351.0</ele><time>2026-05-03T10:49:42.109Z</time></trkpt><trkpt lat="45.1060733" lon="7.5019083"><ele>350.5</ele><time>2026-05-03T10:49:43.113Z</time></trkpt><trkpt lat="45.1060017" lon="7.50206"><ele>350.0</ele><time>2026-05-03T10:49:44.118Z</time></trkpt><trkpt lat="45.1059617" lon="7.502205"><ele>350.0</ele><time>2026-05-03T10:49:45.109Z</time></trkpt><trkpt lat="45.1059517" lon="7.5023467"><ele>350.0</ele><time>2026-05-03T10:49:46.112Z</time></trkpt><trkpt lat="45.1059767" lon="7.502465"><ele>350.0</ele><time>2026-05-03T10:49:47.109Z</time></trkpt><trkpt lat="45.106005" lon="7.502565"><ele>350.0</ele><time>2026-05-03T10:49:48.113Z</time></trkpt><trkpt lat="45.106065" lon="7.5026"><ele>350.0</ele><time>2026-05-03T10:49:49.112Z</time></trkpt><trkpt lat="45.1061267" lon="7.502625"><ele>350.0</ele><time>2026-05-03T10:49:50.118Z</time></trkpt><trkpt lat="45.1062033" lon="7.5026283"><ele>350.0</ele><time>2026-05-03T10:49:51.116Z</time></trkpt><trkpt lat="45.10631" lon="7.50259"><ele>350.0</ele><time>2026-05-03T10:49:52.112Z</time></trkpt><trkpt lat="45.1064117" lon="7.5025833"><ele>350.0</ele><time>2026-05-03T10:49:53.115Z</time></trkpt><trkpt lat="45.1065067" lon="7.502615"><ele>350.0</ele><time>2026-05-03T10:49:54.114Z</time></trkpt><trkpt lat="45.1065967" lon="7.50269"><ele>350.0</ele><time>2026-05-03T10:49:55.114Z</time></trkpt><trkpt lat="45.106695" lon="7.502815"><ele>350.33333333333337</ele><time>2026-05-03T10:49:56.115Z</time></trkpt><trkpt lat="45.1068017" lon="7.5029783"><ele>350.6666666666667</ele><time>2026-05-03T10:49:57.113Z</time></trkpt><trkpt lat="45.1069117" lon="7.5031867"><ele>351.0</ele><time>2026-05-03T10:49:58.109Z</time></trkpt><trkpt lat="45.107055" lon="7.5034167"><ele>351.0</ele><time>2026-05-03T10:49:59.11Z</time></trkpt><trkpt lat="45.107225" lon="7.5036683"><ele>351.0</ele><time>2026-05-03T10:50:00.111Z</time></trkpt><trkpt lat="45.1074017" lon="7.5039333"><ele>350.0</ele><time>2026-05-03T10:50:01.111Z</time></trkpt><trkpt lat="45.1075917" lon="7.5042033"><ele>349.0</ele><time>2026-05-03T10:50:02.115Z</time></trkpt><trkpt lat="45.1077783" lon="7.5044717"><ele>349.0</ele><time>2026-05-03T10:50:03.12Z</time></trkpt><trkpt lat="45.10797" lon="7.504735"><ele>349.0</ele><time>2026-05-03T10:50:04.112Z</time></trkpt><trkpt lat="45.1081583" lon="7.5049917"><ele>349.0</ele><time>2026-05-03T10:50:05.115Z</time></trkpt><trkpt lat="45.108345" lon="7.5052433"><ele>349.0</ele><time>2026-05-03T10:50:06.113Z</time></trkpt><trkpt lat="45.1085283" lon="7.505495"><ele>349.0</ele><time>2026-05-03T10:50:07.116Z</time></trkpt><trkpt lat="45.108705" lon="7.5057483"><ele>349.0</ele><time>2026-05-03T10:50:08.113Z</time></trkpt><trkpt lat="45.1088767" lon="7.506"><ele>348.5</ele><time>2026-05-03T10:50:09.114Z</time></trkpt><trkpt lat="45.1090467" lon="7.5062483"><ele>348.0</ele><time>2026-05-03T10:50:10.114Z</time></trkpt><trkpt lat="45.1092167" lon="7.5064967"><ele>350.0</ele><time>2026-05-03T10:50:11.112Z</time></trkpt><trkpt lat="45.1093883" lon="7.5067383"><ele>352.0</ele><time>2026-05-03T10:50:12.113Z</time></trkpt><trkpt lat="45.10955" lon="7.5069717"><ele>351.66666666666663</ele><time>2026-05-03T10:50:13.116Z</time></trkpt><trkpt lat="45.109705" lon="7.5071917"><ele>351.3333333333333</ele><time>2026-05-03T10:50:14.114Z</time></trkpt><trkpt lat="45.109855" lon="7.507405"><ele>351.0</ele><time>2026-05-03T10:50:15.115Z</time></trkpt><trkpt lat="45.1100033" lon="7.5076117"><ele>349.6666666666667</ele><time>2026-05-03T10:50:16.115Z</time></trkpt><trkpt lat="45.110155" lon="7.5078133"><ele>348.33333333333337</ele><time>2026-05-03T10:50:17.113Z</time></trkpt><trkpt lat="45.1103" lon="7.50801"><ele>347.0</ele><time>2026-05-03T10:50:18.113Z</time></trkpt><trkpt lat="45.1104317" lon="7.5081967"><ele>347.0</ele><time>2026-05-03T10:50:19.116Z</time></trkpt><trkpt lat="45.1105533" lon="7.5083617"><ele>347.0</ele><time>2026-05-03T10:50:20.113Z</time></trkpt><trkpt lat="45.1106617" lon="7.5085083"><ele>347.0</ele><time>2026-05-03T10:50:21.116Z</time></trkpt><trkpt lat="45.1107567" lon="7.5086367"><ele>347.0</ele><time>2026-05-03T10:50:22.116Z</time></trkpt><trkpt lat="45.1108433" lon="7.5087467"><ele>346.6</ele><time>2026-05-03T10:50:23.116Z</time></trkpt><trkpt lat="45.110915" lon="7.5088467"><ele>346.20000000000005</ele><time>2026-05-03T10:50:24.113Z</time></trkpt><trkpt lat="45.110975" lon="7.5089283"><ele>345.8</ele><time>2026-05-03T10:50:25.116Z</time></trkpt><trkpt lat="45.1110233" lon="7.5089933"><ele>345.4</ele><time>2026-05-03T10:50:26.11Z</time></trkpt><trkpt lat="45.1111" lon="7.5091067"><ele>345.0</ele><time>2026-05-03T10:50:28.12Z</time></trkpt><trkpt lat="45.1111817" lon="7.5092467"><ele>345.0</ele><time>2026-05-03T10:50:30.113Z</time></trkpt><trkpt lat="45.1112267" lon="7.5093233"><ele>345.0</ele><time>2026-05-03T10:50:31.112Z</time></trkpt><trkpt lat="45.1112783" lon="7.5094083"><ele>345.0</ele><time>2026-05-03T10:50:32.114Z</time></trkpt><trkpt lat="45.11134" lon="7.5094983"><ele>345.0</ele><time>2026-05-03T10:50:33.111Z</time></trkpt><trkpt lat="45.1114083" lon="7.5095883"><ele>345.0</ele><time>2026-05-03T10:50:34.113Z</time></trkpt><trkpt lat="45.11149" lon="7.5097033"><ele>345.0</ele><time>2026-05-03T10:50:35.11Z</time></trkpt><trkpt lat="45.111575" lon="7.50983"><ele>345.25</ele><time>2026-05-03T10:50:36.112Z</time></trkpt><trkpt lat="45.11167" lon="7.50996"><ele>345.5</ele><time>2026-05-03T10:50:37.11Z</time></trkpt><trkpt lat="45.111775" lon="7.5100983"><ele>345.75</ele><time>2026-05-03T10:50:38.115Z</time></trkpt><trkpt lat="45.1118817" lon="7.5102367"><ele>346.0</ele><time>2026-05-03T10:50:39.115Z</time></trkpt><trkpt lat="45.1119917" lon="7.510385"><ele>346.0</ele><time>2026-05-03T10:50:40.116Z</time></trkpt><trkpt lat="45.1121083" lon="7.510535"><ele>346.0</ele><time>2026-05-03T10:50:41.113Z</time></trkpt><trkpt lat="45.1122233" lon="7.5106833"><ele>346.0</ele><time>2026-05-03T10:50:42.113Z</time></trkpt><trkpt lat="45.1123383" lon="7.5108333"><ele>346.3333333333333</ele><time>2026-05-03T10:50:43.116Z</time></trkpt><trkpt lat="45.1124683" lon="7.5109867"><ele>346.6666666666667</ele><time>2026-05-03T10:50:44.115Z</time></trkpt><trkpt lat="45.112595" lon="7.5111433"><ele>347.0</ele><time>2026-05-03T10:50:45.114Z</time></trkpt><trkpt lat="45.1127283" lon="7.5113083"><ele>348.0</ele><time>2026-05-03T10:50:46.116Z</time></trkpt><trkpt lat="45.1128767" lon="7.511465"><ele>349.0</ele><time>2026-05-03T10:50:47.111Z</time></trkpt><trkpt lat="45.1130367" lon="7.5116117"><ele>350.0</ele><time>2026-05-03T10:50:48.122Z</time></trkpt><trkpt lat="45.1132" lon="7.5117533"><ele>349.6666666666667</ele><time>2026-05-03T10:50:49.114Z</time></trkpt><trkpt lat="45.113375" lon="7.5119"><ele>349.3333333333333</ele><time>2026-05-03T10:50:50.115Z</time></trkpt><trkpt lat="45.1135483" lon="7.51204"><ele>349.0</ele><time>2026-05-03T10:50:51.114Z</time></trkpt><trkpt lat="45.1137217" lon="7.512175"><ele>349.0</ele><time>2026-05-03T10:50:52.114Z</time></trkpt><trkpt lat="45.1139" lon="7.5123017"><ele>349.0</ele><time>2026-05-03T10:50:53.113Z</time></trkpt><trkpt lat="45.1140767" lon="7.5124267"><ele>349.0</ele><time>2026-05-03T10:50:54.141Z</time></trkpt><trkpt lat="45.1142533" lon="7.5125567"><ele>348.0</ele><time>2026-05-03T10:50:55.11Z</time></trkpt><trkpt lat="45.114445" lon="7.5126767"><ele>347.0</ele><time>2026-05-03T10:50:56.124Z</time></trkpt><trkpt lat="45.1146217" lon="7.5127933"><ele>346.0</ele><time>2026-05-03T10:50:57.109Z</time></trkpt><trkpt lat="45.1147833" lon="7.512905"><ele>346.66666666666663</ele><time>2026-05-03T10:50:58.112Z</time></trkpt><trkpt lat="45.1149267" lon="7.5130067"><ele>347.3333333333333</ele><time>2026-05-03T10:50:59.111Z</time></trkpt><trkpt lat="45.1150633" lon="7.5131017"><ele>348.0</ele><time>2026-05-03T10:51:00.114Z</time></trkpt><trkpt lat="45.1151933" lon="7.5131883"><ele>348.0</ele><time>2026-05-03T10:51:01.11Z</time></trkpt><trkpt lat="45.1153083" lon="7.5132717"><ele>348.0</ele><time>2026-05-03T10:51:02.115Z</time></trkpt><trkpt lat="45.1154067" lon="7.5133517"><ele>348.0</ele><time>2026-05-03T10:51:03.117Z</time></trkpt><trkpt lat="45.1154867" lon="7.513445"><ele>348.0</ele><time>2026-05-03T10:51:04.12Z</time></trkpt><trkpt lat="45.1155383" lon="7.5135567"><ele>348.0</ele><time>2026-05-03T10:51:05.113Z</time></trkpt><trkpt lat="45.1155867" lon="7.5136867"><ele>347.59999999999997</ele><time>2026-05-03T10:51:06.114Z</time></trkpt><trkpt lat="45.115635" lon="7.5138133"><ele>347.2</ele><time>2026-05-03T10:51:07.114Z</time></trkpt><trkpt lat="45.1156933" lon="7.51392"><ele>346.8</ele><time>2026-05-03T10:51:08.112Z</time></trkpt><trkpt lat="45.1157633" lon="7.5140083"><ele>346.4</ele><time>2026-05-03T10:51:09.114Z</time></trkpt><trkpt lat="45.115855" lon="7.514035"><ele>346.0</ele><time>2026-05-03T10:51:10.113Z</time></trkpt><trkpt lat="45.1159467" lon="7.5140367"><ele>346.0</ele><time>2026-05-03T10:51:11.112Z</time></trkpt><trkpt lat="45.1160517" lon="7.5140067"><ele>346.0</ele><time>2026-05-03T10:51:12.112Z</time></trkpt><trkpt lat="45.1161617" lon="7.5139867"><ele>346.0</ele><time>2026-05-03T10:51:13.115Z</time></trkpt><trkpt lat="45.1162717" lon="7.514005"><ele>346.0</ele><time>2026-05-03T10:51:14.117Z</time></trkpt><trkpt lat="45.11638" lon="7.5140567"><ele>346.0</ele><time>2026-05-03T10:51:15.117Z</time></trkpt><trkpt lat="45.116485" lon="7.5141383"><ele>346.0</ele><time>2026-05-03T10:51:16.113Z</time></trkpt><trkpt lat="45.1165967" lon="7.51423"><ele>346.0</ele><time>2026-05-03T10:51:17.11Z</time></trkpt><trkpt lat="45.1167133" lon="7.5143533"><ele>346.0</ele><time>2026-05-03T10:51:18.115Z</time></trkpt><trkpt lat="45.1168383" lon="7.51449"><ele>346.0</ele><time>2026-05-03T10:51:19.113Z</time></trkpt><trkpt lat="45.1169683" lon="7.51464"><ele>346.0</ele><time>2026-05-03T10:51:20.11Z</time></trkpt><trkpt lat="45.1171067" lon="7.5147983"><ele>346.0</ele><time>2026-05-03T10:51:21.11Z</time></trkpt><trkpt lat="45.11725" lon="7.5149617"><ele>346.0</ele><time>2026-05-03T10:51:22.112Z</time></trkpt><trkpt lat="45.1174033" lon="7.515135"><ele>345.66666666666663</ele><time>2026-05-03T10:51:23.113Z</time></trkpt><trkpt lat="45.117555" lon="7.5153167"><ele>345.3333333333333</ele><time>2026-05-03T10:51:24.113Z</time></trkpt><trkpt lat="45.1177133" lon="7.5155067"><ele>345.0</ele><time>2026-05-03T10:51:25.115Z</time></trkpt><trkpt lat="45.117875" lon="7.5157017"><ele>343.3333333333333</ele><time>2026-05-03T10:51:26.116Z</time></trkpt><trkpt lat="45.1180367" lon="7.5158967"><ele>341.66666666666663</ele><time>2026-05-03T10:51:27.114Z</time></trkpt><trkpt lat="45.1182067" lon="7.516095"><ele>340.0</ele><time>2026-05-03T10:51:28.113Z</time></trkpt><trkpt lat="45.1183717" lon="7.516295"><ele>340.0</ele><time>2026-05-03T10:51:29.113Z</time></trkpt><trkpt lat="45.1185333" lon="7.5164983"><ele>340.0</ele><time>2026-05-03T10:51:30.117Z</time></trkpt><trkpt lat="45.1186933" lon="7.5167"><ele>340.0</ele><time>2026-05-03T10:51:31.11Z</time></trkpt><trkpt lat="45.11885" lon="7.5169067"><ele>339.66666666666663</ele><time>2026-05-03T10:51:32.112Z</time></trkpt><trkpt lat="45.1190083" lon="7.5171183"><ele>339.3333333333333</ele><time>2026-05-03T10:51:33.113Z</time></trkpt><trkpt lat="45.119165" lon="7.5173333"><ele>339.0</ele><time>2026-05-03T10:51:34.111Z</time></trkpt><trkpt lat="45.11931" lon="7.5175583"><ele>338.0</ele><time>2026-05-03T10:51:35.116Z</time></trkpt><trkpt lat="45.119445" lon="7.5177917"><ele>337.0</ele><time>2026-05-03T10:51:36.113Z</time></trkpt><trkpt lat="45.1195717" lon="7.5180333"><ele>336.0</ele><time>2026-05-03T10:51:37.111Z</time></trkpt><trkpt lat="45.1196933" lon="7.5182817"><ele>336.0</ele><time>2026-05-03T10:51:38.117Z</time></trkpt><trkpt lat="45.119805" lon="7.5185367"><ele>336.0</ele><time>2026-05-03T10:51:39.112Z</time></trkpt><trkpt lat="45.11991" lon="7.5188"><ele>336.0</ele><time>2026-05-03T10:51:40.114Z</time></trkpt><trkpt lat="45.1200017" lon="7.51907"><ele>335.6666666666667</ele><time>2026-05-03T10:51:41.115Z</time></trkpt><trkpt lat="45.1200867" lon="7.51935"><ele>335.33333333333337</ele><time>2026-05-03T10:51:42.113Z</time></trkpt><trkpt lat="45.1201633" lon="7.5196367"><ele>335.0</ele><time>2026-05-03T10:51:43.112Z</time></trkpt><trkpt lat="45.12023" lon="7.5199283"><ele>334.6666666666667</ele><time>2026-05-03T10:51:44.111Z</time></trkpt><trkpt lat="45.1202867" lon="7.520225"><ele>334.3333333333333</ele><time>2026-05-03T10:51:45.113Z</time></trkpt><trkpt lat="45.1203333" lon="7.5205233"><ele>334.0</ele><time>2026-05-03T10:51:46.114Z</time></trkpt><trkpt lat="45.12037" lon="7.5208183"><ele>334.0</ele><time>2026-05-03T10:51:47.112Z</time></trkpt><trkpt lat="45.1203933" lon="7.5211167"><ele>334.0</ele><time>2026-05-03T10:51:48.113Z</time></trkpt><trkpt lat="45.1204117" lon="7.52142"><ele>334.0</ele><time>2026-05-03T10:51:49.111Z</time></trkpt><trkpt lat="45.1204233" lon="7.5217233"><ele>333.66666666666663</ele><time>2026-05-03T10:51:50.116Z</time></trkpt><trkpt lat="45.1204317" lon="7.5220333"><ele>333.3333333333333</ele><time>2026-05-03T10:51:51.119Z</time></trkpt><trkpt lat="45.1204383" lon="7.5223533"><ele>333.0</ele><time>2026-05-03T10:51:52.114Z</time></trkpt><trkpt lat="45.12044" lon="7.522685"><ele>332.5</ele><time>2026-05-03T10:51:53.115Z</time></trkpt><trkpt lat="45.1204433" lon="7.5230283"><ele>332.0</ele><time>2026-05-03T10:51:54.114Z</time></trkpt><trkpt lat="45.1204483" lon="7.5233867"><ele>332.0</ele><time>2026-05-03T10:51:55.118Z</time></trkpt><trkpt lat="45.1204533" lon="7.5237533"><ele>332.0</ele><time>2026-05-03T10:51:56.111Z</time></trkpt><trkpt lat="45.12046" lon="7.5241367"><ele>332.0</ele><time>2026-05-03T10:51:57.117Z</time></trkpt><trkpt lat="45.1204633" lon="7.524535"><ele>332.0</ele><time>2026-05-03T10:51:58.114Z</time></trkpt><trkpt lat="45.1204567" lon="7.5249333"><ele>331.5</ele><time>2026-05-03T10:51:59.113Z</time></trkpt><trkpt lat="45.1204483" lon="7.5253367"><ele>331.0</ele><time>2026-05-03T10:52:00.115Z</time></trkpt><trkpt lat="45.1204417" lon="7.525745"><ele>330.5</ele><time>2026-05-03T10:52:01.115Z</time></trkpt><trkpt lat="45.1204367" lon="7.5261517"><ele>330.0</ele><time>2026-05-03T10:52:02.109Z</time></trkpt><trkpt lat="45.120435" lon="7.5265533"><ele>329.5</ele><time>2026-05-03T10:52:03.117Z</time></trkpt><trkpt lat="45.1204317" lon="7.5269517"><ele>329.0</ele><time>2026-05-03T10:52:04.116Z</time></trkpt><trkpt lat="45.120435" lon="7.5273467"><ele>329.0</ele><time>2026-05-03T10:52:05.108Z</time></trkpt><trkpt lat="45.1204367" lon="7.5277217"><ele>329.0</ele><time>2026-05-03T10:52:06.114Z</time></trkpt><trkpt lat="45.1204433" lon="7.5280783"><ele>328.0</ele><time>2026-05-03T10:52:07.117Z</time></trkpt><trkpt lat="45.1204483" lon="7.5284217"><ele>327.0</ele><time>2026-05-03T10:52:08.116Z</time></trkpt><trkpt lat="45.1204567" lon="7.5287583"><ele>326.0</ele><time>2026-05-03T10:52:09.113Z</time></trkpt><trkpt lat="45.12047" lon="7.5290833"><ele>325.0</ele><time>2026-05-03T10:52:10.11Z</time></trkpt><trkpt lat="45.120495" lon="7.5294033"><ele>324.66666666666663</ele><time>2026-05-03T10:52:11.113Z</time></trkpt><trkpt lat="45.1205283" lon="7.52972"><ele>324.3333333333333</ele><time>2026-05-03T10:52:12.11Z</time></trkpt><trkpt lat="45.12057" lon="7.5300267"><ele>324.0</ele><time>2026-05-03T10:52:13.11Z</time></trkpt><trkpt lat="45.1206117" lon="7.5303133"><ele>324.6666666666667</ele><time>2026-05-03T10:52:14.115Z</time></trkpt><trkpt lat="45.120655" lon="7.5305867"><ele>325.33333333333337</ele><time>2026-05-03T10:52:15.109Z</time></trkpt><trkpt lat="45.1207017" lon="7.53083"><ele>326.0</ele><time>2026-05-03T10:52:16.114Z</time></trkpt><trkpt lat="45.1207383" lon="7.531025"><ele>326.0</ele><time>2026-05-03T10:52:17.111Z</time></trkpt><trkpt lat="45.1207517" lon="7.5311933"><ele>326.0</ele><time>2026-05-03T10:52:18.114Z</time></trkpt><trkpt lat="45.12075" lon="7.531365"><ele>326.0</ele><time>2026-05-03T10:52:19.111Z</time></trkpt><trkpt lat="45.12073" lon="7.5315267"><ele>326.0</ele><time>2026-05-03T10:52:20.111Z</time></trkpt><trkpt lat="45.1207083" lon="7.5316783"><ele>326.0</ele><time>2026-05-03T10:52:21.112Z</time></trkpt><trkpt lat="45.1207117" lon="7.53182"><ele>326.0</ele><time>2026-05-03T10:52:22.113Z</time></trkpt><trkpt lat="45.12075" lon="7.5319467"><ele>326.0</ele><time>2026-05-03T10:52:23.11Z</time></trkpt><trkpt lat="45.12082" lon="7.5320533"><ele>326.0</ele><time>2026-05-03T10:52:24.111Z</time></trkpt><trkpt lat="45.1209083" lon="7.5321617"><ele>326.0</ele><time>2026-05-03T10:52:25.109Z</time></trkpt><trkpt lat="45.1209933" lon="7.5322983"><ele>325.6666666666667</ele><time>2026-05-03T10:52:26.115Z</time></trkpt><trkpt lat="45.1210633" lon="7.53248"><ele>325.3333333333333</ele><time>2026-05-03T10:52:27.112Z</time></trkpt><trkpt lat="45.1211283" lon="7.5326967"><ele>325.0</ele><time>2026-05-03T10:52:28.111Z</time></trkpt><trkpt lat="45.12119" lon="7.5329517"><ele>324.66666666666663</ele><time>2026-05-03T10:52:29.116Z</time></trkpt><trkpt lat="45.121245" lon="7.53323"><ele>324.3333333333333</ele><time>2026-05-03T10:52:30.111Z</time></trkpt><trkpt lat="45.1213" lon="7.5335317"><ele>324.0</ele><time>2026-05-03T10:52:31.117Z</time></trkpt><trkpt lat="45.1213467" lon="7.5338483"><ele>323.5</ele><time>2026-05-03T10:52:32.112Z</time></trkpt><trkpt lat="45.121385" lon="7.5341733"><ele>323.0</ele><time>2026-05-03T10:52:33.115Z</time></trkpt><trkpt lat="45.1214117" lon="7.5345017"><ele>322.0</ele><time>2026-05-03T10:52:34.113Z</time></trkpt><trkpt lat="45.12143" lon="7.5348333"><ele>321.0</ele><time>2026-05-03T10:52:35.112Z</time></trkpt><trkpt lat="45.1214317" lon="7.5351633"><ele>320.5</ele><time>2026-05-03T10:52:36.112Z</time></trkpt><trkpt lat="45.1214233" lon="7.5354967"><ele>320.0</ele><time>2026-05-03T10:52:37.113Z</time></trkpt><trkpt lat="45.1214017" lon="7.53583"><ele>320.0</ele><time>2026-05-03T10:52:38.121Z</time></trkpt><trkpt lat="45.121365" lon="7.5361617"><ele>320.0</ele><time>2026-05-03T10:52:39.115Z</time></trkpt><trkpt lat="45.121315" lon="7.5364817"><ele>320.5</ele><time>2026-05-03T10:52:40.111Z</time></trkpt><trkpt lat="45.121255" lon="7.5367967"><ele>321.0</ele><time>2026-05-03T10:52:41.112Z</time></trkpt><trkpt lat="45.1211883" lon="7.53711"><ele>321.0</ele><time>2026-05-03T10:52:42.113Z</time></trkpt><trkpt lat="45.12111" lon="7.537415"><ele>321.0</ele><time>2026-05-03T10:52:43.115Z</time></trkpt><trkpt lat="45.1210217" lon="7.5377133"><ele>320.6666666666667</ele><time>2026-05-03T10:52:44.11Z</time></trkpt><trkpt lat="45.120925" lon="7.5380017"><ele>320.33333333333337</ele><time>2026-05-03T10:52:45.116Z</time></trkpt><trkpt lat="45.1208217" lon="7.5382783"><ele>320.0</ele><time>2026-05-03T10:52:46.11Z</time></trkpt><trkpt lat="45.1207067" lon="7.5385517"><ele>319.0</ele><time>2026-05-03T10:52:47.11Z</time></trkpt><trkpt lat="45.12058" lon="7.538815"><ele>318.0</ele><time>2026-05-03T10:52:48.11Z</time></trkpt><trkpt lat="45.1204367" lon="7.539075"><ele>318.0</ele><time>2026-05-03T10:52:49.112Z</time></trkpt><trkpt lat="45.120285" lon="7.5393317"><ele>318.0</ele><time>2026-05-03T10:52:50.113Z</time></trkpt><trkpt lat="45.1201233" lon="7.539585"><ele>318.0</ele><time>2026-05-03T10:52:51.115Z</time></trkpt><trkpt lat="45.11996" lon="7.5398317"><ele>318.0</ele><time>2026-05-03T10:52:52.113Z</time></trkpt><trkpt lat="45.1197867" lon="7.5400733"><ele>319.0</ele><time>2026-05-03T10:52:53.117Z</time></trkpt><trkpt lat="45.1196133" lon="7.540315"><ele>320.0</ele><time>2026-05-03T10:52:54.113Z</time></trkpt><trkpt lat="45.1194417" lon="7.540545"><ele>320.0</ele><time>2026-05-03T10:52:55.116Z</time></trkpt><trkpt lat="45.119275" lon="7.54077"><ele>320.0</ele><time>2026-05-03T10:52:56.109Z</time></trkpt><trkpt lat="45.1191133" lon="7.5409833"><ele>320.33333333333337</ele><time>2026-05-03T10:52:57.111Z</time></trkpt><trkpt lat="45.1189583" lon="7.5411867"><ele>320.6666666666667</ele><time>2026-05-03T10:52:58.109Z</time></trkpt><trkpt lat="45.1188133" lon="7.5413917"><ele>321.0</ele><time>2026-05-03T10:52:59.116Z</time></trkpt><trkpt lat="45.1186733" lon="7.5415817"><ele>321.3333333333333</ele><time>2026-05-03T10:53:00.108Z</time></trkpt><trkpt lat="45.1185383" lon="7.5417617"><ele>321.66666666666663</ele><time>2026-05-03T10:53:01.11Z</time></trkpt><trkpt lat="45.11842" lon="7.5419183"><ele>322.0</ele><time>2026-05-03T10:53:02.111Z</time></trkpt><trkpt lat="45.1183167" lon="7.5420383"><ele>322.20000000000005</ele><time>2026-05-03T10:53:03.11Z</time></trkpt><trkpt lat="45.118215" lon="7.542115"><ele>322.4</ele><time>2026-05-03T10:53:04.11Z</time></trkpt><trkpt lat="45.1181117" lon="7.5421583"><ele>322.6</ele><time>2026-05-03T10:53:05.109Z</time></trkpt><trkpt lat="45.1180033" lon="7.5421817"><ele>322.79999999999995</ele><time>2026-05-03T10:53:06.11Z</time></trkpt><trkpt lat="45.1179" lon="7.542205"><ele>323.0</ele><time>2026-05-03T10:53:07.109Z</time></trkpt><trkpt lat="45.1178033" lon="7.5422583"><ele>323.0</ele><time>2026-05-03T10:53:08.111Z</time></trkpt><trkpt lat="45.1177333" lon="7.5423533"><ele>323.0</ele><time>2026-05-03T10:53:09.11Z</time></trkpt><trkpt lat="45.11769" lon="7.54247"><ele>323.0</ele><time>2026-05-03T10:53:10.11Z</time></trkpt><trkpt lat="45.1176617" lon="7.5425933"><ele>323.0</ele><time>2026-05-03T10:53:11.109Z</time></trkpt><trkpt lat="45.1176533" lon="7.5427183"><ele>323.0</ele><time>2026-05-03T10:53:12.109Z</time></trkpt><trkpt lat="45.11767" lon="7.5428367"><ele>322.4</ele><time>2026-05-03T10:53:13.109Z</time></trkpt><trkpt lat="45.1177183" lon="7.5429433"><ele>321.79999999999995</ele><time>2026-05-03T10:53:14.112Z</time></trkpt><trkpt lat="45.1177917" lon="7.543015"><ele>321.2</ele><time>2026-05-03T10:53:15.114Z</time></trkpt><trkpt lat="45.117865" lon="7.5430583"><ele>320.6</ele><time>2026-05-03T10:53:16.11Z</time></trkpt><trkpt lat="45.1179567" lon="7.5430767"><ele>320.0</ele><time>2026-05-03T10:53:17.112Z</time></trkpt><trkpt lat="45.118065" lon="7.5430233"><ele>320.0</ele><time>2026-05-03T10:53:18.11Z</time></trkpt><trkpt lat="45.118155" lon="7.5429767"><ele>320.0</ele><time>2026-05-03T10:53:19.113Z</time></trkpt><trkpt lat="45.1182417" lon="7.5429083"><ele>320.0</ele><time>2026-05-03T10:53:20.11Z</time></trkpt><trkpt lat="45.118345" lon="7.54283"><ele>320.0</ele><time>2026-05-03T10:53:21.113Z</time></trkpt><trkpt lat="45.1184583" lon="7.5427433"><ele>320.0</ele><time>2026-05-03T10:53:22.111Z</time></trkpt><trkpt lat="45.11858" lon="7.5426567"><ele>320.25</ele><time>2026-05-03T10:53:23.109Z</time></trkpt><trkpt lat="45.1187067" lon="7.5425683"><ele>320.5</ele><time>2026-05-03T10:53:24.114Z</time></trkpt><trkpt lat="45.118835" lon="7.5424883"><ele>320.75</ele><time>2026-05-03T10:53:25.11Z</time></trkpt><trkpt lat="45.1189533" lon="7.5424167"><ele>321.0</ele><time>2026-05-03T10:53:26.109Z</time></trkpt><trkpt lat="45.119065" lon="7.5423733"><ele>320.6666666666667</ele><time>2026-05-03T10:53:27.112Z</time></trkpt><trkpt lat="45.1191583" lon="7.542355"><ele>320.3333333333333</ele><time>2026-05-03T10:53:28.112Z</time></trkpt><trkpt lat="45.1192467" lon="7.5423467"><ele>320.0</ele><time>2026-05-03T10:53:29.11Z</time></trkpt><trkpt lat="45.119325" lon="7.5423583"><ele>319.66666666666663</ele><time>2026-05-03T10:53:30.112Z</time></trkpt><trkpt lat="45.119395" lon="7.5423817"><ele>319.3333333333333</ele><time>2026-05-03T10:53:31.114Z</time></trkpt><trkpt lat="45.11948" lon="7.5424583"><ele>319.0</ele><time>2026-05-03T10:53:33.118Z</time></trkpt><trkpt lat="45.1195333" lon="7.5425167"><ele>319.0</ele><time>2026-05-03T10:53:35.113Z</time></trkpt><trkpt lat="45.119515" lon="7.5424083"><ele>319.0</ele><time>2026-05-03T10:54:31.114Z</time></trkpt><trkpt lat="45.11941" lon="7.5423417"><ele>319.0</ele><time>2026-05-03T10:54:33.115Z</time></trkpt><trkpt lat="45.1193167" lon="7.54232"><ele>319.0</ele><time>2026-05-03T10:54:34.112Z</time></trkpt><trkpt lat="45.119215" lon="7.5423133"><ele>319.0</ele><time>2026-05-03T10:54:35.109Z</time></trkpt><trkpt lat="45.119115" lon="7.5423117"><ele>319.5</ele><time>2026-05-03T10:54:36.114Z</time></trkpt><trkpt lat="45.11902" lon="7.5423383"><ele>320.0</ele><time>2026-05-03T10:54:37.108Z</time></trkpt><trkpt lat="45.1189117" lon="7.5424"><ele>320.5</ele><time>2026-05-03T10:54:38.108Z</time></trkpt><trkpt lat="45.1188017" lon="7.5424833"><ele>321.0</ele><time>2026-05-03T10:54:39.12Z</time></trkpt><trkpt lat="45.1186867" lon="7.5425733"><ele>321.0</ele><time>2026-05-03T10:54:40.109Z</time></trkpt><trkpt lat="45.1185817" lon="7.5426433"><ele>321.0</ele><time>2026-05-03T10:54:41.108Z</time></trkpt><trkpt lat="45.118485" lon="7.54265"><ele>321.0</ele><time>2026-05-03T10:54:42.108Z</time></trkpt><trkpt lat="45.1184" lon="7.5426117"><ele>321.0</ele><time>2026-05-03T10:54:43.108Z</time></trkpt><trkpt lat="45.118325" lon="7.54252"><ele>321.0</ele><time>2026-05-03T10:54:44.111Z</time></trkpt><trkpt lat="45.1182567" lon="7.5424117"><ele>321.4</ele><time>2026-05-03T10:54:45.115Z</time></trkpt><trkpt lat="45.1181933" lon="7.5422883"><ele>321.8</ele><time>2026-05-03T10:54:46.113Z</time></trkpt><trkpt lat="45.1181033" lon="7.5422133"><ele>322.2</ele><time>2026-05-03T10:54:47.113Z</time></trkpt><trkpt lat="45.118" lon="7.542175"><ele>322.59999999999997</ele><time>2026-05-03T10:54:48.112Z</time></trkpt><trkpt lat="45.1178983" lon="7.54219"><ele>323.0</ele><time>2026-05-03T10:54:49.114Z</time></trkpt><trkpt lat="45.1178083" lon="7.5422483"><ele>323.0</ele><time>2026-05-03T10:54:50.115Z</time></trkpt><trkpt lat="45.1177433" lon="7.542355"><ele>323.0</ele><time>2026-05-03T10:54:51.115Z</time></trkpt><trkpt lat="45.1176983" lon="7.5424983"><ele>323.0</ele><time>2026-05-03T10:54:52.115Z</time></trkpt><trkpt lat="45.1176867" lon="7.5426683"><ele>323.0</ele><time>2026-05-03T10:54:53.118Z</time></trkpt><trkpt lat="45.1176883" lon="7.5428517"><ele>322.25</ele><time>2026-05-03T10:54:54.117Z</time></trkpt><trkpt lat="45.1176917" lon="7.54304"><ele>321.5</ele><time>2026-05-03T10:54:55.114Z</time></trkpt><trkpt lat="45.1176867" lon="7.54323"><ele>320.75</ele><time>2026-05-03T10:54:56.115Z</time></trkpt><trkpt lat="45.117665" lon="7.54344"><ele>320.0</ele><time>2026-05-03T10:54:57.116Z</time></trkpt><trkpt lat="45.117645" lon="7.5436517"><ele>319.6666666666667</ele><time>2026-05-03T10:54:58.113Z</time></trkpt><trkpt lat="45.11762" lon="7.543865"><ele>319.3333333333333</ele><time>2026-05-03T10:54:59.114Z</time></trkpt><trkpt lat="45.1176067" lon="7.5440917"><ele>319.0</ele><time>2026-05-03T10:55:00.113Z</time></trkpt><trkpt lat="45.117595" lon="7.544325"><ele>318.0</ele><time>2026-05-03T10:55:01.112Z</time></trkpt><trkpt lat="45.1175883" lon="7.5445667"><ele>317.0</ele><time>2026-05-03T10:55:02.113Z</time></trkpt><trkpt lat="45.11758" lon="7.5448117"><ele>316.0</ele><time>2026-05-03T10:55:03.117Z</time></trkpt><trkpt lat="45.1175767" lon="7.54506"><ele>316.0</ele><time>2026-05-03T10:55:04.11Z</time></trkpt><trkpt lat="45.1175667" lon="7.5453133"><ele>316.0</ele><time>2026-05-03T10:55:05.111Z</time></trkpt><trkpt lat="45.1175567" lon="7.54557"><ele>316.0</ele><time>2026-05-03T10:55:06.111Z</time></trkpt><trkpt lat="45.11754" lon="7.5458233"><ele>315.66666666666663</ele><time>2026-05-03T10:55:07.113Z</time></trkpt><trkpt lat="45.1175317" lon="7.5460867"><ele>315.3333333333333</ele><time>2026-05-03T10:55:08.113Z</time></trkpt><trkpt lat="45.1175233" lon="7.54635"><ele>315.0</ele><time>2026-05-03T10:55:09.111Z</time></trkpt><trkpt lat="45.1175217" lon="7.5466217"><ele>315.6666666666667</ele><time>2026-05-03T10:55:10.112Z</time></trkpt><trkpt lat="45.1175117" lon="7.5468983"><ele>316.33333333333337</ele><time>2026-05-03T10:55:11.111Z</time></trkpt><trkpt lat="45.117495" lon="7.54717"><ele>317.0</ele><time>2026-05-03T10:55:12.111Z</time></trkpt><trkpt lat="45.1174683" lon="7.5474383"><ele>316.33333333333337</ele><time>2026-05-03T10:55:13.113Z</time></trkpt><trkpt lat="45.1174383" lon="7.5477117"><ele>315.6666666666667</ele><time>2026-05-03T10:55:14.114Z</time></trkpt><trkpt lat="45.1174" lon="7.5479833"><ele>315.0</ele><time>2026-05-03T10:55:15.112Z</time></trkpt><trkpt lat="45.1173533" lon="7.548255"><ele>315.0</ele><time>2026-05-03T10:55:16.115Z</time></trkpt><trkpt lat="45.1173" lon="7.548525"><ele>315.0</ele><time>2026-05-03T10:55:17.112Z</time></trkpt><trkpt lat="45.117235" lon="7.5487883"><ele>315.0</ele><time>2026-05-03T10:55:18.11Z</time></trkpt><trkpt lat="45.117165" lon="7.54905"><ele>315.3333333333333</ele><time>2026-05-03T10:55:19.113Z</time></trkpt><trkpt lat="45.1170933" lon="7.5493083"><ele>315.66666666666663</ele><time>2026-05-03T10:55:20.114Z</time></trkpt><trkpt lat="45.1170133" lon="7.5495667"><ele>316.0</ele><time>2026-05-03T10:55:21.111Z</time></trkpt><trkpt lat="45.1169317" lon="7.549825"><ele>315.0</ele><time>2026-05-03T10:55:22.112Z</time></trkpt><trkpt lat="45.1168517" lon="7.5500783"><ele>314.0</ele><time>2026-05-03T10:55:23.114Z</time></trkpt><trkpt lat="45.1167683" lon="7.55033"><ele>313.0</ele><time>2026-05-03T10:55:24.115Z</time></trkpt><trkpt lat="45.1166833" lon="7.5505817"><ele>313.0</ele><time>2026-05-03T10:55:25.112Z</time></trkpt><trkpt lat="45.1165967" lon="7.55083"><ele>313.0</ele><time>2026-05-03T10:55:26.119Z</time></trkpt><trkpt lat="45.1165117" lon="7.5510767"><ele>313.0</ele><time>2026-05-03T10:55:27.115Z</time></trkpt><trkpt lat="45.1164267" lon="7.55132"><ele>312.66666666666663</ele><time>2026-05-03T10:55:28.113Z</time></trkpt><trkpt lat="45.1163433" lon="7.5515583"><ele>312.3333333333333</ele><time>2026-05-03T10:55:29.114Z</time></trkpt><trkpt lat="45.1162617" lon="7.551795"><ele>312.0</ele><time>2026-05-03T10:55:30.113Z</time></trkpt><trkpt lat="45.116185" lon="7.5520267"><ele>311.6666666666667</ele><time>2026-05-03T10:55:31.112Z</time></trkpt><trkpt lat="45.1161067" lon="7.5522517"><ele>311.33333333333337</ele><time>2026-05-03T10:55:32.113Z</time></trkpt><trkpt lat="45.11603" lon="7.55247"><ele>311.0</ele><time>2026-05-03T10:55:33.115Z</time></trkpt><trkpt lat="45.115955" lon="7.5526833"><ele>310.6666666666667</ele><time>2026-05-03T10:55:34.113Z</time></trkpt><trkpt lat="45.1158817" lon="7.5528917"><ele>310.3333333333333</ele><time>2026-05-03T10:55:35.112Z</time></trkpt><trkpt lat="45.1158033" lon="7.553095"><ele>310.0</ele><time>2026-05-03T10:55:36.114Z</time></trkpt><trkpt lat="45.1157283" lon="7.5532983"><ele>310.66666666666663</ele><time>2026-05-03T10:55:37.111Z</time></trkpt><trkpt lat="45.1156483" lon="7.5535017"><ele>311.3333333333333</ele><time>2026-05-03T10:55:38.111Z</time></trkpt><trkpt lat="45.1155667" lon="7.5537017"><ele>312.0</ele><time>2026-05-03T10:55:39.114Z</time></trkpt><trkpt lat="45.1154833" lon="7.5539033"><ele>312.0</ele><time>2026-05-03T10:55:40.109Z</time></trkpt><trkpt lat="45.11539" lon="7.5541017"><ele>312.0</ele><time>2026-05-03T10:55:41.11Z</time></trkpt><trkpt lat="45.115295" lon="7.5542983"><ele>312.0</ele><time>2026-05-03T10:55:42.115Z</time></trkpt><trkpt lat="45.1151967" lon="7.5544983"><ele>311.3333333333333</ele><time>2026-05-03T10:55:43.113Z</time></trkpt><trkpt lat="45.1150967" lon="7.5546933"><ele>310.66666666666663</ele><time>2026-05-03T10:55:44.111Z</time></trkpt><trkpt lat="45.1149983" lon="7.55488"><ele>310.0</ele><time>2026-05-03T10:55:45.112Z</time></trkpt><trkpt lat="45.1149017" lon="7.555065"><ele>309.66666666666663</ele><time>2026-05-03T10:55:46.113Z</time></trkpt><trkpt lat="45.1148" lon="7.55525"><ele>309.3333333333333</ele><time>2026-05-03T10:55:47.116Z</time></trkpt><trkpt lat="45.1146933" lon="7.5554383"><ele>309.0</ele><time>2026-05-03T10:55:48.114Z</time></trkpt><trkpt lat="45.11459" lon="7.555625"><ele>309.0</ele><time>2026-05-03T10:55:49.115Z</time></trkpt><trkpt lat="45.114485" lon="7.5558167"><ele>309.0</ele><time>2026-05-03T10:55:50.112Z</time></trkpt><trkpt lat="45.11438" lon="7.5560083"><ele>309.0</ele><time>2026-05-03T10:55:51.112Z</time></trkpt><trkpt lat="45.1142733" lon="7.5562133"><ele>309.0</ele><time>2026-05-03T10:55:52.114Z</time></trkpt><trkpt lat="45.1141617" lon="7.5564267"><ele>309.0</ele><time>2026-05-03T10:55:53.114Z</time></trkpt><trkpt lat="45.1140433" lon="7.5566533"><ele>309.0</ele><time>2026-05-03T10:55:54.113Z</time></trkpt><trkpt lat="45.1139167" lon="7.5568933"><ele>308.5</ele><time>2026-05-03T10:55:55.112Z</time></trkpt><trkpt lat="45.1137817" lon="7.5571417"><ele>308.0</ele><time>2026-05-03T10:55:56.113Z</time></trkpt><trkpt lat="45.113635" lon="7.5573983"><ele>308.0</ele><time>2026-05-03T10:55:57.113Z</time></trkpt><trkpt lat="45.113485" lon="7.55766"><ele>308.0</ele><time>2026-05-03T10:55:58.114Z</time></trkpt><trkpt lat="45.113335" lon="7.5579217"><ele>308.0</ele><time>2026-05-03T10:55:59.114Z</time></trkpt><trkpt lat="45.113185" lon="7.55819"><ele>308.0</ele><time>2026-05-03T10:56:00.112Z</time></trkpt><trkpt lat="45.1130383" lon="7.55846"><ele>308.0</ele><time>2026-05-03T10:56:01.115Z</time></trkpt><trkpt lat="45.1128967" lon="7.5587167"><ele>308.0</ele><time>2026-05-03T10:56:02.113Z</time></trkpt><trkpt lat="45.1127667" lon="7.558965"><ele>308.0</ele><time>2026-05-03T10:56:03.116Z</time></trkpt><trkpt lat="45.1126483" lon="7.5592033"><ele>308.0</ele><time>2026-05-03T10:56:04.113Z</time></trkpt><trkpt lat="45.1125383" lon="7.5594383"><ele>308.0</ele><time>2026-05-03T10:56:05.111Z</time></trkpt><trkpt lat="45.1124383" lon="7.5596683"><ele>308.0</ele><time>2026-05-03T10:56:06.113Z</time></trkpt><trkpt lat="45.1123417" lon="7.559905"><ele>307.6666666666667</ele><time>2026-05-03T10:56:07.11Z</time></trkpt><trkpt lat="45.1122517" lon="7.5601483"><ele>307.3333333333333</ele><time>2026-05-03T10:56:08.115Z</time></trkpt><trkpt lat="45.1121617" lon="7.5604067"><ele>307.0</ele><time>2026-05-03T10:56:09.116Z</time></trkpt><trkpt lat="45.1120767" lon="7.5606717"><ele>307.0</ele><time>2026-05-03T10:56:10.113Z</time></trkpt><trkpt lat="45.1120017" lon="7.5609417"><ele>307.0</ele><time>2026-05-03T10:56:11.112Z</time></trkpt><trkpt lat="45.1119333" lon="7.5612083"><ele>307.0</ele><time>2026-05-03T10:56:12.113Z</time></trkpt><trkpt lat="45.1118717" lon="7.5614683"><ele>306.0</ele><time>2026-05-03T10:56:13.112Z</time></trkpt><trkpt lat="45.1118117" lon="7.56173"><ele>305.0</ele><time>2026-05-03T10:56:14.112Z</time></trkpt><trkpt lat="45.1117517" lon="7.5619917"><ele>304.0</ele><time>2026-05-03T10:56:15.117Z</time></trkpt><trkpt lat="45.1116933" lon="7.5622567"><ele>303.3333333333333</ele><time>2026-05-03T10:56:16.112Z</time></trkpt><trkpt lat="45.1116367" lon="7.5625183"><ele>302.6666666666667</ele><time>2026-05-03T10:56:17.111Z</time></trkpt><trkpt lat="45.1115833" lon="7.5627833"><ele>302.0</ele><time>2026-05-03T10:56:18.112Z</time></trkpt><trkpt lat="45.1115283" lon="7.5630517"><ele>302.0</ele><time>2026-05-03T10:56:19.116Z</time></trkpt><trkpt lat="45.11147" lon="7.5633183"><ele>302.0</ele><time>2026-05-03T10:56:20.113Z</time></trkpt><trkpt lat="45.1114117" lon="7.5635817"><ele>302.0</ele><time>2026-05-03T10:56:21.113Z</time></trkpt><trkpt lat="45.1113567" lon="7.5638383"><ele>302.0</ele><time>2026-05-03T10:56:22.114Z</time></trkpt><trkpt lat="45.1113" lon="7.5640883"><ele>302.0</ele><time>2026-05-03T10:56:23.114Z</time></trkpt><trkpt lat="45.111245" lon="7.5643317"><ele>302.0</ele><time>2026-05-03T10:56:24.12Z</time></trkpt><trkpt lat="45.1111933" lon="7.5645667"><ele>302.0</ele><time>2026-05-03T10:56:25.115Z</time></trkpt><trkpt lat="45.111145" lon="7.5647917"><ele>302.0</ele><time>2026-05-03T10:56:26.112Z</time></trkpt><trkpt lat="45.1110967" lon="7.56501"><ele>302.0</ele><time>2026-05-03T10:56:27.115Z</time></trkpt><trkpt lat="45.1110517" lon="7.5652217"><ele>301.5</ele><time>2026-05-03T10:56:28.116Z</time></trkpt><trkpt lat="45.11101" lon="7.5654133"><ele>301.0</ele><time>2026-05-03T10:56:29.113Z</time></trkpt><trkpt lat="45.11096" lon="7.5655817"><ele>300.5</ele><time>2026-05-03T10:56:30.112Z</time></trkpt><trkpt lat="45.1109" lon="7.565725"><ele>300.0</ele><time>2026-05-03T10:56:31.112Z</time></trkpt><trkpt lat="45.110825" lon="7.5658433"><ele>300.0</ele><time>2026-05-03T10:56:32.112Z</time></trkpt><trkpt lat="45.1107317" lon="7.5659283"><ele>300.0</ele><time>2026-05-03T10:56:33.117Z</time></trkpt><trkpt lat="45.1106317" lon="7.565995"><ele>300.0</ele><time>2026-05-03T10:56:34.11Z</time></trkpt><trkpt lat="45.1105383" lon="7.5660583"><ele>300.0</ele><time>2026-05-03T10:56:35.112Z</time></trkpt><trkpt lat="45.110465" lon="7.5661483"><ele>300.0</ele><time>2026-05-03T10:56:36.117Z</time></trkpt><trkpt lat="45.110415" lon="7.56628"><ele>300.2</ele><time>2026-05-03T10:56:37.109Z</time></trkpt><trkpt lat="45.1103967" lon="7.5664117"><ele>300.4</ele><time>2026-05-03T10:56:38.117Z</time></trkpt><trkpt lat="45.1103983" lon="7.56655"><ele>300.6</ele><time>2026-05-03T10:56:39.114Z</time></trkpt><trkpt lat="45.11041" lon="7.5667067"><ele>300.8</ele><time>2026-05-03T10:56:40.111Z</time></trkpt><trkpt lat="45.1103983" lon="7.5668617"><ele>301.0</ele><time>2026-05-03T10:56:41.112Z</time></trkpt><trkpt lat="45.1103617" lon="7.5670267"><ele>301.0</ele><time>2026-05-03T10:56:42.111Z</time></trkpt><trkpt lat="45.1103033" lon="7.5671817"><ele>301.0</ele><time>2026-05-03T10:56:43.113Z</time></trkpt><trkpt lat="45.1102317" lon="7.5673317"><ele>301.0</ele><time>2026-05-03T10:56:44.111Z</time></trkpt><trkpt lat="45.1101567" lon="7.5674833"><ele>301.0</ele><time>2026-05-03T10:56:45.114Z</time></trkpt><trkpt lat="45.1100783" lon="7.5676367"><ele>301.0</ele><time>2026-05-03T10:56:46.114Z</time></trkpt><trkpt lat="45.11" lon="7.567795"><ele>301.0</ele><time>2026-05-03T10:56:47.111Z</time></trkpt><trkpt lat="45.109915" lon="7.56796"><ele>301.0</ele><time>2026-05-03T10:56:48.113Z</time></trkpt><trkpt lat="45.109825" lon="7.568135"><ele>301.0</ele><time>2026-05-03T10:56:49.114Z</time></trkpt><trkpt lat="45.1097267" lon="7.568325"><ele>300.0</ele><time>2026-05-03T10:56:50.112Z</time></trkpt><trkpt lat="45.10962" lon="7.5685333"><ele>299.0</ele><time>2026-05-03T10:56:51.115Z</time></trkpt><trkpt lat="45.10951" lon="7.5687567"><ele>298.0</ele><time>2026-05-03T10:56:52.112Z</time></trkpt><trkpt lat="45.1093917" lon="7.568985"><ele>297.0</ele><time>2026-05-03T10:56:53.114Z</time></trkpt><trkpt lat="45.1092683" lon="7.5692167"><ele>296.0</ele><time>2026-05-03T10:56:54.112Z</time></trkpt><trkpt lat="45.1091417" lon="7.569455"><ele>295.0</ele><time>2026-05-03T10:56:55.116Z</time></trkpt><trkpt lat="45.1090083" lon="7.5697033"><ele>295.0</ele><time>2026-05-03T10:56:56.116Z</time></trkpt><trkpt lat="45.1088717" lon="7.569955"><ele>295.0</ele><time>2026-05-03T10:56:57.115Z</time></trkpt><trkpt lat="45.1087317" lon="7.570205"><ele>295.0</ele><time>2026-05-03T10:56:58.112Z</time></trkpt><trkpt lat="45.1085917" lon="7.57046"><ele>295.0</ele><time>2026-05-03T10:56:59.114Z</time></trkpt><trkpt lat="45.1084517" lon="7.57071"><ele>295.0</ele><time>2026-05-03T10:57:00.112Z</time></trkpt><trkpt lat="45.1083083" lon="7.5709533"><ele>295.0</ele><time>2026-05-03T10:57:01.113Z</time></trkpt><trkpt lat="45.1081617" lon="7.5711867"><ele>295.0</ele><time>2026-05-03T10:57:02.112Z</time></trkpt><trkpt lat="45.1080083" lon="7.5714117"><ele>295.0</ele><time>2026-05-03T10:57:03.112Z</time></trkpt><trkpt lat="45.1078467" lon="7.5716283"><ele>295.0</ele><time>2026-05-03T10:57:04.114Z</time></trkpt><trkpt lat="45.10768" lon="7.57184"><ele>295.5</ele><time>2026-05-03T10:57:05.113Z</time></trkpt><trkpt lat="45.1075083" lon="7.5720417"><ele>296.0</ele><time>2026-05-03T10:57:06.114Z</time></trkpt><trkpt lat="45.1073233" lon="7.57223"><ele>295.0</ele><time>2026-05-03T10:57:07.117Z</time></trkpt><trkpt lat="45.1071317" lon="7.57241"><ele>294.0</ele><time>2026-05-03T10:57:08.113Z</time></trkpt><trkpt lat="45.10693" lon="7.57257"><ele>294.0</ele><time>2026-05-03T10:57:09.113Z</time></trkpt><trkpt lat="45.1067167" lon="7.572725"><ele>294.0</ele><time>2026-05-03T10:57:10.113Z</time></trkpt><trkpt lat="45.1065033" lon="7.5728767"><ele>294.5</ele><time>2026-05-03T10:57:11.113Z</time></trkpt><trkpt lat="45.1062883" lon="7.5730217"><ele>295.0</ele><time>2026-05-03T10:57:12.115Z</time></trkpt><trkpt lat="45.106075" lon="7.5731517"><ele>295.0</ele><time>2026-05-03T10:57:13.117Z</time></trkpt><trkpt lat="45.1058567" lon="7.5732783"><ele>295.0</ele><time>2026-05-03T10:57:14.114Z</time></trkpt><trkpt lat="45.1056383" lon="7.5734083"><ele>294.0</ele><time>2026-05-03T10:57:15.113Z</time></trkpt><trkpt lat="45.10542" lon="7.5735367"><ele>293.0</ele><time>2026-05-03T10:57:16.113Z</time></trkpt><trkpt lat="45.1052067" lon="7.57366"><ele>292.6666666666667</ele><time>2026-05-03T10:57:17.111Z</time></trkpt><trkpt lat="45.1049967" lon="7.573785"><ele>292.3333333333333</ele><time>2026-05-03T10:57:18.115Z</time></trkpt><trkpt lat="45.1048017" lon="7.5739"><ele>292.0</ele><time>2026-05-03T10:57:19.111Z</time></trkpt><trkpt lat="45.1046117" lon="7.574015"><ele>292.0</ele><time>2026-05-03T10:57:20.112Z</time></trkpt><trkpt lat="45.1044267" lon="7.5741283"><ele>292.0</ele><time>2026-05-03T10:57:21.115Z</time></trkpt><trkpt lat="45.104245" lon="7.5742367"><ele>292.0</ele><time>2026-05-03T10:57:22.111Z</time></trkpt><trkpt lat="45.1040617" lon="7.5743433"><ele>292.0</ele><time>2026-05-03T10:57:23.111Z</time></trkpt><trkpt lat="45.1038767" lon="7.5744533"><ele>292.0</ele><time>2026-05-03T10:57:24.114Z</time></trkpt><trkpt lat="45.1036967" lon="7.5745567"><ele>292.0</ele><time>2026-05-03T10:57:25.114Z</time></trkpt><trkpt lat="45.1035167" lon="7.574655"><ele>292.66666666666663</ele><time>2026-05-03T10:57:26.113Z</time></trkpt><trkpt lat="45.10334" lon="7.5747583"><ele>293.3333333333333</ele><time>2026-05-03T10:57:27.114Z</time></trkpt><trkpt lat="45.103165" lon="7.5748617"><ele>294.0</ele><time>2026-05-03T10:57:28.11Z</time></trkpt><trkpt lat="45.102985" lon="7.57497"><ele>294.0</ele><time>2026-05-03T10:57:29.112Z</time></trkpt><trkpt lat="45.1028067" lon="7.575075"><ele>294.0</ele><time>2026-05-03T10:57:30.113Z</time></trkpt><trkpt lat="45.1026283" lon="7.5751783"><ele>294.0</ele><time>2026-05-03T10:57:31.11Z</time></trkpt><trkpt lat="45.1024517" lon="7.57528"><ele>293.3333333333333</ele><time>2026-05-03T10:57:32.113Z</time></trkpt><trkpt lat="45.1022783" lon="7.5753817"><ele>292.66666666666663</ele><time>2026-05-03T10:57:33.114Z</time></trkpt><trkpt lat="45.102105" lon="7.5754817"><ele>292.0</ele><time>2026-05-03T10:57:34.111Z</time></trkpt><trkpt lat="45.1019333" lon="7.5755883"><ele>292.0</ele><time>2026-05-03T10:57:35.11Z</time></trkpt><trkpt lat="45.1017633" lon="7.5756933"><ele>292.0</ele><time>2026-05-03T10:57:36.116Z</time></trkpt><trkpt lat="45.10159" lon="7.5757983"><ele>292.0</ele><time>2026-05-03T10:57:37.114Z</time></trkpt><trkpt lat="45.1014167" lon="7.5759017"><ele>292.0</ele><time>2026-05-03T10:57:38.113Z</time></trkpt><trkpt lat="45.1012383" lon="7.576005"><ele>292.0</ele><time>2026-05-03T10:57:39.115Z</time></trkpt><trkpt lat="45.1010583" lon="7.5761117"><ele>292.0</ele><time>2026-05-03T10:57:40.109Z</time></trkpt><trkpt lat="45.100875" lon="7.5762233"><ele>292.3333333333333</ele><time>2026-05-03T10:57:41.11Z</time></trkpt><trkpt lat="45.1006883" lon="7.576335"><ele>292.6666666666667</ele><time>2026-05-03T10:57:42.111Z</time></trkpt><trkpt lat="45.1005" lon="7.5764483"><ele>293.0</ele><time>2026-05-03T10:57:43.117Z</time></trkpt><trkpt lat="45.1003083" lon="7.5765617"><ele>293.0</ele><time>2026-05-03T10:57:44.111Z</time></trkpt><trkpt lat="45.1001167" lon="7.5766717"><ele>293.0</ele><time>2026-05-03T10:57:45.111Z</time></trkpt><trkpt lat="45.09992" lon="7.5767833"><ele>293.0</ele><time>2026-05-03T10:57:46.113Z</time></trkpt><trkpt lat="45.099725" lon="7.5769"><ele>293.0</ele><time>2026-05-03T10:57:47.111Z</time></trkpt><trkpt lat="45.0995217" lon="7.57702"><ele>293.0</ele><time>2026-05-03T10:57:48.114Z</time></trkpt><trkpt lat="45.0993167" lon="7.5771433"><ele>293.0</ele><time>2026-05-03T10:57:49.114Z</time></trkpt><trkpt lat="45.0991033" lon="7.5772633"><ele>294.0</ele><time>2026-05-03T10:57:50.113Z</time></trkpt><trkpt lat="45.0988917" lon="7.5773867"><ele>295.0</ele><time>2026-05-03T10:57:51.116Z</time></trkpt><trkpt lat="45.098675" lon="7.5775167"><ele>295.0</ele><time>2026-05-03T10:57:52.115Z</time></trkpt><trkpt lat="45.0984533" lon="7.5776483"><ele>295.0</ele><time>2026-05-03T10:57:53.115Z</time></trkpt><trkpt lat="45.098235" lon="7.57778"><ele>294.0</ele><time>2026-05-03T10:57:54.114Z</time></trkpt><trkpt lat="45.098025" lon="7.5778983"><ele>293.0</ele><time>2026-05-03T10:57:55.112Z</time></trkpt><trkpt lat="45.0978183" lon="7.5780217"><ele>293.0</ele><time>2026-05-03T10:57:56.113Z</time></trkpt><trkpt lat="45.0976083" lon="7.5781417"><ele>293.0</ele><time>2026-05-03T10:57:57.114Z</time></trkpt><trkpt lat="45.0974" lon="7.57827"><ele>292.6666666666667</ele><time>2026-05-03T10:57:58.115Z</time></trkpt><trkpt lat="45.097195" lon="7.5783933"><ele>292.3333333333333</ele><time>2026-05-03T10:57:59.115Z</time></trkpt><trkpt lat="45.0969917" lon="7.57852"><ele>292.0</ele><time>2026-05-03T10:58:00.111Z</time></trkpt><trkpt lat="45.09679" lon="7.5786417"><ele>292.0</ele><time>2026-05-03T10:58:01.114Z</time></trkpt><trkpt lat="45.0965917" lon="7.578765"><ele>292.0</ele><time>2026-05-03T10:58:02.114Z</time></trkpt><trkpt lat="45.0963883" lon="7.5788817"><ele>292.0</ele><time>2026-05-03T10:58:03.112Z</time></trkpt><trkpt lat="45.0961933" lon="7.57897"><ele>292.0</ele><time>2026-05-03T10:58:04.114Z</time></trkpt><trkpt lat="45.0960033" lon="7.579055"><ele>292.0</ele><time>2026-05-03T10:58:05.113Z</time></trkpt><trkpt lat="45.0958617" lon="7.5792317"><ele>292.0</ele><time>2026-05-03T10:58:06.114Z</time></trkpt><trkpt lat="45.0956833" lon="7.5793617"><ele>289.66666666666663</ele><time>2026-05-03T10:58:07.112Z</time></trkpt><trkpt lat="45.0954917" lon="7.5794433"><ele>287.3333333333333</ele><time>2026-05-03T10:58:08.111Z</time></trkpt><trkpt lat="45.0953" lon="7.5795467"><ele>285.0</ele><time>2026-05-03T10:58:09.113Z</time></trkpt><trkpt lat="45.095145" lon="7.5796333"><ele>283.6666666666667</ele><time>2026-05-03T10:58:10.11Z</time></trkpt><trkpt lat="45.0949683" lon="7.5797283"><ele>282.33333333333337</ele><time>2026-05-03T10:58:11.113Z</time></trkpt><trkpt lat="45.0947883" lon="7.579815"><ele>281.0</ele><time>2026-05-03T10:58:12.113Z</time></trkpt><trkpt lat="45.0946017" lon="7.5799133"><ele>280.33333333333337</ele><time>2026-05-03T10:58:13.11Z</time></trkpt><trkpt lat="45.0944017" lon="7.5800217"><ele>279.6666666666667</ele><time>2026-05-03T10:58:14.112Z</time></trkpt><trkpt lat="45.0941933" lon="7.5801383"><ele>279.0</ele><time>2026-05-03T10:58:15.111Z</time></trkpt><trkpt lat="45.09398" lon="7.58026"><ele>277.0</ele><time>2026-05-03T10:58:16.112Z</time></trkpt><trkpt lat="45.0937717" lon="7.58038"><ele>275.0</ele><time>2026-05-03T10:58:17.109Z</time></trkpt><trkpt lat="45.0935517" lon="7.5805083"><ele>275.0</ele><time>2026-05-03T10:58:18.111Z</time></trkpt><trkpt lat="45.093335" lon="7.5806367"><ele>275.0</ele><time>2026-05-03T10:58:19.112Z</time></trkpt><trkpt lat="45.0931233" lon="7.5807733"><ele>276.5</ele><time>2026-05-03T10:58:20.111Z</time></trkpt><trkpt lat="45.0929083" lon="7.580935"><ele>278.0</ele><time>2026-05-03T10:58:21.11Z</time></trkpt><trkpt lat="45.0927067" lon="7.5811183"><ele>278.0</ele><time>2026-05-03T10:58:22.11Z</time></trkpt><trkpt lat="45.0925233" lon="7.5813283"><ele>278.0</ele><time>2026-05-03T10:58:23.111Z</time></trkpt><trkpt lat="45.092355" lon="7.5815767"><ele>279.5</ele><time>2026-05-03T10:58:24.117Z</time></trkpt><trkpt lat="45.0921967" lon="7.5818583"><ele>281.0</ele><time>2026-05-03T10:58:25.112Z</time></trkpt><trkpt lat="45.0920383" lon="7.5821533"><ele>281.0</ele><time>2026-05-03T10:58:26.114Z</time></trkpt><trkpt lat="45.09188" lon="7.58245"><ele>281.0</ele><time>2026-05-03T10:58:27.12Z</time></trkpt><trkpt lat="45.0917217" lon="7.5827367"><ele>282.0</ele><time>2026-05-03T10:58:28.109Z</time></trkpt><trkpt lat="45.091565" lon="7.5830183"><ele>283.0</ele><time>2026-05-03T10:58:29.114Z</time></trkpt><trkpt lat="45.0914067" lon="7.5832883"><ele>283.0</ele><time>2026-05-03T10:58:30.112Z</time></trkpt><trkpt lat="45.0912417" lon="7.58355"><ele>283.0</ele><time>2026-05-03T10:58:31.11Z</time></trkpt><trkpt lat="45.0910683" lon="7.5838"><ele>283.0</ele><time>2026-05-03T10:58:32.112Z</time></trkpt><trkpt lat="45.0908833" lon="7.58404"><ele>283.0</ele><time>2026-05-03T10:58:33.115Z</time></trkpt><trkpt lat="45.0906817" lon="7.5842683"><ele>283.0</ele><time>2026-05-03T10:58:34.11Z</time></trkpt><trkpt lat="45.090465" lon="7.5844717"><ele>283.0</ele><time>2026-05-03T10:58:35.113Z</time></trkpt><trkpt lat="45.0902267" lon="7.58466"><ele>283.0</ele><time>2026-05-03T10:58:36.111Z</time></trkpt><trkpt lat="45.0899783" lon="7.584835"><ele>283.0</ele><time>2026-05-03T10:58:37.112Z</time></trkpt><trkpt lat="45.0897233" lon="7.5849967"><ele>283.0</ele><time>2026-05-03T10:58:38.111Z</time></trkpt><trkpt lat="45.089465" lon="7.58515"><ele>283.0</ele><time>2026-05-03T10:58:39.112Z</time></trkpt><trkpt lat="45.0892033" lon="7.5853017"><ele>283.0</ele><time>2026-05-03T10:58:40.113Z</time></trkpt><trkpt lat="45.0889333" lon="7.585455"><ele>283.0</ele><time>2026-05-03T10:58:41.11Z</time></trkpt><trkpt lat="45.0886567" lon="7.5856017"><ele>283.0</ele><time>2026-05-03T10:58:42.111Z</time></trkpt><trkpt lat="45.08838" lon="7.5857583"><ele>283.0</ele><time>2026-05-03T10:58:43.113Z</time></trkpt><trkpt lat="45.0881017" lon="7.58592"><ele>285.0</ele><time>2026-05-03T10:58:44.113Z</time></trkpt><trkpt lat="45.087825" lon="7.586075"><ele>287.0</ele><time>2026-05-03T10:58:45.117Z</time></trkpt><trkpt lat="45.0875567" lon="7.586225"><ele>291.5</ele><time>2026-05-03T10:58:46.115Z</time></trkpt><trkpt lat="45.0872917" lon="7.5863767"><ele>296.0</ele><time>2026-05-03T10:58:47.112Z</time></trkpt><trkpt lat="45.087025" lon="7.5865367"><ele>296.0</ele><time>2026-05-03T10:58:48.113Z</time></trkpt><trkpt lat="45.086765" lon="7.586685"><ele>296.0</ele><time>2026-05-03T10:58:49.11Z</time></trkpt><trkpt lat="45.0864883" lon="7.586855"><ele>296.0</ele><time>2026-05-03T10:58:50.114Z</time></trkpt><trkpt lat="45.0862083" lon="7.5870333"><ele>296.0</ele><time>2026-05-03T10:58:51.112Z</time></trkpt><trkpt lat="45.0859333" lon="7.5872033"><ele>293.5</ele><time>2026-05-03T10:58:52.114Z</time></trkpt><trkpt lat="45.08567" lon="7.5873467"><ele>291.0</ele><time>2026-05-03T10:58:53.108Z</time></trkpt><trkpt lat="45.0854433" lon="7.5874583"><ele>291.0</ele><time>2026-05-03T10:58:54.11Z</time></trkpt><trkpt lat="45.08535" lon="7.5874667"><ele>291.0</ele><time>2026-05-03T10:58:55.112Z</time></trkpt><trkpt lat="45.0851683" lon="7.5875517"><ele>291.0</ele><time>2026-05-03T10:58:56.112Z</time></trkpt><trkpt lat="45.0849483" lon="7.587645"><ele>291.3333333333333</ele><time>2026-05-03T10:58:57.109Z</time></trkpt><trkpt lat="45.0847417" lon="7.5877133"><ele>291.66666666666663</ele><time>2026-05-03T10:58:58.111Z</time></trkpt><trkpt lat="45.0845217" lon="7.58777"><ele>292.0</ele><time>2026-05-03T10:58:59.114Z</time></trkpt><trkpt lat="45.0842933" lon="7.5878033"><ele>292.0</ele><time>2026-05-03T10:59:00.11Z</time></trkpt><trkpt lat="45.0840583" lon="7.5878267"><ele>292.0</ele><time>2026-05-03T10:59:01.115Z</time></trkpt><trkpt lat="45.0838167" lon="7.587835"><ele>292.0</ele><time>2026-05-03T10:59:02.113Z</time></trkpt><trkpt lat="45.0835683" lon="7.5878333"><ele>292.0</ele><time>2026-05-03T10:59:03.112Z</time></trkpt><trkpt lat="45.0833167" lon="7.5878267"><ele>293.0</ele><time>2026-05-03T10:59:04.115Z</time></trkpt><trkpt lat="45.0830567" lon="7.5878217"><ele>294.0</ele><time>2026-05-03T10:59:05.114Z</time></trkpt><trkpt lat="45.0827883" lon="7.58781"><ele>294.0</ele><time>2026-05-03T10:59:06.114Z</time></trkpt><trkpt lat="45.0825183" lon="7.5877967"><ele>294.0</ele><time>2026-05-03T10:59:07.109Z</time></trkpt><trkpt lat="45.0822567" lon="7.58778"><ele>292.0</ele><time>2026-05-03T10:59:08.11Z</time></trkpt><trkpt lat="45.0820067" lon="7.5877733"><ele>290.0</ele><time>2026-05-03T10:59:09.113Z</time></trkpt><trkpt lat="45.0817683" lon="7.587765"><ele>290.6666666666667</ele><time>2026-05-03T10:59:10.113Z</time></trkpt><trkpt lat="45.0815467" lon="7.5877467"><ele>291.3333333333333</ele><time>2026-05-03T10:59:11.119Z</time></trkpt><trkpt lat="45.0813367" lon="7.5877217"><ele>292.0</ele><time>2026-05-03T10:59:12.109Z</time></trkpt><trkpt lat="45.0811533" lon="7.5877"><ele>292.0</ele><time>2026-05-03T10:59:13.111Z</time></trkpt><trkpt lat="45.081" lon="7.58768"><ele>292.0</ele><time>2026-05-03T10:59:14.111Z</time></trkpt><trkpt lat="45.0808633" lon="7.5876667"><ele>292.0</ele><time>2026-05-03T10:59:15.112Z</time></trkpt><trkpt lat="45.0807417" lon="7.5876467"><ele>292.0</ele><time>2026-05-03T10:59:16.113Z</time></trkpt><trkpt lat="45.0806317" lon="7.5875983"><ele>292.2</ele><time>2026-05-03T10:59:17.11Z</time></trkpt><trkpt lat="45.0805333" lon="7.5875267"><ele>292.4</ele><time>2026-05-03T10:59:18.108Z</time></trkpt><trkpt lat="45.0804417" lon="7.58746"><ele>292.6</ele><time>2026-05-03T10:59:19.112Z</time></trkpt><trkpt lat="45.0803517" lon="7.5874167"><ele>292.8</ele><time>2026-05-03T10:59:20.11Z</time></trkpt><trkpt lat="45.0802583" lon="7.5874083"><ele>293.0</ele><time>2026-05-03T10:59:21.109Z</time></trkpt><trkpt lat="45.08017" lon="7.5874367"><ele>293.0</ele><time>2026-05-03T10:59:22.111Z</time></trkpt><trkpt lat="45.08008" lon="7.5874983"><ele>293.0</ele><time>2026-05-03T10:59:23.109Z</time></trkpt><trkpt lat="45.0799883" lon="7.5875533"><ele>293.0</ele><time>2026-05-03T10:59:24.114Z</time></trkpt><trkpt lat="45.0798817" lon="7.5875967"><ele>293.0</ele><time>2026-05-03T10:59:25.112Z</time></trkpt><trkpt lat="45.0797633" lon="7.5876083"><ele>293.0</ele><time>2026-05-03T10:59:26.109Z</time></trkpt><trkpt lat="45.07964" lon="7.5876083"><ele>293.4</ele><time>2026-05-03T10:59:27.112Z</time></trkpt><trkpt lat="45.0795183" lon="7.587605"><ele>293.8</ele><time>2026-05-03T10:59:28.108Z</time></trkpt><trkpt lat="45.0793983" lon="7.5876017"><ele>294.2</ele><time>2026-05-03T10:59:29.114Z</time></trkpt><trkpt lat="45.0792933" lon="7.5875933"><ele>294.6</ele><time>2026-05-03T10:59:30.113Z</time></trkpt><trkpt lat="45.0792033" lon="7.5875883"><ele>295.0</ele><time>2026-05-03T10:59:31.114Z</time></trkpt><trkpt lat="45.0791333" lon="7.5875883"><ele>294.8</ele><time>2026-05-03T10:59:32.117Z</time></trkpt><trkpt lat="45.0790333" lon="7.587585"><ele>294.6</ele><time>2026-05-03T10:59:34.114Z</time></trkpt><trkpt lat="45.07891" lon="7.587565"><ele>294.4</ele><time>2026-05-03T10:59:36.115Z</time></trkpt><trkpt lat="45.0788233" lon="7.5875517"><ele>294.2</ele><time>2026-05-03T10:59:37.113Z</time></trkpt><trkpt lat="45.0787267" lon="7.58754"><ele>294.0</ele><time>2026-05-03T10:59:38.118Z</time></trkpt><trkpt lat="45.0786233" lon="7.5875383"><ele>294.0</ele><time>2026-05-03T10:59:39.113Z</time></trkpt><trkpt lat="45.0785167" lon="7.5875417"><ele>294.0</ele><time>2026-05-03T10:59:40.108Z</time></trkpt><trkpt lat="45.0784033" lon="7.5875383"><ele>294.0</ele><time>2026-05-03T10:59:41.109Z</time></trkpt><trkpt lat="45.0782783" lon="7.5875317"><ele>294.0</ele><time>2026-05-03T10:59:42.111Z</time></trkpt><trkpt lat="45.07813" lon="7.5875233"><ele>294.0</ele><time>2026-05-03T10:59:43.113Z</time></trkpt><trkpt lat="45.0779667" lon="7.5875067"><ele>294.0</ele><time>2026-05-03T10:59:44.109Z</time></trkpt><trkpt lat="45.0777933" lon="7.5874833"><ele>294.0</ele><time>2026-05-03T10:59:45.111Z</time></trkpt><trkpt lat="45.0776233" lon="7.58745"><ele>294.0</ele><time>2026-05-03T10:59:46.111Z</time></trkpt><trkpt lat="45.0774633" lon="7.587425"><ele>294.0</ele><time>2026-05-03T10:59:47.11Z</time></trkpt><trkpt lat="45.0773067" lon="7.5874117"><ele>294.0</ele><time>2026-05-03T10:59:48.112Z</time></trkpt><trkpt lat="45.0771683" lon="7.5874083"><ele>293.8</ele><time>2026-05-03T10:59:49.112Z</time></trkpt><trkpt lat="45.077055" lon="7.5874217"><ele>293.59999999999997</ele><time>2026-05-03T10:59:50.115Z</time></trkpt><trkpt lat="45.0769583" lon="7.5874567"><ele>293.4</ele><time>2026-05-03T10:59:51.108Z</time></trkpt><trkpt lat="45.0768767" lon="7.587515"><ele>293.2</ele><time>2026-05-03T10:59:52.113Z</time></trkpt><trkpt lat="45.0768117" lon="7.5875933"><ele>293.0</ele><time>2026-05-03T10:59:53.11Z</time></trkpt><trkpt lat="45.0767617" lon="7.5876867"><ele>293.0</ele><time>2026-05-03T10:59:54.112Z</time></trkpt><trkpt lat="45.0767233" lon="7.58779"><ele>293.0</ele><time>2026-05-03T10:59:55.111Z</time></trkpt><trkpt lat="45.0766933" lon="7.5879017"><ele>293.0</ele><time>2026-05-03T10:59:56.112Z</time></trkpt><trkpt lat="45.0766583" lon="7.5880333"><ele>293.0</ele><time>2026-05-03T10:59:57.112Z</time></trkpt><trkpt lat="45.0766233" lon="7.5881783"><ele>293.0</ele><time>2026-05-03T10:59:58.114Z</time></trkpt><trkpt lat="45.076585" lon="7.5883283"><ele>293.0</ele><time>2026-05-03T10:59:59.108Z</time></trkpt><trkpt lat="45.076555" lon="7.58848"><ele>293.0</ele><time>2026-05-03T11:00:00.109Z</time></trkpt><trkpt lat="45.0765267" lon="7.58862"><ele>293.0</ele><time>2026-05-03T11:00:01.112Z</time></trkpt><trkpt lat="45.0765" lon="7.588745"><ele>293.0</ele><time>2026-05-03T11:00:02.108Z</time></trkpt><trkpt lat="45.0764717" lon="7.5888517"><ele>293.0</ele><time>2026-05-03T11:00:03.11Z</time></trkpt><trkpt lat="45.0764383" lon="7.588935"><ele>293.2</ele><time>2026-05-03T11:00:04.11Z</time></trkpt><trkpt lat="45.07632" lon="7.5889717"><ele>293.4</ele><time>2026-05-03T11:00:06.114Z</time></trkpt><trkpt lat="45.0762467" lon="7.588955"><ele>293.59999999999997</ele><time>2026-05-03T11:00:07.11Z</time></trkpt><trkpt lat="45.0761383" lon="7.5889167"><ele>293.8</ele><time>2026-05-03T11:00:08.11Z</time></trkpt><trkpt lat="45.0760167" lon="7.5888717"><ele>294.0</ele><time>2026-05-03T11:00:09.111Z</time></trkpt><trkpt lat="45.0758883" lon="7.5888283"><ele>293.75</ele><time>2026-05-03T11:00:10.12Z</time></trkpt><trkpt lat="45.075755" lon="7.5887717"><ele>293.5</ele><time>2026-05-03T11:00:11.109Z</time></trkpt><trkpt lat="45.07562" lon="7.58872"><ele>293.25</ele><time>2026-05-03T11:00:12.11Z</time></trkpt><trkpt lat="45.075475" lon="7.5886633"><ele>293.0</ele><time>2026-05-03T11:00:13.109Z</time></trkpt><trkpt lat="45.07533" lon="7.5886067"><ele>293.0</ele><time>2026-05-03T11:00:14.111Z</time></trkpt><trkpt lat="45.075185" lon="7.5885533"><ele>293.0</ele><time>2026-05-03T11:00:15.112Z</time></trkpt><trkpt lat="45.0750383" lon="7.588505"><ele>293.0</ele><time>2026-05-03T11:00:16.109Z</time></trkpt><trkpt lat="45.0748933" lon="7.5884583"><ele>293.0</ele><time>2026-05-03T11:00:17.107Z</time></trkpt><trkpt lat="45.0747583" lon="7.5884067"><ele>292.75</ele><time>2026-05-03T11:00:18.108Z</time></trkpt><trkpt lat="45.0746283" lon="7.5883683"><ele>292.5</ele><time>2026-05-03T11:00:19.11Z</time></trkpt><trkpt lat="45.0745033" lon="7.588335"><ele>292.25</ele><time>2026-05-03T11:00:20.109Z</time></trkpt><trkpt lat="45.0743867" lon="7.5882933"><ele>292.0</ele><time>2026-05-03T11:00:21.112Z</time></trkpt><trkpt lat="45.074275" lon="7.5882617"><ele>292.0</ele><time>2026-05-03T11:00:22.111Z</time></trkpt><trkpt lat="45.07417" lon="7.5882333"><ele>292.0</ele><time>2026-05-03T11:00:23.113Z</time></trkpt><trkpt lat="45.07407" lon="7.58821"><ele>292.0</ele><time>2026-05-03T11:00:24.112Z</time></trkpt><trkpt lat="45.0739767" lon="7.5881833"><ele>292.0</ele><time>2026-05-03T11:00:25.113Z</time></trkpt><trkpt lat="45.0738917" lon="7.58816"><ele>292.0</ele><time>2026-05-03T11:00:26.111Z</time></trkpt><trkpt lat="45.07381" lon="7.5881433"><ele>292.16666666666663</ele><time>2026-05-03T11:00:27.114Z</time></trkpt><trkpt lat="45.07373" lon="7.5881317"><ele>292.3333333333333</ele><time>2026-05-03T11:00:28.111Z</time></trkpt><trkpt lat="45.0736617" lon="7.5881067"><ele>292.5</ele><time>2026-05-03T11:00:29.109Z</time></trkpt><trkpt lat="45.0735533" lon="7.588035"><ele>292.6666666666667</ele><time>2026-05-03T11:00:31.115Z</time></trkpt><trkpt lat="45.0734467" lon="7.5880117"><ele>292.83333333333337</ele><time>2026-05-03T11:00:33.112Z</time></trkpt><trkpt lat="45.07338" lon="7.5880317"><ele>293.0</ele><time>2026-05-03T11:00:34.108Z</time></trkpt><trkpt lat="45.0733083" lon="7.5880483"><ele>293.0</ele><time>2026-05-03T11:00:35.108Z</time></trkpt><trkpt lat="45.073245" lon="7.5880467"><ele>293.0</ele><time>2026-05-03T11:00:36.113Z</time></trkpt><trkpt lat="45.07318" lon="7.5880417"><ele>293.0</ele><time>2026-05-03T11:00:37.109Z</time></trkpt><trkpt lat="45.0730633" lon="7.588095"><ele>293.0</ele><time>2026-05-03T11:00:39.111Z</time></trkpt><trkpt lat="45.0730017" lon="7.5881317"><ele>293.0</ele><time>2026-05-03T11:00:40.11Z</time></trkpt><trkpt lat="45.0729533" lon="7.5882217"><ele>293.0</ele><time>2026-05-03T11:00:41.11Z</time></trkpt><trkpt lat="45.072915" lon="7.5883317"><ele>293.0</ele><time>2026-05-03T11:00:42.111Z</time></trkpt><trkpt lat="45.0729817" lon="7.5885783"><ele>293.0</ele><time>2026-05-03T11:00:43.111Z</time></trkpt><trkpt lat="45.07299" lon="7.5887517"><ele>293.0</ele><time>2026-05-03T11:00:44.111Z</time></trkpt><trkpt lat="45.07301" lon="7.588945"><ele>293.0</ele><time>2026-05-03T11:00:45.114Z</time></trkpt><trkpt lat="45.07303" lon="7.589125"><ele>292.5</ele><time>2026-05-03T11:00:46.108Z</time></trkpt><trkpt lat="45.07303" lon="7.5892867"><ele>292.0</ele><time>2026-05-03T11:00:47.111Z</time></trkpt><trkpt lat="45.0730317" lon="7.5894533"><ele>291.5</ele><time>2026-05-03T11:00:48.108Z</time></trkpt><trkpt lat="45.073035" lon="7.58962"><ele>291.0</ele><time>2026-05-03T11:00:49.109Z</time></trkpt><trkpt lat="45.073035" lon="7.5897683"><ele>291.0</ele><time>2026-05-03T11:00:50.11Z</time></trkpt><trkpt lat="45.0730383" lon="7.589915"><ele>291.0</ele><time>2026-05-03T11:00:51.113Z</time></trkpt><trkpt lat="45.0730517" lon="7.5900633"><ele>291.0</ele><time>2026-05-03T11:00:52.111Z</time></trkpt><trkpt lat="45.07306" lon="7.5902067"><ele>291.0</ele><time>2026-05-03T11:00:53.11Z</time></trkpt><trkpt lat="45.073065" lon="7.5903467"><ele>291.0</ele><time>2026-05-03T11:00:54.113Z</time></trkpt><trkpt lat="45.073075" lon="7.590485"><ele>291.2</ele><time>2026-05-03T11:00:55.115Z</time></trkpt><trkpt lat="45.0730833" lon="7.5906217"><ele>291.40000000000003</ele><time>2026-05-03T11:00:56.115Z</time></trkpt><trkpt lat="45.0731017" lon="7.5907567"><ele>291.6</ele><time>2026-05-03T11:00:57.118Z</time></trkpt><trkpt lat="45.0731217" lon="7.5908867"><ele>291.8</ele><time>2026-05-03T11:00:58.115Z</time></trkpt><trkpt lat="45.07314" lon="7.5910167"><ele>292.0</ele><time>2026-05-03T11:00:59.113Z</time></trkpt><trkpt lat="45.073155" lon="7.591145"><ele>291.8</ele><time>2026-05-03T11:01:00.114Z</time></trkpt><trkpt lat="45.0731617" lon="7.591275"><ele>291.6</ele><time>2026-05-03T11:01:01.114Z</time></trkpt><trkpt lat="45.073165" lon="7.5914067"><ele>291.40000000000003</ele><time>2026-05-03T11:01:02.115Z</time></trkpt><trkpt lat="45.0731633" lon="7.5915433"><ele>291.2</ele><time>2026-05-03T11:01:03.116Z</time></trkpt><trkpt lat="45.07316" lon="7.59168"><ele>291.0</ele><time>2026-05-03T11:01:04.116Z</time></trkpt><trkpt lat="45.0731567" lon="7.5918183"><ele>291.0</ele><time>2026-05-03T11:01:05.111Z</time></trkpt><trkpt lat="45.0731517" lon="7.5919583"><ele>291.0</ele><time>2026-05-03T11:01:06.11Z</time></trkpt><trkpt lat="45.0731583" lon="7.5921017"><ele>291.0</ele><time>2026-05-03T11:01:07.116Z</time></trkpt><trkpt lat="45.0731617" lon="7.5922433"><ele>291.0</ele><time>2026-05-03T11:01:08.116Z</time></trkpt><trkpt lat="45.0731667" lon="7.5923867"><ele>291.0</ele><time>2026-05-03T11:01:09.116Z</time></trkpt><trkpt lat="45.0731733" lon="7.5925333"><ele>291.0</ele><time>2026-05-03T11:01:10.111Z</time></trkpt><trkpt lat="45.07318" lon="7.59268"><ele>291.0</ele><time>2026-05-03T11:01:11.109Z</time></trkpt><trkpt lat="45.07319" lon="7.5928333"><ele>291.0</ele><time>2026-05-03T11:01:12.113Z</time></trkpt><trkpt lat="45.0731983" lon="7.59299"><ele>291.0</ele><time>2026-05-03T11:01:13.115Z</time></trkpt><trkpt lat="45.0732033" lon="7.5931483"><ele>291.0</ele><time>2026-05-03T11:01:14.11Z</time></trkpt><trkpt lat="45.0732083" lon="7.5933017"><ele>291.0</ele><time>2026-05-03T11:01:15.114Z</time></trkpt><trkpt lat="45.073215" lon="7.5934467"><ele>291.0</ele><time>2026-05-03T11:01:16.114Z</time></trkpt><trkpt lat="45.0732317" lon="7.5935817"><ele>291.0</ele><time>2026-05-03T11:01:17.116Z</time></trkpt><trkpt lat="45.07325" lon="7.5937033"><ele>291.0</ele><time>2026-05-03T11:01:18.11Z</time></trkpt><trkpt lat="45.073265" lon="7.59382"><ele>291.0</ele><time>2026-05-03T11:01:19.113Z</time></trkpt><trkpt lat="45.073275" lon="7.5939333"><ele>290.85714285714283</ele><time>2026-05-03T11:01:20.108Z</time></trkpt><trkpt lat="45.0732833" lon="7.59404"><ele>290.71428571428567</ele><time>2026-05-03T11:01:21.115Z</time></trkpt><trkpt lat="45.0732917" lon="7.5941333"><ele>290.57142857142856</ele><time>2026-05-03T11:01:22.112Z</time></trkpt><trkpt lat="45.0732983" lon="7.5942267"><ele>290.42857142857144</ele><time>2026-05-03T11:01:23.12Z</time></trkpt><trkpt lat="45.0733" lon="7.5943333"><ele>290.28571428571433</ele><time>2026-05-03T11:01:24.114Z</time></trkpt><trkpt lat="45.0733" lon="7.594445"><ele>290.14285714285717</ele><time>2026-05-03T11:01:25.119Z</time></trkpt><trkpt lat="45.0733017" lon="7.5945517"><ele>290.0</ele><time>2026-05-03T11:01:26.113Z</time></trkpt><trkpt lat="45.073305" lon="7.5946517"><ele>290.0</ele><time>2026-05-03T11:01:27.112Z</time></trkpt><trkpt lat="45.0733117" lon="7.59481"><ele>290.0</ele><time>2026-05-03T11:01:29.11Z</time></trkpt><trkpt lat="45.0733283" lon="7.594925"><ele>290.0</ele><time>2026-05-03T11:01:31.113Z</time></trkpt><trkpt lat="45.0733183" lon="7.59506"><ele>290.0</ele><time>2026-05-03T11:01:57.113Z</time></trkpt><trkpt lat="45.07327" lon="7.595135"><ele>290.0</ele><time>2026-05-03T11:01:59.112Z</time></trkpt><trkpt lat="45.0731483" lon="7.5951383"><ele>289.83333333333337</ele><time>2026-05-03T11:02:01.112Z</time></trkpt><trkpt lat="45.0730683" lon="7.595125"><ele>289.6666666666667</ele><time>2026-05-03T11:02:02.114Z</time></trkpt><trkpt lat="45.0729783" lon="7.595125"><ele>289.5</ele><time>2026-05-03T11:02:03.116Z</time></trkpt><trkpt lat="45.0728933" lon="7.595135"><ele>289.3333333333333</ele><time>2026-05-03T11:02:04.111Z</time></trkpt><trkpt lat="45.0727967" lon="7.5951333"><ele>289.16666666666663</ele><time>2026-05-03T11:02:05.111Z</time></trkpt><trkpt lat="45.0727" lon="7.595145"><ele>289.0</ele><time>2026-05-03T11:02:06.114Z</time></trkpt><trkpt lat="45.0725933" lon="7.5951717"><ele>289.0</ele><time>2026-05-03T11:02:07.113Z</time></trkpt><trkpt lat="45.072485" lon="7.595185"><ele>289.0</ele><time>2026-05-03T11:02:08.112Z</time></trkpt><trkpt lat="45.0723617" lon="7.5951967"><ele>289.0</ele><time>2026-05-03T11:02:09.115Z</time></trkpt><trkpt lat="45.0722417" lon="7.5952183"><ele>289.0</ele><time>2026-05-03T11:02:10.111Z</time></trkpt><trkpt lat="45.07212" lon="7.5952317"><ele>288.75</ele><time>2026-05-03T11:02:11.112Z</time></trkpt><trkpt lat="45.0720083" lon="7.595245"><ele>288.5</ele><time>2026-05-03T11:02:12.112Z</time></trkpt><trkpt lat="45.071895" lon="7.5952583"><ele>288.25</ele><time>2026-05-03T11:02:13.112Z</time></trkpt><trkpt lat="45.0717817" lon="7.5952667"><ele>288.0</ele><time>2026-05-03T11:02:14.112Z</time></trkpt><trkpt lat="45.0716633" lon="7.5952783"><ele>288.0</ele><time>2026-05-03T11:02:15.115Z</time></trkpt><trkpt lat="45.0715433" lon="7.5952917"><ele>288.0</ele><time>2026-05-03T11:02:16.114Z</time></trkpt><trkpt lat="45.071435" lon="7.595295"><ele>288.0</ele><time>2026-05-03T11:02:17.111Z</time></trkpt><trkpt lat="45.07133" lon="7.5952933"><ele>288.0</ele><time>2026-05-03T11:02:18.116Z</time></trkpt><trkpt lat="45.0712317" lon="7.5953167"><ele>288.0</ele><time>2026-05-03T11:02:19.113Z</time></trkpt><trkpt lat="45.07114" lon="7.595325"><ele>288.0</ele><time>2026-05-03T11:02:20.113Z</time></trkpt><trkpt lat="45.0710667" lon="7.595325"><ele>288.0</ele><time>2026-05-03T11:02:21.114Z</time></trkpt><trkpt lat="45.0709617" lon="7.5953633"><ele>288.0</ele><time>2026-05-03T11:02:23.114Z</time></trkpt><trkpt lat="45.0709067" lon="7.5954783"><ele>288.0</ele><time>2026-05-03T11:02:25.116Z</time></trkpt><trkpt lat="45.0708983" lon="7.5955683"><ele>288.0</ele><time>2026-05-03T11:02:26.112Z</time></trkpt><trkpt lat="45.070895" lon="7.5956867"><ele>288.0</ele><time>2026-05-03T11:02:27.114Z</time></trkpt><trkpt lat="45.07089" lon="7.59581"><ele>288.5</ele><time>2026-05-03T11:02:28.113Z</time></trkpt><trkpt lat="45.0709167" lon="7.5959717"><ele>289.0</ele><time>2026-05-03T11:02:29.116Z</time></trkpt><trkpt lat="45.0709317" lon="7.5961433"><ele>289.5</ele><time>2026-05-03T11:02:30.115Z</time></trkpt><trkpt lat="45.0709383" lon="7.5963183"><ele>290.0</ele><time>2026-05-03T11:02:31.115Z</time></trkpt><trkpt lat="45.0709467" lon="7.5964817"><ele>290.0</ele><time>2026-05-03T11:02:32.111Z</time></trkpt><trkpt lat="45.0709483" lon="7.5966333"><ele>290.0</ele><time>2026-05-03T11:02:33.112Z</time></trkpt><trkpt lat="45.0709367" lon="7.5967483"><ele>290.0</ele><time>2026-05-03T11:02:34.111Z</time></trkpt><trkpt lat="45.070935" lon="7.59685"><ele>290.0</ele><time>2026-05-03T11:02:35.113Z</time></trkpt><trkpt lat="45.07088" lon="7.596935"><ele>290.0</ele><time>2026-05-03T11:02:37.112Z</time></trkpt><trkpt lat="45.0707633" lon="7.5968983"><ele>289.25</ele><time>2026-05-03T11:02:39.114Z</time></trkpt><trkpt lat="45.0706767" lon="7.5968617"><ele>288.5</ele><time>2026-05-03T11:02:40.112Z</time></trkpt><trkpt lat="45.0705567" lon="7.596835"><ele>287.75</ele><time>2026-05-03T11:02:41.116Z</time></trkpt><trkpt lat="45.0703933" lon="7.5968267"><ele>287.0</ele><time>2026-05-03T11:02:42.112Z</time></trkpt><trkpt lat="45.07024" lon="7.5968083"><ele>287.0</ele><time>2026-05-03T11:02:43.112Z</time></trkpt><trkpt lat="45.0701" lon="7.5967817"><ele>287.0</ele><time>2026-05-03T11:02:44.115Z</time></trkpt><trkpt lat="45.06997" lon="7.5967533"><ele>287.0</ele><time>2026-05-03T11:02:45.116Z</time></trkpt><trkpt lat="45.0698383" lon="7.596725"><ele>287.0</ele><time>2026-05-03T11:02:46.113Z</time></trkpt><trkpt lat="45.069715" lon="7.5966967"><ele>286.6</ele><time>2026-05-03T11:02:47.116Z</time></trkpt><trkpt lat="45.0696033" lon="7.5966717"><ele>286.2</ele><time>2026-05-03T11:02:48.116Z</time></trkpt><trkpt lat="45.069505" lon="7.59666"><ele>285.8</ele><time>2026-05-03T11:02:49.114Z</time></trkpt><trkpt lat="45.069415" lon="7.59667"><ele>285.4</ele><time>2026-05-03T11:02:50.116Z</time></trkpt><trkpt lat="45.069335" lon="7.5966967"><ele>285.0</ele><time>2026-05-03T11:02:51.117Z</time></trkpt><trkpt lat="45.0692617" lon="7.596795"><ele>285.0</ele><time>2026-05-03T11:02:52.114Z</time></trkpt><trkpt lat="45.0691917" lon="7.5969267"><ele>285.0</ele><time>2026-05-03T11:02:53.113Z</time></trkpt><trkpt lat="45.0691167" lon="7.5971083"><ele>285.0</ele><time>2026-05-03T11:02:54.108Z</time></trkpt><trkpt lat="45.0690333" lon="7.5973167"><ele>285.0</ele><time>2026-05-03T11:02:55.113Z</time></trkpt><trkpt lat="45.068945" lon="7.59753"><ele>284.6666666666667</ele><time>2026-05-03T11:02:56.112Z</time></trkpt><trkpt lat="45.0688483" lon="7.5977617"><ele>284.33333333333337</ele><time>2026-05-03T11:02:57.115Z</time></trkpt><trkpt lat="45.0687533" lon="7.5979967"><ele>284.0</ele><time>2026-05-03T11:02:58.113Z</time></trkpt><trkpt lat="45.0686617" lon="7.5982417"><ele>284.0</ele><time>2026-05-03T11:02:59.113Z</time></trkpt><trkpt lat="45.0685817" lon="7.5984767"><ele>284.0</ele><time>2026-05-03T11:03:00.108Z</time></trkpt><trkpt lat="45.0685067" lon="7.5987017"><ele>284.0</ele><time>2026-05-03T11:03:01.112Z</time></trkpt><trkpt lat="45.0684267" lon="7.5989067"><ele>283.75</ele><time>2026-05-03T11:03:02.114Z</time></trkpt><trkpt lat="45.0683483" lon="7.5990983"><ele>283.5</ele><time>2026-05-03T11:03:03.113Z</time></trkpt><trkpt lat="45.06827" lon="7.5992783"><ele>283.25</ele><time>2026-05-03T11:03:04.114Z</time></trkpt><trkpt lat="45.0681983" lon="7.5994517"><ele>283.0</ele><time>2026-05-03T11:03:05.12Z</time></trkpt><trkpt lat="45.0681317" lon="7.5996183"><ele>282.8</ele><time>2026-05-03T11:03:06.113Z</time></trkpt><trkpt lat="45.068065" lon="7.5997683"><ele>282.6</ele><time>2026-05-03T11:03:07.112Z</time></trkpt><trkpt lat="45.0680067" lon="7.5998967"><ele>282.4</ele><time>2026-05-03T11:03:08.112Z</time></trkpt><trkpt lat="45.0679433" lon="7.6000133"><ele>282.2</ele><time>2026-05-03T11:03:09.114Z</time></trkpt><trkpt lat="45.0678833" lon="7.6001183"><ele>282.0</ele><time>2026-05-03T11:03:10.115Z</time></trkpt><trkpt lat="45.0678217" lon="7.6002383"><ele>282.25</ele><time>2026-05-03T11:03:11.11Z</time></trkpt><trkpt lat="45.0677567" lon="7.6003767"><ele>282.5</ele><time>2026-05-03T11:03:12.114Z</time></trkpt><trkpt lat="45.0676817" lon="7.6005333"><ele>282.75</ele><time>2026-05-03T11:03:13.114Z</time></trkpt><trkpt lat="45.0675967" lon="7.6007083"><ele>283.0</ele><time>2026-05-03T11:03:14.111Z</time></trkpt><trkpt lat="45.06751" lon="7.6008933"><ele>283.3333333333333</ele><time>2026-05-03T11:03:15.116Z</time></trkpt><trkpt lat="45.06742" lon="7.60109"><ele>283.6666666666667</ele><time>2026-05-03T11:03:16.113Z</time></trkpt><trkpt lat="45.0673283" lon="7.6012917"><ele>284.0</ele><time>2026-05-03T11:03:17.111Z</time></trkpt><trkpt lat="45.0672433" lon="7.601495"><ele>284.0</ele><time>2026-05-03T11:03:18.115Z</time></trkpt><trkpt lat="45.0671683" lon="7.6017"><ele>284.0</ele><time>2026-05-03T11:03:19.113Z</time></trkpt><trkpt lat="45.0671" lon="7.6018983"><ele>284.0</ele><time>2026-05-03T11:03:20.113Z</time></trkpt><trkpt lat="45.0670367" lon="7.6020833"><ele>283.4</ele><time>2026-05-03T11:03:21.114Z</time></trkpt><trkpt lat="45.06698" lon="7.6022517"><ele>282.79999999999995</ele><time>2026-05-03T11:03:22.111Z</time></trkpt><trkpt lat="45.06693" lon="7.6023967"><ele>282.20000000000005</ele><time>2026-05-03T11:03:23.112Z</time></trkpt><trkpt lat="45.06687" lon="7.602515"><ele>281.6</ele><time>2026-05-03T11:03:24.11Z</time></trkpt><trkpt lat="45.066815" lon="7.6026267"><ele>281.0</ele><time>2026-05-03T11:03:25.116Z</time></trkpt><trkpt lat="45.0667767" lon="7.6027567"><ele>280.75</ele><time>2026-05-03T11:03:26.114Z</time></trkpt><trkpt lat="45.0667283" lon="7.602885"><ele>280.5</ele><time>2026-05-03T11:03:27.114Z</time></trkpt><trkpt lat="45.0666583" lon="7.6030117"><ele>280.25</ele><time>2026-05-03T11:03:28.109Z</time></trkpt><trkpt lat="45.0665767" lon="7.6031517"><ele>280.0</ele><time>2026-05-03T11:03:29.111Z</time></trkpt><trkpt lat="45.0664917" lon="7.6033167"><ele>280.66666666666663</ele><time>2026-05-03T11:03:30.113Z</time></trkpt><trkpt lat="45.0664033" lon="7.6035017"><ele>281.3333333333333</ele><time>2026-05-03T11:03:31.11Z</time></trkpt><trkpt lat="45.066305" lon="7.603705"><ele>282.0</ele><time>2026-05-03T11:03:32.113Z</time></trkpt><trkpt lat="45.0662067" lon="7.60393"><ele>280.3333333333333</ele><time>2026-05-03T11:03:33.115Z</time></trkpt><trkpt lat="45.0661" lon="7.604165"><ele>278.66666666666663</ele><time>2026-05-03T11:03:34.114Z</time></trkpt><trkpt lat="45.06599" lon="7.6044033"><ele>277.0</ele><time>2026-05-03T11:03:35.11Z</time></trkpt><trkpt lat="45.0658817" lon="7.6046483"><ele>277.0</ele><time>2026-05-03T11:03:36.113Z</time></trkpt><trkpt lat="45.065775" lon="7.6048967"><ele>277.0</ele><time>2026-05-03T11:03:37.109Z</time></trkpt><trkpt lat="45.0656683" lon="7.6051433"><ele>277.0</ele><time>2026-05-03T11:03:38.114Z</time></trkpt><trkpt lat="45.06557" lon="7.60537"><ele>278.3333333333333</ele><time>2026-05-03T11:03:39.11Z</time></trkpt><trkpt lat="45.0654733" lon="7.605595"><ele>279.6666666666667</ele><time>2026-05-03T11:03:40.115Z</time></trkpt><trkpt lat="45.0653833" lon="7.6058083"><ele>281.0</ele><time>2026-05-03T11:03:41.109Z</time></trkpt><trkpt lat="45.0652933" lon="7.606015"><ele>281.0</ele><time>2026-05-03T11:03:42.114Z</time></trkpt><trkpt lat="45.0652067" lon="7.6062217"><ele>281.0</ele><time>2026-05-03T11:03:43.113Z</time></trkpt><trkpt lat="45.065125" lon="7.6064133"><ele>281.0</ele><time>2026-05-03T11:03:44.11Z</time></trkpt><trkpt lat="45.0650383" lon="7.6065967"><ele>281.0</ele><time>2026-05-03T11:03:45.113Z</time></trkpt><trkpt lat="45.06496" lon="7.6067767"><ele>281.0</ele><time>2026-05-03T11:03:46.11Z</time></trkpt><trkpt lat="45.0648833" lon="7.6069533"><ele>281.0</ele><time>2026-05-03T11:03:47.109Z</time></trkpt><trkpt lat="45.06482" lon="7.6071217"><ele>281.0</ele><time>2026-05-03T11:03:48.113Z</time></trkpt><trkpt lat="45.0647717" lon="7.6072917"><ele>280.25</ele><time>2026-05-03T11:03:49.109Z</time></trkpt><trkpt lat="45.06476" lon="7.6074633"><ele>279.5</ele><time>2026-05-03T11:03:50.113Z</time></trkpt><trkpt lat="45.06477" lon="7.6076333"><ele>278.75</ele><time>2026-05-03T11:03:51.111Z</time></trkpt><trkpt lat="45.0647967" lon="7.6078033"><ele>278.0</ele><time>2026-05-03T11:03:52.108Z</time></trkpt><trkpt lat="45.0648283" lon="7.6079717"><ele>278.0</ele><time>2026-05-03T11:03:53.109Z</time></trkpt><trkpt lat="45.0648433" lon="7.60812"><ele>278.0</ele><time>2026-05-03T11:03:54.108Z</time></trkpt><trkpt lat="45.0648517" lon="7.6082617"><ele>278.0</ele><time>2026-05-03T11:03:55.11Z</time></trkpt><trkpt lat="45.06485" lon="7.6083917"><ele>278.0</ele><time>2026-05-03T11:03:56.11Z</time></trkpt><trkpt lat="45.0648567" lon="7.6085117"><ele>278.0</ele><time>2026-05-03T11:03:57.111Z</time></trkpt><trkpt lat="45.0648783" lon="7.6086233"><ele>278.4</ele><time>2026-05-03T11:03:58.108Z</time></trkpt><trkpt lat="45.0649167" lon="7.6087333"><ele>278.8</ele><time>2026-05-03T11:03:59.113Z</time></trkpt><trkpt lat="45.064945" lon="7.608855"><ele>279.2</ele><time>2026-05-03T11:04:00.11Z</time></trkpt><trkpt lat="45.064965" lon="7.609"><ele>279.6</ele><time>2026-05-03T11:04:01.109Z</time></trkpt><trkpt lat="45.0649833" lon="7.6091533"><ele>280.0</ele><time>2026-05-03T11:04:02.111Z</time></trkpt><trkpt lat="45.065005" lon="7.609315"><ele>280.0</ele><time>2026-05-03T11:04:03.111Z</time></trkpt><trkpt lat="45.0650317" lon="7.6094933"><ele>280.0</ele><time>2026-05-03T11:04:04.113Z</time></trkpt><trkpt lat="45.0650567" lon="7.60966"><ele>280.0</ele><time>2026-05-03T11:04:05.11Z</time></trkpt><trkpt lat="45.0650867" lon="7.60982"><ele>280.0</ele><time>2026-05-03T11:04:06.112Z</time></trkpt><trkpt lat="45.0651233" lon="7.609975"><ele>280.0</ele><time>2026-05-03T11:04:07.113Z</time></trkpt><trkpt lat="45.0651633" lon="7.6101367"><ele>280.0</ele><time>2026-05-03T11:04:08.11Z</time></trkpt><trkpt lat="45.0652217" lon="7.6103133"><ele>280.0</ele><time>2026-05-03T11:04:09.112Z</time></trkpt><trkpt lat="45.065285" lon="7.610495"><ele>280.0</ele><time>2026-05-03T11:04:10.113Z</time></trkpt><trkpt lat="45.065345" lon="7.61069"><ele>279.25</ele><time>2026-05-03T11:04:11.114Z</time></trkpt><trkpt lat="45.0653967" lon="7.610885"><ele>278.5</ele><time>2026-05-03T11:04:12.114Z</time></trkpt><trkpt lat="45.0654483" lon="7.6110717"><ele>277.75</ele><time>2026-05-03T11:04:13.114Z</time></trkpt><trkpt lat="45.065495" lon="7.6112467"><ele>277.0</ele><time>2026-05-03T11:04:14.115Z</time></trkpt><trkpt lat="45.0655383" lon="7.6114167"><ele>276.75</ele><time>2026-05-03T11:04:15.11Z</time></trkpt><trkpt lat="45.0655767" lon="7.6115783"><ele>276.5</ele><time>2026-05-03T11:04:16.112Z</time></trkpt><trkpt lat="45.06561" lon="7.6117367"><ele>276.25</ele><time>2026-05-03T11:04:17.112Z</time></trkpt><trkpt lat="45.065645" lon="7.611905"><ele>276.0</ele><time>2026-05-03T11:04:18.116Z</time></trkpt><trkpt lat="45.06568" lon="7.6120767"><ele>275.75</ele><time>2026-05-03T11:04:19.115Z</time></trkpt><trkpt lat="45.065715" lon="7.6122583"><ele>275.5</ele><time>2026-05-03T11:04:20.109Z</time></trkpt><trkpt lat="45.0657583" lon="7.6124483"><ele>275.25</ele><time>2026-05-03T11:04:21.113Z</time></trkpt><trkpt lat="45.0658067" lon="7.61263"><ele>275.0</ele><time>2026-05-03T11:04:22.109Z</time></trkpt><trkpt lat="45.06585" lon="7.6128017"><ele>276.25</ele><time>2026-05-03T11:04:23.112Z</time></trkpt><trkpt lat="45.0658833" lon="7.6129667"><ele>277.5</ele><time>2026-05-03T11:04:24.112Z</time></trkpt><trkpt lat="45.0659133" lon="7.6131233"><ele>278.75</ele><time>2026-05-03T11:04:25.113Z</time></trkpt><trkpt lat="45.065955" lon="7.613275"><ele>280.0</ele><time>2026-05-03T11:04:26.11Z</time></trkpt><trkpt lat="45.0659983" lon="7.6134367"><ele>280.0</ele><time>2026-05-03T11:04:27.111Z</time></trkpt><trkpt lat="45.0660267" lon="7.6136167"><ele>280.0</ele><time>2026-05-03T11:04:28.113Z</time></trkpt><trkpt lat="45.0660383" lon="7.6138117"><ele>280.0</ele><time>2026-05-03T11:04:29.109Z</time></trkpt><trkpt lat="45.0660483" lon="7.6140233"><ele>280.0</ele><time>2026-05-03T11:04:30.111Z</time></trkpt><trkpt lat="45.066055" lon="7.61425"><ele>278.66666666666663</ele><time>2026-05-03T11:04:31.113Z</time></trkpt><trkpt lat="45.0660617" lon="7.6144917"><ele>277.3333333333333</ele><time>2026-05-03T11:04:32.11Z</time></trkpt><trkpt lat="45.0660683" lon="7.6147217"><ele>276.0</ele><time>2026-05-03T11:04:33.113Z</time></trkpt><trkpt lat="45.06607" lon="7.61494"><ele>276.0</ele><time>2026-05-03T11:04:34.111Z</time></trkpt><trkpt lat="45.0660783" lon="7.6151517"><ele>276.0</ele><time>2026-05-03T11:04:35.111Z</time></trkpt><trkpt lat="45.06609" lon="7.61535"><ele>276.0</ele><time>2026-05-03T11:04:36.112Z</time></trkpt><trkpt lat="45.0661133" lon="7.615535"><ele>276.0</ele><time>2026-05-03T11:04:37.114Z</time></trkpt><trkpt lat="45.0661367" lon="7.6156983"><ele>275.8</ele><time>2026-05-03T11:04:38.111Z</time></trkpt><trkpt lat="45.066135" lon="7.6158417"><ele>275.6</ele><time>2026-05-03T11:04:39.114Z</time></trkpt><trkpt lat="45.0661" lon="7.615975"><ele>275.4</ele><time>2026-05-03T11:04:40.113Z</time></trkpt><trkpt lat="45.0660483" lon="7.6161067"><ele>275.2</ele><time>2026-05-03T11:04:41.112Z</time></trkpt><trkpt lat="45.0659933" lon="7.616245"><ele>275.0</ele><time>2026-05-03T11:04:42.11Z</time></trkpt><trkpt lat="45.0659217" lon="7.61639"><ele>275.0</ele><time>2026-05-03T11:04:43.112Z</time></trkpt><trkpt lat="45.0658517" lon="7.6165383"><ele>275.0</ele><time>2026-05-03T11:04:44.112Z</time></trkpt><trkpt lat="45.06578" lon="7.61668"><ele>275.0</ele><time>2026-05-03T11:04:45.113Z</time></trkpt><trkpt lat="45.0657083" lon="7.6168217"><ele>275.0</ele><time>2026-05-03T11:04:46.115Z</time></trkpt><trkpt lat="45.0656333" lon="7.6169667"><ele>274.75</ele><time>2026-05-03T11:04:47.114Z</time></trkpt><trkpt lat="45.0655617" lon="7.6171133"><ele>274.5</ele><time>2026-05-03T11:04:48.113Z</time></trkpt><trkpt lat="45.06549" lon="7.61726"><ele>274.25</ele><time>2026-05-03T11:04:49.113Z</time></trkpt><trkpt lat="45.06542" lon="7.6174017"><ele>274.0</ele><time>2026-05-03T11:04:50.111Z</time></trkpt><trkpt lat="45.065345" lon="7.6175317"><ele>274.0</ele><time>2026-05-03T11:04:51.117Z</time></trkpt><trkpt lat="45.065275" lon="7.6176567"><ele>274.0</ele><time>2026-05-03T11:04:52.111Z</time></trkpt><trkpt lat="45.06521" lon="7.6177767"><ele>274.0</ele><time>2026-05-03T11:04:53.113Z</time></trkpt><trkpt lat="45.0651483" lon="7.6178967"><ele>274.0</ele><time>2026-05-03T11:04:54.111Z</time></trkpt><trkpt lat="45.0650833" lon="7.6180183"><ele>274.0</ele><time>2026-05-03T11:04:55.114Z</time></trkpt><trkpt lat="45.0650217" lon="7.6181383"><ele>274.0</ele><time>2026-05-03T11:04:56.112Z</time></trkpt><trkpt lat="45.06496" lon="7.618255"><ele>274.0</ele><time>2026-05-03T11:04:57.115Z</time></trkpt><trkpt lat="45.0648917" lon="7.6183717"><ele>274.0</ele><time>2026-05-03T11:04:58.112Z</time></trkpt><trkpt lat="45.0648283" lon="7.61849"><ele>274.0</ele><time>2026-05-03T11:04:59.113Z</time></trkpt><trkpt lat="45.0647833" lon="7.61861"><ele>274.0</ele><time>2026-05-03T11:05:00.115Z</time></trkpt><trkpt lat="45.06476" lon="7.6187333"><ele>274.66666666666663</ele><time>2026-05-03T11:05:01.116Z</time></trkpt><trkpt lat="45.064745" lon="7.6188567"><ele>275.3333333333333</ele><time>2026-05-03T11:05:02.111Z</time></trkpt><trkpt lat="45.064725" lon="7.6189767"><ele>276.0</ele><time>2026-05-03T11:05:03.111Z</time></trkpt><trkpt lat="45.0647083" lon="7.6190933"><ele>276.6666666666667</ele><time>2026-05-03T11:05:04.112Z</time></trkpt><trkpt lat="45.0646933" lon="7.61921"><ele>277.33333333333337</ele><time>2026-05-03T11:05:05.114Z</time></trkpt><trkpt lat="45.064675" lon="7.6193217"><ele>278.0</ele><time>2026-05-03T11:05:06.114Z</time></trkpt><trkpt lat="45.0646617" lon="7.6194383"><ele>277.6666666666667</ele><time>2026-05-03T11:05:07.114Z</time></trkpt><trkpt lat="45.0646433" lon="7.6195617"><ele>277.33333333333337</ele><time>2026-05-03T11:05:08.115Z</time></trkpt><trkpt lat="45.064635" lon="7.6196833"><ele>277.0</ele><time>2026-05-03T11:05:09.113Z</time></trkpt><trkpt lat="45.064625" lon="7.6197967"><ele>276.6666666666667</ele><time>2026-05-03T11:05:10.112Z</time></trkpt><trkpt lat="45.0646167" lon="7.6199067"><ele>276.3333333333333</ele><time>2026-05-03T11:05:11.113Z</time></trkpt><trkpt lat="45.064605" lon="7.6200067"><ele>276.0</ele><time>2026-05-03T11:05:12.113Z</time></trkpt><trkpt lat="45.0645967" lon="7.6201067"><ele>276.0</ele><time>2026-05-03T11:05:13.111Z</time></trkpt><trkpt lat="45.0645633" lon="7.6201967"><ele>276.0</ele><time>2026-05-03T11:05:14.114Z</time></trkpt><trkpt lat="45.0645517" lon="7.62031"><ele>276.0</ele><time>2026-05-03T11:05:15.113Z</time></trkpt><trkpt lat="45.0645333" lon="7.6204167"><ele>276.0</ele><time>2026-05-03T11:05:16.112Z</time></trkpt><trkpt lat="45.0645283" lon="7.6205333"><ele>276.0</ele><time>2026-05-03T11:05:17.109Z</time></trkpt><trkpt lat="45.06451" lon="7.6206483"><ele>276.0</ele><time>2026-05-03T11:05:18.113Z</time></trkpt><trkpt lat="45.0645117" lon="7.6207633"><ele>276.14285714285717</ele><time>2026-05-03T11:05:19.114Z</time></trkpt><trkpt lat="45.0644883" lon="7.6208617"><ele>276.28571428571433</ele><time>2026-05-03T11:05:20.116Z</time></trkpt><trkpt lat="45.0644833" lon="7.6209583"><ele>276.42857142857144</ele><time>2026-05-03T11:05:21.113Z</time></trkpt><trkpt lat="45.064475" lon="7.621055"><ele>276.57142857142856</ele><time>2026-05-03T11:05:22.112Z</time></trkpt><trkpt lat="45.0644633" lon="7.621155"><ele>276.71428571428567</ele><time>2026-05-03T11:05:23.11Z</time></trkpt><trkpt lat="45.064455" lon="7.621255"><ele>276.85714285714283</ele><time>2026-05-03T11:05:24.11Z</time></trkpt><trkpt lat="45.064445" lon="7.62135"><ele>277.0</ele><time>2026-05-03T11:05:25.109Z</time></trkpt><trkpt lat="45.06442" lon="7.6215183"><ele>276.66666666666663</ele><time>2026-05-03T11:05:27.115Z</time></trkpt><trkpt lat="45.0644083" lon="7.6216967"><ele>276.3333333333333</ele><time>2026-05-03T11:05:29.111Z</time></trkpt><trkpt lat="45.0644" lon="7.6217867"><ele>276.0</ele><time>2026-05-03T11:05:30.112Z</time></trkpt><trkpt lat="45.0643917" lon="7.6218783"><ele>275.6666666666667</ele><time>2026-05-03T11:05:31.114Z</time></trkpt><trkpt lat="45.06439" lon="7.6219733"><ele>275.33333333333337</ele><time>2026-05-03T11:05:32.117Z</time></trkpt><trkpt lat="45.0643767" lon="7.6221383"><ele>275.0</ele><time>2026-05-03T11:05:34.111Z</time></trkpt><trkpt lat="45.0643717" lon="7.622285"><ele>275.0</ele><time>2026-05-03T11:05:36.115Z</time></trkpt><trkpt lat="45.064365" lon="7.6224217"><ele>275.0</ele><time>2026-05-03T11:05:38.113Z</time></trkpt><trkpt lat="45.06435" lon="7.6225517"><ele>275.0</ele><time>2026-05-03T11:05:40.115Z</time></trkpt><trkpt lat="45.0643467" lon="7.6226683"><ele>275.0</ele><time>2026-05-03T11:05:42.112Z</time></trkpt><trkpt lat="45.0643567" lon="7.6227583"><ele>275.0</ele><time>2026-05-03T11:05:44.115Z</time></trkpt><trkpt lat="45.064365" lon="7.6228467"><ele>275.0</ele><time>2026-05-03T11:06:03.117Z</time></trkpt><trkpt lat="45.0643883" lon="7.6229667"><ele>274.6</ele><time>2026-05-03T11:06:05.115Z</time></trkpt><trkpt lat="45.064395" lon="7.6230717"><ele>274.2</ele><time>2026-05-03T11:06:06.112Z</time></trkpt><trkpt lat="45.0643883" lon="7.623185"><ele>273.8</ele><time>2026-05-03T11:06:07.111Z</time></trkpt><trkpt lat="45.0643817" lon="7.623315"><ele>273.4</ele><time>2026-05-03T11:06:08.112Z</time></trkpt><trkpt lat="45.06437" lon="7.62346"><ele>273.0</ele><time>2026-05-03T11:06:09.115Z</time></trkpt><trkpt lat="45.0643533" lon="7.6236083"><ele>272.6</ele><time>2026-05-03T11:06:10.114Z</time></trkpt><trkpt lat="45.064345" lon="7.6237583"><ele>272.20000000000005</ele><time>2026-05-03T11:06:11.112Z</time></trkpt><trkpt lat="45.0643383" lon="7.6239117"><ele>271.8</ele><time>2026-05-03T11:06:12.114Z</time></trkpt><trkpt lat="45.0643217" lon="7.62407"><ele>271.40000000000003</ele><time>2026-05-03T11:06:13.112Z</time></trkpt><trkpt lat="45.0643083" lon="7.624235"><ele>271.0</ele><time>2026-05-03T11:06:14.112Z</time></trkpt><trkpt lat="45.0642917" lon="7.6244083"><ele>270.75</ele><time>2026-05-03T11:06:15.115Z</time></trkpt><trkpt lat="45.0642817" lon="7.624585"><ele>270.5</ele><time>2026-05-03T11:06:16.112Z</time></trkpt><trkpt lat="45.0642717" lon="7.6247567"><ele>270.25</ele><time>2026-05-03T11:06:17.114Z</time></trkpt><trkpt lat="45.0642617" lon="7.6249183"><ele>270.0</ele><time>2026-05-03T11:06:18.116Z</time></trkpt><trkpt lat="45.064255" lon="7.625075"><ele>270.0</ele><time>2026-05-03T11:06:19.114Z</time></trkpt><trkpt lat="45.064245" lon="7.6252283"><ele>270.0</ele><time>2026-05-03T11:06:20.114Z</time></trkpt><trkpt lat="45.0642383" lon="7.6253733"><ele>270.0</ele><time>2026-05-03T11:06:21.115Z</time></trkpt><trkpt lat="45.0642333" lon="7.6255133"><ele>270.0</ele><time>2026-05-03T11:06:22.118Z</time></trkpt><trkpt lat="45.0642267" lon="7.6256383"><ele>270.0</ele><time>2026-05-03T11:06:23.116Z</time></trkpt><trkpt lat="45.0642267" lon="7.6257417"><ele>270.0</ele><time>2026-05-03T11:06:24.116Z</time></trkpt><trkpt lat="45.06424" lon="7.6258767"><ele>270.0</ele><time>2026-05-03T11:07:29.118Z</time></trkpt><trkpt lat="45.0642417" lon="7.6259667"><ele>270.0</ele><time>2026-05-03T11:07:30.115Z</time></trkpt><trkpt lat="45.0642117" lon="7.6261017"><ele>270.0</ele><time>2026-05-03T11:07:32.116Z</time></trkpt><trkpt lat="45.0641233" lon="7.626195"><ele>270.0</ele><time>2026-05-03T11:07:34.116Z</time></trkpt><trkpt lat="45.0640533" lon="7.6262283"><ele>270.0</ele><time>2026-05-03T11:07:35.112Z</time></trkpt><trkpt lat="45.063975" lon="7.6262633"><ele>270.0</ele><time>2026-05-03T11:07:36.113Z</time></trkpt><trkpt lat="45.0638717" lon="7.6263167"><ele>270.0</ele><time>2026-05-03T11:07:37.118Z</time></trkpt><trkpt lat="45.0637533" lon="7.6263817"><ele>270.0</ele><time>2026-05-03T11:07:38.113Z</time></trkpt><trkpt lat="45.0636267" lon="7.62645"><ele>270.0</ele><time>2026-05-03T11:07:39.115Z</time></trkpt><trkpt lat="45.0634917" lon="7.6265167"><ele>270.0</ele><time>2026-05-03T11:07:40.115Z</time></trkpt><trkpt lat="45.063345" lon="7.6265917"><ele>270.0</ele><time>2026-05-03T11:07:41.113Z</time></trkpt><trkpt lat="45.063205" lon="7.6266667"><ele>270.0</ele><time>2026-05-03T11:07:42.114Z</time></trkpt><trkpt lat="45.0630733" lon="7.6267383"><ele>270.0</ele><time>2026-05-03T11:07:43.114Z</time></trkpt><trkpt lat="45.0629533" lon="7.6268"><ele>270.4</ele><time>2026-05-03T11:07:44.111Z</time></trkpt><trkpt lat="45.0628483" lon="7.6268483"><ele>270.8</ele><time>2026-05-03T11:07:45.112Z</time></trkpt><trkpt lat="45.0627583" lon="7.62689"><ele>271.2</ele><time>2026-05-03T11:07:46.112Z</time></trkpt><trkpt lat="45.0626833" lon="7.6269317"><ele>271.6</ele><time>2026-05-03T11:07:47.111Z</time></trkpt><trkpt lat="45.0625983" lon="7.6269967"><ele>272.0</ele><time>2026-05-03T11:07:49.114Z</time></trkpt><trkpt lat="45.0625517" lon="7.62708"><ele>272.0</ele><time>2026-05-03T11:07:51.114Z</time></trkpt><trkpt lat="45.0625433" lon="7.6271983"><ele>272.0</ele><time>2026-05-03T11:07:53.114Z</time></trkpt><trkpt lat="45.06256" lon="7.6273233"><ele>272.0</ele><time>2026-05-03T11:07:55.119Z</time></trkpt><trkpt lat="45.0625883" lon="7.6274233"><ele>272.0</ele><time>2026-05-03T11:07:57.118Z</time></trkpt><trkpt lat="45.0626233" lon="7.62756"><ele>272.0</ele><time>2026-05-03T11:07:59.109Z</time></trkpt><trkpt lat="45.0626483" lon="7.627655"><ele>272.0</ele><time>2026-05-03T11:08:00.112Z</time></trkpt><trkpt lat="45.06266" lon="7.6277667"><ele>271.71428571428567</ele><time>2026-05-03T11:08:01.116Z</time></trkpt><trkpt lat="45.06266" lon="7.627875"><ele>271.42857142857144</ele><time>2026-05-03T11:08:02.114Z</time></trkpt><trkpt lat="45.0626517" lon="7.6279733"><ele>271.1428571428571</ele><time>2026-05-03T11:08:03.112Z</time></trkpt><trkpt lat="45.0626383" lon="7.6280683"><ele>270.85714285714283</ele><time>2026-05-03T11:08:04.113Z</time></trkpt><trkpt lat="45.0626267" lon="7.6281583"><ele>270.57142857142856</ele><time>2026-05-03T11:08:05.114Z</time></trkpt><trkpt lat="45.0626067" lon="7.62825"><ele>270.2857142857143</ele><time>2026-05-03T11:08:06.114Z</time></trkpt><trkpt lat="45.062595" lon="7.628345"><ele>270.0</ele><time>2026-05-03T11:08:07.114Z</time></trkpt><trkpt lat="45.0625833" lon="7.6284517"><ele>270.0</ele><time>2026-05-03T11:08:08.108Z</time></trkpt><trkpt lat="45.0625717" lon="7.62855"><ele>270.0</ele><time>2026-05-03T11:08:09.112Z</time></trkpt><trkpt lat="45.0625633" lon="7.6286417"><ele>270.0</ele><time>2026-05-03T11:08:10.113Z</time></trkpt><trkpt lat="45.06255" lon="7.6287417"><ele>270.0</ele><time>2026-05-03T11:08:11.11Z</time></trkpt><trkpt lat="45.0625283" lon="7.628845"><ele>270.0</ele><time>2026-05-03T11:08:12.117Z</time></trkpt><trkpt lat="45.0625167" lon="7.6289517"><ele>270.0</ele><time>2026-05-03T11:08:13.114Z</time></trkpt><trkpt lat="45.0625017" lon="7.6290483"><ele>270.0</ele><time>2026-05-03T11:08:14.119Z</time></trkpt><trkpt lat="45.062495" lon="7.6291433"><ele>270.1428571428571</ele><time>2026-05-03T11:08:15.113Z</time></trkpt><trkpt lat="45.0624883" lon="7.62924"><ele>270.2857142857143</ele><time>2026-05-03T11:08:16.112Z</time></trkpt><trkpt lat="45.0624767" lon="7.6293683"><ele>270.42857142857144</ele><time>2026-05-03T11:08:18.115Z</time></trkpt><trkpt lat="45.0624717" lon="7.6294833"><ele>270.57142857142856</ele><time>2026-05-03T11:08:20.116Z</time></trkpt><trkpt lat="45.0624633" lon="7.6295717"><ele>270.7142857142857</ele><time>2026-05-03T11:08:22.117Z</time></trkpt><trkpt lat="45.06246" lon="7.62967"><ele>270.85714285714283</ele><time>2026-05-03T11:08:32.118Z</time></trkpt><trkpt lat="45.06245" lon="7.629765"><ele>271.0</ele><time>2026-05-03T11:08:34.113Z</time></trkpt><trkpt lat="45.0623833" lon="7.629845"><ele>271.0</ele><time>2026-05-03T11:08:36.114Z</time></trkpt><trkpt lat="45.0623067" lon="7.629875"><ele>271.0</ele><time>2026-05-03T11:08:38.115Z</time></trkpt><trkpt lat="45.062195" lon="7.62984"><ele>271.0</ele><time>2026-05-03T11:08:40.114Z</time></trkpt><trkpt lat="45.0620867" lon="7.629805"><ele>271.0</ele><time>2026-05-03T11:08:42.111Z</time></trkpt><trkpt lat="45.06201" lon="7.6297267"><ele>271.0</ele><time>2026-05-03T11:08:44.113Z</time></trkpt><trkpt lat="45.062015" lon="7.6295367"><ele>271.75</ele><time>2026-05-03T11:09:22.11Z</time></trkpt><trkpt lat="45.0620467" lon="7.62945"><ele>272.5</ele><time>2026-05-03T11:09:25.11Z</time></trkpt><trkpt lat="45.0620767" lon="7.6293533"><ele>273.25</ele><time>2026-05-03T11:09:27.113Z</time></trkpt><trkpt lat="45.0621133" lon="7.6292333"><ele>274.0</ele><time>2026-05-03T11:09:30.113Z</time></trkpt><trkpt lat="45.06191" lon="7.6290217"><ele>274.0</ele><time>2026-05-03T11:10:05.108Z</time></trkpt></trkseg></trk></gpx>